<?xml version="1.0" encoding="UTF-8"?>
<gpx version="1.1" creator="https://www.www-youtrack-es.amenigma.com" xsi:schemaLocation="http://www.topografix.com/GPX/1/1 http://www.topografix.com/GPX/1/1/gpx.xsd http://www.garmin.com/xmlschemas/GpxExtensions/v3 http://www.garmin.com/xmlschemas/GpxExtensionsv3.xsd http://www.garmin.com/xmlschemas/TrackPointExtension/v1 http://www.garmin.com/xmlschemas/TrackPointExtensionv1.xsd" xmlns:gpxtpx="http://www.garmin.com/xmlschemas/TrackPointExtension/v1" xmlns:gpxx="http://www.garmin.com/xmlschemas/GpxExtensions/v3" xmlns:xsi="http://www.w3.org/2001/XMLSchema-instance">
  <metadata>
    <author>
      <name>Lisandro Bueno</name>
      <email id="labs001" domain="gmail.com"/>
    </author>
    <link href="https://www.www-youtrack-es.amenigma.com">
      <text>YouTrack.es</text>
    </link>
    <time>2026-09-01T23:18:45Z</time>
  </metadata>
  <trk>
    <src>https://www.www-youtrack-es.amenigma.com</src>
    <link href="https://www.www-youtrack-es.amenigma.com/ruta/37690-kilometros-de-fe">
      <text>YouTrack.es</text>
    </link>
    <trkseg>
      <trkpt lat="10.258467" lon="-67.951415">
        <ele>471.40</ele>
        <time>2022-10-26T09:44:04Z</time>
      </trkpt>
      <trkpt lat="10.258380" lon="-67.951443">
        <ele>471.40</ele>
        <time>2022-10-26T09:44:05Z</time>
      </trkpt>
      <trkpt lat="10.258354" lon="-67.951380">
        <ele>471.50</ele>
        <time>2022-10-26T09:44:06Z</time>
      </trkpt>
      <trkpt lat="10.258350" lon="-67.951312">
        <ele>471.50</ele>
        <time>2022-10-26T09:44:07Z</time>
      </trkpt>
      <trkpt lat="10.258336" lon="-67.951310">
        <ele>471.50</ele>
        <time>2022-10-26T09:44:08Z</time>
      </trkpt>
      <trkpt lat="10.258318" lon="-67.951329">
        <ele>471.50</ele>
        <time>2022-10-26T09:44:09Z</time>
      </trkpt>
      <trkpt lat="10.258293" lon="-67.951361">
        <ele>471.60</ele>
        <time>2022-10-26T09:44:11Z</time>
      </trkpt>
      <trkpt lat="10.258291" lon="-67.951364">
        <ele>471.60</ele>
        <time>2022-10-26T09:44:12Z</time>
      </trkpt>
      <trkpt lat="10.258281" lon="-67.951374">
        <ele>471.60</ele>
        <time>2022-10-26T09:44:13Z</time>
      </trkpt>
      <trkpt lat="10.258286" lon="-67.951379">
        <ele>471.60</ele>
        <time>2022-10-26T09:44:14Z</time>
      </trkpt>
      <trkpt lat="10.258292" lon="-67.951386">
        <ele>471.60</ele>
        <time>2022-10-26T09:44:15Z</time>
      </trkpt>
      <trkpt lat="10.258296" lon="-67.951392">
        <ele>471.60</ele>
        <time>2022-10-26T09:44:16Z</time>
      </trkpt>
      <trkpt lat="10.258296" lon="-67.951402">
        <ele>471.60</ele>
        <time>2022-10-26T09:44:17Z</time>
      </trkpt>
      <trkpt lat="10.258286" lon="-67.951411">
        <ele>471.60</ele>
        <time>2022-10-26T09:44:18Z</time>
      </trkpt>
      <trkpt lat="10.258273" lon="-67.951415">
        <ele>471.60</ele>
        <time>2022-10-26T09:44:19Z</time>
      </trkpt>
      <trkpt lat="10.258266" lon="-67.951417">
        <ele>471.60</ele>
        <time>2022-10-26T09:44:20Z</time>
      </trkpt>
      <trkpt lat="10.258261" lon="-67.951418">
        <ele>471.60</ele>
        <time>2022-10-26T09:44:21Z</time>
      </trkpt>
      <trkpt lat="10.258250" lon="-67.951418">
        <ele>471.60</ele>
        <time>2022-10-26T09:44:22Z</time>
      </trkpt>
      <trkpt lat="10.258246" lon="-67.951418">
        <ele>471.60</ele>
        <time>2022-10-26T09:44:23Z</time>
      </trkpt>
      <trkpt lat="10.258243" lon="-67.951420">
        <ele>471.60</ele>
        <time>2022-10-26T09:44:24Z</time>
      </trkpt>
      <trkpt lat="10.258250" lon="-67.951430">
        <ele>471.60</ele>
        <time>2022-10-26T09:44:25Z</time>
      </trkpt>
      <trkpt lat="10.258271" lon="-67.951444">
        <ele>471.60</ele>
        <time>2022-10-26T09:44:26Z</time>
      </trkpt>
      <trkpt lat="10.258285" lon="-67.951458">
        <ele>471.60</ele>
        <time>2022-10-26T09:44:27Z</time>
      </trkpt>
      <trkpt lat="10.258294" lon="-67.951462">
        <ele>471.70</ele>
        <time>2022-10-26T09:44:28Z</time>
      </trkpt>
      <trkpt lat="10.258308" lon="-67.951443">
        <ele>471.70</ele>
        <time>2022-10-26T09:44:29Z</time>
      </trkpt>
      <trkpt lat="10.258315" lon="-67.951423">
        <ele>471.70</ele>
        <time>2022-10-26T09:44:30Z</time>
      </trkpt>
      <trkpt lat="10.258331" lon="-67.951378">
        <ele>471.70</ele>
        <time>2022-10-26T09:44:32Z</time>
      </trkpt>
      <trkpt lat="10.258332" lon="-67.951359">
        <ele>471.70</ele>
        <time>2022-10-26T09:44:33Z</time>
      </trkpt>
      <trkpt lat="10.258336" lon="-67.951353">
        <ele>471.70</ele>
        <time>2022-10-26T09:44:34Z</time>
      </trkpt>
      <trkpt lat="10.258351" lon="-67.951358">
        <ele>471.70</ele>
        <time>2022-10-26T09:44:35Z</time>
      </trkpt>
      <trkpt lat="10.258380" lon="-67.951373">
        <ele>471.70</ele>
        <time>2022-10-26T09:44:36Z</time>
      </trkpt>
      <trkpt lat="10.258393" lon="-67.951375">
        <ele>471.80</ele>
        <time>2022-10-26T09:44:37Z</time>
      </trkpt>
      <trkpt lat="10.258419" lon="-67.951387">
        <ele>471.80</ele>
        <time>2022-10-26T09:44:38Z</time>
      </trkpt>
      <trkpt lat="10.258427" lon="-67.951392">
        <ele>471.80</ele>
        <time>2022-10-26T09:44:39Z</time>
      </trkpt>
      <trkpt lat="10.258443" lon="-67.951419">
        <ele>471.80</ele>
        <time>2022-10-26T09:44:40Z</time>
      </trkpt>
      <trkpt lat="10.258447" lon="-67.951428">
        <ele>471.80</ele>
        <time>2022-10-26T09:44:41Z</time>
      </trkpt>
      <trkpt lat="10.258461" lon="-67.951455">
        <ele>471.80</ele>
        <time>2022-10-26T09:44:42Z</time>
      </trkpt>
      <trkpt lat="10.258470" lon="-67.951489">
        <ele>471.80</ele>
        <time>2022-10-26T09:44:43Z</time>
      </trkpt>
      <trkpt lat="10.258469" lon="-67.951522">
        <ele>471.90</ele>
        <time>2022-10-26T09:44:44Z</time>
      </trkpt>
      <trkpt lat="10.258469" lon="-67.951551">
        <ele>471.90</ele>
        <time>2022-10-26T09:44:45Z</time>
      </trkpt>
      <trkpt lat="10.258479" lon="-67.951588">
        <ele>472.00</ele>
        <time>2022-10-26T09:44:46Z</time>
      </trkpt>
      <trkpt lat="10.258483" lon="-67.951599">
        <ele>472.00</ele>
        <time>2022-10-26T09:44:47Z</time>
      </trkpt>
      <trkpt lat="10.258491" lon="-67.951626">
        <ele>472.00</ele>
        <time>2022-10-26T09:44:48Z</time>
      </trkpt>
      <trkpt lat="10.258501" lon="-67.951668">
        <ele>472.00</ele>
        <time>2022-10-26T09:44:49Z</time>
      </trkpt>
      <trkpt lat="10.258504" lon="-67.951685">
        <ele>472.00</ele>
        <time>2022-10-26T09:44:50Z</time>
      </trkpt>
      <trkpt lat="10.258511" lon="-67.951719">
        <ele>471.90</ele>
        <time>2022-10-26T09:44:51Z</time>
      </trkpt>
      <trkpt lat="10.258522" lon="-67.951755">
        <ele>471.90</ele>
        <time>2022-10-26T09:44:52Z</time>
      </trkpt>
      <trkpt lat="10.258532" lon="-67.951793">
        <ele>471.90</ele>
        <time>2022-10-26T09:44:53Z</time>
      </trkpt>
      <trkpt lat="10.258540" lon="-67.951830">
        <ele>471.90</ele>
        <time>2022-10-26T09:44:54Z</time>
      </trkpt>
      <trkpt lat="10.258541" lon="-67.951870">
        <ele>471.90</ele>
        <time>2022-10-26T09:44:55Z</time>
      </trkpt>
      <trkpt lat="10.258543" lon="-67.951910">
        <ele>471.90</ele>
        <time>2022-10-26T09:44:56Z</time>
      </trkpt>
      <trkpt lat="10.258548" lon="-67.951951">
        <ele>471.90</ele>
        <time>2022-10-26T09:44:57Z</time>
      </trkpt>
      <trkpt lat="10.258552" lon="-67.951988">
        <ele>471.90</ele>
        <time>2022-10-26T09:44:58Z</time>
      </trkpt>
      <trkpt lat="10.258562" lon="-67.952025">
        <ele>471.90</ele>
        <time>2022-10-26T09:44:59Z</time>
      </trkpt>
      <trkpt lat="10.258573" lon="-67.952062">
        <ele>471.90</ele>
        <time>2022-10-26T09:45:00Z</time>
      </trkpt>
      <trkpt lat="10.258583" lon="-67.952099">
        <ele>471.90</ele>
        <time>2022-10-26T09:45:01Z</time>
      </trkpt>
      <trkpt lat="10.258591" lon="-67.952133">
        <ele>471.90</ele>
        <time>2022-10-26T09:45:02Z</time>
      </trkpt>
      <trkpt lat="10.258601" lon="-67.952173">
        <ele>471.90</ele>
        <time>2022-10-26T09:45:03Z</time>
      </trkpt>
      <trkpt lat="10.258609" lon="-67.952207">
        <ele>471.90</ele>
        <time>2022-10-26T09:45:04Z</time>
      </trkpt>
      <trkpt lat="10.258614" lon="-67.952239">
        <ele>471.90</ele>
        <time>2022-10-26T09:45:05Z</time>
      </trkpt>
      <trkpt lat="10.258615" lon="-67.952268">
        <ele>471.90</ele>
        <time>2022-10-26T09:45:06Z</time>
      </trkpt>
      <trkpt lat="10.258616" lon="-67.952300">
        <ele>471.90</ele>
        <time>2022-10-26T09:45:07Z</time>
      </trkpt>
      <trkpt lat="10.258619" lon="-67.952329">
        <ele>471.90</ele>
        <time>2022-10-26T09:45:08Z</time>
      </trkpt>
      <trkpt lat="10.258627" lon="-67.952369">
        <ele>471.90</ele>
        <time>2022-10-26T09:45:09Z</time>
      </trkpt>
      <trkpt lat="10.258628" lon="-67.952384">
        <ele>471.90</ele>
        <time>2022-10-26T09:45:10Z</time>
      </trkpt>
      <trkpt lat="10.258630" lon="-67.952414">
        <ele>471.90</ele>
        <time>2022-10-26T09:45:11Z</time>
      </trkpt>
      <trkpt lat="10.258634" lon="-67.952447">
        <ele>471.80</ele>
        <time>2022-10-26T09:45:12Z</time>
      </trkpt>
      <trkpt lat="10.258636" lon="-67.952481">
        <ele>471.70</ele>
        <time>2022-10-26T09:45:13Z</time>
      </trkpt>
      <trkpt lat="10.258637" lon="-67.952513">
        <ele>471.60</ele>
        <time>2022-10-26T09:45:14Z</time>
      </trkpt>
      <trkpt lat="10.258645" lon="-67.952550">
        <ele>471.50</ele>
        <time>2022-10-26T09:45:15Z</time>
      </trkpt>
      <trkpt lat="10.258650" lon="-67.952588">
        <ele>471.40</ele>
        <time>2022-10-26T09:45:16Z</time>
      </trkpt>
      <trkpt lat="10.258653" lon="-67.952636">
        <ele>471.30</ele>
        <time>2022-10-26T09:45:17Z</time>
      </trkpt>
      <trkpt lat="10.258662" lon="-67.952687">
        <ele>471.20</ele>
        <time>2022-10-26T09:45:18Z</time>
      </trkpt>
      <trkpt lat="10.258671" lon="-67.952734">
        <ele>471.10</ele>
        <time>2022-10-26T09:45:19Z</time>
      </trkpt>
      <trkpt lat="10.258686" lon="-67.952779">
        <ele>471.00</ele>
        <time>2022-10-26T09:45:20Z</time>
      </trkpt>
      <trkpt lat="10.258703" lon="-67.952821">
        <ele>471.00</ele>
        <time>2022-10-26T09:45:21Z</time>
      </trkpt>
      <trkpt lat="10.258716" lon="-67.952864">
        <ele>471.00</ele>
        <time>2022-10-26T09:45:22Z</time>
      </trkpt>
      <trkpt lat="10.258731" lon="-67.952907">
        <ele>471.00</ele>
        <time>2022-10-26T09:45:23Z</time>
      </trkpt>
      <trkpt lat="10.258748" lon="-67.952950">
        <ele>471.00</ele>
        <time>2022-10-26T09:45:24Z</time>
      </trkpt>
      <trkpt lat="10.258769" lon="-67.952990">
        <ele>471.00</ele>
        <time>2022-10-26T09:45:25Z</time>
      </trkpt>
      <trkpt lat="10.258784" lon="-67.953031">
        <ele>470.90</ele>
        <time>2022-10-26T09:45:26Z</time>
      </trkpt>
      <trkpt lat="10.258799" lon="-67.953066">
        <ele>470.80</ele>
        <time>2022-10-26T09:45:27Z</time>
      </trkpt>
      <trkpt lat="10.258808" lon="-67.953099">
        <ele>470.70</ele>
        <time>2022-10-26T09:45:28Z</time>
      </trkpt>
      <trkpt lat="10.258818" lon="-67.953133">
        <ele>470.60</ele>
        <time>2022-10-26T09:45:29Z</time>
      </trkpt>
      <trkpt lat="10.258829" lon="-67.953170">
        <ele>470.50</ele>
        <time>2022-10-26T09:45:30Z</time>
      </trkpt>
      <trkpt lat="10.258843" lon="-67.953207">
        <ele>470.40</ele>
        <time>2022-10-26T09:45:31Z</time>
      </trkpt>
      <trkpt lat="10.258847" lon="-67.953252">
        <ele>470.30</ele>
        <time>2022-10-26T09:45:32Z</time>
      </trkpt>
      <trkpt lat="10.258851" lon="-67.953297">
        <ele>470.30</ele>
        <time>2022-10-26T09:45:33Z</time>
      </trkpt>
      <trkpt lat="10.258865" lon="-67.953349">
        <ele>470.20</ele>
        <time>2022-10-26T09:45:34Z</time>
      </trkpt>
      <trkpt lat="10.258877" lon="-67.953400">
        <ele>470.20</ele>
        <time>2022-10-26T09:45:35Z</time>
      </trkpt>
      <trkpt lat="10.258887" lon="-67.953449">
        <ele>470.20</ele>
        <time>2022-10-26T09:45:36Z</time>
      </trkpt>
      <trkpt lat="10.258896" lon="-67.953496">
        <ele>470.20</ele>
        <time>2022-10-26T09:45:37Z</time>
      </trkpt>
      <trkpt lat="10.258906" lon="-67.953538">
        <ele>470.20</ele>
        <time>2022-10-26T09:45:38Z</time>
      </trkpt>
      <trkpt lat="10.258913" lon="-67.953580">
        <ele>470.10</ele>
        <time>2022-10-26T09:45:39Z</time>
      </trkpt>
      <trkpt lat="10.258921" lon="-67.953621">
        <ele>470.10</ele>
        <time>2022-10-26T09:45:40Z</time>
      </trkpt>
      <trkpt lat="10.258922" lon="-67.953663">
        <ele>470.10</ele>
        <time>2022-10-26T09:45:41Z</time>
      </trkpt>
      <trkpt lat="10.258917" lon="-67.953711">
        <ele>470.00</ele>
        <time>2022-10-26T09:45:42Z</time>
      </trkpt>
      <trkpt lat="10.258913" lon="-67.953757">
        <ele>470.00</ele>
        <time>2022-10-26T09:45:43Z</time>
      </trkpt>
      <trkpt lat="10.258919" lon="-67.953803">
        <ele>469.90</ele>
        <time>2022-10-26T09:45:44Z</time>
      </trkpt>
      <trkpt lat="10.258924" lon="-67.953852">
        <ele>469.90</ele>
        <time>2022-10-26T09:45:45Z</time>
      </trkpt>
      <trkpt lat="10.258927" lon="-67.953901">
        <ele>469.90</ele>
        <time>2022-10-26T09:45:46Z</time>
      </trkpt>
      <trkpt lat="10.258937" lon="-67.953951">
        <ele>469.80</ele>
        <time>2022-10-26T09:45:47Z</time>
      </trkpt>
      <trkpt lat="10.258948" lon="-67.954002">
        <ele>469.80</ele>
        <time>2022-10-26T09:45:48Z</time>
      </trkpt>
      <trkpt lat="10.258959" lon="-67.954051">
        <ele>469.80</ele>
        <time>2022-10-26T09:45:49Z</time>
      </trkpt>
      <trkpt lat="10.258969" lon="-67.954099">
        <ele>469.70</ele>
        <time>2022-10-26T09:45:50Z</time>
      </trkpt>
      <trkpt lat="10.258981" lon="-67.954151">
        <ele>469.70</ele>
        <time>2022-10-26T09:45:51Z</time>
      </trkpt>
      <trkpt lat="10.258993" lon="-67.954199">
        <ele>469.70</ele>
        <time>2022-10-26T09:45:52Z</time>
      </trkpt>
      <trkpt lat="10.259009" lon="-67.954248">
        <ele>469.60</ele>
        <time>2022-10-26T09:45:53Z</time>
      </trkpt>
      <trkpt lat="10.259020" lon="-67.954292">
        <ele>469.60</ele>
        <time>2022-10-26T09:45:54Z</time>
      </trkpt>
      <trkpt lat="10.259026" lon="-67.954331">
        <ele>469.60</ele>
        <time>2022-10-26T09:45:55Z</time>
      </trkpt>
      <trkpt lat="10.259028" lon="-67.954370">
        <ele>469.50</ele>
        <time>2022-10-26T09:45:56Z</time>
      </trkpt>
      <trkpt lat="10.259023" lon="-67.954416">
        <ele>469.50</ele>
        <time>2022-10-26T09:45:57Z</time>
      </trkpt>
      <trkpt lat="10.259006" lon="-67.954459">
        <ele>469.50</ele>
        <time>2022-10-26T09:45:58Z</time>
      </trkpt>
      <trkpt lat="10.258988" lon="-67.954495">
        <ele>469.40</ele>
        <time>2022-10-26T09:45:59Z</time>
      </trkpt>
      <trkpt lat="10.258955" lon="-67.954515">
        <ele>469.40</ele>
        <time>2022-10-26T09:46:00Z</time>
      </trkpt>
      <trkpt lat="10.258916" lon="-67.954529">
        <ele>469.40</ele>
        <time>2022-10-26T09:46:01Z</time>
      </trkpt>
      <trkpt lat="10.258876" lon="-67.954545">
        <ele>469.40</ele>
        <time>2022-10-26T09:46:02Z</time>
      </trkpt>
      <trkpt lat="10.258831" lon="-67.954565">
        <ele>469.30</ele>
        <time>2022-10-26T09:46:03Z</time>
      </trkpt>
      <trkpt lat="10.258777" lon="-67.954579">
        <ele>469.30</ele>
        <time>2022-10-26T09:46:04Z</time>
      </trkpt>
      <trkpt lat="10.258729" lon="-67.954590">
        <ele>469.30</ele>
        <time>2022-10-26T09:46:05Z</time>
      </trkpt>
      <trkpt lat="10.258680" lon="-67.954597">
        <ele>469.30</ele>
        <time>2022-10-26T09:46:06Z</time>
      </trkpt>
      <trkpt lat="10.258631" lon="-67.954606">
        <ele>469.30</ele>
        <time>2022-10-26T09:46:07Z</time>
      </trkpt>
      <trkpt lat="10.258578" lon="-67.954617">
        <ele>469.30</ele>
        <time>2022-10-26T09:46:08Z</time>
      </trkpt>
      <trkpt lat="10.258524" lon="-67.954630">
        <ele>469.30</ele>
        <time>2022-10-26T09:46:09Z</time>
      </trkpt>
      <trkpt lat="10.258471" lon="-67.954646">
        <ele>469.30</ele>
        <time>2022-10-26T09:46:10Z</time>
      </trkpt>
      <trkpt lat="10.258417" lon="-67.954662">
        <ele>469.30</ele>
        <time>2022-10-26T09:46:11Z</time>
      </trkpt>
      <trkpt lat="10.258363" lon="-67.954680">
        <ele>469.30</ele>
        <time>2022-10-26T09:46:12Z</time>
      </trkpt>
      <trkpt lat="10.258312" lon="-67.954700">
        <ele>469.30</ele>
        <time>2022-10-26T09:46:13Z</time>
      </trkpt>
      <trkpt lat="10.258263" lon="-67.954722">
        <ele>469.30</ele>
        <time>2022-10-26T09:46:14Z</time>
      </trkpt>
      <trkpt lat="10.258214" lon="-67.954742">
        <ele>469.30</ele>
        <time>2022-10-26T09:46:15Z</time>
      </trkpt>
      <trkpt lat="10.258164" lon="-67.954767">
        <ele>469.40</ele>
        <time>2022-10-26T09:46:16Z</time>
      </trkpt>
      <trkpt lat="10.258114" lon="-67.954792">
        <ele>469.40</ele>
        <time>2022-10-26T09:46:17Z</time>
      </trkpt>
      <trkpt lat="10.258065" lon="-67.954813">
        <ele>469.40</ele>
        <time>2022-10-26T09:46:18Z</time>
      </trkpt>
      <trkpt lat="10.258011" lon="-67.954831">
        <ele>469.40</ele>
        <time>2022-10-26T09:46:19Z</time>
      </trkpt>
      <trkpt lat="10.257956" lon="-67.954849">
        <ele>469.40</ele>
        <time>2022-10-26T09:46:20Z</time>
      </trkpt>
      <trkpt lat="10.257900" lon="-67.954863">
        <ele>469.40</ele>
        <time>2022-10-26T09:46:21Z</time>
      </trkpt>
      <trkpt lat="10.257839" lon="-67.954875">
        <ele>469.40</ele>
        <time>2022-10-26T09:46:22Z</time>
      </trkpt>
      <trkpt lat="10.257776" lon="-67.954895">
        <ele>469.50</ele>
        <time>2022-10-26T09:46:23Z</time>
      </trkpt>
      <trkpt lat="10.257721" lon="-67.954915">
        <ele>469.50</ele>
        <time>2022-10-26T09:46:24Z</time>
      </trkpt>
      <trkpt lat="10.257666" lon="-67.954938">
        <ele>469.50</ele>
        <time>2022-10-26T09:46:25Z</time>
      </trkpt>
      <trkpt lat="10.257611" lon="-67.954955">
        <ele>469.50</ele>
        <time>2022-10-26T09:46:26Z</time>
      </trkpt>
      <trkpt lat="10.257552" lon="-67.954971">
        <ele>469.50</ele>
        <time>2022-10-26T09:46:27Z</time>
      </trkpt>
      <trkpt lat="10.257495" lon="-67.954986">
        <ele>469.40</ele>
        <time>2022-10-26T09:46:28Z</time>
      </trkpt>
      <trkpt lat="10.257440" lon="-67.955002">
        <ele>469.40</ele>
        <time>2022-10-26T09:46:29Z</time>
      </trkpt>
      <trkpt lat="10.257396" lon="-67.955020">
        <ele>469.20</ele>
        <time>2022-10-26T09:46:30Z</time>
      </trkpt>
      <trkpt lat="10.257369" lon="-67.955044">
        <ele>469.20</ele>
        <time>2022-10-26T09:46:31Z</time>
      </trkpt>
      <trkpt lat="10.257372" lon="-67.955086">
        <ele>469.10</ele>
        <time>2022-10-26T09:46:32Z</time>
      </trkpt>
      <trkpt lat="10.257390" lon="-67.955136">
        <ele>469.10</ele>
        <time>2022-10-26T09:46:33Z</time>
      </trkpt>
      <trkpt lat="10.257410" lon="-67.955189">
        <ele>469.00</ele>
        <time>2022-10-26T09:46:34Z</time>
      </trkpt>
      <trkpt lat="10.257425" lon="-67.955239">
        <ele>468.90</ele>
        <time>2022-10-26T09:46:35Z</time>
      </trkpt>
      <trkpt lat="10.257445" lon="-67.955288">
        <ele>468.90</ele>
        <time>2022-10-26T09:46:36Z</time>
      </trkpt>
      <trkpt lat="10.257458" lon="-67.955340">
        <ele>468.80</ele>
        <time>2022-10-26T09:46:37Z</time>
      </trkpt>
      <trkpt lat="10.257471" lon="-67.955393">
        <ele>468.80</ele>
        <time>2022-10-26T09:46:38Z</time>
      </trkpt>
      <trkpt lat="10.257478" lon="-67.955456">
        <ele>468.70</ele>
        <time>2022-10-26T09:46:39Z</time>
      </trkpt>
      <trkpt lat="10.257490" lon="-67.955520">
        <ele>468.70</ele>
        <time>2022-10-26T09:46:40Z</time>
      </trkpt>
      <trkpt lat="10.257496" lon="-67.955588">
        <ele>468.60</ele>
        <time>2022-10-26T09:46:41Z</time>
      </trkpt>
      <trkpt lat="10.257507" lon="-67.955651">
        <ele>468.60</ele>
        <time>2022-10-26T09:46:42Z</time>
      </trkpt>
      <trkpt lat="10.257518" lon="-67.955717">
        <ele>468.50</ele>
        <time>2022-10-26T09:46:43Z</time>
      </trkpt>
      <trkpt lat="10.257525" lon="-67.955781">
        <ele>468.40</ele>
        <time>2022-10-26T09:46:44Z</time>
      </trkpt>
      <trkpt lat="10.257524" lon="-67.955848">
        <ele>468.30</ele>
        <time>2022-10-26T09:46:45Z</time>
      </trkpt>
      <trkpt lat="10.257530" lon="-67.955916">
        <ele>468.30</ele>
        <time>2022-10-26T09:46:46Z</time>
      </trkpt>
      <trkpt lat="10.257538" lon="-67.955985">
        <ele>468.20</ele>
        <time>2022-10-26T09:46:47Z</time>
      </trkpt>
      <trkpt lat="10.257551" lon="-67.956061">
        <ele>468.10</ele>
        <time>2022-10-26T09:46:48Z</time>
      </trkpt>
      <trkpt lat="10.257561" lon="-67.956135">
        <ele>468.00</ele>
        <time>2022-10-26T09:46:49Z</time>
      </trkpt>
      <trkpt lat="10.257573" lon="-67.956211">
        <ele>467.90</ele>
        <time>2022-10-26T09:46:50Z</time>
      </trkpt>
      <trkpt lat="10.257586" lon="-67.956286">
        <ele>467.90</ele>
        <time>2022-10-26T09:46:51Z</time>
      </trkpt>
      <trkpt lat="10.257599" lon="-67.956360">
        <ele>467.90</ele>
        <time>2022-10-26T09:46:52Z</time>
      </trkpt>
      <trkpt lat="10.257610" lon="-67.956430">
        <ele>467.80</ele>
        <time>2022-10-26T09:46:53Z</time>
      </trkpt>
      <trkpt lat="10.257620" lon="-67.956496">
        <ele>467.80</ele>
        <time>2022-10-26T09:46:54Z</time>
      </trkpt>
      <trkpt lat="10.257637" lon="-67.956549">
        <ele>467.80</ele>
        <time>2022-10-26T09:46:55Z</time>
      </trkpt>
      <trkpt lat="10.257653" lon="-67.956606">
        <ele>467.70</ele>
        <time>2022-10-26T09:46:56Z</time>
      </trkpt>
      <trkpt lat="10.257667" lon="-67.956663">
        <ele>467.70</ele>
        <time>2022-10-26T09:46:57Z</time>
      </trkpt>
      <trkpt lat="10.257679" lon="-67.956717">
        <ele>467.70</ele>
        <time>2022-10-26T09:46:58Z</time>
      </trkpt>
      <trkpt lat="10.257690" lon="-67.956772">
        <ele>467.70</ele>
        <time>2022-10-26T09:46:59Z</time>
      </trkpt>
      <trkpt lat="10.257703" lon="-67.956826">
        <ele>467.70</ele>
        <time>2022-10-26T09:47:00Z</time>
      </trkpt>
      <trkpt lat="10.257720" lon="-67.956891">
        <ele>467.60</ele>
        <time>2022-10-26T09:47:01Z</time>
      </trkpt>
      <trkpt lat="10.257734" lon="-67.956954">
        <ele>467.60</ele>
        <time>2022-10-26T09:47:02Z</time>
      </trkpt>
      <trkpt lat="10.257753" lon="-67.957025">
        <ele>467.60</ele>
        <time>2022-10-26T09:47:03Z</time>
      </trkpt>
      <trkpt lat="10.257774" lon="-67.957097">
        <ele>467.60</ele>
        <time>2022-10-26T09:47:04Z</time>
      </trkpt>
      <trkpt lat="10.257787" lon="-67.957161">
        <ele>467.50</ele>
        <time>2022-10-26T09:47:05Z</time>
      </trkpt>
      <trkpt lat="10.257799" lon="-67.957226">
        <ele>467.50</ele>
        <time>2022-10-26T09:47:06Z</time>
      </trkpt>
      <trkpt lat="10.257806" lon="-67.957291">
        <ele>467.50</ele>
        <time>2022-10-26T09:47:07Z</time>
      </trkpt>
      <trkpt lat="10.257815" lon="-67.957353">
        <ele>467.40</ele>
        <time>2022-10-26T09:47:08Z</time>
      </trkpt>
      <trkpt lat="10.257829" lon="-67.957410">
        <ele>467.40</ele>
        <time>2022-10-26T09:47:09Z</time>
      </trkpt>
      <trkpt lat="10.257848" lon="-67.957465">
        <ele>467.40</ele>
        <time>2022-10-26T09:47:10Z</time>
      </trkpt>
      <trkpt lat="10.257866" lon="-67.957514">
        <ele>467.40</ele>
        <time>2022-10-26T09:47:11Z</time>
      </trkpt>
      <trkpt lat="10.257883" lon="-67.957556">
        <ele>467.50</ele>
        <time>2022-10-26T09:47:12Z</time>
      </trkpt>
      <trkpt lat="10.257701" lon="-67.957695">
        <ele>467.60</ele>
        <time>2022-10-26T09:47:14Z</time>
      </trkpt>
      <trkpt lat="10.257704" lon="-67.957800">
        <ele>467.70</ele>
        <time>2022-10-26T09:47:15Z</time>
      </trkpt>
      <trkpt lat="10.257707" lon="-67.957866">
        <ele>467.70</ele>
        <time>2022-10-26T09:47:16Z</time>
      </trkpt>
      <trkpt lat="10.257690" lon="-67.957959">
        <ele>467.70</ele>
        <time>2022-10-26T09:47:17Z</time>
      </trkpt>
      <trkpt lat="10.257688" lon="-67.958010">
        <ele>467.70</ele>
        <time>2022-10-26T09:47:18Z</time>
      </trkpt>
      <trkpt lat="10.257695" lon="-67.958063">
        <ele>467.70</ele>
        <time>2022-10-26T09:47:19Z</time>
      </trkpt>
      <trkpt lat="10.257709" lon="-67.958114">
        <ele>467.70</ele>
        <time>2022-10-26T09:47:20Z</time>
      </trkpt>
      <trkpt lat="10.257727" lon="-67.958161">
        <ele>467.70</ele>
        <time>2022-10-26T09:47:21Z</time>
      </trkpt>
      <trkpt lat="10.257743" lon="-67.958194">
        <ele>467.70</ele>
        <time>2022-10-26T09:47:22Z</time>
      </trkpt>
      <trkpt lat="10.257763" lon="-67.958233">
        <ele>467.70</ele>
        <time>2022-10-26T09:47:23Z</time>
      </trkpt>
      <trkpt lat="10.257788" lon="-67.958279">
        <ele>467.80</ele>
        <time>2022-10-26T09:47:24Z</time>
      </trkpt>
      <trkpt lat="10.257814" lon="-67.958324">
        <ele>467.80</ele>
        <time>2022-10-26T09:47:25Z</time>
      </trkpt>
      <trkpt lat="10.257840" lon="-67.958372">
        <ele>467.80</ele>
        <time>2022-10-26T09:47:26Z</time>
      </trkpt>
      <trkpt lat="10.257865" lon="-67.958422">
        <ele>467.90</ele>
        <time>2022-10-26T09:47:27Z</time>
      </trkpt>
      <trkpt lat="10.257890" lon="-67.958473">
        <ele>467.90</ele>
        <time>2022-10-26T09:47:28Z</time>
      </trkpt>
      <trkpt lat="10.257911" lon="-67.958527">
        <ele>467.90</ele>
        <time>2022-10-26T09:47:29Z</time>
      </trkpt>
      <trkpt lat="10.257931" lon="-67.958595">
        <ele>467.80</ele>
        <time>2022-10-26T09:47:30Z</time>
      </trkpt>
      <trkpt lat="10.257947" lon="-67.958660">
        <ele>467.80</ele>
        <time>2022-10-26T09:47:31Z</time>
      </trkpt>
      <trkpt lat="10.257956" lon="-67.958732">
        <ele>467.80</ele>
        <time>2022-10-26T09:47:32Z</time>
      </trkpt>
      <trkpt lat="10.257967" lon="-67.958800">
        <ele>467.70</ele>
        <time>2022-10-26T09:47:33Z</time>
      </trkpt>
      <trkpt lat="10.257979" lon="-67.958862">
        <ele>467.70</ele>
        <time>2022-10-26T09:47:34Z</time>
      </trkpt>
      <trkpt lat="10.257994" lon="-67.958917">
        <ele>467.80</ele>
        <time>2022-10-26T09:47:35Z</time>
      </trkpt>
      <trkpt lat="10.257781" lon="-67.959181">
        <ele>466.80</ele>
        <time>2022-10-26T09:47:38Z</time>
      </trkpt>
      <trkpt lat="10.257743" lon="-67.959270">
        <ele>466.90</ele>
        <time>2022-10-26T09:47:39Z</time>
      </trkpt>
      <trkpt lat="10.257746" lon="-67.959352">
        <ele>467.00</ele>
        <time>2022-10-26T09:47:40Z</time>
      </trkpt>
      <trkpt lat="10.257766" lon="-67.959421">
        <ele>468.00</ele>
        <time>2022-10-26T09:47:41Z</time>
      </trkpt>
      <trkpt lat="10.257791" lon="-67.959485">
        <ele>468.10</ele>
        <time>2022-10-26T09:47:42Z</time>
      </trkpt>
      <trkpt lat="10.257818" lon="-67.959546">
        <ele>467.20</ele>
        <time>2022-10-26T09:47:43Z</time>
      </trkpt>
      <trkpt lat="10.257845" lon="-67.959605">
        <ele>467.20</ele>
        <time>2022-10-26T09:47:44Z</time>
      </trkpt>
      <trkpt lat="10.257872" lon="-67.959660">
        <ele>467.30</ele>
        <time>2022-10-26T09:47:45Z</time>
      </trkpt>
      <trkpt lat="10.257906" lon="-67.959715">
        <ele>466.40</ele>
        <time>2022-10-26T09:47:46Z</time>
      </trkpt>
      <trkpt lat="10.257935" lon="-67.959782">
        <ele>466.40</ele>
        <time>2022-10-26T09:47:47Z</time>
      </trkpt>
      <trkpt lat="10.258318" lon="-67.959693">
        <ele>467.50</ele>
        <time>2022-10-26T09:47:48Z</time>
      </trkpt>
      <trkpt lat="10.258444" lon="-67.959678">
        <ele>468.60</ele>
        <time>2022-10-26T09:47:50Z</time>
      </trkpt>
      <trkpt lat="10.258522" lon="-67.959690">
        <ele>468.60</ele>
        <time>2022-10-26T09:47:51Z</time>
      </trkpt>
      <trkpt lat="10.258564" lon="-67.959725">
        <ele>468.70</ele>
        <time>2022-10-26T09:47:52Z</time>
      </trkpt>
      <trkpt lat="10.258591" lon="-67.959765">
        <ele>468.70</ele>
        <time>2022-10-26T09:47:53Z</time>
      </trkpt>
      <trkpt lat="10.258609" lon="-67.959809">
        <ele>468.70</ele>
        <time>2022-10-26T09:47:54Z</time>
      </trkpt>
      <trkpt lat="10.258624" lon="-67.959858">
        <ele>468.70</ele>
        <time>2022-10-26T09:47:55Z</time>
      </trkpt>
      <trkpt lat="10.258643" lon="-67.959908">
        <ele>468.80</ele>
        <time>2022-10-26T09:47:56Z</time>
      </trkpt>
      <trkpt lat="10.258663" lon="-67.959957">
        <ele>468.80</ele>
        <time>2022-10-26T09:47:57Z</time>
      </trkpt>
      <trkpt lat="10.258683" lon="-67.960004">
        <ele>468.80</ele>
        <time>2022-10-26T09:47:58Z</time>
      </trkpt>
      <trkpt lat="10.258704" lon="-67.960053">
        <ele>468.90</ele>
        <time>2022-10-26T09:47:59Z</time>
      </trkpt>
      <trkpt lat="10.258725" lon="-67.960101">
        <ele>468.90</ele>
        <time>2022-10-26T09:48:00Z</time>
      </trkpt>
      <trkpt lat="10.258752" lon="-67.960146">
        <ele>468.90</ele>
        <time>2022-10-26T09:48:01Z</time>
      </trkpt>
      <trkpt lat="10.258782" lon="-67.960188">
        <ele>468.90</ele>
        <time>2022-10-26T09:48:02Z</time>
      </trkpt>
      <trkpt lat="10.258813" lon="-67.960230">
        <ele>468.90</ele>
        <time>2022-10-26T09:48:03Z</time>
      </trkpt>
      <trkpt lat="10.258835" lon="-67.960278">
        <ele>468.90</ele>
        <time>2022-10-26T09:48:04Z</time>
      </trkpt>
      <trkpt lat="10.258855" lon="-67.960325">
        <ele>468.90</ele>
        <time>2022-10-26T09:48:05Z</time>
      </trkpt>
      <trkpt lat="10.258872" lon="-67.960374">
        <ele>468.90</ele>
        <time>2022-10-26T09:48:06Z</time>
      </trkpt>
      <trkpt lat="10.258884" lon="-67.960426">
        <ele>469.00</ele>
        <time>2022-10-26T09:48:07Z</time>
      </trkpt>
      <trkpt lat="10.258894" lon="-67.960480">
        <ele>469.20</ele>
        <time>2022-10-26T09:48:08Z</time>
      </trkpt>
      <trkpt lat="10.258907" lon="-67.960536">
        <ele>469.40</ele>
        <time>2022-10-26T09:48:09Z</time>
      </trkpt>
      <trkpt lat="10.258917" lon="-67.960591">
        <ele>469.50</ele>
        <time>2022-10-26T09:48:10Z</time>
      </trkpt>
      <trkpt lat="10.258932" lon="-67.960639">
        <ele>469.40</ele>
        <time>2022-10-26T09:48:11Z</time>
      </trkpt>
      <trkpt lat="10.258949" lon="-67.960688">
        <ele>469.40</ele>
        <time>2022-10-26T09:48:12Z</time>
      </trkpt>
      <trkpt lat="10.258964" lon="-67.960742">
        <ele>469.30</ele>
        <time>2022-10-26T09:48:13Z</time>
      </trkpt>
      <trkpt lat="10.258974" lon="-67.960800">
        <ele>469.20</ele>
        <time>2022-10-26T09:48:14Z</time>
      </trkpt>
      <trkpt lat="10.258983" lon="-67.960861">
        <ele>469.10</ele>
        <time>2022-10-26T09:48:15Z</time>
      </trkpt>
      <trkpt lat="10.258989" lon="-67.960924">
        <ele>469.00</ele>
        <time>2022-10-26T09:48:16Z</time>
      </trkpt>
      <trkpt lat="10.258994" lon="-67.960989">
        <ele>468.90</ele>
        <time>2022-10-26T09:48:17Z</time>
      </trkpt>
      <trkpt lat="10.258997" lon="-67.961053">
        <ele>468.70</ele>
        <time>2022-10-26T09:48:18Z</time>
      </trkpt>
      <trkpt lat="10.258999" lon="-67.961118">
        <ele>468.60</ele>
        <time>2022-10-26T09:48:19Z</time>
      </trkpt>
      <trkpt lat="10.259003" lon="-67.961184">
        <ele>468.60</ele>
        <time>2022-10-26T09:48:20Z</time>
      </trkpt>
      <trkpt lat="10.259007" lon="-67.961246">
        <ele>468.50</ele>
        <time>2022-10-26T09:48:21Z</time>
      </trkpt>
      <trkpt lat="10.259013" lon="-67.961309">
        <ele>468.50</ele>
        <time>2022-10-26T09:48:22Z</time>
      </trkpt>
      <trkpt lat="10.259019" lon="-67.961373">
        <ele>468.50</ele>
        <time>2022-10-26T09:48:23Z</time>
      </trkpt>
      <trkpt lat="10.259024" lon="-67.961445">
        <ele>468.40</ele>
        <time>2022-10-26T09:48:24Z</time>
      </trkpt>
      <trkpt lat="10.259030" lon="-67.961518">
        <ele>468.40</ele>
        <time>2022-10-26T09:48:25Z</time>
      </trkpt>
      <trkpt lat="10.259035" lon="-67.961595">
        <ele>468.40</ele>
        <time>2022-10-26T09:48:26Z</time>
      </trkpt>
      <trkpt lat="10.259043" lon="-67.961671">
        <ele>468.30</ele>
        <time>2022-10-26T09:48:27Z</time>
      </trkpt>
      <trkpt lat="10.259057" lon="-67.961749">
        <ele>468.30</ele>
        <time>2022-10-26T09:48:28Z</time>
      </trkpt>
      <trkpt lat="10.259068" lon="-67.961824">
        <ele>468.30</ele>
        <time>2022-10-26T09:48:29Z</time>
      </trkpt>
      <trkpt lat="10.259081" lon="-67.961897">
        <ele>468.40</ele>
        <time>2022-10-26T09:48:30Z</time>
      </trkpt>
      <trkpt lat="10.259094" lon="-67.961966">
        <ele>468.40</ele>
        <time>2022-10-26T09:48:31Z</time>
      </trkpt>
      <trkpt lat="10.259104" lon="-67.962033">
        <ele>468.40</ele>
        <time>2022-10-26T09:48:32Z</time>
      </trkpt>
      <trkpt lat="10.259109" lon="-67.962091">
        <ele>468.50</ele>
        <time>2022-10-26T09:48:33Z</time>
      </trkpt>
      <trkpt lat="10.259115" lon="-67.962152">
        <ele>468.50</ele>
        <time>2022-10-26T09:48:34Z</time>
      </trkpt>
      <trkpt lat="10.259119" lon="-67.962210">
        <ele>468.60</ele>
        <time>2022-10-26T09:48:35Z</time>
      </trkpt>
      <trkpt lat="10.259122" lon="-67.962265">
        <ele>468.70</ele>
        <time>2022-10-26T09:48:36Z</time>
      </trkpt>
      <trkpt lat="10.259128" lon="-67.962318">
        <ele>468.80</ele>
        <time>2022-10-26T09:48:37Z</time>
      </trkpt>
      <trkpt lat="10.259138" lon="-67.962371">
        <ele>468.90</ele>
        <time>2022-10-26T09:48:38Z</time>
      </trkpt>
      <trkpt lat="10.259151" lon="-67.962426">
        <ele>469.00</ele>
        <time>2022-10-26T09:48:39Z</time>
      </trkpt>
      <trkpt lat="10.259165" lon="-67.962480">
        <ele>469.10</ele>
        <time>2022-10-26T09:48:40Z</time>
      </trkpt>
      <trkpt lat="10.259179" lon="-67.962532">
        <ele>469.10</ele>
        <time>2022-10-26T09:48:41Z</time>
      </trkpt>
      <trkpt lat="10.259192" lon="-67.962577">
        <ele>469.20</ele>
        <time>2022-10-26T09:48:42Z</time>
      </trkpt>
      <trkpt lat="10.259203" lon="-67.962622">
        <ele>469.00</ele>
        <time>2022-10-26T09:48:43Z</time>
      </trkpt>
      <trkpt lat="10.259213" lon="-67.962665">
        <ele>468.90</ele>
        <time>2022-10-26T09:48:44Z</time>
      </trkpt>
      <trkpt lat="10.259221" lon="-67.962707">
        <ele>468.70</ele>
        <time>2022-10-26T09:48:45Z</time>
      </trkpt>
      <trkpt lat="10.259229" lon="-67.962747">
        <ele>468.60</ele>
        <time>2022-10-26T09:48:46Z</time>
      </trkpt>
      <trkpt lat="10.259238" lon="-67.962780">
        <ele>468.40</ele>
        <time>2022-10-26T09:48:47Z</time>
      </trkpt>
      <trkpt lat="10.259255" lon="-67.962807">
        <ele>468.30</ele>
        <time>2022-10-26T09:48:48Z</time>
      </trkpt>
      <trkpt lat="10.259282" lon="-67.962827">
        <ele>468.00</ele>
        <time>2022-10-26T09:48:49Z</time>
      </trkpt>
      <trkpt lat="10.259312" lon="-67.962843">
        <ele>468.10</ele>
        <time>2022-10-26T09:48:50Z</time>
      </trkpt>
      <trkpt lat="10.259348" lon="-67.962857">
        <ele>468.10</ele>
        <time>2022-10-26T09:48:51Z</time>
      </trkpt>
      <trkpt lat="10.259386" lon="-67.962867">
        <ele>468.10</ele>
        <time>2022-10-26T09:48:52Z</time>
      </trkpt>
      <trkpt lat="10.259425" lon="-67.962866">
        <ele>468.10</ele>
        <time>2022-10-26T09:48:53Z</time>
      </trkpt>
      <trkpt lat="10.259467" lon="-67.962859">
        <ele>468.10</ele>
        <time>2022-10-26T09:48:54Z</time>
      </trkpt>
      <trkpt lat="10.259588" lon="-67.962826">
        <ele>468.10</ele>
        <time>2022-10-26T09:48:56Z</time>
      </trkpt>
      <trkpt lat="10.259654" lon="-67.962804">
        <ele>468.20</ele>
        <time>2022-10-26T09:48:57Z</time>
      </trkpt>
      <trkpt lat="10.259708" lon="-67.962792">
        <ele>468.20</ele>
        <time>2022-10-26T09:48:58Z</time>
      </trkpt>
      <trkpt lat="10.259760" lon="-67.962787">
        <ele>468.20</ele>
        <time>2022-10-26T09:48:59Z</time>
      </trkpt>
      <trkpt lat="10.259809" lon="-67.962784">
        <ele>468.20</ele>
        <time>2022-10-26T09:49:00Z</time>
      </trkpt>
      <trkpt lat="10.259864" lon="-67.962800">
        <ele>468.30</ele>
        <time>2022-10-26T09:49:01Z</time>
      </trkpt>
      <trkpt lat="10.259922" lon="-67.962822">
        <ele>468.30</ele>
        <time>2022-10-26T09:49:02Z</time>
      </trkpt>
      <trkpt lat="10.259978" lon="-67.962829">
        <ele>468.30</ele>
        <time>2022-10-26T09:49:03Z</time>
      </trkpt>
      <trkpt lat="10.260034" lon="-67.962825">
        <ele>468.30</ele>
        <time>2022-10-26T09:49:04Z</time>
      </trkpt>
      <trkpt lat="10.260091" lon="-67.962818">
        <ele>468.40</ele>
        <time>2022-10-26T09:49:05Z</time>
      </trkpt>
      <trkpt lat="10.260146" lon="-67.962811">
        <ele>468.40</ele>
        <time>2022-10-26T09:49:06Z</time>
      </trkpt>
      <trkpt lat="10.260201" lon="-67.962808">
        <ele>468.40</ele>
        <time>2022-10-26T09:49:07Z</time>
      </trkpt>
      <trkpt lat="10.260252" lon="-67.962807">
        <ele>468.50</ele>
        <time>2022-10-26T09:49:08Z</time>
      </trkpt>
      <trkpt lat="10.260307" lon="-67.962806">
        <ele>468.50</ele>
        <time>2022-10-26T09:49:09Z</time>
      </trkpt>
      <trkpt lat="10.260360" lon="-67.962805">
        <ele>468.50</ele>
        <time>2022-10-26T09:49:10Z</time>
      </trkpt>
      <trkpt lat="10.260412" lon="-67.962804">
        <ele>468.50</ele>
        <time>2022-10-26T09:49:11Z</time>
      </trkpt>
      <trkpt lat="10.260462" lon="-67.962805">
        <ele>468.50</ele>
        <time>2022-10-26T09:49:12Z</time>
      </trkpt>
      <trkpt lat="10.260509" lon="-67.962806">
        <ele>468.60</ele>
        <time>2022-10-26T09:49:13Z</time>
      </trkpt>
      <trkpt lat="10.260550" lon="-67.962805">
        <ele>468.60</ele>
        <time>2022-10-26T09:49:14Z</time>
      </trkpt>
      <trkpt lat="10.260599" lon="-67.962798">
        <ele>468.60</ele>
        <time>2022-10-26T09:49:15Z</time>
      </trkpt>
      <trkpt lat="10.260651" lon="-67.962786">
        <ele>468.70</ele>
        <time>2022-10-26T09:49:16Z</time>
      </trkpt>
      <trkpt lat="10.260703" lon="-67.962778">
        <ele>468.70</ele>
        <time>2022-10-26T09:49:17Z</time>
      </trkpt>
      <trkpt lat="10.260757" lon="-67.962771">
        <ele>468.70</ele>
        <time>2022-10-26T09:49:18Z</time>
      </trkpt>
      <trkpt lat="10.260809" lon="-67.962761">
        <ele>468.70</ele>
        <time>2022-10-26T09:49:19Z</time>
      </trkpt>
      <trkpt lat="10.260862" lon="-67.962753">
        <ele>468.70</ele>
        <time>2022-10-26T09:49:20Z</time>
      </trkpt>
      <trkpt lat="10.260918" lon="-67.962744">
        <ele>468.80</ele>
        <time>2022-10-26T09:49:21Z</time>
      </trkpt>
      <trkpt lat="10.260973" lon="-67.962738">
        <ele>468.80</ele>
        <time>2022-10-26T09:49:22Z</time>
      </trkpt>
      <trkpt lat="10.261028" lon="-67.962734">
        <ele>468.80</ele>
        <time>2022-10-26T09:49:23Z</time>
      </trkpt>
      <trkpt lat="10.261087" lon="-67.962729">
        <ele>468.80</ele>
        <time>2022-10-26T09:49:24Z</time>
      </trkpt>
      <trkpt lat="10.261145" lon="-67.962726">
        <ele>468.80</ele>
        <time>2022-10-26T09:49:25Z</time>
      </trkpt>
      <trkpt lat="10.261202" lon="-67.962723">
        <ele>468.90</ele>
        <time>2022-10-26T09:49:26Z</time>
      </trkpt>
      <trkpt lat="10.261259" lon="-67.962711">
        <ele>468.90</ele>
        <time>2022-10-26T09:49:27Z</time>
      </trkpt>
      <trkpt lat="10.261317" lon="-67.962698">
        <ele>468.90</ele>
        <time>2022-10-26T09:49:28Z</time>
      </trkpt>
      <trkpt lat="10.261379" lon="-67.962689">
        <ele>469.00</ele>
        <time>2022-10-26T09:49:29Z</time>
      </trkpt>
      <trkpt lat="10.261438" lon="-67.962685">
        <ele>469.00</ele>
        <time>2022-10-26T09:49:30Z</time>
      </trkpt>
      <trkpt lat="10.261499" lon="-67.962681">
        <ele>469.00</ele>
        <time>2022-10-26T09:49:31Z</time>
      </trkpt>
      <trkpt lat="10.261557" lon="-67.962679">
        <ele>469.00</ele>
        <time>2022-10-26T09:49:32Z</time>
      </trkpt>
      <trkpt lat="10.261618" lon="-67.962678">
        <ele>469.10</ele>
        <time>2022-10-26T09:49:33Z</time>
      </trkpt>
      <trkpt lat="10.261680" lon="-67.962677">
        <ele>469.10</ele>
        <time>2022-10-26T09:49:34Z</time>
      </trkpt>
      <trkpt lat="10.261743" lon="-67.962679">
        <ele>469.10</ele>
        <time>2022-10-26T09:49:35Z</time>
      </trkpt>
      <trkpt lat="10.261804" lon="-67.962679">
        <ele>469.20</ele>
        <time>2022-10-26T09:49:36Z</time>
      </trkpt>
      <trkpt lat="10.261868" lon="-67.962677">
        <ele>469.20</ele>
        <time>2022-10-26T09:49:37Z</time>
      </trkpt>
      <trkpt lat="10.261930" lon="-67.962675">
        <ele>469.20</ele>
        <time>2022-10-26T09:49:38Z</time>
      </trkpt>
      <trkpt lat="10.261996" lon="-67.962675">
        <ele>469.30</ele>
        <time>2022-10-26T09:49:39Z</time>
      </trkpt>
      <trkpt lat="10.262060" lon="-67.962678">
        <ele>469.30</ele>
        <time>2022-10-26T09:49:40Z</time>
      </trkpt>
      <trkpt lat="10.262127" lon="-67.962688">
        <ele>469.30</ele>
        <time>2022-10-26T09:49:41Z</time>
      </trkpt>
      <trkpt lat="10.262189" lon="-67.962691">
        <ele>469.40</ele>
        <time>2022-10-26T09:49:42Z</time>
      </trkpt>
      <trkpt lat="10.262250" lon="-67.962690">
        <ele>469.40</ele>
        <time>2022-10-26T09:49:43Z</time>
      </trkpt>
      <trkpt lat="10.262310" lon="-67.962688">
        <ele>469.40</ele>
        <time>2022-10-26T09:49:44Z</time>
      </trkpt>
      <trkpt lat="10.262373" lon="-67.962686">
        <ele>469.40</ele>
        <time>2022-10-26T09:49:45Z</time>
      </trkpt>
      <trkpt lat="10.262435" lon="-67.962681">
        <ele>469.50</ele>
        <time>2022-10-26T09:49:46Z</time>
      </trkpt>
      <trkpt lat="10.262497" lon="-67.962677">
        <ele>469.50</ele>
        <time>2022-10-26T09:49:47Z</time>
      </trkpt>
      <trkpt lat="10.262563" lon="-67.962672">
        <ele>469.50</ele>
        <time>2022-10-26T09:49:48Z</time>
      </trkpt>
      <trkpt lat="10.262629" lon="-67.962669">
        <ele>469.50</ele>
        <time>2022-10-26T09:49:49Z</time>
      </trkpt>
      <trkpt lat="10.262694" lon="-67.962665">
        <ele>469.50</ele>
        <time>2022-10-26T09:49:50Z</time>
      </trkpt>
      <trkpt lat="10.262759" lon="-67.962661">
        <ele>469.60</ele>
        <time>2022-10-26T09:49:51Z</time>
      </trkpt>
      <trkpt lat="10.262827" lon="-67.962656">
        <ele>469.60</ele>
        <time>2022-10-26T09:49:52Z</time>
      </trkpt>
      <trkpt lat="10.262895" lon="-67.962651">
        <ele>469.60</ele>
        <time>2022-10-26T09:49:53Z</time>
      </trkpt>
      <trkpt lat="10.262962" lon="-67.962644">
        <ele>469.60</ele>
        <time>2022-10-26T09:49:54Z</time>
      </trkpt>
      <trkpt lat="10.263027" lon="-67.962635">
        <ele>469.60</ele>
        <time>2022-10-26T09:49:55Z</time>
      </trkpt>
      <trkpt lat="10.263088" lon="-67.962629">
        <ele>469.60</ele>
        <time>2022-10-26T09:49:56Z</time>
      </trkpt>
      <trkpt lat="10.263147" lon="-67.962624">
        <ele>469.70</ele>
        <time>2022-10-26T09:49:57Z</time>
      </trkpt>
      <trkpt lat="10.263207" lon="-67.962622">
        <ele>469.70</ele>
        <time>2022-10-26T09:49:58Z</time>
      </trkpt>
      <trkpt lat="10.263269" lon="-67.962618">
        <ele>469.70</ele>
        <time>2022-10-26T09:49:59Z</time>
      </trkpt>
      <trkpt lat="10.263329" lon="-67.962614">
        <ele>469.70</ele>
        <time>2022-10-26T09:50:00Z</time>
      </trkpt>
      <trkpt lat="10.263390" lon="-67.962611">
        <ele>469.80</ele>
        <time>2022-10-26T09:50:01Z</time>
      </trkpt>
      <trkpt lat="10.263454" lon="-67.962608">
        <ele>469.80</ele>
        <time>2022-10-26T09:50:02Z</time>
      </trkpt>
      <trkpt lat="10.263518" lon="-67.962605">
        <ele>469.80</ele>
        <time>2022-10-26T09:50:03Z</time>
      </trkpt>
      <trkpt lat="10.263583" lon="-67.962604">
        <ele>469.90</ele>
        <time>2022-10-26T09:50:04Z</time>
      </trkpt>
      <trkpt lat="10.263646" lon="-67.962602">
        <ele>469.90</ele>
        <time>2022-10-26T09:50:05Z</time>
      </trkpt>
      <trkpt lat="10.263704" lon="-67.962600">
        <ele>469.90</ele>
        <time>2022-10-26T09:50:06Z</time>
      </trkpt>
      <trkpt lat="10.263762" lon="-67.962596">
        <ele>470.00</ele>
        <time>2022-10-26T09:50:07Z</time>
      </trkpt>
      <trkpt lat="10.263820" lon="-67.962593">
        <ele>470.00</ele>
        <time>2022-10-26T09:50:08Z</time>
      </trkpt>
      <trkpt lat="10.263877" lon="-67.962590">
        <ele>470.10</ele>
        <time>2022-10-26T09:50:09Z</time>
      </trkpt>
      <trkpt lat="10.263929" lon="-67.962587">
        <ele>470.10</ele>
        <time>2022-10-26T09:50:10Z</time>
      </trkpt>
      <trkpt lat="10.263983" lon="-67.962585">
        <ele>470.10</ele>
        <time>2022-10-26T09:50:11Z</time>
      </trkpt>
      <trkpt lat="10.264036" lon="-67.962583">
        <ele>470.20</ele>
        <time>2022-10-26T09:50:12Z</time>
      </trkpt>
      <trkpt lat="10.264088" lon="-67.962577">
        <ele>470.20</ele>
        <time>2022-10-26T09:50:13Z</time>
      </trkpt>
      <trkpt lat="10.264139" lon="-67.962570">
        <ele>470.30</ele>
        <time>2022-10-26T09:50:14Z</time>
      </trkpt>
      <trkpt lat="10.264192" lon="-67.962563">
        <ele>470.40</ele>
        <time>2022-10-26T09:50:15Z</time>
      </trkpt>
      <trkpt lat="10.264246" lon="-67.962560">
        <ele>470.40</ele>
        <time>2022-10-26T09:50:16Z</time>
      </trkpt>
      <trkpt lat="10.264298" lon="-67.962558">
        <ele>470.50</ele>
        <time>2022-10-26T09:50:17Z</time>
      </trkpt>
      <trkpt lat="10.264344" lon="-67.962559">
        <ele>470.60</ele>
        <time>2022-10-26T09:50:18Z</time>
      </trkpt>
      <trkpt lat="10.264392" lon="-67.962561">
        <ele>470.60</ele>
        <time>2022-10-26T09:50:19Z</time>
      </trkpt>
      <trkpt lat="10.264436" lon="-67.962563">
        <ele>470.70</ele>
        <time>2022-10-26T09:50:20Z</time>
      </trkpt>
      <trkpt lat="10.264481" lon="-67.962564">
        <ele>470.70</ele>
        <time>2022-10-26T09:50:21Z</time>
      </trkpt>
      <trkpt lat="10.264530" lon="-67.962561">
        <ele>470.80</ele>
        <time>2022-10-26T09:50:22Z</time>
      </trkpt>
      <trkpt lat="10.264581" lon="-67.962556">
        <ele>470.80</ele>
        <time>2022-10-26T09:50:23Z</time>
      </trkpt>
      <trkpt lat="10.264634" lon="-67.962548">
        <ele>470.90</ele>
        <time>2022-10-26T09:50:24Z</time>
      </trkpt>
      <trkpt lat="10.264689" lon="-67.962540">
        <ele>471.00</ele>
        <time>2022-10-26T09:50:25Z</time>
      </trkpt>
      <trkpt lat="10.264742" lon="-67.962532">
        <ele>471.00</ele>
        <time>2022-10-26T09:50:26Z</time>
      </trkpt>
      <trkpt lat="10.264799" lon="-67.962525">
        <ele>471.10</ele>
        <time>2022-10-26T09:50:27Z</time>
      </trkpt>
      <trkpt lat="10.264859" lon="-67.962517">
        <ele>471.20</ele>
        <time>2022-10-26T09:50:28Z</time>
      </trkpt>
      <trkpt lat="10.264913" lon="-67.962509">
        <ele>471.20</ele>
        <time>2022-10-26T09:50:29Z</time>
      </trkpt>
      <trkpt lat="10.264968" lon="-67.962496">
        <ele>471.30</ele>
        <time>2022-10-26T09:50:30Z</time>
      </trkpt>
      <trkpt lat="10.265022" lon="-67.962485">
        <ele>471.30</ele>
        <time>2022-10-26T09:50:31Z</time>
      </trkpt>
      <trkpt lat="10.265077" lon="-67.962472">
        <ele>471.40</ele>
        <time>2022-10-26T09:50:32Z</time>
      </trkpt>
      <trkpt lat="10.265129" lon="-67.962460">
        <ele>471.50</ele>
        <time>2022-10-26T09:50:33Z</time>
      </trkpt>
      <trkpt lat="10.265183" lon="-67.962446">
        <ele>471.50</ele>
        <time>2022-10-26T09:50:34Z</time>
      </trkpt>
      <trkpt lat="10.265238" lon="-67.962429">
        <ele>471.60</ele>
        <time>2022-10-26T09:50:35Z</time>
      </trkpt>
      <trkpt lat="10.265292" lon="-67.962417">
        <ele>471.70</ele>
        <time>2022-10-26T09:50:36Z</time>
      </trkpt>
      <trkpt lat="10.265344" lon="-67.962413">
        <ele>471.80</ele>
        <time>2022-10-26T09:50:37Z</time>
      </trkpt>
      <trkpt lat="10.265394" lon="-67.962408">
        <ele>471.80</ele>
        <time>2022-10-26T09:50:38Z</time>
      </trkpt>
      <trkpt lat="10.265446" lon="-67.962403">
        <ele>471.90</ele>
        <time>2022-10-26T09:50:39Z</time>
      </trkpt>
      <trkpt lat="10.265502" lon="-67.962401">
        <ele>472.00</ele>
        <time>2022-10-26T09:50:40Z</time>
      </trkpt>
      <trkpt lat="10.265557" lon="-67.962399">
        <ele>472.10</ele>
        <time>2022-10-26T09:50:41Z</time>
      </trkpt>
      <trkpt lat="10.265612" lon="-67.962397">
        <ele>472.10</ele>
        <time>2022-10-26T09:50:42Z</time>
      </trkpt>
      <trkpt lat="10.265669" lon="-67.962393">
        <ele>472.20</ele>
        <time>2022-10-26T09:50:43Z</time>
      </trkpt>
      <trkpt lat="10.265730" lon="-67.962390">
        <ele>472.20</ele>
        <time>2022-10-26T09:50:44Z</time>
      </trkpt>
      <trkpt lat="10.265787" lon="-67.962389">
        <ele>472.30</ele>
        <time>2022-10-26T09:50:45Z</time>
      </trkpt>
      <trkpt lat="10.265848" lon="-67.962389">
        <ele>472.30</ele>
        <time>2022-10-26T09:50:46Z</time>
      </trkpt>
      <trkpt lat="10.265909" lon="-67.962386">
        <ele>472.40</ele>
        <time>2022-10-26T09:50:47Z</time>
      </trkpt>
      <trkpt lat="10.265972" lon="-67.962382">
        <ele>472.50</ele>
        <time>2022-10-26T09:50:48Z</time>
      </trkpt>
      <trkpt lat="10.266034" lon="-67.962375">
        <ele>472.50</ele>
        <time>2022-10-26T09:50:49Z</time>
      </trkpt>
      <trkpt lat="10.266098" lon="-67.962365">
        <ele>472.60</ele>
        <time>2022-10-26T09:50:50Z</time>
      </trkpt>
      <trkpt lat="10.266156" lon="-67.962355">
        <ele>472.60</ele>
        <time>2022-10-26T09:50:51Z</time>
      </trkpt>
      <trkpt lat="10.266213" lon="-67.962348">
        <ele>472.60</ele>
        <time>2022-10-26T09:50:52Z</time>
      </trkpt>
      <trkpt lat="10.266266" lon="-67.962341">
        <ele>472.70</ele>
        <time>2022-10-26T09:50:53Z</time>
      </trkpt>
      <trkpt lat="10.266323" lon="-67.962329">
        <ele>472.70</ele>
        <time>2022-10-26T09:50:54Z</time>
      </trkpt>
      <trkpt lat="10.266383" lon="-67.962315">
        <ele>472.70</ele>
        <time>2022-10-26T09:50:55Z</time>
      </trkpt>
      <trkpt lat="10.266446" lon="-67.962297">
        <ele>472.70</ele>
        <time>2022-10-26T09:50:56Z</time>
      </trkpt>
      <trkpt lat="10.266506" lon="-67.962282">
        <ele>472.80</ele>
        <time>2022-10-26T09:50:57Z</time>
      </trkpt>
      <trkpt lat="10.266572" lon="-67.962265">
        <ele>472.80</ele>
        <time>2022-10-26T09:50:58Z</time>
      </trkpt>
      <trkpt lat="10.266631" lon="-67.962256">
        <ele>472.80</ele>
        <time>2022-10-26T09:50:59Z</time>
      </trkpt>
      <trkpt lat="10.266695" lon="-67.962249">
        <ele>472.80</ele>
        <time>2022-10-26T09:51:00Z</time>
      </trkpt>
      <trkpt lat="10.266757" lon="-67.962245">
        <ele>472.80</ele>
        <time>2022-10-26T09:51:01Z</time>
      </trkpt>
      <trkpt lat="10.266819" lon="-67.962237">
        <ele>472.80</ele>
        <time>2022-10-26T09:51:02Z</time>
      </trkpt>
      <trkpt lat="10.266878" lon="-67.962229">
        <ele>472.80</ele>
        <time>2022-10-26T09:51:03Z</time>
      </trkpt>
      <trkpt lat="10.266942" lon="-67.962223">
        <ele>472.80</ele>
        <time>2022-10-26T09:51:04Z</time>
      </trkpt>
      <trkpt lat="10.267009" lon="-67.962218">
        <ele>472.80</ele>
        <time>2022-10-26T09:51:05Z</time>
      </trkpt>
      <trkpt lat="10.267076" lon="-67.962211">
        <ele>472.90</ele>
        <time>2022-10-26T09:51:06Z</time>
      </trkpt>
      <trkpt lat="10.267139" lon="-67.962201">
        <ele>472.90</ele>
        <time>2022-10-26T09:51:07Z</time>
      </trkpt>
      <trkpt lat="10.267206" lon="-67.962189">
        <ele>472.90</ele>
        <time>2022-10-26T09:51:08Z</time>
      </trkpt>
      <trkpt lat="10.267272" lon="-67.962177">
        <ele>472.90</ele>
        <time>2022-10-26T09:51:09Z</time>
      </trkpt>
      <trkpt lat="10.267339" lon="-67.962167">
        <ele>472.90</ele>
        <time>2022-10-26T09:51:10Z</time>
      </trkpt>
      <trkpt lat="10.267403" lon="-67.962159">
        <ele>472.90</ele>
        <time>2022-10-26T09:51:11Z</time>
      </trkpt>
      <trkpt lat="10.267468" lon="-67.962154">
        <ele>473.00</ele>
        <time>2022-10-26T09:51:12Z</time>
      </trkpt>
      <trkpt lat="10.267529" lon="-67.962149">
        <ele>473.00</ele>
        <time>2022-10-26T09:51:13Z</time>
      </trkpt>
      <trkpt lat="10.267593" lon="-67.962137">
        <ele>473.00</ele>
        <time>2022-10-26T09:51:14Z</time>
      </trkpt>
      <trkpt lat="10.267651" lon="-67.962128">
        <ele>473.00</ele>
        <time>2022-10-26T09:51:15Z</time>
      </trkpt>
      <trkpt lat="10.267711" lon="-67.962117">
        <ele>472.90</ele>
        <time>2022-10-26T09:51:16Z</time>
      </trkpt>
      <trkpt lat="10.267767" lon="-67.962105">
        <ele>472.90</ele>
        <time>2022-10-26T09:51:17Z</time>
      </trkpt>
      <trkpt lat="10.267823" lon="-67.962092">
        <ele>472.90</ele>
        <time>2022-10-26T09:51:18Z</time>
      </trkpt>
      <trkpt lat="10.267878" lon="-67.962081">
        <ele>472.90</ele>
        <time>2022-10-26T09:51:19Z</time>
      </trkpt>
      <trkpt lat="10.267932" lon="-67.962079">
        <ele>472.90</ele>
        <time>2022-10-26T09:51:20Z</time>
      </trkpt>
      <trkpt lat="10.267983" lon="-67.962081">
        <ele>472.90</ele>
        <time>2022-10-26T09:51:21Z</time>
      </trkpt>
      <trkpt lat="10.268036" lon="-67.962084">
        <ele>473.00</ele>
        <time>2022-10-26T09:51:22Z</time>
      </trkpt>
      <trkpt lat="10.268092" lon="-67.962086">
        <ele>473.00</ele>
        <time>2022-10-26T09:51:23Z</time>
      </trkpt>
      <trkpt lat="10.268145" lon="-67.962081">
        <ele>473.00</ele>
        <time>2022-10-26T09:51:24Z</time>
      </trkpt>
      <trkpt lat="10.268201" lon="-67.962075">
        <ele>473.10</ele>
        <time>2022-10-26T09:51:25Z</time>
      </trkpt>
      <trkpt lat="10.268257" lon="-67.962074">
        <ele>473.10</ele>
        <time>2022-10-26T09:51:26Z</time>
      </trkpt>
      <trkpt lat="10.268316" lon="-67.962068">
        <ele>473.20</ele>
        <time>2022-10-26T09:51:27Z</time>
      </trkpt>
      <trkpt lat="10.268380" lon="-67.962069">
        <ele>473.20</ele>
        <time>2022-10-26T09:51:28Z</time>
      </trkpt>
      <trkpt lat="10.268443" lon="-67.962064">
        <ele>473.20</ele>
        <time>2022-10-26T09:51:29Z</time>
      </trkpt>
      <trkpt lat="10.268506" lon="-67.962057">
        <ele>473.30</ele>
        <time>2022-10-26T09:51:30Z</time>
      </trkpt>
      <trkpt lat="10.268566" lon="-67.962051">
        <ele>473.30</ele>
        <time>2022-10-26T09:51:31Z</time>
      </trkpt>
      <trkpt lat="10.268627" lon="-67.962046">
        <ele>473.40</ele>
        <time>2022-10-26T09:51:32Z</time>
      </trkpt>
      <trkpt lat="10.268684" lon="-67.962041">
        <ele>473.50</ele>
        <time>2022-10-26T09:51:33Z</time>
      </trkpt>
      <trkpt lat="10.268740" lon="-67.962034">
        <ele>473.50</ele>
        <time>2022-10-26T09:51:34Z</time>
      </trkpt>
      <trkpt lat="10.268794" lon="-67.962026">
        <ele>473.60</ele>
        <time>2022-10-26T09:51:35Z</time>
      </trkpt>
      <trkpt lat="10.268851" lon="-67.962018">
        <ele>473.60</ele>
        <time>2022-10-26T09:51:36Z</time>
      </trkpt>
      <trkpt lat="10.268905" lon="-67.962012">
        <ele>473.70</ele>
        <time>2022-10-26T09:51:37Z</time>
      </trkpt>
      <trkpt lat="10.268965" lon="-67.962006">
        <ele>473.70</ele>
        <time>2022-10-26T09:51:38Z</time>
      </trkpt>
      <trkpt lat="10.269023" lon="-67.962001">
        <ele>473.70</ele>
        <time>2022-10-26T09:51:39Z</time>
      </trkpt>
      <trkpt lat="10.269084" lon="-67.961990">
        <ele>473.70</ele>
        <time>2022-10-26T09:51:40Z</time>
      </trkpt>
      <trkpt lat="10.269144" lon="-67.961981">
        <ele>473.70</ele>
        <time>2022-10-26T09:51:41Z</time>
      </trkpt>
      <trkpt lat="10.269204" lon="-67.961974">
        <ele>473.70</ele>
        <time>2022-10-26T09:51:42Z</time>
      </trkpt>
      <trkpt lat="10.269264" lon="-67.961969">
        <ele>473.70</ele>
        <time>2022-10-26T09:51:43Z</time>
      </trkpt>
      <trkpt lat="10.269328" lon="-67.961962">
        <ele>473.70</ele>
        <time>2022-10-26T09:51:44Z</time>
      </trkpt>
      <trkpt lat="10.269392" lon="-67.961952">
        <ele>473.80</ele>
        <time>2022-10-26T09:51:45Z</time>
      </trkpt>
      <trkpt lat="10.269458" lon="-67.961940">
        <ele>473.80</ele>
        <time>2022-10-26T09:51:46Z</time>
      </trkpt>
      <trkpt lat="10.269522" lon="-67.961930">
        <ele>473.90</ele>
        <time>2022-10-26T09:51:47Z</time>
      </trkpt>
      <trkpt lat="10.269584" lon="-67.961918">
        <ele>473.90</ele>
        <time>2022-10-26T09:51:48Z</time>
      </trkpt>
      <trkpt lat="10.269641" lon="-67.961908">
        <ele>474.00</ele>
        <time>2022-10-26T09:51:49Z</time>
      </trkpt>
      <trkpt lat="10.269698" lon="-67.961898">
        <ele>474.00</ele>
        <time>2022-10-26T09:51:50Z</time>
      </trkpt>
      <trkpt lat="10.269757" lon="-67.961890">
        <ele>474.00</ele>
        <time>2022-10-26T09:51:51Z</time>
      </trkpt>
      <trkpt lat="10.269823" lon="-67.961880">
        <ele>474.10</ele>
        <time>2022-10-26T09:51:52Z</time>
      </trkpt>
      <trkpt lat="10.269888" lon="-67.961872">
        <ele>474.10</ele>
        <time>2022-10-26T09:51:53Z</time>
      </trkpt>
      <trkpt lat="10.269948" lon="-67.961864">
        <ele>474.10</ele>
        <time>2022-10-26T09:51:54Z</time>
      </trkpt>
      <trkpt lat="10.270009" lon="-67.961857">
        <ele>474.20</ele>
        <time>2022-10-26T09:51:55Z</time>
      </trkpt>
      <trkpt lat="10.270061" lon="-67.961852">
        <ele>474.20</ele>
        <time>2022-10-26T09:51:56Z</time>
      </trkpt>
      <trkpt lat="10.270114" lon="-67.961847">
        <ele>474.20</ele>
        <time>2022-10-26T09:51:57Z</time>
      </trkpt>
      <trkpt lat="10.270162" lon="-67.961841">
        <ele>474.30</ele>
        <time>2022-10-26T09:51:58Z</time>
      </trkpt>
      <trkpt lat="10.270214" lon="-67.961838">
        <ele>474.30</ele>
        <time>2022-10-26T09:51:59Z</time>
      </trkpt>
      <trkpt lat="10.270271" lon="-67.961820">
        <ele>474.40</ele>
        <time>2022-10-26T09:52:00Z</time>
      </trkpt>
      <trkpt lat="10.270319" lon="-67.961805">
        <ele>474.40</ele>
        <time>2022-10-26T09:52:01Z</time>
      </trkpt>
      <trkpt lat="10.270375" lon="-67.961796">
        <ele>474.40</ele>
        <time>2022-10-26T09:52:02Z</time>
      </trkpt>
      <trkpt lat="10.270430" lon="-67.961791">
        <ele>474.50</ele>
        <time>2022-10-26T09:52:03Z</time>
      </trkpt>
      <trkpt lat="10.270490" lon="-67.961788">
        <ele>474.50</ele>
        <time>2022-10-26T09:52:04Z</time>
      </trkpt>
      <trkpt lat="10.270547" lon="-67.961785">
        <ele>474.60</ele>
        <time>2022-10-26T09:52:05Z</time>
      </trkpt>
      <trkpt lat="10.270607" lon="-67.961780">
        <ele>474.70</ele>
        <time>2022-10-26T09:52:06Z</time>
      </trkpt>
      <trkpt lat="10.270669" lon="-67.961771">
        <ele>474.80</ele>
        <time>2022-10-26T09:52:07Z</time>
      </trkpt>
      <trkpt lat="10.270730" lon="-67.961764">
        <ele>474.90</ele>
        <time>2022-10-26T09:52:08Z</time>
      </trkpt>
      <trkpt lat="10.270788" lon="-67.961757">
        <ele>475.00</ele>
        <time>2022-10-26T09:52:09Z</time>
      </trkpt>
      <trkpt lat="10.270843" lon="-67.961752">
        <ele>475.10</ele>
        <time>2022-10-26T09:52:10Z</time>
      </trkpt>
      <trkpt lat="10.270895" lon="-67.961749">
        <ele>475.10</ele>
        <time>2022-10-26T09:52:11Z</time>
      </trkpt>
      <trkpt lat="10.270949" lon="-67.961745">
        <ele>475.10</ele>
        <time>2022-10-26T09:52:12Z</time>
      </trkpt>
      <trkpt lat="10.271005" lon="-67.961741">
        <ele>475.10</ele>
        <time>2022-10-26T09:52:13Z</time>
      </trkpt>
      <trkpt lat="10.271065" lon="-67.961739">
        <ele>475.10</ele>
        <time>2022-10-26T09:52:14Z</time>
      </trkpt>
      <trkpt lat="10.271123" lon="-67.961735">
        <ele>475.10</ele>
        <time>2022-10-26T09:52:15Z</time>
      </trkpt>
      <trkpt lat="10.271181" lon="-67.961729">
        <ele>475.10</ele>
        <time>2022-10-26T09:52:16Z</time>
      </trkpt>
      <trkpt lat="10.271238" lon="-67.961725">
        <ele>475.10</ele>
        <time>2022-10-26T09:52:17Z</time>
      </trkpt>
      <trkpt lat="10.271295" lon="-67.961720">
        <ele>475.10</ele>
        <time>2022-10-26T09:52:18Z</time>
      </trkpt>
      <trkpt lat="10.271347" lon="-67.961716">
        <ele>475.20</ele>
        <time>2022-10-26T09:52:19Z</time>
      </trkpt>
      <trkpt lat="10.271404" lon="-67.961711">
        <ele>475.20</ele>
        <time>2022-10-26T09:52:20Z</time>
      </trkpt>
      <trkpt lat="10.271460" lon="-67.961706">
        <ele>475.20</ele>
        <time>2022-10-26T09:52:21Z</time>
      </trkpt>
      <trkpt lat="10.271524" lon="-67.961700">
        <ele>475.20</ele>
        <time>2022-10-26T09:52:22Z</time>
      </trkpt>
      <trkpt lat="10.271580" lon="-67.961695">
        <ele>475.20</ele>
        <time>2022-10-26T09:52:23Z</time>
      </trkpt>
      <trkpt lat="10.271634" lon="-67.961689">
        <ele>475.30</ele>
        <time>2022-10-26T09:52:24Z</time>
      </trkpt>
      <trkpt lat="10.271687" lon="-67.961682">
        <ele>475.30</ele>
        <time>2022-10-26T09:52:25Z</time>
      </trkpt>
      <trkpt lat="10.271742" lon="-67.961678">
        <ele>475.30</ele>
        <time>2022-10-26T09:52:26Z</time>
      </trkpt>
      <trkpt lat="10.271793" lon="-67.961674">
        <ele>475.30</ele>
        <time>2022-10-26T09:52:27Z</time>
      </trkpt>
      <trkpt lat="10.271842" lon="-67.961669">
        <ele>475.40</ele>
        <time>2022-10-26T09:52:28Z</time>
      </trkpt>
      <trkpt lat="10.271890" lon="-67.961666">
        <ele>475.40</ele>
        <time>2022-10-26T09:52:29Z</time>
      </trkpt>
      <trkpt lat="10.271936" lon="-67.961663">
        <ele>475.40</ele>
        <time>2022-10-26T09:52:30Z</time>
      </trkpt>
      <trkpt lat="10.271982" lon="-67.961660">
        <ele>475.40</ele>
        <time>2022-10-26T09:52:31Z</time>
      </trkpt>
      <trkpt lat="10.272034" lon="-67.961648">
        <ele>475.50</ele>
        <time>2022-10-26T09:52:32Z</time>
      </trkpt>
      <trkpt lat="10.272086" lon="-67.961638">
        <ele>475.50</ele>
        <time>2022-10-26T09:52:33Z</time>
      </trkpt>
      <trkpt lat="10.272140" lon="-67.961629">
        <ele>475.50</ele>
        <time>2022-10-26T09:52:34Z</time>
      </trkpt>
      <trkpt lat="10.272192" lon="-67.961623">
        <ele>475.60</ele>
        <time>2022-10-26T09:52:35Z</time>
      </trkpt>
      <trkpt lat="10.272244" lon="-67.961617">
        <ele>475.60</ele>
        <time>2022-10-26T09:52:36Z</time>
      </trkpt>
      <trkpt lat="10.272295" lon="-67.961614">
        <ele>475.60</ele>
        <time>2022-10-26T09:52:37Z</time>
      </trkpt>
      <trkpt lat="10.272349" lon="-67.961612">
        <ele>475.70</ele>
        <time>2022-10-26T09:52:38Z</time>
      </trkpt>
      <trkpt lat="10.272399" lon="-67.961608">
        <ele>475.70</ele>
        <time>2022-10-26T09:52:39Z</time>
      </trkpt>
      <trkpt lat="10.272452" lon="-67.961601">
        <ele>475.80</ele>
        <time>2022-10-26T09:52:40Z</time>
      </trkpt>
      <trkpt lat="10.272503" lon="-67.961593">
        <ele>475.80</ele>
        <time>2022-10-26T09:52:41Z</time>
      </trkpt>
      <trkpt lat="10.272557" lon="-67.961586">
        <ele>475.90</ele>
        <time>2022-10-26T09:52:42Z</time>
      </trkpt>
      <trkpt lat="10.272606" lon="-67.961579">
        <ele>475.90</ele>
        <time>2022-10-26T09:52:43Z</time>
      </trkpt>
      <trkpt lat="10.272657" lon="-67.961572">
        <ele>475.90</ele>
        <time>2022-10-26T09:52:44Z</time>
      </trkpt>
      <trkpt lat="10.272707" lon="-67.961569">
        <ele>476.00</ele>
        <time>2022-10-26T09:52:45Z</time>
      </trkpt>
      <trkpt lat="10.272759" lon="-67.961568">
        <ele>476.00</ele>
        <time>2022-10-26T09:52:46Z</time>
      </trkpt>
      <trkpt lat="10.272812" lon="-67.961568">
        <ele>476.10</ele>
        <time>2022-10-26T09:52:47Z</time>
      </trkpt>
      <trkpt lat="10.272867" lon="-67.961568">
        <ele>476.10</ele>
        <time>2022-10-26T09:52:48Z</time>
      </trkpt>
      <trkpt lat="10.272926" lon="-67.961565">
        <ele>476.10</ele>
        <time>2022-10-26T09:52:49Z</time>
      </trkpt>
      <trkpt lat="10.272982" lon="-67.961545">
        <ele>476.10</ele>
        <time>2022-10-26T09:52:50Z</time>
      </trkpt>
      <trkpt lat="10.273030" lon="-67.961520">
        <ele>476.20</ele>
        <time>2022-10-26T09:52:51Z</time>
      </trkpt>
      <trkpt lat="10.273074" lon="-67.961489">
        <ele>476.20</ele>
        <time>2022-10-26T09:52:52Z</time>
      </trkpt>
      <trkpt lat="10.273125" lon="-67.961457">
        <ele>476.20</ele>
        <time>2022-10-26T09:52:53Z</time>
      </trkpt>
      <trkpt lat="10.273175" lon="-67.961441">
        <ele>476.20</ele>
        <time>2022-10-26T09:52:54Z</time>
      </trkpt>
      <trkpt lat="10.273224" lon="-67.961434">
        <ele>476.20</ele>
        <time>2022-10-26T09:52:55Z</time>
      </trkpt>
      <trkpt lat="10.273278" lon="-67.961438">
        <ele>476.20</ele>
        <time>2022-10-26T09:52:56Z</time>
      </trkpt>
      <trkpt lat="10.273334" lon="-67.961444">
        <ele>476.30</ele>
        <time>2022-10-26T09:52:57Z</time>
      </trkpt>
      <trkpt lat="10.273394" lon="-67.961441">
        <ele>476.30</ele>
        <time>2022-10-26T09:52:58Z</time>
      </trkpt>
      <trkpt lat="10.273451" lon="-67.961432">
        <ele>476.40</ele>
        <time>2022-10-26T09:52:59Z</time>
      </trkpt>
      <trkpt lat="10.273512" lon="-67.961421">
        <ele>476.40</ele>
        <time>2022-10-26T09:53:00Z</time>
      </trkpt>
      <trkpt lat="10.273565" lon="-67.961417">
        <ele>476.40</ele>
        <time>2022-10-26T09:53:01Z</time>
      </trkpt>
      <trkpt lat="10.273623" lon="-67.961409">
        <ele>476.50</ele>
        <time>2022-10-26T09:53:02Z</time>
      </trkpt>
      <trkpt lat="10.273677" lon="-67.961402">
        <ele>476.50</ele>
        <time>2022-10-26T09:53:03Z</time>
      </trkpt>
      <trkpt lat="10.273734" lon="-67.961390">
        <ele>476.50</ele>
        <time>2022-10-26T09:53:04Z</time>
      </trkpt>
      <trkpt lat="10.273793" lon="-67.961378">
        <ele>476.60</ele>
        <time>2022-10-26T09:53:05Z</time>
      </trkpt>
      <trkpt lat="10.273844" lon="-67.961365">
        <ele>476.70</ele>
        <time>2022-10-26T09:53:06Z</time>
      </trkpt>
      <trkpt lat="10.273894" lon="-67.961353">
        <ele>476.70</ele>
        <time>2022-10-26T09:53:07Z</time>
      </trkpt>
      <trkpt lat="10.273947" lon="-67.961344">
        <ele>476.80</ele>
        <time>2022-10-26T09:53:08Z</time>
      </trkpt>
      <trkpt lat="10.274002" lon="-67.961337">
        <ele>477.00</ele>
        <time>2022-10-26T09:53:09Z</time>
      </trkpt>
      <trkpt lat="10.274054" lon="-67.961328">
        <ele>477.10</ele>
        <time>2022-10-26T09:53:10Z</time>
      </trkpt>
      <trkpt lat="10.274105" lon="-67.961318">
        <ele>477.20</ele>
        <time>2022-10-26T09:53:11Z</time>
      </trkpt>
      <trkpt lat="10.274155" lon="-67.961312">
        <ele>477.40</ele>
        <time>2022-10-26T09:53:12Z</time>
      </trkpt>
      <trkpt lat="10.274202" lon="-67.961306">
        <ele>477.60</ele>
        <time>2022-10-26T09:53:13Z</time>
      </trkpt>
      <trkpt lat="10.274250" lon="-67.961301">
        <ele>477.70</ele>
        <time>2022-10-26T09:53:14Z</time>
      </trkpt>
      <trkpt lat="10.274298" lon="-67.961296">
        <ele>477.90</ele>
        <time>2022-10-26T09:53:15Z</time>
      </trkpt>
      <trkpt lat="10.274347" lon="-67.961290">
        <ele>478.10</ele>
        <time>2022-10-26T09:53:16Z</time>
      </trkpt>
      <trkpt lat="10.274393" lon="-67.961281">
        <ele>478.30</ele>
        <time>2022-10-26T09:53:17Z</time>
      </trkpt>
      <trkpt lat="10.274438" lon="-67.961275">
        <ele>478.50</ele>
        <time>2022-10-26T09:53:18Z</time>
      </trkpt>
      <trkpt lat="10.274484" lon="-67.961269">
        <ele>478.60</ele>
        <time>2022-10-26T09:53:19Z</time>
      </trkpt>
      <trkpt lat="10.274529" lon="-67.961261">
        <ele>478.80</ele>
        <time>2022-10-26T09:53:20Z</time>
      </trkpt>
      <trkpt lat="10.274572" lon="-67.961252">
        <ele>479.00</ele>
        <time>2022-10-26T09:53:21Z</time>
      </trkpt>
      <trkpt lat="10.274614" lon="-67.961243">
        <ele>479.20</ele>
        <time>2022-10-26T09:53:22Z</time>
      </trkpt>
      <trkpt lat="10.274656" lon="-67.961235">
        <ele>479.40</ele>
        <time>2022-10-26T09:53:23Z</time>
      </trkpt>
      <trkpt lat="10.274693" lon="-67.961229">
        <ele>479.60</ele>
        <time>2022-10-26T09:53:24Z</time>
      </trkpt>
      <trkpt lat="10.274731" lon="-67.961225">
        <ele>479.80</ele>
        <time>2022-10-26T09:53:25Z</time>
      </trkpt>
      <trkpt lat="10.274763" lon="-67.961219">
        <ele>479.90</ele>
        <time>2022-10-26T09:53:26Z</time>
      </trkpt>
      <trkpt lat="10.274794" lon="-67.961214">
        <ele>480.10</ele>
        <time>2022-10-26T09:53:27Z</time>
      </trkpt>
      <trkpt lat="10.274826" lon="-67.961211">
        <ele>480.20</ele>
        <time>2022-10-26T09:53:28Z</time>
      </trkpt>
      <trkpt lat="10.274855" lon="-67.961217">
        <ele>480.40</ele>
        <time>2022-10-26T09:53:29Z</time>
      </trkpt>
      <trkpt lat="10.274885" lon="-67.961223">
        <ele>480.50</ele>
        <time>2022-10-26T09:53:30Z</time>
      </trkpt>
      <trkpt lat="10.274915" lon="-67.961229">
        <ele>480.70</ele>
        <time>2022-10-26T09:53:31Z</time>
      </trkpt>
      <trkpt lat="10.274944" lon="-67.961233">
        <ele>480.90</ele>
        <time>2022-10-26T09:53:32Z</time>
      </trkpt>
      <trkpt lat="10.274982" lon="-67.961235">
        <ele>481.10</ele>
        <time>2022-10-26T09:53:33Z</time>
      </trkpt>
      <trkpt lat="10.274994" lon="-67.961234">
        <ele>481.20</ele>
        <time>2022-10-26T09:53:34Z</time>
      </trkpt>
      <trkpt lat="10.275027" lon="-67.961226">
        <ele>481.30</ele>
        <time>2022-10-26T09:53:35Z</time>
      </trkpt>
      <trkpt lat="10.275038" lon="-67.961222">
        <ele>481.40</ele>
        <time>2022-10-26T09:53:36Z</time>
      </trkpt>
      <trkpt lat="10.275064" lon="-67.961214">
        <ele>481.60</ele>
        <time>2022-10-26T09:53:37Z</time>
      </trkpt>
      <trkpt lat="10.275097" lon="-67.961204">
        <ele>481.70</ele>
        <time>2022-10-26T09:53:38Z</time>
      </trkpt>
      <trkpt lat="10.275129" lon="-67.961193">
        <ele>481.90</ele>
        <time>2022-10-26T09:53:39Z</time>
      </trkpt>
      <trkpt lat="10.275162" lon="-67.961185">
        <ele>482.10</ele>
        <time>2022-10-26T09:53:40Z</time>
      </trkpt>
      <trkpt lat="10.275193" lon="-67.961180">
        <ele>482.30</ele>
        <time>2022-10-26T09:53:41Z</time>
      </trkpt>
      <trkpt lat="10.275223" lon="-67.961177">
        <ele>482.40</ele>
        <time>2022-10-26T09:53:42Z</time>
      </trkpt>
      <trkpt lat="10.275253" lon="-67.961173">
        <ele>482.50</ele>
        <time>2022-10-26T09:53:43Z</time>
      </trkpt>
      <trkpt lat="10.275284" lon="-67.961162">
        <ele>482.70</ele>
        <time>2022-10-26T09:53:44Z</time>
      </trkpt>
      <trkpt lat="10.275319" lon="-67.961150">
        <ele>482.80</ele>
        <time>2022-10-26T09:53:45Z</time>
      </trkpt>
      <trkpt lat="10.275358" lon="-67.961133">
        <ele>483.00</ele>
        <time>2022-10-26T09:53:46Z</time>
      </trkpt>
      <trkpt lat="10.275395" lon="-67.961119">
        <ele>483.20</ele>
        <time>2022-10-26T09:53:47Z</time>
      </trkpt>
      <trkpt lat="10.275430" lon="-67.961105">
        <ele>483.30</ele>
        <time>2022-10-26T09:53:48Z</time>
      </trkpt>
      <trkpt lat="10.275462" lon="-67.961093">
        <ele>483.50</ele>
        <time>2022-10-26T09:53:49Z</time>
      </trkpt>
      <trkpt lat="10.275496" lon="-67.961079">
        <ele>483.60</ele>
        <time>2022-10-26T09:53:50Z</time>
      </trkpt>
      <trkpt lat="10.275532" lon="-67.961063">
        <ele>483.70</ele>
        <time>2022-10-26T09:53:51Z</time>
      </trkpt>
      <trkpt lat="10.275567" lon="-67.961048">
        <ele>483.90</ele>
        <time>2022-10-26T09:53:52Z</time>
      </trkpt>
      <trkpt lat="10.275601" lon="-67.961031">
        <ele>484.00</ele>
        <time>2022-10-26T09:53:53Z</time>
      </trkpt>
      <trkpt lat="10.275635" lon="-67.961015">
        <ele>484.10</ele>
        <time>2022-10-26T09:53:54Z</time>
      </trkpt>
      <trkpt lat="10.275670" lon="-67.961000">
        <ele>484.20</ele>
        <time>2022-10-26T09:53:55Z</time>
      </trkpt>
      <trkpt lat="10.275707" lon="-67.960985">
        <ele>484.30</ele>
        <time>2022-10-26T09:53:56Z</time>
      </trkpt>
      <trkpt lat="10.275742" lon="-67.960969">
        <ele>484.40</ele>
        <time>2022-10-26T09:53:57Z</time>
      </trkpt>
      <trkpt lat="10.275775" lon="-67.960956">
        <ele>484.40</ele>
        <time>2022-10-26T09:53:58Z</time>
      </trkpt>
      <trkpt lat="10.275810" lon="-67.960941">
        <ele>484.50</ele>
        <time>2022-10-26T09:53:59Z</time>
      </trkpt>
      <trkpt lat="10.275846" lon="-67.960925">
        <ele>484.60</ele>
        <time>2022-10-26T09:54:00Z</time>
      </trkpt>
      <trkpt lat="10.275880" lon="-67.960908">
        <ele>484.60</ele>
        <time>2022-10-26T09:54:01Z</time>
      </trkpt>
      <trkpt lat="10.275912" lon="-67.960892">
        <ele>484.70</ele>
        <time>2022-10-26T09:54:02Z</time>
      </trkpt>
      <trkpt lat="10.275946" lon="-67.960873">
        <ele>484.80</ele>
        <time>2022-10-26T09:54:03Z</time>
      </trkpt>
      <trkpt lat="10.275979" lon="-67.960853">
        <ele>484.80</ele>
        <time>2022-10-26T09:54:04Z</time>
      </trkpt>
      <trkpt lat="10.276010" lon="-67.960831">
        <ele>484.80</ele>
        <time>2022-10-26T09:54:05Z</time>
      </trkpt>
      <trkpt lat="10.276039" lon="-67.960807">
        <ele>484.90</ele>
        <time>2022-10-26T09:54:06Z</time>
      </trkpt>
      <trkpt lat="10.276065" lon="-67.960786">
        <ele>484.90</ele>
        <time>2022-10-26T09:54:07Z</time>
      </trkpt>
      <trkpt lat="10.276095" lon="-67.960762">
        <ele>485.00</ele>
        <time>2022-10-26T09:54:08Z</time>
      </trkpt>
      <trkpt lat="10.276130" lon="-67.960735">
        <ele>485.00</ele>
        <time>2022-10-26T09:54:09Z</time>
      </trkpt>
      <trkpt lat="10.276162" lon="-67.960709">
        <ele>485.00</ele>
        <time>2022-10-26T09:54:10Z</time>
      </trkpt>
      <trkpt lat="10.276197" lon="-67.960675">
        <ele>485.00</ele>
        <time>2022-10-26T09:54:11Z</time>
      </trkpt>
      <trkpt lat="10.276232" lon="-67.960639">
        <ele>485.00</ele>
        <time>2022-10-26T09:54:12Z</time>
      </trkpt>
      <trkpt lat="10.276266" lon="-67.960603">
        <ele>485.00</ele>
        <time>2022-10-26T09:54:13Z</time>
      </trkpt>
      <trkpt lat="10.276300" lon="-67.960563">
        <ele>485.10</ele>
        <time>2022-10-26T09:54:14Z</time>
      </trkpt>
      <trkpt lat="10.276335" lon="-67.960525">
        <ele>485.10</ele>
        <time>2022-10-26T09:54:15Z</time>
      </trkpt>
      <trkpt lat="10.276370" lon="-67.960486">
        <ele>485.10</ele>
        <time>2022-10-26T09:54:16Z</time>
      </trkpt>
      <trkpt lat="10.276403" lon="-67.960451">
        <ele>485.10</ele>
        <time>2022-10-26T09:54:17Z</time>
      </trkpt>
      <trkpt lat="10.276435" lon="-67.960417">
        <ele>485.10</ele>
        <time>2022-10-26T09:54:18Z</time>
      </trkpt>
      <trkpt lat="10.276462" lon="-67.960378">
        <ele>485.20</ele>
        <time>2022-10-26T09:54:19Z</time>
      </trkpt>
      <trkpt lat="10.276485" lon="-67.960332">
        <ele>485.20</ele>
        <time>2022-10-26T09:54:20Z</time>
      </trkpt>
      <trkpt lat="10.276507" lon="-67.960286">
        <ele>485.20</ele>
        <time>2022-10-26T09:54:21Z</time>
      </trkpt>
      <trkpt lat="10.276527" lon="-67.960239">
        <ele>485.20</ele>
        <time>2022-10-26T09:54:22Z</time>
      </trkpt>
      <trkpt lat="10.276550" lon="-67.960194">
        <ele>485.20</ele>
        <time>2022-10-26T09:54:23Z</time>
      </trkpt>
      <trkpt lat="10.276574" lon="-67.960146">
        <ele>485.20</ele>
        <time>2022-10-26T09:54:24Z</time>
      </trkpt>
      <trkpt lat="10.276597" lon="-67.960099">
        <ele>485.20</ele>
        <time>2022-10-26T09:54:25Z</time>
      </trkpt>
      <trkpt lat="10.276625" lon="-67.960050">
        <ele>485.30</ele>
        <time>2022-10-26T09:54:26Z</time>
      </trkpt>
      <trkpt lat="10.276652" lon="-67.959995">
        <ele>485.30</ele>
        <time>2022-10-26T09:54:27Z</time>
      </trkpt>
      <trkpt lat="10.276679" lon="-67.959938">
        <ele>485.30</ele>
        <time>2022-10-26T09:54:28Z</time>
      </trkpt>
      <trkpt lat="10.276705" lon="-67.959884">
        <ele>485.30</ele>
        <time>2022-10-26T09:54:29Z</time>
      </trkpt>
      <trkpt lat="10.276721" lon="-67.959833">
        <ele>485.30</ele>
        <time>2022-10-26T09:54:30Z</time>
      </trkpt>
      <trkpt lat="10.276736" lon="-67.959787">
        <ele>485.30</ele>
        <time>2022-10-26T09:54:31Z</time>
      </trkpt>
      <trkpt lat="10.276752" lon="-67.959741">
        <ele>485.30</ele>
        <time>2022-10-26T09:54:32Z</time>
      </trkpt>
      <trkpt lat="10.276769" lon="-67.959698">
        <ele>485.30</ele>
        <time>2022-10-26T09:54:33Z</time>
      </trkpt>
      <trkpt lat="10.276786" lon="-67.959652">
        <ele>485.40</ele>
        <time>2022-10-26T09:54:34Z</time>
      </trkpt>
      <trkpt lat="10.276802" lon="-67.959605">
        <ele>485.40</ele>
        <time>2022-10-26T09:54:35Z</time>
      </trkpt>
      <trkpt lat="10.276819" lon="-67.959557">
        <ele>485.40</ele>
        <time>2022-10-26T09:54:36Z</time>
      </trkpt>
      <trkpt lat="10.276834" lon="-67.959503">
        <ele>485.40</ele>
        <time>2022-10-26T09:54:37Z</time>
      </trkpt>
      <trkpt lat="10.276851" lon="-67.959450">
        <ele>485.40</ele>
        <time>2022-10-26T09:54:38Z</time>
      </trkpt>
      <trkpt lat="10.276871" lon="-67.959398">
        <ele>485.40</ele>
        <time>2022-10-26T09:54:39Z</time>
      </trkpt>
      <trkpt lat="10.276894" lon="-67.959343">
        <ele>485.50</ele>
        <time>2022-10-26T09:54:40Z</time>
      </trkpt>
      <trkpt lat="10.276917" lon="-67.959290">
        <ele>485.50</ele>
        <time>2022-10-26T09:54:41Z</time>
      </trkpt>
      <trkpt lat="10.276939" lon="-67.959234">
        <ele>485.50</ele>
        <time>2022-10-26T09:54:42Z</time>
      </trkpt>
      <trkpt lat="10.276956" lon="-67.959172">
        <ele>485.50</ele>
        <time>2022-10-26T09:54:43Z</time>
      </trkpt>
      <trkpt lat="10.276973" lon="-67.959114">
        <ele>485.50</ele>
        <time>2022-10-26T09:54:44Z</time>
      </trkpt>
      <trkpt lat="10.276990" lon="-67.959059">
        <ele>485.60</ele>
        <time>2022-10-26T09:54:45Z</time>
      </trkpt>
      <trkpt lat="10.277010" lon="-67.959006">
        <ele>485.60</ele>
        <time>2022-10-26T09:54:46Z</time>
      </trkpt>
      <trkpt lat="10.277031" lon="-67.958952">
        <ele>485.70</ele>
        <time>2022-10-26T09:54:47Z</time>
      </trkpt>
      <trkpt lat="10.277048" lon="-67.958896">
        <ele>485.70</ele>
        <time>2022-10-26T09:54:48Z</time>
      </trkpt>
      <trkpt lat="10.277067" lon="-67.958835">
        <ele>485.70</ele>
        <time>2022-10-26T09:54:49Z</time>
      </trkpt>
      <trkpt lat="10.277086" lon="-67.958775">
        <ele>485.70</ele>
        <time>2022-10-26T09:54:50Z</time>
      </trkpt>
      <trkpt lat="10.277107" lon="-67.958719">
        <ele>485.80</ele>
        <time>2022-10-26T09:54:51Z</time>
      </trkpt>
      <trkpt lat="10.277129" lon="-67.958664">
        <ele>485.80</ele>
        <time>2022-10-26T09:54:52Z</time>
      </trkpt>
      <trkpt lat="10.277148" lon="-67.958612">
        <ele>485.80</ele>
        <time>2022-10-26T09:54:53Z</time>
      </trkpt>
      <trkpt lat="10.277166" lon="-67.958560">
        <ele>485.80</ele>
        <time>2022-10-26T09:54:54Z</time>
      </trkpt>
      <trkpt lat="10.277187" lon="-67.958509">
        <ele>485.80</ele>
        <time>2022-10-26T09:54:55Z</time>
      </trkpt>
      <trkpt lat="10.277211" lon="-67.958461">
        <ele>485.80</ele>
        <time>2022-10-26T09:54:56Z</time>
      </trkpt>
      <trkpt lat="10.277234" lon="-67.958409">
        <ele>485.80</ele>
        <time>2022-10-26T09:54:57Z</time>
      </trkpt>
      <trkpt lat="10.277257" lon="-67.958356">
        <ele>485.90</ele>
        <time>2022-10-26T09:54:58Z</time>
      </trkpt>
      <trkpt lat="10.277284" lon="-67.958303">
        <ele>485.90</ele>
        <time>2022-10-26T09:54:59Z</time>
      </trkpt>
      <trkpt lat="10.277311" lon="-67.958253">
        <ele>485.90</ele>
        <time>2022-10-26T09:55:00Z</time>
      </trkpt>
      <trkpt lat="10.277334" lon="-67.958203">
        <ele>485.90</ele>
        <time>2022-10-26T09:55:01Z</time>
      </trkpt>
      <trkpt lat="10.277357" lon="-67.958154">
        <ele>486.00</ele>
        <time>2022-10-26T09:55:02Z</time>
      </trkpt>
      <trkpt lat="10.277378" lon="-67.958102">
        <ele>486.00</ele>
        <time>2022-10-26T09:55:03Z</time>
      </trkpt>
      <trkpt lat="10.277397" lon="-67.958048">
        <ele>486.00</ele>
        <time>2022-10-26T09:55:04Z</time>
      </trkpt>
      <trkpt lat="10.277417" lon="-67.957990">
        <ele>486.00</ele>
        <time>2022-10-26T09:55:05Z</time>
      </trkpt>
      <trkpt lat="10.277437" lon="-67.957925">
        <ele>486.00</ele>
        <time>2022-10-26T09:55:06Z</time>
      </trkpt>
      <trkpt lat="10.277459" lon="-67.957858">
        <ele>486.00</ele>
        <time>2022-10-26T09:55:07Z</time>
      </trkpt>
      <trkpt lat="10.277483" lon="-67.957788">
        <ele>485.90</ele>
        <time>2022-10-26T09:55:08Z</time>
      </trkpt>
      <trkpt lat="10.277505" lon="-67.957723">
        <ele>485.90</ele>
        <time>2022-10-26T09:55:09Z</time>
      </trkpt>
      <trkpt lat="10.277524" lon="-67.957662">
        <ele>485.90</ele>
        <time>2022-10-26T09:55:10Z</time>
      </trkpt>
      <trkpt lat="10.277544" lon="-67.957604">
        <ele>485.90</ele>
        <time>2022-10-26T09:55:11Z</time>
      </trkpt>
      <trkpt lat="10.277564" lon="-67.957554">
        <ele>485.80</ele>
        <time>2022-10-26T09:55:12Z</time>
      </trkpt>
      <trkpt lat="10.277584" lon="-67.957501">
        <ele>485.80</ele>
        <time>2022-10-26T09:55:13Z</time>
      </trkpt>
      <trkpt lat="10.277604" lon="-67.957444">
        <ele>485.80</ele>
        <time>2022-10-26T09:55:14Z</time>
      </trkpt>
      <trkpt lat="10.277625" lon="-67.957387">
        <ele>485.80</ele>
        <time>2022-10-26T09:55:15Z</time>
      </trkpt>
      <trkpt lat="10.277647" lon="-67.957325">
        <ele>485.80</ele>
        <time>2022-10-26T09:55:16Z</time>
      </trkpt>
      <trkpt lat="10.277671" lon="-67.957261">
        <ele>485.70</ele>
        <time>2022-10-26T09:55:17Z</time>
      </trkpt>
      <trkpt lat="10.277696" lon="-67.957197">
        <ele>485.70</ele>
        <time>2022-10-26T09:55:18Z</time>
      </trkpt>
      <trkpt lat="10.277720" lon="-67.957132">
        <ele>485.70</ele>
        <time>2022-10-26T09:55:19Z</time>
      </trkpt>
      <trkpt lat="10.277740" lon="-67.957071">
        <ele>485.70</ele>
        <time>2022-10-26T09:55:20Z</time>
      </trkpt>
      <trkpt lat="10.277758" lon="-67.957012">
        <ele>485.60</ele>
        <time>2022-10-26T09:55:21Z</time>
      </trkpt>
      <trkpt lat="10.277779" lon="-67.956953">
        <ele>485.60</ele>
        <time>2022-10-26T09:55:22Z</time>
      </trkpt>
      <trkpt lat="10.277803" lon="-67.956897">
        <ele>485.60</ele>
        <time>2022-10-26T09:55:23Z</time>
      </trkpt>
      <trkpt lat="10.277830" lon="-67.956838">
        <ele>485.50</ele>
        <time>2022-10-26T09:55:24Z</time>
      </trkpt>
      <trkpt lat="10.277859" lon="-67.956779">
        <ele>485.50</ele>
        <time>2022-10-26T09:55:25Z</time>
      </trkpt>
      <trkpt lat="10.277886" lon="-67.956716">
        <ele>485.50</ele>
        <time>2022-10-26T09:55:26Z</time>
      </trkpt>
      <trkpt lat="10.277913" lon="-67.956652">
        <ele>485.40</ele>
        <time>2022-10-26T09:55:27Z</time>
      </trkpt>
      <trkpt lat="10.277938" lon="-67.956585">
        <ele>485.40</ele>
        <time>2022-10-26T09:55:28Z</time>
      </trkpt>
      <trkpt lat="10.277965" lon="-67.956517">
        <ele>485.40</ele>
        <time>2022-10-26T09:55:29Z</time>
      </trkpt>
      <trkpt lat="10.277988" lon="-67.956447">
        <ele>485.40</ele>
        <time>2022-10-26T09:55:30Z</time>
      </trkpt>
      <trkpt lat="10.278014" lon="-67.956377">
        <ele>485.30</ele>
        <time>2022-10-26T09:55:31Z</time>
      </trkpt>
      <trkpt lat="10.278040" lon="-67.956307">
        <ele>485.20</ele>
        <time>2022-10-26T09:55:32Z</time>
      </trkpt>
      <trkpt lat="10.278067" lon="-67.956237">
        <ele>485.20</ele>
        <time>2022-10-26T09:55:33Z</time>
      </trkpt>
      <trkpt lat="10.278096" lon="-67.956163">
        <ele>485.10</ele>
        <time>2022-10-26T09:55:34Z</time>
      </trkpt>
      <trkpt lat="10.278121" lon="-67.956087">
        <ele>485.10</ele>
        <time>2022-10-26T09:55:35Z</time>
      </trkpt>
      <trkpt lat="10.278144" lon="-67.956011">
        <ele>485.00</ele>
        <time>2022-10-26T09:55:36Z</time>
      </trkpt>
      <trkpt lat="10.278170" lon="-67.955940">
        <ele>485.00</ele>
        <time>2022-10-26T09:55:37Z</time>
      </trkpt>
      <trkpt lat="10.278198" lon="-67.955870">
        <ele>484.90</ele>
        <time>2022-10-26T09:55:38Z</time>
      </trkpt>
      <trkpt lat="10.278225" lon="-67.955800">
        <ele>484.90</ele>
        <time>2022-10-26T09:55:39Z</time>
      </trkpt>
      <trkpt lat="10.278253" lon="-67.955731">
        <ele>484.90</ele>
        <time>2022-10-26T09:55:40Z</time>
      </trkpt>
      <trkpt lat="10.278279" lon="-67.955660">
        <ele>484.80</ele>
        <time>2022-10-26T09:55:41Z</time>
      </trkpt>
      <trkpt lat="10.278303" lon="-67.955593">
        <ele>484.80</ele>
        <time>2022-10-26T09:55:42Z</time>
      </trkpt>
      <trkpt lat="10.278328" lon="-67.955526">
        <ele>484.70</ele>
        <time>2022-10-26T09:55:43Z</time>
      </trkpt>
      <trkpt lat="10.278353" lon="-67.955460">
        <ele>484.70</ele>
        <time>2022-10-26T09:55:44Z</time>
      </trkpt>
      <trkpt lat="10.278381" lon="-67.955394">
        <ele>484.60</ele>
        <time>2022-10-26T09:55:45Z</time>
      </trkpt>
      <trkpt lat="10.278408" lon="-67.955332">
        <ele>484.60</ele>
        <time>2022-10-26T09:55:46Z</time>
      </trkpt>
      <trkpt lat="10.278437" lon="-67.955268">
        <ele>484.50</ele>
        <time>2022-10-26T09:55:47Z</time>
      </trkpt>
      <trkpt lat="10.278466" lon="-67.955204">
        <ele>484.50</ele>
        <time>2022-10-26T09:55:48Z</time>
      </trkpt>
      <trkpt lat="10.278496" lon="-67.955140">
        <ele>484.60</ele>
        <time>2022-10-26T09:55:49Z</time>
      </trkpt>
      <trkpt lat="10.278527" lon="-67.955073">
        <ele>484.60</ele>
        <time>2022-10-26T09:55:50Z</time>
      </trkpt>
      <trkpt lat="10.278556" lon="-67.955006">
        <ele>484.70</ele>
        <time>2022-10-26T09:55:51Z</time>
      </trkpt>
      <trkpt lat="10.278585" lon="-67.954937">
        <ele>484.70</ele>
        <time>2022-10-26T09:55:52Z</time>
      </trkpt>
      <trkpt lat="10.278613" lon="-67.954865">
        <ele>484.70</ele>
        <time>2022-10-26T09:55:53Z</time>
      </trkpt>
      <trkpt lat="10.278641" lon="-67.954792">
        <ele>484.60</ele>
        <time>2022-10-26T09:55:54Z</time>
      </trkpt>
      <trkpt lat="10.278671" lon="-67.954717">
        <ele>484.60</ele>
        <time>2022-10-26T09:55:55Z</time>
      </trkpt>
      <trkpt lat="10.278699" lon="-67.954643">
        <ele>484.50</ele>
        <time>2022-10-26T09:55:56Z</time>
      </trkpt>
      <trkpt lat="10.278725" lon="-67.954571">
        <ele>484.50</ele>
        <time>2022-10-26T09:55:57Z</time>
      </trkpt>
      <trkpt lat="10.278745" lon="-67.954499">
        <ele>484.40</ele>
        <time>2022-10-26T09:55:58Z</time>
      </trkpt>
      <trkpt lat="10.278759" lon="-67.954424">
        <ele>484.40</ele>
        <time>2022-10-26T09:55:59Z</time>
      </trkpt>
      <trkpt lat="10.278769" lon="-67.954350">
        <ele>484.40</ele>
        <time>2022-10-26T09:56:00Z</time>
      </trkpt>
      <trkpt lat="10.278776" lon="-67.954275">
        <ele>484.40</ele>
        <time>2022-10-26T09:56:01Z</time>
      </trkpt>
      <trkpt lat="10.278791" lon="-67.954201">
        <ele>484.50</ele>
        <time>2022-10-26T09:56:02Z</time>
      </trkpt>
      <trkpt lat="10.278812" lon="-67.954125">
        <ele>484.50</ele>
        <time>2022-10-26T09:56:03Z</time>
      </trkpt>
      <trkpt lat="10.278835" lon="-67.954056">
        <ele>484.50</ele>
        <time>2022-10-26T09:56:04Z</time>
      </trkpt>
      <trkpt lat="10.278859" lon="-67.953993">
        <ele>484.50</ele>
        <time>2022-10-26T09:56:05Z</time>
      </trkpt>
      <trkpt lat="10.278886" lon="-67.953933">
        <ele>484.50</ele>
        <time>2022-10-26T09:56:06Z</time>
      </trkpt>
      <trkpt lat="10.278912" lon="-67.953874">
        <ele>484.60</ele>
        <time>2022-10-26T09:56:07Z</time>
      </trkpt>
      <trkpt lat="10.278938" lon="-67.953813">
        <ele>484.60</ele>
        <time>2022-10-26T09:56:08Z</time>
      </trkpt>
      <trkpt lat="10.278960" lon="-67.953753">
        <ele>484.70</ele>
        <time>2022-10-26T09:56:09Z</time>
      </trkpt>
      <trkpt lat="10.278986" lon="-67.953698">
        <ele>484.70</ele>
        <time>2022-10-26T09:56:10Z</time>
      </trkpt>
      <trkpt lat="10.279007" lon="-67.953649">
        <ele>484.80</ele>
        <time>2022-10-26T09:56:11Z</time>
      </trkpt>
      <trkpt lat="10.279027" lon="-67.953596">
        <ele>484.80</ele>
        <time>2022-10-26T09:56:12Z</time>
      </trkpt>
      <trkpt lat="10.279044" lon="-67.953536">
        <ele>484.90</ele>
        <time>2022-10-26T09:56:13Z</time>
      </trkpt>
      <trkpt lat="10.279065" lon="-67.953475">
        <ele>484.90</ele>
        <time>2022-10-26T09:56:14Z</time>
      </trkpt>
      <trkpt lat="10.279085" lon="-67.953417">
        <ele>484.90</ele>
        <time>2022-10-26T09:56:15Z</time>
      </trkpt>
      <trkpt lat="10.279104" lon="-67.953362">
        <ele>485.00</ele>
        <time>2022-10-26T09:56:16Z</time>
      </trkpt>
      <trkpt lat="10.279120" lon="-67.953310">
        <ele>485.00</ele>
        <time>2022-10-26T09:56:17Z</time>
      </trkpt>
      <trkpt lat="10.279133" lon="-67.953258">
        <ele>485.00</ele>
        <time>2022-10-26T09:56:18Z</time>
      </trkpt>
      <trkpt lat="10.279143" lon="-67.953203">
        <ele>485.00</ele>
        <time>2022-10-26T09:56:19Z</time>
      </trkpt>
      <trkpt lat="10.279158" lon="-67.953149">
        <ele>485.10</ele>
        <time>2022-10-26T09:56:20Z</time>
      </trkpt>
      <trkpt lat="10.279180" lon="-67.953089">
        <ele>485.10</ele>
        <time>2022-10-26T09:56:21Z</time>
      </trkpt>
      <trkpt lat="10.279199" lon="-67.953030">
        <ele>485.20</ele>
        <time>2022-10-26T09:56:22Z</time>
      </trkpt>
      <trkpt lat="10.279214" lon="-67.952973">
        <ele>485.20</ele>
        <time>2022-10-26T09:56:23Z</time>
      </trkpt>
      <trkpt lat="10.279231" lon="-67.952919">
        <ele>485.20</ele>
        <time>2022-10-26T09:56:24Z</time>
      </trkpt>
      <trkpt lat="10.279245" lon="-67.952864">
        <ele>485.30</ele>
        <time>2022-10-26T09:56:25Z</time>
      </trkpt>
      <trkpt lat="10.279258" lon="-67.952811">
        <ele>485.30</ele>
        <time>2022-10-26T09:56:26Z</time>
      </trkpt>
      <trkpt lat="10.279267" lon="-67.952756">
        <ele>485.30</ele>
        <time>2022-10-26T09:56:27Z</time>
      </trkpt>
      <trkpt lat="10.279279" lon="-67.952696">
        <ele>485.40</ele>
        <time>2022-10-26T09:56:28Z</time>
      </trkpt>
      <trkpt lat="10.279295" lon="-67.952640">
        <ele>485.50</ele>
        <time>2022-10-26T09:56:29Z</time>
      </trkpt>
      <trkpt lat="10.279307" lon="-67.952586">
        <ele>485.50</ele>
        <time>2022-10-26T09:56:30Z</time>
      </trkpt>
      <trkpt lat="10.279318" lon="-67.952530">
        <ele>485.60</ele>
        <time>2022-10-26T09:56:31Z</time>
      </trkpt>
      <trkpt lat="10.279331" lon="-67.952465">
        <ele>485.60</ele>
        <time>2022-10-26T09:56:32Z</time>
      </trkpt>
      <trkpt lat="10.279345" lon="-67.952401">
        <ele>485.70</ele>
        <time>2022-10-26T09:56:33Z</time>
      </trkpt>
      <trkpt lat="10.279360" lon="-67.952336">
        <ele>485.70</ele>
        <time>2022-10-26T09:56:34Z</time>
      </trkpt>
      <trkpt lat="10.279369" lon="-67.952276">
        <ele>485.70</ele>
        <time>2022-10-26T09:56:35Z</time>
      </trkpt>
      <trkpt lat="10.279376" lon="-67.952217">
        <ele>485.70</ele>
        <time>2022-10-26T09:56:36Z</time>
      </trkpt>
      <trkpt lat="10.279381" lon="-67.952165">
        <ele>485.80</ele>
        <time>2022-10-26T09:56:37Z</time>
      </trkpt>
      <trkpt lat="10.279387" lon="-67.952110">
        <ele>485.80</ele>
        <time>2022-10-26T09:56:38Z</time>
      </trkpt>
      <trkpt lat="10.279392" lon="-67.952054">
        <ele>485.90</ele>
        <time>2022-10-26T09:56:39Z</time>
      </trkpt>
      <trkpt lat="10.279396" lon="-67.951997">
        <ele>485.90</ele>
        <time>2022-10-26T09:56:40Z</time>
      </trkpt>
      <trkpt lat="10.279403" lon="-67.951937">
        <ele>485.90</ele>
        <time>2022-10-26T09:56:41Z</time>
      </trkpt>
      <trkpt lat="10.279413" lon="-67.951873">
        <ele>486.00</ele>
        <time>2022-10-26T09:56:42Z</time>
      </trkpt>
      <trkpt lat="10.279421" lon="-67.951809">
        <ele>486.00</ele>
        <time>2022-10-26T09:56:43Z</time>
      </trkpt>
      <trkpt lat="10.279428" lon="-67.951746">
        <ele>486.00</ele>
        <time>2022-10-26T09:56:44Z</time>
      </trkpt>
      <trkpt lat="10.279431" lon="-67.951682">
        <ele>486.00</ele>
        <time>2022-10-26T09:56:45Z</time>
      </trkpt>
      <trkpt lat="10.279435" lon="-67.951619">
        <ele>486.10</ele>
        <time>2022-10-26T09:56:46Z</time>
      </trkpt>
      <trkpt lat="10.279436" lon="-67.951556">
        <ele>486.10</ele>
        <time>2022-10-26T09:56:47Z</time>
      </trkpt>
      <trkpt lat="10.279440" lon="-67.951496">
        <ele>486.10</ele>
        <time>2022-10-26T09:56:48Z</time>
      </trkpt>
      <trkpt lat="10.279439" lon="-67.951435">
        <ele>486.20</ele>
        <time>2022-10-26T09:56:49Z</time>
      </trkpt>
      <trkpt lat="10.279435" lon="-67.951378">
        <ele>486.20</ele>
        <time>2022-10-26T09:56:50Z</time>
      </trkpt>
      <trkpt lat="10.279440" lon="-67.951325">
        <ele>486.20</ele>
        <time>2022-10-26T09:56:51Z</time>
      </trkpt>
      <trkpt lat="10.279447" lon="-67.951274">
        <ele>486.20</ele>
        <time>2022-10-26T09:56:52Z</time>
      </trkpt>
      <trkpt lat="10.279456" lon="-67.951225">
        <ele>486.30</ele>
        <time>2022-10-26T09:56:53Z</time>
      </trkpt>
      <trkpt lat="10.279466" lon="-67.951175">
        <ele>486.30</ele>
        <time>2022-10-26T09:56:54Z</time>
      </trkpt>
      <trkpt lat="10.279474" lon="-67.951120">
        <ele>486.30</ele>
        <time>2022-10-26T09:56:55Z</time>
      </trkpt>
      <trkpt lat="10.279483" lon="-67.951059">
        <ele>486.40</ele>
        <time>2022-10-26T09:56:56Z</time>
      </trkpt>
      <trkpt lat="10.279490" lon="-67.950998">
        <ele>486.40</ele>
        <time>2022-10-26T09:56:57Z</time>
      </trkpt>
      <trkpt lat="10.279495" lon="-67.950936">
        <ele>486.50</ele>
        <time>2022-10-26T09:56:58Z</time>
      </trkpt>
      <trkpt lat="10.279501" lon="-67.950872">
        <ele>486.50</ele>
        <time>2022-10-26T09:56:59Z</time>
      </trkpt>
      <trkpt lat="10.279506" lon="-67.950807">
        <ele>486.60</ele>
        <time>2022-10-26T09:57:00Z</time>
      </trkpt>
      <trkpt lat="10.279510" lon="-67.950737">
        <ele>486.70</ele>
        <time>2022-10-26T09:57:01Z</time>
      </trkpt>
      <trkpt lat="10.279511" lon="-67.950663">
        <ele>486.70</ele>
        <time>2022-10-26T09:57:02Z</time>
      </trkpt>
      <trkpt lat="10.279514" lon="-67.950591">
        <ele>486.70</ele>
        <time>2022-10-26T09:57:03Z</time>
      </trkpt>
      <trkpt lat="10.279519" lon="-67.950524">
        <ele>486.70</ele>
        <time>2022-10-26T09:57:04Z</time>
      </trkpt>
      <trkpt lat="10.279525" lon="-67.950463">
        <ele>486.80</ele>
        <time>2022-10-26T09:57:05Z</time>
      </trkpt>
      <trkpt lat="10.279530" lon="-67.950404">
        <ele>486.80</ele>
        <time>2022-10-26T09:57:06Z</time>
      </trkpt>
      <trkpt lat="10.279537" lon="-67.950347">
        <ele>486.80</ele>
        <time>2022-10-26T09:57:07Z</time>
      </trkpt>
      <trkpt lat="10.279541" lon="-67.950284">
        <ele>486.90</ele>
        <time>2022-10-26T09:57:08Z</time>
      </trkpt>
      <trkpt lat="10.279544" lon="-67.950220">
        <ele>486.90</ele>
        <time>2022-10-26T09:57:09Z</time>
      </trkpt>
      <trkpt lat="10.279545" lon="-67.950156">
        <ele>487.00</ele>
        <time>2022-10-26T09:57:10Z</time>
      </trkpt>
      <trkpt lat="10.279547" lon="-67.950093">
        <ele>487.00</ele>
        <time>2022-10-26T09:57:11Z</time>
      </trkpt>
      <trkpt lat="10.279548" lon="-67.950032">
        <ele>487.10</ele>
        <time>2022-10-26T09:57:12Z</time>
      </trkpt>
      <trkpt lat="10.279550" lon="-67.949974">
        <ele>487.10</ele>
        <time>2022-10-26T09:57:13Z</time>
      </trkpt>
      <trkpt lat="10.279550" lon="-67.949918">
        <ele>487.20</ele>
        <time>2022-10-26T09:57:14Z</time>
      </trkpt>
      <trkpt lat="10.279549" lon="-67.949861">
        <ele>487.20</ele>
        <time>2022-10-26T09:57:15Z</time>
      </trkpt>
      <trkpt lat="10.279546" lon="-67.949803">
        <ele>487.30</ele>
        <time>2022-10-26T09:57:16Z</time>
      </trkpt>
      <trkpt lat="10.279547" lon="-67.949744">
        <ele>487.30</ele>
        <time>2022-10-26T09:57:17Z</time>
      </trkpt>
      <trkpt lat="10.279547" lon="-67.949685">
        <ele>487.40</ele>
        <time>2022-10-26T09:57:18Z</time>
      </trkpt>
      <trkpt lat="10.279550" lon="-67.949625">
        <ele>487.40</ele>
        <time>2022-10-26T09:57:19Z</time>
      </trkpt>
      <trkpt lat="10.279554" lon="-67.949564">
        <ele>487.50</ele>
        <time>2022-10-26T09:57:20Z</time>
      </trkpt>
      <trkpt lat="10.279559" lon="-67.949517">
        <ele>487.50</ele>
        <time>2022-10-26T09:57:21Z</time>
      </trkpt>
      <trkpt lat="10.279564" lon="-67.949463">
        <ele>487.60</ele>
        <time>2022-10-26T09:57:22Z</time>
      </trkpt>
      <trkpt lat="10.279569" lon="-67.949407">
        <ele>487.60</ele>
        <time>2022-10-26T09:57:23Z</time>
      </trkpt>
      <trkpt lat="10.279574" lon="-67.949351">
        <ele>487.60</ele>
        <time>2022-10-26T09:57:24Z</time>
      </trkpt>
      <trkpt lat="10.279582" lon="-67.949289">
        <ele>487.70</ele>
        <time>2022-10-26T09:57:25Z</time>
      </trkpt>
      <trkpt lat="10.279592" lon="-67.949226">
        <ele>487.70</ele>
        <time>2022-10-26T09:57:26Z</time>
      </trkpt>
      <trkpt lat="10.279603" lon="-67.949164">
        <ele>487.70</ele>
        <time>2022-10-26T09:57:27Z</time>
      </trkpt>
      <trkpt lat="10.279612" lon="-67.949098">
        <ele>487.80</ele>
        <time>2022-10-26T09:57:28Z</time>
      </trkpt>
      <trkpt lat="10.279622" lon="-67.949031">
        <ele>487.80</ele>
        <time>2022-10-26T09:57:29Z</time>
      </trkpt>
      <trkpt lat="10.279631" lon="-67.948966">
        <ele>487.80</ele>
        <time>2022-10-26T09:57:30Z</time>
      </trkpt>
      <trkpt lat="10.279642" lon="-67.948903">
        <ele>487.90</ele>
        <time>2022-10-26T09:57:31Z</time>
      </trkpt>
      <trkpt lat="10.279650" lon="-67.948841">
        <ele>487.90</ele>
        <time>2022-10-26T09:57:32Z</time>
      </trkpt>
      <trkpt lat="10.279657" lon="-67.948781">
        <ele>488.00</ele>
        <time>2022-10-26T09:57:33Z</time>
      </trkpt>
      <trkpt lat="10.279665" lon="-67.948720">
        <ele>488.00</ele>
        <time>2022-10-26T09:57:34Z</time>
      </trkpt>
      <trkpt lat="10.279670" lon="-67.948658">
        <ele>488.10</ele>
        <time>2022-10-26T09:57:35Z</time>
      </trkpt>
      <trkpt lat="10.279674" lon="-67.948597">
        <ele>488.10</ele>
        <time>2022-10-26T09:57:36Z</time>
      </trkpt>
      <trkpt lat="10.279678" lon="-67.948540">
        <ele>488.20</ele>
        <time>2022-10-26T09:57:37Z</time>
      </trkpt>
      <trkpt lat="10.279683" lon="-67.948484">
        <ele>488.20</ele>
        <time>2022-10-26T09:57:38Z</time>
      </trkpt>
      <trkpt lat="10.279691" lon="-67.948426">
        <ele>488.20</ele>
        <time>2022-10-26T09:57:39Z</time>
      </trkpt>
      <trkpt lat="10.279698" lon="-67.948369">
        <ele>488.30</ele>
        <time>2022-10-26T09:57:40Z</time>
      </trkpt>
      <trkpt lat="10.279709" lon="-67.948307">
        <ele>488.40</ele>
        <time>2022-10-26T09:57:41Z</time>
      </trkpt>
      <trkpt lat="10.279722" lon="-67.948249">
        <ele>488.40</ele>
        <time>2022-10-26T09:57:42Z</time>
      </trkpt>
      <trkpt lat="10.279733" lon="-67.948193">
        <ele>488.40</ele>
        <time>2022-10-26T09:57:43Z</time>
      </trkpt>
      <trkpt lat="10.279747" lon="-67.948130">
        <ele>488.40</ele>
        <time>2022-10-26T09:57:44Z</time>
      </trkpt>
      <trkpt lat="10.279767" lon="-67.948065">
        <ele>488.40</ele>
        <time>2022-10-26T09:57:45Z</time>
      </trkpt>
      <trkpt lat="10.279787" lon="-67.947994">
        <ele>488.40</ele>
        <time>2022-10-26T09:57:46Z</time>
      </trkpt>
      <trkpt lat="10.279796" lon="-67.947922">
        <ele>488.50</ele>
        <time>2022-10-26T09:57:47Z</time>
      </trkpt>
      <trkpt lat="10.279802" lon="-67.947854">
        <ele>488.50</ele>
        <time>2022-10-26T09:57:48Z</time>
      </trkpt>
      <trkpt lat="10.279809" lon="-67.947793">
        <ele>488.50</ele>
        <time>2022-10-26T09:57:49Z</time>
      </trkpt>
      <trkpt lat="10.279816" lon="-67.947732">
        <ele>488.50</ele>
        <time>2022-10-26T09:57:50Z</time>
      </trkpt>
      <trkpt lat="10.279823" lon="-67.947673">
        <ele>488.50</ele>
        <time>2022-10-26T09:57:51Z</time>
      </trkpt>
      <trkpt lat="10.279831" lon="-67.947621">
        <ele>488.50</ele>
        <time>2022-10-26T09:57:52Z</time>
      </trkpt>
      <trkpt lat="10.279839" lon="-67.947567">
        <ele>488.50</ele>
        <time>2022-10-26T09:57:53Z</time>
      </trkpt>
      <trkpt lat="10.279848" lon="-67.947513">
        <ele>488.50</ele>
        <time>2022-10-26T09:57:54Z</time>
      </trkpt>
      <trkpt lat="10.279862" lon="-67.947453">
        <ele>488.50</ele>
        <time>2022-10-26T09:57:55Z</time>
      </trkpt>
      <trkpt lat="10.279871" lon="-67.947392">
        <ele>488.60</ele>
        <time>2022-10-26T09:57:56Z</time>
      </trkpt>
      <trkpt lat="10.279874" lon="-67.947327">
        <ele>488.60</ele>
        <time>2022-10-26T09:57:57Z</time>
      </trkpt>
      <trkpt lat="10.279885" lon="-67.947261">
        <ele>488.60</ele>
        <time>2022-10-26T09:57:58Z</time>
      </trkpt>
      <trkpt lat="10.279899" lon="-67.947197">
        <ele>488.70</ele>
        <time>2022-10-26T09:57:59Z</time>
      </trkpt>
      <trkpt lat="10.279912" lon="-67.947125">
        <ele>488.70</ele>
        <time>2022-10-26T09:58:00Z</time>
      </trkpt>
      <trkpt lat="10.279928" lon="-67.947055">
        <ele>488.80</ele>
        <time>2022-10-26T09:58:01Z</time>
      </trkpt>
      <trkpt lat="10.279940" lon="-67.946988">
        <ele>488.90</ele>
        <time>2022-10-26T09:58:02Z</time>
      </trkpt>
      <trkpt lat="10.279952" lon="-67.946923">
        <ele>488.90</ele>
        <time>2022-10-26T09:58:03Z</time>
      </trkpt>
      <trkpt lat="10.279964" lon="-67.946861">
        <ele>488.90</ele>
        <time>2022-10-26T09:58:04Z</time>
      </trkpt>
      <trkpt lat="10.279980" lon="-67.946796">
        <ele>488.90</ele>
        <time>2022-10-26T09:58:05Z</time>
      </trkpt>
      <trkpt lat="10.280000" lon="-67.946733">
        <ele>488.90</ele>
        <time>2022-10-26T09:58:06Z</time>
      </trkpt>
      <trkpt lat="10.280022" lon="-67.946670">
        <ele>489.00</ele>
        <time>2022-10-26T09:58:07Z</time>
      </trkpt>
      <trkpt lat="10.280043" lon="-67.946606">
        <ele>489.00</ele>
        <time>2022-10-26T09:58:08Z</time>
      </trkpt>
      <trkpt lat="10.280060" lon="-67.946542">
        <ele>489.00</ele>
        <time>2022-10-26T09:58:09Z</time>
      </trkpt>
      <trkpt lat="10.280075" lon="-67.946480">
        <ele>489.10</ele>
        <time>2022-10-26T09:58:10Z</time>
      </trkpt>
      <trkpt lat="10.280089" lon="-67.946418">
        <ele>489.10</ele>
        <time>2022-10-26T09:58:11Z</time>
      </trkpt>
      <trkpt lat="10.280097" lon="-67.946354">
        <ele>489.20</ele>
        <time>2022-10-26T09:58:12Z</time>
      </trkpt>
      <trkpt lat="10.280104" lon="-67.946286">
        <ele>489.20</ele>
        <time>2022-10-26T09:58:13Z</time>
      </trkpt>
      <trkpt lat="10.280108" lon="-67.946217">
        <ele>489.20</ele>
        <time>2022-10-26T09:58:14Z</time>
      </trkpt>
      <trkpt lat="10.280113" lon="-67.946148">
        <ele>489.30</ele>
        <time>2022-10-26T09:58:15Z</time>
      </trkpt>
      <trkpt lat="10.280120" lon="-67.946083">
        <ele>489.30</ele>
        <time>2022-10-26T09:58:16Z</time>
      </trkpt>
      <trkpt lat="10.280128" lon="-67.946020">
        <ele>489.30</ele>
        <time>2022-10-26T09:58:17Z</time>
      </trkpt>
      <trkpt lat="10.280134" lon="-67.945956">
        <ele>489.40</ele>
        <time>2022-10-26T09:58:18Z</time>
      </trkpt>
      <trkpt lat="10.280140" lon="-67.945890">
        <ele>489.40</ele>
        <time>2022-10-26T09:58:19Z</time>
      </trkpt>
      <trkpt lat="10.280149" lon="-67.945824">
        <ele>489.40</ele>
        <time>2022-10-26T09:58:20Z</time>
      </trkpt>
      <trkpt lat="10.280160" lon="-67.945759">
        <ele>489.50</ele>
        <time>2022-10-26T09:58:21Z</time>
      </trkpt>
      <trkpt lat="10.280170" lon="-67.945691">
        <ele>489.50</ele>
        <time>2022-10-26T09:58:22Z</time>
      </trkpt>
      <trkpt lat="10.280179" lon="-67.945626">
        <ele>489.60</ele>
        <time>2022-10-26T09:58:23Z</time>
      </trkpt>
      <trkpt lat="10.280194" lon="-67.945562">
        <ele>489.60</ele>
        <time>2022-10-26T09:58:24Z</time>
      </trkpt>
      <trkpt lat="10.280210" lon="-67.945500">
        <ele>489.80</ele>
        <time>2022-10-26T09:58:25Z</time>
      </trkpt>
      <trkpt lat="10.280224" lon="-67.945432">
        <ele>489.90</ele>
        <time>2022-10-26T09:58:26Z</time>
      </trkpt>
      <trkpt lat="10.280235" lon="-67.945363">
        <ele>489.90</ele>
        <time>2022-10-26T09:58:27Z</time>
      </trkpt>
      <trkpt lat="10.280244" lon="-67.945296">
        <ele>489.90</ele>
        <time>2022-10-26T09:58:28Z</time>
      </trkpt>
      <trkpt lat="10.280258" lon="-67.945230">
        <ele>489.90</ele>
        <time>2022-10-26T09:58:29Z</time>
      </trkpt>
      <trkpt lat="10.280271" lon="-67.945169">
        <ele>489.90</ele>
        <time>2022-10-26T09:58:30Z</time>
      </trkpt>
      <trkpt lat="10.280285" lon="-67.945110">
        <ele>489.80</ele>
        <time>2022-10-26T09:58:31Z</time>
      </trkpt>
      <trkpt lat="10.280300" lon="-67.945051">
        <ele>489.80</ele>
        <time>2022-10-26T09:58:32Z</time>
      </trkpt>
      <trkpt lat="10.280317" lon="-67.944988">
        <ele>489.70</ele>
        <time>2022-10-26T09:58:33Z</time>
      </trkpt>
      <trkpt lat="10.280334" lon="-67.944924">
        <ele>489.60</ele>
        <time>2022-10-26T09:58:34Z</time>
      </trkpt>
      <trkpt lat="10.280350" lon="-67.944863">
        <ele>489.50</ele>
        <time>2022-10-26T09:58:35Z</time>
      </trkpt>
      <trkpt lat="10.280367" lon="-67.944801">
        <ele>489.40</ele>
        <time>2022-10-26T09:58:36Z</time>
      </trkpt>
      <trkpt lat="10.280383" lon="-67.944738">
        <ele>489.30</ele>
        <time>2022-10-26T09:58:37Z</time>
      </trkpt>
      <trkpt lat="10.280398" lon="-67.944672">
        <ele>489.20</ele>
        <time>2022-10-26T09:58:38Z</time>
      </trkpt>
      <trkpt lat="10.280413" lon="-67.944606">
        <ele>489.00</ele>
        <time>2022-10-26T09:58:39Z</time>
      </trkpt>
      <trkpt lat="10.280429" lon="-67.944540">
        <ele>488.90</ele>
        <time>2022-10-26T09:58:40Z</time>
      </trkpt>
      <trkpt lat="10.280446" lon="-67.944474">
        <ele>488.80</ele>
        <time>2022-10-26T09:58:41Z</time>
      </trkpt>
      <trkpt lat="10.280462" lon="-67.944409">
        <ele>488.60</ele>
        <time>2022-10-26T09:58:42Z</time>
      </trkpt>
      <trkpt lat="10.280479" lon="-67.944341">
        <ele>488.50</ele>
        <time>2022-10-26T09:58:43Z</time>
      </trkpt>
      <trkpt lat="10.280496" lon="-67.944274">
        <ele>488.30</ele>
        <time>2022-10-26T09:58:44Z</time>
      </trkpt>
      <trkpt lat="10.280515" lon="-67.944208">
        <ele>488.10</ele>
        <time>2022-10-26T09:58:45Z</time>
      </trkpt>
      <trkpt lat="10.280532" lon="-67.944138">
        <ele>487.90</ele>
        <time>2022-10-26T09:58:46Z</time>
      </trkpt>
      <trkpt lat="10.280549" lon="-67.944062">
        <ele>487.80</ele>
        <time>2022-10-26T09:58:47Z</time>
      </trkpt>
      <trkpt lat="10.280565" lon="-67.943989">
        <ele>487.60</ele>
        <time>2022-10-26T09:58:48Z</time>
      </trkpt>
      <trkpt lat="10.280580" lon="-67.943917">
        <ele>487.40</ele>
        <time>2022-10-26T09:58:49Z</time>
      </trkpt>
      <trkpt lat="10.280597" lon="-67.943843">
        <ele>487.30</ele>
        <time>2022-10-26T09:58:50Z</time>
      </trkpt>
      <trkpt lat="10.280612" lon="-67.943769">
        <ele>487.10</ele>
        <time>2022-10-26T09:58:51Z</time>
      </trkpt>
      <trkpt lat="10.280632" lon="-67.943687">
        <ele>486.90</ele>
        <time>2022-10-26T09:58:52Z</time>
      </trkpt>
      <trkpt lat="10.280656" lon="-67.943609">
        <ele>486.70</ele>
        <time>2022-10-26T09:58:53Z</time>
      </trkpt>
      <trkpt lat="10.280682" lon="-67.943530">
        <ele>486.40</ele>
        <time>2022-10-26T09:58:54Z</time>
      </trkpt>
      <trkpt lat="10.280707" lon="-67.943452">
        <ele>486.20</ele>
        <time>2022-10-26T09:58:55Z</time>
      </trkpt>
      <trkpt lat="10.280727" lon="-67.943377">
        <ele>486.00</ele>
        <time>2022-10-26T09:58:56Z</time>
      </trkpt>
      <trkpt lat="10.280746" lon="-67.943304">
        <ele>485.80</ele>
        <time>2022-10-26T09:58:57Z</time>
      </trkpt>
      <trkpt lat="10.280763" lon="-67.943230">
        <ele>485.50</ele>
        <time>2022-10-26T09:58:58Z</time>
      </trkpt>
      <trkpt lat="10.280780" lon="-67.943150">
        <ele>485.20</ele>
        <time>2022-10-26T09:58:59Z</time>
      </trkpt>
      <trkpt lat="10.280801" lon="-67.943067">
        <ele>485.00</ele>
        <time>2022-10-26T09:59:00Z</time>
      </trkpt>
      <trkpt lat="10.280820" lon="-67.942981">
        <ele>484.70</ele>
        <time>2022-10-26T09:59:01Z</time>
      </trkpt>
      <trkpt lat="10.280841" lon="-67.942861">
        <ele>484.30</ele>
        <time>2022-10-26T09:59:02Z</time>
      </trkpt>
      <trkpt lat="10.280847" lon="-67.942820">
        <ele>484.20</ele>
        <time>2022-10-26T09:59:03Z</time>
      </trkpt>
      <trkpt lat="10.280863" lon="-67.942733">
        <ele>483.90</ele>
        <time>2022-10-26T09:59:04Z</time>
      </trkpt>
      <trkpt lat="10.280880" lon="-67.942640">
        <ele>483.60</ele>
        <time>2022-10-26T09:59:05Z</time>
      </trkpt>
      <trkpt lat="10.280894" lon="-67.942552">
        <ele>483.30</ele>
        <time>2022-10-26T09:59:06Z</time>
      </trkpt>
      <trkpt lat="10.280911" lon="-67.942465">
        <ele>483.10</ele>
        <time>2022-10-26T09:59:07Z</time>
      </trkpt>
      <trkpt lat="10.280928" lon="-67.942372">
        <ele>482.90</ele>
        <time>2022-10-26T09:59:08Z</time>
      </trkpt>
      <trkpt lat="10.280942" lon="-67.942272">
        <ele>482.70</ele>
        <time>2022-10-26T09:59:09Z</time>
      </trkpt>
      <trkpt lat="10.280956" lon="-67.942169">
        <ele>482.50</ele>
        <time>2022-10-26T09:59:10Z</time>
      </trkpt>
      <trkpt lat="10.280969" lon="-67.942074">
        <ele>482.30</ele>
        <time>2022-10-26T09:59:11Z</time>
      </trkpt>
      <trkpt lat="10.280984" lon="-67.941975">
        <ele>482.20</ele>
        <time>2022-10-26T09:59:12Z</time>
      </trkpt>
      <trkpt lat="10.281004" lon="-67.941878">
        <ele>482.20</ele>
        <time>2022-10-26T09:59:13Z</time>
      </trkpt>
      <trkpt lat="10.281040" lon="-67.941733">
        <ele>482.10</ele>
        <time>2022-10-26T09:59:14Z</time>
      </trkpt>
      <trkpt lat="10.281053" lon="-67.941684">
        <ele>482.10</ele>
        <time>2022-10-26T09:59:15Z</time>
      </trkpt>
      <trkpt lat="10.281077" lon="-67.941590">
        <ele>482.10</ele>
        <time>2022-10-26T09:59:16Z</time>
      </trkpt>
      <trkpt lat="10.281098" lon="-67.941496">
        <ele>482.20</ele>
        <time>2022-10-26T09:59:17Z</time>
      </trkpt>
      <trkpt lat="10.281115" lon="-67.941406">
        <ele>482.20</ele>
        <time>2022-10-26T09:59:18Z</time>
      </trkpt>
      <trkpt lat="10.281133" lon="-67.941318">
        <ele>482.30</ele>
        <time>2022-10-26T09:59:19Z</time>
      </trkpt>
      <trkpt lat="10.281151" lon="-67.941232">
        <ele>482.40</ele>
        <time>2022-10-26T09:59:20Z</time>
      </trkpt>
      <trkpt lat="10.281169" lon="-67.941146">
        <ele>482.50</ele>
        <time>2022-10-26T09:59:21Z</time>
      </trkpt>
      <trkpt lat="10.281188" lon="-67.941061">
        <ele>482.50</ele>
        <time>2022-10-26T09:59:22Z</time>
      </trkpt>
      <trkpt lat="10.281208" lon="-67.940978">
        <ele>482.60</ele>
        <time>2022-10-26T09:59:23Z</time>
      </trkpt>
      <trkpt lat="10.281226" lon="-67.940893">
        <ele>482.60</ele>
        <time>2022-10-26T09:59:24Z</time>
      </trkpt>
      <trkpt lat="10.281243" lon="-67.940807">
        <ele>482.70</ele>
        <time>2022-10-26T09:59:25Z</time>
      </trkpt>
      <trkpt lat="10.281259" lon="-67.940723">
        <ele>482.70</ele>
        <time>2022-10-26T09:59:26Z</time>
      </trkpt>
      <trkpt lat="10.281271" lon="-67.940640">
        <ele>482.80</ele>
        <time>2022-10-26T09:59:27Z</time>
      </trkpt>
      <trkpt lat="10.281287" lon="-67.940556">
        <ele>482.90</ele>
        <time>2022-10-26T09:59:28Z</time>
      </trkpt>
      <trkpt lat="10.281305" lon="-67.940474">
        <ele>482.90</ele>
        <time>2022-10-26T09:59:29Z</time>
      </trkpt>
      <trkpt lat="10.281322" lon="-67.940392">
        <ele>483.00</ele>
        <time>2022-10-26T09:59:30Z</time>
      </trkpt>
      <trkpt lat="10.281338" lon="-67.940314">
        <ele>483.10</ele>
        <time>2022-10-26T09:59:31Z</time>
      </trkpt>
      <trkpt lat="10.281355" lon="-67.940237">
        <ele>483.20</ele>
        <time>2022-10-26T09:59:32Z</time>
      </trkpt>
      <trkpt lat="10.281369" lon="-67.940161">
        <ele>483.20</ele>
        <time>2022-10-26T09:59:33Z</time>
      </trkpt>
      <trkpt lat="10.281386" lon="-67.940088">
        <ele>483.30</ele>
        <time>2022-10-26T09:59:34Z</time>
      </trkpt>
      <trkpt lat="10.281405" lon="-67.940016">
        <ele>483.40</ele>
        <time>2022-10-26T09:59:35Z</time>
      </trkpt>
      <trkpt lat="10.281426" lon="-67.939947">
        <ele>483.40</ele>
        <time>2022-10-26T09:59:36Z</time>
      </trkpt>
      <trkpt lat="10.281447" lon="-67.939874">
        <ele>483.50</ele>
        <time>2022-10-26T09:59:37Z</time>
      </trkpt>
      <trkpt lat="10.281465" lon="-67.939801">
        <ele>483.60</ele>
        <time>2022-10-26T09:59:38Z</time>
      </trkpt>
      <trkpt lat="10.281484" lon="-67.939729">
        <ele>483.60</ele>
        <time>2022-10-26T09:59:39Z</time>
      </trkpt>
      <trkpt lat="10.281503" lon="-67.939653">
        <ele>483.70</ele>
        <time>2022-10-26T09:59:40Z</time>
      </trkpt>
      <trkpt lat="10.281520" lon="-67.939578">
        <ele>483.80</ele>
        <time>2022-10-26T09:59:41Z</time>
      </trkpt>
      <trkpt lat="10.281537" lon="-67.939503">
        <ele>483.80</ele>
        <time>2022-10-26T09:59:42Z</time>
      </trkpt>
      <trkpt lat="10.281552" lon="-67.939430">
        <ele>483.90</ele>
        <time>2022-10-26T09:59:43Z</time>
      </trkpt>
      <trkpt lat="10.281566" lon="-67.939357">
        <ele>483.90</ele>
        <time>2022-10-26T09:59:44Z</time>
      </trkpt>
      <trkpt lat="10.281579" lon="-67.939285">
        <ele>483.90</ele>
        <time>2022-10-26T09:59:45Z</time>
      </trkpt>
      <trkpt lat="10.281594" lon="-67.939212">
        <ele>484.00</ele>
        <time>2022-10-26T09:59:46Z</time>
      </trkpt>
      <trkpt lat="10.281610" lon="-67.939142">
        <ele>484.00</ele>
        <time>2022-10-26T09:59:47Z</time>
      </trkpt>
      <trkpt lat="10.281626" lon="-67.939079">
        <ele>484.10</ele>
        <time>2022-10-26T09:59:48Z</time>
      </trkpt>
      <trkpt lat="10.281642" lon="-67.939012">
        <ele>484.10</ele>
        <time>2022-10-26T09:59:49Z</time>
      </trkpt>
      <trkpt lat="10.281643" lon="-67.938945">
        <ele>484.10</ele>
        <time>2022-10-26T09:59:50Z</time>
      </trkpt>
      <trkpt lat="10.281648" lon="-67.938876">
        <ele>484.10</ele>
        <time>2022-10-26T09:59:51Z</time>
      </trkpt>
      <trkpt lat="10.281659" lon="-67.938807">
        <ele>484.20</ele>
        <time>2022-10-26T09:59:52Z</time>
      </trkpt>
      <trkpt lat="10.281671" lon="-67.938734">
        <ele>484.20</ele>
        <time>2022-10-26T09:59:53Z</time>
      </trkpt>
      <trkpt lat="10.281683" lon="-67.938663">
        <ele>484.20</ele>
        <time>2022-10-26T09:59:54Z</time>
      </trkpt>
      <trkpt lat="10.281697" lon="-67.938593">
        <ele>484.30</ele>
        <time>2022-10-26T09:59:55Z</time>
      </trkpt>
      <trkpt lat="10.281712" lon="-67.938525">
        <ele>484.30</ele>
        <time>2022-10-26T09:59:56Z</time>
      </trkpt>
      <trkpt lat="10.281727" lon="-67.938459">
        <ele>484.40</ele>
        <time>2022-10-26T09:59:57Z</time>
      </trkpt>
      <trkpt lat="10.281741" lon="-67.938395">
        <ele>484.40</ele>
        <time>2022-10-26T09:59:58Z</time>
      </trkpt>
      <trkpt lat="10.281754" lon="-67.938329">
        <ele>484.50</ele>
        <time>2022-10-26T09:59:59Z</time>
      </trkpt>
      <trkpt lat="10.281767" lon="-67.938264">
        <ele>484.60</ele>
        <time>2022-10-26T10:00:00Z</time>
      </trkpt>
      <trkpt lat="10.281779" lon="-67.938199">
        <ele>484.70</ele>
        <time>2022-10-26T10:00:01Z</time>
      </trkpt>
      <trkpt lat="10.281792" lon="-67.938135">
        <ele>484.80</ele>
        <time>2022-10-26T10:00:02Z</time>
      </trkpt>
      <trkpt lat="10.281806" lon="-67.938073">
        <ele>484.90</ele>
        <time>2022-10-26T10:00:03Z</time>
      </trkpt>
      <trkpt lat="10.281819" lon="-67.938011">
        <ele>485.00</ele>
        <time>2022-10-26T10:00:04Z</time>
      </trkpt>
      <trkpt lat="10.281831" lon="-67.937952">
        <ele>485.20</ele>
        <time>2022-10-26T10:00:05Z</time>
      </trkpt>
      <trkpt lat="10.281843" lon="-67.937898">
        <ele>485.30</ele>
        <time>2022-10-26T10:00:06Z</time>
      </trkpt>
      <trkpt lat="10.281857" lon="-67.937842">
        <ele>485.40</ele>
        <time>2022-10-26T10:00:07Z</time>
      </trkpt>
      <trkpt lat="10.281870" lon="-67.937786">
        <ele>485.50</ele>
        <time>2022-10-26T10:00:08Z</time>
      </trkpt>
      <trkpt lat="10.281882" lon="-67.937728">
        <ele>485.70</ele>
        <time>2022-10-26T10:00:09Z</time>
      </trkpt>
      <trkpt lat="10.281893" lon="-67.937669">
        <ele>485.80</ele>
        <time>2022-10-26T10:00:10Z</time>
      </trkpt>
      <trkpt lat="10.281905" lon="-67.937615">
        <ele>485.90</ele>
        <time>2022-10-26T10:00:11Z</time>
      </trkpt>
      <trkpt lat="10.281917" lon="-67.937561">
        <ele>486.00</ele>
        <time>2022-10-26T10:00:12Z</time>
      </trkpt>
      <trkpt lat="10.281929" lon="-67.937506">
        <ele>486.20</ele>
        <time>2022-10-26T10:00:13Z</time>
      </trkpt>
      <trkpt lat="10.281939" lon="-67.937449">
        <ele>486.30</ele>
        <time>2022-10-26T10:00:14Z</time>
      </trkpt>
      <trkpt lat="10.281948" lon="-67.937391">
        <ele>486.50</ele>
        <time>2022-10-26T10:00:15Z</time>
      </trkpt>
      <trkpt lat="10.281958" lon="-67.937335">
        <ele>486.60</ele>
        <time>2022-10-26T10:00:16Z</time>
      </trkpt>
      <trkpt lat="10.281964" lon="-67.937284">
        <ele>486.80</ele>
        <time>2022-10-26T10:00:17Z</time>
      </trkpt>
      <trkpt lat="10.281965" lon="-67.937234">
        <ele>486.90</ele>
        <time>2022-10-26T10:00:18Z</time>
      </trkpt>
      <trkpt lat="10.281970" lon="-67.937184">
        <ele>487.10</ele>
        <time>2022-10-26T10:00:19Z</time>
      </trkpt>
      <trkpt lat="10.281980" lon="-67.937133">
        <ele>487.20</ele>
        <time>2022-10-26T10:00:20Z</time>
      </trkpt>
      <trkpt lat="10.281987" lon="-67.937081">
        <ele>487.40</ele>
        <time>2022-10-26T10:00:21Z</time>
      </trkpt>
      <trkpt lat="10.281998" lon="-67.937026">
        <ele>487.50</ele>
        <time>2022-10-26T10:00:22Z</time>
      </trkpt>
      <trkpt lat="10.282008" lon="-67.936975">
        <ele>487.70</ele>
        <time>2022-10-26T10:00:23Z</time>
      </trkpt>
      <trkpt lat="10.282018" lon="-67.936922">
        <ele>487.90</ele>
        <time>2022-10-26T10:00:24Z</time>
      </trkpt>
      <trkpt lat="10.282030" lon="-67.936871">
        <ele>488.10</ele>
        <time>2022-10-26T10:00:25Z</time>
      </trkpt>
      <trkpt lat="10.282042" lon="-67.936823">
        <ele>488.30</ele>
        <time>2022-10-26T10:00:26Z</time>
      </trkpt>
      <trkpt lat="10.282056" lon="-67.936776">
        <ele>488.40</ele>
        <time>2022-10-26T10:00:27Z</time>
      </trkpt>
      <trkpt lat="10.282071" lon="-67.936732">
        <ele>488.60</ele>
        <time>2022-10-26T10:00:28Z</time>
      </trkpt>
      <trkpt lat="10.282084" lon="-67.936686">
        <ele>488.70</ele>
        <time>2022-10-26T10:00:29Z</time>
      </trkpt>
      <trkpt lat="10.282095" lon="-67.936642">
        <ele>488.90</ele>
        <time>2022-10-26T10:00:30Z</time>
      </trkpt>
      <trkpt lat="10.282106" lon="-67.936598">
        <ele>489.00</ele>
        <time>2022-10-26T10:00:31Z</time>
      </trkpt>
      <trkpt lat="10.282115" lon="-67.936555">
        <ele>489.20</ele>
        <time>2022-10-26T10:00:32Z</time>
      </trkpt>
      <trkpt lat="10.282122" lon="-67.936512">
        <ele>489.30</ele>
        <time>2022-10-26T10:00:33Z</time>
      </trkpt>
      <trkpt lat="10.282128" lon="-67.936470">
        <ele>489.50</ele>
        <time>2022-10-26T10:00:34Z</time>
      </trkpt>
      <trkpt lat="10.282135" lon="-67.936425">
        <ele>489.60</ele>
        <time>2022-10-26T10:00:35Z</time>
      </trkpt>
      <trkpt lat="10.282143" lon="-67.936382">
        <ele>489.80</ele>
        <time>2022-10-26T10:00:36Z</time>
      </trkpt>
      <trkpt lat="10.282151" lon="-67.936342">
        <ele>489.90</ele>
        <time>2022-10-26T10:00:37Z</time>
      </trkpt>
      <trkpt lat="10.282162" lon="-67.936304">
        <ele>490.00</ele>
        <time>2022-10-26T10:00:38Z</time>
      </trkpt>
      <trkpt lat="10.282173" lon="-67.936264">
        <ele>490.10</ele>
        <time>2022-10-26T10:00:39Z</time>
      </trkpt>
      <trkpt lat="10.282181" lon="-67.936226">
        <ele>490.20</ele>
        <time>2022-10-26T10:00:40Z</time>
      </trkpt>
      <trkpt lat="10.282187" lon="-67.936189">
        <ele>490.30</ele>
        <time>2022-10-26T10:00:41Z</time>
      </trkpt>
      <trkpt lat="10.282192" lon="-67.936152">
        <ele>490.40</ele>
        <time>2022-10-26T10:00:42Z</time>
      </trkpt>
      <trkpt lat="10.282200" lon="-67.936110">
        <ele>490.50</ele>
        <time>2022-10-26T10:00:43Z</time>
      </trkpt>
      <trkpt lat="10.282208" lon="-67.936066">
        <ele>490.60</ele>
        <time>2022-10-26T10:00:44Z</time>
      </trkpt>
      <trkpt lat="10.282214" lon="-67.936022">
        <ele>490.70</ele>
        <time>2022-10-26T10:00:45Z</time>
      </trkpt>
      <trkpt lat="10.282220" lon="-67.935979">
        <ele>490.80</ele>
        <time>2022-10-26T10:00:46Z</time>
      </trkpt>
      <trkpt lat="10.282227" lon="-67.935938">
        <ele>490.90</ele>
        <time>2022-10-26T10:00:47Z</time>
      </trkpt>
      <trkpt lat="10.282232" lon="-67.935897">
        <ele>491.00</ele>
        <time>2022-10-26T10:00:48Z</time>
      </trkpt>
      <trkpt lat="10.282236" lon="-67.935853">
        <ele>491.10</ele>
        <time>2022-10-26T10:00:49Z</time>
      </trkpt>
      <trkpt lat="10.282240" lon="-67.935808">
        <ele>491.10</ele>
        <time>2022-10-26T10:00:50Z</time>
      </trkpt>
      <trkpt lat="10.282247" lon="-67.935767">
        <ele>491.20</ele>
        <time>2022-10-26T10:00:51Z</time>
      </trkpt>
      <trkpt lat="10.282252" lon="-67.935725">
        <ele>491.20</ele>
        <time>2022-10-26T10:00:52Z</time>
      </trkpt>
      <trkpt lat="10.282259" lon="-67.935684">
        <ele>491.30</ele>
        <time>2022-10-26T10:00:53Z</time>
      </trkpt>
      <trkpt lat="10.282266" lon="-67.935640">
        <ele>491.40</ele>
        <time>2022-10-26T10:00:54Z</time>
      </trkpt>
      <trkpt lat="10.282273" lon="-67.935597">
        <ele>491.40</ele>
        <time>2022-10-26T10:00:55Z</time>
      </trkpt>
      <trkpt lat="10.282281" lon="-67.935557">
        <ele>491.50</ele>
        <time>2022-10-26T10:00:56Z</time>
      </trkpt>
      <trkpt lat="10.282293" lon="-67.935523">
        <ele>491.60</ele>
        <time>2022-10-26T10:00:57Z</time>
      </trkpt>
      <trkpt lat="10.282305" lon="-67.935488">
        <ele>491.60</ele>
        <time>2022-10-26T10:00:58Z</time>
      </trkpt>
      <trkpt lat="10.282313" lon="-67.935451">
        <ele>491.70</ele>
        <time>2022-10-26T10:00:59Z</time>
      </trkpt>
      <trkpt lat="10.282318" lon="-67.935414">
        <ele>491.70</ele>
        <time>2022-10-26T10:01:00Z</time>
      </trkpt>
      <trkpt lat="10.282318" lon="-67.935368">
        <ele>491.80</ele>
        <time>2022-10-26T10:01:01Z</time>
      </trkpt>
      <trkpt lat="10.282320" lon="-67.935321">
        <ele>491.80</ele>
        <time>2022-10-26T10:01:02Z</time>
      </trkpt>
      <trkpt lat="10.282325" lon="-67.935271">
        <ele>491.80</ele>
        <time>2022-10-26T10:01:03Z</time>
      </trkpt>
      <trkpt lat="10.282331" lon="-67.935216">
        <ele>491.80</ele>
        <time>2022-10-26T10:01:04Z</time>
      </trkpt>
      <trkpt lat="10.282338" lon="-67.935160">
        <ele>491.80</ele>
        <time>2022-10-26T10:01:05Z</time>
      </trkpt>
      <trkpt lat="10.282346" lon="-67.935103">
        <ele>491.80</ele>
        <time>2022-10-26T10:01:06Z</time>
      </trkpt>
      <trkpt lat="10.282353" lon="-67.935050">
        <ele>491.80</ele>
        <time>2022-10-26T10:01:07Z</time>
      </trkpt>
      <trkpt lat="10.282359" lon="-67.934995">
        <ele>491.90</ele>
        <time>2022-10-26T10:01:08Z</time>
      </trkpt>
      <trkpt lat="10.282364" lon="-67.934943">
        <ele>491.90</ele>
        <time>2022-10-26T10:01:09Z</time>
      </trkpt>
      <trkpt lat="10.282371" lon="-67.934895">
        <ele>491.90</ele>
        <time>2022-10-26T10:01:10Z</time>
      </trkpt>
      <trkpt lat="10.282377" lon="-67.934844">
        <ele>491.90</ele>
        <time>2022-10-26T10:01:11Z</time>
      </trkpt>
      <trkpt lat="10.282383" lon="-67.934788">
        <ele>492.00</ele>
        <time>2022-10-26T10:01:12Z</time>
      </trkpt>
      <trkpt lat="10.282388" lon="-67.934729">
        <ele>492.00</ele>
        <time>2022-10-26T10:01:13Z</time>
      </trkpt>
      <trkpt lat="10.282391" lon="-67.934670">
        <ele>492.10</ele>
        <time>2022-10-26T10:01:14Z</time>
      </trkpt>
      <trkpt lat="10.282396" lon="-67.934613">
        <ele>492.10</ele>
        <time>2022-10-26T10:01:15Z</time>
      </trkpt>
      <trkpt lat="10.282400" lon="-67.934557">
        <ele>492.20</ele>
        <time>2022-10-26T10:01:16Z</time>
      </trkpt>
      <trkpt lat="10.282408" lon="-67.934502">
        <ele>492.20</ele>
        <time>2022-10-26T10:01:17Z</time>
      </trkpt>
      <trkpt lat="10.282418" lon="-67.934451">
        <ele>492.30</ele>
        <time>2022-10-26T10:01:18Z</time>
      </trkpt>
      <trkpt lat="10.282424" lon="-67.934399">
        <ele>492.40</ele>
        <time>2022-10-26T10:01:19Z</time>
      </trkpt>
      <trkpt lat="10.282425" lon="-67.934351">
        <ele>492.40</ele>
        <time>2022-10-26T10:01:20Z</time>
      </trkpt>
      <trkpt lat="10.282423" lon="-67.934304">
        <ele>492.40</ele>
        <time>2022-10-26T10:01:21Z</time>
      </trkpt>
      <trkpt lat="10.282420" lon="-67.934259">
        <ele>492.50</ele>
        <time>2022-10-26T10:01:22Z</time>
      </trkpt>
      <trkpt lat="10.282417" lon="-67.934212">
        <ele>492.50</ele>
        <time>2022-10-26T10:01:23Z</time>
      </trkpt>
      <trkpt lat="10.282416" lon="-67.934166">
        <ele>492.60</ele>
        <time>2022-10-26T10:01:24Z</time>
      </trkpt>
      <trkpt lat="10.282415" lon="-67.934121">
        <ele>492.60</ele>
        <time>2022-10-26T10:01:25Z</time>
      </trkpt>
      <trkpt lat="10.282416" lon="-67.934074">
        <ele>492.70</ele>
        <time>2022-10-26T10:01:26Z</time>
      </trkpt>
      <trkpt lat="10.282417" lon="-67.934026">
        <ele>492.80</ele>
        <time>2022-10-26T10:01:27Z</time>
      </trkpt>
      <trkpt lat="10.282417" lon="-67.933980">
        <ele>492.80</ele>
        <time>2022-10-26T10:01:28Z</time>
      </trkpt>
      <trkpt lat="10.282414" lon="-67.933935">
        <ele>492.90</ele>
        <time>2022-10-26T10:01:29Z</time>
      </trkpt>
      <trkpt lat="10.282408" lon="-67.933890">
        <ele>493.00</ele>
        <time>2022-10-26T10:01:30Z</time>
      </trkpt>
      <trkpt lat="10.282400" lon="-67.933846">
        <ele>493.00</ele>
        <time>2022-10-26T10:01:31Z</time>
      </trkpt>
      <trkpt lat="10.282394" lon="-67.933798">
        <ele>493.10</ele>
        <time>2022-10-26T10:01:32Z</time>
      </trkpt>
      <trkpt lat="10.282388" lon="-67.933750">
        <ele>493.20</ele>
        <time>2022-10-26T10:01:33Z</time>
      </trkpt>
      <trkpt lat="10.282380" lon="-67.933701">
        <ele>493.30</ele>
        <time>2022-10-26T10:01:34Z</time>
      </trkpt>
      <trkpt lat="10.282376" lon="-67.933649">
        <ele>493.40</ele>
        <time>2022-10-26T10:01:35Z</time>
      </trkpt>
      <trkpt lat="10.282372" lon="-67.933596">
        <ele>493.50</ele>
        <time>2022-10-26T10:01:36Z</time>
      </trkpt>
      <trkpt lat="10.282368" lon="-67.933544">
        <ele>493.60</ele>
        <time>2022-10-26T10:01:37Z</time>
      </trkpt>
      <trkpt lat="10.282364" lon="-67.933491">
        <ele>493.70</ele>
        <time>2022-10-26T10:01:38Z</time>
      </trkpt>
      <trkpt lat="10.282360" lon="-67.933439">
        <ele>493.80</ele>
        <time>2022-10-26T10:01:39Z</time>
      </trkpt>
      <trkpt lat="10.282353" lon="-67.933390">
        <ele>493.90</ele>
        <time>2022-10-26T10:01:40Z</time>
      </trkpt>
      <trkpt lat="10.282347" lon="-67.933345">
        <ele>494.10</ele>
        <time>2022-10-26T10:01:41Z</time>
      </trkpt>
      <trkpt lat="10.282340" lon="-67.933302">
        <ele>494.20</ele>
        <time>2022-10-26T10:01:42Z</time>
      </trkpt>
      <trkpt lat="10.282332" lon="-67.933259">
        <ele>494.30</ele>
        <time>2022-10-26T10:01:43Z</time>
      </trkpt>
      <trkpt lat="10.282328" lon="-67.933217">
        <ele>494.40</ele>
        <time>2022-10-26T10:01:44Z</time>
      </trkpt>
      <trkpt lat="10.282327" lon="-67.933175">
        <ele>494.50</ele>
        <time>2022-10-26T10:01:45Z</time>
      </trkpt>
      <trkpt lat="10.282325" lon="-67.933135">
        <ele>494.60</ele>
        <time>2022-10-26T10:01:46Z</time>
      </trkpt>
      <trkpt lat="10.282321" lon="-67.933094">
        <ele>494.70</ele>
        <time>2022-10-26T10:01:47Z</time>
      </trkpt>
      <trkpt lat="10.282316" lon="-67.933054">
        <ele>494.80</ele>
        <time>2022-10-26T10:01:48Z</time>
      </trkpt>
      <trkpt lat="10.282309" lon="-67.933011">
        <ele>494.90</ele>
        <time>2022-10-26T10:01:49Z</time>
      </trkpt>
      <trkpt lat="10.282304" lon="-67.932964">
        <ele>495.00</ele>
        <time>2022-10-26T10:01:50Z</time>
      </trkpt>
      <trkpt lat="10.282300" lon="-67.932919">
        <ele>495.10</ele>
        <time>2022-10-26T10:01:51Z</time>
      </trkpt>
      <trkpt lat="10.282298" lon="-67.932876">
        <ele>495.20</ele>
        <time>2022-10-26T10:01:52Z</time>
      </trkpt>
      <trkpt lat="10.282296" lon="-67.932832">
        <ele>495.40</ele>
        <time>2022-10-26T10:01:53Z</time>
      </trkpt>
      <trkpt lat="10.282292" lon="-67.932786">
        <ele>495.50</ele>
        <time>2022-10-26T10:01:54Z</time>
      </trkpt>
      <trkpt lat="10.282287" lon="-67.932736">
        <ele>495.60</ele>
        <time>2022-10-26T10:01:55Z</time>
      </trkpt>
      <trkpt lat="10.282280" lon="-67.932686">
        <ele>495.70</ele>
        <time>2022-10-26T10:01:56Z</time>
      </trkpt>
      <trkpt lat="10.282268" lon="-67.932635">
        <ele>495.90</ele>
        <time>2022-10-26T10:01:57Z</time>
      </trkpt>
      <trkpt lat="10.282255" lon="-67.932583">
        <ele>496.00</ele>
        <time>2022-10-26T10:01:58Z</time>
      </trkpt>
      <trkpt lat="10.282243" lon="-67.932528">
        <ele>496.20</ele>
        <time>2022-10-26T10:01:59Z</time>
      </trkpt>
      <trkpt lat="10.282233" lon="-67.932473">
        <ele>496.30</ele>
        <time>2022-10-26T10:02:00Z</time>
      </trkpt>
      <trkpt lat="10.282226" lon="-67.932419">
        <ele>496.50</ele>
        <time>2022-10-26T10:02:01Z</time>
      </trkpt>
      <trkpt lat="10.282220" lon="-67.932367">
        <ele>496.60</ele>
        <time>2022-10-26T10:02:02Z</time>
      </trkpt>
      <trkpt lat="10.282215" lon="-67.932321">
        <ele>496.70</ele>
        <time>2022-10-26T10:02:03Z</time>
      </trkpt>
      <trkpt lat="10.282215" lon="-67.932269">
        <ele>496.90</ele>
        <time>2022-10-26T10:02:04Z</time>
      </trkpt>
      <trkpt lat="10.282217" lon="-67.932214">
        <ele>497.00</ele>
        <time>2022-10-26T10:02:05Z</time>
      </trkpt>
      <trkpt lat="10.282217" lon="-67.932163">
        <ele>497.20</ele>
        <time>2022-10-26T10:02:06Z</time>
      </trkpt>
      <trkpt lat="10.282212" lon="-67.932112">
        <ele>497.30</ele>
        <time>2022-10-26T10:02:07Z</time>
      </trkpt>
      <trkpt lat="10.282206" lon="-67.932063">
        <ele>497.40</ele>
        <time>2022-10-26T10:02:08Z</time>
      </trkpt>
      <trkpt lat="10.282199" lon="-67.932016">
        <ele>497.50</ele>
        <time>2022-10-26T10:02:09Z</time>
      </trkpt>
      <trkpt lat="10.282189" lon="-67.931969">
        <ele>497.60</ele>
        <time>2022-10-26T10:02:10Z</time>
      </trkpt>
      <trkpt lat="10.282178" lon="-67.931921">
        <ele>497.80</ele>
        <time>2022-10-26T10:02:11Z</time>
      </trkpt>
      <trkpt lat="10.282165" lon="-67.931871">
        <ele>497.90</ele>
        <time>2022-10-26T10:02:12Z</time>
      </trkpt>
      <trkpt lat="10.282152" lon="-67.931822">
        <ele>498.00</ele>
        <time>2022-10-26T10:02:13Z</time>
      </trkpt>
      <trkpt lat="10.282139" lon="-67.931776">
        <ele>498.10</ele>
        <time>2022-10-26T10:02:14Z</time>
      </trkpt>
      <trkpt lat="10.282125" lon="-67.931732">
        <ele>498.20</ele>
        <time>2022-10-26T10:02:15Z</time>
      </trkpt>
      <trkpt lat="10.282112" lon="-67.931687">
        <ele>498.30</ele>
        <time>2022-10-26T10:02:16Z</time>
      </trkpt>
      <trkpt lat="10.282100" lon="-67.931642">
        <ele>498.40</ele>
        <time>2022-10-26T10:02:17Z</time>
      </trkpt>
      <trkpt lat="10.282076" lon="-67.931596">
        <ele>498.50</ele>
        <time>2022-10-26T10:02:18Z</time>
      </trkpt>
      <trkpt lat="10.282056" lon="-67.931548">
        <ele>498.60</ele>
        <time>2022-10-26T10:02:19Z</time>
      </trkpt>
      <trkpt lat="10.282038" lon="-67.931495">
        <ele>498.70</ele>
        <time>2022-10-26T10:02:20Z</time>
      </trkpt>
      <trkpt lat="10.282019" lon="-67.931438">
        <ele>498.80</ele>
        <time>2022-10-26T10:02:21Z</time>
      </trkpt>
      <trkpt lat="10.281999" lon="-67.931379">
        <ele>498.90</ele>
        <time>2022-10-26T10:02:22Z</time>
      </trkpt>
      <trkpt lat="10.281981" lon="-67.931318">
        <ele>499.00</ele>
        <time>2022-10-26T10:02:23Z</time>
      </trkpt>
      <trkpt lat="10.281963" lon="-67.931261">
        <ele>499.10</ele>
        <time>2022-10-26T10:02:24Z</time>
      </trkpt>
      <trkpt lat="10.281945" lon="-67.931205">
        <ele>499.20</ele>
        <time>2022-10-26T10:02:25Z</time>
      </trkpt>
      <trkpt lat="10.281926" lon="-67.931148">
        <ele>499.30</ele>
        <time>2022-10-26T10:02:26Z</time>
      </trkpt>
      <trkpt lat="10.281905" lon="-67.931091">
        <ele>499.30</ele>
        <time>2022-10-26T10:02:27Z</time>
      </trkpt>
      <trkpt lat="10.281880" lon="-67.931037">
        <ele>499.40</ele>
        <time>2022-10-26T10:02:28Z</time>
      </trkpt>
      <trkpt lat="10.281858" lon="-67.930983">
        <ele>499.40</ele>
        <time>2022-10-26T10:02:29Z</time>
      </trkpt>
      <trkpt lat="10.281837" lon="-67.930931">
        <ele>499.40</ele>
        <time>2022-10-26T10:02:30Z</time>
      </trkpt>
      <trkpt lat="10.281817" lon="-67.930882">
        <ele>499.50</ele>
        <time>2022-10-26T10:02:31Z</time>
      </trkpt>
      <trkpt lat="10.281798" lon="-67.930833">
        <ele>499.50</ele>
        <time>2022-10-26T10:02:32Z</time>
      </trkpt>
      <trkpt lat="10.281783" lon="-67.930786">
        <ele>499.50</ele>
        <time>2022-10-26T10:02:33Z</time>
      </trkpt>
      <trkpt lat="10.281770" lon="-67.930738">
        <ele>499.50</ele>
        <time>2022-10-26T10:02:34Z</time>
      </trkpt>
      <trkpt lat="10.281756" lon="-67.930690">
        <ele>499.60</ele>
        <time>2022-10-26T10:02:35Z</time>
      </trkpt>
      <trkpt lat="10.281740" lon="-67.930639">
        <ele>499.60</ele>
        <time>2022-10-26T10:02:36Z</time>
      </trkpt>
      <trkpt lat="10.281726" lon="-67.930592">
        <ele>499.60</ele>
        <time>2022-10-26T10:02:37Z</time>
      </trkpt>
      <trkpt lat="10.281711" lon="-67.930542">
        <ele>499.70</ele>
        <time>2022-10-26T10:02:38Z</time>
      </trkpt>
      <trkpt lat="10.281699" lon="-67.930491">
        <ele>499.70</ele>
        <time>2022-10-26T10:02:39Z</time>
      </trkpt>
      <trkpt lat="10.281687" lon="-67.930438">
        <ele>499.80</ele>
        <time>2022-10-26T10:02:40Z</time>
      </trkpt>
      <trkpt lat="10.281678" lon="-67.930385">
        <ele>499.80</ele>
        <time>2022-10-26T10:02:41Z</time>
      </trkpt>
      <trkpt lat="10.281669" lon="-67.930327">
        <ele>499.80</ele>
        <time>2022-10-26T10:02:42Z</time>
      </trkpt>
      <trkpt lat="10.281656" lon="-67.930264">
        <ele>499.90</ele>
        <time>2022-10-26T10:02:43Z</time>
      </trkpt>
      <trkpt lat="10.281645" lon="-67.930206">
        <ele>499.90</ele>
        <time>2022-10-26T10:02:44Z</time>
      </trkpt>
      <trkpt lat="10.281635" lon="-67.930148">
        <ele>500.00</ele>
        <time>2022-10-26T10:02:45Z</time>
      </trkpt>
      <trkpt lat="10.281628" lon="-67.930088">
        <ele>500.00</ele>
        <time>2022-10-26T10:02:46Z</time>
      </trkpt>
      <trkpt lat="10.281618" lon="-67.930040">
        <ele>500.00</ele>
        <time>2022-10-26T10:02:47Z</time>
      </trkpt>
      <trkpt lat="10.281602" lon="-67.930005">
        <ele>500.00</ele>
        <time>2022-10-26T10:02:48Z</time>
      </trkpt>
      <trkpt lat="10.281598" lon="-67.929984">
        <ele>500.00</ele>
        <time>2022-10-26T10:02:49Z</time>
      </trkpt>
      <trkpt lat="10.281604" lon="-67.929961">
        <ele>500.00</ele>
        <time>2022-10-26T10:02:51Z</time>
      </trkpt>
      <trkpt lat="10.281611" lon="-67.929909">
        <ele>499.90</ele>
        <time>2022-10-26T10:02:52Z</time>
      </trkpt>
      <trkpt lat="10.281617" lon="-67.929847">
        <ele>499.90</ele>
        <time>2022-10-26T10:02:53Z</time>
      </trkpt>
      <trkpt lat="10.281616" lon="-67.929786">
        <ele>499.90</ele>
        <time>2022-10-26T10:02:54Z</time>
      </trkpt>
      <trkpt lat="10.281615" lon="-67.929730">
        <ele>499.90</ele>
        <time>2022-10-26T10:02:55Z</time>
      </trkpt>
      <trkpt lat="10.281661" lon="-67.929796">
        <ele>499.80</ele>
        <time>2022-10-26T10:03:00Z</time>
      </trkpt>
      <trkpt lat="10.281651" lon="-67.929827">
        <ele>499.80</ele>
        <time>2022-10-26T10:03:01Z</time>
      </trkpt>
      <trkpt lat="10.281597" lon="-67.929845">
        <ele>499.80</ele>
        <time>2022-10-26T10:03:02Z</time>
      </trkpt>
      <trkpt lat="10.281345" lon="-67.929424">
        <ele>499.00</ele>
        <time>2022-10-26T10:03:03Z</time>
      </trkpt>
      <trkpt lat="10.281310" lon="-67.929323">
        <ele>498.70</ele>
        <time>2022-10-26T10:03:04Z</time>
      </trkpt>
      <trkpt lat="10.281275" lon="-67.929221">
        <ele>498.50</ele>
        <time>2022-10-26T10:03:05Z</time>
      </trkpt>
      <trkpt lat="10.281251" lon="-67.929122">
        <ele>498.20</ele>
        <time>2022-10-26T10:03:06Z</time>
      </trkpt>
      <trkpt lat="10.281225" lon="-67.929047">
        <ele>498.00</ele>
        <time>2022-10-26T10:03:07Z</time>
      </trkpt>
      <trkpt lat="10.281207" lon="-67.928969">
        <ele>497.70</ele>
        <time>2022-10-26T10:03:08Z</time>
      </trkpt>
      <trkpt lat="10.281191" lon="-67.928892">
        <ele>497.50</ele>
        <time>2022-10-26T10:03:09Z</time>
      </trkpt>
      <trkpt lat="10.281166" lon="-67.928819">
        <ele>497.20</ele>
        <time>2022-10-26T10:03:10Z</time>
      </trkpt>
      <trkpt lat="10.281140" lon="-67.928748">
        <ele>496.90</ele>
        <time>2022-10-26T10:03:11Z</time>
      </trkpt>
      <trkpt lat="10.281115" lon="-67.928677">
        <ele>496.60</ele>
        <time>2022-10-26T10:03:12Z</time>
      </trkpt>
      <trkpt lat="10.281091" lon="-67.928603">
        <ele>496.30</ele>
        <time>2022-10-26T10:03:13Z</time>
      </trkpt>
      <trkpt lat="10.281068" lon="-67.928527">
        <ele>496.00</ele>
        <time>2022-10-26T10:03:14Z</time>
      </trkpt>
      <trkpt lat="10.281041" lon="-67.928445">
        <ele>495.60</ele>
        <time>2022-10-26T10:03:15Z</time>
      </trkpt>
      <trkpt lat="10.281012" lon="-67.928363">
        <ele>495.20</ele>
        <time>2022-10-26T10:03:16Z</time>
      </trkpt>
      <trkpt lat="10.280986" lon="-67.928275">
        <ele>494.90</ele>
        <time>2022-10-26T10:03:17Z</time>
      </trkpt>
      <trkpt lat="10.280959" lon="-67.928185">
        <ele>494.50</ele>
        <time>2022-10-26T10:03:18Z</time>
      </trkpt>
      <trkpt lat="10.280932" lon="-67.928099">
        <ele>494.10</ele>
        <time>2022-10-26T10:03:19Z</time>
      </trkpt>
      <trkpt lat="10.280902" lon="-67.928013">
        <ele>493.70</ele>
        <time>2022-10-26T10:03:20Z</time>
      </trkpt>
      <trkpt lat="10.280859" lon="-67.927934">
        <ele>493.30</ele>
        <time>2022-10-26T10:03:21Z</time>
      </trkpt>
      <trkpt lat="10.280821" lon="-67.927851">
        <ele>493.00</ele>
        <time>2022-10-26T10:03:22Z</time>
      </trkpt>
      <trkpt lat="10.280789" lon="-67.927761">
        <ele>492.60</ele>
        <time>2022-10-26T10:03:23Z</time>
      </trkpt>
      <trkpt lat="10.280757" lon="-67.927668">
        <ele>492.20</ele>
        <time>2022-10-26T10:03:24Z</time>
      </trkpt>
      <trkpt lat="10.280728" lon="-67.927574">
        <ele>491.80</ele>
        <time>2022-10-26T10:03:25Z</time>
      </trkpt>
      <trkpt lat="10.280698" lon="-67.927481">
        <ele>491.50</ele>
        <time>2022-10-26T10:03:26Z</time>
      </trkpt>
      <trkpt lat="10.280667" lon="-67.927387">
        <ele>491.10</ele>
        <time>2022-10-26T10:03:27Z</time>
      </trkpt>
      <trkpt lat="10.280635" lon="-67.927289">
        <ele>490.70</ele>
        <time>2022-10-26T10:03:28Z</time>
      </trkpt>
      <trkpt lat="10.280601" lon="-67.927185">
        <ele>490.40</ele>
        <time>2022-10-26T10:03:29Z</time>
      </trkpt>
      <trkpt lat="10.280565" lon="-67.927088">
        <ele>490.10</ele>
        <time>2022-10-26T10:03:30Z</time>
      </trkpt>
      <trkpt lat="10.280531" lon="-67.926996">
        <ele>489.80</ele>
        <time>2022-10-26T10:03:31Z</time>
      </trkpt>
      <trkpt lat="10.280500" lon="-67.926905">
        <ele>489.60</ele>
        <time>2022-10-26T10:03:32Z</time>
      </trkpt>
      <trkpt lat="10.280471" lon="-67.926814">
        <ele>489.40</ele>
        <time>2022-10-26T10:03:33Z</time>
      </trkpt>
      <trkpt lat="10.280442" lon="-67.926728">
        <ele>489.20</ele>
        <time>2022-10-26T10:03:34Z</time>
      </trkpt>
      <trkpt lat="10.280410" lon="-67.926642">
        <ele>489.00</ele>
        <time>2022-10-26T10:03:35Z</time>
      </trkpt>
      <trkpt lat="10.280379" lon="-67.926557">
        <ele>488.80</ele>
        <time>2022-10-26T10:03:36Z</time>
      </trkpt>
      <trkpt lat="10.280351" lon="-67.926471">
        <ele>488.70</ele>
        <time>2022-10-26T10:03:37Z</time>
      </trkpt>
      <trkpt lat="10.280326" lon="-67.926381">
        <ele>488.60</ele>
        <time>2022-10-26T10:03:38Z</time>
      </trkpt>
      <trkpt lat="10.280305" lon="-67.926289">
        <ele>488.40</ele>
        <time>2022-10-26T10:03:39Z</time>
      </trkpt>
      <trkpt lat="10.280285" lon="-67.926203">
        <ele>488.30</ele>
        <time>2022-10-26T10:03:40Z</time>
      </trkpt>
      <trkpt lat="10.280264" lon="-67.926119">
        <ele>488.20</ele>
        <time>2022-10-26T10:03:41Z</time>
      </trkpt>
      <trkpt lat="10.280238" lon="-67.926036">
        <ele>488.10</ele>
        <time>2022-10-26T10:03:42Z</time>
      </trkpt>
      <trkpt lat="10.280209" lon="-67.925957">
        <ele>488.10</ele>
        <time>2022-10-26T10:03:43Z</time>
      </trkpt>
      <trkpt lat="10.280181" lon="-67.925880">
        <ele>488.10</ele>
        <time>2022-10-26T10:03:44Z</time>
      </trkpt>
      <trkpt lat="10.280158" lon="-67.925802">
        <ele>488.10</ele>
        <time>2022-10-26T10:03:45Z</time>
      </trkpt>
      <trkpt lat="10.280135" lon="-67.925728">
        <ele>488.10</ele>
        <time>2022-10-26T10:03:46Z</time>
      </trkpt>
      <trkpt lat="10.280111" lon="-67.925651">
        <ele>488.10</ele>
        <time>2022-10-26T10:03:47Z</time>
      </trkpt>
      <trkpt lat="10.280087" lon="-67.925576">
        <ele>488.10</ele>
        <time>2022-10-26T10:03:48Z</time>
      </trkpt>
      <trkpt lat="10.280063" lon="-67.925502">
        <ele>488.20</ele>
        <time>2022-10-26T10:03:49Z</time>
      </trkpt>
      <trkpt lat="10.280039" lon="-67.925429">
        <ele>488.20</ele>
        <time>2022-10-26T10:03:50Z</time>
      </trkpt>
      <trkpt lat="10.280011" lon="-67.925356">
        <ele>488.20</ele>
        <time>2022-10-26T10:03:51Z</time>
      </trkpt>
      <trkpt lat="10.279981" lon="-67.925286">
        <ele>488.30</ele>
        <time>2022-10-26T10:03:52Z</time>
      </trkpt>
      <trkpt lat="10.279954" lon="-67.925218">
        <ele>488.30</ele>
        <time>2022-10-26T10:03:53Z</time>
      </trkpt>
      <trkpt lat="10.279924" lon="-67.925148">
        <ele>488.30</ele>
        <time>2022-10-26T10:03:54Z</time>
      </trkpt>
      <trkpt lat="10.279894" lon="-67.925077">
        <ele>488.30</ele>
        <time>2022-10-26T10:03:55Z</time>
      </trkpt>
      <trkpt lat="10.279867" lon="-67.925009">
        <ele>488.40</ele>
        <time>2022-10-26T10:03:56Z</time>
      </trkpt>
      <trkpt lat="10.279841" lon="-67.924941">
        <ele>488.40</ele>
        <time>2022-10-26T10:03:57Z</time>
      </trkpt>
      <trkpt lat="10.279813" lon="-67.924875">
        <ele>488.50</ele>
        <time>2022-10-26T10:03:58Z</time>
      </trkpt>
      <trkpt lat="10.279786" lon="-67.924817">
        <ele>488.50</ele>
        <time>2022-10-26T10:03:59Z</time>
      </trkpt>
      <trkpt lat="10.279760" lon="-67.924755">
        <ele>488.50</ele>
        <time>2022-10-26T10:04:00Z</time>
      </trkpt>
      <trkpt lat="10.279736" lon="-67.924694">
        <ele>488.60</ele>
        <time>2022-10-26T10:04:01Z</time>
      </trkpt>
      <trkpt lat="10.279712" lon="-67.924634">
        <ele>488.60</ele>
        <time>2022-10-26T10:04:02Z</time>
      </trkpt>
      <trkpt lat="10.279691" lon="-67.924573">
        <ele>488.70</ele>
        <time>2022-10-26T10:04:03Z</time>
      </trkpt>
      <trkpt lat="10.279674" lon="-67.924510">
        <ele>488.70</ele>
        <time>2022-10-26T10:04:04Z</time>
      </trkpt>
      <trkpt lat="10.279651" lon="-67.924455">
        <ele>488.80</ele>
        <time>2022-10-26T10:04:05Z</time>
      </trkpt>
      <trkpt lat="10.279625" lon="-67.924399">
        <ele>488.80</ele>
        <time>2022-10-26T10:04:06Z</time>
      </trkpt>
      <trkpt lat="10.279588" lon="-67.924344">
        <ele>488.90</ele>
        <time>2022-10-26T10:04:07Z</time>
      </trkpt>
      <trkpt lat="10.279550" lon="-67.924289">
        <ele>488.90</ele>
        <time>2022-10-26T10:04:08Z</time>
      </trkpt>
      <trkpt lat="10.279511" lon="-67.924232">
        <ele>488.90</ele>
        <time>2022-10-26T10:04:09Z</time>
      </trkpt>
      <trkpt lat="10.279478" lon="-67.924178">
        <ele>488.90</ele>
        <time>2022-10-26T10:04:10Z</time>
      </trkpt>
      <trkpt lat="10.279445" lon="-67.924126">
        <ele>488.90</ele>
        <time>2022-10-26T10:04:11Z</time>
      </trkpt>
      <trkpt lat="10.279410" lon="-67.924075">
        <ele>488.90</ele>
        <time>2022-10-26T10:04:12Z</time>
      </trkpt>
      <trkpt lat="10.279378" lon="-67.924032">
        <ele>488.90</ele>
        <time>2022-10-26T10:04:13Z</time>
      </trkpt>
      <trkpt lat="10.279347" lon="-67.923987">
        <ele>488.90</ele>
        <time>2022-10-26T10:04:14Z</time>
      </trkpt>
      <trkpt lat="10.279311" lon="-67.923945">
        <ele>488.90</ele>
        <time>2022-10-26T10:04:15Z</time>
      </trkpt>
      <trkpt lat="10.279278" lon="-67.923899">
        <ele>489.00</ele>
        <time>2022-10-26T10:04:16Z</time>
      </trkpt>
      <trkpt lat="10.279245" lon="-67.923853">
        <ele>489.00</ele>
        <time>2022-10-26T10:04:17Z</time>
      </trkpt>
      <trkpt lat="10.279210" lon="-67.923804">
        <ele>489.00</ele>
        <time>2022-10-26T10:04:18Z</time>
      </trkpt>
      <trkpt lat="10.279176" lon="-67.923755">
        <ele>488.90</ele>
        <time>2022-10-26T10:04:19Z</time>
      </trkpt>
      <trkpt lat="10.279142" lon="-67.923705">
        <ele>488.90</ele>
        <time>2022-10-26T10:04:20Z</time>
      </trkpt>
      <trkpt lat="10.279105" lon="-67.923654">
        <ele>488.90</ele>
        <time>2022-10-26T10:04:21Z</time>
      </trkpt>
      <trkpt lat="10.279067" lon="-67.923602">
        <ele>488.90</ele>
        <time>2022-10-26T10:04:22Z</time>
      </trkpt>
      <trkpt lat="10.279026" lon="-67.923547">
        <ele>488.80</ele>
        <time>2022-10-26T10:04:23Z</time>
      </trkpt>
      <trkpt lat="10.278986" lon="-67.923488">
        <ele>488.80</ele>
        <time>2022-10-26T10:04:24Z</time>
      </trkpt>
      <trkpt lat="10.278952" lon="-67.923433">
        <ele>488.70</ele>
        <time>2022-10-26T10:04:25Z</time>
      </trkpt>
      <trkpt lat="10.278914" lon="-67.923378">
        <ele>488.60</ele>
        <time>2022-10-26T10:04:26Z</time>
      </trkpt>
      <trkpt lat="10.278876" lon="-67.923325">
        <ele>488.40</ele>
        <time>2022-10-26T10:04:27Z</time>
      </trkpt>
      <trkpt lat="10.278836" lon="-67.923274">
        <ele>488.30</ele>
        <time>2022-10-26T10:04:28Z</time>
      </trkpt>
      <trkpt lat="10.278798" lon="-67.923223">
        <ele>488.20</ele>
        <time>2022-10-26T10:04:29Z</time>
      </trkpt>
      <trkpt lat="10.278759" lon="-67.923174">
        <ele>488.10</ele>
        <time>2022-10-26T10:04:30Z</time>
      </trkpt>
      <trkpt lat="10.278716" lon="-67.923121">
        <ele>488.00</ele>
        <time>2022-10-26T10:04:31Z</time>
      </trkpt>
      <trkpt lat="10.278668" lon="-67.923069">
        <ele>487.80</ele>
        <time>2022-10-26T10:04:32Z</time>
      </trkpt>
      <trkpt lat="10.278618" lon="-67.923014">
        <ele>487.70</ele>
        <time>2022-10-26T10:04:33Z</time>
      </trkpt>
      <trkpt lat="10.278566" lon="-67.922958">
        <ele>487.50</ele>
        <time>2022-10-26T10:04:34Z</time>
      </trkpt>
      <trkpt lat="10.278511" lon="-67.922903">
        <ele>487.40</ele>
        <time>2022-10-26T10:04:35Z</time>
      </trkpt>
      <trkpt lat="10.278454" lon="-67.922849">
        <ele>487.20</ele>
        <time>2022-10-26T10:04:36Z</time>
      </trkpt>
      <trkpt lat="10.278393" lon="-67.922792">
        <ele>487.00</ele>
        <time>2022-10-26T10:04:37Z</time>
      </trkpt>
      <trkpt lat="10.278332" lon="-67.922734">
        <ele>486.70</ele>
        <time>2022-10-26T10:04:38Z</time>
      </trkpt>
      <trkpt lat="10.278271" lon="-67.922675">
        <ele>486.50</ele>
        <time>2022-10-26T10:04:39Z</time>
      </trkpt>
      <trkpt lat="10.278214" lon="-67.922616">
        <ele>486.30</ele>
        <time>2022-10-26T10:04:40Z</time>
      </trkpt>
      <trkpt lat="10.278156" lon="-67.922557">
        <ele>486.00</ele>
        <time>2022-10-26T10:04:41Z</time>
      </trkpt>
      <trkpt lat="10.278096" lon="-67.922497">
        <ele>485.70</ele>
        <time>2022-10-26T10:04:42Z</time>
      </trkpt>
      <trkpt lat="10.278034" lon="-67.922440">
        <ele>485.40</ele>
        <time>2022-10-26T10:04:43Z</time>
      </trkpt>
      <trkpt lat="10.277968" lon="-67.922383">
        <ele>485.10</ele>
        <time>2022-10-26T10:04:44Z</time>
      </trkpt>
      <trkpt lat="10.277901" lon="-67.922325">
        <ele>484.70</ele>
        <time>2022-10-26T10:04:45Z</time>
      </trkpt>
      <trkpt lat="10.277833" lon="-67.922267">
        <ele>484.40</ele>
        <time>2022-10-26T10:04:46Z</time>
      </trkpt>
      <trkpt lat="10.277760" lon="-67.922209">
        <ele>484.00</ele>
        <time>2022-10-26T10:04:47Z</time>
      </trkpt>
      <trkpt lat="10.277689" lon="-67.922153">
        <ele>483.60</ele>
        <time>2022-10-26T10:04:48Z</time>
      </trkpt>
      <trkpt lat="10.277619" lon="-67.922099">
        <ele>483.30</ele>
        <time>2022-10-26T10:04:49Z</time>
      </trkpt>
      <trkpt lat="10.277542" lon="-67.922045">
        <ele>482.80</ele>
        <time>2022-10-26T10:04:50Z</time>
      </trkpt>
      <trkpt lat="10.277471" lon="-67.921990">
        <ele>482.40</ele>
        <time>2022-10-26T10:04:51Z</time>
      </trkpt>
      <trkpt lat="10.277403" lon="-67.921933">
        <ele>482.00</ele>
        <time>2022-10-26T10:04:52Z</time>
      </trkpt>
      <trkpt lat="10.277335" lon="-67.921875">
        <ele>481.60</ele>
        <time>2022-10-26T10:04:53Z</time>
      </trkpt>
      <trkpt lat="10.277265" lon="-67.921817">
        <ele>481.20</ele>
        <time>2022-10-26T10:04:54Z</time>
      </trkpt>
      <trkpt lat="10.277190" lon="-67.921761">
        <ele>480.80</ele>
        <time>2022-10-26T10:04:55Z</time>
      </trkpt>
      <trkpt lat="10.277113" lon="-67.921705">
        <ele>480.40</ele>
        <time>2022-10-26T10:04:56Z</time>
      </trkpt>
      <trkpt lat="10.277034" lon="-67.921648">
        <ele>480.00</ele>
        <time>2022-10-26T10:04:57Z</time>
      </trkpt>
      <trkpt lat="10.276952" lon="-67.921591">
        <ele>479.50</ele>
        <time>2022-10-26T10:04:58Z</time>
      </trkpt>
      <trkpt lat="10.276869" lon="-67.921537">
        <ele>479.00</ele>
        <time>2022-10-26T10:04:59Z</time>
      </trkpt>
      <trkpt lat="10.276785" lon="-67.921484">
        <ele>478.60</ele>
        <time>2022-10-26T10:05:00Z</time>
      </trkpt>
      <trkpt lat="10.276704" lon="-67.921429">
        <ele>478.20</ele>
        <time>2022-10-26T10:05:01Z</time>
      </trkpt>
      <trkpt lat="10.276624" lon="-67.921374">
        <ele>477.80</ele>
        <time>2022-10-26T10:05:02Z</time>
      </trkpt>
      <trkpt lat="10.276543" lon="-67.921320">
        <ele>477.30</ele>
        <time>2022-10-26T10:05:03Z</time>
      </trkpt>
      <trkpt lat="10.276460" lon="-67.921266">
        <ele>476.90</ele>
        <time>2022-10-26T10:05:04Z</time>
      </trkpt>
      <trkpt lat="10.276377" lon="-67.921210">
        <ele>476.40</ele>
        <time>2022-10-26T10:05:05Z</time>
      </trkpt>
      <trkpt lat="10.276297" lon="-67.921155">
        <ele>476.00</ele>
        <time>2022-10-26T10:05:06Z</time>
      </trkpt>
      <trkpt lat="10.276211" lon="-67.921101">
        <ele>475.60</ele>
        <time>2022-10-26T10:05:07Z</time>
      </trkpt>
      <trkpt lat="10.276128" lon="-67.921041">
        <ele>475.20</ele>
        <time>2022-10-26T10:05:08Z</time>
      </trkpt>
      <trkpt lat="10.276046" lon="-67.920979">
        <ele>474.80</ele>
        <time>2022-10-26T10:05:09Z</time>
      </trkpt>
      <trkpt lat="10.275966" lon="-67.920915">
        <ele>474.50</ele>
        <time>2022-10-26T10:05:10Z</time>
      </trkpt>
      <trkpt lat="10.275894" lon="-67.920853">
        <ele>474.20</ele>
        <time>2022-10-26T10:05:11Z</time>
      </trkpt>
      <trkpt lat="10.275812" lon="-67.920791">
        <ele>473.80</ele>
        <time>2022-10-26T10:05:12Z</time>
      </trkpt>
      <trkpt lat="10.275730" lon="-67.920731">
        <ele>473.50</ele>
        <time>2022-10-26T10:05:13Z</time>
      </trkpt>
      <trkpt lat="10.275650" lon="-67.920676">
        <ele>473.30</ele>
        <time>2022-10-26T10:05:14Z</time>
      </trkpt>
      <trkpt lat="10.275569" lon="-67.920618">
        <ele>473.10</ele>
        <time>2022-10-26T10:05:15Z</time>
      </trkpt>
      <trkpt lat="10.275491" lon="-67.920554">
        <ele>472.90</ele>
        <time>2022-10-26T10:05:16Z</time>
      </trkpt>
      <trkpt lat="10.275414" lon="-67.920490">
        <ele>472.70</ele>
        <time>2022-10-26T10:05:17Z</time>
      </trkpt>
      <trkpt lat="10.275348" lon="-67.920424">
        <ele>472.50</ele>
        <time>2022-10-26T10:05:18Z</time>
      </trkpt>
      <trkpt lat="10.275286" lon="-67.920354">
        <ele>472.40</ele>
        <time>2022-10-26T10:05:19Z</time>
      </trkpt>
      <trkpt lat="10.275223" lon="-67.920286">
        <ele>472.30</ele>
        <time>2022-10-26T10:05:20Z</time>
      </trkpt>
      <trkpt lat="10.275162" lon="-67.920221">
        <ele>472.30</ele>
        <time>2022-10-26T10:05:21Z</time>
      </trkpt>
      <trkpt lat="10.275102" lon="-67.920156">
        <ele>472.20</ele>
        <time>2022-10-26T10:05:22Z</time>
      </trkpt>
      <trkpt lat="10.275044" lon="-67.920093">
        <ele>472.20</ele>
        <time>2022-10-26T10:05:23Z</time>
      </trkpt>
      <trkpt lat="10.274988" lon="-67.920033">
        <ele>472.10</ele>
        <time>2022-10-26T10:05:24Z</time>
      </trkpt>
      <trkpt lat="10.274938" lon="-67.919979">
        <ele>472.10</ele>
        <time>2022-10-26T10:05:25Z</time>
      </trkpt>
      <trkpt lat="10.274889" lon="-67.919924">
        <ele>472.10</ele>
        <time>2022-10-26T10:05:26Z</time>
      </trkpt>
      <trkpt lat="10.274839" lon="-67.919865">
        <ele>472.10</ele>
        <time>2022-10-26T10:05:27Z</time>
      </trkpt>
      <trkpt lat="10.274791" lon="-67.919805">
        <ele>472.20</ele>
        <time>2022-10-26T10:05:28Z</time>
      </trkpt>
      <trkpt lat="10.274741" lon="-67.919743">
        <ele>472.30</ele>
        <time>2022-10-26T10:05:29Z</time>
      </trkpt>
      <trkpt lat="10.274694" lon="-67.919683">
        <ele>472.30</ele>
        <time>2022-10-26T10:05:30Z</time>
      </trkpt>
      <trkpt lat="10.274646" lon="-67.919622">
        <ele>472.40</ele>
        <time>2022-10-26T10:05:31Z</time>
      </trkpt>
      <trkpt lat="10.274598" lon="-67.919564">
        <ele>472.50</ele>
        <time>2022-10-26T10:05:32Z</time>
      </trkpt>
      <trkpt lat="10.274548" lon="-67.919508">
        <ele>472.70</ele>
        <time>2022-10-26T10:05:33Z</time>
      </trkpt>
      <trkpt lat="10.274495" lon="-67.919454">
        <ele>472.80</ele>
        <time>2022-10-26T10:05:34Z</time>
      </trkpt>
      <trkpt lat="10.274444" lon="-67.919402">
        <ele>472.90</ele>
        <time>2022-10-26T10:05:35Z</time>
      </trkpt>
      <trkpt lat="10.274393" lon="-67.919348">
        <ele>473.00</ele>
        <time>2022-10-26T10:05:36Z</time>
      </trkpt>
      <trkpt lat="10.274344" lon="-67.919292">
        <ele>473.20</ele>
        <time>2022-10-26T10:05:37Z</time>
      </trkpt>
      <trkpt lat="10.274297" lon="-67.919236">
        <ele>473.30</ele>
        <time>2022-10-26T10:05:38Z</time>
      </trkpt>
      <trkpt lat="10.274250" lon="-67.919182">
        <ele>473.40</ele>
        <time>2022-10-26T10:05:39Z</time>
      </trkpt>
      <trkpt lat="10.274205" lon="-67.919130">
        <ele>473.50</ele>
        <time>2022-10-26T10:05:40Z</time>
      </trkpt>
      <trkpt lat="10.274158" lon="-67.919081">
        <ele>473.60</ele>
        <time>2022-10-26T10:05:41Z</time>
      </trkpt>
      <trkpt lat="10.274110" lon="-67.919034">
        <ele>473.70</ele>
        <time>2022-10-26T10:05:42Z</time>
      </trkpt>
      <trkpt lat="10.274058" lon="-67.918984">
        <ele>473.80</ele>
        <time>2022-10-26T10:05:43Z</time>
      </trkpt>
      <trkpt lat="10.274008" lon="-67.918937">
        <ele>473.90</ele>
        <time>2022-10-26T10:05:44Z</time>
      </trkpt>
      <trkpt lat="10.273955" lon="-67.918889">
        <ele>474.00</ele>
        <time>2022-10-26T10:05:45Z</time>
      </trkpt>
      <trkpt lat="10.273902" lon="-67.918844">
        <ele>474.10</ele>
        <time>2022-10-26T10:05:46Z</time>
      </trkpt>
      <trkpt lat="10.273848" lon="-67.918801">
        <ele>474.10</ele>
        <time>2022-10-26T10:05:47Z</time>
      </trkpt>
      <trkpt lat="10.273797" lon="-67.918762">
        <ele>474.20</ele>
        <time>2022-10-26T10:05:48Z</time>
      </trkpt>
      <trkpt lat="10.273747" lon="-67.918725">
        <ele>474.20</ele>
        <time>2022-10-26T10:05:49Z</time>
      </trkpt>
      <trkpt lat="10.273701" lon="-67.918689">
        <ele>474.30</ele>
        <time>2022-10-26T10:05:50Z</time>
      </trkpt>
      <trkpt lat="10.273655" lon="-67.918652">
        <ele>474.30</ele>
        <time>2022-10-26T10:05:51Z</time>
      </trkpt>
      <trkpt lat="10.273610" lon="-67.918617">
        <ele>474.40</ele>
        <time>2022-10-26T10:05:52Z</time>
      </trkpt>
      <trkpt lat="10.273564" lon="-67.918582">
        <ele>474.40</ele>
        <time>2022-10-26T10:05:53Z</time>
      </trkpt>
      <trkpt lat="10.273515" lon="-67.918545">
        <ele>474.40</ele>
        <time>2022-10-26T10:05:54Z</time>
      </trkpt>
      <trkpt lat="10.273463" lon="-67.918508">
        <ele>474.40</ele>
        <time>2022-10-26T10:05:55Z</time>
      </trkpt>
      <trkpt lat="10.273407" lon="-67.918472">
        <ele>474.40</ele>
        <time>2022-10-26T10:05:56Z</time>
      </trkpt>
      <trkpt lat="10.273350" lon="-67.918439">
        <ele>474.40</ele>
        <time>2022-10-26T10:05:57Z</time>
      </trkpt>
      <trkpt lat="10.273300" lon="-67.918410">
        <ele>474.40</ele>
        <time>2022-10-26T10:05:58Z</time>
      </trkpt>
      <trkpt lat="10.273256" lon="-67.918384">
        <ele>474.40</ele>
        <time>2022-10-26T10:05:59Z</time>
      </trkpt>
      <trkpt lat="10.273214" lon="-67.918360">
        <ele>474.40</ele>
        <time>2022-10-26T10:06:00Z</time>
      </trkpt>
      <trkpt lat="10.273173" lon="-67.918336">
        <ele>474.40</ele>
        <time>2022-10-26T10:06:01Z</time>
      </trkpt>
      <trkpt lat="10.273125" lon="-67.918312">
        <ele>474.40</ele>
        <time>2022-10-26T10:06:02Z</time>
      </trkpt>
      <trkpt lat="10.273068" lon="-67.918285">
        <ele>474.40</ele>
        <time>2022-10-26T10:06:03Z</time>
      </trkpt>
      <trkpt lat="10.273009" lon="-67.918258">
        <ele>474.30</ele>
        <time>2022-10-26T10:06:04Z</time>
      </trkpt>
      <trkpt lat="10.272947" lon="-67.918228">
        <ele>474.20</ele>
        <time>2022-10-26T10:06:05Z</time>
      </trkpt>
      <trkpt lat="10.272884" lon="-67.918195">
        <ele>474.10</ele>
        <time>2022-10-26T10:06:06Z</time>
      </trkpt>
      <trkpt lat="10.272823" lon="-67.918169">
        <ele>474.00</ele>
        <time>2022-10-26T10:06:07Z</time>
      </trkpt>
      <trkpt lat="10.272762" lon="-67.918143">
        <ele>473.80</ele>
        <time>2022-10-26T10:06:08Z</time>
      </trkpt>
      <trkpt lat="10.272698" lon="-67.918117">
        <ele>473.70</ele>
        <time>2022-10-26T10:06:09Z</time>
      </trkpt>
      <trkpt lat="10.272634" lon="-67.918092">
        <ele>473.60</ele>
        <time>2022-10-26T10:06:10Z</time>
      </trkpt>
      <trkpt lat="10.272572" lon="-67.918065">
        <ele>473.50</ele>
        <time>2022-10-26T10:06:11Z</time>
      </trkpt>
      <trkpt lat="10.272500" lon="-67.918037">
        <ele>473.30</ele>
        <time>2022-10-26T10:06:12Z</time>
      </trkpt>
      <trkpt lat="10.272422" lon="-67.918010">
        <ele>473.20</ele>
        <time>2022-10-26T10:06:13Z</time>
      </trkpt>
      <trkpt lat="10.272341" lon="-67.917985">
        <ele>473.10</ele>
        <time>2022-10-26T10:06:14Z</time>
      </trkpt>
      <trkpt lat="10.272260" lon="-67.917964">
        <ele>472.90</ele>
        <time>2022-10-26T10:06:15Z</time>
      </trkpt>
      <trkpt lat="10.272182" lon="-67.917944">
        <ele>472.70</ele>
        <time>2022-10-26T10:06:16Z</time>
      </trkpt>
      <trkpt lat="10.272101" lon="-67.917924">
        <ele>472.50</ele>
        <time>2022-10-26T10:06:17Z</time>
      </trkpt>
      <trkpt lat="10.272016" lon="-67.917907">
        <ele>472.30</ele>
        <time>2022-10-26T10:06:18Z</time>
      </trkpt>
      <trkpt lat="10.271928" lon="-67.917890">
        <ele>472.10</ele>
        <time>2022-10-26T10:06:19Z</time>
      </trkpt>
      <trkpt lat="10.271841" lon="-67.917872">
        <ele>471.80</ele>
        <time>2022-10-26T10:06:20Z</time>
      </trkpt>
      <trkpt lat="10.271750" lon="-67.917860">
        <ele>471.50</ele>
        <time>2022-10-26T10:06:21Z</time>
      </trkpt>
      <trkpt lat="10.271659" lon="-67.917846">
        <ele>471.20</ele>
        <time>2022-10-26T10:06:22Z</time>
      </trkpt>
      <trkpt lat="10.271569" lon="-67.917832">
        <ele>470.90</ele>
        <time>2022-10-26T10:06:23Z</time>
      </trkpt>
      <trkpt lat="10.271480" lon="-67.917818">
        <ele>470.50</ele>
        <time>2022-10-26T10:06:24Z</time>
      </trkpt>
      <trkpt lat="10.271383" lon="-67.917809">
        <ele>470.20</ele>
        <time>2022-10-26T10:06:25Z</time>
      </trkpt>
      <trkpt lat="10.271282" lon="-67.917803">
        <ele>469.80</ele>
        <time>2022-10-26T10:06:26Z</time>
      </trkpt>
      <trkpt lat="10.271179" lon="-67.917798">
        <ele>469.40</ele>
        <time>2022-10-26T10:06:27Z</time>
      </trkpt>
      <trkpt lat="10.271080" lon="-67.917800">
        <ele>468.90</ele>
        <time>2022-10-26T10:06:28Z</time>
      </trkpt>
      <trkpt lat="10.270987" lon="-67.917800">
        <ele>468.50</ele>
        <time>2022-10-26T10:06:29Z</time>
      </trkpt>
      <trkpt lat="10.270896" lon="-67.917802">
        <ele>468.10</ele>
        <time>2022-10-26T10:06:30Z</time>
      </trkpt>
      <trkpt lat="10.270804" lon="-67.917804">
        <ele>467.70</ele>
        <time>2022-10-26T10:06:31Z</time>
      </trkpt>
      <trkpt lat="10.270710" lon="-67.917807">
        <ele>467.30</ele>
        <time>2022-10-26T10:06:32Z</time>
      </trkpt>
      <trkpt lat="10.270618" lon="-67.917811">
        <ele>466.90</ele>
        <time>2022-10-26T10:06:33Z</time>
      </trkpt>
      <trkpt lat="10.270526" lon="-67.917820">
        <ele>466.50</ele>
        <time>2022-10-26T10:06:34Z</time>
      </trkpt>
      <trkpt lat="10.270435" lon="-67.917834">
        <ele>466.20</ele>
        <time>2022-10-26T10:06:35Z</time>
      </trkpt>
      <trkpt lat="10.270348" lon="-67.917845">
        <ele>465.80</ele>
        <time>2022-10-26T10:06:36Z</time>
      </trkpt>
      <trkpt lat="10.270260" lon="-67.917856">
        <ele>465.50</ele>
        <time>2022-10-26T10:06:37Z</time>
      </trkpt>
      <trkpt lat="10.270172" lon="-67.917870">
        <ele>465.20</ele>
        <time>2022-10-26T10:06:38Z</time>
      </trkpt>
      <trkpt lat="10.270085" lon="-67.917886">
        <ele>464.90</ele>
        <time>2022-10-26T10:06:39Z</time>
      </trkpt>
      <trkpt lat="10.270000" lon="-67.917902">
        <ele>464.60</ele>
        <time>2022-10-26T10:06:40Z</time>
      </trkpt>
      <trkpt lat="10.269915" lon="-67.917925">
        <ele>464.40</ele>
        <time>2022-10-26T10:06:41Z</time>
      </trkpt>
      <trkpt lat="10.269826" lon="-67.917955">
        <ele>464.10</ele>
        <time>2022-10-26T10:06:42Z</time>
      </trkpt>
      <trkpt lat="10.269735" lon="-67.917988">
        <ele>463.80</ele>
        <time>2022-10-26T10:06:43Z</time>
      </trkpt>
      <trkpt lat="10.269644" lon="-67.918022">
        <ele>463.60</ele>
        <time>2022-10-26T10:06:44Z</time>
      </trkpt>
      <trkpt lat="10.269555" lon="-67.918059">
        <ele>463.30</ele>
        <time>2022-10-26T10:06:45Z</time>
      </trkpt>
      <trkpt lat="10.269467" lon="-67.918095">
        <ele>463.10</ele>
        <time>2022-10-26T10:06:46Z</time>
      </trkpt>
      <trkpt lat="10.269378" lon="-67.918131">
        <ele>462.80</ele>
        <time>2022-10-26T10:06:47Z</time>
      </trkpt>
      <trkpt lat="10.269292" lon="-67.918162">
        <ele>462.70</ele>
        <time>2022-10-26T10:06:48Z</time>
      </trkpt>
      <trkpt lat="10.269206" lon="-67.918188">
        <ele>462.60</ele>
        <time>2022-10-26T10:06:49Z</time>
      </trkpt>
      <trkpt lat="10.269118" lon="-67.918218">
        <ele>462.50</ele>
        <time>2022-10-26T10:06:50Z</time>
      </trkpt>
      <trkpt lat="10.269031" lon="-67.918252">
        <ele>462.40</ele>
        <time>2022-10-26T10:06:51Z</time>
      </trkpt>
      <trkpt lat="10.268952" lon="-67.918286">
        <ele>462.30</ele>
        <time>2022-10-26T10:06:52Z</time>
      </trkpt>
      <trkpt lat="10.268869" lon="-67.918319">
        <ele>462.30</ele>
        <time>2022-10-26T10:06:53Z</time>
      </trkpt>
      <trkpt lat="10.268784" lon="-67.918354">
        <ele>462.20</ele>
        <time>2022-10-26T10:06:54Z</time>
      </trkpt>
      <trkpt lat="10.268699" lon="-67.918390">
        <ele>462.20</ele>
        <time>2022-10-26T10:06:55Z</time>
      </trkpt>
      <trkpt lat="10.268613" lon="-67.918424">
        <ele>462.30</ele>
        <time>2022-10-26T10:06:56Z</time>
      </trkpt>
      <trkpt lat="10.268530" lon="-67.918460">
        <ele>462.30</ele>
        <time>2022-10-26T10:06:57Z</time>
      </trkpt>
      <trkpt lat="10.268446" lon="-67.918500">
        <ele>462.30</ele>
        <time>2022-10-26T10:06:58Z</time>
      </trkpt>
      <trkpt lat="10.268369" lon="-67.918538">
        <ele>462.30</ele>
        <time>2022-10-26T10:06:59Z</time>
      </trkpt>
      <trkpt lat="10.268289" lon="-67.918580">
        <ele>462.30</ele>
        <time>2022-10-26T10:07:00Z</time>
      </trkpt>
      <trkpt lat="10.268213" lon="-67.918619">
        <ele>462.30</ele>
        <time>2022-10-26T10:07:01Z</time>
      </trkpt>
      <trkpt lat="10.268138" lon="-67.918658">
        <ele>462.30</ele>
        <time>2022-10-26T10:07:02Z</time>
      </trkpt>
      <trkpt lat="10.268064" lon="-67.918696">
        <ele>462.20</ele>
        <time>2022-10-26T10:07:03Z</time>
      </trkpt>
      <trkpt lat="10.267987" lon="-67.918737">
        <ele>462.20</ele>
        <time>2022-10-26T10:07:04Z</time>
      </trkpt>
      <trkpt lat="10.267910" lon="-67.918777">
        <ele>462.10</ele>
        <time>2022-10-26T10:07:05Z</time>
      </trkpt>
      <trkpt lat="10.267833" lon="-67.918811">
        <ele>462.10</ele>
        <time>2022-10-26T10:07:06Z</time>
      </trkpt>
      <trkpt lat="10.267759" lon="-67.918843">
        <ele>462.00</ele>
        <time>2022-10-26T10:07:07Z</time>
      </trkpt>
      <trkpt lat="10.267687" lon="-67.918873">
        <ele>462.00</ele>
        <time>2022-10-26T10:07:08Z</time>
      </trkpt>
      <trkpt lat="10.267617" lon="-67.918906">
        <ele>462.00</ele>
        <time>2022-10-26T10:07:09Z</time>
      </trkpt>
      <trkpt lat="10.267549" lon="-67.918940">
        <ele>462.00</ele>
        <time>2022-10-26T10:07:10Z</time>
      </trkpt>
      <trkpt lat="10.267481" lon="-67.918974">
        <ele>461.90</ele>
        <time>2022-10-26T10:07:11Z</time>
      </trkpt>
      <trkpt lat="10.267420" lon="-67.919007">
        <ele>461.90</ele>
        <time>2022-10-26T10:07:12Z</time>
      </trkpt>
      <trkpt lat="10.267352" lon="-67.919042">
        <ele>461.80</ele>
        <time>2022-10-26T10:07:13Z</time>
      </trkpt>
      <trkpt lat="10.267289" lon="-67.919073">
        <ele>461.80</ele>
        <time>2022-10-26T10:07:14Z</time>
      </trkpt>
      <trkpt lat="10.267230" lon="-67.919104">
        <ele>461.70</ele>
        <time>2022-10-26T10:07:15Z</time>
      </trkpt>
      <trkpt lat="10.267175" lon="-67.919131">
        <ele>461.70</ele>
        <time>2022-10-26T10:07:16Z</time>
      </trkpt>
      <trkpt lat="10.267111" lon="-67.919160">
        <ele>461.70</ele>
        <time>2022-10-26T10:07:17Z</time>
      </trkpt>
      <trkpt lat="10.267045" lon="-67.919193">
        <ele>461.60</ele>
        <time>2022-10-26T10:07:18Z</time>
      </trkpt>
      <trkpt lat="10.266976" lon="-67.919222">
        <ele>461.60</ele>
        <time>2022-10-26T10:07:19Z</time>
      </trkpt>
      <trkpt lat="10.266908" lon="-67.919251">
        <ele>461.50</ele>
        <time>2022-10-26T10:07:20Z</time>
      </trkpt>
      <trkpt lat="10.266840" lon="-67.919281">
        <ele>461.50</ele>
        <time>2022-10-26T10:07:21Z</time>
      </trkpt>
      <trkpt lat="10.266775" lon="-67.919313">
        <ele>461.50</ele>
        <time>2022-10-26T10:07:22Z</time>
      </trkpt>
      <trkpt lat="10.266714" lon="-67.919341">
        <ele>461.50</ele>
        <time>2022-10-26T10:07:23Z</time>
      </trkpt>
      <trkpt lat="10.266653" lon="-67.919368">
        <ele>461.50</ele>
        <time>2022-10-26T10:07:24Z</time>
      </trkpt>
      <trkpt lat="10.266594" lon="-67.919396">
        <ele>461.50</ele>
        <time>2022-10-26T10:07:25Z</time>
      </trkpt>
      <trkpt lat="10.266535" lon="-67.919421">
        <ele>461.50</ele>
        <time>2022-10-26T10:07:26Z</time>
      </trkpt>
      <trkpt lat="10.266476" lon="-67.919446">
        <ele>461.50</ele>
        <time>2022-10-26T10:07:27Z</time>
      </trkpt>
      <trkpt lat="10.266417" lon="-67.919472">
        <ele>461.50</ele>
        <time>2022-10-26T10:07:28Z</time>
      </trkpt>
      <trkpt lat="10.266357" lon="-67.919497">
        <ele>461.50</ele>
        <time>2022-10-26T10:07:29Z</time>
      </trkpt>
      <trkpt lat="10.266300" lon="-67.919522">
        <ele>461.50</ele>
        <time>2022-10-26T10:07:30Z</time>
      </trkpt>
      <trkpt lat="10.266242" lon="-67.919544">
        <ele>461.40</ele>
        <time>2022-10-26T10:07:31Z</time>
      </trkpt>
      <trkpt lat="10.266184" lon="-67.919566">
        <ele>461.40</ele>
        <time>2022-10-26T10:07:32Z</time>
      </trkpt>
      <trkpt lat="10.266124" lon="-67.919589">
        <ele>461.30</ele>
        <time>2022-10-26T10:07:33Z</time>
      </trkpt>
      <trkpt lat="10.266065" lon="-67.919610">
        <ele>461.20</ele>
        <time>2022-10-26T10:07:34Z</time>
      </trkpt>
      <trkpt lat="10.266004" lon="-67.919630">
        <ele>461.20</ele>
        <time>2022-10-26T10:07:35Z</time>
      </trkpt>
      <trkpt lat="10.265941" lon="-67.919652">
        <ele>461.10</ele>
        <time>2022-10-26T10:07:36Z</time>
      </trkpt>
      <trkpt lat="10.265879" lon="-67.919679">
        <ele>461.00</ele>
        <time>2022-10-26T10:07:37Z</time>
      </trkpt>
      <trkpt lat="10.265819" lon="-67.919704">
        <ele>461.00</ele>
        <time>2022-10-26T10:07:38Z</time>
      </trkpt>
      <trkpt lat="10.265755" lon="-67.919729">
        <ele>460.90</ele>
        <time>2022-10-26T10:07:39Z</time>
      </trkpt>
      <trkpt lat="10.265693" lon="-67.919754">
        <ele>460.90</ele>
        <time>2022-10-26T10:07:40Z</time>
      </trkpt>
      <trkpt lat="10.265629" lon="-67.919777">
        <ele>460.80</ele>
        <time>2022-10-26T10:07:41Z</time>
      </trkpt>
      <trkpt lat="10.265565" lon="-67.919796">
        <ele>460.80</ele>
        <time>2022-10-26T10:07:42Z</time>
      </trkpt>
      <trkpt lat="10.265496" lon="-67.919813">
        <ele>460.70</ele>
        <time>2022-10-26T10:07:43Z</time>
      </trkpt>
      <trkpt lat="10.265429" lon="-67.919827">
        <ele>460.70</ele>
        <time>2022-10-26T10:07:44Z</time>
      </trkpt>
      <trkpt lat="10.265359" lon="-67.919842">
        <ele>460.70</ele>
        <time>2022-10-26T10:07:45Z</time>
      </trkpt>
      <trkpt lat="10.265289" lon="-67.919856">
        <ele>460.70</ele>
        <time>2022-10-26T10:07:46Z</time>
      </trkpt>
      <trkpt lat="10.265220" lon="-67.919868">
        <ele>460.70</ele>
        <time>2022-10-26T10:07:47Z</time>
      </trkpt>
      <trkpt lat="10.265151" lon="-67.919883">
        <ele>460.70</ele>
        <time>2022-10-26T10:07:48Z</time>
      </trkpt>
      <trkpt lat="10.265079" lon="-67.919902">
        <ele>460.70</ele>
        <time>2022-10-26T10:07:49Z</time>
      </trkpt>
      <trkpt lat="10.265006" lon="-67.919920">
        <ele>460.70</ele>
        <time>2022-10-26T10:07:50Z</time>
      </trkpt>
      <trkpt lat="10.264931" lon="-67.919938">
        <ele>460.70</ele>
        <time>2022-10-26T10:07:51Z</time>
      </trkpt>
      <trkpt lat="10.264859" lon="-67.919952">
        <ele>460.70</ele>
        <time>2022-10-26T10:07:52Z</time>
      </trkpt>
      <trkpt lat="10.264788" lon="-67.919963">
        <ele>460.70</ele>
        <time>2022-10-26T10:07:53Z</time>
      </trkpt>
      <trkpt lat="10.264726" lon="-67.919976">
        <ele>460.70</ele>
        <time>2022-10-26T10:07:54Z</time>
      </trkpt>
      <trkpt lat="10.264667" lon="-67.919986">
        <ele>460.60</ele>
        <time>2022-10-26T10:07:55Z</time>
      </trkpt>
      <trkpt lat="10.264612" lon="-67.919995">
        <ele>460.60</ele>
        <time>2022-10-26T10:07:56Z</time>
      </trkpt>
      <trkpt lat="10.264553" lon="-67.920005">
        <ele>460.60</ele>
        <time>2022-10-26T10:07:57Z</time>
      </trkpt>
      <trkpt lat="10.264489" lon="-67.920017">
        <ele>460.60</ele>
        <time>2022-10-26T10:07:58Z</time>
      </trkpt>
      <trkpt lat="10.264419" lon="-67.920026">
        <ele>460.50</ele>
        <time>2022-10-26T10:07:59Z</time>
      </trkpt>
      <trkpt lat="10.264348" lon="-67.920036">
        <ele>460.50</ele>
        <time>2022-10-26T10:08:00Z</time>
      </trkpt>
      <trkpt lat="10.264279" lon="-67.920043">
        <ele>460.50</ele>
        <time>2022-10-26T10:08:01Z</time>
      </trkpt>
      <trkpt lat="10.264210" lon="-67.920049">
        <ele>460.40</ele>
        <time>2022-10-26T10:08:02Z</time>
      </trkpt>
      <trkpt lat="10.264139" lon="-67.920054">
        <ele>460.40</ele>
        <time>2022-10-26T10:08:03Z</time>
      </trkpt>
      <trkpt lat="10.264071" lon="-67.920057">
        <ele>460.40</ele>
        <time>2022-10-26T10:08:04Z</time>
      </trkpt>
      <trkpt lat="10.264001" lon="-67.920062">
        <ele>460.30</ele>
        <time>2022-10-26T10:08:05Z</time>
      </trkpt>
      <trkpt lat="10.263933" lon="-67.920067">
        <ele>460.30</ele>
        <time>2022-10-26T10:08:06Z</time>
      </trkpt>
      <trkpt lat="10.263864" lon="-67.920069">
        <ele>460.30</ele>
        <time>2022-10-26T10:08:07Z</time>
      </trkpt>
      <trkpt lat="10.263794" lon="-67.920068">
        <ele>460.30</ele>
        <time>2022-10-26T10:08:08Z</time>
      </trkpt>
      <trkpt lat="10.263724" lon="-67.920063">
        <ele>460.30</ele>
        <time>2022-10-26T10:08:09Z</time>
      </trkpt>
      <trkpt lat="10.263656" lon="-67.920060">
        <ele>460.30</ele>
        <time>2022-10-26T10:08:10Z</time>
      </trkpt>
      <trkpt lat="10.263595" lon="-67.920058">
        <ele>460.30</ele>
        <time>2022-10-26T10:08:11Z</time>
      </trkpt>
      <trkpt lat="10.263535" lon="-67.920056">
        <ele>460.40</ele>
        <time>2022-10-26T10:08:12Z</time>
      </trkpt>
      <trkpt lat="10.263478" lon="-67.920054">
        <ele>460.40</ele>
        <time>2022-10-26T10:08:13Z</time>
      </trkpt>
      <trkpt lat="10.263424" lon="-67.920054">
        <ele>460.40</ele>
        <time>2022-10-26T10:08:14Z</time>
      </trkpt>
      <trkpt lat="10.263367" lon="-67.920057">
        <ele>460.40</ele>
        <time>2022-10-26T10:08:15Z</time>
      </trkpt>
      <trkpt lat="10.263317" lon="-67.920059">
        <ele>460.40</ele>
        <time>2022-10-26T10:08:16Z</time>
      </trkpt>
      <trkpt lat="10.263272" lon="-67.920059">
        <ele>460.40</ele>
        <time>2022-10-26T10:08:17Z</time>
      </trkpt>
      <trkpt lat="10.263225" lon="-67.920060">
        <ele>460.40</ele>
        <time>2022-10-26T10:08:18Z</time>
      </trkpt>
      <trkpt lat="10.263175" lon="-67.920060">
        <ele>460.40</ele>
        <time>2022-10-26T10:08:19Z</time>
      </trkpt>
      <trkpt lat="10.263129" lon="-67.920063">
        <ele>460.40</ele>
        <time>2022-10-26T10:08:20Z</time>
      </trkpt>
      <trkpt lat="10.263080" lon="-67.920065">
        <ele>460.40</ele>
        <time>2022-10-26T10:08:21Z</time>
      </trkpt>
      <trkpt lat="10.263030" lon="-67.920068">
        <ele>460.40</ele>
        <time>2022-10-26T10:08:22Z</time>
      </trkpt>
      <trkpt lat="10.262980" lon="-67.920067">
        <ele>460.40</ele>
        <time>2022-10-26T10:08:23Z</time>
      </trkpt>
      <trkpt lat="10.262928" lon="-67.920065">
        <ele>460.50</ele>
        <time>2022-10-26T10:08:24Z</time>
      </trkpt>
      <trkpt lat="10.262867" lon="-67.920060">
        <ele>460.50</ele>
        <time>2022-10-26T10:08:25Z</time>
      </trkpt>
      <trkpt lat="10.262808" lon="-67.920053">
        <ele>460.50</ele>
        <time>2022-10-26T10:08:26Z</time>
      </trkpt>
      <trkpt lat="10.262748" lon="-67.920047">
        <ele>460.50</ele>
        <time>2022-10-26T10:08:27Z</time>
      </trkpt>
      <trkpt lat="10.262686" lon="-67.920047">
        <ele>460.50</ele>
        <time>2022-10-26T10:08:28Z</time>
      </trkpt>
      <trkpt lat="10.262622" lon="-67.920042">
        <ele>460.60</ele>
        <time>2022-10-26T10:08:29Z</time>
      </trkpt>
      <trkpt lat="10.262563" lon="-67.920038">
        <ele>460.60</ele>
        <time>2022-10-26T10:08:30Z</time>
      </trkpt>
      <trkpt lat="10.262509" lon="-67.920031">
        <ele>460.60</ele>
        <time>2022-10-26T10:08:31Z</time>
      </trkpt>
      <trkpt lat="10.262456" lon="-67.920023">
        <ele>460.60</ele>
        <time>2022-10-26T10:08:32Z</time>
      </trkpt>
      <trkpt lat="10.262406" lon="-67.920015">
        <ele>460.60</ele>
        <time>2022-10-26T10:08:33Z</time>
      </trkpt>
      <trkpt lat="10.262356" lon="-67.920007">
        <ele>460.60</ele>
        <time>2022-10-26T10:08:34Z</time>
      </trkpt>
      <trkpt lat="10.262307" lon="-67.920002">
        <ele>460.70</ele>
        <time>2022-10-26T10:08:35Z</time>
      </trkpt>
      <trkpt lat="10.262255" lon="-67.919997">
        <ele>460.70</ele>
        <time>2022-10-26T10:08:36Z</time>
      </trkpt>
      <trkpt lat="10.262205" lon="-67.919990">
        <ele>460.70</ele>
        <time>2022-10-26T10:08:37Z</time>
      </trkpt>
      <trkpt lat="10.262156" lon="-67.919982">
        <ele>460.70</ele>
        <time>2022-10-26T10:08:38Z</time>
      </trkpt>
      <trkpt lat="10.262102" lon="-67.919971">
        <ele>460.70</ele>
        <time>2022-10-26T10:08:39Z</time>
      </trkpt>
      <trkpt lat="10.262049" lon="-67.919960">
        <ele>460.70</ele>
        <time>2022-10-26T10:08:40Z</time>
      </trkpt>
      <trkpt lat="10.261994" lon="-67.919951">
        <ele>460.70</ele>
        <time>2022-10-26T10:08:41Z</time>
      </trkpt>
      <trkpt lat="10.261941" lon="-67.919941">
        <ele>460.70</ele>
        <time>2022-10-26T10:08:42Z</time>
      </trkpt>
      <trkpt lat="10.261888" lon="-67.919929">
        <ele>460.70</ele>
        <time>2022-10-26T10:08:43Z</time>
      </trkpt>
      <trkpt lat="10.261835" lon="-67.919915">
        <ele>460.80</ele>
        <time>2022-10-26T10:08:44Z</time>
      </trkpt>
      <trkpt lat="10.261783" lon="-67.919900">
        <ele>460.80</ele>
        <time>2022-10-26T10:08:45Z</time>
      </trkpt>
      <trkpt lat="10.261727" lon="-67.919883">
        <ele>460.80</ele>
        <time>2022-10-26T10:08:46Z</time>
      </trkpt>
      <trkpt lat="10.261668" lon="-67.919866">
        <ele>460.80</ele>
        <time>2022-10-26T10:08:47Z</time>
      </trkpt>
      <trkpt lat="10.261608" lon="-67.919847">
        <ele>460.80</ele>
        <time>2022-10-26T10:08:48Z</time>
      </trkpt>
      <trkpt lat="10.261548" lon="-67.919825">
        <ele>460.80</ele>
        <time>2022-10-26T10:08:49Z</time>
      </trkpt>
      <trkpt lat="10.261489" lon="-67.919801">
        <ele>460.80</ele>
        <time>2022-10-26T10:08:50Z</time>
      </trkpt>
      <trkpt lat="10.261426" lon="-67.919779">
        <ele>460.80</ele>
        <time>2022-10-26T10:08:51Z</time>
      </trkpt>
      <trkpt lat="10.261363" lon="-67.919758">
        <ele>460.80</ele>
        <time>2022-10-26T10:08:52Z</time>
      </trkpt>
      <trkpt lat="10.261296" lon="-67.919735">
        <ele>460.90</ele>
        <time>2022-10-26T10:08:53Z</time>
      </trkpt>
      <trkpt lat="10.261232" lon="-67.919712">
        <ele>460.90</ele>
        <time>2022-10-26T10:08:54Z</time>
      </trkpt>
      <trkpt lat="10.261167" lon="-67.919691">
        <ele>460.90</ele>
        <time>2022-10-26T10:08:55Z</time>
      </trkpt>
      <trkpt lat="10.261102" lon="-67.919669">
        <ele>460.90</ele>
        <time>2022-10-26T10:08:56Z</time>
      </trkpt>
      <trkpt lat="10.261039" lon="-67.919647">
        <ele>460.90</ele>
        <time>2022-10-26T10:08:57Z</time>
      </trkpt>
      <trkpt lat="10.260973" lon="-67.919624">
        <ele>460.90</ele>
        <time>2022-10-26T10:08:58Z</time>
      </trkpt>
      <trkpt lat="10.260907" lon="-67.919601">
        <ele>461.00</ele>
        <time>2022-10-26T10:08:59Z</time>
      </trkpt>
      <trkpt lat="10.260844" lon="-67.919577">
        <ele>461.00</ele>
        <time>2022-10-26T10:09:00Z</time>
      </trkpt>
      <trkpt lat="10.260780" lon="-67.919551">
        <ele>461.00</ele>
        <time>2022-10-26T10:09:01Z</time>
      </trkpt>
      <trkpt lat="10.260716" lon="-67.919527">
        <ele>461.00</ele>
        <time>2022-10-26T10:09:02Z</time>
      </trkpt>
      <trkpt lat="10.260654" lon="-67.919507">
        <ele>461.00</ele>
        <time>2022-10-26T10:09:03Z</time>
      </trkpt>
      <trkpt lat="10.260590" lon="-67.919485">
        <ele>461.00</ele>
        <time>2022-10-26T10:09:04Z</time>
      </trkpt>
      <trkpt lat="10.260531" lon="-67.919459">
        <ele>461.00</ele>
        <time>2022-10-26T10:09:05Z</time>
      </trkpt>
      <trkpt lat="10.260471" lon="-67.919434">
        <ele>461.00</ele>
        <time>2022-10-26T10:09:06Z</time>
      </trkpt>
      <trkpt lat="10.260412" lon="-67.919408">
        <ele>461.10</ele>
        <time>2022-10-26T10:09:07Z</time>
      </trkpt>
      <trkpt lat="10.260352" lon="-67.919380">
        <ele>461.10</ele>
        <time>2022-10-26T10:09:08Z</time>
      </trkpt>
      <trkpt lat="10.260290" lon="-67.919352">
        <ele>461.10</ele>
        <time>2022-10-26T10:09:09Z</time>
      </trkpt>
      <trkpt lat="10.260234" lon="-67.919324">
        <ele>461.10</ele>
        <time>2022-10-26T10:09:10Z</time>
      </trkpt>
      <trkpt lat="10.260177" lon="-67.919293">
        <ele>461.10</ele>
        <time>2022-10-26T10:09:11Z</time>
      </trkpt>
      <trkpt lat="10.260129" lon="-67.919263">
        <ele>461.10</ele>
        <time>2022-10-26T10:09:12Z</time>
      </trkpt>
      <trkpt lat="10.260082" lon="-67.919233">
        <ele>461.10</ele>
        <time>2022-10-26T10:09:13Z</time>
      </trkpt>
      <trkpt lat="10.260032" lon="-67.919205">
        <ele>461.10</ele>
        <time>2022-10-26T10:09:14Z</time>
      </trkpt>
      <trkpt lat="10.259976" lon="-67.919178">
        <ele>461.10</ele>
        <time>2022-10-26T10:09:15Z</time>
      </trkpt>
      <trkpt lat="10.259918" lon="-67.919151">
        <ele>461.10</ele>
        <time>2022-10-26T10:09:16Z</time>
      </trkpt>
      <trkpt lat="10.259861" lon="-67.919125">
        <ele>461.00</ele>
        <time>2022-10-26T10:09:17Z</time>
      </trkpt>
      <trkpt lat="10.259804" lon="-67.919098">
        <ele>461.00</ele>
        <time>2022-10-26T10:09:18Z</time>
      </trkpt>
      <trkpt lat="10.259737" lon="-67.919075">
        <ele>460.90</ele>
        <time>2022-10-26T10:09:19Z</time>
      </trkpt>
      <trkpt lat="10.259671" lon="-67.919050">
        <ele>460.90</ele>
        <time>2022-10-26T10:09:20Z</time>
      </trkpt>
      <trkpt lat="10.259605" lon="-67.919024">
        <ele>460.80</ele>
        <time>2022-10-26T10:09:21Z</time>
      </trkpt>
      <trkpt lat="10.259539" lon="-67.918995">
        <ele>460.80</ele>
        <time>2022-10-26T10:09:22Z</time>
      </trkpt>
      <trkpt lat="10.259470" lon="-67.918961">
        <ele>460.70</ele>
        <time>2022-10-26T10:09:23Z</time>
      </trkpt>
      <trkpt lat="10.259406" lon="-67.918930">
        <ele>460.70</ele>
        <time>2022-10-26T10:09:24Z</time>
      </trkpt>
      <trkpt lat="10.259341" lon="-67.918899">
        <ele>460.60</ele>
        <time>2022-10-26T10:09:25Z</time>
      </trkpt>
      <trkpt lat="10.259280" lon="-67.918870">
        <ele>460.60</ele>
        <time>2022-10-26T10:09:26Z</time>
      </trkpt>
      <trkpt lat="10.259214" lon="-67.918840">
        <ele>460.50</ele>
        <time>2022-10-26T10:09:27Z</time>
      </trkpt>
      <trkpt lat="10.259149" lon="-67.918809">
        <ele>460.50</ele>
        <time>2022-10-26T10:09:28Z</time>
      </trkpt>
      <trkpt lat="10.259083" lon="-67.918777">
        <ele>460.40</ele>
        <time>2022-10-26T10:09:29Z</time>
      </trkpt>
      <trkpt lat="10.259020" lon="-67.918742">
        <ele>460.40</ele>
        <time>2022-10-26T10:09:30Z</time>
      </trkpt>
      <trkpt lat="10.258957" lon="-67.918707">
        <ele>460.30</ele>
        <time>2022-10-26T10:09:31Z</time>
      </trkpt>
      <trkpt lat="10.258897" lon="-67.918674">
        <ele>460.30</ele>
        <time>2022-10-26T10:09:32Z</time>
      </trkpt>
      <trkpt lat="10.258833" lon="-67.918640">
        <ele>460.30</ele>
        <time>2022-10-26T10:09:33Z</time>
      </trkpt>
      <trkpt lat="10.258770" lon="-67.918612">
        <ele>460.20</ele>
        <time>2022-10-26T10:09:34Z</time>
      </trkpt>
      <trkpt lat="10.258702" lon="-67.918581">
        <ele>460.20</ele>
        <time>2022-10-26T10:09:35Z</time>
      </trkpt>
      <trkpt lat="10.258642" lon="-67.918553">
        <ele>460.20</ele>
        <time>2022-10-26T10:09:36Z</time>
      </trkpt>
      <trkpt lat="10.258578" lon="-67.918522">
        <ele>460.20</ele>
        <time>2022-10-26T10:09:37Z</time>
      </trkpt>
      <trkpt lat="10.258519" lon="-67.918492">
        <ele>460.10</ele>
        <time>2022-10-26T10:09:38Z</time>
      </trkpt>
      <trkpt lat="10.258458" lon="-67.918465">
        <ele>460.10</ele>
        <time>2022-10-26T10:09:39Z</time>
      </trkpt>
      <trkpt lat="10.258402" lon="-67.918441">
        <ele>460.10</ele>
        <time>2022-10-26T10:09:40Z</time>
      </trkpt>
      <trkpt lat="10.258340" lon="-67.918416">
        <ele>460.10</ele>
        <time>2022-10-26T10:09:41Z</time>
      </trkpt>
      <trkpt lat="10.258277" lon="-67.918391">
        <ele>460.00</ele>
        <time>2022-10-26T10:09:42Z</time>
      </trkpt>
      <trkpt lat="10.258216" lon="-67.918361">
        <ele>460.00</ele>
        <time>2022-10-26T10:09:43Z</time>
      </trkpt>
      <trkpt lat="10.258157" lon="-67.918335">
        <ele>460.00</ele>
        <time>2022-10-26T10:09:44Z</time>
      </trkpt>
      <trkpt lat="10.258101" lon="-67.918309">
        <ele>460.00</ele>
        <time>2022-10-26T10:09:45Z</time>
      </trkpt>
      <trkpt lat="10.258050" lon="-67.918283">
        <ele>460.00</ele>
        <time>2022-10-26T10:09:46Z</time>
      </trkpt>
      <trkpt lat="10.258001" lon="-67.918257">
        <ele>460.00</ele>
        <time>2022-10-26T10:09:47Z</time>
      </trkpt>
      <trkpt lat="10.257952" lon="-67.918234">
        <ele>460.00</ele>
        <time>2022-10-26T10:09:48Z</time>
      </trkpt>
      <trkpt lat="10.257901" lon="-67.918210">
        <ele>459.90</ele>
        <time>2022-10-26T10:09:49Z</time>
      </trkpt>
      <trkpt lat="10.257846" lon="-67.918185">
        <ele>459.90</ele>
        <time>2022-10-26T10:09:50Z</time>
      </trkpt>
      <trkpt lat="10.257792" lon="-67.918163">
        <ele>459.90</ele>
        <time>2022-10-26T10:09:51Z</time>
      </trkpt>
      <trkpt lat="10.257741" lon="-67.918145">
        <ele>459.90</ele>
        <time>2022-10-26T10:09:52Z</time>
      </trkpt>
      <trkpt lat="10.257687" lon="-67.918128">
        <ele>459.90</ele>
        <time>2022-10-26T10:09:53Z</time>
      </trkpt>
      <trkpt lat="10.257633" lon="-67.918113">
        <ele>459.90</ele>
        <time>2022-10-26T10:09:54Z</time>
      </trkpt>
      <trkpt lat="10.257580" lon="-67.918097">
        <ele>459.80</ele>
        <time>2022-10-26T10:09:55Z</time>
      </trkpt>
      <trkpt lat="10.257527" lon="-67.918082">
        <ele>459.80</ele>
        <time>2022-10-26T10:09:56Z</time>
      </trkpt>
      <trkpt lat="10.257471" lon="-67.918066">
        <ele>459.80</ele>
        <time>2022-10-26T10:09:57Z</time>
      </trkpt>
      <trkpt lat="10.257412" lon="-67.918049">
        <ele>459.80</ele>
        <time>2022-10-26T10:09:58Z</time>
      </trkpt>
      <trkpt lat="10.257355" lon="-67.918034">
        <ele>459.80</ele>
        <time>2022-10-26T10:09:59Z</time>
      </trkpt>
      <trkpt lat="10.257295" lon="-67.918022">
        <ele>459.80</ele>
        <time>2022-10-26T10:10:00Z</time>
      </trkpt>
      <trkpt lat="10.257233" lon="-67.918007">
        <ele>459.70</ele>
        <time>2022-10-26T10:10:01Z</time>
      </trkpt>
      <trkpt lat="10.257176" lon="-67.917985">
        <ele>459.70</ele>
        <time>2022-10-26T10:10:02Z</time>
      </trkpt>
      <trkpt lat="10.257124" lon="-67.917966">
        <ele>459.70</ele>
        <time>2022-10-26T10:10:03Z</time>
      </trkpt>
      <trkpt lat="10.257071" lon="-67.917949">
        <ele>459.70</ele>
        <time>2022-10-26T10:10:04Z</time>
      </trkpt>
      <trkpt lat="10.257012" lon="-67.917935">
        <ele>459.70</ele>
        <time>2022-10-26T10:10:05Z</time>
      </trkpt>
      <trkpt lat="10.256950" lon="-67.917921">
        <ele>459.70</ele>
        <time>2022-10-26T10:10:06Z</time>
      </trkpt>
      <trkpt lat="10.256888" lon="-67.917910">
        <ele>459.60</ele>
        <time>2022-10-26T10:10:07Z</time>
      </trkpt>
      <trkpt lat="10.256824" lon="-67.917899">
        <ele>459.60</ele>
        <time>2022-10-26T10:10:08Z</time>
      </trkpt>
      <trkpt lat="10.256754" lon="-67.917893">
        <ele>459.60</ele>
        <time>2022-10-26T10:10:09Z</time>
      </trkpt>
      <trkpt lat="10.256684" lon="-67.917887">
        <ele>459.60</ele>
        <time>2022-10-26T10:10:10Z</time>
      </trkpt>
      <trkpt lat="10.256612" lon="-67.917878">
        <ele>459.60</ele>
        <time>2022-10-26T10:10:11Z</time>
      </trkpt>
      <trkpt lat="10.256541" lon="-67.917866">
        <ele>459.60</ele>
        <time>2022-10-26T10:10:12Z</time>
      </trkpt>
      <trkpt lat="10.256471" lon="-67.917852">
        <ele>459.60</ele>
        <time>2022-10-26T10:10:13Z</time>
      </trkpt>
      <trkpt lat="10.256402" lon="-67.917837">
        <ele>459.60</ele>
        <time>2022-10-26T10:10:14Z</time>
      </trkpt>
      <trkpt lat="10.256333" lon="-67.917823">
        <ele>459.60</ele>
        <time>2022-10-26T10:10:15Z</time>
      </trkpt>
      <trkpt lat="10.256265" lon="-67.917809">
        <ele>459.60</ele>
        <time>2022-10-26T10:10:16Z</time>
      </trkpt>
      <trkpt lat="10.256198" lon="-67.917793">
        <ele>459.60</ele>
        <time>2022-10-26T10:10:17Z</time>
      </trkpt>
      <trkpt lat="10.256130" lon="-67.917776">
        <ele>459.50</ele>
        <time>2022-10-26T10:10:18Z</time>
      </trkpt>
      <trkpt lat="10.256062" lon="-67.917756">
        <ele>459.50</ele>
        <time>2022-10-26T10:10:19Z</time>
      </trkpt>
      <trkpt lat="10.255998" lon="-67.917734">
        <ele>459.60</ele>
        <time>2022-10-26T10:10:20Z</time>
      </trkpt>
      <trkpt lat="10.255936" lon="-67.917713">
        <ele>459.60</ele>
        <time>2022-10-26T10:10:21Z</time>
      </trkpt>
      <trkpt lat="10.255877" lon="-67.917696">
        <ele>459.60</ele>
        <time>2022-10-26T10:10:22Z</time>
      </trkpt>
      <trkpt lat="10.255816" lon="-67.917681">
        <ele>459.60</ele>
        <time>2022-10-26T10:10:23Z</time>
      </trkpt>
      <trkpt lat="10.255756" lon="-67.917667">
        <ele>459.60</ele>
        <time>2022-10-26T10:10:24Z</time>
      </trkpt>
      <trkpt lat="10.255698" lon="-67.917653">
        <ele>459.60</ele>
        <time>2022-10-26T10:10:25Z</time>
      </trkpt>
      <trkpt lat="10.255647" lon="-67.917637">
        <ele>459.60</ele>
        <time>2022-10-26T10:10:26Z</time>
      </trkpt>
      <trkpt lat="10.255595" lon="-67.917620">
        <ele>459.60</ele>
        <time>2022-10-26T10:10:27Z</time>
      </trkpt>
      <trkpt lat="10.255542" lon="-67.917604">
        <ele>459.60</ele>
        <time>2022-10-26T10:10:28Z</time>
      </trkpt>
      <trkpt lat="10.255489" lon="-67.917588">
        <ele>459.60</ele>
        <time>2022-10-26T10:10:29Z</time>
      </trkpt>
      <trkpt lat="10.255431" lon="-67.917568">
        <ele>459.60</ele>
        <time>2022-10-26T10:10:30Z</time>
      </trkpt>
      <trkpt lat="10.255369" lon="-67.917545">
        <ele>459.60</ele>
        <time>2022-10-26T10:10:31Z</time>
      </trkpt>
      <trkpt lat="10.255303" lon="-67.917524">
        <ele>459.50</ele>
        <time>2022-10-26T10:10:32Z</time>
      </trkpt>
      <trkpt lat="10.255241" lon="-67.917505">
        <ele>459.50</ele>
        <time>2022-10-26T10:10:33Z</time>
      </trkpt>
      <trkpt lat="10.255177" lon="-67.917487">
        <ele>459.50</ele>
        <time>2022-10-26T10:10:34Z</time>
      </trkpt>
      <trkpt lat="10.255116" lon="-67.917468">
        <ele>459.50</ele>
        <time>2022-10-26T10:10:35Z</time>
      </trkpt>
      <trkpt lat="10.255056" lon="-67.917449">
        <ele>459.40</ele>
        <time>2022-10-26T10:10:36Z</time>
      </trkpt>
      <trkpt lat="10.254997" lon="-67.917428">
        <ele>459.40</ele>
        <time>2022-10-26T10:10:37Z</time>
      </trkpt>
      <trkpt lat="10.254936" lon="-67.917408">
        <ele>459.30</ele>
        <time>2022-10-26T10:10:38Z</time>
      </trkpt>
      <trkpt lat="10.254873" lon="-67.917389">
        <ele>459.30</ele>
        <time>2022-10-26T10:10:39Z</time>
      </trkpt>
      <trkpt lat="10.254811" lon="-67.917370">
        <ele>459.30</ele>
        <time>2022-10-26T10:10:40Z</time>
      </trkpt>
      <trkpt lat="10.254748" lon="-67.917348">
        <ele>459.30</ele>
        <time>2022-10-26T10:10:41Z</time>
      </trkpt>
      <trkpt lat="10.254685" lon="-67.917327">
        <ele>459.30</ele>
        <time>2022-10-26T10:10:42Z</time>
      </trkpt>
      <trkpt lat="10.254623" lon="-67.917305">
        <ele>459.30</ele>
        <time>2022-10-26T10:10:43Z</time>
      </trkpt>
      <trkpt lat="10.254563" lon="-67.917284">
        <ele>459.20</ele>
        <time>2022-10-26T10:10:44Z</time>
      </trkpt>
      <trkpt lat="10.254502" lon="-67.917263">
        <ele>459.20</ele>
        <time>2022-10-26T10:10:45Z</time>
      </trkpt>
      <trkpt lat="10.254442" lon="-67.917241">
        <ele>459.20</ele>
        <time>2022-10-26T10:10:46Z</time>
      </trkpt>
      <trkpt lat="10.254380" lon="-67.917217">
        <ele>459.20</ele>
        <time>2022-10-26T10:10:47Z</time>
      </trkpt>
      <trkpt lat="10.254315" lon="-67.917192">
        <ele>459.10</ele>
        <time>2022-10-26T10:10:48Z</time>
      </trkpt>
      <trkpt lat="10.254250" lon="-67.917165">
        <ele>459.10</ele>
        <time>2022-10-26T10:10:49Z</time>
      </trkpt>
      <trkpt lat="10.254178" lon="-67.917138">
        <ele>459.00</ele>
        <time>2022-10-26T10:10:50Z</time>
      </trkpt>
      <trkpt lat="10.254108" lon="-67.917111">
        <ele>459.00</ele>
        <time>2022-10-26T10:10:51Z</time>
      </trkpt>
      <trkpt lat="10.254034" lon="-67.917085">
        <ele>459.00</ele>
        <time>2022-10-26T10:10:52Z</time>
      </trkpt>
      <trkpt lat="10.253965" lon="-67.917056">
        <ele>458.90</ele>
        <time>2022-10-26T10:10:53Z</time>
      </trkpt>
      <trkpt lat="10.253897" lon="-67.917027">
        <ele>458.90</ele>
        <time>2022-10-26T10:10:54Z</time>
      </trkpt>
      <trkpt lat="10.253831" lon="-67.916996">
        <ele>458.90</ele>
        <time>2022-10-26T10:10:55Z</time>
      </trkpt>
      <trkpt lat="10.253768" lon="-67.916970">
        <ele>458.80</ele>
        <time>2022-10-26T10:10:56Z</time>
      </trkpt>
      <trkpt lat="10.253707" lon="-67.916945">
        <ele>458.80</ele>
        <time>2022-10-26T10:10:57Z</time>
      </trkpt>
      <trkpt lat="10.253648" lon="-67.916915">
        <ele>458.80</ele>
        <time>2022-10-26T10:10:58Z</time>
      </trkpt>
      <trkpt lat="10.253591" lon="-67.916884">
        <ele>458.80</ele>
        <time>2022-10-26T10:10:59Z</time>
      </trkpt>
      <trkpt lat="10.253537" lon="-67.916849">
        <ele>458.80</ele>
        <time>2022-10-26T10:11:00Z</time>
      </trkpt>
      <trkpt lat="10.253479" lon="-67.916812">
        <ele>458.80</ele>
        <time>2022-10-26T10:11:01Z</time>
      </trkpt>
      <trkpt lat="10.253420" lon="-67.916773">
        <ele>458.70</ele>
        <time>2022-10-26T10:11:02Z</time>
      </trkpt>
      <trkpt lat="10.253358" lon="-67.916735">
        <ele>458.70</ele>
        <time>2022-10-26T10:11:03Z</time>
      </trkpt>
      <trkpt lat="10.253294" lon="-67.916699">
        <ele>458.70</ele>
        <time>2022-10-26T10:11:04Z</time>
      </trkpt>
      <trkpt lat="10.253229" lon="-67.916661">
        <ele>458.60</ele>
        <time>2022-10-26T10:11:05Z</time>
      </trkpt>
      <trkpt lat="10.253164" lon="-67.916622">
        <ele>458.60</ele>
        <time>2022-10-26T10:11:06Z</time>
      </trkpt>
      <trkpt lat="10.253099" lon="-67.916582">
        <ele>458.60</ele>
        <time>2022-10-26T10:11:07Z</time>
      </trkpt>
      <trkpt lat="10.253033" lon="-67.916545">
        <ele>458.50</ele>
        <time>2022-10-26T10:11:08Z</time>
      </trkpt>
      <trkpt lat="10.252970" lon="-67.916508">
        <ele>458.50</ele>
        <time>2022-10-26T10:11:09Z</time>
      </trkpt>
      <trkpt lat="10.252910" lon="-67.916467">
        <ele>458.50</ele>
        <time>2022-10-26T10:11:10Z</time>
      </trkpt>
      <trkpt lat="10.252853" lon="-67.916427">
        <ele>458.50</ele>
        <time>2022-10-26T10:11:11Z</time>
      </trkpt>
      <trkpt lat="10.252798" lon="-67.916387">
        <ele>458.40</ele>
        <time>2022-10-26T10:11:12Z</time>
      </trkpt>
      <trkpt lat="10.252743" lon="-67.916348">
        <ele>458.40</ele>
        <time>2022-10-26T10:11:13Z</time>
      </trkpt>
      <trkpt lat="10.252688" lon="-67.916308">
        <ele>458.40</ele>
        <time>2022-10-26T10:11:14Z</time>
      </trkpt>
      <trkpt lat="10.252631" lon="-67.916270">
        <ele>458.40</ele>
        <time>2022-10-26T10:11:15Z</time>
      </trkpt>
      <trkpt lat="10.252574" lon="-67.916229">
        <ele>458.40</ele>
        <time>2022-10-26T10:11:16Z</time>
      </trkpt>
      <trkpt lat="10.252514" lon="-67.916191">
        <ele>458.30</ele>
        <time>2022-10-26T10:11:17Z</time>
      </trkpt>
      <trkpt lat="10.252453" lon="-67.916154">
        <ele>458.30</ele>
        <time>2022-10-26T10:11:18Z</time>
      </trkpt>
      <trkpt lat="10.252397" lon="-67.916116">
        <ele>458.30</ele>
        <time>2022-10-26T10:11:19Z</time>
      </trkpt>
      <trkpt lat="10.252347" lon="-67.916076">
        <ele>458.30</ele>
        <time>2022-10-26T10:11:20Z</time>
      </trkpt>
      <trkpt lat="10.252300" lon="-67.916036">
        <ele>458.20</ele>
        <time>2022-10-26T10:11:21Z</time>
      </trkpt>
      <trkpt lat="10.252251" lon="-67.915995">
        <ele>458.20</ele>
        <time>2022-10-26T10:11:22Z</time>
      </trkpt>
      <trkpt lat="10.252200" lon="-67.915952">
        <ele>458.10</ele>
        <time>2022-10-26T10:11:23Z</time>
      </trkpt>
      <trkpt lat="10.252151" lon="-67.915908">
        <ele>458.10</ele>
        <time>2022-10-26T10:11:24Z</time>
      </trkpt>
      <trkpt lat="10.252098" lon="-67.915863">
        <ele>458.10</ele>
        <time>2022-10-26T10:11:25Z</time>
      </trkpt>
      <trkpt lat="10.252047" lon="-67.915819">
        <ele>458.10</ele>
        <time>2022-10-26T10:11:26Z</time>
      </trkpt>
      <trkpt lat="10.251996" lon="-67.915774">
        <ele>458.10</ele>
        <time>2022-10-26T10:11:27Z</time>
      </trkpt>
      <trkpt lat="10.251947" lon="-67.915729">
        <ele>458.10</ele>
        <time>2022-10-26T10:11:28Z</time>
      </trkpt>
      <trkpt lat="10.251903" lon="-67.915685">
        <ele>458.10</ele>
        <time>2022-10-26T10:11:29Z</time>
      </trkpt>
      <trkpt lat="10.251861" lon="-67.915647">
        <ele>458.10</ele>
        <time>2022-10-26T10:11:30Z</time>
      </trkpt>
      <trkpt lat="10.251816" lon="-67.915604">
        <ele>458.20</ele>
        <time>2022-10-26T10:11:31Z</time>
      </trkpt>
      <trkpt lat="10.251767" lon="-67.915557">
        <ele>458.20</ele>
        <time>2022-10-26T10:11:32Z</time>
      </trkpt>
      <trkpt lat="10.251716" lon="-67.915503">
        <ele>458.20</ele>
        <time>2022-10-26T10:11:33Z</time>
      </trkpt>
      <trkpt lat="10.251663" lon="-67.915455">
        <ele>458.20</ele>
        <time>2022-10-26T10:11:34Z</time>
      </trkpt>
      <trkpt lat="10.251612" lon="-67.915407">
        <ele>458.20</ele>
        <time>2022-10-26T10:11:35Z</time>
      </trkpt>
      <trkpt lat="10.251564" lon="-67.915358">
        <ele>458.30</ele>
        <time>2022-10-26T10:11:36Z</time>
      </trkpt>
      <trkpt lat="10.251517" lon="-67.915312">
        <ele>458.30</ele>
        <time>2022-10-26T10:11:37Z</time>
      </trkpt>
      <trkpt lat="10.251469" lon="-67.915266">
        <ele>458.30</ele>
        <time>2022-10-26T10:11:38Z</time>
      </trkpt>
      <trkpt lat="10.251422" lon="-67.915221">
        <ele>458.40</ele>
        <time>2022-10-26T10:11:39Z</time>
      </trkpt>
      <trkpt lat="10.251377" lon="-67.915176">
        <ele>458.40</ele>
        <time>2022-10-26T10:11:40Z</time>
      </trkpt>
      <trkpt lat="10.251337" lon="-67.915129">
        <ele>458.50</ele>
        <time>2022-10-26T10:11:41Z</time>
      </trkpt>
      <trkpt lat="10.251297" lon="-67.915081">
        <ele>458.60</ele>
        <time>2022-10-26T10:11:42Z</time>
      </trkpt>
      <trkpt lat="10.251254" lon="-67.915033">
        <ele>458.70</ele>
        <time>2022-10-26T10:11:43Z</time>
      </trkpt>
      <trkpt lat="10.251208" lon="-67.914987">
        <ele>458.80</ele>
        <time>2022-10-26T10:11:44Z</time>
      </trkpt>
      <trkpt lat="10.251159" lon="-67.914942">
        <ele>458.90</ele>
        <time>2022-10-26T10:11:45Z</time>
      </trkpt>
      <trkpt lat="10.251105" lon="-67.914899">
        <ele>458.90</ele>
        <time>2022-10-26T10:11:46Z</time>
      </trkpt>
      <trkpt lat="10.251052" lon="-67.914860">
        <ele>459.00</ele>
        <time>2022-10-26T10:11:47Z</time>
      </trkpt>
      <trkpt lat="10.251000" lon="-67.914822">
        <ele>459.10</ele>
        <time>2022-10-26T10:11:48Z</time>
      </trkpt>
      <trkpt lat="10.250952" lon="-67.914784">
        <ele>459.20</ele>
        <time>2022-10-26T10:11:49Z</time>
      </trkpt>
      <trkpt lat="10.250903" lon="-67.914753">
        <ele>459.30</ele>
        <time>2022-10-26T10:11:50Z</time>
      </trkpt>
      <trkpt lat="10.250860" lon="-67.914717">
        <ele>459.40</ele>
        <time>2022-10-26T10:11:51Z</time>
      </trkpt>
      <trkpt lat="10.250816" lon="-67.914677">
        <ele>459.50</ele>
        <time>2022-10-26T10:11:52Z</time>
      </trkpt>
      <trkpt lat="10.250771" lon="-67.914639">
        <ele>459.60</ele>
        <time>2022-10-26T10:11:53Z</time>
      </trkpt>
      <trkpt lat="10.250726" lon="-67.914602">
        <ele>459.70</ele>
        <time>2022-10-26T10:11:54Z</time>
      </trkpt>
      <trkpt lat="10.250684" lon="-67.914568">
        <ele>459.80</ele>
        <time>2022-10-26T10:11:55Z</time>
      </trkpt>
      <trkpt lat="10.250644" lon="-67.914537">
        <ele>459.90</ele>
        <time>2022-10-26T10:11:56Z</time>
      </trkpt>
      <trkpt lat="10.250605" lon="-67.914509">
        <ele>460.00</ele>
        <time>2022-10-26T10:11:57Z</time>
      </trkpt>
      <trkpt lat="10.250564" lon="-67.914483">
        <ele>460.10</ele>
        <time>2022-10-26T10:11:58Z</time>
      </trkpt>
      <trkpt lat="10.250517" lon="-67.914459">
        <ele>460.20</ele>
        <time>2022-10-26T10:11:59Z</time>
      </trkpt>
      <trkpt lat="10.250477" lon="-67.914431">
        <ele>460.30</ele>
        <time>2022-10-26T10:12:00Z</time>
      </trkpt>
      <trkpt lat="10.250440" lon="-67.914401">
        <ele>460.40</ele>
        <time>2022-10-26T10:12:01Z</time>
      </trkpt>
      <trkpt lat="10.250399" lon="-67.914373">
        <ele>460.50</ele>
        <time>2022-10-26T10:12:02Z</time>
      </trkpt>
      <trkpt lat="10.250365" lon="-67.914343">
        <ele>460.60</ele>
        <time>2022-10-26T10:12:03Z</time>
      </trkpt>
      <trkpt lat="10.250335" lon="-67.914310">
        <ele>460.70</ele>
        <time>2022-10-26T10:12:04Z</time>
      </trkpt>
      <trkpt lat="10.250302" lon="-67.914281">
        <ele>460.80</ele>
        <time>2022-10-26T10:12:05Z</time>
      </trkpt>
      <trkpt lat="10.250268" lon="-67.914255">
        <ele>460.90</ele>
        <time>2022-10-26T10:12:06Z</time>
      </trkpt>
      <trkpt lat="10.250239" lon="-67.914231">
        <ele>461.00</ele>
        <time>2022-10-26T10:12:07Z</time>
      </trkpt>
      <trkpt lat="10.250212" lon="-67.914206">
        <ele>461.00</ele>
        <time>2022-10-26T10:12:08Z</time>
      </trkpt>
      <trkpt lat="10.250186" lon="-67.914178">
        <ele>461.10</ele>
        <time>2022-10-26T10:12:09Z</time>
      </trkpt>
      <trkpt lat="10.250165" lon="-67.914151">
        <ele>461.20</ele>
        <time>2022-10-26T10:12:10Z</time>
      </trkpt>
      <trkpt lat="10.250153" lon="-67.914122">
        <ele>461.30</ele>
        <time>2022-10-26T10:12:11Z</time>
      </trkpt>
      <trkpt lat="10.250142" lon="-67.914094">
        <ele>461.30</ele>
        <time>2022-10-26T10:12:12Z</time>
      </trkpt>
      <trkpt lat="10.250124" lon="-67.914059">
        <ele>461.40</ele>
        <time>2022-10-26T10:12:13Z</time>
      </trkpt>
      <trkpt lat="10.250104" lon="-67.914022">
        <ele>461.50</ele>
        <time>2022-10-26T10:12:14Z</time>
      </trkpt>
      <trkpt lat="10.250080" lon="-67.913986">
        <ele>461.60</ele>
        <time>2022-10-26T10:12:15Z</time>
      </trkpt>
      <trkpt lat="10.250053" lon="-67.913952">
        <ele>461.70</ele>
        <time>2022-10-26T10:12:16Z</time>
      </trkpt>
      <trkpt lat="10.250018" lon="-67.913916">
        <ele>461.80</ele>
        <time>2022-10-26T10:12:17Z</time>
      </trkpt>
      <trkpt lat="10.249984" lon="-67.913882">
        <ele>461.90</ele>
        <time>2022-10-26T10:12:18Z</time>
      </trkpt>
      <trkpt lat="10.249956" lon="-67.913848">
        <ele>462.00</ele>
        <time>2022-10-26T10:12:19Z</time>
      </trkpt>
      <trkpt lat="10.249928" lon="-67.913819">
        <ele>462.10</ele>
        <time>2022-10-26T10:12:20Z</time>
      </trkpt>
      <trkpt lat="10.249901" lon="-67.913787">
        <ele>462.20</ele>
        <time>2022-10-26T10:12:21Z</time>
      </trkpt>
      <trkpt lat="10.249874" lon="-67.913755">
        <ele>462.30</ele>
        <time>2022-10-26T10:12:22Z</time>
      </trkpt>
      <trkpt lat="10.249842" lon="-67.913723">
        <ele>462.40</ele>
        <time>2022-10-26T10:12:23Z</time>
      </trkpt>
      <trkpt lat="10.249809" lon="-67.913693">
        <ele>462.50</ele>
        <time>2022-10-26T10:12:24Z</time>
      </trkpt>
      <trkpt lat="10.249775" lon="-67.913662">
        <ele>462.60</ele>
        <time>2022-10-26T10:12:25Z</time>
      </trkpt>
      <trkpt lat="10.249745" lon="-67.913630">
        <ele>462.70</ele>
        <time>2022-10-26T10:12:26Z</time>
      </trkpt>
      <trkpt lat="10.249716" lon="-67.913598">
        <ele>462.70</ele>
        <time>2022-10-26T10:12:27Z</time>
      </trkpt>
      <trkpt lat="10.249687" lon="-67.913562">
        <ele>462.80</ele>
        <time>2022-10-26T10:12:28Z</time>
      </trkpt>
      <trkpt lat="10.249658" lon="-67.913528">
        <ele>462.90</ele>
        <time>2022-10-26T10:12:29Z</time>
      </trkpt>
      <trkpt lat="10.249627" lon="-67.913494">
        <ele>463.00</ele>
        <time>2022-10-26T10:12:30Z</time>
      </trkpt>
      <trkpt lat="10.249596" lon="-67.913461">
        <ele>463.10</ele>
        <time>2022-10-26T10:12:31Z</time>
      </trkpt>
      <trkpt lat="10.249566" lon="-67.913428">
        <ele>463.20</ele>
        <time>2022-10-26T10:12:32Z</time>
      </trkpt>
      <trkpt lat="10.249534" lon="-67.913394">
        <ele>463.20</ele>
        <time>2022-10-26T10:12:33Z</time>
      </trkpt>
      <trkpt lat="10.249503" lon="-67.913358">
        <ele>463.30</ele>
        <time>2022-10-26T10:12:34Z</time>
      </trkpt>
      <trkpt lat="10.249475" lon="-67.913325">
        <ele>463.40</ele>
        <time>2022-10-26T10:12:35Z</time>
      </trkpt>
      <trkpt lat="10.249444" lon="-67.913295">
        <ele>463.50</ele>
        <time>2022-10-26T10:12:36Z</time>
      </trkpt>
      <trkpt lat="10.249413" lon="-67.913269">
        <ele>463.50</ele>
        <time>2022-10-26T10:12:37Z</time>
      </trkpt>
      <trkpt lat="10.249384" lon="-67.913242">
        <ele>463.60</ele>
        <time>2022-10-26T10:12:38Z</time>
      </trkpt>
      <trkpt lat="10.249349" lon="-67.913209">
        <ele>463.70</ele>
        <time>2022-10-26T10:12:39Z</time>
      </trkpt>
      <trkpt lat="10.249313" lon="-67.913178">
        <ele>463.70</ele>
        <time>2022-10-26T10:12:40Z</time>
      </trkpt>
      <trkpt lat="10.249277" lon="-67.913149">
        <ele>463.80</ele>
        <time>2022-10-26T10:12:41Z</time>
      </trkpt>
      <trkpt lat="10.249248" lon="-67.913122">
        <ele>463.80</ele>
        <time>2022-10-26T10:12:42Z</time>
      </trkpt>
      <trkpt lat="10.249224" lon="-67.913097">
        <ele>463.90</ele>
        <time>2022-10-26T10:12:43Z</time>
      </trkpt>
      <trkpt lat="10.249205" lon="-67.913073">
        <ele>463.90</ele>
        <time>2022-10-26T10:12:44Z</time>
      </trkpt>
      <trkpt lat="10.249188" lon="-67.913047">
        <ele>463.90</ele>
        <time>2022-10-26T10:12:45Z</time>
      </trkpt>
      <trkpt lat="10.249171" lon="-67.913018">
        <ele>463.90</ele>
        <time>2022-10-26T10:12:46Z</time>
      </trkpt>
      <trkpt lat="10.249155" lon="-67.912988">
        <ele>463.90</ele>
        <time>2022-10-26T10:12:47Z</time>
      </trkpt>
      <trkpt lat="10.249132" lon="-67.912959">
        <ele>464.00</ele>
        <time>2022-10-26T10:12:48Z</time>
      </trkpt>
      <trkpt lat="10.249105" lon="-67.912925">
        <ele>464.00</ele>
        <time>2022-10-26T10:12:49Z</time>
      </trkpt>
      <trkpt lat="10.249080" lon="-67.912883">
        <ele>464.00</ele>
        <time>2022-10-26T10:12:50Z</time>
      </trkpt>
      <trkpt lat="10.249053" lon="-67.912841">
        <ele>464.10</ele>
        <time>2022-10-26T10:12:51Z</time>
      </trkpt>
      <trkpt lat="10.249024" lon="-67.912802">
        <ele>464.10</ele>
        <time>2022-10-26T10:12:52Z</time>
      </trkpt>
      <trkpt lat="10.248992" lon="-67.912764">
        <ele>464.10</ele>
        <time>2022-10-26T10:12:53Z</time>
      </trkpt>
      <trkpt lat="10.248963" lon="-67.912726">
        <ele>464.10</ele>
        <time>2022-10-26T10:12:54Z</time>
      </trkpt>
      <trkpt lat="10.248938" lon="-67.912685">
        <ele>464.10</ele>
        <time>2022-10-26T10:12:55Z</time>
      </trkpt>
      <trkpt lat="10.248903" lon="-67.912647">
        <ele>464.20</ele>
        <time>2022-10-26T10:12:56Z</time>
      </trkpt>
      <trkpt lat="10.248863" lon="-67.912612">
        <ele>464.20</ele>
        <time>2022-10-26T10:12:57Z</time>
      </trkpt>
      <trkpt lat="10.248818" lon="-67.912574">
        <ele>464.20</ele>
        <time>2022-10-26T10:12:58Z</time>
      </trkpt>
      <trkpt lat="10.248781" lon="-67.912543">
        <ele>464.20</ele>
        <time>2022-10-26T10:12:59Z</time>
      </trkpt>
      <trkpt lat="10.248742" lon="-67.912507">
        <ele>464.20</ele>
        <time>2022-10-26T10:13:00Z</time>
      </trkpt>
      <trkpt lat="10.248699" lon="-67.912465">
        <ele>464.20</ele>
        <time>2022-10-26T10:13:01Z</time>
      </trkpt>
      <trkpt lat="10.248660" lon="-67.912420">
        <ele>464.20</ele>
        <time>2022-10-26T10:13:02Z</time>
      </trkpt>
      <trkpt lat="10.248621" lon="-67.912377">
        <ele>464.20</ele>
        <time>2022-10-26T10:13:03Z</time>
      </trkpt>
      <trkpt lat="10.248584" lon="-67.912331">
        <ele>464.20</ele>
        <time>2022-10-26T10:13:04Z</time>
      </trkpt>
      <trkpt lat="10.248546" lon="-67.912284">
        <ele>464.20</ele>
        <time>2022-10-26T10:13:05Z</time>
      </trkpt>
      <trkpt lat="10.248505" lon="-67.912236">
        <ele>464.20</ele>
        <time>2022-10-26T10:13:06Z</time>
      </trkpt>
      <trkpt lat="10.248460" lon="-67.912188">
        <ele>464.20</ele>
        <time>2022-10-26T10:13:07Z</time>
      </trkpt>
      <trkpt lat="10.248413" lon="-67.912141">
        <ele>464.20</ele>
        <time>2022-10-26T10:13:08Z</time>
      </trkpt>
      <trkpt lat="10.248362" lon="-67.912096">
        <ele>464.20</ele>
        <time>2022-10-26T10:13:09Z</time>
      </trkpt>
      <trkpt lat="10.248311" lon="-67.912050">
        <ele>464.20</ele>
        <time>2022-10-26T10:13:10Z</time>
      </trkpt>
      <trkpt lat="10.248261" lon="-67.912003">
        <ele>464.20</ele>
        <time>2022-10-26T10:13:11Z</time>
      </trkpt>
      <trkpt lat="10.248214" lon="-67.911952">
        <ele>464.20</ele>
        <time>2022-10-26T10:13:12Z</time>
      </trkpt>
      <trkpt lat="10.248168" lon="-67.911900">
        <ele>464.20</ele>
        <time>2022-10-26T10:13:13Z</time>
      </trkpt>
      <trkpt lat="10.248127" lon="-67.911850">
        <ele>464.10</ele>
        <time>2022-10-26T10:13:14Z</time>
      </trkpt>
      <trkpt lat="10.248087" lon="-67.911803">
        <ele>464.10</ele>
        <time>2022-10-26T10:13:15Z</time>
      </trkpt>
      <trkpt lat="10.248044" lon="-67.911756">
        <ele>464.00</ele>
        <time>2022-10-26T10:13:16Z</time>
      </trkpt>
      <trkpt lat="10.247999" lon="-67.911713">
        <ele>464.00</ele>
        <time>2022-10-26T10:13:17Z</time>
      </trkpt>
      <trkpt lat="10.247956" lon="-67.911671">
        <ele>463.90</ele>
        <time>2022-10-26T10:13:18Z</time>
      </trkpt>
      <trkpt lat="10.247916" lon="-67.911629">
        <ele>463.90</ele>
        <time>2022-10-26T10:13:19Z</time>
      </trkpt>
      <trkpt lat="10.247874" lon="-67.911587">
        <ele>463.80</ele>
        <time>2022-10-26T10:13:20Z</time>
      </trkpt>
      <trkpt lat="10.247832" lon="-67.911545">
        <ele>463.70</ele>
        <time>2022-10-26T10:13:21Z</time>
      </trkpt>
      <trkpt lat="10.247790" lon="-67.911503">
        <ele>463.60</ele>
        <time>2022-10-26T10:13:22Z</time>
      </trkpt>
      <trkpt lat="10.247747" lon="-67.911460">
        <ele>463.50</ele>
        <time>2022-10-26T10:13:23Z</time>
      </trkpt>
      <trkpt lat="10.247704" lon="-67.911417">
        <ele>463.40</ele>
        <time>2022-10-26T10:13:24Z</time>
      </trkpt>
      <trkpt lat="10.247663" lon="-67.911373">
        <ele>463.30</ele>
        <time>2022-10-26T10:13:25Z</time>
      </trkpt>
      <trkpt lat="10.247618" lon="-67.911325">
        <ele>463.10</ele>
        <time>2022-10-26T10:13:26Z</time>
      </trkpt>
      <trkpt lat="10.247571" lon="-67.911277">
        <ele>463.00</ele>
        <time>2022-10-26T10:13:27Z</time>
      </trkpt>
      <trkpt lat="10.247481" lon="-67.911187">
        <ele>462.70</ele>
        <time>2022-10-26T10:13:29Z</time>
      </trkpt>
      <trkpt lat="10.247432" lon="-67.911141">
        <ele>462.50</ele>
        <time>2022-10-26T10:13:30Z</time>
      </trkpt>
      <trkpt lat="10.247384" lon="-67.911093">
        <ele>462.30</ele>
        <time>2022-10-26T10:13:31Z</time>
      </trkpt>
      <trkpt lat="10.247334" lon="-67.911042">
        <ele>462.10</ele>
        <time>2022-10-26T10:13:32Z</time>
      </trkpt>
      <trkpt lat="10.247285" lon="-67.910990">
        <ele>461.90</ele>
        <time>2022-10-26T10:13:33Z</time>
      </trkpt>
      <trkpt lat="10.247233" lon="-67.910937">
        <ele>461.60</ele>
        <time>2022-10-26T10:13:34Z</time>
      </trkpt>
      <trkpt lat="10.247182" lon="-67.910886">
        <ele>461.40</ele>
        <time>2022-10-26T10:13:35Z</time>
      </trkpt>
      <trkpt lat="10.247122" lon="-67.910840">
        <ele>461.20</ele>
        <time>2022-10-26T10:13:36Z</time>
      </trkpt>
      <trkpt lat="10.247057" lon="-67.910793">
        <ele>460.90</ele>
        <time>2022-10-26T10:13:37Z</time>
      </trkpt>
      <trkpt lat="10.246997" lon="-67.910745">
        <ele>460.70</ele>
        <time>2022-10-26T10:13:38Z</time>
      </trkpt>
      <trkpt lat="10.246942" lon="-67.910691">
        <ele>460.40</ele>
        <time>2022-10-26T10:13:39Z</time>
      </trkpt>
      <trkpt lat="10.246886" lon="-67.910637">
        <ele>460.10</ele>
        <time>2022-10-26T10:13:40Z</time>
      </trkpt>
      <trkpt lat="10.246827" lon="-67.910582">
        <ele>459.80</ele>
        <time>2022-10-26T10:13:41Z</time>
      </trkpt>
      <trkpt lat="10.246771" lon="-67.910528">
        <ele>459.60</ele>
        <time>2022-10-26T10:13:42Z</time>
      </trkpt>
      <trkpt lat="10.246717" lon="-67.910472">
        <ele>459.30</ele>
        <time>2022-10-26T10:13:43Z</time>
      </trkpt>
      <trkpt lat="10.246660" lon="-67.910422">
        <ele>459.00</ele>
        <time>2022-10-26T10:13:44Z</time>
      </trkpt>
      <trkpt lat="10.246597" lon="-67.910370">
        <ele>458.80</ele>
        <time>2022-10-26T10:13:45Z</time>
      </trkpt>
      <trkpt lat="10.246533" lon="-67.910320">
        <ele>458.50</ele>
        <time>2022-10-26T10:13:46Z</time>
      </trkpt>
      <trkpt lat="10.246468" lon="-67.910264">
        <ele>458.20</ele>
        <time>2022-10-26T10:13:47Z</time>
      </trkpt>
      <trkpt lat="10.246406" lon="-67.910203">
        <ele>457.90</ele>
        <time>2022-10-26T10:13:48Z</time>
      </trkpt>
      <trkpt lat="10.246348" lon="-67.910141">
        <ele>457.60</ele>
        <time>2022-10-26T10:13:49Z</time>
      </trkpt>
      <trkpt lat="10.246285" lon="-67.910079">
        <ele>457.30</ele>
        <time>2022-10-26T10:13:50Z</time>
      </trkpt>
      <trkpt lat="10.246221" lon="-67.910015">
        <ele>457.10</ele>
        <time>2022-10-26T10:13:51Z</time>
      </trkpt>
      <trkpt lat="10.246163" lon="-67.909951">
        <ele>456.80</ele>
        <time>2022-10-26T10:13:52Z</time>
      </trkpt>
      <trkpt lat="10.246106" lon="-67.909886">
        <ele>456.60</ele>
        <time>2022-10-26T10:13:53Z</time>
      </trkpt>
      <trkpt lat="10.246052" lon="-67.909823">
        <ele>456.30</ele>
        <time>2022-10-26T10:13:54Z</time>
      </trkpt>
      <trkpt lat="10.245995" lon="-67.909758">
        <ele>456.10</ele>
        <time>2022-10-26T10:13:55Z</time>
      </trkpt>
      <trkpt lat="10.245938" lon="-67.909695">
        <ele>455.90</ele>
        <time>2022-10-26T10:13:56Z</time>
      </trkpt>
      <trkpt lat="10.245880" lon="-67.909630">
        <ele>455.60</ele>
        <time>2022-10-26T10:13:57Z</time>
      </trkpt>
      <trkpt lat="10.245826" lon="-67.909568">
        <ele>455.40</ele>
        <time>2022-10-26T10:13:58Z</time>
      </trkpt>
      <trkpt lat="10.245773" lon="-67.909505">
        <ele>455.30</ele>
        <time>2022-10-26T10:13:59Z</time>
      </trkpt>
      <trkpt lat="10.245718" lon="-67.909443">
        <ele>455.10</ele>
        <time>2022-10-26T10:14:00Z</time>
      </trkpt>
      <trkpt lat="10.245666" lon="-67.909389">
        <ele>455.00</ele>
        <time>2022-10-26T10:14:01Z</time>
      </trkpt>
      <trkpt lat="10.245564" lon="-67.909291">
        <ele>454.70</ele>
        <time>2022-10-26T10:14:03Z</time>
      </trkpt>
      <trkpt lat="10.245514" lon="-67.909246">
        <ele>454.60</ele>
        <time>2022-10-26T10:14:04Z</time>
      </trkpt>
      <trkpt lat="10.245466" lon="-67.909199">
        <ele>454.50</ele>
        <time>2022-10-26T10:14:05Z</time>
      </trkpt>
      <trkpt lat="10.245420" lon="-67.909146">
        <ele>454.40</ele>
        <time>2022-10-26T10:14:06Z</time>
      </trkpt>
      <trkpt lat="10.245375" lon="-67.909090">
        <ele>454.40</ele>
        <time>2022-10-26T10:14:07Z</time>
      </trkpt>
      <trkpt lat="10.245330" lon="-67.909033">
        <ele>454.40</ele>
        <time>2022-10-26T10:14:08Z</time>
      </trkpt>
      <trkpt lat="10.245281" lon="-67.908972">
        <ele>454.30</ele>
        <time>2022-10-26T10:14:09Z</time>
      </trkpt>
      <trkpt lat="10.245229" lon="-67.908913">
        <ele>454.30</ele>
        <time>2022-10-26T10:14:10Z</time>
      </trkpt>
      <trkpt lat="10.245174" lon="-67.908853">
        <ele>454.30</ele>
        <time>2022-10-26T10:14:11Z</time>
      </trkpt>
      <trkpt lat="10.245065" lon="-67.908741">
        <ele>454.20</ele>
        <time>2022-10-26T10:14:13Z</time>
      </trkpt>
      <trkpt lat="10.245004" lon="-67.908686">
        <ele>454.10</ele>
        <time>2022-10-26T10:14:14Z</time>
      </trkpt>
      <trkpt lat="10.244877" lon="-67.908583">
        <ele>454.10</ele>
        <time>2022-10-26T10:14:16Z</time>
      </trkpt>
      <trkpt lat="10.244818" lon="-67.908527">
        <ele>454.00</ele>
        <time>2022-10-26T10:14:17Z</time>
      </trkpt>
      <trkpt lat="10.244763" lon="-67.908469">
        <ele>454.00</ele>
        <time>2022-10-26T10:14:18Z</time>
      </trkpt>
      <trkpt lat="10.244711" lon="-67.908410">
        <ele>454.00</ele>
        <time>2022-10-26T10:14:19Z</time>
      </trkpt>
      <trkpt lat="10.244660" lon="-67.908351">
        <ele>454.00</ele>
        <time>2022-10-26T10:14:20Z</time>
      </trkpt>
      <trkpt lat="10.244607" lon="-67.908293">
        <ele>454.00</ele>
        <time>2022-10-26T10:14:21Z</time>
      </trkpt>
      <trkpt lat="10.244548" lon="-67.908239">
        <ele>454.00</ele>
        <time>2022-10-26T10:14:22Z</time>
      </trkpt>
      <trkpt lat="10.244493" lon="-67.908185">
        <ele>453.90</ele>
        <time>2022-10-26T10:14:23Z</time>
      </trkpt>
      <trkpt lat="10.244439" lon="-67.908132">
        <ele>453.90</ele>
        <time>2022-10-26T10:14:24Z</time>
      </trkpt>
      <trkpt lat="10.244384" lon="-67.908077">
        <ele>453.80</ele>
        <time>2022-10-26T10:14:25Z</time>
      </trkpt>
      <trkpt lat="10.244329" lon="-67.908020">
        <ele>453.80</ele>
        <time>2022-10-26T10:14:26Z</time>
      </trkpt>
      <trkpt lat="10.244274" lon="-67.907965">
        <ele>453.80</ele>
        <time>2022-10-26T10:14:27Z</time>
      </trkpt>
      <trkpt lat="10.244220" lon="-67.907908">
        <ele>453.80</ele>
        <time>2022-10-26T10:14:28Z</time>
      </trkpt>
      <trkpt lat="10.244165" lon="-67.907853">
        <ele>453.80</ele>
        <time>2022-10-26T10:14:29Z</time>
      </trkpt>
      <trkpt lat="10.244110" lon="-67.907797">
        <ele>453.70</ele>
        <time>2022-10-26T10:14:30Z</time>
      </trkpt>
      <trkpt lat="10.244054" lon="-67.907742">
        <ele>453.70</ele>
        <time>2022-10-26T10:14:31Z</time>
      </trkpt>
      <trkpt lat="10.243994" lon="-67.907685">
        <ele>453.70</ele>
        <time>2022-10-26T10:14:32Z</time>
      </trkpt>
      <trkpt lat="10.243936" lon="-67.907626">
        <ele>453.70</ele>
        <time>2022-10-26T10:14:33Z</time>
      </trkpt>
      <trkpt lat="10.243884" lon="-67.907566">
        <ele>453.70</ele>
        <time>2022-10-26T10:14:34Z</time>
      </trkpt>
      <trkpt lat="10.243834" lon="-67.907507">
        <ele>453.60</ele>
        <time>2022-10-26T10:14:35Z</time>
      </trkpt>
      <trkpt lat="10.243782" lon="-67.907451">
        <ele>453.60</ele>
        <time>2022-10-26T10:14:36Z</time>
      </trkpt>
      <trkpt lat="10.243730" lon="-67.907398">
        <ele>453.60</ele>
        <time>2022-10-26T10:14:37Z</time>
      </trkpt>
      <trkpt lat="10.243680" lon="-67.907345">
        <ele>453.60</ele>
        <time>2022-10-26T10:14:38Z</time>
      </trkpt>
      <trkpt lat="10.243630" lon="-67.907294">
        <ele>453.50</ele>
        <time>2022-10-26T10:14:39Z</time>
      </trkpt>
      <trkpt lat="10.243583" lon="-67.907245">
        <ele>453.50</ele>
        <time>2022-10-26T10:14:40Z</time>
      </trkpt>
      <trkpt lat="10.243537" lon="-67.907198">
        <ele>453.50</ele>
        <time>2022-10-26T10:14:41Z</time>
      </trkpt>
      <trkpt lat="10.243491" lon="-67.907149">
        <ele>453.50</ele>
        <time>2022-10-26T10:14:42Z</time>
      </trkpt>
      <trkpt lat="10.243444" lon="-67.907100">
        <ele>453.40</ele>
        <time>2022-10-26T10:14:43Z</time>
      </trkpt>
      <trkpt lat="10.243402" lon="-67.907051">
        <ele>453.40</ele>
        <time>2022-10-26T10:14:44Z</time>
      </trkpt>
      <trkpt lat="10.243360" lon="-67.907002">
        <ele>453.40</ele>
        <time>2022-10-26T10:14:45Z</time>
      </trkpt>
      <trkpt lat="10.243315" lon="-67.906952">
        <ele>453.30</ele>
        <time>2022-10-26T10:14:46Z</time>
      </trkpt>
      <trkpt lat="10.243273" lon="-67.906904">
        <ele>453.30</ele>
        <time>2022-10-26T10:14:47Z</time>
      </trkpt>
      <trkpt lat="10.243231" lon="-67.906855">
        <ele>453.40</ele>
        <time>2022-10-26T10:14:48Z</time>
      </trkpt>
      <trkpt lat="10.243190" lon="-67.906803">
        <ele>453.40</ele>
        <time>2022-10-26T10:14:49Z</time>
      </trkpt>
      <trkpt lat="10.243146" lon="-67.906752">
        <ele>453.40</ele>
        <time>2022-10-26T10:14:50Z</time>
      </trkpt>
      <trkpt lat="10.243099" lon="-67.906703">
        <ele>453.30</ele>
        <time>2022-10-26T10:14:51Z</time>
      </trkpt>
      <trkpt lat="10.243051" lon="-67.906654">
        <ele>453.30</ele>
        <time>2022-10-26T10:14:52Z</time>
      </trkpt>
      <trkpt lat="10.243008" lon="-67.906604">
        <ele>453.30</ele>
        <time>2022-10-26T10:14:53Z</time>
      </trkpt>
      <trkpt lat="10.242968" lon="-67.906550">
        <ele>453.30</ele>
        <time>2022-10-26T10:14:54Z</time>
      </trkpt>
      <trkpt lat="10.242928" lon="-67.906500">
        <ele>453.20</ele>
        <time>2022-10-26T10:14:55Z</time>
      </trkpt>
      <trkpt lat="10.242882" lon="-67.906452">
        <ele>453.20</ele>
        <time>2022-10-26T10:14:56Z</time>
      </trkpt>
      <trkpt lat="10.242832" lon="-67.906401">
        <ele>453.20</ele>
        <time>2022-10-26T10:14:57Z</time>
      </trkpt>
      <trkpt lat="10.242781" lon="-67.906352">
        <ele>453.10</ele>
        <time>2022-10-26T10:14:58Z</time>
      </trkpt>
      <trkpt lat="10.242727" lon="-67.906303">
        <ele>453.10</ele>
        <time>2022-10-26T10:14:59Z</time>
      </trkpt>
      <trkpt lat="10.242667" lon="-67.906250">
        <ele>453.00</ele>
        <time>2022-10-26T10:15:00Z</time>
      </trkpt>
      <trkpt lat="10.242606" lon="-67.906196">
        <ele>453.00</ele>
        <time>2022-10-26T10:15:01Z</time>
      </trkpt>
      <trkpt lat="10.242542" lon="-67.906140">
        <ele>453.00</ele>
        <time>2022-10-26T10:15:02Z</time>
      </trkpt>
      <trkpt lat="10.242480" lon="-67.906086">
        <ele>453.00</ele>
        <time>2022-10-26T10:15:03Z</time>
      </trkpt>
      <trkpt lat="10.242425" lon="-67.906031">
        <ele>453.00</ele>
        <time>2022-10-26T10:15:04Z</time>
      </trkpt>
      <trkpt lat="10.242373" lon="-67.905973">
        <ele>453.00</ele>
        <time>2022-10-26T10:15:05Z</time>
      </trkpt>
      <trkpt lat="10.242318" lon="-67.905914">
        <ele>452.90</ele>
        <time>2022-10-26T10:15:06Z</time>
      </trkpt>
      <trkpt lat="10.242266" lon="-67.905857">
        <ele>452.90</ele>
        <time>2022-10-26T10:15:07Z</time>
      </trkpt>
      <trkpt lat="10.242214" lon="-67.905797">
        <ele>452.80</ele>
        <time>2022-10-26T10:15:08Z</time>
      </trkpt>
      <trkpt lat="10.242164" lon="-67.905740">
        <ele>452.80</ele>
        <time>2022-10-26T10:15:09Z</time>
      </trkpt>
      <trkpt lat="10.242112" lon="-67.905684">
        <ele>452.70</ele>
        <time>2022-10-26T10:15:10Z</time>
      </trkpt>
      <trkpt lat="10.242057" lon="-67.905631">
        <ele>452.60</ele>
        <time>2022-10-26T10:15:11Z</time>
      </trkpt>
      <trkpt lat="10.241999" lon="-67.905580">
        <ele>452.50</ele>
        <time>2022-10-26T10:15:12Z</time>
      </trkpt>
      <trkpt lat="10.241946" lon="-67.905532">
        <ele>452.40</ele>
        <time>2022-10-26T10:15:13Z</time>
      </trkpt>
      <trkpt lat="10.241895" lon="-67.905484">
        <ele>452.30</ele>
        <time>2022-10-26T10:15:14Z</time>
      </trkpt>
      <trkpt lat="10.241845" lon="-67.905437">
        <ele>452.20</ele>
        <time>2022-10-26T10:15:15Z</time>
      </trkpt>
      <trkpt lat="10.241795" lon="-67.905388">
        <ele>452.20</ele>
        <time>2022-10-26T10:15:16Z</time>
      </trkpt>
      <trkpt lat="10.241747" lon="-67.905336">
        <ele>452.10</ele>
        <time>2022-10-26T10:15:17Z</time>
      </trkpt>
      <trkpt lat="10.241700" lon="-67.905288">
        <ele>452.00</ele>
        <time>2022-10-26T10:15:18Z</time>
      </trkpt>
      <trkpt lat="10.241650" lon="-67.905240">
        <ele>451.90</ele>
        <time>2022-10-26T10:15:19Z</time>
      </trkpt>
      <trkpt lat="10.241603" lon="-67.905195">
        <ele>451.90</ele>
        <time>2022-10-26T10:15:20Z</time>
      </trkpt>
      <trkpt lat="10.241555" lon="-67.905152">
        <ele>451.80</ele>
        <time>2022-10-26T10:15:21Z</time>
      </trkpt>
      <trkpt lat="10.241504" lon="-67.905109">
        <ele>451.70</ele>
        <time>2022-10-26T10:15:22Z</time>
      </trkpt>
      <trkpt lat="10.241453" lon="-67.905068">
        <ele>451.70</ele>
        <time>2022-10-26T10:15:23Z</time>
      </trkpt>
      <trkpt lat="10.241399" lon="-67.905030">
        <ele>451.60</ele>
        <time>2022-10-26T10:15:24Z</time>
      </trkpt>
      <trkpt lat="10.241348" lon="-67.904993">
        <ele>451.60</ele>
        <time>2022-10-26T10:15:25Z</time>
      </trkpt>
      <trkpt lat="10.241301" lon="-67.904956">
        <ele>451.60</ele>
        <time>2022-10-26T10:15:26Z</time>
      </trkpt>
      <trkpt lat="10.241253" lon="-67.904917">
        <ele>451.60</ele>
        <time>2022-10-26T10:15:27Z</time>
      </trkpt>
      <trkpt lat="10.241205" lon="-67.904881">
        <ele>451.60</ele>
        <time>2022-10-26T10:15:28Z</time>
      </trkpt>
      <trkpt lat="10.241159" lon="-67.904848">
        <ele>451.60</ele>
        <time>2022-10-26T10:15:29Z</time>
      </trkpt>
      <trkpt lat="10.241114" lon="-67.904814">
        <ele>451.60</ele>
        <time>2022-10-26T10:15:30Z</time>
      </trkpt>
      <trkpt lat="10.241070" lon="-67.904777">
        <ele>451.50</ele>
        <time>2022-10-26T10:15:31Z</time>
      </trkpt>
      <trkpt lat="10.241028" lon="-67.904741">
        <ele>451.50</ele>
        <time>2022-10-26T10:15:32Z</time>
      </trkpt>
      <trkpt lat="10.240987" lon="-67.904708">
        <ele>451.40</ele>
        <time>2022-10-26T10:15:33Z</time>
      </trkpt>
      <trkpt lat="10.240942" lon="-67.904674">
        <ele>451.40</ele>
        <time>2022-10-26T10:15:34Z</time>
      </trkpt>
      <trkpt lat="10.240892" lon="-67.904643">
        <ele>451.30</ele>
        <time>2022-10-26T10:15:35Z</time>
      </trkpt>
      <trkpt lat="10.240840" lon="-67.904613">
        <ele>451.30</ele>
        <time>2022-10-26T10:15:36Z</time>
      </trkpt>
      <trkpt lat="10.240783" lon="-67.904581">
        <ele>451.30</ele>
        <time>2022-10-26T10:15:37Z</time>
      </trkpt>
      <trkpt lat="10.240723" lon="-67.904548">
        <ele>451.20</ele>
        <time>2022-10-26T10:15:38Z</time>
      </trkpt>
      <trkpt lat="10.240661" lon="-67.904513">
        <ele>451.20</ele>
        <time>2022-10-26T10:15:39Z</time>
      </trkpt>
      <trkpt lat="10.240600" lon="-67.904479">
        <ele>451.20</ele>
        <time>2022-10-26T10:15:40Z</time>
      </trkpt>
      <trkpt lat="10.240536" lon="-67.904446">
        <ele>451.20</ele>
        <time>2022-10-26T10:15:41Z</time>
      </trkpt>
      <trkpt lat="10.240472" lon="-67.904416">
        <ele>451.10</ele>
        <time>2022-10-26T10:15:42Z</time>
      </trkpt>
      <trkpt lat="10.240412" lon="-67.904387">
        <ele>451.10</ele>
        <time>2022-10-26T10:15:43Z</time>
      </trkpt>
      <trkpt lat="10.240355" lon="-67.904359">
        <ele>451.10</ele>
        <time>2022-10-26T10:15:44Z</time>
      </trkpt>
      <trkpt lat="10.240293" lon="-67.904333">
        <ele>451.00</ele>
        <time>2022-10-26T10:15:45Z</time>
      </trkpt>
      <trkpt lat="10.240223" lon="-67.904304">
        <ele>451.00</ele>
        <time>2022-10-26T10:15:46Z</time>
      </trkpt>
      <trkpt lat="10.240152" lon="-67.904276">
        <ele>450.90</ele>
        <time>2022-10-26T10:15:47Z</time>
      </trkpt>
      <trkpt lat="10.240085" lon="-67.904248">
        <ele>450.80</ele>
        <time>2022-10-26T10:15:48Z</time>
      </trkpt>
      <trkpt lat="10.240019" lon="-67.904218">
        <ele>450.80</ele>
        <time>2022-10-26T10:15:49Z</time>
      </trkpt>
      <trkpt lat="10.239953" lon="-67.904187">
        <ele>450.70</ele>
        <time>2022-10-26T10:15:50Z</time>
      </trkpt>
      <trkpt lat="10.239889" lon="-67.904158">
        <ele>450.70</ele>
        <time>2022-10-26T10:15:51Z</time>
      </trkpt>
      <trkpt lat="10.239822" lon="-67.904129">
        <ele>450.70</ele>
        <time>2022-10-26T10:15:52Z</time>
      </trkpt>
      <trkpt lat="10.239757" lon="-67.904103">
        <ele>450.60</ele>
        <time>2022-10-26T10:15:53Z</time>
      </trkpt>
      <trkpt lat="10.239693" lon="-67.904080">
        <ele>450.60</ele>
        <time>2022-10-26T10:15:54Z</time>
      </trkpt>
      <trkpt lat="10.239632" lon="-67.904060">
        <ele>450.60</ele>
        <time>2022-10-26T10:15:55Z</time>
      </trkpt>
      <trkpt lat="10.239570" lon="-67.904041">
        <ele>450.60</ele>
        <time>2022-10-26T10:15:56Z</time>
      </trkpt>
      <trkpt lat="10.239507" lon="-67.904025">
        <ele>450.60</ele>
        <time>2022-10-26T10:15:57Z</time>
      </trkpt>
      <trkpt lat="10.239442" lon="-67.904009">
        <ele>450.50</ele>
        <time>2022-10-26T10:15:58Z</time>
      </trkpt>
      <trkpt lat="10.239376" lon="-67.903995">
        <ele>450.50</ele>
        <time>2022-10-26T10:15:59Z</time>
      </trkpt>
      <trkpt lat="10.239313" lon="-67.903982">
        <ele>450.50</ele>
        <time>2022-10-26T10:16:00Z</time>
      </trkpt>
      <trkpt lat="10.239250" lon="-67.903969">
        <ele>450.50</ele>
        <time>2022-10-26T10:16:01Z</time>
      </trkpt>
      <trkpt lat="10.239187" lon="-67.903957">
        <ele>450.50</ele>
        <time>2022-10-26T10:16:02Z</time>
      </trkpt>
      <trkpt lat="10.239123" lon="-67.903945">
        <ele>450.50</ele>
        <time>2022-10-26T10:16:03Z</time>
      </trkpt>
      <trkpt lat="10.239061" lon="-67.903931">
        <ele>450.50</ele>
        <time>2022-10-26T10:16:04Z</time>
      </trkpt>
      <trkpt lat="10.238996" lon="-67.903918">
        <ele>450.50</ele>
        <time>2022-10-26T10:16:05Z</time>
      </trkpt>
      <trkpt lat="10.238932" lon="-67.903902">
        <ele>450.50</ele>
        <time>2022-10-26T10:16:06Z</time>
      </trkpt>
      <trkpt lat="10.238870" lon="-67.903888">
        <ele>450.50</ele>
        <time>2022-10-26T10:16:07Z</time>
      </trkpt>
      <trkpt lat="10.238806" lon="-67.903877">
        <ele>450.50</ele>
        <time>2022-10-26T10:16:08Z</time>
      </trkpt>
      <trkpt lat="10.238744" lon="-67.903864">
        <ele>450.40</ele>
        <time>2022-10-26T10:16:09Z</time>
      </trkpt>
      <trkpt lat="10.238678" lon="-67.903851">
        <ele>450.40</ele>
        <time>2022-10-26T10:16:10Z</time>
      </trkpt>
      <trkpt lat="10.238611" lon="-67.903838">
        <ele>450.40</ele>
        <time>2022-10-26T10:16:11Z</time>
      </trkpt>
      <trkpt lat="10.238547" lon="-67.903824">
        <ele>450.40</ele>
        <time>2022-10-26T10:16:12Z</time>
      </trkpt>
      <trkpt lat="10.238488" lon="-67.903807">
        <ele>450.40</ele>
        <time>2022-10-26T10:16:13Z</time>
      </trkpt>
      <trkpt lat="10.238429" lon="-67.903789">
        <ele>450.40</ele>
        <time>2022-10-26T10:16:14Z</time>
      </trkpt>
      <trkpt lat="10.238372" lon="-67.903771">
        <ele>450.30</ele>
        <time>2022-10-26T10:16:15Z</time>
      </trkpt>
      <trkpt lat="10.238311" lon="-67.903754">
        <ele>450.30</ele>
        <time>2022-10-26T10:16:16Z</time>
      </trkpt>
      <trkpt lat="10.238249" lon="-67.903739">
        <ele>450.20</ele>
        <time>2022-10-26T10:16:17Z</time>
      </trkpt>
      <trkpt lat="10.238187" lon="-67.903726">
        <ele>450.20</ele>
        <time>2022-10-26T10:16:18Z</time>
      </trkpt>
      <trkpt lat="10.238125" lon="-67.903709">
        <ele>450.20</ele>
        <time>2022-10-26T10:16:19Z</time>
      </trkpt>
      <trkpt lat="10.238064" lon="-67.903693">
        <ele>450.10</ele>
        <time>2022-10-26T10:16:20Z</time>
      </trkpt>
      <trkpt lat="10.237997" lon="-67.903679">
        <ele>450.10</ele>
        <time>2022-10-26T10:16:21Z</time>
      </trkpt>
      <trkpt lat="10.237930" lon="-67.903666">
        <ele>450.00</ele>
        <time>2022-10-26T10:16:22Z</time>
      </trkpt>
      <trkpt lat="10.237860" lon="-67.903652">
        <ele>449.90</ele>
        <time>2022-10-26T10:16:23Z</time>
      </trkpt>
      <trkpt lat="10.237794" lon="-67.903641">
        <ele>449.90</ele>
        <time>2022-10-26T10:16:24Z</time>
      </trkpt>
      <trkpt lat="10.237725" lon="-67.903630">
        <ele>449.90</ele>
        <time>2022-10-26T10:16:25Z</time>
      </trkpt>
      <trkpt lat="10.237657" lon="-67.903621">
        <ele>449.80</ele>
        <time>2022-10-26T10:16:26Z</time>
      </trkpt>
      <trkpt lat="10.237592" lon="-67.903614">
        <ele>449.80</ele>
        <time>2022-10-26T10:16:27Z</time>
      </trkpt>
      <trkpt lat="10.237528" lon="-67.903606">
        <ele>449.80</ele>
        <time>2022-10-26T10:16:28Z</time>
      </trkpt>
      <trkpt lat="10.237463" lon="-67.903598">
        <ele>449.70</ele>
        <time>2022-10-26T10:16:29Z</time>
      </trkpt>
      <trkpt lat="10.237392" lon="-67.903585">
        <ele>449.70</ele>
        <time>2022-10-26T10:16:30Z</time>
      </trkpt>
      <trkpt lat="10.237324" lon="-67.903569">
        <ele>449.60</ele>
        <time>2022-10-26T10:16:31Z</time>
      </trkpt>
      <trkpt lat="10.237258" lon="-67.903554">
        <ele>449.60</ele>
        <time>2022-10-26T10:16:32Z</time>
      </trkpt>
      <trkpt lat="10.237190" lon="-67.903538">
        <ele>449.50</ele>
        <time>2022-10-26T10:16:33Z</time>
      </trkpt>
      <trkpt lat="10.237123" lon="-67.903524">
        <ele>449.50</ele>
        <time>2022-10-26T10:16:34Z</time>
      </trkpt>
      <trkpt lat="10.237054" lon="-67.903511">
        <ele>449.40</ele>
        <time>2022-10-26T10:16:35Z</time>
      </trkpt>
      <trkpt lat="10.236987" lon="-67.903497">
        <ele>449.40</ele>
        <time>2022-10-26T10:16:36Z</time>
      </trkpt>
      <trkpt lat="10.236920" lon="-67.903484">
        <ele>449.40</ele>
        <time>2022-10-26T10:16:37Z</time>
      </trkpt>
      <trkpt lat="10.236852" lon="-67.903472">
        <ele>449.40</ele>
        <time>2022-10-26T10:16:38Z</time>
      </trkpt>
      <trkpt lat="10.236784" lon="-67.903460">
        <ele>449.30</ele>
        <time>2022-10-26T10:16:39Z</time>
      </trkpt>
      <trkpt lat="10.236712" lon="-67.903450">
        <ele>449.30</ele>
        <time>2022-10-26T10:16:40Z</time>
      </trkpt>
      <trkpt lat="10.236639" lon="-67.903442">
        <ele>449.30</ele>
        <time>2022-10-26T10:16:41Z</time>
      </trkpt>
      <trkpt lat="10.236565" lon="-67.903433">
        <ele>449.30</ele>
        <time>2022-10-26T10:16:42Z</time>
      </trkpt>
      <trkpt lat="10.236495" lon="-67.903422">
        <ele>449.30</ele>
        <time>2022-10-26T10:16:43Z</time>
      </trkpt>
      <trkpt lat="10.236426" lon="-67.903411">
        <ele>449.30</ele>
        <time>2022-10-26T10:16:44Z</time>
      </trkpt>
      <trkpt lat="10.236358" lon="-67.903403">
        <ele>449.30</ele>
        <time>2022-10-26T10:16:45Z</time>
      </trkpt>
      <trkpt lat="10.236289" lon="-67.903395">
        <ele>449.30</ele>
        <time>2022-10-26T10:16:46Z</time>
      </trkpt>
      <trkpt lat="10.236221" lon="-67.903387">
        <ele>449.30</ele>
        <time>2022-10-26T10:16:47Z</time>
      </trkpt>
      <trkpt lat="10.236153" lon="-67.903375">
        <ele>449.30</ele>
        <time>2022-10-26T10:16:48Z</time>
      </trkpt>
      <trkpt lat="10.236086" lon="-67.903357">
        <ele>449.30</ele>
        <time>2022-10-26T10:16:49Z</time>
      </trkpt>
      <trkpt lat="10.236021" lon="-67.903339">
        <ele>449.40</ele>
        <time>2022-10-26T10:16:50Z</time>
      </trkpt>
      <trkpt lat="10.235955" lon="-67.903325">
        <ele>449.40</ele>
        <time>2022-10-26T10:16:51Z</time>
      </trkpt>
      <trkpt lat="10.235890" lon="-67.903310">
        <ele>449.50</ele>
        <time>2022-10-26T10:16:52Z</time>
      </trkpt>
      <trkpt lat="10.235828" lon="-67.903295">
        <ele>449.50</ele>
        <time>2022-10-26T10:16:53Z</time>
      </trkpt>
      <trkpt lat="10.235764" lon="-67.903280">
        <ele>449.50</ele>
        <time>2022-10-26T10:16:54Z</time>
      </trkpt>
      <trkpt lat="10.235704" lon="-67.903261">
        <ele>449.60</ele>
        <time>2022-10-26T10:16:55Z</time>
      </trkpt>
      <trkpt lat="10.235639" lon="-67.903241">
        <ele>449.60</ele>
        <time>2022-10-26T10:16:56Z</time>
      </trkpt>
      <trkpt lat="10.235572" lon="-67.903218">
        <ele>449.70</ele>
        <time>2022-10-26T10:16:57Z</time>
      </trkpt>
      <trkpt lat="10.235509" lon="-67.903198">
        <ele>449.70</ele>
        <time>2022-10-26T10:16:58Z</time>
      </trkpt>
      <trkpt lat="10.235448" lon="-67.903175">
        <ele>449.80</ele>
        <time>2022-10-26T10:16:59Z</time>
      </trkpt>
      <trkpt lat="10.235387" lon="-67.903154">
        <ele>449.80</ele>
        <time>2022-10-26T10:17:00Z</time>
      </trkpt>
      <trkpt lat="10.235328" lon="-67.903133">
        <ele>449.80</ele>
        <time>2022-10-26T10:17:01Z</time>
      </trkpt>
      <trkpt lat="10.235270" lon="-67.903113">
        <ele>449.90</ele>
        <time>2022-10-26T10:17:02Z</time>
      </trkpt>
      <trkpt lat="10.235213" lon="-67.903089">
        <ele>449.90</ele>
        <time>2022-10-26T10:17:03Z</time>
      </trkpt>
      <trkpt lat="10.235156" lon="-67.903067">
        <ele>449.90</ele>
        <time>2022-10-26T10:17:04Z</time>
      </trkpt>
      <trkpt lat="10.235101" lon="-67.903045">
        <ele>449.90</ele>
        <time>2022-10-26T10:17:05Z</time>
      </trkpt>
      <trkpt lat="10.235044" lon="-67.903025">
        <ele>450.00</ele>
        <time>2022-10-26T10:17:06Z</time>
      </trkpt>
      <trkpt lat="10.234989" lon="-67.903007">
        <ele>450.00</ele>
        <time>2022-10-26T10:17:07Z</time>
      </trkpt>
      <trkpt lat="10.234934" lon="-67.902989">
        <ele>450.00</ele>
        <time>2022-10-26T10:17:08Z</time>
      </trkpt>
      <trkpt lat="10.234878" lon="-67.902968">
        <ele>450.10</ele>
        <time>2022-10-26T10:17:09Z</time>
      </trkpt>
      <trkpt lat="10.234824" lon="-67.902945">
        <ele>450.10</ele>
        <time>2022-10-26T10:17:10Z</time>
      </trkpt>
      <trkpt lat="10.234770" lon="-67.902920">
        <ele>450.10</ele>
        <time>2022-10-26T10:17:11Z</time>
      </trkpt>
      <trkpt lat="10.234713" lon="-67.902893">
        <ele>450.10</ele>
        <time>2022-10-26T10:17:12Z</time>
      </trkpt>
      <trkpt lat="10.234656" lon="-67.902864">
        <ele>450.20</ele>
        <time>2022-10-26T10:17:13Z</time>
      </trkpt>
      <trkpt lat="10.234600" lon="-67.902834">
        <ele>450.20</ele>
        <time>2022-10-26T10:17:14Z</time>
      </trkpt>
      <trkpt lat="10.234545" lon="-67.902806">
        <ele>450.30</ele>
        <time>2022-10-26T10:17:15Z</time>
      </trkpt>
      <trkpt lat="10.234488" lon="-67.902777">
        <ele>450.40</ele>
        <time>2022-10-26T10:17:16Z</time>
      </trkpt>
      <trkpt lat="10.234433" lon="-67.902745">
        <ele>450.40</ele>
        <time>2022-10-26T10:17:17Z</time>
      </trkpt>
      <trkpt lat="10.234379" lon="-67.902710">
        <ele>450.40</ele>
        <time>2022-10-26T10:17:18Z</time>
      </trkpt>
      <trkpt lat="10.234326" lon="-67.902676">
        <ele>450.40</ele>
        <time>2022-10-26T10:17:19Z</time>
      </trkpt>
      <trkpt lat="10.234274" lon="-67.902639">
        <ele>450.50</ele>
        <time>2022-10-26T10:17:20Z</time>
      </trkpt>
      <trkpt lat="10.234223" lon="-67.902604">
        <ele>450.50</ele>
        <time>2022-10-26T10:17:21Z</time>
      </trkpt>
      <trkpt lat="10.234168" lon="-67.902569">
        <ele>450.50</ele>
        <time>2022-10-26T10:17:22Z</time>
      </trkpt>
      <trkpt lat="10.234110" lon="-67.902532">
        <ele>450.50</ele>
        <time>2022-10-26T10:17:23Z</time>
      </trkpt>
      <trkpt lat="10.234051" lon="-67.902493">
        <ele>450.60</ele>
        <time>2022-10-26T10:17:24Z</time>
      </trkpt>
      <trkpt lat="10.233992" lon="-67.902455">
        <ele>450.60</ele>
        <time>2022-10-26T10:17:25Z</time>
      </trkpt>
      <trkpt lat="10.233935" lon="-67.902415">
        <ele>450.60</ele>
        <time>2022-10-26T10:17:26Z</time>
      </trkpt>
      <trkpt lat="10.233878" lon="-67.902374">
        <ele>450.70</ele>
        <time>2022-10-26T10:17:27Z</time>
      </trkpt>
      <trkpt lat="10.233824" lon="-67.902333">
        <ele>450.70</ele>
        <time>2022-10-26T10:17:28Z</time>
      </trkpt>
      <trkpt lat="10.233768" lon="-67.902292">
        <ele>450.70</ele>
        <time>2022-10-26T10:17:29Z</time>
      </trkpt>
      <trkpt lat="10.233712" lon="-67.902255">
        <ele>450.80</ele>
        <time>2022-10-26T10:17:30Z</time>
      </trkpt>
      <trkpt lat="10.233650" lon="-67.902218">
        <ele>450.80</ele>
        <time>2022-10-26T10:17:31Z</time>
      </trkpt>
      <trkpt lat="10.233594" lon="-67.902179">
        <ele>450.80</ele>
        <time>2022-10-26T10:17:32Z</time>
      </trkpt>
      <trkpt lat="10.233535" lon="-67.902142">
        <ele>450.80</ele>
        <time>2022-10-26T10:17:33Z</time>
      </trkpt>
      <trkpt lat="10.233480" lon="-67.902102">
        <ele>450.80</ele>
        <time>2022-10-26T10:17:34Z</time>
      </trkpt>
      <trkpt lat="10.233431" lon="-67.902056">
        <ele>450.80</ele>
        <time>2022-10-26T10:17:35Z</time>
      </trkpt>
      <trkpt lat="10.233378" lon="-67.902011">
        <ele>450.80</ele>
        <time>2022-10-26T10:17:36Z</time>
      </trkpt>
      <trkpt lat="10.233324" lon="-67.901968">
        <ele>450.80</ele>
        <time>2022-10-26T10:17:37Z</time>
      </trkpt>
      <trkpt lat="10.233271" lon="-67.901925">
        <ele>450.80</ele>
        <time>2022-10-26T10:17:38Z</time>
      </trkpt>
      <trkpt lat="10.233219" lon="-67.901881">
        <ele>450.70</ele>
        <time>2022-10-26T10:17:39Z</time>
      </trkpt>
      <trkpt lat="10.233168" lon="-67.901834">
        <ele>450.70</ele>
        <time>2022-10-26T10:17:40Z</time>
      </trkpt>
      <trkpt lat="10.233114" lon="-67.901785">
        <ele>450.70</ele>
        <time>2022-10-26T10:17:41Z</time>
      </trkpt>
      <trkpt lat="10.233061" lon="-67.901737">
        <ele>450.60</ele>
        <time>2022-10-26T10:17:42Z</time>
      </trkpt>
      <trkpt lat="10.233009" lon="-67.901689">
        <ele>450.60</ele>
        <time>2022-10-26T10:17:43Z</time>
      </trkpt>
      <trkpt lat="10.232958" lon="-67.901642">
        <ele>450.60</ele>
        <time>2022-10-26T10:17:44Z</time>
      </trkpt>
      <trkpt lat="10.232908" lon="-67.901595">
        <ele>450.50</ele>
        <time>2022-10-26T10:17:45Z</time>
      </trkpt>
      <trkpt lat="10.232864" lon="-67.901546">
        <ele>450.50</ele>
        <time>2022-10-26T10:17:46Z</time>
      </trkpt>
      <trkpt lat="10.232820" lon="-67.901497">
        <ele>450.50</ele>
        <time>2022-10-26T10:17:47Z</time>
      </trkpt>
      <trkpt lat="10.232775" lon="-67.901451">
        <ele>450.50</ele>
        <time>2022-10-26T10:17:48Z</time>
      </trkpt>
      <trkpt lat="10.232729" lon="-67.901404">
        <ele>450.50</ele>
        <time>2022-10-26T10:17:49Z</time>
      </trkpt>
      <trkpt lat="10.232682" lon="-67.901357">
        <ele>450.50</ele>
        <time>2022-10-26T10:17:50Z</time>
      </trkpt>
      <trkpt lat="10.232634" lon="-67.901307">
        <ele>450.50</ele>
        <time>2022-10-26T10:17:51Z</time>
      </trkpt>
      <trkpt lat="10.232585" lon="-67.901258">
        <ele>450.50</ele>
        <time>2022-10-26T10:17:52Z</time>
      </trkpt>
      <trkpt lat="10.232536" lon="-67.901209">
        <ele>450.50</ele>
        <time>2022-10-26T10:17:53Z</time>
      </trkpt>
      <trkpt lat="10.232484" lon="-67.901162">
        <ele>450.50</ele>
        <time>2022-10-26T10:17:54Z</time>
      </trkpt>
      <trkpt lat="10.232430" lon="-67.901116">
        <ele>450.50</ele>
        <time>2022-10-26T10:17:55Z</time>
      </trkpt>
      <trkpt lat="10.232377" lon="-67.901070">
        <ele>450.50</ele>
        <time>2022-10-26T10:17:56Z</time>
      </trkpt>
      <trkpt lat="10.232322" lon="-67.901023">
        <ele>450.50</ele>
        <time>2022-10-26T10:17:57Z</time>
      </trkpt>
      <trkpt lat="10.232269" lon="-67.900974">
        <ele>450.50</ele>
        <time>2022-10-26T10:17:58Z</time>
      </trkpt>
      <trkpt lat="10.232216" lon="-67.900923">
        <ele>450.50</ele>
        <time>2022-10-26T10:17:59Z</time>
      </trkpt>
      <trkpt lat="10.232165" lon="-67.900876">
        <ele>450.50</ele>
        <time>2022-10-26T10:18:00Z</time>
      </trkpt>
      <trkpt lat="10.232116" lon="-67.900832">
        <ele>450.50</ele>
        <time>2022-10-26T10:18:01Z</time>
      </trkpt>
      <trkpt lat="10.232068" lon="-67.900787">
        <ele>450.50</ele>
        <time>2022-10-26T10:18:02Z</time>
      </trkpt>
      <trkpt lat="10.232021" lon="-67.900742">
        <ele>450.50</ele>
        <time>2022-10-26T10:18:03Z</time>
      </trkpt>
      <trkpt lat="10.231974" lon="-67.900693">
        <ele>450.50</ele>
        <time>2022-10-26T10:18:04Z</time>
      </trkpt>
      <trkpt lat="10.231926" lon="-67.900644">
        <ele>450.50</ele>
        <time>2022-10-26T10:18:05Z</time>
      </trkpt>
      <trkpt lat="10.231874" lon="-67.900595">
        <ele>450.50</ele>
        <time>2022-10-26T10:18:06Z</time>
      </trkpt>
      <trkpt lat="10.231820" lon="-67.900548">
        <ele>450.50</ele>
        <time>2022-10-26T10:18:07Z</time>
      </trkpt>
      <trkpt lat="10.231770" lon="-67.900503">
        <ele>450.50</ele>
        <time>2022-10-26T10:18:08Z</time>
      </trkpt>
      <trkpt lat="10.231722" lon="-67.900459">
        <ele>450.50</ele>
        <time>2022-10-26T10:18:09Z</time>
      </trkpt>
      <trkpt lat="10.231676" lon="-67.900416">
        <ele>450.50</ele>
        <time>2022-10-26T10:18:10Z</time>
      </trkpt>
      <trkpt lat="10.231630" lon="-67.900374">
        <ele>450.50</ele>
        <time>2022-10-26T10:18:11Z</time>
      </trkpt>
      <trkpt lat="10.231584" lon="-67.900331">
        <ele>450.40</ele>
        <time>2022-10-26T10:18:12Z</time>
      </trkpt>
      <trkpt lat="10.231538" lon="-67.900289">
        <ele>450.40</ele>
        <time>2022-10-26T10:18:13Z</time>
      </trkpt>
      <trkpt lat="10.231493" lon="-67.900246">
        <ele>450.40</ele>
        <time>2022-10-26T10:18:14Z</time>
      </trkpt>
      <trkpt lat="10.231447" lon="-67.900206">
        <ele>450.40</ele>
        <time>2022-10-26T10:18:15Z</time>
      </trkpt>
      <trkpt lat="10.231399" lon="-67.900167">
        <ele>450.40</ele>
        <time>2022-10-26T10:18:16Z</time>
      </trkpt>
      <trkpt lat="10.231351" lon="-67.900130">
        <ele>450.40</ele>
        <time>2022-10-26T10:18:17Z</time>
      </trkpt>
      <trkpt lat="10.231302" lon="-67.900088">
        <ele>450.30</ele>
        <time>2022-10-26T10:18:18Z</time>
      </trkpt>
      <trkpt lat="10.231249" lon="-67.900044">
        <ele>450.30</ele>
        <time>2022-10-26T10:18:19Z</time>
      </trkpt>
      <trkpt lat="10.231197" lon="-67.899996">
        <ele>450.30</ele>
        <time>2022-10-26T10:18:20Z</time>
      </trkpt>
      <trkpt lat="10.231144" lon="-67.899955">
        <ele>450.30</ele>
        <time>2022-10-26T10:18:21Z</time>
      </trkpt>
      <trkpt lat="10.231098" lon="-67.899912">
        <ele>450.30</ele>
        <time>2022-10-26T10:18:22Z</time>
      </trkpt>
      <trkpt lat="10.231054" lon="-67.899868">
        <ele>450.20</ele>
        <time>2022-10-26T10:18:23Z</time>
      </trkpt>
      <trkpt lat="10.231015" lon="-67.899821">
        <ele>450.20</ele>
        <time>2022-10-26T10:18:24Z</time>
      </trkpt>
      <trkpt lat="10.230976" lon="-67.899774">
        <ele>450.10</ele>
        <time>2022-10-26T10:18:25Z</time>
      </trkpt>
      <trkpt lat="10.230937" lon="-67.899726">
        <ele>450.00</ele>
        <time>2022-10-26T10:18:26Z</time>
      </trkpt>
      <trkpt lat="10.230896" lon="-67.899676">
        <ele>450.00</ele>
        <time>2022-10-26T10:18:27Z</time>
      </trkpt>
      <trkpt lat="10.230851" lon="-67.899624">
        <ele>449.90</ele>
        <time>2022-10-26T10:18:28Z</time>
      </trkpt>
      <trkpt lat="10.230806" lon="-67.899572">
        <ele>449.80</ele>
        <time>2022-10-26T10:18:29Z</time>
      </trkpt>
      <trkpt lat="10.230760" lon="-67.899520">
        <ele>449.80</ele>
        <time>2022-10-26T10:18:30Z</time>
      </trkpt>
      <trkpt lat="10.230714" lon="-67.899476">
        <ele>449.70</ele>
        <time>2022-10-26T10:18:31Z</time>
      </trkpt>
      <trkpt lat="10.230666" lon="-67.899425">
        <ele>449.70</ele>
        <time>2022-10-26T10:18:32Z</time>
      </trkpt>
      <trkpt lat="10.230617" lon="-67.899374">
        <ele>449.60</ele>
        <time>2022-10-26T10:18:33Z</time>
      </trkpt>
      <trkpt lat="10.230562" lon="-67.899312">
        <ele>449.60</ele>
        <time>2022-10-26T10:18:34Z</time>
      </trkpt>
      <trkpt lat="10.230508" lon="-67.899258">
        <ele>449.60</ele>
        <time>2022-10-26T10:18:35Z</time>
      </trkpt>
      <trkpt lat="10.230455" lon="-67.899205">
        <ele>449.60</ele>
        <time>2022-10-26T10:18:36Z</time>
      </trkpt>
      <trkpt lat="10.230401" lon="-67.899150">
        <ele>449.60</ele>
        <time>2022-10-26T10:18:37Z</time>
      </trkpt>
      <trkpt lat="10.230341" lon="-67.899094">
        <ele>449.60</ele>
        <time>2022-10-26T10:18:38Z</time>
      </trkpt>
      <trkpt lat="10.230283" lon="-67.899044">
        <ele>449.70</ele>
        <time>2022-10-26T10:18:39Z</time>
      </trkpt>
      <trkpt lat="10.230226" lon="-67.898997">
        <ele>449.70</ele>
        <time>2022-10-26T10:18:40Z</time>
      </trkpt>
      <trkpt lat="10.230174" lon="-67.898950">
        <ele>449.80</ele>
        <time>2022-10-26T10:18:41Z</time>
      </trkpt>
      <trkpt lat="10.230121" lon="-67.898903">
        <ele>449.90</ele>
        <time>2022-10-26T10:18:42Z</time>
      </trkpt>
      <trkpt lat="10.230069" lon="-67.898857">
        <ele>449.90</ele>
        <time>2022-10-26T10:18:43Z</time>
      </trkpt>
      <trkpt lat="10.230016" lon="-67.898814">
        <ele>450.00</ele>
        <time>2022-10-26T10:18:44Z</time>
      </trkpt>
      <trkpt lat="10.229964" lon="-67.898774">
        <ele>450.10</ele>
        <time>2022-10-26T10:18:45Z</time>
      </trkpt>
      <trkpt lat="10.229916" lon="-67.898736">
        <ele>450.20</ele>
        <time>2022-10-26T10:18:46Z</time>
      </trkpt>
      <trkpt lat="10.229862" lon="-67.898700">
        <ele>450.30</ele>
        <time>2022-10-26T10:18:47Z</time>
      </trkpt>
      <trkpt lat="10.229816" lon="-67.898662">
        <ele>450.40</ele>
        <time>2022-10-26T10:18:48Z</time>
      </trkpt>
      <trkpt lat="10.229770" lon="-67.898625">
        <ele>450.50</ele>
        <time>2022-10-26T10:18:49Z</time>
      </trkpt>
      <trkpt lat="10.229717" lon="-67.898587">
        <ele>450.60</ele>
        <time>2022-10-26T10:18:50Z</time>
      </trkpt>
      <trkpt lat="10.229664" lon="-67.898552">
        <ele>450.70</ele>
        <time>2022-10-26T10:18:51Z</time>
      </trkpt>
      <trkpt lat="10.229608" lon="-67.898524">
        <ele>450.80</ele>
        <time>2022-10-26T10:18:52Z</time>
      </trkpt>
      <trkpt lat="10.229551" lon="-67.898498">
        <ele>451.00</ele>
        <time>2022-10-26T10:18:53Z</time>
      </trkpt>
      <trkpt lat="10.229495" lon="-67.898472">
        <ele>451.10</ele>
        <time>2022-10-26T10:18:54Z</time>
      </trkpt>
      <trkpt lat="10.229439" lon="-67.898444">
        <ele>451.20</ele>
        <time>2022-10-26T10:18:55Z</time>
      </trkpt>
      <trkpt lat="10.229384" lon="-67.898413">
        <ele>451.40</ele>
        <time>2022-10-26T10:18:56Z</time>
      </trkpt>
      <trkpt lat="10.229333" lon="-67.898385">
        <ele>451.60</ele>
        <time>2022-10-26T10:18:57Z</time>
      </trkpt>
      <trkpt lat="10.229283" lon="-67.898363">
        <ele>451.70</ele>
        <time>2022-10-26T10:18:58Z</time>
      </trkpt>
      <trkpt lat="10.229241" lon="-67.898347">
        <ele>451.80</ele>
        <time>2022-10-26T10:18:59Z</time>
      </trkpt>
      <trkpt lat="10.229193" lon="-67.898332">
        <ele>451.90</ele>
        <time>2022-10-26T10:19:00Z</time>
      </trkpt>
      <trkpt lat="10.229142" lon="-67.898317">
        <ele>452.10</ele>
        <time>2022-10-26T10:19:01Z</time>
      </trkpt>
      <trkpt lat="10.229089" lon="-67.898302">
        <ele>452.20</ele>
        <time>2022-10-26T10:19:02Z</time>
      </trkpt>
      <trkpt lat="10.229041" lon="-67.898287">
        <ele>452.30</ele>
        <time>2022-10-26T10:19:03Z</time>
      </trkpt>
      <trkpt lat="10.228986" lon="-67.898278">
        <ele>452.40</ele>
        <time>2022-10-26T10:19:04Z</time>
      </trkpt>
      <trkpt lat="10.228935" lon="-67.898267">
        <ele>452.50</ele>
        <time>2022-10-26T10:19:05Z</time>
      </trkpt>
      <trkpt lat="10.228898" lon="-67.898250">
        <ele>452.60</ele>
        <time>2022-10-26T10:19:06Z</time>
      </trkpt>
      <trkpt lat="10.228857" lon="-67.898238">
        <ele>452.70</ele>
        <time>2022-10-26T10:19:07Z</time>
      </trkpt>
      <trkpt lat="10.228814" lon="-67.898235">
        <ele>452.80</ele>
        <time>2022-10-26T10:19:08Z</time>
      </trkpt>
      <trkpt lat="10.228774" lon="-67.898235">
        <ele>452.90</ele>
        <time>2022-10-26T10:19:09Z</time>
      </trkpt>
      <trkpt lat="10.228734" lon="-67.898236">
        <ele>453.00</ele>
        <time>2022-10-26T10:19:10Z</time>
      </trkpt>
      <trkpt lat="10.228693" lon="-67.898236">
        <ele>453.10</ele>
        <time>2022-10-26T10:19:11Z</time>
      </trkpt>
      <trkpt lat="10.228651" lon="-67.898230">
        <ele>453.10</ele>
        <time>2022-10-26T10:19:12Z</time>
      </trkpt>
      <trkpt lat="10.228606" lon="-67.898224">
        <ele>453.20</ele>
        <time>2022-10-26T10:19:13Z</time>
      </trkpt>
      <trkpt lat="10.228560" lon="-67.898220">
        <ele>453.30</ele>
        <time>2022-10-26T10:19:14Z</time>
      </trkpt>
      <trkpt lat="10.228515" lon="-67.898218">
        <ele>453.40</ele>
        <time>2022-10-26T10:19:15Z</time>
      </trkpt>
      <trkpt lat="10.228467" lon="-67.898219">
        <ele>453.60</ele>
        <time>2022-10-26T10:19:16Z</time>
      </trkpt>
      <trkpt lat="10.228421" lon="-67.898218">
        <ele>453.70</ele>
        <time>2022-10-26T10:19:17Z</time>
      </trkpt>
      <trkpt lat="10.228375" lon="-67.898218">
        <ele>453.80</ele>
        <time>2022-10-26T10:19:18Z</time>
      </trkpt>
      <trkpt lat="10.228330" lon="-67.898221">
        <ele>453.90</ele>
        <time>2022-10-26T10:19:19Z</time>
      </trkpt>
      <trkpt lat="10.228281" lon="-67.898220">
        <ele>454.00</ele>
        <time>2022-10-26T10:19:20Z</time>
      </trkpt>
      <trkpt lat="10.228233" lon="-67.898219">
        <ele>454.10</ele>
        <time>2022-10-26T10:19:21Z</time>
      </trkpt>
      <trkpt lat="10.228182" lon="-67.898217">
        <ele>454.20</ele>
        <time>2022-10-26T10:19:22Z</time>
      </trkpt>
      <trkpt lat="10.228131" lon="-67.898215">
        <ele>454.40</ele>
        <time>2022-10-26T10:19:23Z</time>
      </trkpt>
      <trkpt lat="10.228080" lon="-67.898213">
        <ele>454.50</ele>
        <time>2022-10-26T10:19:24Z</time>
      </trkpt>
      <trkpt lat="10.228031" lon="-67.898211">
        <ele>454.60</ele>
        <time>2022-10-26T10:19:25Z</time>
      </trkpt>
      <trkpt lat="10.227985" lon="-67.898205">
        <ele>454.70</ele>
        <time>2022-10-26T10:19:26Z</time>
      </trkpt>
      <trkpt lat="10.227939" lon="-67.898199">
        <ele>454.80</ele>
        <time>2022-10-26T10:19:27Z</time>
      </trkpt>
      <trkpt lat="10.227892" lon="-67.898195">
        <ele>454.80</ele>
        <time>2022-10-26T10:19:28Z</time>
      </trkpt>
      <trkpt lat="10.227841" lon="-67.898191">
        <ele>454.90</ele>
        <time>2022-10-26T10:19:29Z</time>
      </trkpt>
      <trkpt lat="10.227792" lon="-67.898187">
        <ele>455.00</ele>
        <time>2022-10-26T10:19:30Z</time>
      </trkpt>
      <trkpt lat="10.227744" lon="-67.898181">
        <ele>455.10</ele>
        <time>2022-10-26T10:19:31Z</time>
      </trkpt>
      <trkpt lat="10.227695" lon="-67.898176">
        <ele>455.10</ele>
        <time>2022-10-26T10:19:32Z</time>
      </trkpt>
      <trkpt lat="10.227645" lon="-67.898169">
        <ele>455.10</ele>
        <time>2022-10-26T10:19:33Z</time>
      </trkpt>
      <trkpt lat="10.227597" lon="-67.898161">
        <ele>455.20</ele>
        <time>2022-10-26T10:19:34Z</time>
      </trkpt>
      <trkpt lat="10.227551" lon="-67.898155">
        <ele>455.20</ele>
        <time>2022-10-26T10:19:35Z</time>
      </trkpt>
      <trkpt lat="10.227506" lon="-67.898152">
        <ele>455.30</ele>
        <time>2022-10-26T10:19:36Z</time>
      </trkpt>
      <trkpt lat="10.227459" lon="-67.898148">
        <ele>455.30</ele>
        <time>2022-10-26T10:19:37Z</time>
      </trkpt>
      <trkpt lat="10.227411" lon="-67.898141">
        <ele>455.40</ele>
        <time>2022-10-26T10:19:38Z</time>
      </trkpt>
      <trkpt lat="10.227360" lon="-67.898134">
        <ele>455.50</ele>
        <time>2022-10-26T10:19:39Z</time>
      </trkpt>
      <trkpt lat="10.227315" lon="-67.898134">
        <ele>455.60</ele>
        <time>2022-10-26T10:19:40Z</time>
      </trkpt>
      <trkpt lat="10.227271" lon="-67.898131">
        <ele>455.60</ele>
        <time>2022-10-26T10:19:41Z</time>
      </trkpt>
      <trkpt lat="10.227228" lon="-67.898126">
        <ele>455.70</ele>
        <time>2022-10-26T10:19:42Z</time>
      </trkpt>
      <trkpt lat="10.227186" lon="-67.898120">
        <ele>455.70</ele>
        <time>2022-10-26T10:19:43Z</time>
      </trkpt>
      <trkpt lat="10.227143" lon="-67.898112">
        <ele>455.80</ele>
        <time>2022-10-26T10:19:44Z</time>
      </trkpt>
      <trkpt lat="10.227096" lon="-67.898105">
        <ele>455.80</ele>
        <time>2022-10-26T10:19:45Z</time>
      </trkpt>
      <trkpt lat="10.227045" lon="-67.898096">
        <ele>455.80</ele>
        <time>2022-10-26T10:19:46Z</time>
      </trkpt>
      <trkpt lat="10.226992" lon="-67.898085">
        <ele>455.80</ele>
        <time>2022-10-26T10:19:47Z</time>
      </trkpt>
      <trkpt lat="10.226936" lon="-67.898077">
        <ele>455.80</ele>
        <time>2022-10-26T10:19:48Z</time>
      </trkpt>
      <trkpt lat="10.226882" lon="-67.898072">
        <ele>455.80</ele>
        <time>2022-10-26T10:19:49Z</time>
      </trkpt>
      <trkpt lat="10.226828" lon="-67.898069">
        <ele>455.90</ele>
        <time>2022-10-26T10:19:50Z</time>
      </trkpt>
      <trkpt lat="10.226774" lon="-67.898068">
        <ele>455.90</ele>
        <time>2022-10-26T10:19:51Z</time>
      </trkpt>
      <trkpt lat="10.226718" lon="-67.898068">
        <ele>455.90</ele>
        <time>2022-10-26T10:19:52Z</time>
      </trkpt>
      <trkpt lat="10.226663" lon="-67.898070">
        <ele>455.80</ele>
        <time>2022-10-26T10:19:53Z</time>
      </trkpt>
      <trkpt lat="10.226607" lon="-67.898074">
        <ele>455.80</ele>
        <time>2022-10-26T10:19:54Z</time>
      </trkpt>
      <trkpt lat="10.226555" lon="-67.898071">
        <ele>455.70</ele>
        <time>2022-10-26T10:19:55Z</time>
      </trkpt>
      <trkpt lat="10.226503" lon="-67.898069">
        <ele>455.70</ele>
        <time>2022-10-26T10:19:56Z</time>
      </trkpt>
      <trkpt lat="10.226449" lon="-67.898067">
        <ele>455.60</ele>
        <time>2022-10-26T10:19:57Z</time>
      </trkpt>
      <trkpt lat="10.226395" lon="-67.898067">
        <ele>455.60</ele>
        <time>2022-10-26T10:19:58Z</time>
      </trkpt>
      <trkpt lat="10.226340" lon="-67.898066">
        <ele>455.50</ele>
        <time>2022-10-26T10:19:59Z</time>
      </trkpt>
      <trkpt lat="10.226282" lon="-67.898063">
        <ele>455.50</ele>
        <time>2022-10-26T10:20:00Z</time>
      </trkpt>
      <trkpt lat="10.226225" lon="-67.898062">
        <ele>455.40</ele>
        <time>2022-10-26T10:20:01Z</time>
      </trkpt>
      <trkpt lat="10.226165" lon="-67.898063">
        <ele>455.30</ele>
        <time>2022-10-26T10:20:02Z</time>
      </trkpt>
      <trkpt lat="10.226104" lon="-67.898063">
        <ele>455.10</ele>
        <time>2022-10-26T10:20:03Z</time>
      </trkpt>
      <trkpt lat="10.226034" lon="-67.898061">
        <ele>454.90</ele>
        <time>2022-10-26T10:20:04Z</time>
      </trkpt>
      <trkpt lat="10.225964" lon="-67.898064">
        <ele>454.70</ele>
        <time>2022-10-26T10:20:05Z</time>
      </trkpt>
      <trkpt lat="10.225889" lon="-67.898072">
        <ele>454.50</ele>
        <time>2022-10-26T10:20:06Z</time>
      </trkpt>
      <trkpt lat="10.225815" lon="-67.898087">
        <ele>454.30</ele>
        <time>2022-10-26T10:20:07Z</time>
      </trkpt>
      <trkpt lat="10.225739" lon="-67.898107">
        <ele>454.00</ele>
        <time>2022-10-26T10:20:08Z</time>
      </trkpt>
      <trkpt lat="10.225666" lon="-67.898130">
        <ele>453.70</ele>
        <time>2022-10-26T10:20:09Z</time>
      </trkpt>
      <trkpt lat="10.225595" lon="-67.898162">
        <ele>453.40</ele>
        <time>2022-10-26T10:20:10Z</time>
      </trkpt>
      <trkpt lat="10.225529" lon="-67.898198">
        <ele>453.10</ele>
        <time>2022-10-26T10:20:11Z</time>
      </trkpt>
      <trkpt lat="10.225464" lon="-67.898242">
        <ele>452.80</ele>
        <time>2022-10-26T10:20:12Z</time>
      </trkpt>
      <trkpt lat="10.225405" lon="-67.898294">
        <ele>452.50</ele>
        <time>2022-10-26T10:20:13Z</time>
      </trkpt>
      <trkpt lat="10.225345" lon="-67.898348">
        <ele>452.30</ele>
        <time>2022-10-26T10:20:14Z</time>
      </trkpt>
      <trkpt lat="10.225293" lon="-67.898406">
        <ele>452.00</ele>
        <time>2022-10-26T10:20:15Z</time>
      </trkpt>
      <trkpt lat="10.225247" lon="-67.898470">
        <ele>451.70</ele>
        <time>2022-10-26T10:20:16Z</time>
      </trkpt>
      <trkpt lat="10.225209" lon="-67.898539">
        <ele>451.40</ele>
        <time>2022-10-26T10:20:17Z</time>
      </trkpt>
      <trkpt lat="10.225173" lon="-67.898614">
        <ele>451.20</ele>
        <time>2022-10-26T10:20:18Z</time>
      </trkpt>
      <trkpt lat="10.225147" lon="-67.898695">
        <ele>450.90</ele>
        <time>2022-10-26T10:20:19Z</time>
      </trkpt>
      <trkpt lat="10.225124" lon="-67.898778">
        <ele>450.60</ele>
        <time>2022-10-26T10:20:20Z</time>
      </trkpt>
      <trkpt lat="10.225102" lon="-67.898866">
        <ele>450.40</ele>
        <time>2022-10-26T10:20:21Z</time>
      </trkpt>
      <trkpt lat="10.225088" lon="-67.898962">
        <ele>450.00</ele>
        <time>2022-10-26T10:20:22Z</time>
      </trkpt>
      <trkpt lat="10.225088" lon="-67.899053">
        <ele>449.70</ele>
        <time>2022-10-26T10:20:23Z</time>
      </trkpt>
      <trkpt lat="10.225100" lon="-67.899149">
        <ele>449.50</ele>
        <time>2022-10-26T10:20:24Z</time>
      </trkpt>
      <trkpt lat="10.225130" lon="-67.899237">
        <ele>449.20</ele>
        <time>2022-10-26T10:20:25Z</time>
      </trkpt>
      <trkpt lat="10.225173" lon="-67.899321">
        <ele>448.90</ele>
        <time>2022-10-26T10:20:26Z</time>
      </trkpt>
      <trkpt lat="10.225239" lon="-67.899399">
        <ele>448.60</ele>
        <time>2022-10-26T10:20:27Z</time>
      </trkpt>
      <trkpt lat="10.225318" lon="-67.899448">
        <ele>448.30</ele>
        <time>2022-10-26T10:20:28Z</time>
      </trkpt>
      <trkpt lat="10.225412" lon="-67.899477">
        <ele>448.10</ele>
        <time>2022-10-26T10:20:29Z</time>
      </trkpt>
      <trkpt lat="10.225509" lon="-67.899498">
        <ele>448.00</ele>
        <time>2022-10-26T10:20:30Z</time>
      </trkpt>
      <trkpt lat="10.225601" lon="-67.899504">
        <ele>447.90</ele>
        <time>2022-10-26T10:20:31Z</time>
      </trkpt>
      <trkpt lat="10.225691" lon="-67.899499">
        <ele>447.90</ele>
        <time>2022-10-26T10:20:32Z</time>
      </trkpt>
      <trkpt lat="10.225787" lon="-67.899479">
        <ele>447.80</ele>
        <time>2022-10-26T10:20:33Z</time>
      </trkpt>
      <trkpt lat="10.225879" lon="-67.899447">
        <ele>447.70</ele>
        <time>2022-10-26T10:20:34Z</time>
      </trkpt>
      <trkpt lat="10.225958" lon="-67.899373">
        <ele>447.60</ele>
        <time>2022-10-26T10:20:35Z</time>
      </trkpt>
      <trkpt lat="10.226028" lon="-67.899294">
        <ele>447.50</ele>
        <time>2022-10-26T10:20:36Z</time>
      </trkpt>
      <trkpt lat="10.226090" lon="-67.899216">
        <ele>447.50</ele>
        <time>2022-10-26T10:20:37Z</time>
      </trkpt>
      <trkpt lat="10.226147" lon="-67.899140">
        <ele>447.50</ele>
        <time>2022-10-26T10:20:38Z</time>
      </trkpt>
      <trkpt lat="10.226202" lon="-67.899064">
        <ele>447.50</ele>
        <time>2022-10-26T10:20:39Z</time>
      </trkpt>
      <trkpt lat="10.226256" lon="-67.898996">
        <ele>447.60</ele>
        <time>2022-10-26T10:20:40Z</time>
      </trkpt>
      <trkpt lat="10.226311" lon="-67.898921">
        <ele>447.60</ele>
        <time>2022-10-26T10:20:41Z</time>
      </trkpt>
      <trkpt lat="10.226364" lon="-67.898844">
        <ele>447.60</ele>
        <time>2022-10-26T10:20:42Z</time>
      </trkpt>
      <trkpt lat="10.226437" lon="-67.898756">
        <ele>447.70</ele>
        <time>2022-10-26T10:20:43Z</time>
      </trkpt>
      <trkpt lat="10.226488" lon="-67.898675">
        <ele>447.60</ele>
        <time>2022-10-26T10:20:44Z</time>
      </trkpt>
      <trkpt lat="10.226537" lon="-67.898601">
        <ele>447.60</ele>
        <time>2022-10-26T10:20:45Z</time>
      </trkpt>
      <trkpt lat="10.226584" lon="-67.898526">
        <ele>447.60</ele>
        <time>2022-10-26T10:20:46Z</time>
      </trkpt>
      <trkpt lat="10.226621" lon="-67.898460">
        <ele>447.60</ele>
        <time>2022-10-26T10:20:47Z</time>
      </trkpt>
      <trkpt lat="10.226656" lon="-67.898394">
        <ele>447.70</ele>
        <time>2022-10-26T10:20:48Z</time>
      </trkpt>
      <trkpt lat="10.226697" lon="-67.898328">
        <ele>447.70</ele>
        <time>2022-10-26T10:20:49Z</time>
      </trkpt>
      <trkpt lat="10.226737" lon="-67.898267">
        <ele>447.70</ele>
        <time>2022-10-26T10:20:50Z</time>
      </trkpt>
      <trkpt lat="10.226774" lon="-67.898213">
        <ele>447.70</ele>
        <time>2022-10-26T10:20:51Z</time>
      </trkpt>
      <trkpt lat="10.226811" lon="-67.898158">
        <ele>447.70</ele>
        <time>2022-10-26T10:20:52Z</time>
      </trkpt>
      <trkpt lat="10.226851" lon="-67.898101">
        <ele>447.80</ele>
        <time>2022-10-26T10:20:53Z</time>
      </trkpt>
      <trkpt lat="10.226893" lon="-67.898050">
        <ele>447.80</ele>
        <time>2022-10-26T10:20:54Z</time>
      </trkpt>
      <trkpt lat="10.226933" lon="-67.897998">
        <ele>447.80</ele>
        <time>2022-10-26T10:20:55Z</time>
      </trkpt>
      <trkpt lat="10.226971" lon="-67.897949">
        <ele>447.80</ele>
        <time>2022-10-26T10:20:56Z</time>
      </trkpt>
      <trkpt lat="10.227001" lon="-67.897899">
        <ele>447.80</ele>
        <time>2022-10-26T10:20:57Z</time>
      </trkpt>
      <trkpt lat="10.227031" lon="-67.897843">
        <ele>447.80</ele>
        <time>2022-10-26T10:20:58Z</time>
      </trkpt>
      <trkpt lat="10.227059" lon="-67.897789">
        <ele>447.80</ele>
        <time>2022-10-26T10:20:59Z</time>
      </trkpt>
      <trkpt lat="10.227090" lon="-67.897741">
        <ele>447.80</ele>
        <time>2022-10-26T10:21:00Z</time>
      </trkpt>
      <trkpt lat="10.227119" lon="-67.897689">
        <ele>447.90</ele>
        <time>2022-10-26T10:21:01Z</time>
      </trkpt>
      <trkpt lat="10.227151" lon="-67.897635">
        <ele>447.90</ele>
        <time>2022-10-26T10:21:02Z</time>
      </trkpt>
      <trkpt lat="10.227188" lon="-67.897586">
        <ele>447.90</ele>
        <time>2022-10-26T10:21:03Z</time>
      </trkpt>
      <trkpt lat="10.227227" lon="-67.897536">
        <ele>447.90</ele>
        <time>2022-10-26T10:21:04Z</time>
      </trkpt>
      <trkpt lat="10.227266" lon="-67.897485">
        <ele>447.90</ele>
        <time>2022-10-26T10:21:05Z</time>
      </trkpt>
      <trkpt lat="10.227305" lon="-67.897434">
        <ele>448.00</ele>
        <time>2022-10-26T10:21:06Z</time>
      </trkpt>
      <trkpt lat="10.227342" lon="-67.897386">
        <ele>448.00</ele>
        <time>2022-10-26T10:21:07Z</time>
      </trkpt>
      <trkpt lat="10.227376" lon="-67.897331">
        <ele>448.00</ele>
        <time>2022-10-26T10:21:08Z</time>
      </trkpt>
      <trkpt lat="10.227409" lon="-67.897269">
        <ele>448.00</ele>
        <time>2022-10-26T10:21:09Z</time>
      </trkpt>
      <trkpt lat="10.227440" lon="-67.897204">
        <ele>448.10</ele>
        <time>2022-10-26T10:21:10Z</time>
      </trkpt>
      <trkpt lat="10.227466" lon="-67.897142">
        <ele>448.10</ele>
        <time>2022-10-26T10:21:11Z</time>
      </trkpt>
      <trkpt lat="10.227489" lon="-67.897078">
        <ele>448.10</ele>
        <time>2022-10-26T10:21:12Z</time>
      </trkpt>
      <trkpt lat="10.227513" lon="-67.897018">
        <ele>448.10</ele>
        <time>2022-10-26T10:21:13Z</time>
      </trkpt>
      <trkpt lat="10.227541" lon="-67.896957">
        <ele>448.20</ele>
        <time>2022-10-26T10:21:14Z</time>
      </trkpt>
      <trkpt lat="10.227568" lon="-67.896900">
        <ele>448.20</ele>
        <time>2022-10-26T10:21:15Z</time>
      </trkpt>
      <trkpt lat="10.227595" lon="-67.896842">
        <ele>448.30</ele>
        <time>2022-10-26T10:21:16Z</time>
      </trkpt>
      <trkpt lat="10.227622" lon="-67.896784">
        <ele>448.30</ele>
        <time>2022-10-26T10:21:17Z</time>
      </trkpt>
      <trkpt lat="10.227650" lon="-67.896725">
        <ele>448.40</ele>
        <time>2022-10-26T10:21:18Z</time>
      </trkpt>
      <trkpt lat="10.227675" lon="-67.896672">
        <ele>448.40</ele>
        <time>2022-10-26T10:21:19Z</time>
      </trkpt>
      <trkpt lat="10.227698" lon="-67.896614">
        <ele>448.40</ele>
        <time>2022-10-26T10:21:20Z</time>
      </trkpt>
      <trkpt lat="10.227720" lon="-67.896556">
        <ele>448.50</ele>
        <time>2022-10-26T10:21:21Z</time>
      </trkpt>
      <trkpt lat="10.227743" lon="-67.896497">
        <ele>448.50</ele>
        <time>2022-10-26T10:21:22Z</time>
      </trkpt>
      <trkpt lat="10.227766" lon="-67.896439">
        <ele>448.50</ele>
        <time>2022-10-26T10:21:23Z</time>
      </trkpt>
      <trkpt lat="10.227794" lon="-67.896381">
        <ele>448.60</ele>
        <time>2022-10-26T10:21:24Z</time>
      </trkpt>
      <trkpt lat="10.227819" lon="-67.896323">
        <ele>448.60</ele>
        <time>2022-10-26T10:21:25Z</time>
      </trkpt>
      <trkpt lat="10.227847" lon="-67.896267">
        <ele>448.70</ele>
        <time>2022-10-26T10:21:26Z</time>
      </trkpt>
      <trkpt lat="10.227873" lon="-67.896212">
        <ele>448.70</ele>
        <time>2022-10-26T10:21:27Z</time>
      </trkpt>
      <trkpt lat="10.227895" lon="-67.896158">
        <ele>448.70</ele>
        <time>2022-10-26T10:21:28Z</time>
      </trkpt>
      <trkpt lat="10.227918" lon="-67.896107">
        <ele>448.80</ele>
        <time>2022-10-26T10:21:29Z</time>
      </trkpt>
      <trkpt lat="10.227946" lon="-67.896052">
        <ele>448.80</ele>
        <time>2022-10-26T10:21:30Z</time>
      </trkpt>
      <trkpt lat="10.227975" lon="-67.895996">
        <ele>448.90</ele>
        <time>2022-10-26T10:21:31Z</time>
      </trkpt>
      <trkpt lat="10.228002" lon="-67.895936">
        <ele>448.90</ele>
        <time>2022-10-26T10:21:32Z</time>
      </trkpt>
      <trkpt lat="10.228029" lon="-67.895878">
        <ele>449.00</ele>
        <time>2022-10-26T10:21:33Z</time>
      </trkpt>
      <trkpt lat="10.228056" lon="-67.895821">
        <ele>449.00</ele>
        <time>2022-10-26T10:21:34Z</time>
      </trkpt>
      <trkpt lat="10.228084" lon="-67.895767">
        <ele>449.10</ele>
        <time>2022-10-26T10:21:35Z</time>
      </trkpt>
      <trkpt lat="10.228113" lon="-67.895712">
        <ele>449.10</ele>
        <time>2022-10-26T10:21:36Z</time>
      </trkpt>
      <trkpt lat="10.228136" lon="-67.895656">
        <ele>449.10</ele>
        <time>2022-10-26T10:21:37Z</time>
      </trkpt>
      <trkpt lat="10.228160" lon="-67.895595">
        <ele>449.20</ele>
        <time>2022-10-26T10:21:38Z</time>
      </trkpt>
      <trkpt lat="10.228183" lon="-67.895540">
        <ele>449.20</ele>
        <time>2022-10-26T10:21:39Z</time>
      </trkpt>
      <trkpt lat="10.228208" lon="-67.895483">
        <ele>449.20</ele>
        <time>2022-10-26T10:21:40Z</time>
      </trkpt>
      <trkpt lat="10.228231" lon="-67.895429">
        <ele>449.20</ele>
        <time>2022-10-26T10:21:41Z</time>
      </trkpt>
      <trkpt lat="10.228256" lon="-67.895377">
        <ele>449.30</ele>
        <time>2022-10-26T10:21:42Z</time>
      </trkpt>
      <trkpt lat="10.228279" lon="-67.895326">
        <ele>449.30</ele>
        <time>2022-10-26T10:21:43Z</time>
      </trkpt>
      <trkpt lat="10.228304" lon="-67.895271">
        <ele>449.40</ele>
        <time>2022-10-26T10:21:44Z</time>
      </trkpt>
      <trkpt lat="10.228330" lon="-67.895214">
        <ele>449.40</ele>
        <time>2022-10-26T10:21:45Z</time>
      </trkpt>
      <trkpt lat="10.228359" lon="-67.895156">
        <ele>449.50</ele>
        <time>2022-10-26T10:21:46Z</time>
      </trkpt>
      <trkpt lat="10.228384" lon="-67.895100">
        <ele>449.50</ele>
        <time>2022-10-26T10:21:47Z</time>
      </trkpt>
      <trkpt lat="10.228410" lon="-67.895044">
        <ele>449.50</ele>
        <time>2022-10-26T10:21:48Z</time>
      </trkpt>
      <trkpt lat="10.228434" lon="-67.894991">
        <ele>449.60</ele>
        <time>2022-10-26T10:21:49Z</time>
      </trkpt>
      <trkpt lat="10.228461" lon="-67.894939">
        <ele>449.60</ele>
        <time>2022-10-26T10:21:50Z</time>
      </trkpt>
      <trkpt lat="10.228489" lon="-67.894888">
        <ele>449.60</ele>
        <time>2022-10-26T10:21:51Z</time>
      </trkpt>
      <trkpt lat="10.228518" lon="-67.894833">
        <ele>449.70</ele>
        <time>2022-10-26T10:21:52Z</time>
      </trkpt>
      <trkpt lat="10.228545" lon="-67.894781">
        <ele>449.70</ele>
        <time>2022-10-26T10:21:53Z</time>
      </trkpt>
      <trkpt lat="10.228574" lon="-67.894725">
        <ele>449.80</ele>
        <time>2022-10-26T10:21:54Z</time>
      </trkpt>
      <trkpt lat="10.228601" lon="-67.894669">
        <ele>449.80</ele>
        <time>2022-10-26T10:21:55Z</time>
      </trkpt>
      <trkpt lat="10.228629" lon="-67.894613">
        <ele>449.90</ele>
        <time>2022-10-26T10:21:56Z</time>
      </trkpt>
      <trkpt lat="10.228655" lon="-67.894560">
        <ele>449.90</ele>
        <time>2022-10-26T10:21:57Z</time>
      </trkpt>
      <trkpt lat="10.228680" lon="-67.894506">
        <ele>449.90</ele>
        <time>2022-10-26T10:21:58Z</time>
      </trkpt>
      <trkpt lat="10.228704" lon="-67.894452">
        <ele>450.00</ele>
        <time>2022-10-26T10:21:59Z</time>
      </trkpt>
      <trkpt lat="10.228728" lon="-67.894398">
        <ele>450.00</ele>
        <time>2022-10-26T10:22:00Z</time>
      </trkpt>
      <trkpt lat="10.228753" lon="-67.894347">
        <ele>450.00</ele>
        <time>2022-10-26T10:22:01Z</time>
      </trkpt>
      <trkpt lat="10.228778" lon="-67.894296">
        <ele>450.10</ele>
        <time>2022-10-26T10:22:02Z</time>
      </trkpt>
      <trkpt lat="10.228805" lon="-67.894244">
        <ele>450.10</ele>
        <time>2022-10-26T10:22:03Z</time>
      </trkpt>
      <trkpt lat="10.228830" lon="-67.894191">
        <ele>450.10</ele>
        <time>2022-10-26T10:22:04Z</time>
      </trkpt>
      <trkpt lat="10.228855" lon="-67.894139">
        <ele>450.20</ele>
        <time>2022-10-26T10:22:05Z</time>
      </trkpt>
      <trkpt lat="10.228881" lon="-67.894086">
        <ele>450.20</ele>
        <time>2022-10-26T10:22:06Z</time>
      </trkpt>
      <trkpt lat="10.228909" lon="-67.894036">
        <ele>450.30</ele>
        <time>2022-10-26T10:22:07Z</time>
      </trkpt>
      <trkpt lat="10.228939" lon="-67.893988">
        <ele>450.30</ele>
        <time>2022-10-26T10:22:08Z</time>
      </trkpt>
      <trkpt lat="10.228969" lon="-67.893942">
        <ele>450.30</ele>
        <time>2022-10-26T10:22:09Z</time>
      </trkpt>
      <trkpt lat="10.228998" lon="-67.893897">
        <ele>450.40</ele>
        <time>2022-10-26T10:22:10Z</time>
      </trkpt>
      <trkpt lat="10.229026" lon="-67.893849">
        <ele>450.40</ele>
        <time>2022-10-26T10:22:11Z</time>
      </trkpt>
      <trkpt lat="10.229055" lon="-67.893805">
        <ele>450.50</ele>
        <time>2022-10-26T10:22:12Z</time>
      </trkpt>
      <trkpt lat="10.229084" lon="-67.893763">
        <ele>450.50</ele>
        <time>2022-10-26T10:22:13Z</time>
      </trkpt>
      <trkpt lat="10.229114" lon="-67.893717">
        <ele>450.50</ele>
        <time>2022-10-26T10:22:14Z</time>
      </trkpt>
      <trkpt lat="10.229141" lon="-67.893671">
        <ele>450.60</ele>
        <time>2022-10-26T10:22:15Z</time>
      </trkpt>
      <trkpt lat="10.229164" lon="-67.893622">
        <ele>450.60</ele>
        <time>2022-10-26T10:22:16Z</time>
      </trkpt>
      <trkpt lat="10.229188" lon="-67.893572">
        <ele>450.70</ele>
        <time>2022-10-26T10:22:17Z</time>
      </trkpt>
      <trkpt lat="10.229211" lon="-67.893521">
        <ele>450.70</ele>
        <time>2022-10-26T10:22:18Z</time>
      </trkpt>
      <trkpt lat="10.229230" lon="-67.893471">
        <ele>450.80</ele>
        <time>2022-10-26T10:22:19Z</time>
      </trkpt>
      <trkpt lat="10.229246" lon="-67.893423">
        <ele>450.80</ele>
        <time>2022-10-26T10:22:20Z</time>
      </trkpt>
      <trkpt lat="10.229264" lon="-67.893373">
        <ele>450.80</ele>
        <time>2022-10-26T10:22:21Z</time>
      </trkpt>
      <trkpt lat="10.229283" lon="-67.893322">
        <ele>450.80</ele>
        <time>2022-10-26T10:22:22Z</time>
      </trkpt>
      <trkpt lat="10.229306" lon="-67.893270">
        <ele>450.90</ele>
        <time>2022-10-26T10:22:23Z</time>
      </trkpt>
      <trkpt lat="10.229331" lon="-67.893217">
        <ele>451.00</ele>
        <time>2022-10-26T10:22:24Z</time>
      </trkpt>
      <trkpt lat="10.229358" lon="-67.893162">
        <ele>451.00</ele>
        <time>2022-10-26T10:22:25Z</time>
      </trkpt>
      <trkpt lat="10.229385" lon="-67.893107">
        <ele>451.10</ele>
        <time>2022-10-26T10:22:26Z</time>
      </trkpt>
      <trkpt lat="10.229414" lon="-67.893053">
        <ele>451.20</ele>
        <time>2022-10-26T10:22:27Z</time>
      </trkpt>
      <trkpt lat="10.229442" lon="-67.893004">
        <ele>451.20</ele>
        <time>2022-10-26T10:22:28Z</time>
      </trkpt>
      <trkpt lat="10.229468" lon="-67.892961">
        <ele>451.30</ele>
        <time>2022-10-26T10:22:29Z</time>
      </trkpt>
      <trkpt lat="10.229496" lon="-67.892915">
        <ele>451.30</ele>
        <time>2022-10-26T10:22:30Z</time>
      </trkpt>
      <trkpt lat="10.229525" lon="-67.892867">
        <ele>451.30</ele>
        <time>2022-10-26T10:22:31Z</time>
      </trkpt>
      <trkpt lat="10.229552" lon="-67.892818">
        <ele>451.30</ele>
        <time>2022-10-26T10:22:32Z</time>
      </trkpt>
      <trkpt lat="10.229579" lon="-67.892766">
        <ele>451.30</ele>
        <time>2022-10-26T10:22:33Z</time>
      </trkpt>
      <trkpt lat="10.229607" lon="-67.892711">
        <ele>451.30</ele>
        <time>2022-10-26T10:22:34Z</time>
      </trkpt>
      <trkpt lat="10.229640" lon="-67.892649">
        <ele>451.40</ele>
        <time>2022-10-26T10:22:35Z</time>
      </trkpt>
      <trkpt lat="10.229668" lon="-67.892592">
        <ele>451.40</ele>
        <time>2022-10-26T10:22:36Z</time>
      </trkpt>
      <trkpt lat="10.229697" lon="-67.892532">
        <ele>451.40</ele>
        <time>2022-10-26T10:22:37Z</time>
      </trkpt>
      <trkpt lat="10.229723" lon="-67.892469">
        <ele>451.40</ele>
        <time>2022-10-26T10:22:38Z</time>
      </trkpt>
      <trkpt lat="10.229752" lon="-67.892402">
        <ele>451.50</ele>
        <time>2022-10-26T10:22:39Z</time>
      </trkpt>
      <trkpt lat="10.229774" lon="-67.892341">
        <ele>451.50</ele>
        <time>2022-10-26T10:22:40Z</time>
      </trkpt>
      <trkpt lat="10.229798" lon="-67.892282">
        <ele>451.50</ele>
        <time>2022-10-26T10:22:41Z</time>
      </trkpt>
      <trkpt lat="10.229826" lon="-67.892221">
        <ele>451.50</ele>
        <time>2022-10-26T10:22:42Z</time>
      </trkpt>
      <trkpt lat="10.229857" lon="-67.892161">
        <ele>451.50</ele>
        <time>2022-10-26T10:22:43Z</time>
      </trkpt>
      <trkpt lat="10.229886" lon="-67.892098">
        <ele>451.50</ele>
        <time>2022-10-26T10:22:44Z</time>
      </trkpt>
      <trkpt lat="10.229915" lon="-67.892034">
        <ele>451.50</ele>
        <time>2022-10-26T10:22:45Z</time>
      </trkpt>
      <trkpt lat="10.229944" lon="-67.891975">
        <ele>451.50</ele>
        <time>2022-10-26T10:22:46Z</time>
      </trkpt>
      <trkpt lat="10.229968" lon="-67.891916">
        <ele>451.40</ele>
        <time>2022-10-26T10:22:47Z</time>
      </trkpt>
      <trkpt lat="10.229989" lon="-67.891859">
        <ele>451.40</ele>
        <time>2022-10-26T10:22:48Z</time>
      </trkpt>
      <trkpt lat="10.230017" lon="-67.891800">
        <ele>451.30</ele>
        <time>2022-10-26T10:22:49Z</time>
      </trkpt>
      <trkpt lat="10.230046" lon="-67.891743">
        <ele>451.30</ele>
        <time>2022-10-26T10:22:50Z</time>
      </trkpt>
      <trkpt lat="10.230077" lon="-67.891686">
        <ele>451.20</ele>
        <time>2022-10-26T10:22:51Z</time>
      </trkpt>
      <trkpt lat="10.230103" lon="-67.891628">
        <ele>451.20</ele>
        <time>2022-10-26T10:22:52Z</time>
      </trkpt>
      <trkpt lat="10.230127" lon="-67.891568">
        <ele>451.10</ele>
        <time>2022-10-26T10:22:53Z</time>
      </trkpt>
      <trkpt lat="10.230153" lon="-67.891506">
        <ele>451.00</ele>
        <time>2022-10-26T10:22:54Z</time>
      </trkpt>
      <trkpt lat="10.230186" lon="-67.891441">
        <ele>451.00</ele>
        <time>2022-10-26T10:22:55Z</time>
      </trkpt>
      <trkpt lat="10.230223" lon="-67.891373">
        <ele>450.90</ele>
        <time>2022-10-26T10:22:56Z</time>
      </trkpt>
      <trkpt lat="10.230258" lon="-67.891304">
        <ele>450.80</ele>
        <time>2022-10-26T10:22:57Z</time>
      </trkpt>
      <trkpt lat="10.230293" lon="-67.891235">
        <ele>450.70</ele>
        <time>2022-10-26T10:22:58Z</time>
      </trkpt>
      <trkpt lat="10.230326" lon="-67.891168">
        <ele>450.60</ele>
        <time>2022-10-26T10:22:59Z</time>
      </trkpt>
      <trkpt lat="10.230360" lon="-67.891099">
        <ele>450.60</ele>
        <time>2022-10-26T10:23:00Z</time>
      </trkpt>
      <trkpt lat="10.230394" lon="-67.891027">
        <ele>450.50</ele>
        <time>2022-10-26T10:23:01Z</time>
      </trkpt>
      <trkpt lat="10.230433" lon="-67.890952">
        <ele>450.40</ele>
        <time>2022-10-26T10:23:02Z</time>
      </trkpt>
      <trkpt lat="10.230473" lon="-67.890875">
        <ele>450.30</ele>
        <time>2022-10-26T10:23:03Z</time>
      </trkpt>
      <trkpt lat="10.230512" lon="-67.890800">
        <ele>450.20</ele>
        <time>2022-10-26T10:23:04Z</time>
      </trkpt>
      <trkpt lat="10.230550" lon="-67.890724">
        <ele>450.10</ele>
        <time>2022-10-26T10:23:05Z</time>
      </trkpt>
      <trkpt lat="10.230583" lon="-67.890650">
        <ele>449.90</ele>
        <time>2022-10-26T10:23:06Z</time>
      </trkpt>
      <trkpt lat="10.230615" lon="-67.890580">
        <ele>449.80</ele>
        <time>2022-10-26T10:23:07Z</time>
      </trkpt>
      <trkpt lat="10.230644" lon="-67.890509">
        <ele>449.70</ele>
        <time>2022-10-26T10:23:08Z</time>
      </trkpt>
      <trkpt lat="10.230670" lon="-67.890436">
        <ele>449.60</ele>
        <time>2022-10-26T10:23:09Z</time>
      </trkpt>
      <trkpt lat="10.230698" lon="-67.890362">
        <ele>449.50</ele>
        <time>2022-10-26T10:23:10Z</time>
      </trkpt>
      <trkpt lat="10.230728" lon="-67.890286">
        <ele>449.30</ele>
        <time>2022-10-26T10:23:11Z</time>
      </trkpt>
      <trkpt lat="10.230756" lon="-67.890210">
        <ele>449.20</ele>
        <time>2022-10-26T10:23:12Z</time>
      </trkpt>
      <trkpt lat="10.230786" lon="-67.890135">
        <ele>449.00</ele>
        <time>2022-10-26T10:23:13Z</time>
      </trkpt>
      <trkpt lat="10.230815" lon="-67.890064">
        <ele>448.90</ele>
        <time>2022-10-26T10:23:14Z</time>
      </trkpt>
      <trkpt lat="10.230844" lon="-67.889992">
        <ele>448.80</ele>
        <time>2022-10-26T10:23:15Z</time>
      </trkpt>
      <trkpt lat="10.230870" lon="-67.889920">
        <ele>448.60</ele>
        <time>2022-10-26T10:23:16Z</time>
      </trkpt>
      <trkpt lat="10.230892" lon="-67.889849">
        <ele>448.40</ele>
        <time>2022-10-26T10:23:17Z</time>
      </trkpt>
      <trkpt lat="10.230911" lon="-67.889782">
        <ele>448.30</ele>
        <time>2022-10-26T10:23:18Z</time>
      </trkpt>
      <trkpt lat="10.230929" lon="-67.889716">
        <ele>448.10</ele>
        <time>2022-10-26T10:23:19Z</time>
      </trkpt>
      <trkpt lat="10.230947" lon="-67.889646">
        <ele>448.00</ele>
        <time>2022-10-26T10:23:20Z</time>
      </trkpt>
      <trkpt lat="10.230968" lon="-67.889574">
        <ele>447.80</ele>
        <time>2022-10-26T10:23:21Z</time>
      </trkpt>
      <trkpt lat="10.230994" lon="-67.889498">
        <ele>447.70</ele>
        <time>2022-10-26T10:23:22Z</time>
      </trkpt>
      <trkpt lat="10.231025" lon="-67.889422">
        <ele>447.50</ele>
        <time>2022-10-26T10:23:23Z</time>
      </trkpt>
      <trkpt lat="10.231056" lon="-67.889345">
        <ele>447.40</ele>
        <time>2022-10-26T10:23:24Z</time>
      </trkpt>
      <trkpt lat="10.231088" lon="-67.889264">
        <ele>447.30</ele>
        <time>2022-10-26T10:23:25Z</time>
      </trkpt>
      <trkpt lat="10.231120" lon="-67.889184">
        <ele>447.20</ele>
        <time>2022-10-26T10:23:26Z</time>
      </trkpt>
      <trkpt lat="10.231149" lon="-67.889102">
        <ele>447.10</ele>
        <time>2022-10-26T10:23:27Z</time>
      </trkpt>
      <trkpt lat="10.231177" lon="-67.889021">
        <ele>447.00</ele>
        <time>2022-10-26T10:23:28Z</time>
      </trkpt>
      <trkpt lat="10.231204" lon="-67.888940">
        <ele>446.90</ele>
        <time>2022-10-26T10:23:29Z</time>
      </trkpt>
      <trkpt lat="10.231232" lon="-67.888861">
        <ele>446.80</ele>
        <time>2022-10-26T10:23:30Z</time>
      </trkpt>
      <trkpt lat="10.231258" lon="-67.888782">
        <ele>446.80</ele>
        <time>2022-10-26T10:23:31Z</time>
      </trkpt>
      <trkpt lat="10.231284" lon="-67.888702">
        <ele>446.70</ele>
        <time>2022-10-26T10:23:32Z</time>
      </trkpt>
      <trkpt lat="10.231313" lon="-67.888623">
        <ele>446.60</ele>
        <time>2022-10-26T10:23:33Z</time>
      </trkpt>
      <trkpt lat="10.231344" lon="-67.888541">
        <ele>446.60</ele>
        <time>2022-10-26T10:23:34Z</time>
      </trkpt>
      <trkpt lat="10.231372" lon="-67.888458">
        <ele>446.60</ele>
        <time>2022-10-26T10:23:35Z</time>
      </trkpt>
      <trkpt lat="10.231399" lon="-67.888377">
        <ele>446.60</ele>
        <time>2022-10-26T10:23:36Z</time>
      </trkpt>
      <trkpt lat="10.231424" lon="-67.888293">
        <ele>446.60</ele>
        <time>2022-10-26T10:23:37Z</time>
      </trkpt>
      <trkpt lat="10.231441" lon="-67.888213">
        <ele>446.60</ele>
        <time>2022-10-26T10:23:38Z</time>
      </trkpt>
      <trkpt lat="10.231459" lon="-67.888134">
        <ele>446.60</ele>
        <time>2022-10-26T10:23:39Z</time>
      </trkpt>
      <trkpt lat="10.231478" lon="-67.888056">
        <ele>446.60</ele>
        <time>2022-10-26T10:23:40Z</time>
      </trkpt>
      <trkpt lat="10.231497" lon="-67.887982">
        <ele>446.60</ele>
        <time>2022-10-26T10:23:41Z</time>
      </trkpt>
      <trkpt lat="10.231519" lon="-67.887910">
        <ele>446.60</ele>
        <time>2022-10-26T10:23:42Z</time>
      </trkpt>
      <trkpt lat="10.231546" lon="-67.887831">
        <ele>446.60</ele>
        <time>2022-10-26T10:23:43Z</time>
      </trkpt>
      <trkpt lat="10.231570" lon="-67.887752">
        <ele>446.60</ele>
        <time>2022-10-26T10:23:44Z</time>
      </trkpt>
      <trkpt lat="10.231591" lon="-67.887673">
        <ele>446.60</ele>
        <time>2022-10-26T10:23:45Z</time>
      </trkpt>
      <trkpt lat="10.231610" lon="-67.887593">
        <ele>446.60</ele>
        <time>2022-10-26T10:23:46Z</time>
      </trkpt>
      <trkpt lat="10.231628" lon="-67.887513">
        <ele>446.60</ele>
        <time>2022-10-26T10:23:47Z</time>
      </trkpt>
      <trkpt lat="10.231648" lon="-67.887434">
        <ele>446.60</ele>
        <time>2022-10-26T10:23:48Z</time>
      </trkpt>
      <trkpt lat="10.231667" lon="-67.887359">
        <ele>446.60</ele>
        <time>2022-10-26T10:23:49Z</time>
      </trkpt>
      <trkpt lat="10.231686" lon="-67.887283">
        <ele>446.60</ele>
        <time>2022-10-26T10:23:50Z</time>
      </trkpt>
      <trkpt lat="10.231701" lon="-67.887205">
        <ele>446.60</ele>
        <time>2022-10-26T10:23:51Z</time>
      </trkpt>
      <trkpt lat="10.231721" lon="-67.887124">
        <ele>446.60</ele>
        <time>2022-10-26T10:23:52Z</time>
      </trkpt>
      <trkpt lat="10.231742" lon="-67.887042">
        <ele>446.60</ele>
        <time>2022-10-26T10:23:53Z</time>
      </trkpt>
      <trkpt lat="10.231761" lon="-67.886962">
        <ele>446.60</ele>
        <time>2022-10-26T10:23:54Z</time>
      </trkpt>
      <trkpt lat="10.231783" lon="-67.886883">
        <ele>446.60</ele>
        <time>2022-10-26T10:23:55Z</time>
      </trkpt>
      <trkpt lat="10.231808" lon="-67.886806">
        <ele>446.70</ele>
        <time>2022-10-26T10:23:56Z</time>
      </trkpt>
      <trkpt lat="10.231837" lon="-67.886728">
        <ele>446.70</ele>
        <time>2022-10-26T10:23:57Z</time>
      </trkpt>
      <trkpt lat="10.231867" lon="-67.886649">
        <ele>446.70</ele>
        <time>2022-10-26T10:23:58Z</time>
      </trkpt>
      <trkpt lat="10.231889" lon="-67.886568">
        <ele>446.70</ele>
        <time>2022-10-26T10:23:59Z</time>
      </trkpt>
      <trkpt lat="10.231908" lon="-67.886486">
        <ele>446.70</ele>
        <time>2022-10-26T10:24:00Z</time>
      </trkpt>
      <trkpt lat="10.231921" lon="-67.886404">
        <ele>446.70</ele>
        <time>2022-10-26T10:24:01Z</time>
      </trkpt>
      <trkpt lat="10.231933" lon="-67.886322">
        <ele>446.70</ele>
        <time>2022-10-26T10:24:02Z</time>
      </trkpt>
      <trkpt lat="10.231947" lon="-67.886241">
        <ele>446.70</ele>
        <time>2022-10-26T10:24:03Z</time>
      </trkpt>
      <trkpt lat="10.231967" lon="-67.886163">
        <ele>446.70</ele>
        <time>2022-10-26T10:24:04Z</time>
      </trkpt>
      <trkpt lat="10.231987" lon="-67.886092">
        <ele>446.70</ele>
        <time>2022-10-26T10:24:05Z</time>
      </trkpt>
      <trkpt lat="10.232002" lon="-67.886025">
        <ele>446.70</ele>
        <time>2022-10-26T10:24:06Z</time>
      </trkpt>
      <trkpt lat="10.232013" lon="-67.885956">
        <ele>446.70</ele>
        <time>2022-10-26T10:24:07Z</time>
      </trkpt>
      <trkpt lat="10.232022" lon="-67.885887">
        <ele>446.70</ele>
        <time>2022-10-26T10:24:08Z</time>
      </trkpt>
      <trkpt lat="10.232030" lon="-67.885811">
        <ele>446.80</ele>
        <time>2022-10-26T10:24:09Z</time>
      </trkpt>
      <trkpt lat="10.232041" lon="-67.885737">
        <ele>446.80</ele>
        <time>2022-10-26T10:24:10Z</time>
      </trkpt>
      <trkpt lat="10.232054" lon="-67.885662">
        <ele>446.80</ele>
        <time>2022-10-26T10:24:11Z</time>
      </trkpt>
      <trkpt lat="10.232071" lon="-67.885584">
        <ele>446.80</ele>
        <time>2022-10-26T10:24:12Z</time>
      </trkpt>
      <trkpt lat="10.232088" lon="-67.885507">
        <ele>446.80</ele>
        <time>2022-10-26T10:24:13Z</time>
      </trkpt>
      <trkpt lat="10.232111" lon="-67.885424">
        <ele>446.90</ele>
        <time>2022-10-26T10:24:14Z</time>
      </trkpt>
      <trkpt lat="10.232133" lon="-67.885345">
        <ele>446.90</ele>
        <time>2022-10-26T10:24:15Z</time>
      </trkpt>
      <trkpt lat="10.232149" lon="-67.885257">
        <ele>447.00</ele>
        <time>2022-10-26T10:24:16Z</time>
      </trkpt>
      <trkpt lat="10.232156" lon="-67.885186">
        <ele>447.00</ele>
        <time>2022-10-26T10:24:17Z</time>
      </trkpt>
      <trkpt lat="10.232159" lon="-67.885113">
        <ele>447.00</ele>
        <time>2022-10-26T10:24:18Z</time>
      </trkpt>
      <trkpt lat="10.232165" lon="-67.885041">
        <ele>447.10</ele>
        <time>2022-10-26T10:24:19Z</time>
      </trkpt>
      <trkpt lat="10.232176" lon="-67.884968">
        <ele>447.10</ele>
        <time>2022-10-26T10:24:20Z</time>
      </trkpt>
      <trkpt lat="10.232190" lon="-67.884898">
        <ele>447.20</ele>
        <time>2022-10-26T10:24:21Z</time>
      </trkpt>
      <trkpt lat="10.232204" lon="-67.884824">
        <ele>447.20</ele>
        <time>2022-10-26T10:24:22Z</time>
      </trkpt>
      <trkpt lat="10.232222" lon="-67.884748">
        <ele>447.30</ele>
        <time>2022-10-26T10:24:23Z</time>
      </trkpt>
      <trkpt lat="10.232242" lon="-67.884675">
        <ele>447.40</ele>
        <time>2022-10-26T10:24:24Z</time>
      </trkpt>
      <trkpt lat="10.232259" lon="-67.884605">
        <ele>447.40</ele>
        <time>2022-10-26T10:24:25Z</time>
      </trkpt>
      <trkpt lat="10.232279" lon="-67.884532">
        <ele>447.50</ele>
        <time>2022-10-26T10:24:26Z</time>
      </trkpt>
      <trkpt lat="10.232298" lon="-67.884459">
        <ele>447.50</ele>
        <time>2022-10-26T10:24:27Z</time>
      </trkpt>
      <trkpt lat="10.232320" lon="-67.884384">
        <ele>447.60</ele>
        <time>2022-10-26T10:24:28Z</time>
      </trkpt>
      <trkpt lat="10.232342" lon="-67.884311">
        <ele>447.60</ele>
        <time>2022-10-26T10:24:29Z</time>
      </trkpt>
      <trkpt lat="10.232354" lon="-67.884237">
        <ele>447.70</ele>
        <time>2022-10-26T10:24:30Z</time>
      </trkpt>
      <trkpt lat="10.232374" lon="-67.884153">
        <ele>447.70</ele>
        <time>2022-10-26T10:24:31Z</time>
      </trkpt>
      <trkpt lat="10.232388" lon="-67.884068">
        <ele>447.80</ele>
        <time>2022-10-26T10:24:32Z</time>
      </trkpt>
      <trkpt lat="10.232402" lon="-67.883983">
        <ele>447.80</ele>
        <time>2022-10-26T10:24:33Z</time>
      </trkpt>
      <trkpt lat="10.232419" lon="-67.883898">
        <ele>447.90</ele>
        <time>2022-10-26T10:24:34Z</time>
      </trkpt>
      <trkpt lat="10.232443" lon="-67.883811">
        <ele>447.90</ele>
        <time>2022-10-26T10:24:35Z</time>
      </trkpt>
      <trkpt lat="10.232471" lon="-67.883725">
        <ele>448.00</ele>
        <time>2022-10-26T10:24:36Z</time>
      </trkpt>
      <trkpt lat="10.232499" lon="-67.883640">
        <ele>448.10</ele>
        <time>2022-10-26T10:24:37Z</time>
      </trkpt>
      <trkpt lat="10.232521" lon="-67.883559">
        <ele>448.20</ele>
        <time>2022-10-26T10:24:38Z</time>
      </trkpt>
      <trkpt lat="10.232538" lon="-67.883485">
        <ele>448.20</ele>
        <time>2022-10-26T10:24:39Z</time>
      </trkpt>
      <trkpt lat="10.232554" lon="-67.883411">
        <ele>448.30</ele>
        <time>2022-10-26T10:24:40Z</time>
      </trkpt>
      <trkpt lat="10.232574" lon="-67.883332">
        <ele>448.30</ele>
        <time>2022-10-26T10:24:41Z</time>
      </trkpt>
      <trkpt lat="10.232592" lon="-67.883255">
        <ele>448.30</ele>
        <time>2022-10-26T10:24:42Z</time>
      </trkpt>
      <trkpt lat="10.232608" lon="-67.883178">
        <ele>448.40</ele>
        <time>2022-10-26T10:24:43Z</time>
      </trkpt>
      <trkpt lat="10.232621" lon="-67.883099">
        <ele>448.40</ele>
        <time>2022-10-26T10:24:44Z</time>
      </trkpt>
      <trkpt lat="10.232634" lon="-67.883026">
        <ele>448.50</ele>
        <time>2022-10-26T10:24:45Z</time>
      </trkpt>
      <trkpt lat="10.232641" lon="-67.882950">
        <ele>448.50</ele>
        <time>2022-10-26T10:24:46Z</time>
      </trkpt>
      <trkpt lat="10.232652" lon="-67.882872">
        <ele>448.60</ele>
        <time>2022-10-26T10:24:47Z</time>
      </trkpt>
      <trkpt lat="10.232663" lon="-67.882793">
        <ele>448.60</ele>
        <time>2022-10-26T10:24:48Z</time>
      </trkpt>
      <trkpt lat="10.232674" lon="-67.882720">
        <ele>448.70</ele>
        <time>2022-10-26T10:24:49Z</time>
      </trkpt>
      <trkpt lat="10.232681" lon="-67.882644">
        <ele>448.80</ele>
        <time>2022-10-26T10:24:50Z</time>
      </trkpt>
      <trkpt lat="10.232688" lon="-67.882568">
        <ele>448.80</ele>
        <time>2022-10-26T10:24:51Z</time>
      </trkpt>
      <trkpt lat="10.232698" lon="-67.882493">
        <ele>448.90</ele>
        <time>2022-10-26T10:24:52Z</time>
      </trkpt>
      <trkpt lat="10.232710" lon="-67.882421">
        <ele>448.90</ele>
        <time>2022-10-26T10:24:53Z</time>
      </trkpt>
      <trkpt lat="10.232723" lon="-67.882348">
        <ele>449.00</ele>
        <time>2022-10-26T10:24:54Z</time>
      </trkpt>
      <trkpt lat="10.232738" lon="-67.882280">
        <ele>449.10</ele>
        <time>2022-10-26T10:24:55Z</time>
      </trkpt>
      <trkpt lat="10.232755" lon="-67.882209">
        <ele>449.10</ele>
        <time>2022-10-26T10:24:56Z</time>
      </trkpt>
      <trkpt lat="10.232776" lon="-67.882139">
        <ele>449.20</ele>
        <time>2022-10-26T10:24:57Z</time>
      </trkpt>
      <trkpt lat="10.232795" lon="-67.882071">
        <ele>449.20</ele>
        <time>2022-10-26T10:24:58Z</time>
      </trkpt>
      <trkpt lat="10.232808" lon="-67.882005">
        <ele>449.30</ele>
        <time>2022-10-26T10:24:59Z</time>
      </trkpt>
      <trkpt lat="10.232816" lon="-67.881936">
        <ele>449.30</ele>
        <time>2022-10-26T10:25:00Z</time>
      </trkpt>
      <trkpt lat="10.232821" lon="-67.881870">
        <ele>449.40</ele>
        <time>2022-10-26T10:25:01Z</time>
      </trkpt>
      <trkpt lat="10.232824" lon="-67.881804">
        <ele>449.40</ele>
        <time>2022-10-26T10:25:02Z</time>
      </trkpt>
      <trkpt lat="10.232828" lon="-67.881744">
        <ele>449.50</ele>
        <time>2022-10-26T10:25:03Z</time>
      </trkpt>
      <trkpt lat="10.232835" lon="-67.881689">
        <ele>449.50</ele>
        <time>2022-10-26T10:25:04Z</time>
      </trkpt>
      <trkpt lat="10.232850" lon="-67.881635">
        <ele>449.60</ele>
        <time>2022-10-26T10:25:05Z</time>
      </trkpt>
      <trkpt lat="10.232864" lon="-67.881582">
        <ele>449.60</ele>
        <time>2022-10-26T10:25:06Z</time>
      </trkpt>
      <trkpt lat="10.232880" lon="-67.881527">
        <ele>449.60</ele>
        <time>2022-10-26T10:25:07Z</time>
      </trkpt>
      <trkpt lat="10.232900" lon="-67.881467">
        <ele>449.70</ele>
        <time>2022-10-26T10:25:08Z</time>
      </trkpt>
      <trkpt lat="10.232919" lon="-67.881410">
        <ele>449.70</ele>
        <time>2022-10-26T10:25:09Z</time>
      </trkpt>
      <trkpt lat="10.232936" lon="-67.881346">
        <ele>449.70</ele>
        <time>2022-10-26T10:25:10Z</time>
      </trkpt>
      <trkpt lat="10.232952" lon="-67.881277">
        <ele>449.70</ele>
        <time>2022-10-26T10:25:11Z</time>
      </trkpt>
      <trkpt lat="10.232965" lon="-67.881207">
        <ele>449.80</ele>
        <time>2022-10-26T10:25:12Z</time>
      </trkpt>
      <trkpt lat="10.232976" lon="-67.881138">
        <ele>449.80</ele>
        <time>2022-10-26T10:25:13Z</time>
      </trkpt>
      <trkpt lat="10.232988" lon="-67.881070">
        <ele>449.80</ele>
        <time>2022-10-26T10:25:14Z</time>
      </trkpt>
      <trkpt lat="10.233002" lon="-67.881001">
        <ele>449.90</ele>
        <time>2022-10-26T10:25:15Z</time>
      </trkpt>
      <trkpt lat="10.233021" lon="-67.880927">
        <ele>450.00</ele>
        <time>2022-10-26T10:25:16Z</time>
      </trkpt>
      <trkpt lat="10.233039" lon="-67.880855">
        <ele>450.00</ele>
        <time>2022-10-26T10:25:17Z</time>
      </trkpt>
      <trkpt lat="10.233058" lon="-67.880775">
        <ele>450.10</ele>
        <time>2022-10-26T10:25:18Z</time>
      </trkpt>
      <trkpt lat="10.233074" lon="-67.880702">
        <ele>450.10</ele>
        <time>2022-10-26T10:25:19Z</time>
      </trkpt>
      <trkpt lat="10.233094" lon="-67.880628">
        <ele>450.20</ele>
        <time>2022-10-26T10:25:20Z</time>
      </trkpt>
      <trkpt lat="10.233113" lon="-67.880552">
        <ele>450.20</ele>
        <time>2022-10-26T10:25:21Z</time>
      </trkpt>
      <trkpt lat="10.233131" lon="-67.880479">
        <ele>450.30</ele>
        <time>2022-10-26T10:25:22Z</time>
      </trkpt>
      <trkpt lat="10.233147" lon="-67.880410">
        <ele>450.40</ele>
        <time>2022-10-26T10:25:23Z</time>
      </trkpt>
      <trkpt lat="10.233162" lon="-67.880343">
        <ele>450.40</ele>
        <time>2022-10-26T10:25:24Z</time>
      </trkpt>
      <trkpt lat="10.233182" lon="-67.880273">
        <ele>450.50</ele>
        <time>2022-10-26T10:25:25Z</time>
      </trkpt>
      <trkpt lat="10.233194" lon="-67.880203">
        <ele>450.60</ele>
        <time>2022-10-26T10:25:26Z</time>
      </trkpt>
      <trkpt lat="10.233203" lon="-67.880134">
        <ele>450.60</ele>
        <time>2022-10-26T10:25:27Z</time>
      </trkpt>
      <trkpt lat="10.233214" lon="-67.880064">
        <ele>450.70</ele>
        <time>2022-10-26T10:25:28Z</time>
      </trkpt>
      <trkpt lat="10.233226" lon="-67.879995">
        <ele>450.70</ele>
        <time>2022-10-26T10:25:29Z</time>
      </trkpt>
      <trkpt lat="10.233237" lon="-67.879926">
        <ele>450.70</ele>
        <time>2022-10-26T10:25:30Z</time>
      </trkpt>
      <trkpt lat="10.233248" lon="-67.879860">
        <ele>450.70</ele>
        <time>2022-10-26T10:25:31Z</time>
      </trkpt>
      <trkpt lat="10.233261" lon="-67.879796">
        <ele>450.80</ele>
        <time>2022-10-26T10:25:32Z</time>
      </trkpt>
      <trkpt lat="10.233276" lon="-67.879730">
        <ele>450.80</ele>
        <time>2022-10-26T10:25:33Z</time>
      </trkpt>
      <trkpt lat="10.233289" lon="-67.879662">
        <ele>450.80</ele>
        <time>2022-10-26T10:25:34Z</time>
      </trkpt>
      <trkpt lat="10.233300" lon="-67.879592">
        <ele>450.80</ele>
        <time>2022-10-26T10:25:35Z</time>
      </trkpt>
      <trkpt lat="10.233311" lon="-67.879525">
        <ele>450.80</ele>
        <time>2022-10-26T10:25:36Z</time>
      </trkpt>
      <trkpt lat="10.233326" lon="-67.879461">
        <ele>450.80</ele>
        <time>2022-10-26T10:25:37Z</time>
      </trkpt>
      <trkpt lat="10.233345" lon="-67.879388">
        <ele>450.80</ele>
        <time>2022-10-26T10:25:38Z</time>
      </trkpt>
      <trkpt lat="10.233363" lon="-67.879314">
        <ele>450.80</ele>
        <time>2022-10-26T10:25:39Z</time>
      </trkpt>
      <trkpt lat="10.233382" lon="-67.879237">
        <ele>450.80</ele>
        <time>2022-10-26T10:25:40Z</time>
      </trkpt>
      <trkpt lat="10.233407" lon="-67.879159">
        <ele>450.80</ele>
        <time>2022-10-26T10:25:41Z</time>
      </trkpt>
      <trkpt lat="10.233433" lon="-67.879082">
        <ele>450.80</ele>
        <time>2022-10-26T10:25:42Z</time>
      </trkpt>
      <trkpt lat="10.233458" lon="-67.879010">
        <ele>450.70</ele>
        <time>2022-10-26T10:25:43Z</time>
      </trkpt>
      <trkpt lat="10.233478" lon="-67.878939">
        <ele>450.70</ele>
        <time>2022-10-26T10:25:44Z</time>
      </trkpt>
      <trkpt lat="10.233496" lon="-67.878871">
        <ele>450.70</ele>
        <time>2022-10-26T10:25:45Z</time>
      </trkpt>
      <trkpt lat="10.233513" lon="-67.878801">
        <ele>450.60</ele>
        <time>2022-10-26T10:25:46Z</time>
      </trkpt>
      <trkpt lat="10.233527" lon="-67.878729">
        <ele>450.60</ele>
        <time>2022-10-26T10:25:47Z</time>
      </trkpt>
      <trkpt lat="10.233541" lon="-67.878651">
        <ele>450.60</ele>
        <time>2022-10-26T10:25:48Z</time>
      </trkpt>
      <trkpt lat="10.233555" lon="-67.878572">
        <ele>450.50</ele>
        <time>2022-10-26T10:25:49Z</time>
      </trkpt>
      <trkpt lat="10.233568" lon="-67.878490">
        <ele>450.50</ele>
        <time>2022-10-26T10:25:50Z</time>
      </trkpt>
      <trkpt lat="10.233582" lon="-67.878407">
        <ele>450.50</ele>
        <time>2022-10-26T10:25:51Z</time>
      </trkpt>
      <trkpt lat="10.233599" lon="-67.878319">
        <ele>450.40</ele>
        <time>2022-10-26T10:25:52Z</time>
      </trkpt>
      <trkpt lat="10.233617" lon="-67.878233">
        <ele>450.40</ele>
        <time>2022-10-26T10:25:53Z</time>
      </trkpt>
      <trkpt lat="10.233635" lon="-67.878149">
        <ele>450.40</ele>
        <time>2022-10-26T10:25:54Z</time>
      </trkpt>
      <trkpt lat="10.233655" lon="-67.878065">
        <ele>450.30</ele>
        <time>2022-10-26T10:25:55Z</time>
      </trkpt>
      <trkpt lat="10.233674" lon="-67.877981">
        <ele>450.30</ele>
        <time>2022-10-26T10:25:56Z</time>
      </trkpt>
      <trkpt lat="10.233693" lon="-67.877895">
        <ele>450.20</ele>
        <time>2022-10-26T10:25:57Z</time>
      </trkpt>
      <trkpt lat="10.233709" lon="-67.877812">
        <ele>450.20</ele>
        <time>2022-10-26T10:25:58Z</time>
      </trkpt>
      <trkpt lat="10.233719" lon="-67.877731">
        <ele>450.20</ele>
        <time>2022-10-26T10:25:59Z</time>
      </trkpt>
      <trkpt lat="10.233729" lon="-67.877651">
        <ele>450.10</ele>
        <time>2022-10-26T10:26:00Z</time>
      </trkpt>
      <trkpt lat="10.233739" lon="-67.877572">
        <ele>450.10</ele>
        <time>2022-10-26T10:26:01Z</time>
      </trkpt>
      <trkpt lat="10.233749" lon="-67.877495">
        <ele>450.10</ele>
        <time>2022-10-26T10:26:02Z</time>
      </trkpt>
      <trkpt lat="10.233760" lon="-67.877418">
        <ele>450.00</ele>
        <time>2022-10-26T10:26:03Z</time>
      </trkpt>
      <trkpt lat="10.233773" lon="-67.877342">
        <ele>450.00</ele>
        <time>2022-10-26T10:26:04Z</time>
      </trkpt>
      <trkpt lat="10.233787" lon="-67.877266">
        <ele>450.00</ele>
        <time>2022-10-26T10:26:05Z</time>
      </trkpt>
      <trkpt lat="10.233802" lon="-67.877187">
        <ele>449.90</ele>
        <time>2022-10-26T10:26:06Z</time>
      </trkpt>
      <trkpt lat="10.233817" lon="-67.877111">
        <ele>449.90</ele>
        <time>2022-10-26T10:26:07Z</time>
      </trkpt>
      <trkpt lat="10.233830" lon="-67.877031">
        <ele>449.90</ele>
        <time>2022-10-26T10:26:08Z</time>
      </trkpt>
      <trkpt lat="10.233842" lon="-67.876947">
        <ele>449.90</ele>
        <time>2022-10-26T10:26:09Z</time>
      </trkpt>
      <trkpt lat="10.233859" lon="-67.876850">
        <ele>449.90</ele>
        <time>2022-10-26T10:26:10Z</time>
      </trkpt>
      <trkpt lat="10.233879" lon="-67.876755">
        <ele>449.90</ele>
        <time>2022-10-26T10:26:11Z</time>
      </trkpt>
      <trkpt lat="10.233900" lon="-67.876661">
        <ele>449.90</ele>
        <time>2022-10-26T10:26:12Z</time>
      </trkpt>
      <trkpt lat="10.233931" lon="-67.876566">
        <ele>449.90</ele>
        <time>2022-10-26T10:26:13Z</time>
      </trkpt>
      <trkpt lat="10.233965" lon="-67.876470">
        <ele>449.90</ele>
        <time>2022-10-26T10:26:14Z</time>
      </trkpt>
      <trkpt lat="10.233997" lon="-67.876380">
        <ele>449.80</ele>
        <time>2022-10-26T10:26:15Z</time>
      </trkpt>
      <trkpt lat="10.234026" lon="-67.876290">
        <ele>449.80</ele>
        <time>2022-10-26T10:26:16Z</time>
      </trkpt>
      <trkpt lat="10.234054" lon="-67.876198">
        <ele>449.80</ele>
        <time>2022-10-26T10:26:17Z</time>
      </trkpt>
      <trkpt lat="10.234084" lon="-67.876105">
        <ele>449.70</ele>
        <time>2022-10-26T10:26:18Z</time>
      </trkpt>
      <trkpt lat="10.234116" lon="-67.876010">
        <ele>449.70</ele>
        <time>2022-10-26T10:26:19Z</time>
      </trkpt>
      <trkpt lat="10.234148" lon="-67.875921">
        <ele>449.60</ele>
        <time>2022-10-26T10:26:20Z</time>
      </trkpt>
      <trkpt lat="10.234184" lon="-67.875833">
        <ele>449.60</ele>
        <time>2022-10-26T10:26:21Z</time>
      </trkpt>
      <trkpt lat="10.234222" lon="-67.875742">
        <ele>449.60</ele>
        <time>2022-10-26T10:26:22Z</time>
      </trkpt>
      <trkpt lat="10.234262" lon="-67.875649">
        <ele>449.60</ele>
        <time>2022-10-26T10:26:23Z</time>
      </trkpt>
      <trkpt lat="10.234300" lon="-67.875557">
        <ele>449.60</ele>
        <time>2022-10-26T10:26:24Z</time>
      </trkpt>
      <trkpt lat="10.234338" lon="-67.875466">
        <ele>449.60</ele>
        <time>2022-10-26T10:26:25Z</time>
      </trkpt>
      <trkpt lat="10.234377" lon="-67.875375">
        <ele>449.60</ele>
        <time>2022-10-26T10:26:26Z</time>
      </trkpt>
      <trkpt lat="10.234416" lon="-67.875286">
        <ele>449.60</ele>
        <time>2022-10-26T10:26:27Z</time>
      </trkpt>
      <trkpt lat="10.234455" lon="-67.875199">
        <ele>449.70</ele>
        <time>2022-10-26T10:26:28Z</time>
      </trkpt>
      <trkpt lat="10.234493" lon="-67.875107">
        <ele>449.70</ele>
        <time>2022-10-26T10:26:29Z</time>
      </trkpt>
      <trkpt lat="10.234534" lon="-67.875020">
        <ele>449.70</ele>
        <time>2022-10-26T10:26:30Z</time>
      </trkpt>
      <trkpt lat="10.234574" lon="-67.874932">
        <ele>449.70</ele>
        <time>2022-10-26T10:26:31Z</time>
      </trkpt>
      <trkpt lat="10.234613" lon="-67.874849">
        <ele>449.80</ele>
        <time>2022-10-26T10:26:32Z</time>
      </trkpt>
      <trkpt lat="10.234653" lon="-67.874767">
        <ele>449.80</ele>
        <time>2022-10-26T10:26:33Z</time>
      </trkpt>
      <trkpt lat="10.234696" lon="-67.874691">
        <ele>449.80</ele>
        <time>2022-10-26T10:26:34Z</time>
      </trkpt>
      <trkpt lat="10.234739" lon="-67.874612">
        <ele>449.80</ele>
        <time>2022-10-26T10:26:35Z</time>
      </trkpt>
      <trkpt lat="10.234783" lon="-67.874531">
        <ele>449.80</ele>
        <time>2022-10-26T10:26:36Z</time>
      </trkpt>
      <trkpt lat="10.234824" lon="-67.874454">
        <ele>449.80</ele>
        <time>2022-10-26T10:26:37Z</time>
      </trkpt>
      <trkpt lat="10.234867" lon="-67.874373">
        <ele>449.80</ele>
        <time>2022-10-26T10:26:38Z</time>
      </trkpt>
      <trkpt lat="10.234908" lon="-67.874294">
        <ele>449.80</ele>
        <time>2022-10-26T10:26:39Z</time>
      </trkpt>
      <trkpt lat="10.234951" lon="-67.874216">
        <ele>449.80</ele>
        <time>2022-10-26T10:26:40Z</time>
      </trkpt>
      <trkpt lat="10.234993" lon="-67.874137">
        <ele>449.90</ele>
        <time>2022-10-26T10:26:41Z</time>
      </trkpt>
      <trkpt lat="10.235039" lon="-67.874059">
        <ele>449.90</ele>
        <time>2022-10-26T10:26:42Z</time>
      </trkpt>
      <trkpt lat="10.235084" lon="-67.873983">
        <ele>450.00</ele>
        <time>2022-10-26T10:26:43Z</time>
      </trkpt>
      <trkpt lat="10.235133" lon="-67.873910">
        <ele>450.00</ele>
        <time>2022-10-26T10:26:44Z</time>
      </trkpt>
      <trkpt lat="10.235180" lon="-67.873842">
        <ele>450.00</ele>
        <time>2022-10-26T10:26:45Z</time>
      </trkpt>
      <trkpt lat="10.235230" lon="-67.873769">
        <ele>450.10</ele>
        <time>2022-10-26T10:26:46Z</time>
      </trkpt>
      <trkpt lat="10.235278" lon="-67.873696">
        <ele>450.10</ele>
        <time>2022-10-26T10:26:47Z</time>
      </trkpt>
      <trkpt lat="10.235326" lon="-67.873621">
        <ele>450.20</ele>
        <time>2022-10-26T10:26:48Z</time>
      </trkpt>
      <trkpt lat="10.235371" lon="-67.873551">
        <ele>450.20</ele>
        <time>2022-10-26T10:26:49Z</time>
      </trkpt>
      <trkpt lat="10.235413" lon="-67.873479">
        <ele>450.30</ele>
        <time>2022-10-26T10:26:50Z</time>
      </trkpt>
      <trkpt lat="10.235456" lon="-67.873407">
        <ele>450.30</ele>
        <time>2022-10-26T10:26:51Z</time>
      </trkpt>
      <trkpt lat="10.235502" lon="-67.873337">
        <ele>450.30</ele>
        <time>2022-10-26T10:26:52Z</time>
      </trkpt>
      <trkpt lat="10.235545" lon="-67.873265">
        <ele>450.30</ele>
        <time>2022-10-26T10:26:53Z</time>
      </trkpt>
      <trkpt lat="10.235586" lon="-67.873195">
        <ele>450.40</ele>
        <time>2022-10-26T10:26:54Z</time>
      </trkpt>
      <trkpt lat="10.235625" lon="-67.873128">
        <ele>450.40</ele>
        <time>2022-10-26T10:26:55Z</time>
      </trkpt>
      <trkpt lat="10.235664" lon="-67.873060">
        <ele>450.40</ele>
        <time>2022-10-26T10:26:56Z</time>
      </trkpt>
      <trkpt lat="10.235702" lon="-67.872997">
        <ele>450.50</ele>
        <time>2022-10-26T10:26:57Z</time>
      </trkpt>
      <trkpt lat="10.235741" lon="-67.872933">
        <ele>450.50</ele>
        <time>2022-10-26T10:26:58Z</time>
      </trkpt>
      <trkpt lat="10.235777" lon="-67.872873">
        <ele>450.50</ele>
        <time>2022-10-26T10:26:59Z</time>
      </trkpt>
      <trkpt lat="10.235813" lon="-67.872812">
        <ele>450.50</ele>
        <time>2022-10-26T10:27:00Z</time>
      </trkpt>
      <trkpt lat="10.235847" lon="-67.872753">
        <ele>450.50</ele>
        <time>2022-10-26T10:27:01Z</time>
      </trkpt>
      <trkpt lat="10.235884" lon="-67.872691">
        <ele>450.50</ele>
        <time>2022-10-26T10:27:02Z</time>
      </trkpt>
      <trkpt lat="10.235921" lon="-67.872627">
        <ele>450.50</ele>
        <time>2022-10-26T10:27:03Z</time>
      </trkpt>
      <trkpt lat="10.235960" lon="-67.872560">
        <ele>450.50</ele>
        <time>2022-10-26T10:27:04Z</time>
      </trkpt>
      <trkpt lat="10.235995" lon="-67.872497">
        <ele>450.50</ele>
        <time>2022-10-26T10:27:05Z</time>
      </trkpt>
      <trkpt lat="10.236033" lon="-67.872434">
        <ele>450.50</ele>
        <time>2022-10-26T10:27:06Z</time>
      </trkpt>
      <trkpt lat="10.236073" lon="-67.872374">
        <ele>450.40</ele>
        <time>2022-10-26T10:27:07Z</time>
      </trkpt>
      <trkpt lat="10.236115" lon="-67.872309">
        <ele>450.40</ele>
        <time>2022-10-26T10:27:08Z</time>
      </trkpt>
      <trkpt lat="10.236153" lon="-67.872246">
        <ele>450.30</ele>
        <time>2022-10-26T10:27:09Z</time>
      </trkpt>
      <trkpt lat="10.236191" lon="-67.872177">
        <ele>450.30</ele>
        <time>2022-10-26T10:27:10Z</time>
      </trkpt>
      <trkpt lat="10.236231" lon="-67.872114">
        <ele>450.20</ele>
        <time>2022-10-26T10:27:11Z</time>
      </trkpt>
      <trkpt lat="10.236273" lon="-67.872047">
        <ele>450.10</ele>
        <time>2022-10-26T10:27:12Z</time>
      </trkpt>
      <trkpt lat="10.236313" lon="-67.871980">
        <ele>450.00</ele>
        <time>2022-10-26T10:27:13Z</time>
      </trkpt>
      <trkpt lat="10.236352" lon="-67.871909">
        <ele>449.90</ele>
        <time>2022-10-26T10:27:14Z</time>
      </trkpt>
      <trkpt lat="10.236390" lon="-67.871839">
        <ele>449.80</ele>
        <time>2022-10-26T10:27:15Z</time>
      </trkpt>
      <trkpt lat="10.236436" lon="-67.871766">
        <ele>449.80</ele>
        <time>2022-10-26T10:27:16Z</time>
      </trkpt>
      <trkpt lat="10.236482" lon="-67.871693">
        <ele>449.70</ele>
        <time>2022-10-26T10:27:17Z</time>
      </trkpt>
      <trkpt lat="10.236527" lon="-67.871622">
        <ele>449.60</ele>
        <time>2022-10-26T10:27:18Z</time>
      </trkpt>
      <trkpt lat="10.236573" lon="-67.871550">
        <ele>449.50</ele>
        <time>2022-10-26T10:27:19Z</time>
      </trkpt>
      <trkpt lat="10.236628" lon="-67.871471">
        <ele>449.40</ele>
        <time>2022-10-26T10:27:20Z</time>
      </trkpt>
      <trkpt lat="10.236682" lon="-67.871390">
        <ele>449.20</ele>
        <time>2022-10-26T10:27:21Z</time>
      </trkpt>
      <trkpt lat="10.236730" lon="-67.871311">
        <ele>449.00</ele>
        <time>2022-10-26T10:27:22Z</time>
      </trkpt>
      <trkpt lat="10.236779" lon="-67.871232">
        <ele>448.90</ele>
        <time>2022-10-26T10:27:23Z</time>
      </trkpt>
      <trkpt lat="10.236832" lon="-67.871150">
        <ele>448.70</ele>
        <time>2022-10-26T10:27:24Z</time>
      </trkpt>
      <trkpt lat="10.236884" lon="-67.871068">
        <ele>448.60</ele>
        <time>2022-10-26T10:27:25Z</time>
      </trkpt>
      <trkpt lat="10.236926" lon="-67.870990">
        <ele>448.50</ele>
        <time>2022-10-26T10:27:26Z</time>
      </trkpt>
      <trkpt lat="10.236968" lon="-67.870912">
        <ele>448.30</ele>
        <time>2022-10-26T10:27:27Z</time>
      </trkpt>
      <trkpt lat="10.237012" lon="-67.870830">
        <ele>448.10</ele>
        <time>2022-10-26T10:27:28Z</time>
      </trkpt>
      <trkpt lat="10.237058" lon="-67.870750">
        <ele>448.00</ele>
        <time>2022-10-26T10:27:29Z</time>
      </trkpt>
      <trkpt lat="10.237114" lon="-67.870667">
        <ele>447.80</ele>
        <time>2022-10-26T10:27:30Z</time>
      </trkpt>
      <trkpt lat="10.237165" lon="-67.870594">
        <ele>447.60</ele>
        <time>2022-10-26T10:27:31Z</time>
      </trkpt>
      <trkpt lat="10.237203" lon="-67.870519">
        <ele>447.50</ele>
        <time>2022-10-26T10:27:32Z</time>
      </trkpt>
      <trkpt lat="10.237247" lon="-67.870437">
        <ele>447.30</ele>
        <time>2022-10-26T10:27:33Z</time>
      </trkpt>
      <trkpt lat="10.237289" lon="-67.870354">
        <ele>447.10</ele>
        <time>2022-10-26T10:27:34Z</time>
      </trkpt>
      <trkpt lat="10.237329" lon="-67.870265">
        <ele>446.90</ele>
        <time>2022-10-26T10:27:35Z</time>
      </trkpt>
      <trkpt lat="10.237377" lon="-67.870179">
        <ele>446.70</ele>
        <time>2022-10-26T10:27:36Z</time>
      </trkpt>
      <trkpt lat="10.237423" lon="-67.870101">
        <ele>446.60</ele>
        <time>2022-10-26T10:27:37Z</time>
      </trkpt>
      <trkpt lat="10.237465" lon="-67.870023">
        <ele>446.40</ele>
        <time>2022-10-26T10:27:38Z</time>
      </trkpt>
      <trkpt lat="10.237509" lon="-67.869945">
        <ele>446.30</ele>
        <time>2022-10-26T10:27:39Z</time>
      </trkpt>
      <trkpt lat="10.237550" lon="-67.869866">
        <ele>446.10</ele>
        <time>2022-10-26T10:27:40Z</time>
      </trkpt>
      <trkpt lat="10.237596" lon="-67.869786">
        <ele>445.80</ele>
        <time>2022-10-26T10:27:41Z</time>
      </trkpt>
      <trkpt lat="10.237639" lon="-67.869708">
        <ele>445.60</ele>
        <time>2022-10-26T10:27:42Z</time>
      </trkpt>
      <trkpt lat="10.237679" lon="-67.869630">
        <ele>445.50</ele>
        <time>2022-10-26T10:27:43Z</time>
      </trkpt>
      <trkpt lat="10.237717" lon="-67.869555">
        <ele>445.30</ele>
        <time>2022-10-26T10:27:44Z</time>
      </trkpt>
      <trkpt lat="10.237749" lon="-67.869462">
        <ele>445.20</ele>
        <time>2022-10-26T10:27:45Z</time>
      </trkpt>
      <trkpt lat="10.237777" lon="-67.869366">
        <ele>445.00</ele>
        <time>2022-10-26T10:27:46Z</time>
      </trkpt>
      <trkpt lat="10.237811" lon="-67.869275">
        <ele>444.80</ele>
        <time>2022-10-26T10:27:47Z</time>
      </trkpt>
      <trkpt lat="10.237845" lon="-67.869189">
        <ele>444.60</ele>
        <time>2022-10-26T10:27:48Z</time>
      </trkpt>
      <trkpt lat="10.237882" lon="-67.869105">
        <ele>444.40</ele>
        <time>2022-10-26T10:27:49Z</time>
      </trkpt>
      <trkpt lat="10.237920" lon="-67.869023">
        <ele>444.30</ele>
        <time>2022-10-26T10:27:50Z</time>
      </trkpt>
      <trkpt lat="10.237956" lon="-67.868940">
        <ele>444.10</ele>
        <time>2022-10-26T10:27:51Z</time>
      </trkpt>
      <trkpt lat="10.237993" lon="-67.868859">
        <ele>443.90</ele>
        <time>2022-10-26T10:27:52Z</time>
      </trkpt>
      <trkpt lat="10.238029" lon="-67.868774">
        <ele>443.70</ele>
        <time>2022-10-26T10:27:53Z</time>
      </trkpt>
      <trkpt lat="10.238060" lon="-67.868691">
        <ele>443.50</ele>
        <time>2022-10-26T10:27:54Z</time>
      </trkpt>
      <trkpt lat="10.238087" lon="-67.868605">
        <ele>443.30</ele>
        <time>2022-10-26T10:27:55Z</time>
      </trkpt>
      <trkpt lat="10.238118" lon="-67.868519">
        <ele>443.10</ele>
        <time>2022-10-26T10:27:56Z</time>
      </trkpt>
      <trkpt lat="10.238142" lon="-67.868441">
        <ele>443.00</ele>
        <time>2022-10-26T10:27:57Z</time>
      </trkpt>
      <trkpt lat="10.238165" lon="-67.868363">
        <ele>442.90</ele>
        <time>2022-10-26T10:27:58Z</time>
      </trkpt>
      <trkpt lat="10.238194" lon="-67.868292">
        <ele>442.70</ele>
        <time>2022-10-26T10:27:59Z</time>
      </trkpt>
      <trkpt lat="10.238228" lon="-67.868213">
        <ele>442.60</ele>
        <time>2022-10-26T10:28:00Z</time>
      </trkpt>
      <trkpt lat="10.238261" lon="-67.868135">
        <ele>442.50</ele>
        <time>2022-10-26T10:28:01Z</time>
      </trkpt>
      <trkpt lat="10.238294" lon="-67.868048">
        <ele>442.40</ele>
        <time>2022-10-26T10:28:02Z</time>
      </trkpt>
      <trkpt lat="10.238330" lon="-67.867959">
        <ele>442.30</ele>
        <time>2022-10-26T10:28:03Z</time>
      </trkpt>
      <trkpt lat="10.238363" lon="-67.867871">
        <ele>442.30</ele>
        <time>2022-10-26T10:28:04Z</time>
      </trkpt>
      <trkpt lat="10.238392" lon="-67.867782">
        <ele>442.20</ele>
        <time>2022-10-26T10:28:05Z</time>
      </trkpt>
      <trkpt lat="10.238422" lon="-67.867689">
        <ele>442.20</ele>
        <time>2022-10-26T10:28:06Z</time>
      </trkpt>
      <trkpt lat="10.238449" lon="-67.867597">
        <ele>442.10</ele>
        <time>2022-10-26T10:28:07Z</time>
      </trkpt>
      <trkpt lat="10.238474" lon="-67.867507">
        <ele>442.00</ele>
        <time>2022-10-26T10:28:08Z</time>
      </trkpt>
      <trkpt lat="10.238498" lon="-67.867416">
        <ele>441.90</ele>
        <time>2022-10-26T10:28:09Z</time>
      </trkpt>
      <trkpt lat="10.238526" lon="-67.867332">
        <ele>441.80</ele>
        <time>2022-10-26T10:28:10Z</time>
      </trkpt>
      <trkpt lat="10.238554" lon="-67.867249">
        <ele>441.70</ele>
        <time>2022-10-26T10:28:11Z</time>
      </trkpt>
      <trkpt lat="10.238576" lon="-67.867164">
        <ele>441.70</ele>
        <time>2022-10-26T10:28:12Z</time>
      </trkpt>
      <trkpt lat="10.238592" lon="-67.867073">
        <ele>441.70</ele>
        <time>2022-10-26T10:28:13Z</time>
      </trkpt>
      <trkpt lat="10.238611" lon="-67.866983">
        <ele>441.80</ele>
        <time>2022-10-26T10:28:14Z</time>
      </trkpt>
      <trkpt lat="10.238628" lon="-67.866897">
        <ele>441.80</ele>
        <time>2022-10-26T10:28:15Z</time>
      </trkpt>
      <trkpt lat="10.238646" lon="-67.866806">
        <ele>441.90</ele>
        <time>2022-10-26T10:28:16Z</time>
      </trkpt>
      <trkpt lat="10.238664" lon="-67.866712">
        <ele>441.90</ele>
        <time>2022-10-26T10:28:17Z</time>
      </trkpt>
      <trkpt lat="10.238683" lon="-67.866624">
        <ele>442.00</ele>
        <time>2022-10-26T10:28:18Z</time>
      </trkpt>
      <trkpt lat="10.238705" lon="-67.866543">
        <ele>442.00</ele>
        <time>2022-10-26T10:28:19Z</time>
      </trkpt>
      <trkpt lat="10.238728" lon="-67.866464">
        <ele>442.00</ele>
        <time>2022-10-26T10:28:20Z</time>
      </trkpt>
      <trkpt lat="10.238749" lon="-67.866386">
        <ele>442.10</ele>
        <time>2022-10-26T10:28:21Z</time>
      </trkpt>
      <trkpt lat="10.238767" lon="-67.866306">
        <ele>442.10</ele>
        <time>2022-10-26T10:28:22Z</time>
      </trkpt>
      <trkpt lat="10.238785" lon="-67.866225">
        <ele>442.10</ele>
        <time>2022-10-26T10:28:23Z</time>
      </trkpt>
      <trkpt lat="10.238802" lon="-67.866145">
        <ele>442.10</ele>
        <time>2022-10-26T10:28:24Z</time>
      </trkpt>
      <trkpt lat="10.238820" lon="-67.866069">
        <ele>442.10</ele>
        <time>2022-10-26T10:28:25Z</time>
      </trkpt>
      <trkpt lat="10.238838" lon="-67.865987">
        <ele>442.20</ele>
        <time>2022-10-26T10:28:26Z</time>
      </trkpt>
      <trkpt lat="10.238855" lon="-67.865908">
        <ele>442.20</ele>
        <time>2022-10-26T10:28:27Z</time>
      </trkpt>
      <trkpt lat="10.238873" lon="-67.865829">
        <ele>442.20</ele>
        <time>2022-10-26T10:28:28Z</time>
      </trkpt>
      <trkpt lat="10.238890" lon="-67.865751">
        <ele>442.20</ele>
        <time>2022-10-26T10:28:29Z</time>
      </trkpt>
      <trkpt lat="10.238910" lon="-67.865664">
        <ele>442.20</ele>
        <time>2022-10-26T10:28:30Z</time>
      </trkpt>
      <trkpt lat="10.238928" lon="-67.865583">
        <ele>442.20</ele>
        <time>2022-10-26T10:28:31Z</time>
      </trkpt>
      <trkpt lat="10.238944" lon="-67.865501">
        <ele>442.20</ele>
        <time>2022-10-26T10:28:32Z</time>
      </trkpt>
      <trkpt lat="10.238958" lon="-67.865421">
        <ele>442.20</ele>
        <time>2022-10-26T10:28:33Z</time>
      </trkpt>
      <trkpt lat="10.238975" lon="-67.865340">
        <ele>442.30</ele>
        <time>2022-10-26T10:28:34Z</time>
      </trkpt>
      <trkpt lat="10.238988" lon="-67.865264">
        <ele>442.30</ele>
        <time>2022-10-26T10:28:35Z</time>
      </trkpt>
      <trkpt lat="10.239004" lon="-67.865184">
        <ele>442.30</ele>
        <time>2022-10-26T10:28:36Z</time>
      </trkpt>
      <trkpt lat="10.239020" lon="-67.865103">
        <ele>442.20</ele>
        <time>2022-10-26T10:28:37Z</time>
      </trkpt>
      <trkpt lat="10.239040" lon="-67.865019">
        <ele>442.20</ele>
        <time>2022-10-26T10:28:38Z</time>
      </trkpt>
      <trkpt lat="10.239062" lon="-67.864935">
        <ele>442.20</ele>
        <time>2022-10-26T10:28:39Z</time>
      </trkpt>
      <trkpt lat="10.239088" lon="-67.864852">
        <ele>442.20</ele>
        <time>2022-10-26T10:28:40Z</time>
      </trkpt>
      <trkpt lat="10.239113" lon="-67.864771">
        <ele>442.20</ele>
        <time>2022-10-26T10:28:41Z</time>
      </trkpt>
      <trkpt lat="10.239137" lon="-67.864689">
        <ele>442.20</ele>
        <time>2022-10-26T10:28:42Z</time>
      </trkpt>
      <trkpt lat="10.239159" lon="-67.864609">
        <ele>442.20</ele>
        <time>2022-10-26T10:28:43Z</time>
      </trkpt>
      <trkpt lat="10.239179" lon="-67.864528">
        <ele>442.20</ele>
        <time>2022-10-26T10:28:44Z</time>
      </trkpt>
      <trkpt lat="10.239195" lon="-67.864449">
        <ele>442.20</ele>
        <time>2022-10-26T10:28:45Z</time>
      </trkpt>
      <trkpt lat="10.239215" lon="-67.864366">
        <ele>442.20</ele>
        <time>2022-10-26T10:28:46Z</time>
      </trkpt>
      <trkpt lat="10.239236" lon="-67.864281">
        <ele>442.20</ele>
        <time>2022-10-26T10:28:47Z</time>
      </trkpt>
      <trkpt lat="10.239260" lon="-67.864195">
        <ele>442.20</ele>
        <time>2022-10-26T10:28:48Z</time>
      </trkpt>
      <trkpt lat="10.239283" lon="-67.864114">
        <ele>442.20</ele>
        <time>2022-10-26T10:28:49Z</time>
      </trkpt>
      <trkpt lat="10.239308" lon="-67.864029">
        <ele>442.20</ele>
        <time>2022-10-26T10:28:50Z</time>
      </trkpt>
      <trkpt lat="10.239329" lon="-67.863945">
        <ele>442.20</ele>
        <time>2022-10-26T10:28:51Z</time>
      </trkpt>
      <trkpt lat="10.239347" lon="-67.863861">
        <ele>442.20</ele>
        <time>2022-10-26T10:28:52Z</time>
      </trkpt>
      <trkpt lat="10.239362" lon="-67.863779">
        <ele>442.20</ele>
        <time>2022-10-26T10:28:53Z</time>
      </trkpt>
      <trkpt lat="10.239380" lon="-67.863699">
        <ele>442.10</ele>
        <time>2022-10-26T10:28:54Z</time>
      </trkpt>
      <trkpt lat="10.239397" lon="-67.863620">
        <ele>442.10</ele>
        <time>2022-10-26T10:28:55Z</time>
      </trkpt>
      <trkpt lat="10.239412" lon="-67.863541">
        <ele>442.10</ele>
        <time>2022-10-26T10:28:56Z</time>
      </trkpt>
      <trkpt lat="10.239426" lon="-67.863464">
        <ele>442.10</ele>
        <time>2022-10-26T10:28:57Z</time>
      </trkpt>
      <trkpt lat="10.239438" lon="-67.863385">
        <ele>442.10</ele>
        <time>2022-10-26T10:28:58Z</time>
      </trkpt>
      <trkpt lat="10.239451" lon="-67.863307">
        <ele>442.10</ele>
        <time>2022-10-26T10:28:59Z</time>
      </trkpt>
      <trkpt lat="10.239464" lon="-67.863228">
        <ele>442.10</ele>
        <time>2022-10-26T10:29:00Z</time>
      </trkpt>
      <trkpt lat="10.239479" lon="-67.863150">
        <ele>442.10</ele>
        <time>2022-10-26T10:29:01Z</time>
      </trkpt>
      <trkpt lat="10.239500" lon="-67.863062">
        <ele>442.10</ele>
        <time>2022-10-26T10:29:02Z</time>
      </trkpt>
      <trkpt lat="10.239518" lon="-67.862974">
        <ele>442.10</ele>
        <time>2022-10-26T10:29:03Z</time>
      </trkpt>
      <trkpt lat="10.239545" lon="-67.862886">
        <ele>442.10</ele>
        <time>2022-10-26T10:29:04Z</time>
      </trkpt>
      <trkpt lat="10.239571" lon="-67.862800">
        <ele>442.10</ele>
        <time>2022-10-26T10:29:05Z</time>
      </trkpt>
      <trkpt lat="10.239595" lon="-67.862720">
        <ele>442.10</ele>
        <time>2022-10-26T10:29:06Z</time>
      </trkpt>
      <trkpt lat="10.239615" lon="-67.862645">
        <ele>442.10</ele>
        <time>2022-10-26T10:29:07Z</time>
      </trkpt>
      <trkpt lat="10.239634" lon="-67.862568">
        <ele>442.10</ele>
        <time>2022-10-26T10:29:08Z</time>
      </trkpt>
      <trkpt lat="10.239653" lon="-67.862491">
        <ele>442.10</ele>
        <time>2022-10-26T10:29:09Z</time>
      </trkpt>
      <trkpt lat="10.239672" lon="-67.862410">
        <ele>442.10</ele>
        <time>2022-10-26T10:29:10Z</time>
      </trkpt>
      <trkpt lat="10.239693" lon="-67.862330">
        <ele>442.10</ele>
        <time>2022-10-26T10:29:11Z</time>
      </trkpt>
      <trkpt lat="10.239715" lon="-67.862249">
        <ele>442.10</ele>
        <time>2022-10-26T10:29:12Z</time>
      </trkpt>
      <trkpt lat="10.239738" lon="-67.862168">
        <ele>442.10</ele>
        <time>2022-10-26T10:29:13Z</time>
      </trkpt>
      <trkpt lat="10.239763" lon="-67.862085">
        <ele>442.10</ele>
        <time>2022-10-26T10:29:14Z</time>
      </trkpt>
      <trkpt lat="10.239785" lon="-67.862003">
        <ele>442.10</ele>
        <time>2022-10-26T10:29:15Z</time>
      </trkpt>
      <trkpt lat="10.239805" lon="-67.861920">
        <ele>442.10</ele>
        <time>2022-10-26T10:29:16Z</time>
      </trkpt>
      <trkpt lat="10.239824" lon="-67.861838">
        <ele>442.10</ele>
        <time>2022-10-26T10:29:17Z</time>
      </trkpt>
      <trkpt lat="10.239844" lon="-67.861757">
        <ele>442.20</ele>
        <time>2022-10-26T10:29:18Z</time>
      </trkpt>
      <trkpt lat="10.239860" lon="-67.861673">
        <ele>442.20</ele>
        <time>2022-10-26T10:29:19Z</time>
      </trkpt>
      <trkpt lat="10.239884" lon="-67.861591">
        <ele>442.10</ele>
        <time>2022-10-26T10:29:20Z</time>
      </trkpt>
      <trkpt lat="10.239908" lon="-67.861510">
        <ele>442.10</ele>
        <time>2022-10-26T10:29:21Z</time>
      </trkpt>
      <trkpt lat="10.239930" lon="-67.861433">
        <ele>442.10</ele>
        <time>2022-10-26T10:29:22Z</time>
      </trkpt>
      <trkpt lat="10.239953" lon="-67.861349">
        <ele>442.20</ele>
        <time>2022-10-26T10:29:23Z</time>
      </trkpt>
      <trkpt lat="10.239975" lon="-67.861270">
        <ele>442.20</ele>
        <time>2022-10-26T10:29:24Z</time>
      </trkpt>
      <trkpt lat="10.239997" lon="-67.861190">
        <ele>442.20</ele>
        <time>2022-10-26T10:29:25Z</time>
      </trkpt>
      <trkpt lat="10.240017" lon="-67.861112">
        <ele>442.20</ele>
        <time>2022-10-26T10:29:26Z</time>
      </trkpt>
      <trkpt lat="10.240034" lon="-67.861034">
        <ele>442.20</ele>
        <time>2022-10-26T10:29:27Z</time>
      </trkpt>
      <trkpt lat="10.240051" lon="-67.860958">
        <ele>442.20</ele>
        <time>2022-10-26T10:29:28Z</time>
      </trkpt>
      <trkpt lat="10.240073" lon="-67.860883">
        <ele>442.10</ele>
        <time>2022-10-26T10:29:29Z</time>
      </trkpt>
      <trkpt lat="10.240092" lon="-67.860808">
        <ele>442.10</ele>
        <time>2022-10-26T10:29:30Z</time>
      </trkpt>
      <trkpt lat="10.240108" lon="-67.860730">
        <ele>442.10</ele>
        <time>2022-10-26T10:29:31Z</time>
      </trkpt>
      <trkpt lat="10.240125" lon="-67.860655">
        <ele>442.10</ele>
        <time>2022-10-26T10:29:32Z</time>
      </trkpt>
      <trkpt lat="10.240143" lon="-67.860580">
        <ele>442.10</ele>
        <time>2022-10-26T10:29:33Z</time>
      </trkpt>
      <trkpt lat="10.240163" lon="-67.860505">
        <ele>442.10</ele>
        <time>2022-10-26T10:29:34Z</time>
      </trkpt>
      <trkpt lat="10.240182" lon="-67.860429">
        <ele>442.10</ele>
        <time>2022-10-26T10:29:35Z</time>
      </trkpt>
      <trkpt lat="10.240199" lon="-67.860356">
        <ele>442.10</ele>
        <time>2022-10-26T10:29:36Z</time>
      </trkpt>
      <trkpt lat="10.240211" lon="-67.860284">
        <ele>442.10</ele>
        <time>2022-10-26T10:29:37Z</time>
      </trkpt>
      <trkpt lat="10.240224" lon="-67.860212">
        <ele>442.10</ele>
        <time>2022-10-26T10:29:38Z</time>
      </trkpt>
      <trkpt lat="10.240237" lon="-67.860138">
        <ele>442.10</ele>
        <time>2022-10-26T10:29:39Z</time>
      </trkpt>
      <trkpt lat="10.240251" lon="-67.860061">
        <ele>442.10</ele>
        <time>2022-10-26T10:29:40Z</time>
      </trkpt>
      <trkpt lat="10.240264" lon="-67.859982">
        <ele>442.10</ele>
        <time>2022-10-26T10:29:41Z</time>
      </trkpt>
      <trkpt lat="10.240282" lon="-67.859904">
        <ele>442.10</ele>
        <time>2022-10-26T10:29:42Z</time>
      </trkpt>
      <trkpt lat="10.240301" lon="-67.859825">
        <ele>442.10</ele>
        <time>2022-10-26T10:29:43Z</time>
      </trkpt>
      <trkpt lat="10.240318" lon="-67.859750">
        <ele>442.10</ele>
        <time>2022-10-26T10:29:44Z</time>
      </trkpt>
      <trkpt lat="10.240338" lon="-67.859672">
        <ele>442.10</ele>
        <time>2022-10-26T10:29:45Z</time>
      </trkpt>
      <trkpt lat="10.240357" lon="-67.859593">
        <ele>442.10</ele>
        <time>2022-10-26T10:29:46Z</time>
      </trkpt>
      <trkpt lat="10.240374" lon="-67.859511">
        <ele>442.10</ele>
        <time>2022-10-26T10:29:47Z</time>
      </trkpt>
      <trkpt lat="10.240392" lon="-67.859426">
        <ele>442.10</ele>
        <time>2022-10-26T10:29:48Z</time>
      </trkpt>
      <trkpt lat="10.240410" lon="-67.859345">
        <ele>442.10</ele>
        <time>2022-10-26T10:29:49Z</time>
      </trkpt>
      <trkpt lat="10.240428" lon="-67.859268">
        <ele>442.10</ele>
        <time>2022-10-26T10:29:50Z</time>
      </trkpt>
      <trkpt lat="10.240447" lon="-67.859189">
        <ele>442.10</ele>
        <time>2022-10-26T10:29:51Z</time>
      </trkpt>
      <trkpt lat="10.240465" lon="-67.859112">
        <ele>442.10</ele>
        <time>2022-10-26T10:29:52Z</time>
      </trkpt>
      <trkpt lat="10.240482" lon="-67.859033">
        <ele>442.10</ele>
        <time>2022-10-26T10:29:53Z</time>
      </trkpt>
      <trkpt lat="10.240499" lon="-67.858952">
        <ele>442.00</ele>
        <time>2022-10-26T10:29:54Z</time>
      </trkpt>
      <trkpt lat="10.240514" lon="-67.858874">
        <ele>442.00</ele>
        <time>2022-10-26T10:29:55Z</time>
      </trkpt>
      <trkpt lat="10.240532" lon="-67.858794">
        <ele>442.00</ele>
        <time>2022-10-26T10:29:56Z</time>
      </trkpt>
      <trkpt lat="10.240550" lon="-67.858713">
        <ele>441.90</ele>
        <time>2022-10-26T10:29:57Z</time>
      </trkpt>
      <trkpt lat="10.240568" lon="-67.858631">
        <ele>441.90</ele>
        <time>2022-10-26T10:29:58Z</time>
      </trkpt>
      <trkpt lat="10.240587" lon="-67.858551">
        <ele>441.90</ele>
        <time>2022-10-26T10:29:59Z</time>
      </trkpt>
      <trkpt lat="10.240612" lon="-67.858463">
        <ele>441.90</ele>
        <time>2022-10-26T10:30:00Z</time>
      </trkpt>
      <trkpt lat="10.240637" lon="-67.858380">
        <ele>441.90</ele>
        <time>2022-10-26T10:30:01Z</time>
      </trkpt>
      <trkpt lat="10.240657" lon="-67.858302">
        <ele>441.90</ele>
        <time>2022-10-26T10:30:02Z</time>
      </trkpt>
      <trkpt lat="10.240674" lon="-67.858226">
        <ele>441.90</ele>
        <time>2022-10-26T10:30:03Z</time>
      </trkpt>
      <trkpt lat="10.240690" lon="-67.858147">
        <ele>441.80</ele>
        <time>2022-10-26T10:30:04Z</time>
      </trkpt>
      <trkpt lat="10.240704" lon="-67.858073">
        <ele>441.80</ele>
        <time>2022-10-26T10:30:05Z</time>
      </trkpt>
      <trkpt lat="10.240727" lon="-67.857997">
        <ele>441.80</ele>
        <time>2022-10-26T10:30:06Z</time>
      </trkpt>
      <trkpt lat="10.240747" lon="-67.857918">
        <ele>441.80</ele>
        <time>2022-10-26T10:30:07Z</time>
      </trkpt>
      <trkpt lat="10.240769" lon="-67.857838">
        <ele>441.80</ele>
        <time>2022-10-26T10:30:08Z</time>
      </trkpt>
      <trkpt lat="10.240794" lon="-67.857764">
        <ele>441.80</ele>
        <time>2022-10-26T10:30:09Z</time>
      </trkpt>
      <trkpt lat="10.240816" lon="-67.857687">
        <ele>441.80</ele>
        <time>2022-10-26T10:30:10Z</time>
      </trkpt>
      <trkpt lat="10.240834" lon="-67.857608">
        <ele>441.80</ele>
        <time>2022-10-26T10:30:11Z</time>
      </trkpt>
      <trkpt lat="10.240853" lon="-67.857531">
        <ele>441.80</ele>
        <time>2022-10-26T10:30:12Z</time>
      </trkpt>
      <trkpt lat="10.240869" lon="-67.857457">
        <ele>441.80</ele>
        <time>2022-10-26T10:30:13Z</time>
      </trkpt>
      <trkpt lat="10.240887" lon="-67.857384">
        <ele>441.80</ele>
        <time>2022-10-26T10:30:14Z</time>
      </trkpt>
      <trkpt lat="10.240907" lon="-67.857314">
        <ele>441.80</ele>
        <time>2022-10-26T10:30:15Z</time>
      </trkpt>
      <trkpt lat="10.240925" lon="-67.857241">
        <ele>441.80</ele>
        <time>2022-10-26T10:30:16Z</time>
      </trkpt>
      <trkpt lat="10.240945" lon="-67.857166">
        <ele>441.70</ele>
        <time>2022-10-26T10:30:17Z</time>
      </trkpt>
      <trkpt lat="10.240958" lon="-67.857091">
        <ele>441.70</ele>
        <time>2022-10-26T10:30:18Z</time>
      </trkpt>
      <trkpt lat="10.240978" lon="-67.857017">
        <ele>441.60</ele>
        <time>2022-10-26T10:30:19Z</time>
      </trkpt>
      <trkpt lat="10.240998" lon="-67.856943">
        <ele>441.60</ele>
        <time>2022-10-26T10:30:20Z</time>
      </trkpt>
      <trkpt lat="10.241017" lon="-67.856870">
        <ele>441.60</ele>
        <time>2022-10-26T10:30:21Z</time>
      </trkpt>
      <trkpt lat="10.241034" lon="-67.856793">
        <ele>441.60</ele>
        <time>2022-10-26T10:30:22Z</time>
      </trkpt>
      <trkpt lat="10.241049" lon="-67.856710">
        <ele>441.60</ele>
        <time>2022-10-26T10:30:23Z</time>
      </trkpt>
      <trkpt lat="10.241061" lon="-67.856625">
        <ele>441.60</ele>
        <time>2022-10-26T10:30:24Z</time>
      </trkpt>
      <trkpt lat="10.241071" lon="-67.856546">
        <ele>441.50</ele>
        <time>2022-10-26T10:30:25Z</time>
      </trkpt>
      <trkpt lat="10.241086" lon="-67.856474">
        <ele>441.50</ele>
        <time>2022-10-26T10:30:26Z</time>
      </trkpt>
      <trkpt lat="10.241106" lon="-67.856407">
        <ele>441.50</ele>
        <time>2022-10-26T10:30:27Z</time>
      </trkpt>
      <trkpt lat="10.241123" lon="-67.856342">
        <ele>441.50</ele>
        <time>2022-10-26T10:30:28Z</time>
      </trkpt>
      <trkpt lat="10.241140" lon="-67.856277">
        <ele>441.50</ele>
        <time>2022-10-26T10:30:29Z</time>
      </trkpt>
      <trkpt lat="10.241161" lon="-67.856209">
        <ele>441.40</ele>
        <time>2022-10-26T10:30:30Z</time>
      </trkpt>
      <trkpt lat="10.241180" lon="-67.856139">
        <ele>441.40</ele>
        <time>2022-10-26T10:30:31Z</time>
      </trkpt>
      <trkpt lat="10.241200" lon="-67.856067">
        <ele>441.40</ele>
        <time>2022-10-26T10:30:32Z</time>
      </trkpt>
      <trkpt lat="10.241225" lon="-67.855989">
        <ele>441.40</ele>
        <time>2022-10-26T10:30:33Z</time>
      </trkpt>
      <trkpt lat="10.241246" lon="-67.855917">
        <ele>441.30</ele>
        <time>2022-10-26T10:30:34Z</time>
      </trkpt>
      <trkpt lat="10.241265" lon="-67.855849">
        <ele>441.30</ele>
        <time>2022-10-26T10:30:35Z</time>
      </trkpt>
      <trkpt lat="10.241283" lon="-67.855782">
        <ele>441.30</ele>
        <time>2022-10-26T10:30:36Z</time>
      </trkpt>
      <trkpt lat="10.241296" lon="-67.855714">
        <ele>441.30</ele>
        <time>2022-10-26T10:30:37Z</time>
      </trkpt>
      <trkpt lat="10.241308" lon="-67.855646">
        <ele>441.30</ele>
        <time>2022-10-26T10:30:38Z</time>
      </trkpt>
      <trkpt lat="10.241323" lon="-67.855581">
        <ele>441.20</ele>
        <time>2022-10-26T10:30:39Z</time>
      </trkpt>
      <trkpt lat="10.241340" lon="-67.855515">
        <ele>441.20</ele>
        <time>2022-10-26T10:30:40Z</time>
      </trkpt>
      <trkpt lat="10.241357" lon="-67.855444">
        <ele>441.20</ele>
        <time>2022-10-26T10:30:41Z</time>
      </trkpt>
      <trkpt lat="10.241371" lon="-67.855374">
        <ele>441.20</ele>
        <time>2022-10-26T10:30:42Z</time>
      </trkpt>
      <trkpt lat="10.241384" lon="-67.855303">
        <ele>441.20</ele>
        <time>2022-10-26T10:30:43Z</time>
      </trkpt>
      <trkpt lat="10.241403" lon="-67.855234">
        <ele>441.20</ele>
        <time>2022-10-26T10:30:44Z</time>
      </trkpt>
      <trkpt lat="10.241418" lon="-67.855165">
        <ele>441.10</ele>
        <time>2022-10-26T10:30:45Z</time>
      </trkpt>
      <trkpt lat="10.241433" lon="-67.855098">
        <ele>441.10</ele>
        <time>2022-10-26T10:30:46Z</time>
      </trkpt>
      <trkpt lat="10.241446" lon="-67.855027">
        <ele>441.10</ele>
        <time>2022-10-26T10:30:47Z</time>
      </trkpt>
      <trkpt lat="10.241463" lon="-67.854952">
        <ele>441.10</ele>
        <time>2022-10-26T10:30:48Z</time>
      </trkpt>
      <trkpt lat="10.241484" lon="-67.854873">
        <ele>441.10</ele>
        <time>2022-10-26T10:30:49Z</time>
      </trkpt>
      <trkpt lat="10.241502" lon="-67.854798">
        <ele>441.10</ele>
        <time>2022-10-26T10:30:50Z</time>
      </trkpt>
      <trkpt lat="10.241519" lon="-67.854726">
        <ele>441.10</ele>
        <time>2022-10-26T10:30:51Z</time>
      </trkpt>
      <trkpt lat="10.241538" lon="-67.854651">
        <ele>441.10</ele>
        <time>2022-10-26T10:30:52Z</time>
      </trkpt>
      <trkpt lat="10.241555" lon="-67.854575">
        <ele>441.10</ele>
        <time>2022-10-26T10:30:53Z</time>
      </trkpt>
      <trkpt lat="10.241572" lon="-67.854496">
        <ele>441.10</ele>
        <time>2022-10-26T10:30:54Z</time>
      </trkpt>
      <trkpt lat="10.241589" lon="-67.854422">
        <ele>441.00</ele>
        <time>2022-10-26T10:30:55Z</time>
      </trkpt>
      <trkpt lat="10.241608" lon="-67.854346">
        <ele>441.00</ele>
        <time>2022-10-26T10:30:56Z</time>
      </trkpt>
      <trkpt lat="10.241628" lon="-67.854270">
        <ele>441.00</ele>
        <time>2022-10-26T10:30:57Z</time>
      </trkpt>
      <trkpt lat="10.241650" lon="-67.854194">
        <ele>441.10</ele>
        <time>2022-10-26T10:30:58Z</time>
      </trkpt>
      <trkpt lat="10.241669" lon="-67.854124">
        <ele>441.10</ele>
        <time>2022-10-26T10:30:59Z</time>
      </trkpt>
      <trkpt lat="10.241679" lon="-67.854043">
        <ele>441.10</ele>
        <time>2022-10-26T10:31:00Z</time>
      </trkpt>
      <trkpt lat="10.241692" lon="-67.853967">
        <ele>441.10</ele>
        <time>2022-10-26T10:31:01Z</time>
      </trkpt>
      <trkpt lat="10.241706" lon="-67.853887">
        <ele>441.10</ele>
        <time>2022-10-26T10:31:02Z</time>
      </trkpt>
      <trkpt lat="10.241718" lon="-67.853809">
        <ele>441.10</ele>
        <time>2022-10-26T10:31:03Z</time>
      </trkpt>
      <trkpt lat="10.241730" lon="-67.853730">
        <ele>441.10</ele>
        <time>2022-10-26T10:31:04Z</time>
      </trkpt>
      <trkpt lat="10.241740" lon="-67.853654">
        <ele>441.10</ele>
        <time>2022-10-26T10:31:05Z</time>
      </trkpt>
      <trkpt lat="10.241757" lon="-67.853576">
        <ele>441.20</ele>
        <time>2022-10-26T10:31:06Z</time>
      </trkpt>
      <trkpt lat="10.241767" lon="-67.853499">
        <ele>441.20</ele>
        <time>2022-10-26T10:31:07Z</time>
      </trkpt>
      <trkpt lat="10.241782" lon="-67.853425">
        <ele>441.20</ele>
        <time>2022-10-26T10:31:08Z</time>
      </trkpt>
      <trkpt lat="10.241793" lon="-67.853352">
        <ele>441.20</ele>
        <time>2022-10-26T10:31:09Z</time>
      </trkpt>
      <trkpt lat="10.241808" lon="-67.853280">
        <ele>441.20</ele>
        <time>2022-10-26T10:31:10Z</time>
      </trkpt>
      <trkpt lat="10.241829" lon="-67.853220">
        <ele>441.20</ele>
        <time>2022-10-26T10:31:11Z</time>
      </trkpt>
      <trkpt lat="10.241851" lon="-67.853162">
        <ele>441.20</ele>
        <time>2022-10-26T10:31:12Z</time>
      </trkpt>
      <trkpt lat="10.241873" lon="-67.853102">
        <ele>441.30</ele>
        <time>2022-10-26T10:31:13Z</time>
      </trkpt>
      <trkpt lat="10.241897" lon="-67.853045">
        <ele>441.30</ele>
        <time>2022-10-26T10:31:14Z</time>
      </trkpt>
      <trkpt lat="10.241921" lon="-67.852979">
        <ele>441.30</ele>
        <time>2022-10-26T10:31:15Z</time>
      </trkpt>
      <trkpt lat="10.241942" lon="-67.852911">
        <ele>441.30</ele>
        <time>2022-10-26T10:31:16Z</time>
      </trkpt>
      <trkpt lat="10.241960" lon="-67.852840">
        <ele>441.20</ele>
        <time>2022-10-26T10:31:17Z</time>
      </trkpt>
      <trkpt lat="10.241980" lon="-67.852770">
        <ele>441.20</ele>
        <time>2022-10-26T10:31:18Z</time>
      </trkpt>
      <trkpt lat="10.242000" lon="-67.852702">
        <ele>441.20</ele>
        <time>2022-10-26T10:31:19Z</time>
      </trkpt>
      <trkpt lat="10.242021" lon="-67.852632">
        <ele>441.20</ele>
        <time>2022-10-26T10:31:20Z</time>
      </trkpt>
      <trkpt lat="10.242045" lon="-67.852561">
        <ele>441.20</ele>
        <time>2022-10-26T10:31:21Z</time>
      </trkpt>
      <trkpt lat="10.242069" lon="-67.852492">
        <ele>441.10</ele>
        <time>2022-10-26T10:31:22Z</time>
      </trkpt>
      <trkpt lat="10.242093" lon="-67.852419">
        <ele>441.10</ele>
        <time>2022-10-26T10:31:23Z</time>
      </trkpt>
      <trkpt lat="10.242117" lon="-67.852347">
        <ele>441.10</ele>
        <time>2022-10-26T10:31:24Z</time>
      </trkpt>
      <trkpt lat="10.242140" lon="-67.852275">
        <ele>441.20</ele>
        <time>2022-10-26T10:31:25Z</time>
      </trkpt>
      <trkpt lat="10.242166" lon="-67.852202">
        <ele>441.20</ele>
        <time>2022-10-26T10:31:26Z</time>
      </trkpt>
      <trkpt lat="10.242190" lon="-67.852124">
        <ele>441.20</ele>
        <time>2022-10-26T10:31:27Z</time>
      </trkpt>
      <trkpt lat="10.242210" lon="-67.852051">
        <ele>441.30</ele>
        <time>2022-10-26T10:31:28Z</time>
      </trkpt>
      <trkpt lat="10.242235" lon="-67.851978">
        <ele>441.30</ele>
        <time>2022-10-26T10:31:29Z</time>
      </trkpt>
      <trkpt lat="10.242264" lon="-67.851909">
        <ele>441.40</ele>
        <time>2022-10-26T10:31:30Z</time>
      </trkpt>
      <trkpt lat="10.242295" lon="-67.851839">
        <ele>441.40</ele>
        <time>2022-10-26T10:31:31Z</time>
      </trkpt>
      <trkpt lat="10.242321" lon="-67.851770">
        <ele>441.40</ele>
        <time>2022-10-26T10:31:32Z</time>
      </trkpt>
      <trkpt lat="10.242348" lon="-67.851702">
        <ele>441.50</ele>
        <time>2022-10-26T10:31:33Z</time>
      </trkpt>
      <trkpt lat="10.242373" lon="-67.851639">
        <ele>441.50</ele>
        <time>2022-10-26T10:31:34Z</time>
      </trkpt>
      <trkpt lat="10.242402" lon="-67.851575">
        <ele>441.50</ele>
        <time>2022-10-26T10:31:35Z</time>
      </trkpt>
      <trkpt lat="10.242426" lon="-67.851509">
        <ele>441.50</ele>
        <time>2022-10-26T10:31:36Z</time>
      </trkpt>
      <trkpt lat="10.242448" lon="-67.851442">
        <ele>441.60</ele>
        <time>2022-10-26T10:31:37Z</time>
      </trkpt>
      <trkpt lat="10.242473" lon="-67.851376">
        <ele>441.60</ele>
        <time>2022-10-26T10:31:38Z</time>
      </trkpt>
      <trkpt lat="10.242500" lon="-67.851311">
        <ele>441.60</ele>
        <time>2022-10-26T10:31:39Z</time>
      </trkpt>
      <trkpt lat="10.242525" lon="-67.851245">
        <ele>441.60</ele>
        <time>2022-10-26T10:31:40Z</time>
      </trkpt>
      <trkpt lat="10.242547" lon="-67.851181">
        <ele>441.70</ele>
        <time>2022-10-26T10:31:41Z</time>
      </trkpt>
      <trkpt lat="10.242567" lon="-67.851116">
        <ele>441.70</ele>
        <time>2022-10-26T10:31:42Z</time>
      </trkpt>
      <trkpt lat="10.242587" lon="-67.851053">
        <ele>441.70</ele>
        <time>2022-10-26T10:31:43Z</time>
      </trkpt>
      <trkpt lat="10.242610" lon="-67.850988">
        <ele>441.70</ele>
        <time>2022-10-26T10:31:44Z</time>
      </trkpt>
      <trkpt lat="10.242625" lon="-67.850923">
        <ele>441.80</ele>
        <time>2022-10-26T10:31:45Z</time>
      </trkpt>
      <trkpt lat="10.242647" lon="-67.850859">
        <ele>441.80</ele>
        <time>2022-10-26T10:31:46Z</time>
      </trkpt>
      <trkpt lat="10.242669" lon="-67.850794">
        <ele>441.80</ele>
        <time>2022-10-26T10:31:47Z</time>
      </trkpt>
      <trkpt lat="10.242695" lon="-67.850736">
        <ele>441.90</ele>
        <time>2022-10-26T10:31:48Z</time>
      </trkpt>
      <trkpt lat="10.242722" lon="-67.850680">
        <ele>441.90</ele>
        <time>2022-10-26T10:31:49Z</time>
      </trkpt>
      <trkpt lat="10.242749" lon="-67.850618">
        <ele>441.90</ele>
        <time>2022-10-26T10:31:50Z</time>
      </trkpt>
      <trkpt lat="10.242778" lon="-67.850557">
        <ele>441.90</ele>
        <time>2022-10-26T10:31:51Z</time>
      </trkpt>
      <trkpt lat="10.242809" lon="-67.850498">
        <ele>442.00</ele>
        <time>2022-10-26T10:31:52Z</time>
      </trkpt>
      <trkpt lat="10.242836" lon="-67.850432">
        <ele>442.00</ele>
        <time>2022-10-26T10:31:53Z</time>
      </trkpt>
      <trkpt lat="10.242866" lon="-67.850364">
        <ele>442.00</ele>
        <time>2022-10-26T10:31:54Z</time>
      </trkpt>
      <trkpt lat="10.242898" lon="-67.850296">
        <ele>442.00</ele>
        <time>2022-10-26T10:31:55Z</time>
      </trkpt>
      <trkpt lat="10.242932" lon="-67.850230">
        <ele>442.00</ele>
        <time>2022-10-26T10:31:56Z</time>
      </trkpt>
      <trkpt lat="10.242970" lon="-67.850166">
        <ele>442.00</ele>
        <time>2022-10-26T10:31:57Z</time>
      </trkpt>
      <trkpt lat="10.243005" lon="-67.850100">
        <ele>442.10</ele>
        <time>2022-10-26T10:31:58Z</time>
      </trkpt>
      <trkpt lat="10.243038" lon="-67.850035">
        <ele>442.10</ele>
        <time>2022-10-26T10:31:59Z</time>
      </trkpt>
      <trkpt lat="10.243071" lon="-67.849975">
        <ele>442.10</ele>
        <time>2022-10-26T10:32:00Z</time>
      </trkpt>
      <trkpt lat="10.243104" lon="-67.849926">
        <ele>442.10</ele>
        <time>2022-10-26T10:32:01Z</time>
      </trkpt>
      <trkpt lat="10.243137" lon="-67.849871">
        <ele>442.10</ele>
        <time>2022-10-26T10:32:02Z</time>
      </trkpt>
      <trkpt lat="10.243174" lon="-67.849814">
        <ele>442.10</ele>
        <time>2022-10-26T10:32:03Z</time>
      </trkpt>
      <trkpt lat="10.243209" lon="-67.849758">
        <ele>442.10</ele>
        <time>2022-10-26T10:32:04Z</time>
      </trkpt>
      <trkpt lat="10.243243" lon="-67.849704">
        <ele>442.10</ele>
        <time>2022-10-26T10:32:05Z</time>
      </trkpt>
      <trkpt lat="10.243272" lon="-67.849651">
        <ele>442.20</ele>
        <time>2022-10-26T10:32:06Z</time>
      </trkpt>
      <trkpt lat="10.243300" lon="-67.849597">
        <ele>442.20</ele>
        <time>2022-10-26T10:32:07Z</time>
      </trkpt>
      <trkpt lat="10.243331" lon="-67.849542">
        <ele>442.20</ele>
        <time>2022-10-26T10:32:08Z</time>
      </trkpt>
      <trkpt lat="10.243361" lon="-67.849491">
        <ele>442.20</ele>
        <time>2022-10-26T10:32:09Z</time>
      </trkpt>
      <trkpt lat="10.243382" lon="-67.849435">
        <ele>442.20</ele>
        <time>2022-10-26T10:32:10Z</time>
      </trkpt>
      <trkpt lat="10.243404" lon="-67.849383">
        <ele>442.20</ele>
        <time>2022-10-26T10:32:11Z</time>
      </trkpt>
      <trkpt lat="10.243421" lon="-67.849339">
        <ele>442.20</ele>
        <time>2022-10-26T10:32:12Z</time>
      </trkpt>
      <trkpt lat="10.243436" lon="-67.849307">
        <ele>442.20</ele>
        <time>2022-10-26T10:32:13Z</time>
      </trkpt>
      <trkpt lat="10.243455" lon="-67.849274">
        <ele>442.20</ele>
        <time>2022-10-26T10:32:14Z</time>
      </trkpt>
      <trkpt lat="10.243461" lon="-67.849264">
        <ele>442.20</ele>
        <time>2022-10-26T10:32:15Z</time>
      </trkpt>
      <trkpt lat="10.243476" lon="-67.849239">
        <ele>442.20</ele>
        <time>2022-10-26T10:32:16Z</time>
      </trkpt>
      <trkpt lat="10.243486" lon="-67.849214">
        <ele>442.20</ele>
        <time>2022-10-26T10:32:17Z</time>
      </trkpt>
      <trkpt lat="10.243501" lon="-67.849187">
        <ele>442.20</ele>
        <time>2022-10-26T10:32:18Z</time>
      </trkpt>
      <trkpt lat="10.243514" lon="-67.849152">
        <ele>442.20</ele>
        <time>2022-10-26T10:32:19Z</time>
      </trkpt>
      <trkpt lat="10.243519" lon="-67.849139">
        <ele>442.20</ele>
        <time>2022-10-26T10:32:20Z</time>
      </trkpt>
      <trkpt lat="10.243535" lon="-67.849111">
        <ele>442.20</ele>
        <time>2022-10-26T10:32:21Z</time>
      </trkpt>
      <trkpt lat="10.243553" lon="-67.849081">
        <ele>442.20</ele>
        <time>2022-10-26T10:32:22Z</time>
      </trkpt>
      <trkpt lat="10.243572" lon="-67.849054">
        <ele>442.20</ele>
        <time>2022-10-26T10:32:23Z</time>
      </trkpt>
      <trkpt lat="10.243590" lon="-67.849029">
        <ele>442.20</ele>
        <time>2022-10-26T10:32:24Z</time>
      </trkpt>
      <trkpt lat="10.243605" lon="-67.848993">
        <ele>442.20</ele>
        <time>2022-10-26T10:32:25Z</time>
      </trkpt>
      <trkpt lat="10.243620" lon="-67.848954">
        <ele>442.20</ele>
        <time>2022-10-26T10:32:26Z</time>
      </trkpt>
      <trkpt lat="10.243639" lon="-67.848914">
        <ele>442.20</ele>
        <time>2022-10-26T10:32:27Z</time>
      </trkpt>
      <trkpt lat="10.243651" lon="-67.848873">
        <ele>442.20</ele>
        <time>2022-10-26T10:32:28Z</time>
      </trkpt>
      <trkpt lat="10.243663" lon="-67.848833">
        <ele>442.20</ele>
        <time>2022-10-26T10:32:29Z</time>
      </trkpt>
      <trkpt lat="10.243681" lon="-67.848793">
        <ele>442.20</ele>
        <time>2022-10-26T10:32:30Z</time>
      </trkpt>
      <trkpt lat="10.243703" lon="-67.848757">
        <ele>442.20</ele>
        <time>2022-10-26T10:32:31Z</time>
      </trkpt>
      <trkpt lat="10.243725" lon="-67.848720">
        <ele>442.10</ele>
        <time>2022-10-26T10:32:32Z</time>
      </trkpt>
      <trkpt lat="10.243748" lon="-67.848683">
        <ele>442.10</ele>
        <time>2022-10-26T10:32:33Z</time>
      </trkpt>
      <trkpt lat="10.243773" lon="-67.848645">
        <ele>442.10</ele>
        <time>2022-10-26T10:32:34Z</time>
      </trkpt>
      <trkpt lat="10.243794" lon="-67.848606">
        <ele>442.10</ele>
        <time>2022-10-26T10:32:35Z</time>
      </trkpt>
      <trkpt lat="10.243817" lon="-67.848562">
        <ele>442.00</ele>
        <time>2022-10-26T10:32:36Z</time>
      </trkpt>
      <trkpt lat="10.243843" lon="-67.848517">
        <ele>442.00</ele>
        <time>2022-10-26T10:32:37Z</time>
      </trkpt>
      <trkpt lat="10.243871" lon="-67.848475">
        <ele>442.00</ele>
        <time>2022-10-26T10:32:38Z</time>
      </trkpt>
      <trkpt lat="10.243901" lon="-67.848432">
        <ele>442.00</ele>
        <time>2022-10-26T10:32:39Z</time>
      </trkpt>
      <trkpt lat="10.243930" lon="-67.848390">
        <ele>442.00</ele>
        <time>2022-10-26T10:32:40Z</time>
      </trkpt>
      <trkpt lat="10.243956" lon="-67.848344">
        <ele>441.90</ele>
        <time>2022-10-26T10:32:41Z</time>
      </trkpt>
      <trkpt lat="10.243980" lon="-67.848298">
        <ele>441.90</ele>
        <time>2022-10-26T10:32:42Z</time>
      </trkpt>
      <trkpt lat="10.244009" lon="-67.848254">
        <ele>441.90</ele>
        <time>2022-10-26T10:32:43Z</time>
      </trkpt>
      <trkpt lat="10.244041" lon="-67.848204">
        <ele>441.90</ele>
        <time>2022-10-26T10:32:44Z</time>
      </trkpt>
      <trkpt lat="10.244073" lon="-67.848152">
        <ele>441.80</ele>
        <time>2022-10-26T10:32:45Z</time>
      </trkpt>
      <trkpt lat="10.244101" lon="-67.848104">
        <ele>441.70</ele>
        <time>2022-10-26T10:32:46Z</time>
      </trkpt>
      <trkpt lat="10.244128" lon="-67.848053">
        <ele>441.70</ele>
        <time>2022-10-26T10:32:47Z</time>
      </trkpt>
      <trkpt lat="10.244154" lon="-67.847996">
        <ele>441.60</ele>
        <time>2022-10-26T10:32:48Z</time>
      </trkpt>
      <trkpt lat="10.244183" lon="-67.847941">
        <ele>441.60</ele>
        <time>2022-10-26T10:32:49Z</time>
      </trkpt>
      <trkpt lat="10.244213" lon="-67.847889">
        <ele>441.50</ele>
        <time>2022-10-26T10:32:50Z</time>
      </trkpt>
      <trkpt lat="10.244244" lon="-67.847839">
        <ele>441.50</ele>
        <time>2022-10-26T10:32:51Z</time>
      </trkpt>
      <trkpt lat="10.244274" lon="-67.847787">
        <ele>441.40</ele>
        <time>2022-10-26T10:32:52Z</time>
      </trkpt>
      <trkpt lat="10.244305" lon="-67.847737">
        <ele>441.40</ele>
        <time>2022-10-26T10:32:53Z</time>
      </trkpt>
      <trkpt lat="10.244338" lon="-67.847683">
        <ele>441.40</ele>
        <time>2022-10-26T10:32:54Z</time>
      </trkpt>
      <trkpt lat="10.244369" lon="-67.847630">
        <ele>441.40</ele>
        <time>2022-10-26T10:32:55Z</time>
      </trkpt>
      <trkpt lat="10.244394" lon="-67.847573">
        <ele>441.30</ele>
        <time>2022-10-26T10:32:56Z</time>
      </trkpt>
      <trkpt lat="10.244419" lon="-67.847516">
        <ele>441.30</ele>
        <time>2022-10-26T10:32:57Z</time>
      </trkpt>
      <trkpt lat="10.244443" lon="-67.847458">
        <ele>441.30</ele>
        <time>2022-10-26T10:32:58Z</time>
      </trkpt>
      <trkpt lat="10.244468" lon="-67.847401">
        <ele>441.30</ele>
        <time>2022-10-26T10:32:59Z</time>
      </trkpt>
      <trkpt lat="10.244497" lon="-67.847340">
        <ele>441.30</ele>
        <time>2022-10-26T10:33:00Z</time>
      </trkpt>
      <trkpt lat="10.244527" lon="-67.847279">
        <ele>441.30</ele>
        <time>2022-10-26T10:33:01Z</time>
      </trkpt>
      <trkpt lat="10.244560" lon="-67.847218">
        <ele>441.20</ele>
        <time>2022-10-26T10:33:02Z</time>
      </trkpt>
      <trkpt lat="10.244597" lon="-67.847159">
        <ele>441.20</ele>
        <time>2022-10-26T10:33:03Z</time>
      </trkpt>
      <trkpt lat="10.244633" lon="-67.847104">
        <ele>441.20</ele>
        <time>2022-10-26T10:33:04Z</time>
      </trkpt>
      <trkpt lat="10.244665" lon="-67.847053">
        <ele>441.20</ele>
        <time>2022-10-26T10:33:05Z</time>
      </trkpt>
      <trkpt lat="10.244695" lon="-67.847001">
        <ele>441.20</ele>
        <time>2022-10-26T10:33:06Z</time>
      </trkpt>
      <trkpt lat="10.244729" lon="-67.846946">
        <ele>441.10</ele>
        <time>2022-10-26T10:33:07Z</time>
      </trkpt>
      <trkpt lat="10.244762" lon="-67.846889">
        <ele>441.10</ele>
        <time>2022-10-26T10:33:08Z</time>
      </trkpt>
      <trkpt lat="10.244799" lon="-67.846832">
        <ele>441.10</ele>
        <time>2022-10-26T10:33:09Z</time>
      </trkpt>
      <trkpt lat="10.244833" lon="-67.846778">
        <ele>441.00</ele>
        <time>2022-10-26T10:33:10Z</time>
      </trkpt>
      <trkpt lat="10.244865" lon="-67.846723">
        <ele>441.00</ele>
        <time>2022-10-26T10:33:11Z</time>
      </trkpt>
      <trkpt lat="10.244901" lon="-67.846665">
        <ele>441.00</ele>
        <time>2022-10-26T10:33:12Z</time>
      </trkpt>
      <trkpt lat="10.244942" lon="-67.846607">
        <ele>440.90</ele>
        <time>2022-10-26T10:33:13Z</time>
      </trkpt>
      <trkpt lat="10.244982" lon="-67.846547">
        <ele>440.90</ele>
        <time>2022-10-26T10:33:14Z</time>
      </trkpt>
      <trkpt lat="10.245024" lon="-67.846486">
        <ele>440.90</ele>
        <time>2022-10-26T10:33:15Z</time>
      </trkpt>
      <trkpt lat="10.245065" lon="-67.846426">
        <ele>440.90</ele>
        <time>2022-10-26T10:33:16Z</time>
      </trkpt>
      <trkpt lat="10.245103" lon="-67.846368">
        <ele>440.90</ele>
        <time>2022-10-26T10:33:17Z</time>
      </trkpt>
      <trkpt lat="10.245146" lon="-67.846308">
        <ele>440.90</ele>
        <time>2022-10-26T10:33:18Z</time>
      </trkpt>
      <trkpt lat="10.245185" lon="-67.846245">
        <ele>440.90</ele>
        <time>2022-10-26T10:33:19Z</time>
      </trkpt>
      <trkpt lat="10.245224" lon="-67.846181">
        <ele>440.90</ele>
        <time>2022-10-26T10:33:20Z</time>
      </trkpt>
      <trkpt lat="10.245265" lon="-67.846116">
        <ele>440.90</ele>
        <time>2022-10-26T10:33:21Z</time>
      </trkpt>
      <trkpt lat="10.245303" lon="-67.846050">
        <ele>440.90</ele>
        <time>2022-10-26T10:33:22Z</time>
      </trkpt>
      <trkpt lat="10.245344" lon="-67.845985">
        <ele>440.90</ele>
        <time>2022-10-26T10:33:23Z</time>
      </trkpt>
      <trkpt lat="10.245384" lon="-67.845918">
        <ele>440.90</ele>
        <time>2022-10-26T10:33:24Z</time>
      </trkpt>
      <trkpt lat="10.245422" lon="-67.845850">
        <ele>440.90</ele>
        <time>2022-10-26T10:33:25Z</time>
      </trkpt>
      <trkpt lat="10.245457" lon="-67.845777">
        <ele>440.90</ele>
        <time>2022-10-26T10:33:26Z</time>
      </trkpt>
      <trkpt lat="10.245495" lon="-67.845708">
        <ele>440.80</ele>
        <time>2022-10-26T10:33:27Z</time>
      </trkpt>
      <trkpt lat="10.245538" lon="-67.845640">
        <ele>440.80</ele>
        <time>2022-10-26T10:33:28Z</time>
      </trkpt>
      <trkpt lat="10.245581" lon="-67.845572">
        <ele>440.70</ele>
        <time>2022-10-26T10:33:29Z</time>
      </trkpt>
      <trkpt lat="10.245623" lon="-67.845502">
        <ele>440.60</ele>
        <time>2022-10-26T10:33:30Z</time>
      </trkpt>
      <trkpt lat="10.245661" lon="-67.845437">
        <ele>440.60</ele>
        <time>2022-10-26T10:33:31Z</time>
      </trkpt>
      <trkpt lat="10.245701" lon="-67.845369">
        <ele>440.60</ele>
        <time>2022-10-26T10:33:32Z</time>
      </trkpt>
      <trkpt lat="10.245741" lon="-67.845305">
        <ele>440.60</ele>
        <time>2022-10-26T10:33:33Z</time>
      </trkpt>
      <trkpt lat="10.245787" lon="-67.845239">
        <ele>440.50</ele>
        <time>2022-10-26T10:33:34Z</time>
      </trkpt>
      <trkpt lat="10.245827" lon="-67.845174">
        <ele>440.50</ele>
        <time>2022-10-26T10:33:35Z</time>
      </trkpt>
      <trkpt lat="10.245862" lon="-67.845103">
        <ele>440.50</ele>
        <time>2022-10-26T10:33:36Z</time>
      </trkpt>
      <trkpt lat="10.245891" lon="-67.845028">
        <ele>440.50</ele>
        <time>2022-10-26T10:33:37Z</time>
      </trkpt>
      <trkpt lat="10.245917" lon="-67.844953">
        <ele>440.40</ele>
        <time>2022-10-26T10:33:38Z</time>
      </trkpt>
      <trkpt lat="10.245948" lon="-67.844885">
        <ele>440.40</ele>
        <time>2022-10-26T10:33:39Z</time>
      </trkpt>
      <trkpt lat="10.245984" lon="-67.844816">
        <ele>440.40</ele>
        <time>2022-10-26T10:33:40Z</time>
      </trkpt>
      <trkpt lat="10.246022" lon="-67.844752">
        <ele>440.30</ele>
        <time>2022-10-26T10:33:41Z</time>
      </trkpt>
      <trkpt lat="10.246063" lon="-67.844689">
        <ele>440.30</ele>
        <time>2022-10-26T10:33:42Z</time>
      </trkpt>
      <trkpt lat="10.246108" lon="-67.844624">
        <ele>440.30</ele>
        <time>2022-10-26T10:33:43Z</time>
      </trkpt>
      <trkpt lat="10.246153" lon="-67.844560">
        <ele>440.20</ele>
        <time>2022-10-26T10:33:44Z</time>
      </trkpt>
      <trkpt lat="10.246191" lon="-67.844499">
        <ele>440.20</ele>
        <time>2022-10-26T10:33:45Z</time>
      </trkpt>
      <trkpt lat="10.246228" lon="-67.844438">
        <ele>440.10</ele>
        <time>2022-10-26T10:33:46Z</time>
      </trkpt>
      <trkpt lat="10.246265" lon="-67.844375">
        <ele>440.10</ele>
        <time>2022-10-26T10:33:47Z</time>
      </trkpt>
      <trkpt lat="10.246304" lon="-67.844312">
        <ele>440.10</ele>
        <time>2022-10-26T10:33:48Z</time>
      </trkpt>
      <trkpt lat="10.246341" lon="-67.844253">
        <ele>440.20</ele>
        <time>2022-10-26T10:33:49Z</time>
      </trkpt>
      <trkpt lat="10.246382" lon="-67.844193">
        <ele>440.20</ele>
        <time>2022-10-26T10:33:50Z</time>
      </trkpt>
      <trkpt lat="10.246423" lon="-67.844129">
        <ele>440.10</ele>
        <time>2022-10-26T10:33:51Z</time>
      </trkpt>
      <trkpt lat="10.246466" lon="-67.844064">
        <ele>440.10</ele>
        <time>2022-10-26T10:33:52Z</time>
      </trkpt>
      <trkpt lat="10.246506" lon="-67.844002">
        <ele>440.10</ele>
        <time>2022-10-26T10:33:53Z</time>
      </trkpt>
      <trkpt lat="10.246548" lon="-67.843948">
        <ele>440.10</ele>
        <time>2022-10-26T10:33:54Z</time>
      </trkpt>
      <trkpt lat="10.246586" lon="-67.843893">
        <ele>440.10</ele>
        <time>2022-10-26T10:33:55Z</time>
      </trkpt>
      <trkpt lat="10.246623" lon="-67.843828">
        <ele>440.00</ele>
        <time>2022-10-26T10:33:56Z</time>
      </trkpt>
      <trkpt lat="10.246654" lon="-67.843766">
        <ele>440.00</ele>
        <time>2022-10-26T10:33:57Z</time>
      </trkpt>
      <trkpt lat="10.246690" lon="-67.843699">
        <ele>439.90</ele>
        <time>2022-10-26T10:33:58Z</time>
      </trkpt>
      <trkpt lat="10.246733" lon="-67.843640">
        <ele>439.80</ele>
        <time>2022-10-26T10:33:59Z</time>
      </trkpt>
      <trkpt lat="10.246771" lon="-67.843562">
        <ele>439.70</ele>
        <time>2022-10-26T10:34:00Z</time>
      </trkpt>
      <trkpt lat="10.246811" lon="-67.843485">
        <ele>439.70</ele>
        <time>2022-10-26T10:34:01Z</time>
      </trkpt>
      <trkpt lat="10.246851" lon="-67.843407">
        <ele>439.70</ele>
        <time>2022-10-26T10:34:02Z</time>
      </trkpt>
      <trkpt lat="10.246890" lon="-67.843327">
        <ele>439.60</ele>
        <time>2022-10-26T10:34:03Z</time>
      </trkpt>
      <trkpt lat="10.246927" lon="-67.843251">
        <ele>439.60</ele>
        <time>2022-10-26T10:34:04Z</time>
      </trkpt>
      <trkpt lat="10.246962" lon="-67.843177">
        <ele>439.50</ele>
        <time>2022-10-26T10:34:05Z</time>
      </trkpt>
      <trkpt lat="10.246997" lon="-67.843111">
        <ele>439.50</ele>
        <time>2022-10-26T10:34:06Z</time>
      </trkpt>
      <trkpt lat="10.247038" lon="-67.843041">
        <ele>439.40</ele>
        <time>2022-10-26T10:34:07Z</time>
      </trkpt>
      <trkpt lat="10.247078" lon="-67.842979">
        <ele>439.40</ele>
        <time>2022-10-26T10:34:08Z</time>
      </trkpt>
      <trkpt lat="10.247118" lon="-67.842915">
        <ele>439.40</ele>
        <time>2022-10-26T10:34:09Z</time>
      </trkpt>
      <trkpt lat="10.247159" lon="-67.842852">
        <ele>439.40</ele>
        <time>2022-10-26T10:34:10Z</time>
      </trkpt>
      <trkpt lat="10.247203" lon="-67.842787">
        <ele>439.40</ele>
        <time>2022-10-26T10:34:11Z</time>
      </trkpt>
      <trkpt lat="10.247243" lon="-67.842724">
        <ele>439.30</ele>
        <time>2022-10-26T10:34:12Z</time>
      </trkpt>
      <trkpt lat="10.247279" lon="-67.842663">
        <ele>439.30</ele>
        <time>2022-10-26T10:34:13Z</time>
      </trkpt>
      <trkpt lat="10.247314" lon="-67.842603">
        <ele>439.20</ele>
        <time>2022-10-26T10:34:14Z</time>
      </trkpt>
      <trkpt lat="10.247349" lon="-67.842540">
        <ele>439.20</ele>
        <time>2022-10-26T10:34:15Z</time>
      </trkpt>
      <trkpt lat="10.247385" lon="-67.842478">
        <ele>439.10</ele>
        <time>2022-10-26T10:34:16Z</time>
      </trkpt>
      <trkpt lat="10.247416" lon="-67.842413">
        <ele>439.10</ele>
        <time>2022-10-26T10:34:17Z</time>
      </trkpt>
      <trkpt lat="10.247447" lon="-67.842355">
        <ele>439.10</ele>
        <time>2022-10-26T10:34:18Z</time>
      </trkpt>
      <trkpt lat="10.247476" lon="-67.842298">
        <ele>439.10</ele>
        <time>2022-10-26T10:34:19Z</time>
      </trkpt>
      <trkpt lat="10.247508" lon="-67.842243">
        <ele>439.10</ele>
        <time>2022-10-26T10:34:20Z</time>
      </trkpt>
      <trkpt lat="10.247540" lon="-67.842189">
        <ele>439.10</ele>
        <time>2022-10-26T10:34:21Z</time>
      </trkpt>
      <trkpt lat="10.247572" lon="-67.842134">
        <ele>439.10</ele>
        <time>2022-10-26T10:34:22Z</time>
      </trkpt>
      <trkpt lat="10.247606" lon="-67.842073">
        <ele>439.00</ele>
        <time>2022-10-26T10:34:23Z</time>
      </trkpt>
      <trkpt lat="10.247642" lon="-67.842015">
        <ele>439.00</ele>
        <time>2022-10-26T10:34:24Z</time>
      </trkpt>
      <trkpt lat="10.247683" lon="-67.841958">
        <ele>439.00</ele>
        <time>2022-10-26T10:34:25Z</time>
      </trkpt>
      <trkpt lat="10.247721" lon="-67.841901">
        <ele>439.00</ele>
        <time>2022-10-26T10:34:26Z</time>
      </trkpt>
      <trkpt lat="10.247756" lon="-67.841842">
        <ele>439.00</ele>
        <time>2022-10-26T10:34:27Z</time>
      </trkpt>
      <trkpt lat="10.247792" lon="-67.841786">
        <ele>439.00</ele>
        <time>2022-10-26T10:34:28Z</time>
      </trkpt>
      <trkpt lat="10.247824" lon="-67.841728">
        <ele>439.00</ele>
        <time>2022-10-26T10:34:29Z</time>
      </trkpt>
      <trkpt lat="10.247855" lon="-67.841672">
        <ele>438.90</ele>
        <time>2022-10-26T10:34:30Z</time>
      </trkpt>
      <trkpt lat="10.247883" lon="-67.841618">
        <ele>438.90</ele>
        <time>2022-10-26T10:34:31Z</time>
      </trkpt>
      <trkpt lat="10.247908" lon="-67.841565">
        <ele>438.90</ele>
        <time>2022-10-26T10:34:32Z</time>
      </trkpt>
      <trkpt lat="10.247940" lon="-67.841514">
        <ele>438.80</ele>
        <time>2022-10-26T10:34:33Z</time>
      </trkpt>
      <trkpt lat="10.247972" lon="-67.841464">
        <ele>438.80</ele>
        <time>2022-10-26T10:34:34Z</time>
      </trkpt>
      <trkpt lat="10.248006" lon="-67.841412">
        <ele>438.80</ele>
        <time>2022-10-26T10:34:35Z</time>
      </trkpt>
      <trkpt lat="10.248039" lon="-67.841358">
        <ele>438.80</ele>
        <time>2022-10-26T10:34:36Z</time>
      </trkpt>
      <trkpt lat="10.248075" lon="-67.841304">
        <ele>438.80</ele>
        <time>2022-10-26T10:34:37Z</time>
      </trkpt>
      <trkpt lat="10.248121" lon="-67.841245">
        <ele>438.80</ele>
        <time>2022-10-26T10:34:38Z</time>
      </trkpt>
      <trkpt lat="10.248164" lon="-67.841183">
        <ele>438.80</ele>
        <time>2022-10-26T10:34:39Z</time>
      </trkpt>
      <trkpt lat="10.248206" lon="-67.841125">
        <ele>438.80</ele>
        <time>2022-10-26T10:34:40Z</time>
      </trkpt>
      <trkpt lat="10.248244" lon="-67.841063">
        <ele>438.80</ele>
        <time>2022-10-26T10:34:41Z</time>
      </trkpt>
      <trkpt lat="10.248275" lon="-67.841003">
        <ele>438.80</ele>
        <time>2022-10-26T10:34:42Z</time>
      </trkpt>
      <trkpt lat="10.248302" lon="-67.840940">
        <ele>438.70</ele>
        <time>2022-10-26T10:34:43Z</time>
      </trkpt>
      <trkpt lat="10.248323" lon="-67.840878">
        <ele>438.70</ele>
        <time>2022-10-26T10:34:44Z</time>
      </trkpt>
      <trkpt lat="10.248352" lon="-67.840803">
        <ele>438.70</ele>
        <time>2022-10-26T10:34:45Z</time>
      </trkpt>
      <trkpt lat="10.248384" lon="-67.840736">
        <ele>438.70</ele>
        <time>2022-10-26T10:34:46Z</time>
      </trkpt>
      <trkpt lat="10.248417" lon="-67.840674">
        <ele>438.70</ele>
        <time>2022-10-26T10:34:47Z</time>
      </trkpt>
      <trkpt lat="10.248446" lon="-67.840618">
        <ele>438.70</ele>
        <time>2022-10-26T10:34:48Z</time>
      </trkpt>
      <trkpt lat="10.248476" lon="-67.840560">
        <ele>438.70</ele>
        <time>2022-10-26T10:34:49Z</time>
      </trkpt>
      <trkpt lat="10.248506" lon="-67.840500">
        <ele>438.70</ele>
        <time>2022-10-26T10:34:50Z</time>
      </trkpt>
      <trkpt lat="10.248540" lon="-67.840437">
        <ele>438.70</ele>
        <time>2022-10-26T10:34:51Z</time>
      </trkpt>
      <trkpt lat="10.248569" lon="-67.840374">
        <ele>438.70</ele>
        <time>2022-10-26T10:34:52Z</time>
      </trkpt>
      <trkpt lat="10.248599" lon="-67.840308">
        <ele>438.70</ele>
        <time>2022-10-26T10:34:53Z</time>
      </trkpt>
      <trkpt lat="10.248632" lon="-67.840245">
        <ele>438.70</ele>
        <time>2022-10-26T10:34:54Z</time>
      </trkpt>
      <trkpt lat="10.248666" lon="-67.840183">
        <ele>438.70</ele>
        <time>2022-10-26T10:34:55Z</time>
      </trkpt>
      <trkpt lat="10.248700" lon="-67.840116">
        <ele>438.60</ele>
        <time>2022-10-26T10:34:56Z</time>
      </trkpt>
      <trkpt lat="10.248733" lon="-67.840053">
        <ele>438.60</ele>
        <time>2022-10-26T10:34:57Z</time>
      </trkpt>
      <trkpt lat="10.248773" lon="-67.839998">
        <ele>438.60</ele>
        <time>2022-10-26T10:34:58Z</time>
      </trkpt>
      <trkpt lat="10.248807" lon="-67.839938">
        <ele>438.60</ele>
        <time>2022-10-26T10:34:59Z</time>
      </trkpt>
      <trkpt lat="10.248842" lon="-67.839873">
        <ele>438.50</ele>
        <time>2022-10-26T10:35:00Z</time>
      </trkpt>
      <trkpt lat="10.248876" lon="-67.839813">
        <ele>438.50</ele>
        <time>2022-10-26T10:35:01Z</time>
      </trkpt>
      <trkpt lat="10.248909" lon="-67.839757">
        <ele>438.50</ele>
        <time>2022-10-26T10:35:02Z</time>
      </trkpt>
      <trkpt lat="10.248942" lon="-67.839700">
        <ele>438.50</ele>
        <time>2022-10-26T10:35:03Z</time>
      </trkpt>
      <trkpt lat="10.248974" lon="-67.839642">
        <ele>438.50</ele>
        <time>2022-10-26T10:35:04Z</time>
      </trkpt>
      <trkpt lat="10.249008" lon="-67.839582">
        <ele>438.40</ele>
        <time>2022-10-26T10:35:05Z</time>
      </trkpt>
      <trkpt lat="10.249043" lon="-67.839522">
        <ele>438.40</ele>
        <time>2022-10-26T10:35:06Z</time>
      </trkpt>
      <trkpt lat="10.249077" lon="-67.839459">
        <ele>438.30</ele>
        <time>2022-10-26T10:35:07Z</time>
      </trkpt>
      <trkpt lat="10.249109" lon="-67.839398">
        <ele>438.30</ele>
        <time>2022-10-26T10:35:08Z</time>
      </trkpt>
      <trkpt lat="10.249141" lon="-67.839339">
        <ele>438.20</ele>
        <time>2022-10-26T10:35:09Z</time>
      </trkpt>
      <trkpt lat="10.249175" lon="-67.839281">
        <ele>438.10</ele>
        <time>2022-10-26T10:35:10Z</time>
      </trkpt>
      <trkpt lat="10.249211" lon="-67.839221">
        <ele>438.10</ele>
        <time>2022-10-26T10:35:11Z</time>
      </trkpt>
      <trkpt lat="10.249245" lon="-67.839161">
        <ele>438.00</ele>
        <time>2022-10-26T10:35:12Z</time>
      </trkpt>
      <trkpt lat="10.249278" lon="-67.839103">
        <ele>438.00</ele>
        <time>2022-10-26T10:35:13Z</time>
      </trkpt>
      <trkpt lat="10.249315" lon="-67.839043">
        <ele>438.00</ele>
        <time>2022-10-26T10:35:14Z</time>
      </trkpt>
      <trkpt lat="10.249351" lon="-67.838984">
        <ele>437.90</ele>
        <time>2022-10-26T10:35:15Z</time>
      </trkpt>
      <trkpt lat="10.249384" lon="-67.838921">
        <ele>437.90</ele>
        <time>2022-10-26T10:35:16Z</time>
      </trkpt>
      <trkpt lat="10.249416" lon="-67.838857">
        <ele>437.90</ele>
        <time>2022-10-26T10:35:17Z</time>
      </trkpt>
      <trkpt lat="10.249450" lon="-67.838794">
        <ele>437.80</ele>
        <time>2022-10-26T10:35:18Z</time>
      </trkpt>
      <trkpt lat="10.249485" lon="-67.838731">
        <ele>437.70</ele>
        <time>2022-10-26T10:35:19Z</time>
      </trkpt>
      <trkpt lat="10.249515" lon="-67.838672">
        <ele>437.70</ele>
        <time>2022-10-26T10:35:20Z</time>
      </trkpt>
      <trkpt lat="10.249545" lon="-67.838611">
        <ele>437.60</ele>
        <time>2022-10-26T10:35:21Z</time>
      </trkpt>
      <trkpt lat="10.249577" lon="-67.838549">
        <ele>437.60</ele>
        <time>2022-10-26T10:35:22Z</time>
      </trkpt>
      <trkpt lat="10.249610" lon="-67.838487">
        <ele>437.60</ele>
        <time>2022-10-26T10:35:23Z</time>
      </trkpt>
      <trkpt lat="10.249644" lon="-67.838425">
        <ele>437.50</ele>
        <time>2022-10-26T10:35:24Z</time>
      </trkpt>
      <trkpt lat="10.249678" lon="-67.838362">
        <ele>437.50</ele>
        <time>2022-10-26T10:35:25Z</time>
      </trkpt>
      <trkpt lat="10.249712" lon="-67.838298">
        <ele>437.40</ele>
        <time>2022-10-26T10:35:26Z</time>
      </trkpt>
      <trkpt lat="10.249747" lon="-67.838230">
        <ele>437.40</ele>
        <time>2022-10-26T10:35:27Z</time>
      </trkpt>
      <trkpt lat="10.249783" lon="-67.838161">
        <ele>437.40</ele>
        <time>2022-10-26T10:35:28Z</time>
      </trkpt>
      <trkpt lat="10.249817" lon="-67.838087">
        <ele>437.40</ele>
        <time>2022-10-26T10:35:29Z</time>
      </trkpt>
      <trkpt lat="10.249852" lon="-67.838019">
        <ele>437.40</ele>
        <time>2022-10-26T10:35:30Z</time>
      </trkpt>
      <trkpt lat="10.249886" lon="-67.837955">
        <ele>437.40</ele>
        <time>2022-10-26T10:35:31Z</time>
      </trkpt>
      <trkpt lat="10.249920" lon="-67.837890">
        <ele>437.40</ele>
        <time>2022-10-26T10:35:32Z</time>
      </trkpt>
      <trkpt lat="10.249954" lon="-67.837821">
        <ele>437.40</ele>
        <time>2022-10-26T10:35:33Z</time>
      </trkpt>
      <trkpt lat="10.249990" lon="-67.837747">
        <ele>437.30</ele>
        <time>2022-10-26T10:35:34Z</time>
      </trkpt>
      <trkpt lat="10.250028" lon="-67.837669">
        <ele>437.30</ele>
        <time>2022-10-26T10:35:35Z</time>
      </trkpt>
      <trkpt lat="10.250064" lon="-67.837597">
        <ele>437.30</ele>
        <time>2022-10-26T10:35:36Z</time>
      </trkpt>
      <trkpt lat="10.250100" lon="-67.837527">
        <ele>437.30</ele>
        <time>2022-10-26T10:35:37Z</time>
      </trkpt>
      <trkpt lat="10.250135" lon="-67.837460">
        <ele>437.30</ele>
        <time>2022-10-26T10:35:38Z</time>
      </trkpt>
      <trkpt lat="10.250171" lon="-67.837389">
        <ele>437.30</ele>
        <time>2022-10-26T10:35:39Z</time>
      </trkpt>
      <trkpt lat="10.250206" lon="-67.837322">
        <ele>437.30</ele>
        <time>2022-10-26T10:35:40Z</time>
      </trkpt>
      <trkpt lat="10.250237" lon="-67.837255">
        <ele>437.30</ele>
        <time>2022-10-26T10:35:41Z</time>
      </trkpt>
      <trkpt lat="10.250267" lon="-67.837182">
        <ele>437.30</ele>
        <time>2022-10-26T10:35:42Z</time>
      </trkpt>
      <trkpt lat="10.250300" lon="-67.837107">
        <ele>437.30</ele>
        <time>2022-10-26T10:35:43Z</time>
      </trkpt>
      <trkpt lat="10.250330" lon="-67.837037">
        <ele>437.40</ele>
        <time>2022-10-26T10:35:44Z</time>
      </trkpt>
      <trkpt lat="10.250354" lon="-67.836972">
        <ele>437.40</ele>
        <time>2022-10-26T10:35:45Z</time>
      </trkpt>
      <trkpt lat="10.250382" lon="-67.836906">
        <ele>437.40</ele>
        <time>2022-10-26T10:35:46Z</time>
      </trkpt>
      <trkpt lat="10.250414" lon="-67.836839">
        <ele>437.40</ele>
        <time>2022-10-26T10:35:47Z</time>
      </trkpt>
      <trkpt lat="10.250458" lon="-67.836776">
        <ele>437.40</ele>
        <time>2022-10-26T10:35:48Z</time>
      </trkpt>
      <trkpt lat="10.250513" lon="-67.836716">
        <ele>437.40</ele>
        <time>2022-10-26T10:35:49Z</time>
      </trkpt>
      <trkpt lat="10.250560" lon="-67.836652">
        <ele>437.40</ele>
        <time>2022-10-26T10:35:50Z</time>
      </trkpt>
      <trkpt lat="10.250600" lon="-67.836586">
        <ele>437.40</ele>
        <time>2022-10-26T10:35:51Z</time>
      </trkpt>
      <trkpt lat="10.250631" lon="-67.836517">
        <ele>437.50</ele>
        <time>2022-10-26T10:35:52Z</time>
      </trkpt>
      <trkpt lat="10.250648" lon="-67.836446">
        <ele>437.50</ele>
        <time>2022-10-26T10:35:53Z</time>
      </trkpt>
      <trkpt lat="10.250663" lon="-67.836381">
        <ele>437.50</ele>
        <time>2022-10-26T10:35:54Z</time>
      </trkpt>
      <trkpt lat="10.250683" lon="-67.836317">
        <ele>437.60</ele>
        <time>2022-10-26T10:35:55Z</time>
      </trkpt>
      <trkpt lat="10.250700" lon="-67.836251">
        <ele>437.60</ele>
        <time>2022-10-26T10:35:56Z</time>
      </trkpt>
      <trkpt lat="10.250718" lon="-67.836184">
        <ele>437.70</ele>
        <time>2022-10-26T10:35:57Z</time>
      </trkpt>
      <trkpt lat="10.250737" lon="-67.836118">
        <ele>437.70</ele>
        <time>2022-10-26T10:35:58Z</time>
      </trkpt>
      <trkpt lat="10.250756" lon="-67.836058">
        <ele>437.70</ele>
        <time>2022-10-26T10:35:59Z</time>
      </trkpt>
      <trkpt lat="10.250782" lon="-67.835997">
        <ele>437.80</ele>
        <time>2022-10-26T10:36:00Z</time>
      </trkpt>
      <trkpt lat="10.250811" lon="-67.835940">
        <ele>437.90</ele>
        <time>2022-10-26T10:36:01Z</time>
      </trkpt>
      <trkpt lat="10.250837" lon="-67.835878">
        <ele>438.00</ele>
        <time>2022-10-26T10:36:02Z</time>
      </trkpt>
      <trkpt lat="10.250854" lon="-67.835816">
        <ele>438.10</ele>
        <time>2022-10-26T10:36:03Z</time>
      </trkpt>
      <trkpt lat="10.250869" lon="-67.835754">
        <ele>438.20</ele>
        <time>2022-10-26T10:36:04Z</time>
      </trkpt>
      <trkpt lat="10.250884" lon="-67.835697">
        <ele>438.40</ele>
        <time>2022-10-26T10:36:05Z</time>
      </trkpt>
      <trkpt lat="10.250896" lon="-67.835645">
        <ele>438.50</ele>
        <time>2022-10-26T10:36:06Z</time>
      </trkpt>
      <trkpt lat="10.250909" lon="-67.835592">
        <ele>438.60</ele>
        <time>2022-10-26T10:36:07Z</time>
      </trkpt>
      <trkpt lat="10.250923" lon="-67.835537">
        <ele>438.70</ele>
        <time>2022-10-26T10:36:08Z</time>
      </trkpt>
      <trkpt lat="10.250939" lon="-67.835483">
        <ele>438.80</ele>
        <time>2022-10-26T10:36:09Z</time>
      </trkpt>
      <trkpt lat="10.250956" lon="-67.835428">
        <ele>439.00</ele>
        <time>2022-10-26T10:36:10Z</time>
      </trkpt>
      <trkpt lat="10.250974" lon="-67.835374">
        <ele>439.10</ele>
        <time>2022-10-26T10:36:11Z</time>
      </trkpt>
      <trkpt lat="10.250990" lon="-67.835321">
        <ele>439.30</ele>
        <time>2022-10-26T10:36:12Z</time>
      </trkpt>
      <trkpt lat="10.251007" lon="-67.835273">
        <ele>439.40</ele>
        <time>2022-10-26T10:36:13Z</time>
      </trkpt>
      <trkpt lat="10.251021" lon="-67.835222">
        <ele>439.40</ele>
        <time>2022-10-26T10:36:14Z</time>
      </trkpt>
      <trkpt lat="10.251032" lon="-67.835173">
        <ele>439.50</ele>
        <time>2022-10-26T10:36:15Z</time>
      </trkpt>
      <trkpt lat="10.251038" lon="-67.835124">
        <ele>439.50</ele>
        <time>2022-10-26T10:36:16Z</time>
      </trkpt>
      <trkpt lat="10.251042" lon="-67.835075">
        <ele>439.50</ele>
        <time>2022-10-26T10:36:17Z</time>
      </trkpt>
      <trkpt lat="10.251047" lon="-67.835026">
        <ele>439.60</ele>
        <time>2022-10-26T10:36:18Z</time>
      </trkpt>
      <trkpt lat="10.251053" lon="-67.834978">
        <ele>439.70</ele>
        <time>2022-10-26T10:36:19Z</time>
      </trkpt>
      <trkpt lat="10.251060" lon="-67.834932">
        <ele>439.70</ele>
        <time>2022-10-26T10:36:20Z</time>
      </trkpt>
      <trkpt lat="10.251067" lon="-67.834889">
        <ele>439.80</ele>
        <time>2022-10-26T10:36:21Z</time>
      </trkpt>
      <trkpt lat="10.251076" lon="-67.834847">
        <ele>439.90</ele>
        <time>2022-10-26T10:36:22Z</time>
      </trkpt>
      <trkpt lat="10.251089" lon="-67.834806">
        <ele>440.00</ele>
        <time>2022-10-26T10:36:23Z</time>
      </trkpt>
      <trkpt lat="10.251105" lon="-67.834767">
        <ele>440.10</ele>
        <time>2022-10-26T10:36:24Z</time>
      </trkpt>
      <trkpt lat="10.251121" lon="-67.834732">
        <ele>440.20</ele>
        <time>2022-10-26T10:36:25Z</time>
      </trkpt>
      <trkpt lat="10.251138" lon="-67.834698">
        <ele>440.20</ele>
        <time>2022-10-26T10:36:26Z</time>
      </trkpt>
      <trkpt lat="10.251160" lon="-67.834664">
        <ele>440.30</ele>
        <time>2022-10-26T10:36:27Z</time>
      </trkpt>
      <trkpt lat="10.251177" lon="-67.834634">
        <ele>440.30</ele>
        <time>2022-10-26T10:36:28Z</time>
      </trkpt>
      <trkpt lat="10.251195" lon="-67.834612">
        <ele>440.30</ele>
        <time>2022-10-26T10:36:29Z</time>
      </trkpt>
      <trkpt lat="10.251215" lon="-67.834589">
        <ele>440.30</ele>
        <time>2022-10-26T10:36:30Z</time>
      </trkpt>
      <trkpt lat="10.251237" lon="-67.834564">
        <ele>440.30</ele>
        <time>2022-10-26T10:36:31Z</time>
      </trkpt>
      <trkpt lat="10.251255" lon="-67.834536">
        <ele>440.30</ele>
        <time>2022-10-26T10:36:32Z</time>
      </trkpt>
      <trkpt lat="10.251274" lon="-67.834510">
        <ele>440.20</ele>
        <time>2022-10-26T10:36:33Z</time>
      </trkpt>
      <trkpt lat="10.251295" lon="-67.834483">
        <ele>440.10</ele>
        <time>2022-10-26T10:36:34Z</time>
      </trkpt>
      <trkpt lat="10.251314" lon="-67.834450">
        <ele>440.00</ele>
        <time>2022-10-26T10:36:35Z</time>
      </trkpt>
      <trkpt lat="10.251335" lon="-67.834411">
        <ele>439.90</ele>
        <time>2022-10-26T10:36:36Z</time>
      </trkpt>
      <trkpt lat="10.251356" lon="-67.834370">
        <ele>439.80</ele>
        <time>2022-10-26T10:36:37Z</time>
      </trkpt>
      <trkpt lat="10.251382" lon="-67.834327">
        <ele>439.70</ele>
        <time>2022-10-26T10:36:38Z</time>
      </trkpt>
      <trkpt lat="10.251412" lon="-67.834286">
        <ele>439.60</ele>
        <time>2022-10-26T10:36:39Z</time>
      </trkpt>
      <trkpt lat="10.251446" lon="-67.834243">
        <ele>439.50</ele>
        <time>2022-10-26T10:36:40Z</time>
      </trkpt>
      <trkpt lat="10.251480" lon="-67.834202">
        <ele>439.50</ele>
        <time>2022-10-26T10:36:41Z</time>
      </trkpt>
      <trkpt lat="10.251515" lon="-67.834161">
        <ele>439.50</ele>
        <time>2022-10-26T10:36:42Z</time>
      </trkpt>
      <trkpt lat="10.251551" lon="-67.834120">
        <ele>439.40</ele>
        <time>2022-10-26T10:36:43Z</time>
      </trkpt>
      <trkpt lat="10.251591" lon="-67.834080">
        <ele>439.40</ele>
        <time>2022-10-26T10:36:44Z</time>
      </trkpt>
      <trkpt lat="10.251632" lon="-67.834042">
        <ele>439.40</ele>
        <time>2022-10-26T10:36:45Z</time>
      </trkpt>
      <trkpt lat="10.251673" lon="-67.834001">
        <ele>439.40</ele>
        <time>2022-10-26T10:36:46Z</time>
      </trkpt>
      <trkpt lat="10.251708" lon="-67.833958">
        <ele>439.30</ele>
        <time>2022-10-26T10:36:47Z</time>
      </trkpt>
      <trkpt lat="10.251740" lon="-67.833914">
        <ele>439.30</ele>
        <time>2022-10-26T10:36:48Z</time>
      </trkpt>
      <trkpt lat="10.251769" lon="-67.833866">
        <ele>439.30</ele>
        <time>2022-10-26T10:36:49Z</time>
      </trkpt>
      <trkpt lat="10.251789" lon="-67.833821">
        <ele>439.40</ele>
        <time>2022-10-26T10:36:50Z</time>
      </trkpt>
      <trkpt lat="10.251808" lon="-67.833776">
        <ele>439.40</ele>
        <time>2022-10-26T10:36:51Z</time>
      </trkpt>
      <trkpt lat="10.251832" lon="-67.833735">
        <ele>439.40</ele>
        <time>2022-10-26T10:36:52Z</time>
      </trkpt>
      <trkpt lat="10.251861" lon="-67.833693">
        <ele>439.40</ele>
        <time>2022-10-26T10:36:53Z</time>
      </trkpt>
      <trkpt lat="10.251886" lon="-67.833650">
        <ele>439.50</ele>
        <time>2022-10-26T10:36:54Z</time>
      </trkpt>
      <trkpt lat="10.251915" lon="-67.833604">
        <ele>439.40</ele>
        <time>2022-10-26T10:36:55Z</time>
      </trkpt>
      <trkpt lat="10.251944" lon="-67.833554">
        <ele>439.40</ele>
        <time>2022-10-26T10:36:56Z</time>
      </trkpt>
      <trkpt lat="10.251975" lon="-67.833495">
        <ele>439.30</ele>
        <time>2022-10-26T10:36:57Z</time>
      </trkpt>
      <trkpt lat="10.252007" lon="-67.833439">
        <ele>439.20</ele>
        <time>2022-10-26T10:36:58Z</time>
      </trkpt>
      <trkpt lat="10.252044" lon="-67.833380">
        <ele>439.20</ele>
        <time>2022-10-26T10:36:59Z</time>
      </trkpt>
      <trkpt lat="10.252077" lon="-67.833319">
        <ele>439.10</ele>
        <time>2022-10-26T10:37:00Z</time>
      </trkpt>
      <trkpt lat="10.252099" lon="-67.833257">
        <ele>439.10</ele>
        <time>2022-10-26T10:37:01Z</time>
      </trkpt>
      <trkpt lat="10.252120" lon="-67.833195">
        <ele>439.00</ele>
        <time>2022-10-26T10:37:02Z</time>
      </trkpt>
      <trkpt lat="10.252139" lon="-67.833130">
        <ele>439.00</ele>
        <time>2022-10-26T10:37:03Z</time>
      </trkpt>
      <trkpt lat="10.252153" lon="-67.833063">
        <ele>439.00</ele>
        <time>2022-10-26T10:37:04Z</time>
      </trkpt>
      <trkpt lat="10.252172" lon="-67.832998">
        <ele>438.90</ele>
        <time>2022-10-26T10:37:05Z</time>
      </trkpt>
      <trkpt lat="10.252195" lon="-67.832931">
        <ele>438.90</ele>
        <time>2022-10-26T10:37:06Z</time>
      </trkpt>
      <trkpt lat="10.252228" lon="-67.832860">
        <ele>438.90</ele>
        <time>2022-10-26T10:37:07Z</time>
      </trkpt>
      <trkpt lat="10.252262" lon="-67.832789">
        <ele>438.90</ele>
        <time>2022-10-26T10:37:08Z</time>
      </trkpt>
      <trkpt lat="10.252287" lon="-67.832719">
        <ele>438.90</ele>
        <time>2022-10-26T10:37:09Z</time>
      </trkpt>
      <trkpt lat="10.252297" lon="-67.832643">
        <ele>438.90</ele>
        <time>2022-10-26T10:37:10Z</time>
      </trkpt>
      <trkpt lat="10.252308" lon="-67.832563">
        <ele>438.90</ele>
        <time>2022-10-26T10:37:11Z</time>
      </trkpt>
      <trkpt lat="10.252324" lon="-67.832481">
        <ele>438.90</ele>
        <time>2022-10-26T10:37:12Z</time>
      </trkpt>
      <trkpt lat="10.252374" lon="-67.832336">
        <ele>438.90</ele>
        <time>2022-10-26T10:37:14Z</time>
      </trkpt>
      <trkpt lat="10.252400" lon="-67.832258">
        <ele>438.90</ele>
        <time>2022-10-26T10:37:15Z</time>
      </trkpt>
      <trkpt lat="10.252432" lon="-67.832185">
        <ele>438.90</ele>
        <time>2022-10-26T10:37:16Z</time>
      </trkpt>
      <trkpt lat="10.252468" lon="-67.832114">
        <ele>438.90</ele>
        <time>2022-10-26T10:37:17Z</time>
      </trkpt>
      <trkpt lat="10.252505" lon="-67.832043">
        <ele>439.00</ele>
        <time>2022-10-26T10:37:18Z</time>
      </trkpt>
      <trkpt lat="10.252537" lon="-67.831966">
        <ele>439.00</ele>
        <time>2022-10-26T10:37:19Z</time>
      </trkpt>
      <trkpt lat="10.252564" lon="-67.831886">
        <ele>439.00</ele>
        <time>2022-10-26T10:37:20Z</time>
      </trkpt>
      <trkpt lat="10.252591" lon="-67.831807">
        <ele>439.00</ele>
        <time>2022-10-26T10:37:21Z</time>
      </trkpt>
      <trkpt lat="10.252612" lon="-67.831732">
        <ele>439.00</ele>
        <time>2022-10-26T10:37:22Z</time>
      </trkpt>
      <trkpt lat="10.252635" lon="-67.831655">
        <ele>439.00</ele>
        <time>2022-10-26T10:37:23Z</time>
      </trkpt>
      <trkpt lat="10.252658" lon="-67.831571">
        <ele>439.00</ele>
        <time>2022-10-26T10:37:24Z</time>
      </trkpt>
      <trkpt lat="10.252680" lon="-67.831488">
        <ele>439.00</ele>
        <time>2022-10-26T10:37:25Z</time>
      </trkpt>
      <trkpt lat="10.252702" lon="-67.831410">
        <ele>439.00</ele>
        <time>2022-10-26T10:37:26Z</time>
      </trkpt>
      <trkpt lat="10.252730" lon="-67.831332">
        <ele>439.00</ele>
        <time>2022-10-26T10:37:27Z</time>
      </trkpt>
      <trkpt lat="10.252759" lon="-67.831267">
        <ele>439.00</ele>
        <time>2022-10-26T10:37:28Z</time>
      </trkpt>
      <trkpt lat="10.252786" lon="-67.831202">
        <ele>439.00</ele>
        <time>2022-10-26T10:37:29Z</time>
      </trkpt>
      <trkpt lat="10.252815" lon="-67.831135">
        <ele>439.10</ele>
        <time>2022-10-26T10:37:30Z</time>
      </trkpt>
      <trkpt lat="10.252841" lon="-67.831068">
        <ele>439.10</ele>
        <time>2022-10-26T10:37:31Z</time>
      </trkpt>
      <trkpt lat="10.252868" lon="-67.831000">
        <ele>439.10</ele>
        <time>2022-10-26T10:37:32Z</time>
      </trkpt>
      <trkpt lat="10.252893" lon="-67.830933">
        <ele>439.10</ele>
        <time>2022-10-26T10:37:33Z</time>
      </trkpt>
      <trkpt lat="10.252923" lon="-67.830863">
        <ele>439.10</ele>
        <time>2022-10-26T10:37:34Z</time>
      </trkpt>
      <trkpt lat="10.252958" lon="-67.830797">
        <ele>439.10</ele>
        <time>2022-10-26T10:37:35Z</time>
      </trkpt>
      <trkpt lat="10.252990" lon="-67.830732">
        <ele>439.20</ele>
        <time>2022-10-26T10:37:36Z</time>
      </trkpt>
      <trkpt lat="10.253017" lon="-67.830673">
        <ele>439.20</ele>
        <time>2022-10-26T10:37:37Z</time>
      </trkpt>
      <trkpt lat="10.253043" lon="-67.830612">
        <ele>439.20</ele>
        <time>2022-10-26T10:37:38Z</time>
      </trkpt>
      <trkpt lat="10.253068" lon="-67.830551">
        <ele>439.20</ele>
        <time>2022-10-26T10:37:39Z</time>
      </trkpt>
      <trkpt lat="10.253093" lon="-67.830490">
        <ele>439.20</ele>
        <time>2022-10-26T10:37:40Z</time>
      </trkpt>
      <trkpt lat="10.253116" lon="-67.830425">
        <ele>439.20</ele>
        <time>2022-10-26T10:37:41Z</time>
      </trkpt>
      <trkpt lat="10.253140" lon="-67.830361">
        <ele>439.20</ele>
        <time>2022-10-26T10:37:42Z</time>
      </trkpt>
      <trkpt lat="10.253164" lon="-67.830295">
        <ele>439.20</ele>
        <time>2022-10-26T10:37:43Z</time>
      </trkpt>
      <trkpt lat="10.253187" lon="-67.830231">
        <ele>439.20</ele>
        <time>2022-10-26T10:37:44Z</time>
      </trkpt>
      <trkpt lat="10.253208" lon="-67.830164">
        <ele>439.30</ele>
        <time>2022-10-26T10:37:45Z</time>
      </trkpt>
      <trkpt lat="10.253232" lon="-67.830098">
        <ele>439.30</ele>
        <time>2022-10-26T10:37:46Z</time>
      </trkpt>
      <trkpt lat="10.253259" lon="-67.830034">
        <ele>439.30</ele>
        <time>2022-10-26T10:37:47Z</time>
      </trkpt>
      <trkpt lat="10.253288" lon="-67.829968">
        <ele>439.30</ele>
        <time>2022-10-26T10:37:48Z</time>
      </trkpt>
      <trkpt lat="10.253318" lon="-67.829899">
        <ele>439.30</ele>
        <time>2022-10-26T10:37:49Z</time>
      </trkpt>
      <trkpt lat="10.253346" lon="-67.829832">
        <ele>439.30</ele>
        <time>2022-10-26T10:37:50Z</time>
      </trkpt>
      <trkpt lat="10.253372" lon="-67.829766">
        <ele>439.40</ele>
        <time>2022-10-26T10:37:51Z</time>
      </trkpt>
      <trkpt lat="10.253396" lon="-67.829700">
        <ele>439.40</ele>
        <time>2022-10-26T10:37:52Z</time>
      </trkpt>
      <trkpt lat="10.253418" lon="-67.829636">
        <ele>439.40</ele>
        <time>2022-10-26T10:37:53Z</time>
      </trkpt>
      <trkpt lat="10.253442" lon="-67.829568">
        <ele>439.40</ele>
        <time>2022-10-26T10:37:54Z</time>
      </trkpt>
      <trkpt lat="10.253468" lon="-67.829501">
        <ele>439.40</ele>
        <time>2022-10-26T10:37:55Z</time>
      </trkpt>
      <trkpt lat="10.253493" lon="-67.829434">
        <ele>439.40</ele>
        <time>2022-10-26T10:37:56Z</time>
      </trkpt>
      <trkpt lat="10.253516" lon="-67.829365">
        <ele>439.40</ele>
        <time>2022-10-26T10:37:57Z</time>
      </trkpt>
      <trkpt lat="10.253540" lon="-67.829297">
        <ele>439.40</ele>
        <time>2022-10-26T10:37:58Z</time>
      </trkpt>
      <trkpt lat="10.253560" lon="-67.829229">
        <ele>439.40</ele>
        <time>2022-10-26T10:37:59Z</time>
      </trkpt>
      <trkpt lat="10.253581" lon="-67.829163">
        <ele>439.40</ele>
        <time>2022-10-26T10:38:00Z</time>
      </trkpt>
      <trkpt lat="10.253604" lon="-67.829100">
        <ele>439.40</ele>
        <time>2022-10-26T10:38:01Z</time>
      </trkpt>
      <trkpt lat="10.253628" lon="-67.829042">
        <ele>439.40</ele>
        <time>2022-10-26T10:38:02Z</time>
      </trkpt>
      <trkpt lat="10.253654" lon="-67.828982">
        <ele>439.40</ele>
        <time>2022-10-26T10:38:03Z</time>
      </trkpt>
      <trkpt lat="10.253679" lon="-67.828921">
        <ele>439.40</ele>
        <time>2022-10-26T10:38:04Z</time>
      </trkpt>
      <trkpt lat="10.253704" lon="-67.828860">
        <ele>439.40</ele>
        <time>2022-10-26T10:38:05Z</time>
      </trkpt>
      <trkpt lat="10.253730" lon="-67.828799">
        <ele>439.30</ele>
        <time>2022-10-26T10:38:06Z</time>
      </trkpt>
      <trkpt lat="10.253758" lon="-67.828737">
        <ele>439.30</ele>
        <time>2022-10-26T10:38:07Z</time>
      </trkpt>
      <trkpt lat="10.253785" lon="-67.828672">
        <ele>439.30</ele>
        <time>2022-10-26T10:38:08Z</time>
      </trkpt>
      <trkpt lat="10.253812" lon="-67.828603">
        <ele>439.20</ele>
        <time>2022-10-26T10:38:09Z</time>
      </trkpt>
      <trkpt lat="10.253833" lon="-67.828531">
        <ele>439.20</ele>
        <time>2022-10-26T10:38:10Z</time>
      </trkpt>
      <trkpt lat="10.253852" lon="-67.828459">
        <ele>439.10</ele>
        <time>2022-10-26T10:38:11Z</time>
      </trkpt>
      <trkpt lat="10.253871" lon="-67.828388">
        <ele>439.10</ele>
        <time>2022-10-26T10:38:12Z</time>
      </trkpt>
      <trkpt lat="10.253892" lon="-67.828317">
        <ele>439.00</ele>
        <time>2022-10-26T10:38:13Z</time>
      </trkpt>
      <trkpt lat="10.253916" lon="-67.828245">
        <ele>438.90</ele>
        <time>2022-10-26T10:38:14Z</time>
      </trkpt>
      <trkpt lat="10.253939" lon="-67.828170">
        <ele>438.90</ele>
        <time>2022-10-26T10:38:15Z</time>
      </trkpt>
      <trkpt lat="10.253962" lon="-67.828100">
        <ele>438.80</ele>
        <time>2022-10-26T10:38:16Z</time>
      </trkpt>
      <trkpt lat="10.253987" lon="-67.828022">
        <ele>438.70</ele>
        <time>2022-10-26T10:38:17Z</time>
      </trkpt>
      <trkpt lat="10.254012" lon="-67.827940">
        <ele>438.60</ele>
        <time>2022-10-26T10:38:18Z</time>
      </trkpt>
      <trkpt lat="10.254038" lon="-67.827860">
        <ele>438.50</ele>
        <time>2022-10-26T10:38:19Z</time>
      </trkpt>
      <trkpt lat="10.254065" lon="-67.827779">
        <ele>438.40</ele>
        <time>2022-10-26T10:38:20Z</time>
      </trkpt>
      <trkpt lat="10.254094" lon="-67.827699">
        <ele>438.30</ele>
        <time>2022-10-26T10:38:21Z</time>
      </trkpt>
      <trkpt lat="10.254127" lon="-67.827616">
        <ele>438.20</ele>
        <time>2022-10-26T10:38:22Z</time>
      </trkpt>
      <trkpt lat="10.254160" lon="-67.827535">
        <ele>438.10</ele>
        <time>2022-10-26T10:38:23Z</time>
      </trkpt>
      <trkpt lat="10.254191" lon="-67.827454">
        <ele>437.90</ele>
        <time>2022-10-26T10:38:24Z</time>
      </trkpt>
      <trkpt lat="10.254218" lon="-67.827377">
        <ele>437.80</ele>
        <time>2022-10-26T10:38:25Z</time>
      </trkpt>
      <trkpt lat="10.254245" lon="-67.827300">
        <ele>437.70</ele>
        <time>2022-10-26T10:38:26Z</time>
      </trkpt>
      <trkpt lat="10.254271" lon="-67.827220">
        <ele>437.60</ele>
        <time>2022-10-26T10:38:27Z</time>
      </trkpt>
      <trkpt lat="10.254295" lon="-67.827137">
        <ele>437.50</ele>
        <time>2022-10-26T10:38:28Z</time>
      </trkpt>
      <trkpt lat="10.254317" lon="-67.827060">
        <ele>437.30</ele>
        <time>2022-10-26T10:38:29Z</time>
      </trkpt>
      <trkpt lat="10.254339" lon="-67.826975">
        <ele>437.20</ele>
        <time>2022-10-26T10:38:30Z</time>
      </trkpt>
      <trkpt lat="10.254364" lon="-67.826890">
        <ele>437.00</ele>
        <time>2022-10-26T10:38:31Z</time>
      </trkpt>
      <trkpt lat="10.254389" lon="-67.826803">
        <ele>436.90</ele>
        <time>2022-10-26T10:38:32Z</time>
      </trkpt>
      <trkpt lat="10.254416" lon="-67.826720">
        <ele>436.70</ele>
        <time>2022-10-26T10:38:33Z</time>
      </trkpt>
      <trkpt lat="10.254444" lon="-67.826635">
        <ele>436.60</ele>
        <time>2022-10-26T10:38:34Z</time>
      </trkpt>
      <trkpt lat="10.254471" lon="-67.826552">
        <ele>436.50</ele>
        <time>2022-10-26T10:38:35Z</time>
      </trkpt>
      <trkpt lat="10.254495" lon="-67.826468">
        <ele>436.40</ele>
        <time>2022-10-26T10:38:36Z</time>
      </trkpt>
      <trkpt lat="10.254519" lon="-67.826386">
        <ele>436.30</ele>
        <time>2022-10-26T10:38:37Z</time>
      </trkpt>
      <trkpt lat="10.254546" lon="-67.826307">
        <ele>436.20</ele>
        <time>2022-10-26T10:38:38Z</time>
      </trkpt>
      <trkpt lat="10.254573" lon="-67.826226">
        <ele>436.00</ele>
        <time>2022-10-26T10:38:39Z</time>
      </trkpt>
      <trkpt lat="10.254599" lon="-67.826144">
        <ele>435.90</ele>
        <time>2022-10-26T10:38:40Z</time>
      </trkpt>
      <trkpt lat="10.254623" lon="-67.826068">
        <ele>435.80</ele>
        <time>2022-10-26T10:38:41Z</time>
      </trkpt>
      <trkpt lat="10.254650" lon="-67.825983">
        <ele>435.70</ele>
        <time>2022-10-26T10:38:42Z</time>
      </trkpt>
      <trkpt lat="10.254675" lon="-67.825901">
        <ele>435.60</ele>
        <time>2022-10-26T10:38:43Z</time>
      </trkpt>
      <trkpt lat="10.254703" lon="-67.825813">
        <ele>435.50</ele>
        <time>2022-10-26T10:38:44Z</time>
      </trkpt>
      <trkpt lat="10.254724" lon="-67.825728">
        <ele>435.40</ele>
        <time>2022-10-26T10:38:45Z</time>
      </trkpt>
      <trkpt lat="10.254745" lon="-67.825641">
        <ele>435.30</ele>
        <time>2022-10-26T10:38:46Z</time>
      </trkpt>
      <trkpt lat="10.254765" lon="-67.825557">
        <ele>435.10</ele>
        <time>2022-10-26T10:38:47Z</time>
      </trkpt>
      <trkpt lat="10.254787" lon="-67.825471">
        <ele>435.00</ele>
        <time>2022-10-26T10:38:48Z</time>
      </trkpt>
      <trkpt lat="10.254811" lon="-67.825385">
        <ele>434.90</ele>
        <time>2022-10-26T10:38:49Z</time>
      </trkpt>
      <trkpt lat="10.254838" lon="-67.825294">
        <ele>434.80</ele>
        <time>2022-10-26T10:38:50Z</time>
      </trkpt>
      <trkpt lat="10.254888" lon="-67.825131">
        <ele>434.50</ele>
        <time>2022-10-26T10:38:52Z</time>
      </trkpt>
      <trkpt lat="10.254915" lon="-67.825046">
        <ele>434.40</ele>
        <time>2022-10-26T10:38:53Z</time>
      </trkpt>
      <trkpt lat="10.254942" lon="-67.824959">
        <ele>434.40</ele>
        <time>2022-10-26T10:38:54Z</time>
      </trkpt>
      <trkpt lat="10.254966" lon="-67.824871">
        <ele>434.30</ele>
        <time>2022-10-26T10:38:55Z</time>
      </trkpt>
      <trkpt lat="10.254990" lon="-67.824782">
        <ele>434.20</ele>
        <time>2022-10-26T10:38:56Z</time>
      </trkpt>
      <trkpt lat="10.255013" lon="-67.824700">
        <ele>434.10</ele>
        <time>2022-10-26T10:38:57Z</time>
      </trkpt>
      <trkpt lat="10.255036" lon="-67.824621">
        <ele>434.00</ele>
        <time>2022-10-26T10:38:58Z</time>
      </trkpt>
      <trkpt lat="10.255056" lon="-67.824539">
        <ele>434.00</ele>
        <time>2022-10-26T10:38:59Z</time>
      </trkpt>
      <trkpt lat="10.255075" lon="-67.824458">
        <ele>433.90</ele>
        <time>2022-10-26T10:39:00Z</time>
      </trkpt>
      <trkpt lat="10.255095" lon="-67.824379">
        <ele>433.90</ele>
        <time>2022-10-26T10:39:01Z</time>
      </trkpt>
      <trkpt lat="10.255115" lon="-67.824296">
        <ele>433.80</ele>
        <time>2022-10-26T10:39:02Z</time>
      </trkpt>
      <trkpt lat="10.255134" lon="-67.824218">
        <ele>433.80</ele>
        <time>2022-10-26T10:39:03Z</time>
      </trkpt>
      <trkpt lat="10.255154" lon="-67.824140">
        <ele>433.80</ele>
        <time>2022-10-26T10:39:04Z</time>
      </trkpt>
      <trkpt lat="10.255176" lon="-67.824062">
        <ele>433.80</ele>
        <time>2022-10-26T10:39:05Z</time>
      </trkpt>
      <trkpt lat="10.255198" lon="-67.823982">
        <ele>433.80</ele>
        <time>2022-10-26T10:39:06Z</time>
      </trkpt>
      <trkpt lat="10.255210" lon="-67.823907">
        <ele>433.80</ele>
        <time>2022-10-26T10:39:07Z</time>
      </trkpt>
      <trkpt lat="10.255224" lon="-67.823828">
        <ele>433.80</ele>
        <time>2022-10-26T10:39:08Z</time>
      </trkpt>
      <trkpt lat="10.255239" lon="-67.823751">
        <ele>433.80</ele>
        <time>2022-10-26T10:39:09Z</time>
      </trkpt>
      <trkpt lat="10.255254" lon="-67.823673">
        <ele>433.80</ele>
        <time>2022-10-26T10:39:10Z</time>
      </trkpt>
      <trkpt lat="10.255273" lon="-67.823596">
        <ele>433.90</ele>
        <time>2022-10-26T10:39:11Z</time>
      </trkpt>
      <trkpt lat="10.255296" lon="-67.823520">
        <ele>433.90</ele>
        <time>2022-10-26T10:39:12Z</time>
      </trkpt>
      <trkpt lat="10.255315" lon="-67.823451">
        <ele>433.90</ele>
        <time>2022-10-26T10:39:13Z</time>
      </trkpt>
      <trkpt lat="10.255332" lon="-67.823383">
        <ele>434.00</ele>
        <time>2022-10-26T10:39:14Z</time>
      </trkpt>
      <trkpt lat="10.255347" lon="-67.823316">
        <ele>434.00</ele>
        <time>2022-10-26T10:39:15Z</time>
      </trkpt>
      <trkpt lat="10.255361" lon="-67.823248">
        <ele>434.10</ele>
        <time>2022-10-26T10:39:16Z</time>
      </trkpt>
      <trkpt lat="10.255371" lon="-67.823185">
        <ele>434.10</ele>
        <time>2022-10-26T10:39:17Z</time>
      </trkpt>
      <trkpt lat="10.255383" lon="-67.823122">
        <ele>434.20</ele>
        <time>2022-10-26T10:39:18Z</time>
      </trkpt>
      <trkpt lat="10.255394" lon="-67.823058">
        <ele>434.30</ele>
        <time>2022-10-26T10:39:19Z</time>
      </trkpt>
      <trkpt lat="10.255406" lon="-67.822995">
        <ele>434.30</ele>
        <time>2022-10-26T10:39:20Z</time>
      </trkpt>
      <trkpt lat="10.255416" lon="-67.822932">
        <ele>434.40</ele>
        <time>2022-10-26T10:39:21Z</time>
      </trkpt>
      <trkpt lat="10.255429" lon="-67.822870">
        <ele>434.50</ele>
        <time>2022-10-26T10:39:22Z</time>
      </trkpt>
      <trkpt lat="10.255442" lon="-67.822804">
        <ele>434.60</ele>
        <time>2022-10-26T10:39:23Z</time>
      </trkpt>
      <trkpt lat="10.255459" lon="-67.822740">
        <ele>434.60</ele>
        <time>2022-10-26T10:39:24Z</time>
      </trkpt>
      <trkpt lat="10.255480" lon="-67.822676">
        <ele>434.70</ele>
        <time>2022-10-26T10:39:25Z</time>
      </trkpt>
      <trkpt lat="10.255501" lon="-67.822616">
        <ele>434.80</ele>
        <time>2022-10-26T10:39:26Z</time>
      </trkpt>
      <trkpt lat="10.255529" lon="-67.822551">
        <ele>434.90</ele>
        <time>2022-10-26T10:39:27Z</time>
      </trkpt>
      <trkpt lat="10.255553" lon="-67.822487">
        <ele>434.90</ele>
        <time>2022-10-26T10:39:28Z</time>
      </trkpt>
      <trkpt lat="10.255580" lon="-67.822423">
        <ele>435.00</ele>
        <time>2022-10-26T10:39:29Z</time>
      </trkpt>
      <trkpt lat="10.255606" lon="-67.822361">
        <ele>435.10</ele>
        <time>2022-10-26T10:39:30Z</time>
      </trkpt>
      <trkpt lat="10.255630" lon="-67.822296">
        <ele>435.20</ele>
        <time>2022-10-26T10:39:31Z</time>
      </trkpt>
      <trkpt lat="10.255652" lon="-67.822234">
        <ele>435.30</ele>
        <time>2022-10-26T10:39:32Z</time>
      </trkpt>
      <trkpt lat="10.255671" lon="-67.822170">
        <ele>435.40</ele>
        <time>2022-10-26T10:39:33Z</time>
      </trkpt>
      <trkpt lat="10.255686" lon="-67.822110">
        <ele>435.50</ele>
        <time>2022-10-26T10:39:34Z</time>
      </trkpt>
      <trkpt lat="10.255700" lon="-67.822050">
        <ele>435.50</ele>
        <time>2022-10-26T10:39:35Z</time>
      </trkpt>
      <trkpt lat="10.255713" lon="-67.821991">
        <ele>435.60</ele>
        <time>2022-10-26T10:39:36Z</time>
      </trkpt>
      <trkpt lat="10.255727" lon="-67.821927">
        <ele>435.70</ele>
        <time>2022-10-26T10:39:37Z</time>
      </trkpt>
      <trkpt lat="10.255741" lon="-67.821864">
        <ele>435.70</ele>
        <time>2022-10-26T10:39:38Z</time>
      </trkpt>
      <trkpt lat="10.255760" lon="-67.821801">
        <ele>435.80</ele>
        <time>2022-10-26T10:39:39Z</time>
      </trkpt>
      <trkpt lat="10.255779" lon="-67.821740">
        <ele>435.90</ele>
        <time>2022-10-26T10:39:40Z</time>
      </trkpt>
      <trkpt lat="10.255799" lon="-67.821680">
        <ele>436.00</ele>
        <time>2022-10-26T10:39:41Z</time>
      </trkpt>
      <trkpt lat="10.255821" lon="-67.821621">
        <ele>436.00</ele>
        <time>2022-10-26T10:39:42Z</time>
      </trkpt>
      <trkpt lat="10.255840" lon="-67.821563">
        <ele>436.10</ele>
        <time>2022-10-26T10:39:43Z</time>
      </trkpt>
      <trkpt lat="10.255856" lon="-67.821506">
        <ele>436.20</ele>
        <time>2022-10-26T10:39:44Z</time>
      </trkpt>
      <trkpt lat="10.255871" lon="-67.821449">
        <ele>436.30</ele>
        <time>2022-10-26T10:39:45Z</time>
      </trkpt>
      <trkpt lat="10.255890" lon="-67.821393">
        <ele>436.40</ele>
        <time>2022-10-26T10:39:46Z</time>
      </trkpt>
      <trkpt lat="10.255910" lon="-67.821336">
        <ele>436.50</ele>
        <time>2022-10-26T10:39:47Z</time>
      </trkpt>
      <trkpt lat="10.255928" lon="-67.821281">
        <ele>436.60</ele>
        <time>2022-10-26T10:39:48Z</time>
      </trkpt>
      <trkpt lat="10.255944" lon="-67.821225">
        <ele>436.70</ele>
        <time>2022-10-26T10:39:49Z</time>
      </trkpt>
      <trkpt lat="10.255958" lon="-67.821171">
        <ele>436.80</ele>
        <time>2022-10-26T10:39:50Z</time>
      </trkpt>
      <trkpt lat="10.255968" lon="-67.821117">
        <ele>436.80</ele>
        <time>2022-10-26T10:39:51Z</time>
      </trkpt>
      <trkpt lat="10.255982" lon="-67.821061">
        <ele>436.90</ele>
        <time>2022-10-26T10:39:52Z</time>
      </trkpt>
      <trkpt lat="10.255996" lon="-67.820996">
        <ele>437.00</ele>
        <time>2022-10-26T10:39:53Z</time>
      </trkpt>
      <trkpt lat="10.256010" lon="-67.820932">
        <ele>437.10</ele>
        <time>2022-10-26T10:39:54Z</time>
      </trkpt>
      <trkpt lat="10.256027" lon="-67.820865">
        <ele>437.10</ele>
        <time>2022-10-26T10:39:55Z</time>
      </trkpt>
      <trkpt lat="10.256045" lon="-67.820798">
        <ele>437.20</ele>
        <time>2022-10-26T10:39:56Z</time>
      </trkpt>
      <trkpt lat="10.256059" lon="-67.820734">
        <ele>437.30</ele>
        <time>2022-10-26T10:39:57Z</time>
      </trkpt>
      <trkpt lat="10.256075" lon="-67.820669">
        <ele>437.40</ele>
        <time>2022-10-26T10:39:58Z</time>
      </trkpt>
      <trkpt lat="10.256092" lon="-67.820611">
        <ele>437.50</ele>
        <time>2022-10-26T10:39:59Z</time>
      </trkpt>
      <trkpt lat="10.256110" lon="-67.820548">
        <ele>437.60</ele>
        <time>2022-10-26T10:40:00Z</time>
      </trkpt>
      <trkpt lat="10.256128" lon="-67.820483">
        <ele>437.70</ele>
        <time>2022-10-26T10:40:01Z</time>
      </trkpt>
      <trkpt lat="10.256145" lon="-67.820416">
        <ele>437.80</ele>
        <time>2022-10-26T10:40:02Z</time>
      </trkpt>
      <trkpt lat="10.256161" lon="-67.820350">
        <ele>437.80</ele>
        <time>2022-10-26T10:40:03Z</time>
      </trkpt>
      <trkpt lat="10.256176" lon="-67.820288">
        <ele>437.90</ele>
        <time>2022-10-26T10:40:04Z</time>
      </trkpt>
      <trkpt lat="10.256193" lon="-67.820223">
        <ele>438.00</ele>
        <time>2022-10-26T10:40:05Z</time>
      </trkpt>
      <trkpt lat="10.256212" lon="-67.820159">
        <ele>438.10</ele>
        <time>2022-10-26T10:40:06Z</time>
      </trkpt>
      <trkpt lat="10.256232" lon="-67.820096">
        <ele>438.20</ele>
        <time>2022-10-26T10:40:07Z</time>
      </trkpt>
      <trkpt lat="10.256249" lon="-67.820039">
        <ele>438.30</ele>
        <time>2022-10-26T10:40:08Z</time>
      </trkpt>
      <trkpt lat="10.256264" lon="-67.819980">
        <ele>438.30</ele>
        <time>2022-10-26T10:40:09Z</time>
      </trkpt>
      <trkpt lat="10.256282" lon="-67.819920">
        <ele>438.40</ele>
        <time>2022-10-26T10:40:10Z</time>
      </trkpt>
      <trkpt lat="10.256302" lon="-67.819860">
        <ele>438.50</ele>
        <time>2022-10-26T10:40:11Z</time>
      </trkpt>
      <trkpt lat="10.256322" lon="-67.819800">
        <ele>438.60</ele>
        <time>2022-10-26T10:40:12Z</time>
      </trkpt>
      <trkpt lat="10.256341" lon="-67.819739">
        <ele>438.70</ele>
        <time>2022-10-26T10:40:13Z</time>
      </trkpt>
      <trkpt lat="10.256359" lon="-67.819679">
        <ele>438.70</ele>
        <time>2022-10-26T10:40:14Z</time>
      </trkpt>
      <trkpt lat="10.256375" lon="-67.819619">
        <ele>438.80</ele>
        <time>2022-10-26T10:40:15Z</time>
      </trkpt>
      <trkpt lat="10.256389" lon="-67.819559">
        <ele>438.90</ele>
        <time>2022-10-26T10:40:16Z</time>
      </trkpt>
      <trkpt lat="10.256403" lon="-67.819499">
        <ele>438.90</ele>
        <time>2022-10-26T10:40:17Z</time>
      </trkpt>
      <trkpt lat="10.256418" lon="-67.819439">
        <ele>439.00</ele>
        <time>2022-10-26T10:40:18Z</time>
      </trkpt>
      <trkpt lat="10.256434" lon="-67.819383">
        <ele>439.00</ele>
        <time>2022-10-26T10:40:19Z</time>
      </trkpt>
      <trkpt lat="10.256452" lon="-67.819328">
        <ele>439.10</ele>
        <time>2022-10-26T10:40:20Z</time>
      </trkpt>
      <trkpt lat="10.256477" lon="-67.819270">
        <ele>439.20</ele>
        <time>2022-10-26T10:40:21Z</time>
      </trkpt>
      <trkpt lat="10.256499" lon="-67.819206">
        <ele>439.20</ele>
        <time>2022-10-26T10:40:22Z</time>
      </trkpt>
      <trkpt lat="10.256517" lon="-67.819146">
        <ele>439.30</ele>
        <time>2022-10-26T10:40:23Z</time>
      </trkpt>
      <trkpt lat="10.256532" lon="-67.819088">
        <ele>439.40</ele>
        <time>2022-10-26T10:40:24Z</time>
      </trkpt>
      <trkpt lat="10.256545" lon="-67.819030">
        <ele>439.40</ele>
        <time>2022-10-26T10:40:25Z</time>
      </trkpt>
      <trkpt lat="10.256555" lon="-67.818970">
        <ele>439.50</ele>
        <time>2022-10-26T10:40:26Z</time>
      </trkpt>
      <trkpt lat="10.256565" lon="-67.818911">
        <ele>439.60</ele>
        <time>2022-10-26T10:40:27Z</time>
      </trkpt>
      <trkpt lat="10.256576" lon="-67.818855">
        <ele>439.60</ele>
        <time>2022-10-26T10:40:28Z</time>
      </trkpt>
      <trkpt lat="10.256585" lon="-67.818801">
        <ele>439.70</ele>
        <time>2022-10-26T10:40:29Z</time>
      </trkpt>
      <trkpt lat="10.256597" lon="-67.818743">
        <ele>439.80</ele>
        <time>2022-10-26T10:40:30Z</time>
      </trkpt>
      <trkpt lat="10.256611" lon="-67.818688">
        <ele>439.80</ele>
        <time>2022-10-26T10:40:31Z</time>
      </trkpt>
      <trkpt lat="10.256626" lon="-67.818631">
        <ele>439.90</ele>
        <time>2022-10-26T10:40:32Z</time>
      </trkpt>
      <trkpt lat="10.256642" lon="-67.818571">
        <ele>440.00</ele>
        <time>2022-10-26T10:40:33Z</time>
      </trkpt>
      <trkpt lat="10.256656" lon="-67.818514">
        <ele>440.00</ele>
        <time>2022-10-26T10:40:34Z</time>
      </trkpt>
      <trkpt lat="10.256675" lon="-67.818456">
        <ele>440.10</ele>
        <time>2022-10-26T10:40:35Z</time>
      </trkpt>
      <trkpt lat="10.256692" lon="-67.818404">
        <ele>440.20</ele>
        <time>2022-10-26T10:40:36Z</time>
      </trkpt>
      <trkpt lat="10.256706" lon="-67.818348">
        <ele>440.20</ele>
        <time>2022-10-26T10:40:37Z</time>
      </trkpt>
      <trkpt lat="10.256720" lon="-67.818292">
        <ele>440.30</ele>
        <time>2022-10-26T10:40:38Z</time>
      </trkpt>
      <trkpt lat="10.256737" lon="-67.818235">
        <ele>440.40</ele>
        <time>2022-10-26T10:40:39Z</time>
      </trkpt>
      <trkpt lat="10.256754" lon="-67.818176">
        <ele>440.40</ele>
        <time>2022-10-26T10:40:40Z</time>
      </trkpt>
      <trkpt lat="10.256771" lon="-67.818120">
        <ele>440.50</ele>
        <time>2022-10-26T10:40:41Z</time>
      </trkpt>
      <trkpt lat="10.256787" lon="-67.818065">
        <ele>440.50</ele>
        <time>2022-10-26T10:40:42Z</time>
      </trkpt>
      <trkpt lat="10.256804" lon="-67.818010">
        <ele>440.60</ele>
        <time>2022-10-26T10:40:43Z</time>
      </trkpt>
      <trkpt lat="10.256822" lon="-67.817953">
        <ele>440.60</ele>
        <time>2022-10-26T10:40:44Z</time>
      </trkpt>
      <trkpt lat="10.256841" lon="-67.817894">
        <ele>440.70</ele>
        <time>2022-10-26T10:40:45Z</time>
      </trkpt>
      <trkpt lat="10.256857" lon="-67.817835">
        <ele>440.70</ele>
        <time>2022-10-26T10:40:46Z</time>
      </trkpt>
      <trkpt lat="10.256872" lon="-67.817777">
        <ele>440.80</ele>
        <time>2022-10-26T10:40:47Z</time>
      </trkpt>
      <trkpt lat="10.256888" lon="-67.817719">
        <ele>440.90</ele>
        <time>2022-10-26T10:40:48Z</time>
      </trkpt>
      <trkpt lat="10.256901" lon="-67.817663">
        <ele>440.90</ele>
        <time>2022-10-26T10:40:49Z</time>
      </trkpt>
      <trkpt lat="10.256914" lon="-67.817609">
        <ele>440.90</ele>
        <time>2022-10-26T10:40:50Z</time>
      </trkpt>
      <trkpt lat="10.256928" lon="-67.817556">
        <ele>441.00</ele>
        <time>2022-10-26T10:40:51Z</time>
      </trkpt>
      <trkpt lat="10.256942" lon="-67.817502">
        <ele>441.00</ele>
        <time>2022-10-26T10:40:52Z</time>
      </trkpt>
      <trkpt lat="10.256959" lon="-67.817451">
        <ele>441.10</ele>
        <time>2022-10-26T10:40:53Z</time>
      </trkpt>
      <trkpt lat="10.256978" lon="-67.817402">
        <ele>441.10</ele>
        <time>2022-10-26T10:40:54Z</time>
      </trkpt>
      <trkpt lat="10.256994" lon="-67.817351">
        <ele>441.20</ele>
        <time>2022-10-26T10:40:55Z</time>
      </trkpt>
      <trkpt lat="10.257008" lon="-67.817298">
        <ele>441.20</ele>
        <time>2022-10-26T10:40:56Z</time>
      </trkpt>
      <trkpt lat="10.257023" lon="-67.817243">
        <ele>441.30</ele>
        <time>2022-10-26T10:40:57Z</time>
      </trkpt>
      <trkpt lat="10.257035" lon="-67.817188">
        <ele>441.30</ele>
        <time>2022-10-26T10:40:58Z</time>
      </trkpt>
      <trkpt lat="10.257047" lon="-67.817134">
        <ele>441.40</ele>
        <time>2022-10-26T10:40:59Z</time>
      </trkpt>
      <trkpt lat="10.257059" lon="-67.817081">
        <ele>441.40</ele>
        <time>2022-10-26T10:41:00Z</time>
      </trkpt>
      <trkpt lat="10.257073" lon="-67.817031">
        <ele>441.50</ele>
        <time>2022-10-26T10:41:01Z</time>
      </trkpt>
      <trkpt lat="10.257087" lon="-67.816981">
        <ele>441.50</ele>
        <time>2022-10-26T10:41:02Z</time>
      </trkpt>
      <trkpt lat="10.257103" lon="-67.816933">
        <ele>441.50</ele>
        <time>2022-10-26T10:41:03Z</time>
      </trkpt>
      <trkpt lat="10.257120" lon="-67.816885">
        <ele>441.60</ele>
        <time>2022-10-26T10:41:04Z</time>
      </trkpt>
      <trkpt lat="10.257132" lon="-67.816840">
        <ele>441.60</ele>
        <time>2022-10-26T10:41:05Z</time>
      </trkpt>
      <trkpt lat="10.257144" lon="-67.816796">
        <ele>441.70</ele>
        <time>2022-10-26T10:41:06Z</time>
      </trkpt>
      <trkpt lat="10.257155" lon="-67.816748">
        <ele>441.70</ele>
        <time>2022-10-26T10:41:07Z</time>
      </trkpt>
      <trkpt lat="10.257165" lon="-67.816699">
        <ele>441.70</ele>
        <time>2022-10-26T10:41:08Z</time>
      </trkpt>
      <trkpt lat="10.257175" lon="-67.816647">
        <ele>441.80</ele>
        <time>2022-10-26T10:41:09Z</time>
      </trkpt>
      <trkpt lat="10.257184" lon="-67.816592">
        <ele>441.80</ele>
        <time>2022-10-26T10:41:10Z</time>
      </trkpt>
      <trkpt lat="10.257192" lon="-67.816538">
        <ele>441.90</ele>
        <time>2022-10-26T10:41:11Z</time>
      </trkpt>
      <trkpt lat="10.257198" lon="-67.816486">
        <ele>441.90</ele>
        <time>2022-10-26T10:41:12Z</time>
      </trkpt>
      <trkpt lat="10.257205" lon="-67.816432">
        <ele>442.00</ele>
        <time>2022-10-26T10:41:13Z</time>
      </trkpt>
      <trkpt lat="10.257217" lon="-67.816379">
        <ele>442.00</ele>
        <time>2022-10-26T10:41:14Z</time>
      </trkpt>
      <trkpt lat="10.257232" lon="-67.816327">
        <ele>442.10</ele>
        <time>2022-10-26T10:41:15Z</time>
      </trkpt>
      <trkpt lat="10.257249" lon="-67.816273">
        <ele>442.20</ele>
        <time>2022-10-26T10:41:16Z</time>
      </trkpt>
      <trkpt lat="10.257263" lon="-67.816217">
        <ele>442.20</ele>
        <time>2022-10-26T10:41:17Z</time>
      </trkpt>
      <trkpt lat="10.257275" lon="-67.816159">
        <ele>442.30</ele>
        <time>2022-10-26T10:41:18Z</time>
      </trkpt>
      <trkpt lat="10.257287" lon="-67.816103">
        <ele>442.40</ele>
        <time>2022-10-26T10:41:19Z</time>
      </trkpt>
      <trkpt lat="10.257302" lon="-67.816047">
        <ele>442.40</ele>
        <time>2022-10-26T10:41:20Z</time>
      </trkpt>
      <trkpt lat="10.257315" lon="-67.815991">
        <ele>442.50</ele>
        <time>2022-10-26T10:41:21Z</time>
      </trkpt>
      <trkpt lat="10.257328" lon="-67.815932">
        <ele>442.60</ele>
        <time>2022-10-26T10:41:22Z</time>
      </trkpt>
      <trkpt lat="10.257342" lon="-67.815872">
        <ele>442.60</ele>
        <time>2022-10-26T10:41:23Z</time>
      </trkpt>
      <trkpt lat="10.257355" lon="-67.815810">
        <ele>442.70</ele>
        <time>2022-10-26T10:41:24Z</time>
      </trkpt>
      <trkpt lat="10.257369" lon="-67.815751">
        <ele>442.80</ele>
        <time>2022-10-26T10:41:25Z</time>
      </trkpt>
      <trkpt lat="10.257382" lon="-67.815694">
        <ele>442.80</ele>
        <time>2022-10-26T10:41:26Z</time>
      </trkpt>
      <trkpt lat="10.257394" lon="-67.815639">
        <ele>442.90</ele>
        <time>2022-10-26T10:41:27Z</time>
      </trkpt>
      <trkpt lat="10.257406" lon="-67.815584">
        <ele>442.90</ele>
        <time>2022-10-26T10:41:28Z</time>
      </trkpt>
      <trkpt lat="10.257419" lon="-67.815532">
        <ele>442.90</ele>
        <time>2022-10-26T10:41:29Z</time>
      </trkpt>
      <trkpt lat="10.257437" lon="-67.815479">
        <ele>443.00</ele>
        <time>2022-10-26T10:41:30Z</time>
      </trkpt>
      <trkpt lat="10.257454" lon="-67.815426">
        <ele>443.00</ele>
        <time>2022-10-26T10:41:31Z</time>
      </trkpt>
      <trkpt lat="10.257473" lon="-67.815374">
        <ele>443.10</ele>
        <time>2022-10-26T10:41:32Z</time>
      </trkpt>
      <trkpt lat="10.257491" lon="-67.815323">
        <ele>443.10</ele>
        <time>2022-10-26T10:41:33Z</time>
      </trkpt>
      <trkpt lat="10.257510" lon="-67.815271">
        <ele>443.20</ele>
        <time>2022-10-26T10:41:34Z</time>
      </trkpt>
      <trkpt lat="10.257526" lon="-67.815219">
        <ele>443.20</ele>
        <time>2022-10-26T10:41:35Z</time>
      </trkpt>
      <trkpt lat="10.257542" lon="-67.815166">
        <ele>443.30</ele>
        <time>2022-10-26T10:41:36Z</time>
      </trkpt>
      <trkpt lat="10.257559" lon="-67.815112">
        <ele>443.30</ele>
        <time>2022-10-26T10:41:37Z</time>
      </trkpt>
      <trkpt lat="10.257579" lon="-67.815058">
        <ele>443.40</ele>
        <time>2022-10-26T10:41:38Z</time>
      </trkpt>
      <trkpt lat="10.257594" lon="-67.815001">
        <ele>443.50</ele>
        <time>2022-10-26T10:41:39Z</time>
      </trkpt>
      <trkpt lat="10.257607" lon="-67.814949">
        <ele>443.50</ele>
        <time>2022-10-26T10:41:40Z</time>
      </trkpt>
      <trkpt lat="10.257620" lon="-67.814900">
        <ele>443.60</ele>
        <time>2022-10-26T10:41:41Z</time>
      </trkpt>
      <trkpt lat="10.257636" lon="-67.814852">
        <ele>443.60</ele>
        <time>2022-10-26T10:41:42Z</time>
      </trkpt>
      <trkpt lat="10.257651" lon="-67.814805">
        <ele>443.70</ele>
        <time>2022-10-26T10:41:43Z</time>
      </trkpt>
      <trkpt lat="10.257669" lon="-67.814757">
        <ele>443.70</ele>
        <time>2022-10-26T10:41:44Z</time>
      </trkpt>
      <trkpt lat="10.257686" lon="-67.814707">
        <ele>443.80</ele>
        <time>2022-10-26T10:41:45Z</time>
      </trkpt>
      <trkpt lat="10.257703" lon="-67.814657">
        <ele>443.80</ele>
        <time>2022-10-26T10:41:46Z</time>
      </trkpt>
      <trkpt lat="10.257720" lon="-67.814609">
        <ele>443.80</ele>
        <time>2022-10-26T10:41:47Z</time>
      </trkpt>
      <trkpt lat="10.257734" lon="-67.814557">
        <ele>443.90</ele>
        <time>2022-10-26T10:41:48Z</time>
      </trkpt>
      <trkpt lat="10.257748" lon="-67.814501">
        <ele>443.90</ele>
        <time>2022-10-26T10:41:49Z</time>
      </trkpt>
      <trkpt lat="10.257762" lon="-67.814444">
        <ele>444.00</ele>
        <time>2022-10-26T10:41:50Z</time>
      </trkpt>
      <trkpt lat="10.257778" lon="-67.814388">
        <ele>444.00</ele>
        <time>2022-10-26T10:41:51Z</time>
      </trkpt>
      <trkpt lat="10.257793" lon="-67.814331">
        <ele>444.10</ele>
        <time>2022-10-26T10:41:52Z</time>
      </trkpt>
      <trkpt lat="10.257810" lon="-67.814277">
        <ele>444.10</ele>
        <time>2022-10-26T10:41:53Z</time>
      </trkpt>
      <trkpt lat="10.257827" lon="-67.814223">
        <ele>444.20</ele>
        <time>2022-10-26T10:41:54Z</time>
      </trkpt>
      <trkpt lat="10.257845" lon="-67.814170">
        <ele>444.20</ele>
        <time>2022-10-26T10:41:55Z</time>
      </trkpt>
      <trkpt lat="10.257863" lon="-67.814119">
        <ele>444.30</ele>
        <time>2022-10-26T10:41:56Z</time>
      </trkpt>
      <trkpt lat="10.257880" lon="-67.814066">
        <ele>444.30</ele>
        <time>2022-10-26T10:41:57Z</time>
      </trkpt>
      <trkpt lat="10.257896" lon="-67.814009">
        <ele>444.40</ele>
        <time>2022-10-26T10:41:58Z</time>
      </trkpt>
      <trkpt lat="10.257913" lon="-67.813956">
        <ele>444.40</ele>
        <time>2022-10-26T10:41:59Z</time>
      </trkpt>
      <trkpt lat="10.257926" lon="-67.813903">
        <ele>444.50</ele>
        <time>2022-10-26T10:42:00Z</time>
      </trkpt>
      <trkpt lat="10.257938" lon="-67.813849">
        <ele>444.50</ele>
        <time>2022-10-26T10:42:01Z</time>
      </trkpt>
      <trkpt lat="10.257948" lon="-67.813791">
        <ele>444.60</ele>
        <time>2022-10-26T10:42:02Z</time>
      </trkpt>
      <trkpt lat="10.257962" lon="-67.813734">
        <ele>444.70</ele>
        <time>2022-10-26T10:42:03Z</time>
      </trkpt>
      <trkpt lat="10.257976" lon="-67.813678">
        <ele>444.70</ele>
        <time>2022-10-26T10:42:04Z</time>
      </trkpt>
      <trkpt lat="10.257991" lon="-67.813623">
        <ele>444.80</ele>
        <time>2022-10-26T10:42:05Z</time>
      </trkpt>
      <trkpt lat="10.258007" lon="-67.813570">
        <ele>444.80</ele>
        <time>2022-10-26T10:42:06Z</time>
      </trkpt>
      <trkpt lat="10.258023" lon="-67.813517">
        <ele>444.90</ele>
        <time>2022-10-26T10:42:07Z</time>
      </trkpt>
      <trkpt lat="10.258037" lon="-67.813462">
        <ele>444.90</ele>
        <time>2022-10-26T10:42:08Z</time>
      </trkpt>
      <trkpt lat="10.258052" lon="-67.813407">
        <ele>444.90</ele>
        <time>2022-10-26T10:42:09Z</time>
      </trkpt>
      <trkpt lat="10.258064" lon="-67.813351">
        <ele>445.00</ele>
        <time>2022-10-26T10:42:10Z</time>
      </trkpt>
      <trkpt lat="10.258075" lon="-67.813292">
        <ele>445.00</ele>
        <time>2022-10-26T10:42:11Z</time>
      </trkpt>
      <trkpt lat="10.258088" lon="-67.813235">
        <ele>445.00</ele>
        <time>2022-10-26T10:42:12Z</time>
      </trkpt>
      <trkpt lat="10.258103" lon="-67.813181">
        <ele>445.10</ele>
        <time>2022-10-26T10:42:13Z</time>
      </trkpt>
      <trkpt lat="10.258114" lon="-67.813128">
        <ele>445.10</ele>
        <time>2022-10-26T10:42:14Z</time>
      </trkpt>
      <trkpt lat="10.258126" lon="-67.813071">
        <ele>445.10</ele>
        <time>2022-10-26T10:42:15Z</time>
      </trkpt>
      <trkpt lat="10.258138" lon="-67.813011">
        <ele>445.00</ele>
        <time>2022-10-26T10:42:16Z</time>
      </trkpt>
      <trkpt lat="10.258150" lon="-67.812951">
        <ele>445.10</ele>
        <time>2022-10-26T10:42:17Z</time>
      </trkpt>
      <trkpt lat="10.258164" lon="-67.812894">
        <ele>445.10</ele>
        <time>2022-10-26T10:42:18Z</time>
      </trkpt>
      <trkpt lat="10.258180" lon="-67.812838">
        <ele>445.20</ele>
        <time>2022-10-26T10:42:19Z</time>
      </trkpt>
      <trkpt lat="10.258196" lon="-67.812782">
        <ele>445.20</ele>
        <time>2022-10-26T10:42:20Z</time>
      </trkpt>
      <trkpt lat="10.258210" lon="-67.812727">
        <ele>445.20</ele>
        <time>2022-10-26T10:42:21Z</time>
      </trkpt>
      <trkpt lat="10.258225" lon="-67.812668">
        <ele>445.30</ele>
        <time>2022-10-26T10:42:22Z</time>
      </trkpt>
      <trkpt lat="10.258241" lon="-67.812606">
        <ele>445.30</ele>
        <time>2022-10-26T10:42:23Z</time>
      </trkpt>
      <trkpt lat="10.258257" lon="-67.812544">
        <ele>445.40</ele>
        <time>2022-10-26T10:42:24Z</time>
      </trkpt>
      <trkpt lat="10.258273" lon="-67.812480">
        <ele>445.40</ele>
        <time>2022-10-26T10:42:25Z</time>
      </trkpt>
      <trkpt lat="10.258289" lon="-67.812416">
        <ele>445.40</ele>
        <time>2022-10-26T10:42:26Z</time>
      </trkpt>
      <trkpt lat="10.258304" lon="-67.812353">
        <ele>445.50</ele>
        <time>2022-10-26T10:42:27Z</time>
      </trkpt>
      <trkpt lat="10.258316" lon="-67.812289">
        <ele>445.50</ele>
        <time>2022-10-26T10:42:28Z</time>
      </trkpt>
      <trkpt lat="10.258327" lon="-67.812229">
        <ele>445.50</ele>
        <time>2022-10-26T10:42:29Z</time>
      </trkpt>
      <trkpt lat="10.258339" lon="-67.812166">
        <ele>445.60</ele>
        <time>2022-10-26T10:42:30Z</time>
      </trkpt>
      <trkpt lat="10.258351" lon="-67.812108">
        <ele>445.60</ele>
        <time>2022-10-26T10:42:31Z</time>
      </trkpt>
      <trkpt lat="10.258363" lon="-67.812051">
        <ele>445.60</ele>
        <time>2022-10-26T10:42:32Z</time>
      </trkpt>
      <trkpt lat="10.258375" lon="-67.811993">
        <ele>445.70</ele>
        <time>2022-10-26T10:42:33Z</time>
      </trkpt>
      <trkpt lat="10.258391" lon="-67.811936">
        <ele>445.70</ele>
        <time>2022-10-26T10:42:34Z</time>
      </trkpt>
      <trkpt lat="10.258399" lon="-67.811882">
        <ele>445.80</ele>
        <time>2022-10-26T10:42:35Z</time>
      </trkpt>
      <trkpt lat="10.258408" lon="-67.811831">
        <ele>445.80</ele>
        <time>2022-10-26T10:42:36Z</time>
      </trkpt>
      <trkpt lat="10.258417" lon="-67.811783">
        <ele>445.80</ele>
        <time>2022-10-26T10:42:37Z</time>
      </trkpt>
      <trkpt lat="10.258426" lon="-67.811735">
        <ele>445.90</ele>
        <time>2022-10-26T10:42:38Z</time>
      </trkpt>
      <trkpt lat="10.258436" lon="-67.811682">
        <ele>445.90</ele>
        <time>2022-10-26T10:42:39Z</time>
      </trkpt>
      <trkpt lat="10.258444" lon="-67.811622">
        <ele>445.90</ele>
        <time>2022-10-26T10:42:40Z</time>
      </trkpt>
      <trkpt lat="10.258451" lon="-67.811558">
        <ele>446.00</ele>
        <time>2022-10-26T10:42:41Z</time>
      </trkpt>
      <trkpt lat="10.258458" lon="-67.811491">
        <ele>446.00</ele>
        <time>2022-10-26T10:42:42Z</time>
      </trkpt>
      <trkpt lat="10.258469" lon="-67.811428">
        <ele>446.10</ele>
        <time>2022-10-26T10:42:43Z</time>
      </trkpt>
      <trkpt lat="10.258478" lon="-67.811369">
        <ele>446.10</ele>
        <time>2022-10-26T10:42:44Z</time>
      </trkpt>
      <trkpt lat="10.258490" lon="-67.811309">
        <ele>446.20</ele>
        <time>2022-10-26T10:42:45Z</time>
      </trkpt>
      <trkpt lat="10.258504" lon="-67.811252">
        <ele>446.20</ele>
        <time>2022-10-26T10:42:46Z</time>
      </trkpt>
      <trkpt lat="10.258516" lon="-67.811196">
        <ele>446.20</ele>
        <time>2022-10-26T10:42:47Z</time>
      </trkpt>
      <trkpt lat="10.258527" lon="-67.811141">
        <ele>446.20</ele>
        <time>2022-10-26T10:42:48Z</time>
      </trkpt>
      <trkpt lat="10.258536" lon="-67.811085">
        <ele>446.30</ele>
        <time>2022-10-26T10:42:49Z</time>
      </trkpt>
      <trkpt lat="10.258542" lon="-67.811029">
        <ele>446.30</ele>
        <time>2022-10-26T10:42:50Z</time>
      </trkpt>
      <trkpt lat="10.258554" lon="-67.810971">
        <ele>446.30</ele>
        <time>2022-10-26T10:42:51Z</time>
      </trkpt>
      <trkpt lat="10.258566" lon="-67.810910">
        <ele>446.30</ele>
        <time>2022-10-26T10:42:52Z</time>
      </trkpt>
      <trkpt lat="10.258575" lon="-67.810847">
        <ele>446.40</ele>
        <time>2022-10-26T10:42:53Z</time>
      </trkpt>
      <trkpt lat="10.258584" lon="-67.810784">
        <ele>446.40</ele>
        <time>2022-10-26T10:42:54Z</time>
      </trkpt>
      <trkpt lat="10.258597" lon="-67.810720">
        <ele>446.40</ele>
        <time>2022-10-26T10:42:55Z</time>
      </trkpt>
      <trkpt lat="10.258609" lon="-67.810656">
        <ele>446.40</ele>
        <time>2022-10-26T10:42:56Z</time>
      </trkpt>
      <trkpt lat="10.258624" lon="-67.810590">
        <ele>446.40</ele>
        <time>2022-10-26T10:42:57Z</time>
      </trkpt>
      <trkpt lat="10.258639" lon="-67.810525">
        <ele>446.50</ele>
        <time>2022-10-26T10:42:58Z</time>
      </trkpt>
      <trkpt lat="10.258655" lon="-67.810458">
        <ele>446.50</ele>
        <time>2022-10-26T10:42:59Z</time>
      </trkpt>
      <trkpt lat="10.258670" lon="-67.810387">
        <ele>446.50</ele>
        <time>2022-10-26T10:43:00Z</time>
      </trkpt>
      <trkpt lat="10.258685" lon="-67.810318">
        <ele>446.50</ele>
        <time>2022-10-26T10:43:01Z</time>
      </trkpt>
      <trkpt lat="10.258699" lon="-67.810250">
        <ele>446.50</ele>
        <time>2022-10-26T10:43:02Z</time>
      </trkpt>
      <trkpt lat="10.258713" lon="-67.810184">
        <ele>446.50</ele>
        <time>2022-10-26T10:43:03Z</time>
      </trkpt>
      <trkpt lat="10.258725" lon="-67.810122">
        <ele>446.50</ele>
        <time>2022-10-26T10:43:04Z</time>
      </trkpt>
      <trkpt lat="10.258737" lon="-67.810060">
        <ele>446.60</ele>
        <time>2022-10-26T10:43:05Z</time>
      </trkpt>
      <trkpt lat="10.258748" lon="-67.810000">
        <ele>446.60</ele>
        <time>2022-10-26T10:43:06Z</time>
      </trkpt>
      <trkpt lat="10.258760" lon="-67.809943">
        <ele>446.60</ele>
        <time>2022-10-26T10:43:07Z</time>
      </trkpt>
      <trkpt lat="10.258772" lon="-67.809881">
        <ele>446.60</ele>
        <time>2022-10-26T10:43:08Z</time>
      </trkpt>
      <trkpt lat="10.258783" lon="-67.809819">
        <ele>446.60</ele>
        <time>2022-10-26T10:43:09Z</time>
      </trkpt>
      <trkpt lat="10.258794" lon="-67.809755">
        <ele>446.60</ele>
        <time>2022-10-26T10:43:10Z</time>
      </trkpt>
      <trkpt lat="10.258807" lon="-67.809693">
        <ele>446.60</ele>
        <time>2022-10-26T10:43:11Z</time>
      </trkpt>
      <trkpt lat="10.258820" lon="-67.809633">
        <ele>446.60</ele>
        <time>2022-10-26T10:43:12Z</time>
      </trkpt>
      <trkpt lat="10.258831" lon="-67.809575">
        <ele>446.60</ele>
        <time>2022-10-26T10:43:13Z</time>
      </trkpt>
      <trkpt lat="10.258840" lon="-67.809515">
        <ele>446.60</ele>
        <time>2022-10-26T10:43:14Z</time>
      </trkpt>
      <trkpt lat="10.258848" lon="-67.809455">
        <ele>446.60</ele>
        <time>2022-10-26T10:43:15Z</time>
      </trkpt>
      <trkpt lat="10.258858" lon="-67.809395">
        <ele>446.60</ele>
        <time>2022-10-26T10:43:16Z</time>
      </trkpt>
      <trkpt lat="10.258865" lon="-67.809334">
        <ele>446.60</ele>
        <time>2022-10-26T10:43:17Z</time>
      </trkpt>
      <trkpt lat="10.258874" lon="-67.809274">
        <ele>446.60</ele>
        <time>2022-10-26T10:43:18Z</time>
      </trkpt>
      <trkpt lat="10.258885" lon="-67.809213">
        <ele>446.60</ele>
        <time>2022-10-26T10:43:19Z</time>
      </trkpt>
      <trkpt lat="10.258898" lon="-67.809152">
        <ele>446.60</ele>
        <time>2022-10-26T10:43:20Z</time>
      </trkpt>
      <trkpt lat="10.258912" lon="-67.809093">
        <ele>446.60</ele>
        <time>2022-10-26T10:43:21Z</time>
      </trkpt>
      <trkpt lat="10.258929" lon="-67.809033">
        <ele>446.60</ele>
        <time>2022-10-26T10:43:22Z</time>
      </trkpt>
      <trkpt lat="10.258946" lon="-67.808972">
        <ele>446.60</ele>
        <time>2022-10-26T10:43:23Z</time>
      </trkpt>
      <trkpt lat="10.258964" lon="-67.808912">
        <ele>446.60</ele>
        <time>2022-10-26T10:43:24Z</time>
      </trkpt>
      <trkpt lat="10.258981" lon="-67.808852">
        <ele>446.60</ele>
        <time>2022-10-26T10:43:25Z</time>
      </trkpt>
      <trkpt lat="10.258998" lon="-67.808793">
        <ele>446.60</ele>
        <time>2022-10-26T10:43:26Z</time>
      </trkpt>
      <trkpt lat="10.259012" lon="-67.808732">
        <ele>446.60</ele>
        <time>2022-10-26T10:43:27Z</time>
      </trkpt>
      <trkpt lat="10.259028" lon="-67.808674">
        <ele>446.70</ele>
        <time>2022-10-26T10:43:28Z</time>
      </trkpt>
      <trkpt lat="10.259040" lon="-67.808612">
        <ele>446.70</ele>
        <time>2022-10-26T10:43:29Z</time>
      </trkpt>
      <trkpt lat="10.259048" lon="-67.808546">
        <ele>446.70</ele>
        <time>2022-10-26T10:43:30Z</time>
      </trkpt>
      <trkpt lat="10.259057" lon="-67.808476">
        <ele>446.70</ele>
        <time>2022-10-26T10:43:31Z</time>
      </trkpt>
      <trkpt lat="10.259065" lon="-67.808403">
        <ele>446.70</ele>
        <time>2022-10-26T10:43:32Z</time>
      </trkpt>
      <trkpt lat="10.259078" lon="-67.808328">
        <ele>446.70</ele>
        <time>2022-10-26T10:43:33Z</time>
      </trkpt>
      <trkpt lat="10.259095" lon="-67.808258">
        <ele>446.70</ele>
        <time>2022-10-26T10:43:34Z</time>
      </trkpt>
      <trkpt lat="10.259112" lon="-67.808191">
        <ele>446.70</ele>
        <time>2022-10-26T10:43:35Z</time>
      </trkpt>
      <trkpt lat="10.259129" lon="-67.808121">
        <ele>446.70</ele>
        <time>2022-10-26T10:43:36Z</time>
      </trkpt>
      <trkpt lat="10.259146" lon="-67.808050">
        <ele>446.70</ele>
        <time>2022-10-26T10:43:37Z</time>
      </trkpt>
      <trkpt lat="10.259161" lon="-67.807973">
        <ele>446.70</ele>
        <time>2022-10-26T10:43:38Z</time>
      </trkpt>
      <trkpt lat="10.259176" lon="-67.807900">
        <ele>446.70</ele>
        <time>2022-10-26T10:43:39Z</time>
      </trkpt>
      <trkpt lat="10.259192" lon="-67.807826">
        <ele>446.70</ele>
        <time>2022-10-26T10:43:40Z</time>
      </trkpt>
      <trkpt lat="10.259208" lon="-67.807754">
        <ele>446.70</ele>
        <time>2022-10-26T10:43:41Z</time>
      </trkpt>
      <trkpt lat="10.259222" lon="-67.807687">
        <ele>446.70</ele>
        <time>2022-10-26T10:43:42Z</time>
      </trkpt>
      <trkpt lat="10.259230" lon="-67.807622">
        <ele>446.70</ele>
        <time>2022-10-26T10:43:43Z</time>
      </trkpt>
      <trkpt lat="10.259237" lon="-67.807561">
        <ele>446.70</ele>
        <time>2022-10-26T10:43:44Z</time>
      </trkpt>
      <trkpt lat="10.259245" lon="-67.807498">
        <ele>446.70</ele>
        <time>2022-10-26T10:43:45Z</time>
      </trkpt>
      <trkpt lat="10.259251" lon="-67.807437">
        <ele>446.70</ele>
        <time>2022-10-26T10:43:46Z</time>
      </trkpt>
      <trkpt lat="10.259258" lon="-67.807376">
        <ele>446.70</ele>
        <time>2022-10-26T10:43:47Z</time>
      </trkpt>
      <trkpt lat="10.259268" lon="-67.807311">
        <ele>446.70</ele>
        <time>2022-10-26T10:43:48Z</time>
      </trkpt>
      <trkpt lat="10.259276" lon="-67.807246">
        <ele>446.70</ele>
        <time>2022-10-26T10:43:49Z</time>
      </trkpt>
      <trkpt lat="10.259283" lon="-67.807180">
        <ele>446.70</ele>
        <time>2022-10-26T10:43:50Z</time>
      </trkpt>
      <trkpt lat="10.259293" lon="-67.807110">
        <ele>446.70</ele>
        <time>2022-10-26T10:43:51Z</time>
      </trkpt>
      <trkpt lat="10.259303" lon="-67.807037">
        <ele>446.70</ele>
        <time>2022-10-26T10:43:52Z</time>
      </trkpt>
      <trkpt lat="10.259315" lon="-67.806965">
        <ele>446.80</ele>
        <time>2022-10-26T10:43:53Z</time>
      </trkpt>
      <trkpt lat="10.259325" lon="-67.806892">
        <ele>446.80</ele>
        <time>2022-10-26T10:43:54Z</time>
      </trkpt>
      <trkpt lat="10.259338" lon="-67.806821">
        <ele>446.80</ele>
        <time>2022-10-26T10:43:55Z</time>
      </trkpt>
      <trkpt lat="10.259351" lon="-67.806753">
        <ele>446.80</ele>
        <time>2022-10-26T10:43:56Z</time>
      </trkpt>
      <trkpt lat="10.259364" lon="-67.806684">
        <ele>446.80</ele>
        <time>2022-10-26T10:43:57Z</time>
      </trkpt>
      <trkpt lat="10.259377" lon="-67.806616">
        <ele>446.80</ele>
        <time>2022-10-26T10:43:58Z</time>
      </trkpt>
      <trkpt lat="10.259392" lon="-67.806545">
        <ele>446.80</ele>
        <time>2022-10-26T10:43:59Z</time>
      </trkpt>
      <trkpt lat="10.259406" lon="-67.806477">
        <ele>446.80</ele>
        <time>2022-10-26T10:44:00Z</time>
      </trkpt>
      <trkpt lat="10.259419" lon="-67.806402">
        <ele>446.80</ele>
        <time>2022-10-26T10:44:01Z</time>
      </trkpt>
      <trkpt lat="10.259433" lon="-67.806325">
        <ele>446.80</ele>
        <time>2022-10-26T10:44:02Z</time>
      </trkpt>
      <trkpt lat="10.259450" lon="-67.806249">
        <ele>446.90</ele>
        <time>2022-10-26T10:44:03Z</time>
      </trkpt>
      <trkpt lat="10.259468" lon="-67.806167">
        <ele>446.90</ele>
        <time>2022-10-26T10:44:04Z</time>
      </trkpt>
      <trkpt lat="10.259485" lon="-67.806094">
        <ele>446.90</ele>
        <time>2022-10-26T10:44:05Z</time>
      </trkpt>
      <trkpt lat="10.259501" lon="-67.806020">
        <ele>446.90</ele>
        <time>2022-10-26T10:44:06Z</time>
      </trkpt>
      <trkpt lat="10.259518" lon="-67.805950">
        <ele>446.90</ele>
        <time>2022-10-26T10:44:07Z</time>
      </trkpt>
      <trkpt lat="10.259533" lon="-67.805875">
        <ele>446.90</ele>
        <time>2022-10-26T10:44:08Z</time>
      </trkpt>
      <trkpt lat="10.259545" lon="-67.805798">
        <ele>446.90</ele>
        <time>2022-10-26T10:44:09Z</time>
      </trkpt>
      <trkpt lat="10.259556" lon="-67.805722">
        <ele>446.90</ele>
        <time>2022-10-26T10:44:10Z</time>
      </trkpt>
      <trkpt lat="10.259567" lon="-67.805649">
        <ele>446.90</ele>
        <time>2022-10-26T10:44:11Z</time>
      </trkpt>
      <trkpt lat="10.259577" lon="-67.805577">
        <ele>446.90</ele>
        <time>2022-10-26T10:44:12Z</time>
      </trkpt>
      <trkpt lat="10.259590" lon="-67.805507">
        <ele>446.90</ele>
        <time>2022-10-26T10:44:13Z</time>
      </trkpt>
      <trkpt lat="10.259603" lon="-67.805437">
        <ele>446.90</ele>
        <time>2022-10-26T10:44:14Z</time>
      </trkpt>
      <trkpt lat="10.259616" lon="-67.805368">
        <ele>446.90</ele>
        <time>2022-10-26T10:44:15Z</time>
      </trkpt>
      <trkpt lat="10.259630" lon="-67.805296">
        <ele>447.00</ele>
        <time>2022-10-26T10:44:16Z</time>
      </trkpt>
      <trkpt lat="10.259644" lon="-67.805224">
        <ele>447.00</ele>
        <time>2022-10-26T10:44:17Z</time>
      </trkpt>
      <trkpt lat="10.259661" lon="-67.805154">
        <ele>447.10</ele>
        <time>2022-10-26T10:44:18Z</time>
      </trkpt>
      <trkpt lat="10.259681" lon="-67.805083">
        <ele>447.20</ele>
        <time>2022-10-26T10:44:19Z</time>
      </trkpt>
      <trkpt lat="10.259703" lon="-67.805016">
        <ele>447.20</ele>
        <time>2022-10-26T10:44:20Z</time>
      </trkpt>
      <trkpt lat="10.259722" lon="-67.804949">
        <ele>447.20</ele>
        <time>2022-10-26T10:44:21Z</time>
      </trkpt>
      <trkpt lat="10.259739" lon="-67.804883">
        <ele>447.20</ele>
        <time>2022-10-26T10:44:22Z</time>
      </trkpt>
      <trkpt lat="10.259751" lon="-67.804813">
        <ele>447.20</ele>
        <time>2022-10-26T10:44:23Z</time>
      </trkpt>
      <trkpt lat="10.259761" lon="-67.804739">
        <ele>447.20</ele>
        <time>2022-10-26T10:44:24Z</time>
      </trkpt>
      <trkpt lat="10.259770" lon="-67.804665">
        <ele>447.20</ele>
        <time>2022-10-26T10:44:25Z</time>
      </trkpt>
      <trkpt lat="10.259781" lon="-67.804592">
        <ele>447.20</ele>
        <time>2022-10-26T10:44:26Z</time>
      </trkpt>
      <trkpt lat="10.259793" lon="-67.804523">
        <ele>447.30</ele>
        <time>2022-10-26T10:44:27Z</time>
      </trkpt>
      <trkpt lat="10.259805" lon="-67.804455">
        <ele>447.30</ele>
        <time>2022-10-26T10:44:28Z</time>
      </trkpt>
      <trkpt lat="10.259818" lon="-67.804388">
        <ele>447.30</ele>
        <time>2022-10-26T10:44:29Z</time>
      </trkpt>
      <trkpt lat="10.259826" lon="-67.804327">
        <ele>447.30</ele>
        <time>2022-10-26T10:44:30Z</time>
      </trkpt>
      <trkpt lat="10.259836" lon="-67.804267">
        <ele>447.30</ele>
        <time>2022-10-26T10:44:31Z</time>
      </trkpt>
      <trkpt lat="10.259849" lon="-67.804210">
        <ele>447.30</ele>
        <time>2022-10-26T10:44:32Z</time>
      </trkpt>
      <trkpt lat="10.259861" lon="-67.804150">
        <ele>447.30</ele>
        <time>2022-10-26T10:44:33Z</time>
      </trkpt>
      <trkpt lat="10.259872" lon="-67.804086">
        <ele>447.30</ele>
        <time>2022-10-26T10:44:34Z</time>
      </trkpt>
      <trkpt lat="10.259884" lon="-67.804018">
        <ele>447.30</ele>
        <time>2022-10-26T10:44:35Z</time>
      </trkpt>
      <trkpt lat="10.259897" lon="-67.803953">
        <ele>447.30</ele>
        <time>2022-10-26T10:44:36Z</time>
      </trkpt>
      <trkpt lat="10.259908" lon="-67.803889">
        <ele>447.30</ele>
        <time>2022-10-26T10:44:37Z</time>
      </trkpt>
      <trkpt lat="10.259920" lon="-67.803826">
        <ele>447.30</ele>
        <time>2022-10-26T10:44:38Z</time>
      </trkpt>
      <trkpt lat="10.259931" lon="-67.803761">
        <ele>447.30</ele>
        <time>2022-10-26T10:44:39Z</time>
      </trkpt>
      <trkpt lat="10.259940" lon="-67.803697">
        <ele>447.30</ele>
        <time>2022-10-26T10:44:40Z</time>
      </trkpt>
      <trkpt lat="10.259943" lon="-67.803627">
        <ele>447.30</ele>
        <time>2022-10-26T10:44:41Z</time>
      </trkpt>
      <trkpt lat="10.259950" lon="-67.803556">
        <ele>447.30</ele>
        <time>2022-10-26T10:44:42Z</time>
      </trkpt>
      <trkpt lat="10.259961" lon="-67.803488">
        <ele>447.30</ele>
        <time>2022-10-26T10:44:43Z</time>
      </trkpt>
      <trkpt lat="10.259976" lon="-67.803418">
        <ele>447.30</ele>
        <time>2022-10-26T10:44:44Z</time>
      </trkpt>
      <trkpt lat="10.259992" lon="-67.803348">
        <ele>447.30</ele>
        <time>2022-10-26T10:44:45Z</time>
      </trkpt>
      <trkpt lat="10.260003" lon="-67.803278">
        <ele>447.30</ele>
        <time>2022-10-26T10:44:46Z</time>
      </trkpt>
      <trkpt lat="10.260015" lon="-67.803210">
        <ele>447.30</ele>
        <time>2022-10-26T10:44:47Z</time>
      </trkpt>
      <trkpt lat="10.260027" lon="-67.803143">
        <ele>447.30</ele>
        <time>2022-10-26T10:44:48Z</time>
      </trkpt>
      <trkpt lat="10.260037" lon="-67.803079">
        <ele>447.30</ele>
        <time>2022-10-26T10:44:49Z</time>
      </trkpt>
      <trkpt lat="10.260050" lon="-67.803013">
        <ele>447.30</ele>
        <time>2022-10-26T10:44:50Z</time>
      </trkpt>
      <trkpt lat="10.260062" lon="-67.802946">
        <ele>447.30</ele>
        <time>2022-10-26T10:44:51Z</time>
      </trkpt>
      <trkpt lat="10.260075" lon="-67.802879">
        <ele>447.30</ele>
        <time>2022-10-26T10:44:52Z</time>
      </trkpt>
      <trkpt lat="10.260087" lon="-67.802813">
        <ele>447.30</ele>
        <time>2022-10-26T10:44:53Z</time>
      </trkpt>
      <trkpt lat="10.260100" lon="-67.802745">
        <ele>447.20</ele>
        <time>2022-10-26T10:44:54Z</time>
      </trkpt>
      <trkpt lat="10.260114" lon="-67.802682">
        <ele>447.20</ele>
        <time>2022-10-26T10:44:55Z</time>
      </trkpt>
      <trkpt lat="10.260130" lon="-67.802617">
        <ele>447.20</ele>
        <time>2022-10-26T10:44:56Z</time>
      </trkpt>
      <trkpt lat="10.260147" lon="-67.802550">
        <ele>447.20</ele>
        <time>2022-10-26T10:44:57Z</time>
      </trkpt>
      <trkpt lat="10.260164" lon="-67.802481">
        <ele>447.30</ele>
        <time>2022-10-26T10:44:58Z</time>
      </trkpt>
      <trkpt lat="10.260177" lon="-67.802415">
        <ele>447.30</ele>
        <time>2022-10-26T10:44:59Z</time>
      </trkpt>
      <trkpt lat="10.260189" lon="-67.802347">
        <ele>447.20</ele>
        <time>2022-10-26T10:45:00Z</time>
      </trkpt>
      <trkpt lat="10.260201" lon="-67.802280">
        <ele>447.20</ele>
        <time>2022-10-26T10:45:01Z</time>
      </trkpt>
      <trkpt lat="10.260215" lon="-67.802210">
        <ele>447.20</ele>
        <time>2022-10-26T10:45:02Z</time>
      </trkpt>
      <trkpt lat="10.260230" lon="-67.802138">
        <ele>447.20</ele>
        <time>2022-10-26T10:45:03Z</time>
      </trkpt>
      <trkpt lat="10.260248" lon="-67.802068">
        <ele>447.20</ele>
        <time>2022-10-26T10:45:04Z</time>
      </trkpt>
      <trkpt lat="10.260268" lon="-67.801997">
        <ele>447.20</ele>
        <time>2022-10-26T10:45:05Z</time>
      </trkpt>
      <trkpt lat="10.260284" lon="-67.801927">
        <ele>447.20</ele>
        <time>2022-10-26T10:45:06Z</time>
      </trkpt>
      <trkpt lat="10.260298" lon="-67.801853">
        <ele>447.20</ele>
        <time>2022-10-26T10:45:07Z</time>
      </trkpt>
      <trkpt lat="10.260310" lon="-67.801777">
        <ele>447.10</ele>
        <time>2022-10-26T10:45:08Z</time>
      </trkpt>
      <trkpt lat="10.260322" lon="-67.801702">
        <ele>447.10</ele>
        <time>2022-10-26T10:45:09Z</time>
      </trkpt>
      <trkpt lat="10.260333" lon="-67.801629">
        <ele>447.10</ele>
        <time>2022-10-26T10:45:10Z</time>
      </trkpt>
      <trkpt lat="10.260343" lon="-67.801566">
        <ele>447.10</ele>
        <time>2022-10-26T10:45:11Z</time>
      </trkpt>
      <trkpt lat="10.260353" lon="-67.801503">
        <ele>447.00</ele>
        <time>2022-10-26T10:45:12Z</time>
      </trkpt>
      <trkpt lat="10.260367" lon="-67.801439">
        <ele>447.00</ele>
        <time>2022-10-26T10:45:13Z</time>
      </trkpt>
      <trkpt lat="10.260382" lon="-67.801371">
        <ele>446.90</ele>
        <time>2022-10-26T10:45:14Z</time>
      </trkpt>
      <trkpt lat="10.260394" lon="-67.801301">
        <ele>446.90</ele>
        <time>2022-10-26T10:45:15Z</time>
      </trkpt>
      <trkpt lat="10.260404" lon="-67.801225">
        <ele>446.80</ele>
        <time>2022-10-26T10:45:16Z</time>
      </trkpt>
      <trkpt lat="10.260414" lon="-67.801154">
        <ele>446.80</ele>
        <time>2022-10-26T10:45:17Z</time>
      </trkpt>
      <trkpt lat="10.260429" lon="-67.801081">
        <ele>446.80</ele>
        <time>2022-10-26T10:45:18Z</time>
      </trkpt>
      <trkpt lat="10.260443" lon="-67.801011">
        <ele>446.70</ele>
        <time>2022-10-26T10:45:19Z</time>
      </trkpt>
      <trkpt lat="10.260456" lon="-67.800941">
        <ele>446.70</ele>
        <time>2022-10-26T10:45:20Z</time>
      </trkpt>
      <trkpt lat="10.260468" lon="-67.800877">
        <ele>446.70</ele>
        <time>2022-10-26T10:45:21Z</time>
      </trkpt>
      <trkpt lat="10.260479" lon="-67.800809">
        <ele>446.60</ele>
        <time>2022-10-26T10:45:22Z</time>
      </trkpt>
      <trkpt lat="10.260489" lon="-67.800743">
        <ele>446.60</ele>
        <time>2022-10-26T10:45:23Z</time>
      </trkpt>
      <trkpt lat="10.260502" lon="-67.800676">
        <ele>446.60</ele>
        <time>2022-10-26T10:45:24Z</time>
      </trkpt>
      <trkpt lat="10.260512" lon="-67.800611">
        <ele>446.50</ele>
        <time>2022-10-26T10:45:25Z</time>
      </trkpt>
      <trkpt lat="10.260523" lon="-67.800543">
        <ele>446.50</ele>
        <time>2022-10-26T10:45:26Z</time>
      </trkpt>
      <trkpt lat="10.260533" lon="-67.800477">
        <ele>446.50</ele>
        <time>2022-10-26T10:45:27Z</time>
      </trkpt>
      <trkpt lat="10.260541" lon="-67.800409">
        <ele>446.40</ele>
        <time>2022-10-26T10:45:28Z</time>
      </trkpt>
      <trkpt lat="10.260550" lon="-67.800343">
        <ele>446.40</ele>
        <time>2022-10-26T10:45:29Z</time>
      </trkpt>
      <trkpt lat="10.260561" lon="-67.800271">
        <ele>446.40</ele>
        <time>2022-10-26T10:45:30Z</time>
      </trkpt>
      <trkpt lat="10.260574" lon="-67.800198">
        <ele>446.30</ele>
        <time>2022-10-26T10:45:31Z</time>
      </trkpt>
      <trkpt lat="10.260587" lon="-67.800125">
        <ele>446.30</ele>
        <time>2022-10-26T10:45:32Z</time>
      </trkpt>
      <trkpt lat="10.260601" lon="-67.800055">
        <ele>446.30</ele>
        <time>2022-10-26T10:45:33Z</time>
      </trkpt>
      <trkpt lat="10.260616" lon="-67.799985">
        <ele>446.20</ele>
        <time>2022-10-26T10:45:34Z</time>
      </trkpt>
      <trkpt lat="10.260627" lon="-67.799915">
        <ele>446.20</ele>
        <time>2022-10-26T10:45:35Z</time>
      </trkpt>
      <trkpt lat="10.260636" lon="-67.799844">
        <ele>446.20</ele>
        <time>2022-10-26T10:45:36Z</time>
      </trkpt>
      <trkpt lat="10.260648" lon="-67.799771">
        <ele>446.20</ele>
        <time>2022-10-26T10:45:37Z</time>
      </trkpt>
      <trkpt lat="10.260662" lon="-67.799695">
        <ele>446.20</ele>
        <time>2022-10-26T10:45:38Z</time>
      </trkpt>
      <trkpt lat="10.260676" lon="-67.799624">
        <ele>446.20</ele>
        <time>2022-10-26T10:45:39Z</time>
      </trkpt>
      <trkpt lat="10.260690" lon="-67.799548">
        <ele>446.10</ele>
        <time>2022-10-26T10:45:40Z</time>
      </trkpt>
      <trkpt lat="10.260703" lon="-67.799473">
        <ele>446.10</ele>
        <time>2022-10-26T10:45:41Z</time>
      </trkpt>
      <trkpt lat="10.260715" lon="-67.799399">
        <ele>446.00</ele>
        <time>2022-10-26T10:45:42Z</time>
      </trkpt>
      <trkpt lat="10.260729" lon="-67.799326">
        <ele>446.00</ele>
        <time>2022-10-26T10:45:43Z</time>
      </trkpt>
      <trkpt lat="10.260742" lon="-67.799251">
        <ele>445.90</ele>
        <time>2022-10-26T10:45:44Z</time>
      </trkpt>
      <trkpt lat="10.260754" lon="-67.799172">
        <ele>445.90</ele>
        <time>2022-10-26T10:45:45Z</time>
      </trkpt>
      <trkpt lat="10.260768" lon="-67.799093">
        <ele>445.90</ele>
        <time>2022-10-26T10:45:46Z</time>
      </trkpt>
      <trkpt lat="10.260786" lon="-67.799014">
        <ele>445.80</ele>
        <time>2022-10-26T10:45:47Z</time>
      </trkpt>
      <trkpt lat="10.260801" lon="-67.798935">
        <ele>445.80</ele>
        <time>2022-10-26T10:45:48Z</time>
      </trkpt>
      <trkpt lat="10.260814" lon="-67.798856">
        <ele>445.70</ele>
        <time>2022-10-26T10:45:49Z</time>
      </trkpt>
      <trkpt lat="10.260827" lon="-67.798776">
        <ele>445.60</ele>
        <time>2022-10-26T10:45:50Z</time>
      </trkpt>
      <trkpt lat="10.260841" lon="-67.798696">
        <ele>445.60</ele>
        <time>2022-10-26T10:45:51Z</time>
      </trkpt>
      <trkpt lat="10.260856" lon="-67.798616">
        <ele>445.50</ele>
        <time>2022-10-26T10:45:52Z</time>
      </trkpt>
      <trkpt lat="10.260872" lon="-67.798537">
        <ele>445.50</ele>
        <time>2022-10-26T10:45:53Z</time>
      </trkpt>
      <trkpt lat="10.260887" lon="-67.798455">
        <ele>445.40</ele>
        <time>2022-10-26T10:45:54Z</time>
      </trkpt>
      <trkpt lat="10.260898" lon="-67.798370">
        <ele>445.40</ele>
        <time>2022-10-26T10:45:55Z</time>
      </trkpt>
      <trkpt lat="10.260912" lon="-67.798284">
        <ele>445.30</ele>
        <time>2022-10-26T10:45:56Z</time>
      </trkpt>
      <trkpt lat="10.260924" lon="-67.798202">
        <ele>445.20</ele>
        <time>2022-10-26T10:45:57Z</time>
      </trkpt>
      <trkpt lat="10.260935" lon="-67.798120">
        <ele>445.20</ele>
        <time>2022-10-26T10:45:58Z</time>
      </trkpt>
      <trkpt lat="10.260940" lon="-67.798041">
        <ele>445.10</ele>
        <time>2022-10-26T10:45:59Z</time>
      </trkpt>
      <trkpt lat="10.260948" lon="-67.797962">
        <ele>445.10</ele>
        <time>2022-10-26T10:46:00Z</time>
      </trkpt>
      <trkpt lat="10.260959" lon="-67.797890">
        <ele>445.00</ele>
        <time>2022-10-26T10:46:01Z</time>
      </trkpt>
      <trkpt lat="10.260976" lon="-67.797818">
        <ele>445.00</ele>
        <time>2022-10-26T10:46:02Z</time>
      </trkpt>
      <trkpt lat="10.260994" lon="-67.797746">
        <ele>445.00</ele>
        <time>2022-10-26T10:46:03Z</time>
      </trkpt>
      <trkpt lat="10.261013" lon="-67.797671">
        <ele>444.90</ele>
        <time>2022-10-26T10:46:04Z</time>
      </trkpt>
      <trkpt lat="10.261030" lon="-67.797595">
        <ele>444.90</ele>
        <time>2022-10-26T10:46:05Z</time>
      </trkpt>
      <trkpt lat="10.261049" lon="-67.797520">
        <ele>444.80</ele>
        <time>2022-10-26T10:46:06Z</time>
      </trkpt>
      <trkpt lat="10.261068" lon="-67.797443">
        <ele>444.70</ele>
        <time>2022-10-26T10:46:07Z</time>
      </trkpt>
      <trkpt lat="10.261087" lon="-67.797362">
        <ele>444.70</ele>
        <time>2022-10-26T10:46:08Z</time>
      </trkpt>
      <trkpt lat="10.261106" lon="-67.797284">
        <ele>444.60</ele>
        <time>2022-10-26T10:46:09Z</time>
      </trkpt>
      <trkpt lat="10.261127" lon="-67.797204">
        <ele>444.60</ele>
        <time>2022-10-26T10:46:10Z</time>
      </trkpt>
      <trkpt lat="10.261147" lon="-67.797127">
        <ele>444.60</ele>
        <time>2022-10-26T10:46:11Z</time>
      </trkpt>
      <trkpt lat="10.261166" lon="-67.797048">
        <ele>444.50</ele>
        <time>2022-10-26T10:46:12Z</time>
      </trkpt>
      <trkpt lat="10.261182" lon="-67.796963">
        <ele>444.50</ele>
        <time>2022-10-26T10:46:13Z</time>
      </trkpt>
      <trkpt lat="10.261197" lon="-67.796877">
        <ele>444.40</ele>
        <time>2022-10-26T10:46:14Z</time>
      </trkpt>
      <trkpt lat="10.261211" lon="-67.796793">
        <ele>444.40</ele>
        <time>2022-10-26T10:46:15Z</time>
      </trkpt>
      <trkpt lat="10.261225" lon="-67.796706">
        <ele>444.40</ele>
        <time>2022-10-26T10:46:16Z</time>
      </trkpt>
      <trkpt lat="10.261239" lon="-67.796617">
        <ele>444.30</ele>
        <time>2022-10-26T10:46:17Z</time>
      </trkpt>
      <trkpt lat="10.261250" lon="-67.796528">
        <ele>444.30</ele>
        <time>2022-10-26T10:46:18Z</time>
      </trkpt>
      <trkpt lat="10.261259" lon="-67.796442">
        <ele>444.30</ele>
        <time>2022-10-26T10:46:19Z</time>
      </trkpt>
      <trkpt lat="10.261272" lon="-67.796357">
        <ele>444.20</ele>
        <time>2022-10-26T10:46:20Z</time>
      </trkpt>
      <trkpt lat="10.261285" lon="-67.796274">
        <ele>444.20</ele>
        <time>2022-10-26T10:46:21Z</time>
      </trkpt>
      <trkpt lat="10.261299" lon="-67.796191">
        <ele>444.20</ele>
        <time>2022-10-26T10:46:22Z</time>
      </trkpt>
      <trkpt lat="10.261313" lon="-67.796109">
        <ele>444.10</ele>
        <time>2022-10-26T10:46:23Z</time>
      </trkpt>
      <trkpt lat="10.261326" lon="-67.796028">
        <ele>444.10</ele>
        <time>2022-10-26T10:46:24Z</time>
      </trkpt>
      <trkpt lat="10.261340" lon="-67.795950">
        <ele>444.10</ele>
        <time>2022-10-26T10:46:25Z</time>
      </trkpt>
      <trkpt lat="10.261354" lon="-67.795872">
        <ele>444.00</ele>
        <time>2022-10-26T10:46:26Z</time>
      </trkpt>
      <trkpt lat="10.261370" lon="-67.795799">
        <ele>444.00</ele>
        <time>2022-10-26T10:46:27Z</time>
      </trkpt>
      <trkpt lat="10.261388" lon="-67.795723">
        <ele>444.00</ele>
        <time>2022-10-26T10:46:28Z</time>
      </trkpt>
      <trkpt lat="10.261402" lon="-67.795645">
        <ele>444.00</ele>
        <time>2022-10-26T10:46:29Z</time>
      </trkpt>
      <trkpt lat="10.261416" lon="-67.795567">
        <ele>444.00</ele>
        <time>2022-10-26T10:46:30Z</time>
      </trkpt>
      <trkpt lat="10.261429" lon="-67.795494">
        <ele>444.00</ele>
        <time>2022-10-26T10:46:31Z</time>
      </trkpt>
      <trkpt lat="10.261442" lon="-67.795419">
        <ele>444.00</ele>
        <time>2022-10-26T10:46:32Z</time>
      </trkpt>
      <trkpt lat="10.261456" lon="-67.795349">
        <ele>444.10</ele>
        <time>2022-10-26T10:46:33Z</time>
      </trkpt>
      <trkpt lat="10.261471" lon="-67.795281">
        <ele>444.10</ele>
        <time>2022-10-26T10:46:34Z</time>
      </trkpt>
      <trkpt lat="10.261486" lon="-67.795215">
        <ele>444.10</ele>
        <time>2022-10-26T10:46:35Z</time>
      </trkpt>
      <trkpt lat="10.261499" lon="-67.795149">
        <ele>444.20</ele>
        <time>2022-10-26T10:46:36Z</time>
      </trkpt>
      <trkpt lat="10.261515" lon="-67.795085">
        <ele>444.20</ele>
        <time>2022-10-26T10:46:37Z</time>
      </trkpt>
      <trkpt lat="10.261533" lon="-67.795023">
        <ele>444.30</ele>
        <time>2022-10-26T10:46:38Z</time>
      </trkpt>
      <trkpt lat="10.261549" lon="-67.794961">
        <ele>444.30</ele>
        <time>2022-10-26T10:46:39Z</time>
      </trkpt>
      <trkpt lat="10.261564" lon="-67.794897">
        <ele>444.40</ele>
        <time>2022-10-26T10:46:40Z</time>
      </trkpt>
      <trkpt lat="10.261578" lon="-67.794835">
        <ele>444.40</ele>
        <time>2022-10-26T10:46:41Z</time>
      </trkpt>
      <trkpt lat="10.261593" lon="-67.794776">
        <ele>444.50</ele>
        <time>2022-10-26T10:46:42Z</time>
      </trkpt>
      <trkpt lat="10.261607" lon="-67.794715">
        <ele>444.50</ele>
        <time>2022-10-26T10:46:43Z</time>
      </trkpt>
      <trkpt lat="10.261621" lon="-67.794656">
        <ele>444.60</ele>
        <time>2022-10-26T10:46:44Z</time>
      </trkpt>
      <trkpt lat="10.261634" lon="-67.794594">
        <ele>444.60</ele>
        <time>2022-10-26T10:46:45Z</time>
      </trkpt>
      <trkpt lat="10.261646" lon="-67.794533">
        <ele>444.70</ele>
        <time>2022-10-26T10:46:46Z</time>
      </trkpt>
      <trkpt lat="10.261660" lon="-67.794475">
        <ele>444.70</ele>
        <time>2022-10-26T10:46:47Z</time>
      </trkpt>
      <trkpt lat="10.261677" lon="-67.794414">
        <ele>444.80</ele>
        <time>2022-10-26T10:46:48Z</time>
      </trkpt>
      <trkpt lat="10.261692" lon="-67.794352">
        <ele>444.80</ele>
        <time>2022-10-26T10:46:49Z</time>
      </trkpt>
      <trkpt lat="10.261705" lon="-67.794288">
        <ele>444.90</ele>
        <time>2022-10-26T10:46:50Z</time>
      </trkpt>
      <trkpt lat="10.261719" lon="-67.794222">
        <ele>445.00</ele>
        <time>2022-10-26T10:46:51Z</time>
      </trkpt>
      <trkpt lat="10.261734" lon="-67.794160">
        <ele>445.00</ele>
        <time>2022-10-26T10:46:52Z</time>
      </trkpt>
      <trkpt lat="10.261748" lon="-67.794096">
        <ele>445.10</ele>
        <time>2022-10-26T10:46:53Z</time>
      </trkpt>
      <trkpt lat="10.261763" lon="-67.794033">
        <ele>445.20</ele>
        <time>2022-10-26T10:46:54Z</time>
      </trkpt>
      <trkpt lat="10.261777" lon="-67.793972">
        <ele>445.20</ele>
        <time>2022-10-26T10:46:55Z</time>
      </trkpt>
      <trkpt lat="10.261791" lon="-67.793909">
        <ele>445.30</ele>
        <time>2022-10-26T10:46:56Z</time>
      </trkpt>
      <trkpt lat="10.261806" lon="-67.793846">
        <ele>445.40</ele>
        <time>2022-10-26T10:46:57Z</time>
      </trkpt>
      <trkpt lat="10.261818" lon="-67.793784">
        <ele>445.40</ele>
        <time>2022-10-26T10:46:58Z</time>
      </trkpt>
      <trkpt lat="10.261832" lon="-67.793721">
        <ele>445.50</ele>
        <time>2022-10-26T10:46:59Z</time>
      </trkpt>
      <trkpt lat="10.261841" lon="-67.793658">
        <ele>445.50</ele>
        <time>2022-10-26T10:47:00Z</time>
      </trkpt>
      <trkpt lat="10.261850" lon="-67.793596">
        <ele>445.60</ele>
        <time>2022-10-26T10:47:01Z</time>
      </trkpt>
      <trkpt lat="10.261861" lon="-67.793538">
        <ele>445.70</ele>
        <time>2022-10-26T10:47:02Z</time>
      </trkpt>
      <trkpt lat="10.261872" lon="-67.793483">
        <ele>445.70</ele>
        <time>2022-10-26T10:47:03Z</time>
      </trkpt>
      <trkpt lat="10.261881" lon="-67.793428">
        <ele>445.80</ele>
        <time>2022-10-26T10:47:04Z</time>
      </trkpt>
      <trkpt lat="10.261892" lon="-67.793373">
        <ele>445.80</ele>
        <time>2022-10-26T10:47:05Z</time>
      </trkpt>
      <trkpt lat="10.261904" lon="-67.793322">
        <ele>445.90</ele>
        <time>2022-10-26T10:47:06Z</time>
      </trkpt>
      <trkpt lat="10.261916" lon="-67.793268">
        <ele>445.90</ele>
        <time>2022-10-26T10:47:07Z</time>
      </trkpt>
      <trkpt lat="10.261928" lon="-67.793212">
        <ele>446.00</ele>
        <time>2022-10-26T10:47:08Z</time>
      </trkpt>
      <trkpt lat="10.261939" lon="-67.793154">
        <ele>446.00</ele>
        <time>2022-10-26T10:47:09Z</time>
      </trkpt>
      <trkpt lat="10.261946" lon="-67.793096">
        <ele>446.00</ele>
        <time>2022-10-26T10:47:10Z</time>
      </trkpt>
      <trkpt lat="10.261951" lon="-67.793035">
        <ele>446.10</ele>
        <time>2022-10-26T10:47:11Z</time>
      </trkpt>
      <trkpt lat="10.261958" lon="-67.792977">
        <ele>446.10</ele>
        <time>2022-10-26T10:47:12Z</time>
      </trkpt>
      <trkpt lat="10.261965" lon="-67.792921">
        <ele>446.20</ele>
        <time>2022-10-26T10:47:13Z</time>
      </trkpt>
      <trkpt lat="10.261972" lon="-67.792866">
        <ele>446.20</ele>
        <time>2022-10-26T10:47:14Z</time>
      </trkpt>
      <trkpt lat="10.261980" lon="-67.792812">
        <ele>446.20</ele>
        <time>2022-10-26T10:47:15Z</time>
      </trkpt>
      <trkpt lat="10.261991" lon="-67.792758">
        <ele>446.30</ele>
        <time>2022-10-26T10:47:16Z</time>
      </trkpt>
      <trkpt lat="10.262005" lon="-67.792708">
        <ele>446.30</ele>
        <time>2022-10-26T10:47:17Z</time>
      </trkpt>
      <trkpt lat="10.262019" lon="-67.792657">
        <ele>446.40</ele>
        <time>2022-10-26T10:47:18Z</time>
      </trkpt>
      <trkpt lat="10.262031" lon="-67.792610">
        <ele>446.40</ele>
        <time>2022-10-26T10:47:19Z</time>
      </trkpt>
      <trkpt lat="10.262043" lon="-67.792559">
        <ele>446.50</ele>
        <time>2022-10-26T10:47:20Z</time>
      </trkpt>
      <trkpt lat="10.262055" lon="-67.792507">
        <ele>446.50</ele>
        <time>2022-10-26T10:47:21Z</time>
      </trkpt>
      <trkpt lat="10.262068" lon="-67.792453">
        <ele>446.50</ele>
        <time>2022-10-26T10:47:22Z</time>
      </trkpt>
      <trkpt lat="10.262081" lon="-67.792401">
        <ele>446.50</ele>
        <time>2022-10-26T10:47:23Z</time>
      </trkpt>
      <trkpt lat="10.262093" lon="-67.792351">
        <ele>446.50</ele>
        <time>2022-10-26T10:47:24Z</time>
      </trkpt>
      <trkpt lat="10.262105" lon="-67.792303">
        <ele>446.60</ele>
        <time>2022-10-26T10:47:25Z</time>
      </trkpt>
      <trkpt lat="10.262120" lon="-67.792256">
        <ele>446.60</ele>
        <time>2022-10-26T10:47:26Z</time>
      </trkpt>
      <trkpt lat="10.262140" lon="-67.792203">
        <ele>446.60</ele>
        <time>2022-10-26T10:47:27Z</time>
      </trkpt>
      <trkpt lat="10.262155" lon="-67.792148">
        <ele>446.60</ele>
        <time>2022-10-26T10:47:28Z</time>
      </trkpt>
      <trkpt lat="10.262173" lon="-67.792093">
        <ele>446.70</ele>
        <time>2022-10-26T10:47:29Z</time>
      </trkpt>
      <trkpt lat="10.262186" lon="-67.792039">
        <ele>446.70</ele>
        <time>2022-10-26T10:47:30Z</time>
      </trkpt>
      <trkpt lat="10.262197" lon="-67.791986">
        <ele>446.70</ele>
        <time>2022-10-26T10:47:31Z</time>
      </trkpt>
      <trkpt lat="10.262204" lon="-67.791935">
        <ele>446.70</ele>
        <time>2022-10-26T10:47:32Z</time>
      </trkpt>
      <trkpt lat="10.262211" lon="-67.791884">
        <ele>446.70</ele>
        <time>2022-10-26T10:47:33Z</time>
      </trkpt>
      <trkpt lat="10.262214" lon="-67.791837">
        <ele>446.70</ele>
        <time>2022-10-26T10:47:34Z</time>
      </trkpt>
      <trkpt lat="10.262221" lon="-67.791793">
        <ele>446.70</ele>
        <time>2022-10-26T10:47:35Z</time>
      </trkpt>
      <trkpt lat="10.262235" lon="-67.791751">
        <ele>446.70</ele>
        <time>2022-10-26T10:47:36Z</time>
      </trkpt>
      <trkpt lat="10.262246" lon="-67.791711">
        <ele>446.70</ele>
        <time>2022-10-26T10:47:37Z</time>
      </trkpt>
      <trkpt lat="10.262255" lon="-67.791666">
        <ele>446.70</ele>
        <time>2022-10-26T10:47:38Z</time>
      </trkpt>
      <trkpt lat="10.262263" lon="-67.791617">
        <ele>446.70</ele>
        <time>2022-10-26T10:47:39Z</time>
      </trkpt>
      <trkpt lat="10.262270" lon="-67.791565">
        <ele>446.70</ele>
        <time>2022-10-26T10:47:40Z</time>
      </trkpt>
      <trkpt lat="10.262278" lon="-67.791514">
        <ele>446.70</ele>
        <time>2022-10-26T10:47:41Z</time>
      </trkpt>
      <trkpt lat="10.262288" lon="-67.791465">
        <ele>446.70</ele>
        <time>2022-10-26T10:47:42Z</time>
      </trkpt>
      <trkpt lat="10.262297" lon="-67.791407">
        <ele>446.70</ele>
        <time>2022-10-26T10:47:43Z</time>
      </trkpt>
      <trkpt lat="10.262306" lon="-67.791345">
        <ele>446.70</ele>
        <time>2022-10-26T10:47:44Z</time>
      </trkpt>
      <trkpt lat="10.262314" lon="-67.791283">
        <ele>446.70</ele>
        <time>2022-10-26T10:47:45Z</time>
      </trkpt>
      <trkpt lat="10.262322" lon="-67.791221">
        <ele>446.70</ele>
        <time>2022-10-26T10:47:46Z</time>
      </trkpt>
      <trkpt lat="10.262331" lon="-67.791160">
        <ele>446.60</ele>
        <time>2022-10-26T10:47:47Z</time>
      </trkpt>
      <trkpt lat="10.262340" lon="-67.791103">
        <ele>446.60</ele>
        <time>2022-10-26T10:47:48Z</time>
      </trkpt>
      <trkpt lat="10.262352" lon="-67.791047">
        <ele>446.50</ele>
        <time>2022-10-26T10:47:49Z</time>
      </trkpt>
      <trkpt lat="10.262364" lon="-67.790994">
        <ele>446.50</ele>
        <time>2022-10-26T10:47:50Z</time>
      </trkpt>
      <trkpt lat="10.262373" lon="-67.790943">
        <ele>446.40</ele>
        <time>2022-10-26T10:47:51Z</time>
      </trkpt>
      <trkpt lat="10.262380" lon="-67.790892">
        <ele>446.40</ele>
        <time>2022-10-26T10:47:52Z</time>
      </trkpt>
      <trkpt lat="10.262386" lon="-67.790838">
        <ele>446.40</ele>
        <time>2022-10-26T10:47:53Z</time>
      </trkpt>
      <trkpt lat="10.262391" lon="-67.790781">
        <ele>446.30</ele>
        <time>2022-10-26T10:47:54Z</time>
      </trkpt>
      <trkpt lat="10.262398" lon="-67.790723">
        <ele>446.30</ele>
        <time>2022-10-26T10:47:55Z</time>
      </trkpt>
      <trkpt lat="10.262399" lon="-67.790660">
        <ele>446.30</ele>
        <time>2022-10-26T10:47:56Z</time>
      </trkpt>
      <trkpt lat="10.262403" lon="-67.790599">
        <ele>446.30</ele>
        <time>2022-10-26T10:47:57Z</time>
      </trkpt>
      <trkpt lat="10.262412" lon="-67.790537">
        <ele>446.30</ele>
        <time>2022-10-26T10:47:58Z</time>
      </trkpt>
      <trkpt lat="10.262424" lon="-67.790476">
        <ele>446.20</ele>
        <time>2022-10-26T10:47:59Z</time>
      </trkpt>
      <trkpt lat="10.262434" lon="-67.790411">
        <ele>446.20</ele>
        <time>2022-10-26T10:48:00Z</time>
      </trkpt>
      <trkpt lat="10.262446" lon="-67.790343">
        <ele>446.20</ele>
        <time>2022-10-26T10:48:01Z</time>
      </trkpt>
      <trkpt lat="10.262461" lon="-67.790280">
        <ele>446.10</ele>
        <time>2022-10-26T10:48:02Z</time>
      </trkpt>
      <trkpt lat="10.262479" lon="-67.790213">
        <ele>446.10</ele>
        <time>2022-10-26T10:48:03Z</time>
      </trkpt>
      <trkpt lat="10.262493" lon="-67.790144">
        <ele>446.00</ele>
        <time>2022-10-26T10:48:04Z</time>
      </trkpt>
      <trkpt lat="10.262504" lon="-67.790074">
        <ele>446.00</ele>
        <time>2022-10-26T10:48:05Z</time>
      </trkpt>
      <trkpt lat="10.262516" lon="-67.790010">
        <ele>445.90</ele>
        <time>2022-10-26T10:48:06Z</time>
      </trkpt>
      <trkpt lat="10.262530" lon="-67.789947">
        <ele>445.90</ele>
        <time>2022-10-26T10:48:07Z</time>
      </trkpt>
      <trkpt lat="10.262547" lon="-67.789880">
        <ele>445.80</ele>
        <time>2022-10-26T10:48:08Z</time>
      </trkpt>
      <trkpt lat="10.262567" lon="-67.789812">
        <ele>445.80</ele>
        <time>2022-10-26T10:48:09Z</time>
      </trkpt>
      <trkpt lat="10.262586" lon="-67.789740">
        <ele>445.80</ele>
        <time>2022-10-26T10:48:10Z</time>
      </trkpt>
      <trkpt lat="10.262604" lon="-67.789674">
        <ele>445.70</ele>
        <time>2022-10-26T10:48:11Z</time>
      </trkpt>
      <trkpt lat="10.262631" lon="-67.789602">
        <ele>445.70</ele>
        <time>2022-10-26T10:48:12Z</time>
      </trkpt>
      <trkpt lat="10.262661" lon="-67.789537">
        <ele>445.70</ele>
        <time>2022-10-26T10:48:13Z</time>
      </trkpt>
      <trkpt lat="10.262688" lon="-67.789474">
        <ele>445.70</ele>
        <time>2022-10-26T10:48:14Z</time>
      </trkpt>
      <trkpt lat="10.262712" lon="-67.789412">
        <ele>445.70</ele>
        <time>2022-10-26T10:48:15Z</time>
      </trkpt>
      <trkpt lat="10.262732" lon="-67.789354">
        <ele>445.70</ele>
        <time>2022-10-26T10:48:16Z</time>
      </trkpt>
      <trkpt lat="10.262751" lon="-67.789296">
        <ele>445.70</ele>
        <time>2022-10-26T10:48:17Z</time>
      </trkpt>
      <trkpt lat="10.262772" lon="-67.789238">
        <ele>445.60</ele>
        <time>2022-10-26T10:48:18Z</time>
      </trkpt>
      <trkpt lat="10.262797" lon="-67.789181">
        <ele>445.60</ele>
        <time>2022-10-26T10:48:19Z</time>
      </trkpt>
      <trkpt lat="10.262817" lon="-67.789118">
        <ele>445.60</ele>
        <time>2022-10-26T10:48:20Z</time>
      </trkpt>
      <trkpt lat="10.262841" lon="-67.789054">
        <ele>445.50</ele>
        <time>2022-10-26T10:48:21Z</time>
      </trkpt>
      <trkpt lat="10.262864" lon="-67.788993">
        <ele>445.50</ele>
        <time>2022-10-26T10:48:22Z</time>
      </trkpt>
      <trkpt lat="10.262881" lon="-67.788931">
        <ele>445.40</ele>
        <time>2022-10-26T10:48:23Z</time>
      </trkpt>
      <trkpt lat="10.262901" lon="-67.788869">
        <ele>445.40</ele>
        <time>2022-10-26T10:48:24Z</time>
      </trkpt>
      <trkpt lat="10.262926" lon="-67.788802">
        <ele>445.30</ele>
        <time>2022-10-26T10:48:25Z</time>
      </trkpt>
      <trkpt lat="10.262953" lon="-67.788732">
        <ele>445.30</ele>
        <time>2022-10-26T10:48:26Z</time>
      </trkpt>
      <trkpt lat="10.262982" lon="-67.788659">
        <ele>445.20</ele>
        <time>2022-10-26T10:48:27Z</time>
      </trkpt>
      <trkpt lat="10.263018" lon="-67.788590">
        <ele>445.10</ele>
        <time>2022-10-26T10:48:28Z</time>
      </trkpt>
      <trkpt lat="10.263055" lon="-67.788520">
        <ele>445.10</ele>
        <time>2022-10-26T10:48:29Z</time>
      </trkpt>
      <trkpt lat="10.263094" lon="-67.788448">
        <ele>445.00</ele>
        <time>2022-10-26T10:48:30Z</time>
      </trkpt>
      <trkpt lat="10.263134" lon="-67.788374">
        <ele>444.90</ele>
        <time>2022-10-26T10:48:31Z</time>
      </trkpt>
      <trkpt lat="10.263178" lon="-67.788301">
        <ele>444.80</ele>
        <time>2022-10-26T10:48:32Z</time>
      </trkpt>
      <trkpt lat="10.263226" lon="-67.788229">
        <ele>444.70</ele>
        <time>2022-10-26T10:48:33Z</time>
      </trkpt>
      <trkpt lat="10.263274" lon="-67.788149">
        <ele>444.60</ele>
        <time>2022-10-26T10:48:34Z</time>
      </trkpt>
      <trkpt lat="10.263319" lon="-67.788073">
        <ele>444.50</ele>
        <time>2022-10-26T10:48:35Z</time>
      </trkpt>
      <trkpt lat="10.263363" lon="-67.788001">
        <ele>444.40</ele>
        <time>2022-10-26T10:48:36Z</time>
      </trkpt>
      <trkpt lat="10.263406" lon="-67.787928">
        <ele>444.30</ele>
        <time>2022-10-26T10:48:37Z</time>
      </trkpt>
      <trkpt lat="10.263447" lon="-67.787853">
        <ele>444.30</ele>
        <time>2022-10-26T10:48:38Z</time>
      </trkpt>
      <trkpt lat="10.263483" lon="-67.787781">
        <ele>444.20</ele>
        <time>2022-10-26T10:48:39Z</time>
      </trkpt>
      <trkpt lat="10.263517" lon="-67.787710">
        <ele>444.10</ele>
        <time>2022-10-26T10:48:40Z</time>
      </trkpt>
      <trkpt lat="10.263548" lon="-67.787638">
        <ele>444.00</ele>
        <time>2022-10-26T10:48:41Z</time>
      </trkpt>
      <trkpt lat="10.263581" lon="-67.787568">
        <ele>444.00</ele>
        <time>2022-10-26T10:48:42Z</time>
      </trkpt>
      <trkpt lat="10.263614" lon="-67.787500">
        <ele>443.90</ele>
        <time>2022-10-26T10:48:43Z</time>
      </trkpt>
      <trkpt lat="10.263652" lon="-67.787435">
        <ele>443.80</ele>
        <time>2022-10-26T10:48:44Z</time>
      </trkpt>
      <trkpt lat="10.263692" lon="-67.787373">
        <ele>443.80</ele>
        <time>2022-10-26T10:48:45Z</time>
      </trkpt>
      <trkpt lat="10.263733" lon="-67.787317">
        <ele>443.70</ele>
        <time>2022-10-26T10:48:46Z</time>
      </trkpt>
      <trkpt lat="10.263776" lon="-67.787263">
        <ele>443.60</ele>
        <time>2022-10-26T10:48:47Z</time>
      </trkpt>
      <trkpt lat="10.263822" lon="-67.787208">
        <ele>443.50</ele>
        <time>2022-10-26T10:48:48Z</time>
      </trkpt>
      <trkpt lat="10.263870" lon="-67.787152">
        <ele>443.40</ele>
        <time>2022-10-26T10:48:49Z</time>
      </trkpt>
      <trkpt lat="10.263918" lon="-67.787096">
        <ele>443.30</ele>
        <time>2022-10-26T10:48:50Z</time>
      </trkpt>
      <trkpt lat="10.263968" lon="-67.787038">
        <ele>443.20</ele>
        <time>2022-10-26T10:48:51Z</time>
      </trkpt>
      <trkpt lat="10.264017" lon="-67.786976">
        <ele>443.10</ele>
        <time>2022-10-26T10:48:52Z</time>
      </trkpt>
      <trkpt lat="10.264069" lon="-67.786914">
        <ele>443.10</ele>
        <time>2022-10-26T10:48:53Z</time>
      </trkpt>
      <trkpt lat="10.264120" lon="-67.786849">
        <ele>443.00</ele>
        <time>2022-10-26T10:48:54Z</time>
      </trkpt>
      <trkpt lat="10.264171" lon="-67.786785">
        <ele>443.00</ele>
        <time>2022-10-26T10:48:55Z</time>
      </trkpt>
      <trkpt lat="10.264213" lon="-67.786711">
        <ele>443.00</ele>
        <time>2022-10-26T10:48:56Z</time>
      </trkpt>
      <trkpt lat="10.264262" lon="-67.786643">
        <ele>443.00</ele>
        <time>2022-10-26T10:48:57Z</time>
      </trkpt>
      <trkpt lat="10.264313" lon="-67.786579">
        <ele>442.90</ele>
        <time>2022-10-26T10:48:58Z</time>
      </trkpt>
      <trkpt lat="10.264360" lon="-67.786520">
        <ele>442.80</ele>
        <time>2022-10-26T10:48:59Z</time>
      </trkpt>
      <trkpt lat="10.264410" lon="-67.786460">
        <ele>442.80</ele>
        <time>2022-10-26T10:49:00Z</time>
      </trkpt>
      <trkpt lat="10.264463" lon="-67.786401">
        <ele>442.70</ele>
        <time>2022-10-26T10:49:01Z</time>
      </trkpt>
      <trkpt lat="10.264517" lon="-67.786338">
        <ele>442.60</ele>
        <time>2022-10-26T10:49:02Z</time>
      </trkpt>
      <trkpt lat="10.264573" lon="-67.786274">
        <ele>442.50</ele>
        <time>2022-10-26T10:49:03Z</time>
      </trkpt>
      <trkpt lat="10.264624" lon="-67.786208">
        <ele>442.40</ele>
        <time>2022-10-26T10:49:04Z</time>
      </trkpt>
      <trkpt lat="10.264678" lon="-67.786139">
        <ele>442.30</ele>
        <time>2022-10-26T10:49:05Z</time>
      </trkpt>
      <trkpt lat="10.264736" lon="-67.786066">
        <ele>442.30</ele>
        <time>2022-10-26T10:49:06Z</time>
      </trkpt>
      <trkpt lat="10.264793" lon="-67.785990">
        <ele>442.20</ele>
        <time>2022-10-26T10:49:07Z</time>
      </trkpt>
      <trkpt lat="10.264848" lon="-67.785916">
        <ele>442.10</ele>
        <time>2022-10-26T10:49:08Z</time>
      </trkpt>
      <trkpt lat="10.264903" lon="-67.785840">
        <ele>442.00</ele>
        <time>2022-10-26T10:49:09Z</time>
      </trkpt>
      <trkpt lat="10.264956" lon="-67.785762">
        <ele>441.90</ele>
        <time>2022-10-26T10:49:10Z</time>
      </trkpt>
      <trkpt lat="10.265008" lon="-67.785682">
        <ele>441.90</ele>
        <time>2022-10-26T10:49:11Z</time>
      </trkpt>
      <trkpt lat="10.265064" lon="-67.785602">
        <ele>441.80</ele>
        <time>2022-10-26T10:49:12Z</time>
      </trkpt>
      <trkpt lat="10.265119" lon="-67.785516">
        <ele>441.70</ele>
        <time>2022-10-26T10:49:13Z</time>
      </trkpt>
      <trkpt lat="10.265173" lon="-67.785426">
        <ele>441.60</ele>
        <time>2022-10-26T10:49:14Z</time>
      </trkpt>
      <trkpt lat="10.265232" lon="-67.785341">
        <ele>441.50</ele>
        <time>2022-10-26T10:49:15Z</time>
      </trkpt>
      <trkpt lat="10.265285" lon="-67.785271">
        <ele>441.40</ele>
        <time>2022-10-26T10:49:16Z</time>
      </trkpt>
      <trkpt lat="10.265339" lon="-67.785203">
        <ele>441.40</ele>
        <time>2022-10-26T10:49:17Z</time>
      </trkpt>
      <trkpt lat="10.265392" lon="-67.785135">
        <ele>441.30</ele>
        <time>2022-10-26T10:49:18Z</time>
      </trkpt>
      <trkpt lat="10.265448" lon="-67.785064">
        <ele>441.20</ele>
        <time>2022-10-26T10:49:19Z</time>
      </trkpt>
      <trkpt lat="10.265503" lon="-67.784994">
        <ele>441.00</ele>
        <time>2022-10-26T10:49:20Z</time>
      </trkpt>
      <trkpt lat="10.265554" lon="-67.784925">
        <ele>440.90</ele>
        <time>2022-10-26T10:49:21Z</time>
      </trkpt>
      <trkpt lat="10.265603" lon="-67.784857">
        <ele>440.80</ele>
        <time>2022-10-26T10:49:22Z</time>
      </trkpt>
      <trkpt lat="10.265650" lon="-67.784791">
        <ele>440.70</ele>
        <time>2022-10-26T10:49:23Z</time>
      </trkpt>
      <trkpt lat="10.265698" lon="-67.784728">
        <ele>440.60</ele>
        <time>2022-10-26T10:49:24Z</time>
      </trkpt>
      <trkpt lat="10.265745" lon="-67.784667">
        <ele>440.60</ele>
        <time>2022-10-26T10:49:25Z</time>
      </trkpt>
      <trkpt lat="10.265796" lon="-67.784606">
        <ele>440.50</ele>
        <time>2022-10-26T10:49:26Z</time>
      </trkpt>
      <trkpt lat="10.265849" lon="-67.784546">
        <ele>440.50</ele>
        <time>2022-10-26T10:49:27Z</time>
      </trkpt>
      <trkpt lat="10.265895" lon="-67.784487">
        <ele>440.40</ele>
        <time>2022-10-26T10:49:28Z</time>
      </trkpt>
      <trkpt lat="10.265936" lon="-67.784428">
        <ele>440.40</ele>
        <time>2022-10-26T10:49:29Z</time>
      </trkpt>
      <trkpt lat="10.265975" lon="-67.784358">
        <ele>440.30</ele>
        <time>2022-10-26T10:49:30Z</time>
      </trkpt>
      <trkpt lat="10.266021" lon="-67.784286">
        <ele>440.20</ele>
        <time>2022-10-26T10:49:31Z</time>
      </trkpt>
      <trkpt lat="10.266071" lon="-67.784216">
        <ele>440.10</ele>
        <time>2022-10-26T10:49:32Z</time>
      </trkpt>
      <trkpt lat="10.266126" lon="-67.784154">
        <ele>440.00</ele>
        <time>2022-10-26T10:49:33Z</time>
      </trkpt>
      <trkpt lat="10.266179" lon="-67.784086">
        <ele>439.90</ele>
        <time>2022-10-26T10:49:34Z</time>
      </trkpt>
      <trkpt lat="10.266230" lon="-67.784016">
        <ele>439.80</ele>
        <time>2022-10-26T10:49:35Z</time>
      </trkpt>
      <trkpt lat="10.266278" lon="-67.783941">
        <ele>439.70</ele>
        <time>2022-10-26T10:49:36Z</time>
      </trkpt>
      <trkpt lat="10.266327" lon="-67.783864">
        <ele>439.70</ele>
        <time>2022-10-26T10:49:37Z</time>
      </trkpt>
      <trkpt lat="10.266379" lon="-67.783790">
        <ele>439.60</ele>
        <time>2022-10-26T10:49:38Z</time>
      </trkpt>
      <trkpt lat="10.266430" lon="-67.783721">
        <ele>439.40</ele>
        <time>2022-10-26T10:49:39Z</time>
      </trkpt>
      <trkpt lat="10.266484" lon="-67.783652">
        <ele>439.30</ele>
        <time>2022-10-26T10:49:40Z</time>
      </trkpt>
      <trkpt lat="10.266536" lon="-67.783583">
        <ele>439.20</ele>
        <time>2022-10-26T10:49:41Z</time>
      </trkpt>
      <trkpt lat="10.266586" lon="-67.783515">
        <ele>439.10</ele>
        <time>2022-10-26T10:49:42Z</time>
      </trkpt>
      <trkpt lat="10.266632" lon="-67.783450">
        <ele>439.00</ele>
        <time>2022-10-26T10:49:43Z</time>
      </trkpt>
      <trkpt lat="10.266677" lon="-67.783383">
        <ele>438.80</ele>
        <time>2022-10-26T10:49:44Z</time>
      </trkpt>
      <trkpt lat="10.266720" lon="-67.783317">
        <ele>438.70</ele>
        <time>2022-10-26T10:49:45Z</time>
      </trkpt>
      <trkpt lat="10.266765" lon="-67.783254">
        <ele>438.60</ele>
        <time>2022-10-26T10:49:46Z</time>
      </trkpt>
      <trkpt lat="10.266817" lon="-67.783191">
        <ele>438.40</ele>
        <time>2022-10-26T10:49:47Z</time>
      </trkpt>
      <trkpt lat="10.266869" lon="-67.783129">
        <ele>438.30</ele>
        <time>2022-10-26T10:49:48Z</time>
      </trkpt>
      <trkpt lat="10.266920" lon="-67.783065">
        <ele>438.20</ele>
        <time>2022-10-26T10:49:49Z</time>
      </trkpt>
      <trkpt lat="10.266968" lon="-67.783006">
        <ele>438.10</ele>
        <time>2022-10-26T10:49:50Z</time>
      </trkpt>
      <trkpt lat="10.267013" lon="-67.782941">
        <ele>437.90</ele>
        <time>2022-10-26T10:49:51Z</time>
      </trkpt>
      <trkpt lat="10.267056" lon="-67.782872">
        <ele>437.80</ele>
        <time>2022-10-26T10:49:52Z</time>
      </trkpt>
      <trkpt lat="10.267099" lon="-67.782802">
        <ele>437.70</ele>
        <time>2022-10-26T10:49:53Z</time>
      </trkpt>
      <trkpt lat="10.267140" lon="-67.782729">
        <ele>437.50</ele>
        <time>2022-10-26T10:49:54Z</time>
      </trkpt>
      <trkpt lat="10.267183" lon="-67.782656">
        <ele>437.40</ele>
        <time>2022-10-26T10:49:55Z</time>
      </trkpt>
      <trkpt lat="10.267225" lon="-67.782584">
        <ele>437.20</ele>
        <time>2022-10-26T10:49:56Z</time>
      </trkpt>
      <trkpt lat="10.267267" lon="-67.782516">
        <ele>437.10</ele>
        <time>2022-10-26T10:49:57Z</time>
      </trkpt>
      <trkpt lat="10.267310" lon="-67.782446">
        <ele>437.00</ele>
        <time>2022-10-26T10:49:58Z</time>
      </trkpt>
      <trkpt lat="10.267355" lon="-67.782376">
        <ele>436.90</ele>
        <time>2022-10-26T10:49:59Z</time>
      </trkpt>
      <trkpt lat="10.267404" lon="-67.782306">
        <ele>436.80</ele>
        <time>2022-10-26T10:50:00Z</time>
      </trkpt>
      <trkpt lat="10.267454" lon="-67.782235">
        <ele>436.70</ele>
        <time>2022-10-26T10:50:01Z</time>
      </trkpt>
      <trkpt lat="10.267505" lon="-67.782164">
        <ele>436.60</ele>
        <time>2022-10-26T10:50:02Z</time>
      </trkpt>
      <trkpt lat="10.267557" lon="-67.782089">
        <ele>436.50</ele>
        <time>2022-10-26T10:50:03Z</time>
      </trkpt>
      <trkpt lat="10.267608" lon="-67.782016">
        <ele>436.50</ele>
        <time>2022-10-26T10:50:04Z</time>
      </trkpt>
      <trkpt lat="10.267660" lon="-67.781943">
        <ele>436.40</ele>
        <time>2022-10-26T10:50:05Z</time>
      </trkpt>
      <trkpt lat="10.267710" lon="-67.781870">
        <ele>436.30</ele>
        <time>2022-10-26T10:50:06Z</time>
      </trkpt>
      <trkpt lat="10.267759" lon="-67.781797">
        <ele>436.20</ele>
        <time>2022-10-26T10:50:07Z</time>
      </trkpt>
      <trkpt lat="10.267803" lon="-67.781719">
        <ele>436.10</ele>
        <time>2022-10-26T10:50:08Z</time>
      </trkpt>
      <trkpt lat="10.267851" lon="-67.781642">
        <ele>436.10</ele>
        <time>2022-10-26T10:50:09Z</time>
      </trkpt>
      <trkpt lat="10.267901" lon="-67.781564">
        <ele>436.00</ele>
        <time>2022-10-26T10:50:10Z</time>
      </trkpt>
      <trkpt lat="10.267947" lon="-67.781486">
        <ele>436.00</ele>
        <time>2022-10-26T10:50:11Z</time>
      </trkpt>
      <trkpt lat="10.267988" lon="-67.781406">
        <ele>435.90</ele>
        <time>2022-10-26T10:50:12Z</time>
      </trkpt>
      <trkpt lat="10.268027" lon="-67.781325">
        <ele>435.90</ele>
        <time>2022-10-26T10:50:13Z</time>
      </trkpt>
      <trkpt lat="10.268069" lon="-67.781248">
        <ele>435.90</ele>
        <time>2022-10-26T10:50:14Z</time>
      </trkpt>
      <trkpt lat="10.268112" lon="-67.781173">
        <ele>435.80</ele>
        <time>2022-10-26T10:50:15Z</time>
      </trkpt>
      <trkpt lat="10.268155" lon="-67.781094">
        <ele>435.80</ele>
        <time>2022-10-26T10:50:16Z</time>
      </trkpt>
      <trkpt lat="10.268197" lon="-67.781012">
        <ele>435.80</ele>
        <time>2022-10-26T10:50:17Z</time>
      </trkpt>
      <trkpt lat="10.268236" lon="-67.780935">
        <ele>435.70</ele>
        <time>2022-10-26T10:50:18Z</time>
      </trkpt>
      <trkpt lat="10.268273" lon="-67.780860">
        <ele>435.70</ele>
        <time>2022-10-26T10:50:19Z</time>
      </trkpt>
      <trkpt lat="10.268309" lon="-67.780786">
        <ele>435.70</ele>
        <time>2022-10-26T10:50:20Z</time>
      </trkpt>
      <trkpt lat="10.268344" lon="-67.780712">
        <ele>435.60</ele>
        <time>2022-10-26T10:50:21Z</time>
      </trkpt>
      <trkpt lat="10.268381" lon="-67.780638">
        <ele>435.60</ele>
        <time>2022-10-26T10:50:22Z</time>
      </trkpt>
      <trkpt lat="10.268419" lon="-67.780568">
        <ele>435.60</ele>
        <time>2022-10-26T10:50:23Z</time>
      </trkpt>
      <trkpt lat="10.268459" lon="-67.780495">
        <ele>435.60</ele>
        <time>2022-10-26T10:50:24Z</time>
      </trkpt>
      <trkpt lat="10.268495" lon="-67.780417">
        <ele>435.50</ele>
        <time>2022-10-26T10:50:25Z</time>
      </trkpt>
      <trkpt lat="10.268528" lon="-67.780336">
        <ele>435.50</ele>
        <time>2022-10-26T10:50:26Z</time>
      </trkpt>
      <trkpt lat="10.268562" lon="-67.780260">
        <ele>435.50</ele>
        <time>2022-10-26T10:50:27Z</time>
      </trkpt>
      <trkpt lat="10.268599" lon="-67.780189">
        <ele>435.50</ele>
        <time>2022-10-26T10:50:28Z</time>
      </trkpt>
      <trkpt lat="10.268641" lon="-67.780116">
        <ele>435.50</ele>
        <time>2022-10-26T10:50:29Z</time>
      </trkpt>
      <trkpt lat="10.268679" lon="-67.780039">
        <ele>435.50</ele>
        <time>2022-10-26T10:50:30Z</time>
      </trkpt>
      <trkpt lat="10.268715" lon="-67.779957">
        <ele>435.50</ele>
        <time>2022-10-26T10:50:31Z</time>
      </trkpt>
      <trkpt lat="10.268748" lon="-67.779878">
        <ele>435.50</ele>
        <time>2022-10-26T10:50:32Z</time>
      </trkpt>
      <trkpt lat="10.268780" lon="-67.779797">
        <ele>435.50</ele>
        <time>2022-10-26T10:50:33Z</time>
      </trkpt>
      <trkpt lat="10.268810" lon="-67.779718">
        <ele>435.60</ele>
        <time>2022-10-26T10:50:34Z</time>
      </trkpt>
      <trkpt lat="10.268841" lon="-67.779641">
        <ele>435.60</ele>
        <time>2022-10-26T10:50:35Z</time>
      </trkpt>
      <trkpt lat="10.268868" lon="-67.779568">
        <ele>435.70</ele>
        <time>2022-10-26T10:50:36Z</time>
      </trkpt>
      <trkpt lat="10.268894" lon="-67.779497">
        <ele>435.70</ele>
        <time>2022-10-26T10:50:37Z</time>
      </trkpt>
      <trkpt lat="10.268920" lon="-67.779426">
        <ele>435.80</ele>
        <time>2022-10-26T10:50:38Z</time>
      </trkpt>
      <trkpt lat="10.268947" lon="-67.779360">
        <ele>435.80</ele>
        <time>2022-10-26T10:50:39Z</time>
      </trkpt>
      <trkpt lat="10.268973" lon="-67.779293">
        <ele>435.90</ele>
        <time>2022-10-26T10:50:40Z</time>
      </trkpt>
      <trkpt lat="10.268997" lon="-67.779224">
        <ele>436.00</ele>
        <time>2022-10-26T10:50:41Z</time>
      </trkpt>
      <trkpt lat="10.269019" lon="-67.779150">
        <ele>436.10</ele>
        <time>2022-10-26T10:50:42Z</time>
      </trkpt>
      <trkpt lat="10.269039" lon="-67.779077">
        <ele>436.10</ele>
        <time>2022-10-26T10:50:43Z</time>
      </trkpt>
      <trkpt lat="10.269055" lon="-67.779003">
        <ele>436.20</ele>
        <time>2022-10-26T10:50:44Z</time>
      </trkpt>
      <trkpt lat="10.269070" lon="-67.778931">
        <ele>436.30</ele>
        <time>2022-10-26T10:50:45Z</time>
      </trkpt>
      <trkpt lat="10.269087" lon="-67.778858">
        <ele>436.40</ele>
        <time>2022-10-26T10:50:46Z</time>
      </trkpt>
      <trkpt lat="10.269105" lon="-67.778786">
        <ele>436.40</ele>
        <time>2022-10-26T10:50:47Z</time>
      </trkpt>
      <trkpt lat="10.269127" lon="-67.778715">
        <ele>436.50</ele>
        <time>2022-10-26T10:50:48Z</time>
      </trkpt>
      <trkpt lat="10.269149" lon="-67.778646">
        <ele>436.60</ele>
        <time>2022-10-26T10:50:49Z</time>
      </trkpt>
      <trkpt lat="10.269169" lon="-67.778579">
        <ele>436.60</ele>
        <time>2022-10-26T10:50:50Z</time>
      </trkpt>
      <trkpt lat="10.269189" lon="-67.778506">
        <ele>436.70</ele>
        <time>2022-10-26T10:50:51Z</time>
      </trkpt>
      <trkpt lat="10.269210" lon="-67.778431">
        <ele>436.80</ele>
        <time>2022-10-26T10:50:52Z</time>
      </trkpt>
      <trkpt lat="10.269228" lon="-67.778364">
        <ele>436.80</ele>
        <time>2022-10-26T10:50:53Z</time>
      </trkpt>
      <trkpt lat="10.269244" lon="-67.778299">
        <ele>436.90</ele>
        <time>2022-10-26T10:50:54Z</time>
      </trkpt>
      <trkpt lat="10.269256" lon="-67.778230">
        <ele>437.00</ele>
        <time>2022-10-26T10:50:55Z</time>
      </trkpt>
      <trkpt lat="10.269266" lon="-67.778161">
        <ele>437.10</ele>
        <time>2022-10-26T10:50:56Z</time>
      </trkpt>
      <trkpt lat="10.269280" lon="-67.778086">
        <ele>437.20</ele>
        <time>2022-10-26T10:50:57Z</time>
      </trkpt>
      <trkpt lat="10.269295" lon="-67.778013">
        <ele>437.30</ele>
        <time>2022-10-26T10:50:58Z</time>
      </trkpt>
      <trkpt lat="10.269308" lon="-67.777940">
        <ele>437.40</ele>
        <time>2022-10-26T10:50:59Z</time>
      </trkpt>
      <trkpt lat="10.269316" lon="-67.777866">
        <ele>437.50</ele>
        <time>2022-10-26T10:51:00Z</time>
      </trkpt>
      <trkpt lat="10.269324" lon="-67.777792">
        <ele>437.60</ele>
        <time>2022-10-26T10:51:01Z</time>
      </trkpt>
      <trkpt lat="10.269333" lon="-67.777720">
        <ele>437.60</ele>
        <time>2022-10-26T10:51:02Z</time>
      </trkpt>
      <trkpt lat="10.269345" lon="-67.777650">
        <ele>437.70</ele>
        <time>2022-10-26T10:51:03Z</time>
      </trkpt>
      <trkpt lat="10.269358" lon="-67.777582">
        <ele>437.80</ele>
        <time>2022-10-26T10:51:04Z</time>
      </trkpt>
      <trkpt lat="10.269373" lon="-67.777519">
        <ele>437.90</ele>
        <time>2022-10-26T10:51:05Z</time>
      </trkpt>
      <trkpt lat="10.269391" lon="-67.777457">
        <ele>438.00</ele>
        <time>2022-10-26T10:51:06Z</time>
      </trkpt>
      <trkpt lat="10.269410" lon="-67.777398">
        <ele>438.10</ele>
        <time>2022-10-26T10:51:07Z</time>
      </trkpt>
      <trkpt lat="10.269428" lon="-67.777332">
        <ele>438.20</ele>
        <time>2022-10-26T10:51:08Z</time>
      </trkpt>
      <trkpt lat="10.269445" lon="-67.777272">
        <ele>438.20</ele>
        <time>2022-10-26T10:51:09Z</time>
      </trkpt>
      <trkpt lat="10.269463" lon="-67.777215">
        <ele>438.30</ele>
        <time>2022-10-26T10:51:10Z</time>
      </trkpt>
      <trkpt lat="10.269481" lon="-67.777159">
        <ele>438.40</ele>
        <time>2022-10-26T10:51:11Z</time>
      </trkpt>
      <trkpt lat="10.269494" lon="-67.777106">
        <ele>438.50</ele>
        <time>2022-10-26T10:51:12Z</time>
      </trkpt>
      <trkpt lat="10.269509" lon="-67.777053">
        <ele>438.60</ele>
        <time>2022-10-26T10:51:13Z</time>
      </trkpt>
      <trkpt lat="10.269525" lon="-67.776999">
        <ele>438.70</ele>
        <time>2022-10-26T10:51:14Z</time>
      </trkpt>
      <trkpt lat="10.269541" lon="-67.776946">
        <ele>438.80</ele>
        <time>2022-10-26T10:51:15Z</time>
      </trkpt>
      <trkpt lat="10.269554" lon="-67.776898">
        <ele>438.80</ele>
        <time>2022-10-26T10:51:16Z</time>
      </trkpt>
      <trkpt lat="10.269566" lon="-67.776850">
        <ele>438.90</ele>
        <time>2022-10-26T10:51:17Z</time>
      </trkpt>
      <trkpt lat="10.269577" lon="-67.776798">
        <ele>439.00</ele>
        <time>2022-10-26T10:51:18Z</time>
      </trkpt>
      <trkpt lat="10.269589" lon="-67.776748">
        <ele>439.10</ele>
        <time>2022-10-26T10:51:19Z</time>
      </trkpt>
      <trkpt lat="10.269607" lon="-67.776699">
        <ele>439.10</ele>
        <time>2022-10-26T10:51:20Z</time>
      </trkpt>
      <trkpt lat="10.269626" lon="-67.776649">
        <ele>439.20</ele>
        <time>2022-10-26T10:51:21Z</time>
      </trkpt>
      <trkpt lat="10.269647" lon="-67.776598">
        <ele>439.30</ele>
        <time>2022-10-26T10:51:22Z</time>
      </trkpt>
      <trkpt lat="10.269665" lon="-67.776544">
        <ele>439.40</ele>
        <time>2022-10-26T10:51:23Z</time>
      </trkpt>
      <trkpt lat="10.269684" lon="-67.776492">
        <ele>439.40</ele>
        <time>2022-10-26T10:51:24Z</time>
      </trkpt>
      <trkpt lat="10.269703" lon="-67.776434">
        <ele>439.50</ele>
        <time>2022-10-26T10:51:25Z</time>
      </trkpt>
      <trkpt lat="10.269720" lon="-67.776380">
        <ele>439.60</ele>
        <time>2022-10-26T10:51:26Z</time>
      </trkpt>
      <trkpt lat="10.269733" lon="-67.776326">
        <ele>439.70</ele>
        <time>2022-10-26T10:51:27Z</time>
      </trkpt>
      <trkpt lat="10.269747" lon="-67.776268">
        <ele>439.80</ele>
        <time>2022-10-26T10:51:28Z</time>
      </trkpt>
      <trkpt lat="10.269760" lon="-67.776210">
        <ele>439.90</ele>
        <time>2022-10-26T10:51:29Z</time>
      </trkpt>
      <trkpt lat="10.269774" lon="-67.776154">
        <ele>440.00</ele>
        <time>2022-10-26T10:51:30Z</time>
      </trkpt>
      <trkpt lat="10.269791" lon="-67.776102">
        <ele>440.10</ele>
        <time>2022-10-26T10:51:31Z</time>
      </trkpt>
      <trkpt lat="10.269808" lon="-67.776050">
        <ele>440.20</ele>
        <time>2022-10-26T10:51:32Z</time>
      </trkpt>
      <trkpt lat="10.269823" lon="-67.776001">
        <ele>440.30</ele>
        <time>2022-10-26T10:51:33Z</time>
      </trkpt>
      <trkpt lat="10.269837" lon="-67.775953">
        <ele>440.40</ele>
        <time>2022-10-26T10:51:34Z</time>
      </trkpt>
      <trkpt lat="10.269854" lon="-67.775906">
        <ele>440.50</ele>
        <time>2022-10-26T10:51:35Z</time>
      </trkpt>
      <trkpt lat="10.269871" lon="-67.775853">
        <ele>440.60</ele>
        <time>2022-10-26T10:51:36Z</time>
      </trkpt>
      <trkpt lat="10.269888" lon="-67.775800">
        <ele>440.70</ele>
        <time>2022-10-26T10:51:37Z</time>
      </trkpt>
      <trkpt lat="10.269906" lon="-67.775743">
        <ele>440.80</ele>
        <time>2022-10-26T10:51:38Z</time>
      </trkpt>
      <trkpt lat="10.269919" lon="-67.775690">
        <ele>440.90</ele>
        <time>2022-10-26T10:51:39Z</time>
      </trkpt>
      <trkpt lat="10.269928" lon="-67.775633">
        <ele>441.00</ele>
        <time>2022-10-26T10:51:40Z</time>
      </trkpt>
      <trkpt lat="10.269937" lon="-67.775577">
        <ele>441.10</ele>
        <time>2022-10-26T10:51:41Z</time>
      </trkpt>
      <trkpt lat="10.269946" lon="-67.775523">
        <ele>441.20</ele>
        <time>2022-10-26T10:51:42Z</time>
      </trkpt>
      <trkpt lat="10.269960" lon="-67.775471">
        <ele>441.30</ele>
        <time>2022-10-26T10:51:43Z</time>
      </trkpt>
      <trkpt lat="10.269973" lon="-67.775419">
        <ele>441.40</ele>
        <time>2022-10-26T10:51:44Z</time>
      </trkpt>
      <trkpt lat="10.269982" lon="-67.775371">
        <ele>441.50</ele>
        <time>2022-10-26T10:51:45Z</time>
      </trkpt>
      <trkpt lat="10.269992" lon="-67.775322">
        <ele>441.60</ele>
        <time>2022-10-26T10:51:46Z</time>
      </trkpt>
      <trkpt lat="10.270002" lon="-67.775277">
        <ele>441.70</ele>
        <time>2022-10-26T10:51:47Z</time>
      </trkpt>
      <trkpt lat="10.270013" lon="-67.775232">
        <ele>441.80</ele>
        <time>2022-10-26T10:51:48Z</time>
      </trkpt>
      <trkpt lat="10.270027" lon="-67.775188">
        <ele>441.80</ele>
        <time>2022-10-26T10:51:49Z</time>
      </trkpt>
      <trkpt lat="10.270041" lon="-67.775145">
        <ele>441.90</ele>
        <time>2022-10-26T10:51:50Z</time>
      </trkpt>
      <trkpt lat="10.270053" lon="-67.775101">
        <ele>442.00</ele>
        <time>2022-10-26T10:51:51Z</time>
      </trkpt>
      <trkpt lat="10.270064" lon="-67.775056">
        <ele>442.10</ele>
        <time>2022-10-26T10:51:52Z</time>
      </trkpt>
      <trkpt lat="10.270075" lon="-67.775011">
        <ele>442.10</ele>
        <time>2022-10-26T10:51:53Z</time>
      </trkpt>
      <trkpt lat="10.270088" lon="-67.774970">
        <ele>442.20</ele>
        <time>2022-10-26T10:51:54Z</time>
      </trkpt>
      <trkpt lat="10.270102" lon="-67.774926">
        <ele>442.30</ele>
        <time>2022-10-26T10:51:55Z</time>
      </trkpt>
      <trkpt lat="10.270116" lon="-67.774882">
        <ele>442.40</ele>
        <time>2022-10-26T10:51:56Z</time>
      </trkpt>
      <trkpt lat="10.270132" lon="-67.774834">
        <ele>442.40</ele>
        <time>2022-10-26T10:51:57Z</time>
      </trkpt>
      <trkpt lat="10.270145" lon="-67.774786">
        <ele>442.50</ele>
        <time>2022-10-26T10:51:58Z</time>
      </trkpt>
      <trkpt lat="10.270156" lon="-67.774736">
        <ele>442.60</ele>
        <time>2022-10-26T10:51:59Z</time>
      </trkpt>
      <trkpt lat="10.270165" lon="-67.774688">
        <ele>442.70</ele>
        <time>2022-10-26T10:52:00Z</time>
      </trkpt>
      <trkpt lat="10.270177" lon="-67.774643">
        <ele>442.80</ele>
        <time>2022-10-26T10:52:01Z</time>
      </trkpt>
      <trkpt lat="10.270187" lon="-67.774598">
        <ele>442.90</ele>
        <time>2022-10-26T10:52:02Z</time>
      </trkpt>
      <trkpt lat="10.270195" lon="-67.774556">
        <ele>443.00</ele>
        <time>2022-10-26T10:52:03Z</time>
      </trkpt>
      <trkpt lat="10.270202" lon="-67.774515">
        <ele>443.10</ele>
        <time>2022-10-26T10:52:04Z</time>
      </trkpt>
      <trkpt lat="10.270210" lon="-67.774475">
        <ele>443.10</ele>
        <time>2022-10-26T10:52:05Z</time>
      </trkpt>
      <trkpt lat="10.270218" lon="-67.774434">
        <ele>443.20</ele>
        <time>2022-10-26T10:52:06Z</time>
      </trkpt>
      <trkpt lat="10.270224" lon="-67.774392">
        <ele>443.30</ele>
        <time>2022-10-26T10:52:07Z</time>
      </trkpt>
      <trkpt lat="10.270232" lon="-67.774351">
        <ele>443.40</ele>
        <time>2022-10-26T10:52:08Z</time>
      </trkpt>
      <trkpt lat="10.270238" lon="-67.774315">
        <ele>443.50</ele>
        <time>2022-10-26T10:52:09Z</time>
      </trkpt>
      <trkpt lat="10.270244" lon="-67.774280">
        <ele>443.50</ele>
        <time>2022-10-26T10:52:10Z</time>
      </trkpt>
      <trkpt lat="10.270252" lon="-67.774246">
        <ele>443.60</ele>
        <time>2022-10-26T10:52:11Z</time>
      </trkpt>
      <trkpt lat="10.270260" lon="-67.774210">
        <ele>443.70</ele>
        <time>2022-10-26T10:52:12Z</time>
      </trkpt>
      <trkpt lat="10.270268" lon="-67.774175">
        <ele>443.80</ele>
        <time>2022-10-26T10:52:13Z</time>
      </trkpt>
      <trkpt lat="10.270278" lon="-67.774142">
        <ele>443.80</ele>
        <time>2022-10-26T10:52:14Z</time>
      </trkpt>
      <trkpt lat="10.270290" lon="-67.774107">
        <ele>443.90</ele>
        <time>2022-10-26T10:52:15Z</time>
      </trkpt>
      <trkpt lat="10.270300" lon="-67.774075">
        <ele>444.00</ele>
        <time>2022-10-26T10:52:16Z</time>
      </trkpt>
      <trkpt lat="10.270309" lon="-67.774043">
        <ele>444.10</ele>
        <time>2022-10-26T10:52:17Z</time>
      </trkpt>
      <trkpt lat="10.270315" lon="-67.774016">
        <ele>444.10</ele>
        <time>2022-10-26T10:52:18Z</time>
      </trkpt>
      <trkpt lat="10.270324" lon="-67.773987">
        <ele>444.20</ele>
        <time>2022-10-26T10:52:19Z</time>
      </trkpt>
      <trkpt lat="10.270332" lon="-67.773959">
        <ele>444.30</ele>
        <time>2022-10-26T10:52:20Z</time>
      </trkpt>
      <trkpt lat="10.270342" lon="-67.773929">
        <ele>444.40</ele>
        <time>2022-10-26T10:52:21Z</time>
      </trkpt>
      <trkpt lat="10.270350" lon="-67.773900">
        <ele>444.40</ele>
        <time>2022-10-26T10:52:22Z</time>
      </trkpt>
      <trkpt lat="10.270363" lon="-67.773865">
        <ele>444.50</ele>
        <time>2022-10-26T10:52:23Z</time>
      </trkpt>
      <trkpt lat="10.270380" lon="-67.773832">
        <ele>444.60</ele>
        <time>2022-10-26T10:52:24Z</time>
      </trkpt>
      <trkpt lat="10.270398" lon="-67.773797">
        <ele>444.70</ele>
        <time>2022-10-26T10:52:25Z</time>
      </trkpt>
      <trkpt lat="10.270411" lon="-67.773764">
        <ele>444.80</ele>
        <time>2022-10-26T10:52:26Z</time>
      </trkpt>
      <trkpt lat="10.270422" lon="-67.773727">
        <ele>444.90</ele>
        <time>2022-10-26T10:52:27Z</time>
      </trkpt>
      <trkpt lat="10.270432" lon="-67.773691">
        <ele>444.90</ele>
        <time>2022-10-26T10:52:28Z</time>
      </trkpt>
      <trkpt lat="10.270439" lon="-67.773651">
        <ele>445.00</ele>
        <time>2022-10-26T10:52:29Z</time>
      </trkpt>
      <trkpt lat="10.270447" lon="-67.773610">
        <ele>445.10</ele>
        <time>2022-10-26T10:52:30Z</time>
      </trkpt>
      <trkpt lat="10.270453" lon="-67.773568">
        <ele>445.10</ele>
        <time>2022-10-26T10:52:31Z</time>
      </trkpt>
      <trkpt lat="10.270461" lon="-67.773522">
        <ele>445.20</ele>
        <time>2022-10-26T10:52:32Z</time>
      </trkpt>
      <trkpt lat="10.270469" lon="-67.773475">
        <ele>445.20</ele>
        <time>2022-10-26T10:52:33Z</time>
      </trkpt>
      <trkpt lat="10.270477" lon="-67.773424">
        <ele>445.30</ele>
        <time>2022-10-26T10:52:34Z</time>
      </trkpt>
      <trkpt lat="10.270484" lon="-67.773375">
        <ele>445.30</ele>
        <time>2022-10-26T10:52:35Z</time>
      </trkpt>
      <trkpt lat="10.270495" lon="-67.773326">
        <ele>445.40</ele>
        <time>2022-10-26T10:52:36Z</time>
      </trkpt>
      <trkpt lat="10.270509" lon="-67.773276">
        <ele>445.40</ele>
        <time>2022-10-26T10:52:37Z</time>
      </trkpt>
      <trkpt lat="10.270521" lon="-67.773225">
        <ele>445.40</ele>
        <time>2022-10-26T10:52:38Z</time>
      </trkpt>
      <trkpt lat="10.270534" lon="-67.773173">
        <ele>445.50</ele>
        <time>2022-10-26T10:52:39Z</time>
      </trkpt>
      <trkpt lat="10.270547" lon="-67.773121">
        <ele>445.50</ele>
        <time>2022-10-26T10:52:40Z</time>
      </trkpt>
      <trkpt lat="10.270556" lon="-67.773069">
        <ele>445.50</ele>
        <time>2022-10-26T10:52:41Z</time>
      </trkpt>
      <trkpt lat="10.270567" lon="-67.773018">
        <ele>445.60</ele>
        <time>2022-10-26T10:52:42Z</time>
      </trkpt>
      <trkpt lat="10.270581" lon="-67.772968">
        <ele>445.60</ele>
        <time>2022-10-26T10:52:43Z</time>
      </trkpt>
      <trkpt lat="10.270593" lon="-67.772918">
        <ele>445.60</ele>
        <time>2022-10-26T10:52:44Z</time>
      </trkpt>
      <trkpt lat="10.270606" lon="-67.772871">
        <ele>445.60</ele>
        <time>2022-10-26T10:52:45Z</time>
      </trkpt>
      <trkpt lat="10.270617" lon="-67.772826">
        <ele>445.60</ele>
        <time>2022-10-26T10:52:46Z</time>
      </trkpt>
      <trkpt lat="10.270628" lon="-67.772783">
        <ele>445.50</ele>
        <time>2022-10-26T10:52:47Z</time>
      </trkpt>
      <trkpt lat="10.270645" lon="-67.772740">
        <ele>445.50</ele>
        <time>2022-10-26T10:52:48Z</time>
      </trkpt>
      <trkpt lat="10.270659" lon="-67.772695">
        <ele>445.50</ele>
        <time>2022-10-26T10:52:49Z</time>
      </trkpt>
      <trkpt lat="10.270675" lon="-67.772650">
        <ele>445.50</ele>
        <time>2022-10-26T10:52:50Z</time>
      </trkpt>
      <trkpt lat="10.270689" lon="-67.772605">
        <ele>445.50</ele>
        <time>2022-10-26T10:52:51Z</time>
      </trkpt>
      <trkpt lat="10.270704" lon="-67.772559">
        <ele>445.50</ele>
        <time>2022-10-26T10:52:52Z</time>
      </trkpt>
      <trkpt lat="10.270719" lon="-67.772514">
        <ele>445.50</ele>
        <time>2022-10-26T10:52:53Z</time>
      </trkpt>
      <trkpt lat="10.270735" lon="-67.772466">
        <ele>445.50</ele>
        <time>2022-10-26T10:52:54Z</time>
      </trkpt>
      <trkpt lat="10.270747" lon="-67.772418">
        <ele>445.50</ele>
        <time>2022-10-26T10:52:55Z</time>
      </trkpt>
      <trkpt lat="10.270761" lon="-67.772366">
        <ele>445.40</ele>
        <time>2022-10-26T10:52:56Z</time>
      </trkpt>
      <trkpt lat="10.270778" lon="-67.772314">
        <ele>445.40</ele>
        <time>2022-10-26T10:52:57Z</time>
      </trkpt>
      <trkpt lat="10.270795" lon="-67.772263">
        <ele>445.40</ele>
        <time>2022-10-26T10:52:58Z</time>
      </trkpt>
      <trkpt lat="10.270810" lon="-67.772215">
        <ele>445.40</ele>
        <time>2022-10-26T10:52:59Z</time>
      </trkpt>
      <trkpt lat="10.270822" lon="-67.772161">
        <ele>445.40</ele>
        <time>2022-10-26T10:53:00Z</time>
      </trkpt>
      <trkpt lat="10.270833" lon="-67.772105">
        <ele>445.40</ele>
        <time>2022-10-26T10:53:01Z</time>
      </trkpt>
      <trkpt lat="10.270848" lon="-67.772050">
        <ele>445.40</ele>
        <time>2022-10-26T10:53:02Z</time>
      </trkpt>
      <trkpt lat="10.270862" lon="-67.771986">
        <ele>445.40</ele>
        <time>2022-10-26T10:53:03Z</time>
      </trkpt>
      <trkpt lat="10.270878" lon="-67.771918">
        <ele>445.30</ele>
        <time>2022-10-26T10:53:04Z</time>
      </trkpt>
      <trkpt lat="10.270896" lon="-67.771853">
        <ele>445.20</ele>
        <time>2022-10-26T10:53:05Z</time>
      </trkpt>
      <trkpt lat="10.270915" lon="-67.771789">
        <ele>445.20</ele>
        <time>2022-10-26T10:53:06Z</time>
      </trkpt>
      <trkpt lat="10.270931" lon="-67.771722">
        <ele>445.20</ele>
        <time>2022-10-26T10:53:07Z</time>
      </trkpt>
      <trkpt lat="10.270947" lon="-67.771653">
        <ele>445.10</ele>
        <time>2022-10-26T10:53:08Z</time>
      </trkpt>
      <trkpt lat="10.270962" lon="-67.771585">
        <ele>445.10</ele>
        <time>2022-10-26T10:53:09Z</time>
      </trkpt>
      <trkpt lat="10.270975" lon="-67.771519">
        <ele>445.10</ele>
        <time>2022-10-26T10:53:10Z</time>
      </trkpt>
      <trkpt lat="10.270988" lon="-67.771454">
        <ele>445.10</ele>
        <time>2022-10-26T10:53:11Z</time>
      </trkpt>
      <trkpt lat="10.270999" lon="-67.771391">
        <ele>445.10</ele>
        <time>2022-10-26T10:53:12Z</time>
      </trkpt>
      <trkpt lat="10.271011" lon="-67.771329">
        <ele>445.10</ele>
        <time>2022-10-26T10:53:13Z</time>
      </trkpt>
      <trkpt lat="10.271025" lon="-67.771268">
        <ele>445.10</ele>
        <time>2022-10-26T10:53:14Z</time>
      </trkpt>
      <trkpt lat="10.271038" lon="-67.771211">
        <ele>445.10</ele>
        <time>2022-10-26T10:53:15Z</time>
      </trkpt>
      <trkpt lat="10.271058" lon="-67.771155">
        <ele>445.00</ele>
        <time>2022-10-26T10:53:16Z</time>
      </trkpt>
      <trkpt lat="10.271081" lon="-67.771100">
        <ele>445.00</ele>
        <time>2022-10-26T10:53:17Z</time>
      </trkpt>
      <trkpt lat="10.271105" lon="-67.771047">
        <ele>445.00</ele>
        <time>2022-10-26T10:53:18Z</time>
      </trkpt>
      <trkpt lat="10.271126" lon="-67.770991">
        <ele>445.00</ele>
        <time>2022-10-26T10:53:19Z</time>
      </trkpt>
      <trkpt lat="10.271142" lon="-67.770933">
        <ele>445.00</ele>
        <time>2022-10-26T10:53:20Z</time>
      </trkpt>
      <trkpt lat="10.271157" lon="-67.770873">
        <ele>445.00</ele>
        <time>2022-10-26T10:53:21Z</time>
      </trkpt>
      <trkpt lat="10.271172" lon="-67.770812">
        <ele>445.00</ele>
        <time>2022-10-26T10:53:22Z</time>
      </trkpt>
      <trkpt lat="10.271186" lon="-67.770746">
        <ele>445.00</ele>
        <time>2022-10-26T10:53:23Z</time>
      </trkpt>
      <trkpt lat="10.271202" lon="-67.770676">
        <ele>445.00</ele>
        <time>2022-10-26T10:53:24Z</time>
      </trkpt>
      <trkpt lat="10.271219" lon="-67.770611">
        <ele>445.00</ele>
        <time>2022-10-26T10:53:25Z</time>
      </trkpt>
      <trkpt lat="10.271232" lon="-67.770541">
        <ele>445.00</ele>
        <time>2022-10-26T10:53:26Z</time>
      </trkpt>
      <trkpt lat="10.271246" lon="-67.770476">
        <ele>445.00</ele>
        <time>2022-10-26T10:53:27Z</time>
      </trkpt>
      <trkpt lat="10.271259" lon="-67.770410">
        <ele>445.00</ele>
        <time>2022-10-26T10:53:28Z</time>
      </trkpt>
      <trkpt lat="10.271263" lon="-67.770341">
        <ele>445.00</ele>
        <time>2022-10-26T10:53:29Z</time>
      </trkpt>
      <trkpt lat="10.271269" lon="-67.770270">
        <ele>445.00</ele>
        <time>2022-10-26T10:53:30Z</time>
      </trkpt>
      <trkpt lat="10.271276" lon="-67.770201">
        <ele>445.10</ele>
        <time>2022-10-26T10:53:31Z</time>
      </trkpt>
      <trkpt lat="10.271288" lon="-67.770132">
        <ele>445.10</ele>
        <time>2022-10-26T10:53:32Z</time>
      </trkpt>
      <trkpt lat="10.271304" lon="-67.770066">
        <ele>445.10</ele>
        <time>2022-10-26T10:53:33Z</time>
      </trkpt>
      <trkpt lat="10.271322" lon="-67.770003">
        <ele>445.20</ele>
        <time>2022-10-26T10:53:34Z</time>
      </trkpt>
      <trkpt lat="10.271340" lon="-67.769940">
        <ele>445.20</ele>
        <time>2022-10-26T10:53:35Z</time>
      </trkpt>
      <trkpt lat="10.271358" lon="-67.769878">
        <ele>445.30</ele>
        <time>2022-10-26T10:53:36Z</time>
      </trkpt>
      <trkpt lat="10.271379" lon="-67.769816">
        <ele>445.30</ele>
        <time>2022-10-26T10:53:37Z</time>
      </trkpt>
      <trkpt lat="10.271399" lon="-67.769754">
        <ele>445.30</ele>
        <time>2022-10-26T10:53:38Z</time>
      </trkpt>
      <trkpt lat="10.271418" lon="-67.769690">
        <ele>445.40</ele>
        <time>2022-10-26T10:53:39Z</time>
      </trkpt>
      <trkpt lat="10.271435" lon="-67.769625">
        <ele>445.40</ele>
        <time>2022-10-26T10:53:40Z</time>
      </trkpt>
      <trkpt lat="10.271452" lon="-67.769563">
        <ele>445.50</ele>
        <time>2022-10-26T10:53:41Z</time>
      </trkpt>
      <trkpt lat="10.271468" lon="-67.769502">
        <ele>445.50</ele>
        <time>2022-10-26T10:53:42Z</time>
      </trkpt>
      <trkpt lat="10.271482" lon="-67.769442">
        <ele>445.60</ele>
        <time>2022-10-26T10:53:43Z</time>
      </trkpt>
      <trkpt lat="10.271495" lon="-67.769382">
        <ele>445.60</ele>
        <time>2022-10-26T10:53:44Z</time>
      </trkpt>
      <trkpt lat="10.271510" lon="-67.769320">
        <ele>445.70</ele>
        <time>2022-10-26T10:53:45Z</time>
      </trkpt>
      <trkpt lat="10.271526" lon="-67.769256">
        <ele>445.80</ele>
        <time>2022-10-26T10:53:46Z</time>
      </trkpt>
      <trkpt lat="10.271540" lon="-67.769194">
        <ele>445.90</ele>
        <time>2022-10-26T10:53:47Z</time>
      </trkpt>
      <trkpt lat="10.271556" lon="-67.769132">
        <ele>446.00</ele>
        <time>2022-10-26T10:53:48Z</time>
      </trkpt>
      <trkpt lat="10.271574" lon="-67.769075">
        <ele>446.10</ele>
        <time>2022-10-26T10:53:49Z</time>
      </trkpt>
      <trkpt lat="10.271592" lon="-67.769012">
        <ele>446.10</ele>
        <time>2022-10-26T10:53:50Z</time>
      </trkpt>
      <trkpt lat="10.271608" lon="-67.768953">
        <ele>446.20</ele>
        <time>2022-10-26T10:53:51Z</time>
      </trkpt>
      <trkpt lat="10.271625" lon="-67.768894">
        <ele>446.30</ele>
        <time>2022-10-26T10:53:52Z</time>
      </trkpt>
      <trkpt lat="10.271643" lon="-67.768837">
        <ele>446.40</ele>
        <time>2022-10-26T10:53:53Z</time>
      </trkpt>
      <trkpt lat="10.271659" lon="-67.768777">
        <ele>446.50</ele>
        <time>2022-10-26T10:53:54Z</time>
      </trkpt>
      <trkpt lat="10.271673" lon="-67.768717">
        <ele>446.60</ele>
        <time>2022-10-26T10:53:55Z</time>
      </trkpt>
      <trkpt lat="10.271686" lon="-67.768651">
        <ele>446.80</ele>
        <time>2022-10-26T10:53:56Z</time>
      </trkpt>
      <trkpt lat="10.271698" lon="-67.768584">
        <ele>446.90</ele>
        <time>2022-10-26T10:53:57Z</time>
      </trkpt>
      <trkpt lat="10.271709" lon="-67.768514">
        <ele>447.00</ele>
        <time>2022-10-26T10:53:58Z</time>
      </trkpt>
      <trkpt lat="10.271717" lon="-67.768444">
        <ele>447.10</ele>
        <time>2022-10-26T10:53:59Z</time>
      </trkpt>
      <trkpt lat="10.271730" lon="-67.768373">
        <ele>447.30</ele>
        <time>2022-10-26T10:54:00Z</time>
      </trkpt>
      <trkpt lat="10.271746" lon="-67.768313">
        <ele>447.40</ele>
        <time>2022-10-26T10:54:01Z</time>
      </trkpt>
      <trkpt lat="10.271763" lon="-67.768253">
        <ele>447.50</ele>
        <time>2022-10-26T10:54:02Z</time>
      </trkpt>
      <trkpt lat="10.271777" lon="-67.768191">
        <ele>447.60</ele>
        <time>2022-10-26T10:54:03Z</time>
      </trkpt>
      <trkpt lat="10.271790" lon="-67.768133">
        <ele>447.70</ele>
        <time>2022-10-26T10:54:04Z</time>
      </trkpt>
      <trkpt lat="10.271801" lon="-67.768075">
        <ele>447.80</ele>
        <time>2022-10-26T10:54:05Z</time>
      </trkpt>
      <trkpt lat="10.271816" lon="-67.768015">
        <ele>447.80</ele>
        <time>2022-10-26T10:54:06Z</time>
      </trkpt>
      <trkpt lat="10.271832" lon="-67.767957">
        <ele>447.90</ele>
        <time>2022-10-26T10:54:07Z</time>
      </trkpt>
      <trkpt lat="10.271850" lon="-67.767900">
        <ele>448.00</ele>
        <time>2022-10-26T10:54:08Z</time>
      </trkpt>
      <trkpt lat="10.271866" lon="-67.767845">
        <ele>448.10</ele>
        <time>2022-10-26T10:54:09Z</time>
      </trkpt>
      <trkpt lat="10.271881" lon="-67.767790">
        <ele>448.20</ele>
        <time>2022-10-26T10:54:10Z</time>
      </trkpt>
      <trkpt lat="10.271898" lon="-67.767734">
        <ele>448.20</ele>
        <time>2022-10-26T10:54:11Z</time>
      </trkpt>
      <trkpt lat="10.271913" lon="-67.767672">
        <ele>448.30</ele>
        <time>2022-10-26T10:54:12Z</time>
      </trkpt>
      <trkpt lat="10.271930" lon="-67.767612">
        <ele>448.40</ele>
        <time>2022-10-26T10:54:13Z</time>
      </trkpt>
      <trkpt lat="10.271946" lon="-67.767555">
        <ele>448.50</ele>
        <time>2022-10-26T10:54:14Z</time>
      </trkpt>
      <trkpt lat="10.271960" lon="-67.767496">
        <ele>448.60</ele>
        <time>2022-10-26T10:54:15Z</time>
      </trkpt>
      <trkpt lat="10.271975" lon="-67.767437">
        <ele>448.70</ele>
        <time>2022-10-26T10:54:16Z</time>
      </trkpt>
      <trkpt lat="10.271990" lon="-67.767384">
        <ele>448.80</ele>
        <time>2022-10-26T10:54:17Z</time>
      </trkpt>
      <trkpt lat="10.272008" lon="-67.767330">
        <ele>448.90</ele>
        <time>2022-10-26T10:54:18Z</time>
      </trkpt>
      <trkpt lat="10.272027" lon="-67.767276">
        <ele>449.00</ele>
        <time>2022-10-26T10:54:19Z</time>
      </trkpt>
      <trkpt lat="10.272043" lon="-67.767222">
        <ele>449.00</ele>
        <time>2022-10-26T10:54:20Z</time>
      </trkpt>
      <trkpt lat="10.272060" lon="-67.767165">
        <ele>449.10</ele>
        <time>2022-10-26T10:54:21Z</time>
      </trkpt>
      <trkpt lat="10.272075" lon="-67.767110">
        <ele>449.20</ele>
        <time>2022-10-26T10:54:22Z</time>
      </trkpt>
      <trkpt lat="10.272093" lon="-67.767053">
        <ele>449.30</ele>
        <time>2022-10-26T10:54:23Z</time>
      </trkpt>
      <trkpt lat="10.272111" lon="-67.766998">
        <ele>449.30</ele>
        <time>2022-10-26T10:54:24Z</time>
      </trkpt>
      <trkpt lat="10.272129" lon="-67.766943">
        <ele>449.40</ele>
        <time>2022-10-26T10:54:25Z</time>
      </trkpt>
      <trkpt lat="10.272149" lon="-67.766892">
        <ele>449.40</ele>
        <time>2022-10-26T10:54:26Z</time>
      </trkpt>
      <trkpt lat="10.272166" lon="-67.766840">
        <ele>449.50</ele>
        <time>2022-10-26T10:54:27Z</time>
      </trkpt>
      <trkpt lat="10.272179" lon="-67.766786">
        <ele>449.50</ele>
        <time>2022-10-26T10:54:28Z</time>
      </trkpt>
      <trkpt lat="10.272190" lon="-67.766731">
        <ele>449.60</ele>
        <time>2022-10-26T10:54:29Z</time>
      </trkpt>
      <trkpt lat="10.272200" lon="-67.766677">
        <ele>449.60</ele>
        <time>2022-10-26T10:54:30Z</time>
      </trkpt>
      <trkpt lat="10.272214" lon="-67.766621">
        <ele>449.70</ele>
        <time>2022-10-26T10:54:31Z</time>
      </trkpt>
      <trkpt lat="10.272230" lon="-67.766564">
        <ele>449.80</ele>
        <time>2022-10-26T10:54:32Z</time>
      </trkpt>
      <trkpt lat="10.272247" lon="-67.766510">
        <ele>449.80</ele>
        <time>2022-10-26T10:54:33Z</time>
      </trkpt>
      <trkpt lat="10.272264" lon="-67.766457">
        <ele>449.90</ele>
        <time>2022-10-26T10:54:34Z</time>
      </trkpt>
      <trkpt lat="10.272280" lon="-67.766402">
        <ele>449.90</ele>
        <time>2022-10-26T10:54:35Z</time>
      </trkpt>
      <trkpt lat="10.272295" lon="-67.766348">
        <ele>449.90</ele>
        <time>2022-10-26T10:54:36Z</time>
      </trkpt>
      <trkpt lat="10.272311" lon="-67.766297">
        <ele>449.90</ele>
        <time>2022-10-26T10:54:37Z</time>
      </trkpt>
      <trkpt lat="10.272328" lon="-67.766246">
        <ele>450.00</ele>
        <time>2022-10-26T10:54:38Z</time>
      </trkpt>
      <trkpt lat="10.272342" lon="-67.766193">
        <ele>450.00</ele>
        <time>2022-10-26T10:54:39Z</time>
      </trkpt>
      <trkpt lat="10.272355" lon="-67.766136">
        <ele>450.00</ele>
        <time>2022-10-26T10:54:40Z</time>
      </trkpt>
      <trkpt lat="10.272369" lon="-67.766078">
        <ele>450.00</ele>
        <time>2022-10-26T10:54:41Z</time>
      </trkpt>
      <trkpt lat="10.272387" lon="-67.766026">
        <ele>450.10</ele>
        <time>2022-10-26T10:54:42Z</time>
      </trkpt>
      <trkpt lat="10.272405" lon="-67.765976">
        <ele>450.10</ele>
        <time>2022-10-26T10:54:43Z</time>
      </trkpt>
      <trkpt lat="10.272425" lon="-67.765926">
        <ele>450.10</ele>
        <time>2022-10-26T10:54:44Z</time>
      </trkpt>
      <trkpt lat="10.272439" lon="-67.765874">
        <ele>450.10</ele>
        <time>2022-10-26T10:54:45Z</time>
      </trkpt>
      <trkpt lat="10.272450" lon="-67.765822">
        <ele>450.20</ele>
        <time>2022-10-26T10:54:46Z</time>
      </trkpt>
      <trkpt lat="10.272463" lon="-67.765766">
        <ele>450.20</ele>
        <time>2022-10-26T10:54:47Z</time>
      </trkpt>
      <trkpt lat="10.272479" lon="-67.765706">
        <ele>450.20</ele>
        <time>2022-10-26T10:54:48Z</time>
      </trkpt>
      <trkpt lat="10.272491" lon="-67.765642">
        <ele>450.20</ele>
        <time>2022-10-26T10:54:49Z</time>
      </trkpt>
      <trkpt lat="10.272507" lon="-67.765582">
        <ele>450.20</ele>
        <time>2022-10-26T10:54:50Z</time>
      </trkpt>
      <trkpt lat="10.272525" lon="-67.765524">
        <ele>450.20</ele>
        <time>2022-10-26T10:54:51Z</time>
      </trkpt>
      <trkpt lat="10.272544" lon="-67.765469">
        <ele>450.20</ele>
        <time>2022-10-26T10:54:52Z</time>
      </trkpt>
      <trkpt lat="10.272562" lon="-67.765414">
        <ele>450.20</ele>
        <time>2022-10-26T10:54:53Z</time>
      </trkpt>
      <trkpt lat="10.272580" lon="-67.765358">
        <ele>450.20</ele>
        <time>2022-10-26T10:54:54Z</time>
      </trkpt>
      <trkpt lat="10.272594" lon="-67.765303">
        <ele>450.20</ele>
        <time>2022-10-26T10:54:55Z</time>
      </trkpt>
      <trkpt lat="10.272609" lon="-67.765252">
        <ele>450.20</ele>
        <time>2022-10-26T10:54:56Z</time>
      </trkpt>
      <trkpt lat="10.272626" lon="-67.765201">
        <ele>450.20</ele>
        <time>2022-10-26T10:54:57Z</time>
      </trkpt>
      <trkpt lat="10.272646" lon="-67.765154">
        <ele>450.20</ele>
        <time>2022-10-26T10:54:58Z</time>
      </trkpt>
      <trkpt lat="10.272665" lon="-67.765111">
        <ele>450.20</ele>
        <time>2022-10-26T10:54:59Z</time>
      </trkpt>
      <trkpt lat="10.272684" lon="-67.765064">
        <ele>450.20</ele>
        <time>2022-10-26T10:55:00Z</time>
      </trkpt>
      <trkpt lat="10.272703" lon="-67.765021">
        <ele>450.20</ele>
        <time>2022-10-26T10:55:01Z</time>
      </trkpt>
      <trkpt lat="10.272721" lon="-67.764979">
        <ele>450.20</ele>
        <time>2022-10-26T10:55:02Z</time>
      </trkpt>
      <trkpt lat="10.272739" lon="-67.764935">
        <ele>450.20</ele>
        <time>2022-10-26T10:55:03Z</time>
      </trkpt>
      <trkpt lat="10.272755" lon="-67.764888">
        <ele>450.10</ele>
        <time>2022-10-26T10:55:04Z</time>
      </trkpt>
      <trkpt lat="10.272771" lon="-67.764840">
        <ele>450.10</ele>
        <time>2022-10-26T10:55:05Z</time>
      </trkpt>
      <trkpt lat="10.272789" lon="-67.764789">
        <ele>450.10</ele>
        <time>2022-10-26T10:55:06Z</time>
      </trkpt>
      <trkpt lat="10.272809" lon="-67.764737">
        <ele>450.10</ele>
        <time>2022-10-26T10:55:07Z</time>
      </trkpt>
      <trkpt lat="10.272830" lon="-67.764685">
        <ele>450.10</ele>
        <time>2022-10-26T10:55:08Z</time>
      </trkpt>
      <trkpt lat="10.272851" lon="-67.764630">
        <ele>450.10</ele>
        <time>2022-10-26T10:55:09Z</time>
      </trkpt>
      <trkpt lat="10.272871" lon="-67.764571">
        <ele>450.10</ele>
        <time>2022-10-26T10:55:10Z</time>
      </trkpt>
      <trkpt lat="10.272892" lon="-67.764510">
        <ele>450.00</ele>
        <time>2022-10-26T10:55:11Z</time>
      </trkpt>
      <trkpt lat="10.272912" lon="-67.764448">
        <ele>449.90</ele>
        <time>2022-10-26T10:55:12Z</time>
      </trkpt>
      <trkpt lat="10.272935" lon="-67.764386">
        <ele>449.90</ele>
        <time>2022-10-26T10:55:13Z</time>
      </trkpt>
      <trkpt lat="10.272958" lon="-67.764323">
        <ele>449.80</ele>
        <time>2022-10-26T10:55:14Z</time>
      </trkpt>
      <trkpt lat="10.272983" lon="-67.764260">
        <ele>449.70</ele>
        <time>2022-10-26T10:55:15Z</time>
      </trkpt>
      <trkpt lat="10.273006" lon="-67.764194">
        <ele>449.70</ele>
        <time>2022-10-26T10:55:16Z</time>
      </trkpt>
      <trkpt lat="10.273030" lon="-67.764127">
        <ele>449.60</ele>
        <time>2022-10-26T10:55:17Z</time>
      </trkpt>
      <trkpt lat="10.273052" lon="-67.764058">
        <ele>449.50</ele>
        <time>2022-10-26T10:55:18Z</time>
      </trkpt>
      <trkpt lat="10.273075" lon="-67.763991">
        <ele>449.50</ele>
        <time>2022-10-26T10:55:19Z</time>
      </trkpt>
      <trkpt lat="10.273098" lon="-67.763924">
        <ele>449.40</ele>
        <time>2022-10-26T10:55:20Z</time>
      </trkpt>
      <trkpt lat="10.273120" lon="-67.763859">
        <ele>449.40</ele>
        <time>2022-10-26T10:55:21Z</time>
      </trkpt>
      <trkpt lat="10.273143" lon="-67.763795">
        <ele>449.30</ele>
        <time>2022-10-26T10:55:22Z</time>
      </trkpt>
      <trkpt lat="10.273165" lon="-67.763734">
        <ele>449.20</ele>
        <time>2022-10-26T10:55:23Z</time>
      </trkpt>
      <trkpt lat="10.273186" lon="-67.763668">
        <ele>449.20</ele>
        <time>2022-10-26T10:55:24Z</time>
      </trkpt>
      <trkpt lat="10.273207" lon="-67.763602">
        <ele>449.10</ele>
        <time>2022-10-26T10:55:25Z</time>
      </trkpt>
      <trkpt lat="10.273228" lon="-67.763536">
        <ele>449.10</ele>
        <time>2022-10-26T10:55:26Z</time>
      </trkpt>
      <trkpt lat="10.273249" lon="-67.763473">
        <ele>449.00</ele>
        <time>2022-10-26T10:55:27Z</time>
      </trkpt>
      <trkpt lat="10.273272" lon="-67.763406">
        <ele>449.00</ele>
        <time>2022-10-26T10:55:28Z</time>
      </trkpt>
      <trkpt lat="10.273292" lon="-67.763337">
        <ele>449.00</ele>
        <time>2022-10-26T10:55:29Z</time>
      </trkpt>
      <trkpt lat="10.273315" lon="-67.763268">
        <ele>448.90</ele>
        <time>2022-10-26T10:55:30Z</time>
      </trkpt>
      <trkpt lat="10.273342" lon="-67.763200">
        <ele>448.80</ele>
        <time>2022-10-26T10:55:31Z</time>
      </trkpt>
      <trkpt lat="10.273370" lon="-67.763132">
        <ele>448.80</ele>
        <time>2022-10-26T10:55:32Z</time>
      </trkpt>
      <trkpt lat="10.273396" lon="-67.763064">
        <ele>448.70</ele>
        <time>2022-10-26T10:55:33Z</time>
      </trkpt>
      <trkpt lat="10.273420" lon="-67.763001">
        <ele>448.70</ele>
        <time>2022-10-26T10:55:34Z</time>
      </trkpt>
      <trkpt lat="10.273446" lon="-67.762935">
        <ele>448.60</ele>
        <time>2022-10-26T10:55:35Z</time>
      </trkpt>
      <trkpt lat="10.273471" lon="-67.762870">
        <ele>448.60</ele>
        <time>2022-10-26T10:55:36Z</time>
      </trkpt>
      <trkpt lat="10.273498" lon="-67.762808">
        <ele>448.50</ele>
        <time>2022-10-26T10:55:37Z</time>
      </trkpt>
      <trkpt lat="10.273527" lon="-67.762750">
        <ele>448.50</ele>
        <time>2022-10-26T10:55:38Z</time>
      </trkpt>
      <trkpt lat="10.273551" lon="-67.762691">
        <ele>448.40</ele>
        <time>2022-10-26T10:55:39Z</time>
      </trkpt>
      <trkpt lat="10.273577" lon="-67.762631">
        <ele>448.40</ele>
        <time>2022-10-26T10:55:40Z</time>
      </trkpt>
      <trkpt lat="10.273600" lon="-67.762571">
        <ele>448.40</ele>
        <time>2022-10-26T10:55:41Z</time>
      </trkpt>
      <trkpt lat="10.273621" lon="-67.762509">
        <ele>448.30</ele>
        <time>2022-10-26T10:55:42Z</time>
      </trkpt>
      <trkpt lat="10.273640" lon="-67.762450">
        <ele>448.30</ele>
        <time>2022-10-26T10:55:43Z</time>
      </trkpt>
      <trkpt lat="10.273659" lon="-67.762389">
        <ele>448.20</ele>
        <time>2022-10-26T10:55:44Z</time>
      </trkpt>
      <trkpt lat="10.273680" lon="-67.762331">
        <ele>448.20</ele>
        <time>2022-10-26T10:55:45Z</time>
      </trkpt>
      <trkpt lat="10.273701" lon="-67.762270">
        <ele>448.20</ele>
        <time>2022-10-26T10:55:46Z</time>
      </trkpt>
      <trkpt lat="10.273722" lon="-67.762206">
        <ele>448.10</ele>
        <time>2022-10-26T10:55:47Z</time>
      </trkpt>
      <trkpt lat="10.273744" lon="-67.762140">
        <ele>448.10</ele>
        <time>2022-10-26T10:55:48Z</time>
      </trkpt>
      <trkpt lat="10.273768" lon="-67.762075">
        <ele>448.00</ele>
        <time>2022-10-26T10:55:49Z</time>
      </trkpt>
      <trkpt lat="10.273789" lon="-67.762012">
        <ele>448.00</ele>
        <time>2022-10-26T10:55:50Z</time>
      </trkpt>
      <trkpt lat="10.273810" lon="-67.761949">
        <ele>447.90</ele>
        <time>2022-10-26T10:55:51Z</time>
      </trkpt>
      <trkpt lat="10.273833" lon="-67.761893">
        <ele>447.90</ele>
        <time>2022-10-26T10:55:52Z</time>
      </trkpt>
      <trkpt lat="10.273856" lon="-67.761833">
        <ele>447.90</ele>
        <time>2022-10-26T10:55:53Z</time>
      </trkpt>
      <trkpt lat="10.273879" lon="-67.761773">
        <ele>447.80</ele>
        <time>2022-10-26T10:55:54Z</time>
      </trkpt>
      <trkpt lat="10.273899" lon="-67.761713">
        <ele>447.80</ele>
        <time>2022-10-26T10:55:55Z</time>
      </trkpt>
      <trkpt lat="10.273918" lon="-67.761653">
        <ele>447.70</ele>
        <time>2022-10-26T10:55:56Z</time>
      </trkpt>
      <trkpt lat="10.273938" lon="-67.761594">
        <ele>447.70</ele>
        <time>2022-10-26T10:55:57Z</time>
      </trkpt>
      <trkpt lat="10.273956" lon="-67.761534">
        <ele>447.60</ele>
        <time>2022-10-26T10:55:58Z</time>
      </trkpt>
      <trkpt lat="10.273974" lon="-67.761476">
        <ele>447.60</ele>
        <time>2022-10-26T10:55:59Z</time>
      </trkpt>
      <trkpt lat="10.273995" lon="-67.761417">
        <ele>447.50</ele>
        <time>2022-10-26T10:56:00Z</time>
      </trkpt>
      <trkpt lat="10.274017" lon="-67.761356">
        <ele>447.40</ele>
        <time>2022-10-26T10:56:01Z</time>
      </trkpt>
      <trkpt lat="10.274038" lon="-67.761291">
        <ele>447.40</ele>
        <time>2022-10-26T10:56:02Z</time>
      </trkpt>
      <trkpt lat="10.274058" lon="-67.761225">
        <ele>447.30</ele>
        <time>2022-10-26T10:56:03Z</time>
      </trkpt>
      <trkpt lat="10.274078" lon="-67.761157">
        <ele>447.30</ele>
        <time>2022-10-26T10:56:04Z</time>
      </trkpt>
      <trkpt lat="10.274099" lon="-67.761090">
        <ele>447.20</ele>
        <time>2022-10-26T10:56:05Z</time>
      </trkpt>
      <trkpt lat="10.274120" lon="-67.761024">
        <ele>447.20</ele>
        <time>2022-10-26T10:56:06Z</time>
      </trkpt>
      <trkpt lat="10.274140" lon="-67.760959">
        <ele>447.10</ele>
        <time>2022-10-26T10:56:07Z</time>
      </trkpt>
      <trkpt lat="10.274160" lon="-67.760893">
        <ele>447.10</ele>
        <time>2022-10-26T10:56:08Z</time>
      </trkpt>
      <trkpt lat="10.274183" lon="-67.760829">
        <ele>447.10</ele>
        <time>2022-10-26T10:56:09Z</time>
      </trkpt>
      <trkpt lat="10.274205" lon="-67.760764">
        <ele>447.10</ele>
        <time>2022-10-26T10:56:10Z</time>
      </trkpt>
      <trkpt lat="10.274228" lon="-67.760696">
        <ele>447.10</ele>
        <time>2022-10-26T10:56:11Z</time>
      </trkpt>
      <trkpt lat="10.274250" lon="-67.760628">
        <ele>447.10</ele>
        <time>2022-10-26T10:56:12Z</time>
      </trkpt>
      <trkpt lat="10.274269" lon="-67.760557">
        <ele>447.10</ele>
        <time>2022-10-26T10:56:13Z</time>
      </trkpt>
      <trkpt lat="10.274288" lon="-67.760483">
        <ele>447.10</ele>
        <time>2022-10-26T10:56:14Z</time>
      </trkpt>
      <trkpt lat="10.274312" lon="-67.760411">
        <ele>447.10</ele>
        <time>2022-10-26T10:56:15Z</time>
      </trkpt>
      <trkpt lat="10.274338" lon="-67.760341">
        <ele>447.10</ele>
        <time>2022-10-26T10:56:16Z</time>
      </trkpt>
      <trkpt lat="10.274364" lon="-67.760273">
        <ele>447.10</ele>
        <time>2022-10-26T10:56:17Z</time>
      </trkpt>
      <trkpt lat="10.274390" lon="-67.760206">
        <ele>447.10</ele>
        <time>2022-10-26T10:56:18Z</time>
      </trkpt>
      <trkpt lat="10.274414" lon="-67.760140">
        <ele>447.10</ele>
        <time>2022-10-26T10:56:19Z</time>
      </trkpt>
      <trkpt lat="10.274435" lon="-67.760075">
        <ele>447.20</ele>
        <time>2022-10-26T10:56:20Z</time>
      </trkpt>
      <trkpt lat="10.274455" lon="-67.760013">
        <ele>447.20</ele>
        <time>2022-10-26T10:56:21Z</time>
      </trkpt>
      <trkpt lat="10.274474" lon="-67.759952">
        <ele>447.30</ele>
        <time>2022-10-26T10:56:22Z</time>
      </trkpt>
      <trkpt lat="10.274493" lon="-67.759895">
        <ele>447.30</ele>
        <time>2022-10-26T10:56:23Z</time>
      </trkpt>
      <trkpt lat="10.274512" lon="-67.759838">
        <ele>447.30</ele>
        <time>2022-10-26T10:56:24Z</time>
      </trkpt>
      <trkpt lat="10.274531" lon="-67.759781">
        <ele>447.30</ele>
        <time>2022-10-26T10:56:25Z</time>
      </trkpt>
      <trkpt lat="10.274548" lon="-67.759729">
        <ele>447.30</ele>
        <time>2022-10-26T10:56:26Z</time>
      </trkpt>
      <trkpt lat="10.274565" lon="-67.759676">
        <ele>447.30</ele>
        <time>2022-10-26T10:56:27Z</time>
      </trkpt>
      <trkpt lat="10.274585" lon="-67.759622">
        <ele>447.40</ele>
        <time>2022-10-26T10:56:28Z</time>
      </trkpt>
      <trkpt lat="10.274606" lon="-67.759567">
        <ele>447.40</ele>
        <time>2022-10-26T10:56:29Z</time>
      </trkpt>
      <trkpt lat="10.274627" lon="-67.759511">
        <ele>447.40</ele>
        <time>2022-10-26T10:56:30Z</time>
      </trkpt>
      <trkpt lat="10.274647" lon="-67.759452">
        <ele>447.40</ele>
        <time>2022-10-26T10:56:31Z</time>
      </trkpt>
      <trkpt lat="10.274664" lon="-67.759391">
        <ele>447.40</ele>
        <time>2022-10-26T10:56:32Z</time>
      </trkpt>
      <trkpt lat="10.274682" lon="-67.759331">
        <ele>447.50</ele>
        <time>2022-10-26T10:56:33Z</time>
      </trkpt>
      <trkpt lat="10.274703" lon="-67.759271">
        <ele>447.50</ele>
        <time>2022-10-26T10:56:34Z</time>
      </trkpt>
      <trkpt lat="10.274725" lon="-67.759215">
        <ele>447.50</ele>
        <time>2022-10-26T10:56:35Z</time>
      </trkpt>
      <trkpt lat="10.274747" lon="-67.759159">
        <ele>447.60</ele>
        <time>2022-10-26T10:56:36Z</time>
      </trkpt>
      <trkpt lat="10.274770" lon="-67.759104">
        <ele>447.60</ele>
        <time>2022-10-26T10:56:37Z</time>
      </trkpt>
      <trkpt lat="10.274795" lon="-67.759052">
        <ele>447.60</ele>
        <time>2022-10-26T10:56:38Z</time>
      </trkpt>
      <trkpt lat="10.274818" lon="-67.758998">
        <ele>447.60</ele>
        <time>2022-10-26T10:56:39Z</time>
      </trkpt>
      <trkpt lat="10.274836" lon="-67.758935">
        <ele>447.70</ele>
        <time>2022-10-26T10:56:40Z</time>
      </trkpt>
      <trkpt lat="10.274850" lon="-67.758868">
        <ele>447.70</ele>
        <time>2022-10-26T10:56:41Z</time>
      </trkpt>
      <trkpt lat="10.274867" lon="-67.758803">
        <ele>447.70</ele>
        <time>2022-10-26T10:56:42Z</time>
      </trkpt>
      <trkpt lat="10.274885" lon="-67.758737">
        <ele>447.80</ele>
        <time>2022-10-26T10:56:43Z</time>
      </trkpt>
      <trkpt lat="10.274907" lon="-67.758671">
        <ele>447.80</ele>
        <time>2022-10-26T10:56:44Z</time>
      </trkpt>
      <trkpt lat="10.274928" lon="-67.758605">
        <ele>447.80</ele>
        <time>2022-10-26T10:56:45Z</time>
      </trkpt>
      <trkpt lat="10.274950" lon="-67.758541">
        <ele>447.80</ele>
        <time>2022-10-26T10:56:46Z</time>
      </trkpt>
      <trkpt lat="10.274972" lon="-67.758476">
        <ele>447.90</ele>
        <time>2022-10-26T10:56:47Z</time>
      </trkpt>
      <trkpt lat="10.274996" lon="-67.758411">
        <ele>447.90</ele>
        <time>2022-10-26T10:56:48Z</time>
      </trkpt>
      <trkpt lat="10.275021" lon="-67.758349">
        <ele>447.90</ele>
        <time>2022-10-26T10:56:49Z</time>
      </trkpt>
      <trkpt lat="10.275048" lon="-67.758285">
        <ele>448.00</ele>
        <time>2022-10-26T10:56:50Z</time>
      </trkpt>
      <trkpt lat="10.275076" lon="-67.758224">
        <ele>448.00</ele>
        <time>2022-10-26T10:56:51Z</time>
      </trkpt>
      <trkpt lat="10.275103" lon="-67.758163">
        <ele>448.00</ele>
        <time>2022-10-26T10:56:52Z</time>
      </trkpt>
      <trkpt lat="10.275127" lon="-67.758104">
        <ele>448.10</ele>
        <time>2022-10-26T10:56:53Z</time>
      </trkpt>
      <trkpt lat="10.275151" lon="-67.758050">
        <ele>448.10</ele>
        <time>2022-10-26T10:56:54Z</time>
      </trkpt>
      <trkpt lat="10.275177" lon="-67.758000">
        <ele>448.10</ele>
        <time>2022-10-26T10:56:55Z</time>
      </trkpt>
      <trkpt lat="10.275202" lon="-67.757950">
        <ele>448.10</ele>
        <time>2022-10-26T10:56:56Z</time>
      </trkpt>
      <trkpt lat="10.275225" lon="-67.757899">
        <ele>448.10</ele>
        <time>2022-10-26T10:56:57Z</time>
      </trkpt>
      <trkpt lat="10.275242" lon="-67.757850">
        <ele>448.10</ele>
        <time>2022-10-26T10:56:58Z</time>
      </trkpt>
      <trkpt lat="10.275263" lon="-67.757801">
        <ele>448.20</ele>
        <time>2022-10-26T10:56:59Z</time>
      </trkpt>
      <trkpt lat="10.275286" lon="-67.757751">
        <ele>448.20</ele>
        <time>2022-10-26T10:57:00Z</time>
      </trkpt>
      <trkpt lat="10.275310" lon="-67.757702">
        <ele>448.20</ele>
        <time>2022-10-26T10:57:01Z</time>
      </trkpt>
      <trkpt lat="10.275336" lon="-67.757651">
        <ele>448.20</ele>
        <time>2022-10-26T10:57:02Z</time>
      </trkpt>
      <trkpt lat="10.275360" lon="-67.757596">
        <ele>448.20</ele>
        <time>2022-10-26T10:57:03Z</time>
      </trkpt>
      <trkpt lat="10.275386" lon="-67.757546">
        <ele>448.30</ele>
        <time>2022-10-26T10:57:04Z</time>
      </trkpt>
      <trkpt lat="10.275408" lon="-67.757493">
        <ele>448.30</ele>
        <time>2022-10-26T10:57:05Z</time>
      </trkpt>
      <trkpt lat="10.275429" lon="-67.757437">
        <ele>448.30</ele>
        <time>2022-10-26T10:57:06Z</time>
      </trkpt>
      <trkpt lat="10.275450" lon="-67.757378">
        <ele>448.30</ele>
        <time>2022-10-26T10:57:07Z</time>
      </trkpt>
      <trkpt lat="10.275466" lon="-67.757318">
        <ele>448.40</ele>
        <time>2022-10-26T10:57:08Z</time>
      </trkpt>
      <trkpt lat="10.275481" lon="-67.757257">
        <ele>448.40</ele>
        <time>2022-10-26T10:57:09Z</time>
      </trkpt>
      <trkpt lat="10.275495" lon="-67.757199">
        <ele>448.40</ele>
        <time>2022-10-26T10:57:10Z</time>
      </trkpt>
      <trkpt lat="10.275507" lon="-67.757141">
        <ele>448.50</ele>
        <time>2022-10-26T10:57:11Z</time>
      </trkpt>
      <trkpt lat="10.275517" lon="-67.757086">
        <ele>448.50</ele>
        <time>2022-10-26T10:57:12Z</time>
      </trkpt>
      <trkpt lat="10.275526" lon="-67.757033">
        <ele>448.50</ele>
        <time>2022-10-26T10:57:13Z</time>
      </trkpt>
      <trkpt lat="10.275533" lon="-67.756982">
        <ele>448.60</ele>
        <time>2022-10-26T10:57:14Z</time>
      </trkpt>
      <trkpt lat="10.275544" lon="-67.756927">
        <ele>448.60</ele>
        <time>2022-10-26T10:57:15Z</time>
      </trkpt>
      <trkpt lat="10.275561" lon="-67.756875">
        <ele>448.60</ele>
        <time>2022-10-26T10:57:16Z</time>
      </trkpt>
      <trkpt lat="10.275573" lon="-67.756822">
        <ele>448.70</ele>
        <time>2022-10-26T10:57:17Z</time>
      </trkpt>
      <trkpt lat="10.275585" lon="-67.756774">
        <ele>448.70</ele>
        <time>2022-10-26T10:57:18Z</time>
      </trkpt>
      <trkpt lat="10.275597" lon="-67.756727">
        <ele>448.70</ele>
        <time>2022-10-26T10:57:19Z</time>
      </trkpt>
      <trkpt lat="10.275609" lon="-67.756680">
        <ele>448.70</ele>
        <time>2022-10-26T10:57:20Z</time>
      </trkpt>
      <trkpt lat="10.275622" lon="-67.756632">
        <ele>448.80</ele>
        <time>2022-10-26T10:57:21Z</time>
      </trkpt>
      <trkpt lat="10.275634" lon="-67.756582">
        <ele>448.80</ele>
        <time>2022-10-26T10:57:22Z</time>
      </trkpt>
      <trkpt lat="10.275647" lon="-67.756530">
        <ele>448.90</ele>
        <time>2022-10-26T10:57:23Z</time>
      </trkpt>
      <trkpt lat="10.275663" lon="-67.756476">
        <ele>449.00</ele>
        <time>2022-10-26T10:57:24Z</time>
      </trkpt>
      <trkpt lat="10.275680" lon="-67.756423">
        <ele>449.00</ele>
        <time>2022-10-26T10:57:25Z</time>
      </trkpt>
      <trkpt lat="10.275701" lon="-67.756370">
        <ele>449.00</ele>
        <time>2022-10-26T10:57:26Z</time>
      </trkpt>
      <trkpt lat="10.275723" lon="-67.756321">
        <ele>449.00</ele>
        <time>2022-10-26T10:57:27Z</time>
      </trkpt>
      <trkpt lat="10.275748" lon="-67.756271">
        <ele>449.00</ele>
        <time>2022-10-26T10:57:28Z</time>
      </trkpt>
      <trkpt lat="10.275775" lon="-67.756221">
        <ele>449.10</ele>
        <time>2022-10-26T10:57:29Z</time>
      </trkpt>
      <trkpt lat="10.275798" lon="-67.756170">
        <ele>449.10</ele>
        <time>2022-10-26T10:57:30Z</time>
      </trkpt>
      <trkpt lat="10.275818" lon="-67.756120">
        <ele>449.10</ele>
        <time>2022-10-26T10:57:31Z</time>
      </trkpt>
      <trkpt lat="10.275837" lon="-67.756072">
        <ele>449.10</ele>
        <time>2022-10-26T10:57:32Z</time>
      </trkpt>
      <trkpt lat="10.275857" lon="-67.756023">
        <ele>449.10</ele>
        <time>2022-10-26T10:57:33Z</time>
      </trkpt>
      <trkpt lat="10.275878" lon="-67.755976">
        <ele>449.10</ele>
        <time>2022-10-26T10:57:34Z</time>
      </trkpt>
      <trkpt lat="10.275899" lon="-67.755929">
        <ele>449.20</ele>
        <time>2022-10-26T10:57:35Z</time>
      </trkpt>
      <trkpt lat="10.275919" lon="-67.755882">
        <ele>449.20</ele>
        <time>2022-10-26T10:57:36Z</time>
      </trkpt>
      <trkpt lat="10.275943" lon="-67.755835">
        <ele>449.20</ele>
        <time>2022-10-26T10:57:37Z</time>
      </trkpt>
      <trkpt lat="10.275957" lon="-67.755785">
        <ele>449.20</ele>
        <time>2022-10-26T10:57:38Z</time>
      </trkpt>
      <trkpt lat="10.275972" lon="-67.755745">
        <ele>449.20</ele>
        <time>2022-10-26T10:57:39Z</time>
      </trkpt>
      <trkpt lat="10.275989" lon="-67.755707">
        <ele>449.20</ele>
        <time>2022-10-26T10:57:40Z</time>
      </trkpt>
      <trkpt lat="10.276011" lon="-67.755664">
        <ele>449.20</ele>
        <time>2022-10-26T10:57:41Z</time>
      </trkpt>
      <trkpt lat="10.276042" lon="-67.755613">
        <ele>449.30</ele>
        <time>2022-10-26T10:57:42Z</time>
      </trkpt>
      <trkpt lat="10.276072" lon="-67.755554">
        <ele>449.30</ele>
        <time>2022-10-26T10:57:43Z</time>
      </trkpt>
      <trkpt lat="10.276095" lon="-67.755499">
        <ele>449.30</ele>
        <time>2022-10-26T10:57:44Z</time>
      </trkpt>
      <trkpt lat="10.276114" lon="-67.755446">
        <ele>449.30</ele>
        <time>2022-10-26T10:57:45Z</time>
      </trkpt>
      <trkpt lat="10.276132" lon="-67.755397">
        <ele>449.30</ele>
        <time>2022-10-26T10:57:46Z</time>
      </trkpt>
      <trkpt lat="10.276148" lon="-67.755348">
        <ele>449.30</ele>
        <time>2022-10-26T10:57:47Z</time>
      </trkpt>
      <trkpt lat="10.276163" lon="-67.755306">
        <ele>449.30</ele>
        <time>2022-10-26T10:57:48Z</time>
      </trkpt>
      <trkpt lat="10.276176" lon="-67.755259">
        <ele>449.30</ele>
        <time>2022-10-26T10:57:49Z</time>
      </trkpt>
      <trkpt lat="10.276188" lon="-67.755213">
        <ele>449.30</ele>
        <time>2022-10-26T10:57:50Z</time>
      </trkpt>
      <trkpt lat="10.276205" lon="-67.755170">
        <ele>449.30</ele>
        <time>2022-10-26T10:57:51Z</time>
      </trkpt>
      <trkpt lat="10.276219" lon="-67.755128">
        <ele>449.40</ele>
        <time>2022-10-26T10:57:52Z</time>
      </trkpt>
      <trkpt lat="10.276233" lon="-67.755087">
        <ele>449.40</ele>
        <time>2022-10-26T10:57:53Z</time>
      </trkpt>
      <trkpt lat="10.276243" lon="-67.755045">
        <ele>449.40</ele>
        <time>2022-10-26T10:57:54Z</time>
      </trkpt>
      <trkpt lat="10.276253" lon="-67.755001">
        <ele>449.40</ele>
        <time>2022-10-26T10:57:55Z</time>
      </trkpt>
      <trkpt lat="10.276263" lon="-67.754953">
        <ele>449.40</ele>
        <time>2022-10-26T10:57:56Z</time>
      </trkpt>
      <trkpt lat="10.276276" lon="-67.754907">
        <ele>449.40</ele>
        <time>2022-10-26T10:57:57Z</time>
      </trkpt>
      <trkpt lat="10.276291" lon="-67.754861">
        <ele>449.40</ele>
        <time>2022-10-26T10:57:58Z</time>
      </trkpt>
      <trkpt lat="10.276307" lon="-67.754813">
        <ele>449.40</ele>
        <time>2022-10-26T10:57:59Z</time>
      </trkpt>
      <trkpt lat="10.276324" lon="-67.754765">
        <ele>449.40</ele>
        <time>2022-10-26T10:58:00Z</time>
      </trkpt>
      <trkpt lat="10.276342" lon="-67.754716">
        <ele>449.40</ele>
        <time>2022-10-26T10:58:01Z</time>
      </trkpt>
      <trkpt lat="10.276359" lon="-67.754665">
        <ele>449.40</ele>
        <time>2022-10-26T10:58:02Z</time>
      </trkpt>
      <trkpt lat="10.276376" lon="-67.754612">
        <ele>449.40</ele>
        <time>2022-10-26T10:58:03Z</time>
      </trkpt>
      <trkpt lat="10.276393" lon="-67.754562">
        <ele>449.40</ele>
        <time>2022-10-26T10:58:04Z</time>
      </trkpt>
      <trkpt lat="10.276411" lon="-67.754509">
        <ele>449.40</ele>
        <time>2022-10-26T10:58:05Z</time>
      </trkpt>
      <trkpt lat="10.276428" lon="-67.754450">
        <ele>449.40</ele>
        <time>2022-10-26T10:58:06Z</time>
      </trkpt>
      <trkpt lat="10.276444" lon="-67.754388">
        <ele>449.40</ele>
        <time>2022-10-26T10:58:07Z</time>
      </trkpt>
      <trkpt lat="10.276460" lon="-67.754328">
        <ele>449.40</ele>
        <time>2022-10-26T10:58:08Z</time>
      </trkpt>
      <trkpt lat="10.276477" lon="-67.754266">
        <ele>449.40</ele>
        <time>2022-10-26T10:58:09Z</time>
      </trkpt>
      <trkpt lat="10.276496" lon="-67.754209">
        <ele>449.30</ele>
        <time>2022-10-26T10:58:10Z</time>
      </trkpt>
      <trkpt lat="10.276517" lon="-67.754155">
        <ele>449.30</ele>
        <time>2022-10-26T10:58:11Z</time>
      </trkpt>
      <trkpt lat="10.276538" lon="-67.754099">
        <ele>449.30</ele>
        <time>2022-10-26T10:58:12Z</time>
      </trkpt>
      <trkpt lat="10.276553" lon="-67.754044">
        <ele>449.30</ele>
        <time>2022-10-26T10:58:13Z</time>
      </trkpt>
      <trkpt lat="10.276569" lon="-67.753989">
        <ele>449.30</ele>
        <time>2022-10-26T10:58:14Z</time>
      </trkpt>
      <trkpt lat="10.276586" lon="-67.753936">
        <ele>449.20</ele>
        <time>2022-10-26T10:58:15Z</time>
      </trkpt>
      <trkpt lat="10.276602" lon="-67.753886">
        <ele>449.20</ele>
        <time>2022-10-26T10:58:16Z</time>
      </trkpt>
      <trkpt lat="10.276621" lon="-67.753832">
        <ele>449.20</ele>
        <time>2022-10-26T10:58:17Z</time>
      </trkpt>
      <trkpt lat="10.276635" lon="-67.753778">
        <ele>449.20</ele>
        <time>2022-10-26T10:58:18Z</time>
      </trkpt>
      <trkpt lat="10.276646" lon="-67.753723">
        <ele>449.10</ele>
        <time>2022-10-26T10:58:19Z</time>
      </trkpt>
      <trkpt lat="10.276654" lon="-67.753670">
        <ele>449.10</ele>
        <time>2022-10-26T10:58:20Z</time>
      </trkpt>
      <trkpt lat="10.276664" lon="-67.753615">
        <ele>449.00</ele>
        <time>2022-10-26T10:58:21Z</time>
      </trkpt>
      <trkpt lat="10.276678" lon="-67.753555">
        <ele>449.00</ele>
        <time>2022-10-26T10:58:22Z</time>
      </trkpt>
      <trkpt lat="10.276699" lon="-67.753490">
        <ele>448.90</ele>
        <time>2022-10-26T10:58:23Z</time>
      </trkpt>
      <trkpt lat="10.276720" lon="-67.753428">
        <ele>448.90</ele>
        <time>2022-10-26T10:58:24Z</time>
      </trkpt>
      <trkpt lat="10.276741" lon="-67.753362">
        <ele>448.80</ele>
        <time>2022-10-26T10:58:25Z</time>
      </trkpt>
      <trkpt lat="10.276761" lon="-67.753297">
        <ele>448.70</ele>
        <time>2022-10-26T10:58:26Z</time>
      </trkpt>
      <trkpt lat="10.276783" lon="-67.753235">
        <ele>448.70</ele>
        <time>2022-10-26T10:58:27Z</time>
      </trkpt>
      <trkpt lat="10.276806" lon="-67.753176">
        <ele>448.60</ele>
        <time>2022-10-26T10:58:28Z</time>
      </trkpt>
      <trkpt lat="10.276829" lon="-67.753121">
        <ele>448.60</ele>
        <time>2022-10-26T10:58:29Z</time>
      </trkpt>
      <trkpt lat="10.276852" lon="-67.753063">
        <ele>448.50</ele>
        <time>2022-10-26T10:58:30Z</time>
      </trkpt>
      <trkpt lat="10.276876" lon="-67.753000">
        <ele>448.50</ele>
        <time>2022-10-26T10:58:31Z</time>
      </trkpt>
      <trkpt lat="10.276898" lon="-67.752937">
        <ele>448.40</ele>
        <time>2022-10-26T10:58:32Z</time>
      </trkpt>
      <trkpt lat="10.276923" lon="-67.752870">
        <ele>448.40</ele>
        <time>2022-10-26T10:58:33Z</time>
      </trkpt>
      <trkpt lat="10.276945" lon="-67.752805">
        <ele>448.30</ele>
        <time>2022-10-26T10:58:34Z</time>
      </trkpt>
      <trkpt lat="10.276967" lon="-67.752736">
        <ele>448.20</ele>
        <time>2022-10-26T10:58:35Z</time>
      </trkpt>
      <trkpt lat="10.276989" lon="-67.752667">
        <ele>448.10</ele>
        <time>2022-10-26T10:58:36Z</time>
      </trkpt>
      <trkpt lat="10.277013" lon="-67.752597">
        <ele>448.00</ele>
        <time>2022-10-26T10:58:37Z</time>
      </trkpt>
      <trkpt lat="10.277036" lon="-67.752529">
        <ele>447.90</ele>
        <time>2022-10-26T10:58:38Z</time>
      </trkpt>
      <trkpt lat="10.277060" lon="-67.752460">
        <ele>447.80</ele>
        <time>2022-10-26T10:58:39Z</time>
      </trkpt>
      <trkpt lat="10.277082" lon="-67.752392">
        <ele>447.70</ele>
        <time>2022-10-26T10:58:40Z</time>
      </trkpt>
      <trkpt lat="10.277103" lon="-67.752325">
        <ele>447.60</ele>
        <time>2022-10-26T10:58:41Z</time>
      </trkpt>
      <trkpt lat="10.277124" lon="-67.752259">
        <ele>447.50</ele>
        <time>2022-10-26T10:58:42Z</time>
      </trkpt>
      <trkpt lat="10.277144" lon="-67.752192">
        <ele>447.40</ele>
        <time>2022-10-26T10:58:43Z</time>
      </trkpt>
      <trkpt lat="10.277163" lon="-67.752123">
        <ele>447.30</ele>
        <time>2022-10-26T10:58:44Z</time>
      </trkpt>
      <trkpt lat="10.277186" lon="-67.752055">
        <ele>447.20</ele>
        <time>2022-10-26T10:58:45Z</time>
      </trkpt>
      <trkpt lat="10.277207" lon="-67.751993">
        <ele>447.10</ele>
        <time>2022-10-26T10:58:46Z</time>
      </trkpt>
      <trkpt lat="10.277228" lon="-67.751931">
        <ele>447.00</ele>
        <time>2022-10-26T10:58:47Z</time>
      </trkpt>
      <trkpt lat="10.277254" lon="-67.751868">
        <ele>446.90</ele>
        <time>2022-10-26T10:58:48Z</time>
      </trkpt>
      <trkpt lat="10.277282" lon="-67.751805">
        <ele>446.80</ele>
        <time>2022-10-26T10:58:49Z</time>
      </trkpt>
      <trkpt lat="10.277310" lon="-67.751739">
        <ele>446.70</ele>
        <time>2022-10-26T10:58:50Z</time>
      </trkpt>
      <trkpt lat="10.277339" lon="-67.751670">
        <ele>446.60</ele>
        <time>2022-10-26T10:58:51Z</time>
      </trkpt>
      <trkpt lat="10.277366" lon="-67.751598">
        <ele>446.50</ele>
        <time>2022-10-26T10:58:52Z</time>
      </trkpt>
      <trkpt lat="10.277394" lon="-67.751523">
        <ele>446.40</ele>
        <time>2022-10-26T10:58:53Z</time>
      </trkpt>
      <trkpt lat="10.277422" lon="-67.751450">
        <ele>446.30</ele>
        <time>2022-10-26T10:58:54Z</time>
      </trkpt>
      <trkpt lat="10.277449" lon="-67.751372">
        <ele>446.10</ele>
        <time>2022-10-26T10:58:55Z</time>
      </trkpt>
      <trkpt lat="10.277479" lon="-67.751293">
        <ele>446.00</ele>
        <time>2022-10-26T10:58:56Z</time>
      </trkpt>
      <trkpt lat="10.277506" lon="-67.751211">
        <ele>445.80</ele>
        <time>2022-10-26T10:58:57Z</time>
      </trkpt>
      <trkpt lat="10.277529" lon="-67.751134">
        <ele>445.70</ele>
        <time>2022-10-26T10:58:58Z</time>
      </trkpt>
      <trkpt lat="10.277552" lon="-67.751052">
        <ele>445.60</ele>
        <time>2022-10-26T10:58:59Z</time>
      </trkpt>
      <trkpt lat="10.277578" lon="-67.750972">
        <ele>445.40</ele>
        <time>2022-10-26T10:59:00Z</time>
      </trkpt>
      <trkpt lat="10.277606" lon="-67.750890">
        <ele>445.30</ele>
        <time>2022-10-26T10:59:01Z</time>
      </trkpt>
      <trkpt lat="10.277633" lon="-67.750818">
        <ele>445.20</ele>
        <time>2022-10-26T10:59:02Z</time>
      </trkpt>
      <trkpt lat="10.277662" lon="-67.750740">
        <ele>445.00</ele>
        <time>2022-10-26T10:59:03Z</time>
      </trkpt>
      <trkpt lat="10.277691" lon="-67.750661">
        <ele>444.90</ele>
        <time>2022-10-26T10:59:04Z</time>
      </trkpt>
      <trkpt lat="10.277719" lon="-67.750583">
        <ele>444.80</ele>
        <time>2022-10-26T10:59:05Z</time>
      </trkpt>
      <trkpt lat="10.277746" lon="-67.750509">
        <ele>444.70</ele>
        <time>2022-10-26T10:59:06Z</time>
      </trkpt>
      <trkpt lat="10.277771" lon="-67.750440">
        <ele>444.60</ele>
        <time>2022-10-26T10:59:07Z</time>
      </trkpt>
      <trkpt lat="10.277796" lon="-67.750367">
        <ele>444.50</ele>
        <time>2022-10-26T10:59:08Z</time>
      </trkpt>
      <trkpt lat="10.277817" lon="-67.750297">
        <ele>444.40</ele>
        <time>2022-10-26T10:59:09Z</time>
      </trkpt>
      <trkpt lat="10.277841" lon="-67.750227">
        <ele>444.30</ele>
        <time>2022-10-26T10:59:10Z</time>
      </trkpt>
      <trkpt lat="10.277866" lon="-67.750158">
        <ele>444.30</ele>
        <time>2022-10-26T10:59:11Z</time>
      </trkpt>
      <trkpt lat="10.277893" lon="-67.750090">
        <ele>444.20</ele>
        <time>2022-10-26T10:59:12Z</time>
      </trkpt>
      <trkpt lat="10.277923" lon="-67.750018">
        <ele>444.10</ele>
        <time>2022-10-26T10:59:13Z</time>
      </trkpt>
      <trkpt lat="10.277952" lon="-67.749942">
        <ele>444.00</ele>
        <time>2022-10-26T10:59:14Z</time>
      </trkpt>
      <trkpt lat="10.277977" lon="-67.749860">
        <ele>444.00</ele>
        <time>2022-10-26T10:59:15Z</time>
      </trkpt>
      <trkpt lat="10.277999" lon="-67.749781">
        <ele>443.90</ele>
        <time>2022-10-26T10:59:16Z</time>
      </trkpt>
      <trkpt lat="10.278021" lon="-67.749704">
        <ele>443.90</ele>
        <time>2022-10-26T10:59:17Z</time>
      </trkpt>
      <trkpt lat="10.278045" lon="-67.749629">
        <ele>443.80</ele>
        <time>2022-10-26T10:59:18Z</time>
      </trkpt>
      <trkpt lat="10.278067" lon="-67.749556">
        <ele>443.80</ele>
        <time>2022-10-26T10:59:19Z</time>
      </trkpt>
      <trkpt lat="10.278091" lon="-67.749488">
        <ele>443.70</ele>
        <time>2022-10-26T10:59:20Z</time>
      </trkpt>
      <trkpt lat="10.278118" lon="-67.749418">
        <ele>443.70</ele>
        <time>2022-10-26T10:59:21Z</time>
      </trkpt>
      <trkpt lat="10.278143" lon="-67.749348">
        <ele>443.70</ele>
        <time>2022-10-26T10:59:22Z</time>
      </trkpt>
      <trkpt lat="10.278165" lon="-67.749277">
        <ele>443.70</ele>
        <time>2022-10-26T10:59:23Z</time>
      </trkpt>
      <trkpt lat="10.278184" lon="-67.749205">
        <ele>443.60</ele>
        <time>2022-10-26T10:59:24Z</time>
      </trkpt>
      <trkpt lat="10.278201" lon="-67.749132">
        <ele>443.60</ele>
        <time>2022-10-26T10:59:25Z</time>
      </trkpt>
      <trkpt lat="10.278219" lon="-67.749060">
        <ele>443.60</ele>
        <time>2022-10-26T10:59:26Z</time>
      </trkpt>
      <trkpt lat="10.278242" lon="-67.748982">
        <ele>443.60</ele>
        <time>2022-10-26T10:59:27Z</time>
      </trkpt>
      <trkpt lat="10.278269" lon="-67.748904">
        <ele>443.60</ele>
        <time>2022-10-26T10:59:28Z</time>
      </trkpt>
      <trkpt lat="10.278298" lon="-67.748824">
        <ele>443.60</ele>
        <time>2022-10-26T10:59:29Z</time>
      </trkpt>
      <trkpt lat="10.278327" lon="-67.748748">
        <ele>443.60</ele>
        <time>2022-10-26T10:59:30Z</time>
      </trkpt>
      <trkpt lat="10.278356" lon="-67.748670">
        <ele>443.70</ele>
        <time>2022-10-26T10:59:31Z</time>
      </trkpt>
      <trkpt lat="10.278385" lon="-67.748594">
        <ele>443.70</ele>
        <time>2022-10-26T10:59:32Z</time>
      </trkpt>
      <trkpt lat="10.278414" lon="-67.748517">
        <ele>443.70</ele>
        <time>2022-10-26T10:59:33Z</time>
      </trkpt>
      <trkpt lat="10.278445" lon="-67.748436">
        <ele>443.70</ele>
        <time>2022-10-26T10:59:34Z</time>
      </trkpt>
      <trkpt lat="10.278480" lon="-67.748350">
        <ele>443.70</ele>
        <time>2022-10-26T10:59:35Z</time>
      </trkpt>
      <trkpt lat="10.278513" lon="-67.748264">
        <ele>443.70</ele>
        <time>2022-10-26T10:59:36Z</time>
      </trkpt>
      <trkpt lat="10.278542" lon="-67.748178">
        <ele>443.70</ele>
        <time>2022-10-26T10:59:37Z</time>
      </trkpt>
      <trkpt lat="10.278575" lon="-67.748091">
        <ele>443.80</ele>
        <time>2022-10-26T10:59:38Z</time>
      </trkpt>
      <trkpt lat="10.278604" lon="-67.748004">
        <ele>443.80</ele>
        <time>2022-10-26T10:59:39Z</time>
      </trkpt>
      <trkpt lat="10.278635" lon="-67.747917">
        <ele>443.80</ele>
        <time>2022-10-26T10:59:40Z</time>
      </trkpt>
      <trkpt lat="10.278666" lon="-67.747827">
        <ele>443.80</ele>
        <time>2022-10-26T10:59:41Z</time>
      </trkpt>
      <trkpt lat="10.278699" lon="-67.747734">
        <ele>443.90</ele>
        <time>2022-10-26T10:59:42Z</time>
      </trkpt>
      <trkpt lat="10.278725" lon="-67.747637">
        <ele>443.90</ele>
        <time>2022-10-26T10:59:43Z</time>
      </trkpt>
      <trkpt lat="10.278752" lon="-67.747542">
        <ele>443.90</ele>
        <time>2022-10-26T10:59:44Z</time>
      </trkpt>
      <trkpt lat="10.278779" lon="-67.747451">
        <ele>444.00</ele>
        <time>2022-10-26T10:59:45Z</time>
      </trkpt>
      <trkpt lat="10.278807" lon="-67.747363">
        <ele>444.00</ele>
        <time>2022-10-26T10:59:46Z</time>
      </trkpt>
      <trkpt lat="10.278835" lon="-67.747274">
        <ele>444.10</ele>
        <time>2022-10-26T10:59:47Z</time>
      </trkpt>
      <trkpt lat="10.278873" lon="-67.747185">
        <ele>444.10</ele>
        <time>2022-10-26T10:59:48Z</time>
      </trkpt>
      <trkpt lat="10.278910" lon="-67.747095">
        <ele>444.10</ele>
        <time>2022-10-26T10:59:49Z</time>
      </trkpt>
      <trkpt lat="10.278944" lon="-67.747009">
        <ele>444.20</ele>
        <time>2022-10-26T10:59:50Z</time>
      </trkpt>
      <trkpt lat="10.278977" lon="-67.746920">
        <ele>444.20</ele>
        <time>2022-10-26T10:59:51Z</time>
      </trkpt>
      <trkpt lat="10.279009" lon="-67.746833">
        <ele>444.20</ele>
        <time>2022-10-26T10:59:52Z</time>
      </trkpt>
      <trkpt lat="10.279040" lon="-67.746746">
        <ele>444.30</ele>
        <time>2022-10-26T10:59:53Z</time>
      </trkpt>
      <trkpt lat="10.279073" lon="-67.746656">
        <ele>444.30</ele>
        <time>2022-10-26T10:59:54Z</time>
      </trkpt>
      <trkpt lat="10.279110" lon="-67.746569">
        <ele>444.30</ele>
        <time>2022-10-26T10:59:55Z</time>
      </trkpt>
      <trkpt lat="10.279143" lon="-67.746490">
        <ele>444.40</ele>
        <time>2022-10-26T10:59:56Z</time>
      </trkpt>
      <trkpt lat="10.279173" lon="-67.746416">
        <ele>444.40</ele>
        <time>2022-10-26T10:59:57Z</time>
      </trkpt>
      <trkpt lat="10.279203" lon="-67.746336">
        <ele>444.50</ele>
        <time>2022-10-26T10:59:58Z</time>
      </trkpt>
      <trkpt lat="10.279230" lon="-67.746259">
        <ele>444.50</ele>
        <time>2022-10-26T10:59:59Z</time>
      </trkpt>
      <trkpt lat="10.279255" lon="-67.746182">
        <ele>444.50</ele>
        <time>2022-10-26T11:00:00Z</time>
      </trkpt>
      <trkpt lat="10.279282" lon="-67.746107">
        <ele>444.50</ele>
        <time>2022-10-26T11:00:01Z</time>
      </trkpt>
      <trkpt lat="10.279308" lon="-67.746032">
        <ele>444.60</ele>
        <time>2022-10-26T11:00:02Z</time>
      </trkpt>
      <trkpt lat="10.279329" lon="-67.745961">
        <ele>444.60</ele>
        <time>2022-10-26T11:00:03Z</time>
      </trkpt>
      <trkpt lat="10.279349" lon="-67.745886">
        <ele>444.60</ele>
        <time>2022-10-26T11:00:04Z</time>
      </trkpt>
      <trkpt lat="10.279368" lon="-67.745810">
        <ele>444.60</ele>
        <time>2022-10-26T11:00:05Z</time>
      </trkpt>
      <trkpt lat="10.279389" lon="-67.745732">
        <ele>444.60</ele>
        <time>2022-10-26T11:00:06Z</time>
      </trkpt>
      <trkpt lat="10.279412" lon="-67.745653">
        <ele>444.60</ele>
        <time>2022-10-26T11:00:07Z</time>
      </trkpt>
      <trkpt lat="10.279435" lon="-67.745572">
        <ele>444.60</ele>
        <time>2022-10-26T11:00:08Z</time>
      </trkpt>
      <trkpt lat="10.279458" lon="-67.745491">
        <ele>444.60</ele>
        <time>2022-10-26T11:00:09Z</time>
      </trkpt>
      <trkpt lat="10.279481" lon="-67.745413">
        <ele>444.60</ele>
        <time>2022-10-26T11:00:10Z</time>
      </trkpt>
      <trkpt lat="10.279503" lon="-67.745336">
        <ele>444.60</ele>
        <time>2022-10-26T11:00:11Z</time>
      </trkpt>
      <trkpt lat="10.279527" lon="-67.745259">
        <ele>444.60</ele>
        <time>2022-10-26T11:00:12Z</time>
      </trkpt>
      <trkpt lat="10.279552" lon="-67.745185">
        <ele>444.60</ele>
        <time>2022-10-26T11:00:13Z</time>
      </trkpt>
      <trkpt lat="10.279578" lon="-67.745110">
        <ele>444.60</ele>
        <time>2022-10-26T11:00:14Z</time>
      </trkpt>
      <trkpt lat="10.279607" lon="-67.745034">
        <ele>444.50</ele>
        <time>2022-10-26T11:00:15Z</time>
      </trkpt>
      <trkpt lat="10.279635" lon="-67.744959">
        <ele>444.50</ele>
        <time>2022-10-26T11:00:16Z</time>
      </trkpt>
      <trkpt lat="10.279661" lon="-67.744884">
        <ele>444.50</ele>
        <time>2022-10-26T11:00:17Z</time>
      </trkpt>
      <trkpt lat="10.279692" lon="-67.744807">
        <ele>444.50</ele>
        <time>2022-10-26T11:00:18Z</time>
      </trkpt>
      <trkpt lat="10.279722" lon="-67.744734">
        <ele>444.40</ele>
        <time>2022-10-26T11:00:19Z</time>
      </trkpt>
      <trkpt lat="10.279751" lon="-67.744660">
        <ele>444.40</ele>
        <time>2022-10-26T11:00:20Z</time>
      </trkpt>
      <trkpt lat="10.279779" lon="-67.744590">
        <ele>444.30</ele>
        <time>2022-10-26T11:00:21Z</time>
      </trkpt>
      <trkpt lat="10.279804" lon="-67.744523">
        <ele>444.30</ele>
        <time>2022-10-26T11:00:22Z</time>
      </trkpt>
      <trkpt lat="10.279824" lon="-67.744455">
        <ele>444.20</ele>
        <time>2022-10-26T11:00:23Z</time>
      </trkpt>
      <trkpt lat="10.279843" lon="-67.744383">
        <ele>444.10</ele>
        <time>2022-10-26T11:00:24Z</time>
      </trkpt>
      <trkpt lat="10.279865" lon="-67.744313">
        <ele>444.10</ele>
        <time>2022-10-26T11:00:25Z</time>
      </trkpt>
      <trkpt lat="10.279889" lon="-67.744240">
        <ele>444.00</ele>
        <time>2022-10-26T11:00:26Z</time>
      </trkpt>
      <trkpt lat="10.279918" lon="-67.744168">
        <ele>444.00</ele>
        <time>2022-10-26T11:00:27Z</time>
      </trkpt>
      <trkpt lat="10.279945" lon="-67.744095">
        <ele>443.90</ele>
        <time>2022-10-26T11:00:28Z</time>
      </trkpt>
      <trkpt lat="10.279973" lon="-67.744023">
        <ele>443.80</ele>
        <time>2022-10-26T11:00:29Z</time>
      </trkpt>
      <trkpt lat="10.280004" lon="-67.743950">
        <ele>443.70</ele>
        <time>2022-10-26T11:00:30Z</time>
      </trkpt>
      <trkpt lat="10.280033" lon="-67.743877">
        <ele>443.60</ele>
        <time>2022-10-26T11:00:31Z</time>
      </trkpt>
      <trkpt lat="10.280064" lon="-67.743804">
        <ele>443.50</ele>
        <time>2022-10-26T11:00:32Z</time>
      </trkpt>
      <trkpt lat="10.280093" lon="-67.743734">
        <ele>443.40</ele>
        <time>2022-10-26T11:00:33Z</time>
      </trkpt>
      <trkpt lat="10.280121" lon="-67.743666">
        <ele>443.30</ele>
        <time>2022-10-26T11:00:34Z</time>
      </trkpt>
      <trkpt lat="10.280150" lon="-67.743599">
        <ele>443.20</ele>
        <time>2022-10-26T11:00:35Z</time>
      </trkpt>
      <trkpt lat="10.280176" lon="-67.743536">
        <ele>443.20</ele>
        <time>2022-10-26T11:00:36Z</time>
      </trkpt>
      <trkpt lat="10.280205" lon="-67.743471">
        <ele>443.00</ele>
        <time>2022-10-26T11:00:37Z</time>
      </trkpt>
      <trkpt lat="10.280230" lon="-67.743408">
        <ele>442.90</ele>
        <time>2022-10-26T11:00:38Z</time>
      </trkpt>
      <trkpt lat="10.280252" lon="-67.743346">
        <ele>442.80</ele>
        <time>2022-10-26T11:00:39Z</time>
      </trkpt>
      <trkpt lat="10.280274" lon="-67.743280">
        <ele>442.70</ele>
        <time>2022-10-26T11:00:40Z</time>
      </trkpt>
      <trkpt lat="10.280295" lon="-67.743214">
        <ele>442.60</ele>
        <time>2022-10-26T11:00:41Z</time>
      </trkpt>
      <trkpt lat="10.280315" lon="-67.743150">
        <ele>442.50</ele>
        <time>2022-10-26T11:00:42Z</time>
      </trkpt>
      <trkpt lat="10.280341" lon="-67.743085">
        <ele>442.40</ele>
        <time>2022-10-26T11:00:43Z</time>
      </trkpt>
      <trkpt lat="10.280367" lon="-67.743018">
        <ele>442.30</ele>
        <time>2022-10-26T11:00:44Z</time>
      </trkpt>
      <trkpt lat="10.280394" lon="-67.742959">
        <ele>442.20</ele>
        <time>2022-10-26T11:00:45Z</time>
      </trkpt>
      <trkpt lat="10.280424" lon="-67.742899">
        <ele>442.00</ele>
        <time>2022-10-26T11:00:46Z</time>
      </trkpt>
      <trkpt lat="10.280449" lon="-67.742842">
        <ele>442.00</ele>
        <time>2022-10-26T11:00:47Z</time>
      </trkpt>
      <trkpt lat="10.280472" lon="-67.742784">
        <ele>441.80</ele>
        <time>2022-10-26T11:00:48Z</time>
      </trkpt>
      <trkpt lat="10.280497" lon="-67.742726">
        <ele>441.70</ele>
        <time>2022-10-26T11:00:49Z</time>
      </trkpt>
      <trkpt lat="10.280520" lon="-67.742661">
        <ele>441.60</ele>
        <time>2022-10-26T11:00:50Z</time>
      </trkpt>
      <trkpt lat="10.280541" lon="-67.742598">
        <ele>441.40</ele>
        <time>2022-10-26T11:00:51Z</time>
      </trkpt>
      <trkpt lat="10.280564" lon="-67.742532">
        <ele>441.30</ele>
        <time>2022-10-26T11:00:52Z</time>
      </trkpt>
      <trkpt lat="10.280589" lon="-67.742468">
        <ele>441.10</ele>
        <time>2022-10-26T11:00:53Z</time>
      </trkpt>
      <trkpt lat="10.280616" lon="-67.742401">
        <ele>441.00</ele>
        <time>2022-10-26T11:00:54Z</time>
      </trkpt>
      <trkpt lat="10.280643" lon="-67.742335">
        <ele>440.80</ele>
        <time>2022-10-26T11:00:55Z</time>
      </trkpt>
      <trkpt lat="10.280670" lon="-67.742266">
        <ele>440.70</ele>
        <time>2022-10-26T11:00:56Z</time>
      </trkpt>
      <trkpt lat="10.280698" lon="-67.742197">
        <ele>440.50</ele>
        <time>2022-10-26T11:00:57Z</time>
      </trkpt>
      <trkpt lat="10.280721" lon="-67.742128">
        <ele>440.40</ele>
        <time>2022-10-26T11:00:58Z</time>
      </trkpt>
      <trkpt lat="10.280741" lon="-67.742060">
        <ele>440.30</ele>
        <time>2022-10-26T11:00:59Z</time>
      </trkpt>
      <trkpt lat="10.280758" lon="-67.741992">
        <ele>440.20</ele>
        <time>2022-10-26T11:01:00Z</time>
      </trkpt>
      <trkpt lat="10.280777" lon="-67.741929">
        <ele>440.10</ele>
        <time>2022-10-26T11:01:01Z</time>
      </trkpt>
      <trkpt lat="10.280800" lon="-67.741862">
        <ele>439.90</ele>
        <time>2022-10-26T11:01:02Z</time>
      </trkpt>
      <trkpt lat="10.280820" lon="-67.741797">
        <ele>439.80</ele>
        <time>2022-10-26T11:01:03Z</time>
      </trkpt>
      <trkpt lat="10.280841" lon="-67.741731">
        <ele>439.70</ele>
        <time>2022-10-26T11:01:04Z</time>
      </trkpt>
      <trkpt lat="10.280864" lon="-67.741666">
        <ele>439.60</ele>
        <time>2022-10-26T11:01:05Z</time>
      </trkpt>
      <trkpt lat="10.280886" lon="-67.741592">
        <ele>439.50</ele>
        <time>2022-10-26T11:01:06Z</time>
      </trkpt>
      <trkpt lat="10.280904" lon="-67.741521">
        <ele>439.40</ele>
        <time>2022-10-26T11:01:07Z</time>
      </trkpt>
      <trkpt lat="10.280924" lon="-67.741450">
        <ele>439.20</ele>
        <time>2022-10-26T11:01:08Z</time>
      </trkpt>
      <trkpt lat="10.280945" lon="-67.741382">
        <ele>439.10</ele>
        <time>2022-10-26T11:01:09Z</time>
      </trkpt>
      <trkpt lat="10.280970" lon="-67.741305">
        <ele>438.90</ele>
        <time>2022-10-26T11:01:10Z</time>
      </trkpt>
      <trkpt lat="10.280992" lon="-67.741228">
        <ele>438.80</ele>
        <time>2022-10-26T11:01:11Z</time>
      </trkpt>
      <trkpt lat="10.281014" lon="-67.741151">
        <ele>438.70</ele>
        <time>2022-10-26T11:01:12Z</time>
      </trkpt>
      <trkpt lat="10.281037" lon="-67.741074">
        <ele>438.70</ele>
        <time>2022-10-26T11:01:13Z</time>
      </trkpt>
      <trkpt lat="10.281058" lon="-67.740997">
        <ele>438.60</ele>
        <time>2022-10-26T11:01:14Z</time>
      </trkpt>
      <trkpt lat="10.281078" lon="-67.740922">
        <ele>438.50</ele>
        <time>2022-10-26T11:01:15Z</time>
      </trkpt>
      <trkpt lat="10.281097" lon="-67.740853">
        <ele>438.30</ele>
        <time>2022-10-26T11:01:16Z</time>
      </trkpt>
      <trkpt lat="10.281119" lon="-67.740786">
        <ele>438.20</ele>
        <time>2022-10-26T11:01:17Z</time>
      </trkpt>
      <trkpt lat="10.281139" lon="-67.740718">
        <ele>438.00</ele>
        <time>2022-10-26T11:01:18Z</time>
      </trkpt>
      <trkpt lat="10.281165" lon="-67.740650">
        <ele>437.80</ele>
        <time>2022-10-26T11:01:19Z</time>
      </trkpt>
      <trkpt lat="10.281189" lon="-67.740585">
        <ele>437.70</ele>
        <time>2022-10-26T11:01:20Z</time>
      </trkpt>
      <trkpt lat="10.281214" lon="-67.740521">
        <ele>437.60</ele>
        <time>2022-10-26T11:01:21Z</time>
      </trkpt>
      <trkpt lat="10.281239" lon="-67.740456">
        <ele>437.40</ele>
        <time>2022-10-26T11:01:22Z</time>
      </trkpt>
      <trkpt lat="10.281265" lon="-67.740391">
        <ele>437.30</ele>
        <time>2022-10-26T11:01:23Z</time>
      </trkpt>
      <trkpt lat="10.281290" lon="-67.740325">
        <ele>437.10</ele>
        <time>2022-10-26T11:01:24Z</time>
      </trkpt>
      <trkpt lat="10.281315" lon="-67.740259">
        <ele>437.00</ele>
        <time>2022-10-26T11:01:25Z</time>
      </trkpt>
      <trkpt lat="10.281340" lon="-67.740194">
        <ele>436.90</ele>
        <time>2022-10-26T11:01:26Z</time>
      </trkpt>
      <trkpt lat="10.281362" lon="-67.740129">
        <ele>436.70</ele>
        <time>2022-10-26T11:01:27Z</time>
      </trkpt>
      <trkpt lat="10.281382" lon="-67.740064">
        <ele>436.60</ele>
        <time>2022-10-26T11:01:28Z</time>
      </trkpt>
      <trkpt lat="10.281403" lon="-67.739998">
        <ele>436.40</ele>
        <time>2022-10-26T11:01:29Z</time>
      </trkpt>
      <trkpt lat="10.281421" lon="-67.739934">
        <ele>436.30</ele>
        <time>2022-10-26T11:01:30Z</time>
      </trkpt>
      <trkpt lat="10.281440" lon="-67.739873">
        <ele>436.20</ele>
        <time>2022-10-26T11:01:31Z</time>
      </trkpt>
      <trkpt lat="10.281462" lon="-67.739810">
        <ele>436.10</ele>
        <time>2022-10-26T11:01:32Z</time>
      </trkpt>
      <trkpt lat="10.281486" lon="-67.739748">
        <ele>436.00</ele>
        <time>2022-10-26T11:01:33Z</time>
      </trkpt>
      <trkpt lat="10.281510" lon="-67.739687">
        <ele>435.90</ele>
        <time>2022-10-26T11:01:34Z</time>
      </trkpt>
      <trkpt lat="10.281535" lon="-67.739623">
        <ele>435.80</ele>
        <time>2022-10-26T11:01:35Z</time>
      </trkpt>
      <trkpt lat="10.281564" lon="-67.739557">
        <ele>435.60</ele>
        <time>2022-10-26T11:01:36Z</time>
      </trkpt>
      <trkpt lat="10.281593" lon="-67.739488">
        <ele>435.50</ele>
        <time>2022-10-26T11:01:37Z</time>
      </trkpt>
      <trkpt lat="10.281620" lon="-67.739417">
        <ele>435.30</ele>
        <time>2022-10-26T11:01:38Z</time>
      </trkpt>
      <trkpt lat="10.281647" lon="-67.739344">
        <ele>435.20</ele>
        <time>2022-10-26T11:01:39Z</time>
      </trkpt>
      <trkpt lat="10.281674" lon="-67.739269">
        <ele>435.00</ele>
        <time>2022-10-26T11:01:40Z</time>
      </trkpt>
      <trkpt lat="10.281700" lon="-67.739192">
        <ele>434.90</ele>
        <time>2022-10-26T11:01:41Z</time>
      </trkpt>
      <trkpt lat="10.281731" lon="-67.739114">
        <ele>434.70</ele>
        <time>2022-10-26T11:01:42Z</time>
      </trkpt>
      <trkpt lat="10.281759" lon="-67.739036">
        <ele>434.60</ele>
        <time>2022-10-26T11:01:43Z</time>
      </trkpt>
      <trkpt lat="10.281785" lon="-67.738959">
        <ele>434.40</ele>
        <time>2022-10-26T11:01:44Z</time>
      </trkpt>
      <trkpt lat="10.281807" lon="-67.738885">
        <ele>434.30</ele>
        <time>2022-10-26T11:01:45Z</time>
      </trkpt>
      <trkpt lat="10.281832" lon="-67.738812">
        <ele>434.20</ele>
        <time>2022-10-26T11:01:46Z</time>
      </trkpt>
      <trkpt lat="10.281860" lon="-67.738734">
        <ele>434.00</ele>
        <time>2022-10-26T11:01:47Z</time>
      </trkpt>
      <trkpt lat="10.281891" lon="-67.738655">
        <ele>433.90</ele>
        <time>2022-10-26T11:01:48Z</time>
      </trkpt>
      <trkpt lat="10.281918" lon="-67.738573">
        <ele>433.80</ele>
        <time>2022-10-26T11:01:49Z</time>
      </trkpt>
      <trkpt lat="10.281940" lon="-67.738486">
        <ele>433.70</ele>
        <time>2022-10-26T11:01:50Z</time>
      </trkpt>
      <trkpt lat="10.281962" lon="-67.738402">
        <ele>433.70</ele>
        <time>2022-10-26T11:01:51Z</time>
      </trkpt>
      <trkpt lat="10.281984" lon="-67.738321">
        <ele>433.60</ele>
        <time>2022-10-26T11:01:52Z</time>
      </trkpt>
      <trkpt lat="10.282005" lon="-67.738244">
        <ele>433.40</ele>
        <time>2022-10-26T11:01:53Z</time>
      </trkpt>
      <trkpt lat="10.282027" lon="-67.738167">
        <ele>433.30</ele>
        <time>2022-10-26T11:01:54Z</time>
      </trkpt>
      <trkpt lat="10.282053" lon="-67.738093">
        <ele>433.20</ele>
        <time>2022-10-26T11:01:55Z</time>
      </trkpt>
      <trkpt lat="10.282082" lon="-67.738018">
        <ele>433.10</ele>
        <time>2022-10-26T11:01:56Z</time>
      </trkpt>
      <trkpt lat="10.282111" lon="-67.737947">
        <ele>433.00</ele>
        <time>2022-10-26T11:01:57Z</time>
      </trkpt>
      <trkpt lat="10.282138" lon="-67.737877">
        <ele>432.90</ele>
        <time>2022-10-26T11:01:58Z</time>
      </trkpt>
      <trkpt lat="10.282165" lon="-67.737811">
        <ele>432.80</ele>
        <time>2022-10-26T11:01:59Z</time>
      </trkpt>
      <trkpt lat="10.282197" lon="-67.737740">
        <ele>432.80</ele>
        <time>2022-10-26T11:02:00Z</time>
      </trkpt>
      <trkpt lat="10.282224" lon="-67.737671">
        <ele>432.70</ele>
        <time>2022-10-26T11:02:01Z</time>
      </trkpt>
      <trkpt lat="10.282245" lon="-67.737605">
        <ele>432.60</ele>
        <time>2022-10-26T11:02:02Z</time>
      </trkpt>
      <trkpt lat="10.282268" lon="-67.737542">
        <ele>432.60</ele>
        <time>2022-10-26T11:02:03Z</time>
      </trkpt>
      <trkpt lat="10.282291" lon="-67.737475">
        <ele>432.50</ele>
        <time>2022-10-26T11:02:04Z</time>
      </trkpt>
      <trkpt lat="10.282315" lon="-67.737406">
        <ele>432.50</ele>
        <time>2022-10-26T11:02:05Z</time>
      </trkpt>
      <trkpt lat="10.282341" lon="-67.737339">
        <ele>432.40</ele>
        <time>2022-10-26T11:02:06Z</time>
      </trkpt>
      <trkpt lat="10.282366" lon="-67.737272">
        <ele>432.40</ele>
        <time>2022-10-26T11:02:07Z</time>
      </trkpt>
      <trkpt lat="10.282394" lon="-67.737204">
        <ele>432.40</ele>
        <time>2022-10-26T11:02:08Z</time>
      </trkpt>
      <trkpt lat="10.282420" lon="-67.737136">
        <ele>432.30</ele>
        <time>2022-10-26T11:02:09Z</time>
      </trkpt>
      <trkpt lat="10.282446" lon="-67.737066">
        <ele>432.30</ele>
        <time>2022-10-26T11:02:10Z</time>
      </trkpt>
      <trkpt lat="10.282472" lon="-67.736996">
        <ele>432.30</ele>
        <time>2022-10-26T11:02:11Z</time>
      </trkpt>
      <trkpt lat="10.282497" lon="-67.736927">
        <ele>432.20</ele>
        <time>2022-10-26T11:02:12Z</time>
      </trkpt>
      <trkpt lat="10.282522" lon="-67.736857">
        <ele>432.20</ele>
        <time>2022-10-26T11:02:13Z</time>
      </trkpt>
      <trkpt lat="10.282548" lon="-67.736786">
        <ele>432.20</ele>
        <time>2022-10-26T11:02:14Z</time>
      </trkpt>
      <trkpt lat="10.282574" lon="-67.736713">
        <ele>432.20</ele>
        <time>2022-10-26T11:02:15Z</time>
      </trkpt>
      <trkpt lat="10.282598" lon="-67.736646">
        <ele>432.20</ele>
        <time>2022-10-26T11:02:16Z</time>
      </trkpt>
      <trkpt lat="10.282623" lon="-67.736582">
        <ele>432.20</ele>
        <time>2022-10-26T11:02:17Z</time>
      </trkpt>
      <trkpt lat="10.282652" lon="-67.736517">
        <ele>432.20</ele>
        <time>2022-10-26T11:02:18Z</time>
      </trkpt>
      <trkpt lat="10.282675" lon="-67.736450">
        <ele>432.20</ele>
        <time>2022-10-26T11:02:19Z</time>
      </trkpt>
      <trkpt lat="10.282698" lon="-67.736383">
        <ele>432.20</ele>
        <time>2022-10-26T11:02:20Z</time>
      </trkpt>
      <trkpt lat="10.282718" lon="-67.736317">
        <ele>432.20</ele>
        <time>2022-10-26T11:02:21Z</time>
      </trkpt>
      <trkpt lat="10.282733" lon="-67.736251">
        <ele>432.20</ele>
        <time>2022-10-26T11:02:22Z</time>
      </trkpt>
      <trkpt lat="10.282748" lon="-67.736185">
        <ele>432.20</ele>
        <time>2022-10-26T11:02:23Z</time>
      </trkpt>
      <trkpt lat="10.282763" lon="-67.736118">
        <ele>432.20</ele>
        <time>2022-10-26T11:02:24Z</time>
      </trkpt>
      <trkpt lat="10.282785" lon="-67.736054">
        <ele>432.20</ele>
        <time>2022-10-26T11:02:25Z</time>
      </trkpt>
      <trkpt lat="10.282808" lon="-67.735990">
        <ele>432.20</ele>
        <time>2022-10-26T11:02:26Z</time>
      </trkpt>
      <trkpt lat="10.282832" lon="-67.735922">
        <ele>432.30</ele>
        <time>2022-10-26T11:02:27Z</time>
      </trkpt>
      <trkpt lat="10.282855" lon="-67.735854">
        <ele>432.30</ele>
        <time>2022-10-26T11:02:28Z</time>
      </trkpt>
      <trkpt lat="10.282879" lon="-67.735783">
        <ele>432.30</ele>
        <time>2022-10-26T11:02:29Z</time>
      </trkpt>
      <trkpt lat="10.282904" lon="-67.735713">
        <ele>432.30</ele>
        <time>2022-10-26T11:02:30Z</time>
      </trkpt>
      <trkpt lat="10.282926" lon="-67.735643">
        <ele>432.30</ele>
        <time>2022-10-26T11:02:31Z</time>
      </trkpt>
      <trkpt lat="10.282945" lon="-67.735571">
        <ele>432.30</ele>
        <time>2022-10-26T11:02:32Z</time>
      </trkpt>
      <trkpt lat="10.282964" lon="-67.735500">
        <ele>432.30</ele>
        <time>2022-10-26T11:02:33Z</time>
      </trkpt>
      <trkpt lat="10.282982" lon="-67.735431">
        <ele>432.30</ele>
        <time>2022-10-26T11:02:34Z</time>
      </trkpt>
      <trkpt lat="10.283002" lon="-67.735363">
        <ele>432.30</ele>
        <time>2022-10-26T11:02:35Z</time>
      </trkpt>
      <trkpt lat="10.283021" lon="-67.735294">
        <ele>432.30</ele>
        <time>2022-10-26T11:02:36Z</time>
      </trkpt>
      <trkpt lat="10.283039" lon="-67.735224">
        <ele>432.30</ele>
        <time>2022-10-26T11:02:37Z</time>
      </trkpt>
      <trkpt lat="10.283060" lon="-67.735158">
        <ele>432.30</ele>
        <time>2022-10-26T11:02:38Z</time>
      </trkpt>
      <trkpt lat="10.283080" lon="-67.735093">
        <ele>432.30</ele>
        <time>2022-10-26T11:02:39Z</time>
      </trkpt>
      <trkpt lat="10.283101" lon="-67.735021">
        <ele>432.30</ele>
        <time>2022-10-26T11:02:40Z</time>
      </trkpt>
      <trkpt lat="10.283121" lon="-67.734955">
        <ele>432.20</ele>
        <time>2022-10-26T11:02:41Z</time>
      </trkpt>
      <trkpt lat="10.283147" lon="-67.734890">
        <ele>432.20</ele>
        <time>2022-10-26T11:02:42Z</time>
      </trkpt>
      <trkpt lat="10.283175" lon="-67.734827">
        <ele>432.20</ele>
        <time>2022-10-26T11:02:43Z</time>
      </trkpt>
      <trkpt lat="10.283205" lon="-67.734764">
        <ele>432.20</ele>
        <time>2022-10-26T11:02:44Z</time>
      </trkpt>
      <trkpt lat="10.283232" lon="-67.734698">
        <ele>432.20</ele>
        <time>2022-10-26T11:02:45Z</time>
      </trkpt>
      <trkpt lat="10.283260" lon="-67.734633">
        <ele>432.10</ele>
        <time>2022-10-26T11:02:46Z</time>
      </trkpt>
      <trkpt lat="10.283283" lon="-67.734569">
        <ele>432.10</ele>
        <time>2022-10-26T11:02:47Z</time>
      </trkpt>
      <trkpt lat="10.283304" lon="-67.734508">
        <ele>432.10</ele>
        <time>2022-10-26T11:02:48Z</time>
      </trkpt>
      <trkpt lat="10.283324" lon="-67.734444">
        <ele>432.10</ele>
        <time>2022-10-26T11:02:49Z</time>
      </trkpt>
      <trkpt lat="10.283339" lon="-67.734380">
        <ele>432.10</ele>
        <time>2022-10-26T11:02:50Z</time>
      </trkpt>
      <trkpt lat="10.283350" lon="-67.734315">
        <ele>432.20</ele>
        <time>2022-10-26T11:02:51Z</time>
      </trkpt>
      <trkpt lat="10.283361" lon="-67.734253">
        <ele>432.20</ele>
        <time>2022-10-26T11:02:52Z</time>
      </trkpt>
      <trkpt lat="10.283370" lon="-67.734192">
        <ele>432.20</ele>
        <time>2022-10-26T11:02:53Z</time>
      </trkpt>
      <trkpt lat="10.283379" lon="-67.734132">
        <ele>432.20</ele>
        <time>2022-10-26T11:02:54Z</time>
      </trkpt>
      <trkpt lat="10.283385" lon="-67.734074">
        <ele>432.20</ele>
        <time>2022-10-26T11:02:55Z</time>
      </trkpt>
      <trkpt lat="10.283391" lon="-67.734018">
        <ele>432.20</ele>
        <time>2022-10-26T11:02:56Z</time>
      </trkpt>
      <trkpt lat="10.283400" lon="-67.733960">
        <ele>432.20</ele>
        <time>2022-10-26T11:02:57Z</time>
      </trkpt>
      <trkpt lat="10.283448" lon="-67.733688">
        <ele>432.20</ele>
        <time>2022-10-26T11:03:02Z</time>
      </trkpt>
      <trkpt lat="10.283488" lon="-67.733643">
        <ele>432.20</ele>
        <time>2022-10-26T11:03:03Z</time>
      </trkpt>
      <trkpt lat="10.283503" lon="-67.733594">
        <ele>432.20</ele>
        <time>2022-10-26T11:03:04Z</time>
      </trkpt>
      <trkpt lat="10.283511" lon="-67.733540">
        <ele>432.20</ele>
        <time>2022-10-26T11:03:05Z</time>
      </trkpt>
      <trkpt lat="10.283508" lon="-67.733461">
        <ele>432.20</ele>
        <time>2022-10-26T11:03:06Z</time>
      </trkpt>
      <trkpt lat="10.283496" lon="-67.733394">
        <ele>432.30</ele>
        <time>2022-10-26T11:03:07Z</time>
      </trkpt>
      <trkpt lat="10.283496" lon="-67.733328">
        <ele>432.30</ele>
        <time>2022-10-26T11:03:08Z</time>
      </trkpt>
      <trkpt lat="10.283504" lon="-67.733282">
        <ele>432.30</ele>
        <time>2022-10-26T11:03:09Z</time>
      </trkpt>
      <trkpt lat="10.283510" lon="-67.733230">
        <ele>432.30</ele>
        <time>2022-10-26T11:03:10Z</time>
      </trkpt>
      <trkpt lat="10.283516" lon="-67.733173">
        <ele>432.30</ele>
        <time>2022-10-26T11:03:11Z</time>
      </trkpt>
      <trkpt lat="10.283513" lon="-67.733105">
        <ele>432.30</ele>
        <time>2022-10-26T11:03:12Z</time>
      </trkpt>
      <trkpt lat="10.283513" lon="-67.733044">
        <ele>432.30</ele>
        <time>2022-10-26T11:03:13Z</time>
      </trkpt>
      <trkpt lat="10.283510" lon="-67.732984">
        <ele>432.40</ele>
        <time>2022-10-26T11:03:14Z</time>
      </trkpt>
      <trkpt lat="10.283510" lon="-67.732921">
        <ele>432.40</ele>
        <time>2022-10-26T11:03:15Z</time>
      </trkpt>
      <trkpt lat="10.283512" lon="-67.732859">
        <ele>432.40</ele>
        <time>2022-10-26T11:03:16Z</time>
      </trkpt>
      <trkpt lat="10.283504" lon="-67.732792">
        <ele>432.40</ele>
        <time>2022-10-26T11:03:17Z</time>
      </trkpt>
      <trkpt lat="10.283499" lon="-67.732726">
        <ele>432.40</ele>
        <time>2022-10-26T11:03:18Z</time>
      </trkpt>
      <trkpt lat="10.283493" lon="-67.732661">
        <ele>432.40</ele>
        <time>2022-10-26T11:03:19Z</time>
      </trkpt>
      <trkpt lat="10.283492" lon="-67.732599">
        <ele>432.40</ele>
        <time>2022-10-26T11:03:20Z</time>
      </trkpt>
      <trkpt lat="10.283490" lon="-67.732536">
        <ele>432.40</ele>
        <time>2022-10-26T11:03:21Z</time>
      </trkpt>
      <trkpt lat="10.283487" lon="-67.732472">
        <ele>432.40</ele>
        <time>2022-10-26T11:03:22Z</time>
      </trkpt>
      <trkpt lat="10.283485" lon="-67.732409">
        <ele>432.40</ele>
        <time>2022-10-26T11:03:23Z</time>
      </trkpt>
      <trkpt lat="10.283482" lon="-67.732340">
        <ele>432.40</ele>
        <time>2022-10-26T11:03:24Z</time>
      </trkpt>
      <trkpt lat="10.283480" lon="-67.732273">
        <ele>432.40</ele>
        <time>2022-10-26T11:03:25Z</time>
      </trkpt>
      <trkpt lat="10.283477" lon="-67.732202">
        <ele>432.40</ele>
        <time>2022-10-26T11:03:26Z</time>
      </trkpt>
      <trkpt lat="10.283472" lon="-67.732137">
        <ele>432.40</ele>
        <time>2022-10-26T11:03:27Z</time>
      </trkpt>
      <trkpt lat="10.283472" lon="-67.732071">
        <ele>432.40</ele>
        <time>2022-10-26T11:03:28Z</time>
      </trkpt>
      <trkpt lat="10.283473" lon="-67.732006">
        <ele>432.40</ele>
        <time>2022-10-26T11:03:29Z</time>
      </trkpt>
      <trkpt lat="10.283472" lon="-67.731942">
        <ele>432.40</ele>
        <time>2022-10-26T11:03:30Z</time>
      </trkpt>
      <trkpt lat="10.283471" lon="-67.731877">
        <ele>432.40</ele>
        <time>2022-10-26T11:03:31Z</time>
      </trkpt>
      <trkpt lat="10.283465" lon="-67.731811">
        <ele>432.40</ele>
        <time>2022-10-26T11:03:32Z</time>
      </trkpt>
      <trkpt lat="10.283462" lon="-67.731747">
        <ele>432.40</ele>
        <time>2022-10-26T11:03:33Z</time>
      </trkpt>
      <trkpt lat="10.283457" lon="-67.731683">
        <ele>432.40</ele>
        <time>2022-10-26T11:03:34Z</time>
      </trkpt>
      <trkpt lat="10.283448" lon="-67.731618">
        <ele>432.50</ele>
        <time>2022-10-26T11:03:35Z</time>
      </trkpt>
      <trkpt lat="10.283445" lon="-67.731552">
        <ele>432.50</ele>
        <time>2022-10-26T11:03:36Z</time>
      </trkpt>
      <trkpt lat="10.283442" lon="-67.731490">
        <ele>432.50</ele>
        <time>2022-10-26T11:03:37Z</time>
      </trkpt>
      <trkpt lat="10.283438" lon="-67.731427">
        <ele>432.50</ele>
        <time>2022-10-26T11:03:38Z</time>
      </trkpt>
      <trkpt lat="10.283432" lon="-67.731365">
        <ele>432.50</ele>
        <time>2022-10-26T11:03:39Z</time>
      </trkpt>
      <trkpt lat="10.283426" lon="-67.731306">
        <ele>432.50</ele>
        <time>2022-10-26T11:03:40Z</time>
      </trkpt>
      <trkpt lat="10.283419" lon="-67.731244">
        <ele>432.60</ele>
        <time>2022-10-26T11:03:41Z</time>
      </trkpt>
      <trkpt lat="10.283411" lon="-67.731184">
        <ele>432.60</ele>
        <time>2022-10-26T11:03:42Z</time>
      </trkpt>
      <trkpt lat="10.283404" lon="-67.731129">
        <ele>432.60</ele>
        <time>2022-10-26T11:03:43Z</time>
      </trkpt>
      <trkpt lat="10.283396" lon="-67.731069">
        <ele>432.60</ele>
        <time>2022-10-26T11:03:44Z</time>
      </trkpt>
      <trkpt lat="10.283391" lon="-67.731007">
        <ele>432.60</ele>
        <time>2022-10-26T11:03:45Z</time>
      </trkpt>
      <trkpt lat="10.283388" lon="-67.730947">
        <ele>432.60</ele>
        <time>2022-10-26T11:03:46Z</time>
      </trkpt>
      <trkpt lat="10.283385" lon="-67.730888">
        <ele>432.60</ele>
        <time>2022-10-26T11:03:47Z</time>
      </trkpt>
      <trkpt lat="10.283379" lon="-67.730828">
        <ele>432.70</ele>
        <time>2022-10-26T11:03:48Z</time>
      </trkpt>
      <trkpt lat="10.283370" lon="-67.730767">
        <ele>432.70</ele>
        <time>2022-10-26T11:03:49Z</time>
      </trkpt>
      <trkpt lat="10.283366" lon="-67.730704">
        <ele>432.70</ele>
        <time>2022-10-26T11:03:50Z</time>
      </trkpt>
      <trkpt lat="10.283364" lon="-67.730646">
        <ele>432.70</ele>
        <time>2022-10-26T11:03:51Z</time>
      </trkpt>
      <trkpt lat="10.283362" lon="-67.730591">
        <ele>432.70</ele>
        <time>2022-10-26T11:03:52Z</time>
      </trkpt>
      <trkpt lat="10.283357" lon="-67.730536">
        <ele>432.70</ele>
        <time>2022-10-26T11:03:53Z</time>
      </trkpt>
      <trkpt lat="10.283353" lon="-67.730482">
        <ele>432.70</ele>
        <time>2022-10-26T11:03:54Z</time>
      </trkpt>
      <trkpt lat="10.283347" lon="-67.730428">
        <ele>432.70</ele>
        <time>2022-10-26T11:03:55Z</time>
      </trkpt>
      <trkpt lat="10.283340" lon="-67.730370">
        <ele>432.70</ele>
        <time>2022-10-26T11:03:56Z</time>
      </trkpt>
      <trkpt lat="10.283331" lon="-67.730308">
        <ele>432.70</ele>
        <time>2022-10-26T11:03:57Z</time>
      </trkpt>
      <trkpt lat="10.283321" lon="-67.730247">
        <ele>432.70</ele>
        <time>2022-10-26T11:03:58Z</time>
      </trkpt>
      <trkpt lat="10.283310" lon="-67.730187">
        <ele>432.70</ele>
        <time>2022-10-26T11:03:59Z</time>
      </trkpt>
      <trkpt lat="10.283299" lon="-67.730124">
        <ele>432.70</ele>
        <time>2022-10-26T11:04:00Z</time>
      </trkpt>
      <trkpt lat="10.283293" lon="-67.730063">
        <ele>432.70</ele>
        <time>2022-10-26T11:04:01Z</time>
      </trkpt>
      <trkpt lat="10.283290" lon="-67.730000">
        <ele>432.70</ele>
        <time>2022-10-26T11:04:02Z</time>
      </trkpt>
      <trkpt lat="10.283285" lon="-67.729934">
        <ele>432.70</ele>
        <time>2022-10-26T11:04:03Z</time>
      </trkpt>
      <trkpt lat="10.283286" lon="-67.729866">
        <ele>432.70</ele>
        <time>2022-10-26T11:04:04Z</time>
      </trkpt>
      <trkpt lat="10.283273" lon="-67.729797">
        <ele>432.70</ele>
        <time>2022-10-26T11:04:05Z</time>
      </trkpt>
      <trkpt lat="10.283263" lon="-67.729733">
        <ele>432.70</ele>
        <time>2022-10-26T11:04:06Z</time>
      </trkpt>
      <trkpt lat="10.283251" lon="-67.729674">
        <ele>432.70</ele>
        <time>2022-10-26T11:04:07Z</time>
      </trkpt>
      <trkpt lat="10.283243" lon="-67.729615">
        <ele>432.70</ele>
        <time>2022-10-26T11:04:08Z</time>
      </trkpt>
      <trkpt lat="10.283238" lon="-67.729555">
        <ele>432.70</ele>
        <time>2022-10-26T11:04:09Z</time>
      </trkpt>
      <trkpt lat="10.283232" lon="-67.729493">
        <ele>432.70</ele>
        <time>2022-10-26T11:04:10Z</time>
      </trkpt>
      <trkpt lat="10.283227" lon="-67.729433">
        <ele>432.70</ele>
        <time>2022-10-26T11:04:11Z</time>
      </trkpt>
      <trkpt lat="10.283219" lon="-67.729375">
        <ele>432.70</ele>
        <time>2022-10-26T11:04:12Z</time>
      </trkpt>
      <trkpt lat="10.283209" lon="-67.729318">
        <ele>432.80</ele>
        <time>2022-10-26T11:04:13Z</time>
      </trkpt>
      <trkpt lat="10.283195" lon="-67.729255">
        <ele>432.80</ele>
        <time>2022-10-26T11:04:14Z</time>
      </trkpt>
      <trkpt lat="10.283184" lon="-67.729194">
        <ele>432.80</ele>
        <time>2022-10-26T11:04:15Z</time>
      </trkpt>
      <trkpt lat="10.283175" lon="-67.729131">
        <ele>432.80</ele>
        <time>2022-10-26T11:04:16Z</time>
      </trkpt>
      <trkpt lat="10.283167" lon="-67.729069">
        <ele>432.80</ele>
        <time>2022-10-26T11:04:17Z</time>
      </trkpt>
      <trkpt lat="10.283163" lon="-67.729008">
        <ele>432.90</ele>
        <time>2022-10-26T11:04:18Z</time>
      </trkpt>
      <trkpt lat="10.283157" lon="-67.728945">
        <ele>432.90</ele>
        <time>2022-10-26T11:04:19Z</time>
      </trkpt>
      <trkpt lat="10.283148" lon="-67.728883">
        <ele>432.90</ele>
        <time>2022-10-26T11:04:20Z</time>
      </trkpt>
      <trkpt lat="10.283140" lon="-67.728821">
        <ele>433.00</ele>
        <time>2022-10-26T11:04:21Z</time>
      </trkpt>
      <trkpt lat="10.283136" lon="-67.728760">
        <ele>433.00</ele>
        <time>2022-10-26T11:04:22Z</time>
      </trkpt>
      <trkpt lat="10.283133" lon="-67.728700">
        <ele>433.10</ele>
        <time>2022-10-26T11:04:23Z</time>
      </trkpt>
      <trkpt lat="10.283130" lon="-67.728649">
        <ele>433.10</ele>
        <time>2022-10-26T11:04:24Z</time>
      </trkpt>
      <trkpt lat="10.283125" lon="-67.728587">
        <ele>433.10</ele>
        <time>2022-10-26T11:04:25Z</time>
      </trkpt>
      <trkpt lat="10.283117" lon="-67.728520">
        <ele>433.20</ele>
        <time>2022-10-26T11:04:26Z</time>
      </trkpt>
      <trkpt lat="10.283106" lon="-67.728453">
        <ele>433.20</ele>
        <time>2022-10-26T11:04:27Z</time>
      </trkpt>
      <trkpt lat="10.283099" lon="-67.728385">
        <ele>433.30</ele>
        <time>2022-10-26T11:04:28Z</time>
      </trkpt>
      <trkpt lat="10.283093" lon="-67.728318">
        <ele>433.40</ele>
        <time>2022-10-26T11:04:29Z</time>
      </trkpt>
      <trkpt lat="10.283087" lon="-67.728250">
        <ele>433.40</ele>
        <time>2022-10-26T11:04:30Z</time>
      </trkpt>
      <trkpt lat="10.283081" lon="-67.728182">
        <ele>433.50</ele>
        <time>2022-10-26T11:04:31Z</time>
      </trkpt>
      <trkpt lat="10.283075" lon="-67.728114">
        <ele>433.60</ele>
        <time>2022-10-26T11:04:32Z</time>
      </trkpt>
      <trkpt lat="10.283070" lon="-67.728044">
        <ele>433.70</ele>
        <time>2022-10-26T11:04:33Z</time>
      </trkpt>
      <trkpt lat="10.283062" lon="-67.727978">
        <ele>433.70</ele>
        <time>2022-10-26T11:04:34Z</time>
      </trkpt>
      <trkpt lat="10.283052" lon="-67.727912">
        <ele>433.80</ele>
        <time>2022-10-26T11:04:35Z</time>
      </trkpt>
      <trkpt lat="10.283043" lon="-67.727847">
        <ele>433.90</ele>
        <time>2022-10-26T11:04:36Z</time>
      </trkpt>
      <trkpt lat="10.283037" lon="-67.727779">
        <ele>433.90</ele>
        <time>2022-10-26T11:04:37Z</time>
      </trkpt>
      <trkpt lat="10.283030" lon="-67.727711">
        <ele>434.00</ele>
        <time>2022-10-26T11:04:38Z</time>
      </trkpt>
      <trkpt lat="10.283022" lon="-67.727645">
        <ele>434.10</ele>
        <time>2022-10-26T11:04:39Z</time>
      </trkpt>
      <trkpt lat="10.283012" lon="-67.727580">
        <ele>434.20</ele>
        <time>2022-10-26T11:04:40Z</time>
      </trkpt>
      <trkpt lat="10.283004" lon="-67.727517">
        <ele>434.20</ele>
        <time>2022-10-26T11:04:41Z</time>
      </trkpt>
      <trkpt lat="10.282996" lon="-67.727452">
        <ele>434.30</ele>
        <time>2022-10-26T11:04:42Z</time>
      </trkpt>
      <trkpt lat="10.282989" lon="-67.727387">
        <ele>434.40</ele>
        <time>2022-10-26T11:04:43Z</time>
      </trkpt>
      <trkpt lat="10.282979" lon="-67.727320">
        <ele>434.50</ele>
        <time>2022-10-26T11:04:44Z</time>
      </trkpt>
      <trkpt lat="10.282966" lon="-67.727252">
        <ele>434.50</ele>
        <time>2022-10-26T11:04:45Z</time>
      </trkpt>
      <trkpt lat="10.282954" lon="-67.727186">
        <ele>434.60</ele>
        <time>2022-10-26T11:04:46Z</time>
      </trkpt>
      <trkpt lat="10.282937" lon="-67.727117">
        <ele>434.70</ele>
        <time>2022-10-26T11:04:47Z</time>
      </trkpt>
      <trkpt lat="10.282924" lon="-67.727049">
        <ele>434.70</ele>
        <time>2022-10-26T11:04:48Z</time>
      </trkpt>
      <trkpt lat="10.282915" lon="-67.726983">
        <ele>434.80</ele>
        <time>2022-10-26T11:04:49Z</time>
      </trkpt>
      <trkpt lat="10.282905" lon="-67.726924">
        <ele>434.90</ele>
        <time>2022-10-26T11:04:50Z</time>
      </trkpt>
      <trkpt lat="10.282897" lon="-67.726864">
        <ele>434.90</ele>
        <time>2022-10-26T11:04:51Z</time>
      </trkpt>
      <trkpt lat="10.282888" lon="-67.726805">
        <ele>435.00</ele>
        <time>2022-10-26T11:04:52Z</time>
      </trkpt>
      <trkpt lat="10.282877" lon="-67.726748">
        <ele>435.10</ele>
        <time>2022-10-26T11:04:53Z</time>
      </trkpt>
      <trkpt lat="10.282868" lon="-67.726689">
        <ele>435.20</ele>
        <time>2022-10-26T11:04:54Z</time>
      </trkpt>
      <trkpt lat="10.282866" lon="-67.726627">
        <ele>435.20</ele>
        <time>2022-10-26T11:04:55Z</time>
      </trkpt>
      <trkpt lat="10.282861" lon="-67.726561">
        <ele>435.30</ele>
        <time>2022-10-26T11:04:56Z</time>
      </trkpt>
      <trkpt lat="10.282854" lon="-67.726493">
        <ele>435.30</ele>
        <time>2022-10-26T11:04:57Z</time>
      </trkpt>
      <trkpt lat="10.282846" lon="-67.726428">
        <ele>435.40</ele>
        <time>2022-10-26T11:04:58Z</time>
      </trkpt>
      <trkpt lat="10.282841" lon="-67.726368">
        <ele>435.50</ele>
        <time>2022-10-26T11:04:59Z</time>
      </trkpt>
      <trkpt lat="10.282837" lon="-67.726311">
        <ele>435.50</ele>
        <time>2022-10-26T11:05:00Z</time>
      </trkpt>
      <trkpt lat="10.282836" lon="-67.726250">
        <ele>435.60</ele>
        <time>2022-10-26T11:05:01Z</time>
      </trkpt>
      <trkpt lat="10.282832" lon="-67.726189">
        <ele>435.70</ele>
        <time>2022-10-26T11:05:02Z</time>
      </trkpt>
      <trkpt lat="10.282823" lon="-67.726127">
        <ele>435.80</ele>
        <time>2022-10-26T11:05:03Z</time>
      </trkpt>
      <trkpt lat="10.282813" lon="-67.726072">
        <ele>435.90</ele>
        <time>2022-10-26T11:05:04Z</time>
      </trkpt>
      <trkpt lat="10.282805" lon="-67.726018">
        <ele>435.90</ele>
        <time>2022-10-26T11:05:05Z</time>
      </trkpt>
      <trkpt lat="10.282798" lon="-67.725960">
        <ele>436.00</ele>
        <time>2022-10-26T11:05:06Z</time>
      </trkpt>
      <trkpt lat="10.282788" lon="-67.725899">
        <ele>436.10</ele>
        <time>2022-10-26T11:05:07Z</time>
      </trkpt>
      <trkpt lat="10.282776" lon="-67.725840">
        <ele>436.20</ele>
        <time>2022-10-26T11:05:08Z</time>
      </trkpt>
      <trkpt lat="10.282765" lon="-67.725780">
        <ele>436.30</ele>
        <time>2022-10-26T11:05:09Z</time>
      </trkpt>
      <trkpt lat="10.282751" lon="-67.725723">
        <ele>436.40</ele>
        <time>2022-10-26T11:05:10Z</time>
      </trkpt>
      <trkpt lat="10.282741" lon="-67.725669">
        <ele>436.50</ele>
        <time>2022-10-26T11:05:11Z</time>
      </trkpt>
      <trkpt lat="10.282730" lon="-67.725617">
        <ele>436.60</ele>
        <time>2022-10-26T11:05:12Z</time>
      </trkpt>
      <trkpt lat="10.282722" lon="-67.725561">
        <ele>436.60</ele>
        <time>2022-10-26T11:05:13Z</time>
      </trkpt>
      <trkpt lat="10.282713" lon="-67.725503">
        <ele>436.70</ele>
        <time>2022-10-26T11:05:14Z</time>
      </trkpt>
      <trkpt lat="10.282704" lon="-67.725443">
        <ele>436.80</ele>
        <time>2022-10-26T11:05:15Z</time>
      </trkpt>
      <trkpt lat="10.282698" lon="-67.725381">
        <ele>436.80</ele>
        <time>2022-10-26T11:05:16Z</time>
      </trkpt>
      <trkpt lat="10.282696" lon="-67.725324">
        <ele>436.90</ele>
        <time>2022-10-26T11:05:17Z</time>
      </trkpt>
      <trkpt lat="10.282694" lon="-67.725267">
        <ele>437.00</ele>
        <time>2022-10-26T11:05:18Z</time>
      </trkpt>
      <trkpt lat="10.282696" lon="-67.725208">
        <ele>437.00</ele>
        <time>2022-10-26T11:05:19Z</time>
      </trkpt>
      <trkpt lat="10.282697" lon="-67.725151">
        <ele>437.10</ele>
        <time>2022-10-26T11:05:20Z</time>
      </trkpt>
      <trkpt lat="10.282696" lon="-67.725097">
        <ele>437.10</ele>
        <time>2022-10-26T11:05:21Z</time>
      </trkpt>
      <trkpt lat="10.282688" lon="-67.725044">
        <ele>437.10</ele>
        <time>2022-10-26T11:05:22Z</time>
      </trkpt>
      <trkpt lat="10.282680" lon="-67.724995">
        <ele>437.20</ele>
        <time>2022-10-26T11:05:23Z</time>
      </trkpt>
      <trkpt lat="10.282667" lon="-67.724944">
        <ele>437.20</ele>
        <time>2022-10-26T11:05:24Z</time>
      </trkpt>
      <trkpt lat="10.282660" lon="-67.724895">
        <ele>437.30</ele>
        <time>2022-10-26T11:05:25Z</time>
      </trkpt>
      <trkpt lat="10.282653" lon="-67.724842">
        <ele>437.30</ele>
        <time>2022-10-26T11:05:26Z</time>
      </trkpt>
      <trkpt lat="10.282650" lon="-67.724794">
        <ele>437.40</ele>
        <time>2022-10-26T11:05:27Z</time>
      </trkpt>
      <trkpt lat="10.282647" lon="-67.724746">
        <ele>437.40</ele>
        <time>2022-10-26T11:05:28Z</time>
      </trkpt>
      <trkpt lat="10.282641" lon="-67.724700">
        <ele>437.50</ele>
        <time>2022-10-26T11:05:29Z</time>
      </trkpt>
      <trkpt lat="10.282634" lon="-67.724652">
        <ele>437.60</ele>
        <time>2022-10-26T11:05:30Z</time>
      </trkpt>
      <trkpt lat="10.282626" lon="-67.724601">
        <ele>437.60</ele>
        <time>2022-10-26T11:05:31Z</time>
      </trkpt>
      <trkpt lat="10.282617" lon="-67.724553">
        <ele>437.70</ele>
        <time>2022-10-26T11:05:32Z</time>
      </trkpt>
      <trkpt lat="10.282611" lon="-67.724507">
        <ele>437.80</ele>
        <time>2022-10-26T11:05:33Z</time>
      </trkpt>
      <trkpt lat="10.282609" lon="-67.724458">
        <ele>437.80</ele>
        <time>2022-10-26T11:05:34Z</time>
      </trkpt>
      <trkpt lat="10.282606" lon="-67.724407">
        <ele>437.90</ele>
        <time>2022-10-26T11:05:35Z</time>
      </trkpt>
      <trkpt lat="10.282600" lon="-67.724356">
        <ele>438.00</ele>
        <time>2022-10-26T11:05:36Z</time>
      </trkpt>
      <trkpt lat="10.282591" lon="-67.724306">
        <ele>438.00</ele>
        <time>2022-10-26T11:05:37Z</time>
      </trkpt>
      <trkpt lat="10.282581" lon="-67.724257">
        <ele>438.10</ele>
        <time>2022-10-26T11:05:38Z</time>
      </trkpt>
      <trkpt lat="10.282573" lon="-67.724206">
        <ele>438.20</ele>
        <time>2022-10-26T11:05:39Z</time>
      </trkpt>
      <trkpt lat="10.282567" lon="-67.724156">
        <ele>438.30</ele>
        <time>2022-10-26T11:05:40Z</time>
      </trkpt>
      <trkpt lat="10.282558" lon="-67.724102">
        <ele>438.30</ele>
        <time>2022-10-26T11:05:41Z</time>
      </trkpt>
      <trkpt lat="10.282551" lon="-67.724045">
        <ele>438.40</ele>
        <time>2022-10-26T11:05:42Z</time>
      </trkpt>
      <trkpt lat="10.282546" lon="-67.723986">
        <ele>438.50</ele>
        <time>2022-10-26T11:05:43Z</time>
      </trkpt>
      <trkpt lat="10.282543" lon="-67.723927">
        <ele>438.60</ele>
        <time>2022-10-26T11:05:44Z</time>
      </trkpt>
      <trkpt lat="10.282540" lon="-67.723870">
        <ele>438.60</ele>
        <time>2022-10-26T11:05:45Z</time>
      </trkpt>
      <trkpt lat="10.282537" lon="-67.723808">
        <ele>438.70</ele>
        <time>2022-10-26T11:05:46Z</time>
      </trkpt>
      <trkpt lat="10.282530" lon="-67.723747">
        <ele>438.80</ele>
        <time>2022-10-26T11:05:47Z</time>
      </trkpt>
      <trkpt lat="10.282523" lon="-67.723691">
        <ele>438.90</ele>
        <time>2022-10-26T11:05:48Z</time>
      </trkpt>
      <trkpt lat="10.282517" lon="-67.723636">
        <ele>438.90</ele>
        <time>2022-10-26T11:05:49Z</time>
      </trkpt>
      <trkpt lat="10.282511" lon="-67.723580">
        <ele>439.00</ele>
        <time>2022-10-26T11:05:50Z</time>
      </trkpt>
      <trkpt lat="10.282505" lon="-67.723525">
        <ele>439.10</ele>
        <time>2022-10-26T11:05:51Z</time>
      </trkpt>
      <trkpt lat="10.282499" lon="-67.723472">
        <ele>439.10</ele>
        <time>2022-10-26T11:05:52Z</time>
      </trkpt>
      <trkpt lat="10.282493" lon="-67.723421">
        <ele>439.20</ele>
        <time>2022-10-26T11:05:53Z</time>
      </trkpt>
      <trkpt lat="10.282488" lon="-67.723371">
        <ele>439.20</ele>
        <time>2022-10-26T11:05:54Z</time>
      </trkpt>
      <trkpt lat="10.282483" lon="-67.723321">
        <ele>439.30</ele>
        <time>2022-10-26T11:05:55Z</time>
      </trkpt>
      <trkpt lat="10.282481" lon="-67.723271">
        <ele>439.30</ele>
        <time>2022-10-26T11:05:56Z</time>
      </trkpt>
      <trkpt lat="10.282477" lon="-67.723225">
        <ele>439.40</ele>
        <time>2022-10-26T11:05:57Z</time>
      </trkpt>
      <trkpt lat="10.282469" lon="-67.723189">
        <ele>439.40</ele>
        <time>2022-10-26T11:05:58Z</time>
      </trkpt>
      <trkpt lat="10.282463" lon="-67.723153">
        <ele>439.40</ele>
        <time>2022-10-26T11:05:59Z</time>
      </trkpt>
      <trkpt lat="10.282458" lon="-67.723111">
        <ele>439.50</ele>
        <time>2022-10-26T11:06:00Z</time>
      </trkpt>
      <trkpt lat="10.282451" lon="-67.723063">
        <ele>439.50</ele>
        <time>2022-10-26T11:06:01Z</time>
      </trkpt>
      <trkpt lat="10.282439" lon="-67.723012">
        <ele>439.60</ele>
        <time>2022-10-26T11:06:02Z</time>
      </trkpt>
      <trkpt lat="10.282429" lon="-67.722959">
        <ele>439.60</ele>
        <time>2022-10-26T11:06:03Z</time>
      </trkpt>
      <trkpt lat="10.282421" lon="-67.722904">
        <ele>439.60</ele>
        <time>2022-10-26T11:06:04Z</time>
      </trkpt>
      <trkpt lat="10.282414" lon="-67.722851">
        <ele>439.70</ele>
        <time>2022-10-26T11:06:05Z</time>
      </trkpt>
      <trkpt lat="10.282410" lon="-67.722800">
        <ele>439.70</ele>
        <time>2022-10-26T11:06:06Z</time>
      </trkpt>
      <trkpt lat="10.282403" lon="-67.722750">
        <ele>439.80</ele>
        <time>2022-10-26T11:06:07Z</time>
      </trkpt>
      <trkpt lat="10.282391" lon="-67.722700">
        <ele>439.80</ele>
        <time>2022-10-26T11:06:08Z</time>
      </trkpt>
      <trkpt lat="10.282384" lon="-67.722648">
        <ele>439.90</ele>
        <time>2022-10-26T11:06:09Z</time>
      </trkpt>
      <trkpt lat="10.282378" lon="-67.722597">
        <ele>439.90</ele>
        <time>2022-10-26T11:06:10Z</time>
      </trkpt>
      <trkpt lat="10.282373" lon="-67.722545">
        <ele>440.00</ele>
        <time>2022-10-26T11:06:11Z</time>
      </trkpt>
      <trkpt lat="10.282372" lon="-67.722493">
        <ele>440.00</ele>
        <time>2022-10-26T11:06:12Z</time>
      </trkpt>
      <trkpt lat="10.282369" lon="-67.722444">
        <ele>440.00</ele>
        <time>2022-10-26T11:06:13Z</time>
      </trkpt>
      <trkpt lat="10.282365" lon="-67.722395">
        <ele>440.00</ele>
        <time>2022-10-26T11:06:14Z</time>
      </trkpt>
      <trkpt lat="10.282357" lon="-67.722345">
        <ele>440.00</ele>
        <time>2022-10-26T11:06:15Z</time>
      </trkpt>
      <trkpt lat="10.282352" lon="-67.722292">
        <ele>440.10</ele>
        <time>2022-10-26T11:06:16Z</time>
      </trkpt>
      <trkpt lat="10.282346" lon="-67.722240">
        <ele>440.10</ele>
        <time>2022-10-26T11:06:17Z</time>
      </trkpt>
      <trkpt lat="10.282343" lon="-67.722190">
        <ele>440.10</ele>
        <time>2022-10-26T11:06:18Z</time>
      </trkpt>
      <trkpt lat="10.282341" lon="-67.722143">
        <ele>440.20</ele>
        <time>2022-10-26T11:06:19Z</time>
      </trkpt>
      <trkpt lat="10.282335" lon="-67.722093">
        <ele>440.20</ele>
        <time>2022-10-26T11:06:20Z</time>
      </trkpt>
      <trkpt lat="10.282328" lon="-67.722043">
        <ele>440.20</ele>
        <time>2022-10-26T11:06:21Z</time>
      </trkpt>
      <trkpt lat="10.282326" lon="-67.721991">
        <ele>440.30</ele>
        <time>2022-10-26T11:06:22Z</time>
      </trkpt>
      <trkpt lat="10.282322" lon="-67.721939">
        <ele>440.30</ele>
        <time>2022-10-26T11:06:23Z</time>
      </trkpt>
      <trkpt lat="10.282317" lon="-67.721885">
        <ele>440.30</ele>
        <time>2022-10-26T11:06:24Z</time>
      </trkpt>
      <trkpt lat="10.282313" lon="-67.721831">
        <ele>440.30</ele>
        <time>2022-10-26T11:06:25Z</time>
      </trkpt>
      <trkpt lat="10.282309" lon="-67.721784">
        <ele>440.40</ele>
        <time>2022-10-26T11:06:26Z</time>
      </trkpt>
      <trkpt lat="10.282304" lon="-67.721738">
        <ele>440.40</ele>
        <time>2022-10-26T11:06:27Z</time>
      </trkpt>
      <trkpt lat="10.282300" lon="-67.721692">
        <ele>440.40</ele>
        <time>2022-10-26T11:06:28Z</time>
      </trkpt>
      <trkpt lat="10.282295" lon="-67.721645">
        <ele>440.50</ele>
        <time>2022-10-26T11:06:29Z</time>
      </trkpt>
      <trkpt lat="10.282289" lon="-67.721602">
        <ele>440.50</ele>
        <time>2022-10-26T11:06:30Z</time>
      </trkpt>
      <trkpt lat="10.282282" lon="-67.721548">
        <ele>440.50</ele>
        <time>2022-10-26T11:06:31Z</time>
      </trkpt>
      <trkpt lat="10.282274" lon="-67.721494">
        <ele>440.50</ele>
        <time>2022-10-26T11:06:32Z</time>
      </trkpt>
      <trkpt lat="10.282265" lon="-67.721445">
        <ele>440.60</ele>
        <time>2022-10-26T11:06:33Z</time>
      </trkpt>
      <trkpt lat="10.282260" lon="-67.721395">
        <ele>440.60</ele>
        <time>2022-10-26T11:06:34Z</time>
      </trkpt>
      <trkpt lat="10.282258" lon="-67.721346">
        <ele>440.60</ele>
        <time>2022-10-26T11:06:35Z</time>
      </trkpt>
      <trkpt lat="10.282255" lon="-67.721299">
        <ele>440.70</ele>
        <time>2022-10-26T11:06:36Z</time>
      </trkpt>
      <trkpt lat="10.282248" lon="-67.721252">
        <ele>440.70</ele>
        <time>2022-10-26T11:06:37Z</time>
      </trkpt>
      <trkpt lat="10.282242" lon="-67.721203">
        <ele>440.70</ele>
        <time>2022-10-26T11:06:38Z</time>
      </trkpt>
      <trkpt lat="10.282238" lon="-67.721153">
        <ele>440.70</ele>
        <time>2022-10-26T11:06:39Z</time>
      </trkpt>
      <trkpt lat="10.282232" lon="-67.721100">
        <ele>440.70</ele>
        <time>2022-10-26T11:06:40Z</time>
      </trkpt>
      <trkpt lat="10.282228" lon="-67.721047">
        <ele>440.70</ele>
        <time>2022-10-26T11:06:41Z</time>
      </trkpt>
      <trkpt lat="10.282222" lon="-67.720995">
        <ele>440.80</ele>
        <time>2022-10-26T11:06:42Z</time>
      </trkpt>
      <trkpt lat="10.282215" lon="-67.720942">
        <ele>440.80</ele>
        <time>2022-10-26T11:06:43Z</time>
      </trkpt>
      <trkpt lat="10.282208" lon="-67.720890">
        <ele>440.80</ele>
        <time>2022-10-26T11:06:44Z</time>
      </trkpt>
      <trkpt lat="10.282199" lon="-67.720843">
        <ele>440.80</ele>
        <time>2022-10-26T11:06:45Z</time>
      </trkpt>
      <trkpt lat="10.282190" lon="-67.720793">
        <ele>440.70</ele>
        <time>2022-10-26T11:06:46Z</time>
      </trkpt>
      <trkpt lat="10.282182" lon="-67.720737">
        <ele>440.70</ele>
        <time>2022-10-26T11:06:47Z</time>
      </trkpt>
      <trkpt lat="10.282173" lon="-67.720681">
        <ele>440.70</ele>
        <time>2022-10-26T11:06:48Z</time>
      </trkpt>
      <trkpt lat="10.282166" lon="-67.720624">
        <ele>440.70</ele>
        <time>2022-10-26T11:06:49Z</time>
      </trkpt>
      <trkpt lat="10.282160" lon="-67.720570">
        <ele>440.70</ele>
        <time>2022-10-26T11:06:50Z</time>
      </trkpt>
      <trkpt lat="10.282156" lon="-67.720522">
        <ele>440.70</ele>
        <time>2022-10-26T11:06:51Z</time>
      </trkpt>
      <trkpt lat="10.282152" lon="-67.720471">
        <ele>440.70</ele>
        <time>2022-10-26T11:06:52Z</time>
      </trkpt>
      <trkpt lat="10.282141" lon="-67.720420">
        <ele>440.70</ele>
        <time>2022-10-26T11:06:53Z</time>
      </trkpt>
      <trkpt lat="10.282128" lon="-67.720364">
        <ele>440.70</ele>
        <time>2022-10-26T11:06:54Z</time>
      </trkpt>
      <trkpt lat="10.282117" lon="-67.720306">
        <ele>440.70</ele>
        <time>2022-10-26T11:06:55Z</time>
      </trkpt>
      <trkpt lat="10.282107" lon="-67.720244">
        <ele>440.80</ele>
        <time>2022-10-26T11:06:56Z</time>
      </trkpt>
      <trkpt lat="10.282093" lon="-67.720187">
        <ele>440.80</ele>
        <time>2022-10-26T11:06:57Z</time>
      </trkpt>
      <trkpt lat="10.282086" lon="-67.720126">
        <ele>440.80</ele>
        <time>2022-10-26T11:06:58Z</time>
      </trkpt>
      <trkpt lat="10.282083" lon="-67.720072">
        <ele>440.80</ele>
        <time>2022-10-26T11:06:59Z</time>
      </trkpt>
      <trkpt lat="10.282074" lon="-67.720017">
        <ele>440.80</ele>
        <time>2022-10-26T11:07:00Z</time>
      </trkpt>
      <trkpt lat="10.282068" lon="-67.719959">
        <ele>440.80</ele>
        <time>2022-10-26T11:07:01Z</time>
      </trkpt>
      <trkpt lat="10.282064" lon="-67.719900">
        <ele>440.80</ele>
        <time>2022-10-26T11:07:02Z</time>
      </trkpt>
      <trkpt lat="10.282060" lon="-67.719840">
        <ele>440.80</ele>
        <time>2022-10-26T11:07:03Z</time>
      </trkpt>
      <trkpt lat="10.282054" lon="-67.719780">
        <ele>440.90</ele>
        <time>2022-10-26T11:07:04Z</time>
      </trkpt>
      <trkpt lat="10.282048" lon="-67.719719">
        <ele>440.90</ele>
        <time>2022-10-26T11:07:05Z</time>
      </trkpt>
      <trkpt lat="10.282042" lon="-67.719657">
        <ele>440.90</ele>
        <time>2022-10-26T11:07:06Z</time>
      </trkpt>
      <trkpt lat="10.282035" lon="-67.719597">
        <ele>440.90</ele>
        <time>2022-10-26T11:07:07Z</time>
      </trkpt>
      <trkpt lat="10.282030" lon="-67.719538">
        <ele>440.90</ele>
        <time>2022-10-26T11:07:08Z</time>
      </trkpt>
      <trkpt lat="10.282028" lon="-67.719482">
        <ele>440.90</ele>
        <time>2022-10-26T11:07:09Z</time>
      </trkpt>
      <trkpt lat="10.282028" lon="-67.719425">
        <ele>440.90</ele>
        <time>2022-10-26T11:07:10Z</time>
      </trkpt>
      <trkpt lat="10.282026" lon="-67.719370">
        <ele>440.80</ele>
        <time>2022-10-26T11:07:11Z</time>
      </trkpt>
      <trkpt lat="10.282023" lon="-67.719313">
        <ele>440.80</ele>
        <time>2022-10-26T11:07:12Z</time>
      </trkpt>
      <trkpt lat="10.282019" lon="-67.719258">
        <ele>440.80</ele>
        <time>2022-10-26T11:07:13Z</time>
      </trkpt>
      <trkpt lat="10.282015" lon="-67.719201">
        <ele>440.80</ele>
        <time>2022-10-26T11:07:14Z</time>
      </trkpt>
      <trkpt lat="10.282008" lon="-67.719146">
        <ele>440.80</ele>
        <time>2022-10-26T11:07:15Z</time>
      </trkpt>
      <trkpt lat="10.282002" lon="-67.719087">
        <ele>440.80</ele>
        <time>2022-10-26T11:07:16Z</time>
      </trkpt>
      <trkpt lat="10.281995" lon="-67.719026">
        <ele>440.70</ele>
        <time>2022-10-26T11:07:17Z</time>
      </trkpt>
      <trkpt lat="10.281986" lon="-67.718964">
        <ele>440.70</ele>
        <time>2022-10-26T11:07:18Z</time>
      </trkpt>
      <trkpt lat="10.281978" lon="-67.718906">
        <ele>440.70</ele>
        <time>2022-10-26T11:07:19Z</time>
      </trkpt>
      <trkpt lat="10.281970" lon="-67.718846">
        <ele>440.70</ele>
        <time>2022-10-26T11:07:20Z</time>
      </trkpt>
      <trkpt lat="10.281963" lon="-67.718786">
        <ele>440.70</ele>
        <time>2022-10-26T11:07:21Z</time>
      </trkpt>
      <trkpt lat="10.281955" lon="-67.718723">
        <ele>440.70</ele>
        <time>2022-10-26T11:07:22Z</time>
      </trkpt>
      <trkpt lat="10.281948" lon="-67.718658">
        <ele>440.70</ele>
        <time>2022-10-26T11:07:23Z</time>
      </trkpt>
      <trkpt lat="10.281942" lon="-67.718595">
        <ele>440.70</ele>
        <time>2022-10-26T11:07:24Z</time>
      </trkpt>
      <trkpt lat="10.281936" lon="-67.718538">
        <ele>440.70</ele>
        <time>2022-10-26T11:07:25Z</time>
      </trkpt>
      <trkpt lat="10.281932" lon="-67.718482">
        <ele>440.70</ele>
        <time>2022-10-26T11:07:26Z</time>
      </trkpt>
      <trkpt lat="10.281928" lon="-67.718428">
        <ele>440.60</ele>
        <time>2022-10-26T11:07:27Z</time>
      </trkpt>
      <trkpt lat="10.281923" lon="-67.718368">
        <ele>440.60</ele>
        <time>2022-10-26T11:07:28Z</time>
      </trkpt>
      <trkpt lat="10.281917" lon="-67.718310">
        <ele>440.60</ele>
        <time>2022-10-26T11:07:29Z</time>
      </trkpt>
      <trkpt lat="10.281913" lon="-67.718248">
        <ele>440.60</ele>
        <time>2022-10-26T11:07:30Z</time>
      </trkpt>
      <trkpt lat="10.281911" lon="-67.718185">
        <ele>440.60</ele>
        <time>2022-10-26T11:07:31Z</time>
      </trkpt>
      <trkpt lat="10.281909" lon="-67.718118">
        <ele>440.60</ele>
        <time>2022-10-26T11:07:32Z</time>
      </trkpt>
      <trkpt lat="10.281904" lon="-67.718051">
        <ele>440.60</ele>
        <time>2022-10-26T11:07:33Z</time>
      </trkpt>
      <trkpt lat="10.281897" lon="-67.717983">
        <ele>440.60</ele>
        <time>2022-10-26T11:07:34Z</time>
      </trkpt>
      <trkpt lat="10.281890" lon="-67.717918">
        <ele>440.60</ele>
        <time>2022-10-26T11:07:35Z</time>
      </trkpt>
      <trkpt lat="10.281883" lon="-67.717849">
        <ele>440.60</ele>
        <time>2022-10-26T11:07:36Z</time>
      </trkpt>
      <trkpt lat="10.281877" lon="-67.717783">
        <ele>440.60</ele>
        <time>2022-10-26T11:07:37Z</time>
      </trkpt>
      <trkpt lat="10.281867" lon="-67.717715">
        <ele>440.60</ele>
        <time>2022-10-26T11:07:38Z</time>
      </trkpt>
      <trkpt lat="10.281858" lon="-67.717643">
        <ele>440.60</ele>
        <time>2022-10-26T11:07:39Z</time>
      </trkpt>
      <trkpt lat="10.281846" lon="-67.717565">
        <ele>440.60</ele>
        <time>2022-10-26T11:07:40Z</time>
      </trkpt>
      <trkpt lat="10.281833" lon="-67.717492">
        <ele>440.60</ele>
        <time>2022-10-26T11:07:41Z</time>
      </trkpt>
      <trkpt lat="10.281821" lon="-67.717416">
        <ele>440.60</ele>
        <time>2022-10-26T11:07:42Z</time>
      </trkpt>
      <trkpt lat="10.281809" lon="-67.717338">
        <ele>440.60</ele>
        <time>2022-10-26T11:07:43Z</time>
      </trkpt>
      <trkpt lat="10.281795" lon="-67.717262">
        <ele>440.50</ele>
        <time>2022-10-26T11:07:44Z</time>
      </trkpt>
      <trkpt lat="10.281781" lon="-67.717191">
        <ele>440.50</ele>
        <time>2022-10-26T11:07:45Z</time>
      </trkpt>
      <trkpt lat="10.281766" lon="-67.717130">
        <ele>440.50</ele>
        <time>2022-10-26T11:07:46Z</time>
      </trkpt>
      <trkpt lat="10.281746" lon="-67.717071">
        <ele>440.50</ele>
        <time>2022-10-26T11:07:47Z</time>
      </trkpt>
      <trkpt lat="10.281730" lon="-67.717017">
        <ele>440.50</ele>
        <time>2022-10-26T11:07:48Z</time>
      </trkpt>
      <trkpt lat="10.281720" lon="-67.716958">
        <ele>440.50</ele>
        <time>2022-10-26T11:07:49Z</time>
      </trkpt>
      <trkpt lat="10.281711" lon="-67.716895">
        <ele>440.50</ele>
        <time>2022-10-26T11:07:50Z</time>
      </trkpt>
      <trkpt lat="10.281700" lon="-67.716828">
        <ele>440.50</ele>
        <time>2022-10-26T11:07:51Z</time>
      </trkpt>
      <trkpt lat="10.281691" lon="-67.716760">
        <ele>440.50</ele>
        <time>2022-10-26T11:07:52Z</time>
      </trkpt>
      <trkpt lat="10.281686" lon="-67.716695">
        <ele>440.50</ele>
        <time>2022-10-26T11:07:53Z</time>
      </trkpt>
      <trkpt lat="10.281684" lon="-67.716628">
        <ele>440.50</ele>
        <time>2022-10-26T11:07:54Z</time>
      </trkpt>
      <trkpt lat="10.281680" lon="-67.716564">
        <ele>440.60</ele>
        <time>2022-10-26T11:07:55Z</time>
      </trkpt>
      <trkpt lat="10.281674" lon="-67.716499">
        <ele>440.60</ele>
        <time>2022-10-26T11:07:56Z</time>
      </trkpt>
      <trkpt lat="10.281667" lon="-67.716432">
        <ele>440.60</ele>
        <time>2022-10-26T11:07:57Z</time>
      </trkpt>
      <trkpt lat="10.281661" lon="-67.716364">
        <ele>440.60</ele>
        <time>2022-10-26T11:07:58Z</time>
      </trkpt>
      <trkpt lat="10.281657" lon="-67.716300">
        <ele>440.60</ele>
        <time>2022-10-26T11:07:59Z</time>
      </trkpt>
      <trkpt lat="10.281651" lon="-67.716237">
        <ele>440.60</ele>
        <time>2022-10-26T11:08:00Z</time>
      </trkpt>
      <trkpt lat="10.281644" lon="-67.716176">
        <ele>440.60</ele>
        <time>2022-10-26T11:08:01Z</time>
      </trkpt>
      <trkpt lat="10.281635" lon="-67.716114">
        <ele>440.60</ele>
        <time>2022-10-26T11:08:02Z</time>
      </trkpt>
      <trkpt lat="10.281627" lon="-67.716051">
        <ele>440.60</ele>
        <time>2022-10-26T11:08:03Z</time>
      </trkpt>
      <trkpt lat="10.281621" lon="-67.715988">
        <ele>440.60</ele>
        <time>2022-10-26T11:08:04Z</time>
      </trkpt>
      <trkpt lat="10.281614" lon="-67.715925">
        <ele>440.60</ele>
        <time>2022-10-26T11:08:05Z</time>
      </trkpt>
      <trkpt lat="10.281607" lon="-67.715863">
        <ele>440.60</ele>
        <time>2022-10-26T11:08:06Z</time>
      </trkpt>
      <trkpt lat="10.281601" lon="-67.715803">
        <ele>440.70</ele>
        <time>2022-10-26T11:08:07Z</time>
      </trkpt>
      <trkpt lat="10.281594" lon="-67.715738">
        <ele>440.70</ele>
        <time>2022-10-26T11:08:08Z</time>
      </trkpt>
      <trkpt lat="10.281587" lon="-67.715673">
        <ele>440.70</ele>
        <time>2022-10-26T11:08:09Z</time>
      </trkpt>
      <trkpt lat="10.281581" lon="-67.715610">
        <ele>440.70</ele>
        <time>2022-10-26T11:08:10Z</time>
      </trkpt>
      <trkpt lat="10.281578" lon="-67.715550">
        <ele>440.70</ele>
        <time>2022-10-26T11:08:11Z</time>
      </trkpt>
      <trkpt lat="10.281573" lon="-67.715492">
        <ele>440.80</ele>
        <time>2022-10-26T11:08:12Z</time>
      </trkpt>
      <trkpt lat="10.281567" lon="-67.715430">
        <ele>440.80</ele>
        <time>2022-10-26T11:08:13Z</time>
      </trkpt>
      <trkpt lat="10.281559" lon="-67.715368">
        <ele>440.80</ele>
        <time>2022-10-26T11:08:14Z</time>
      </trkpt>
      <trkpt lat="10.281551" lon="-67.715307">
        <ele>440.80</ele>
        <time>2022-10-26T11:08:15Z</time>
      </trkpt>
      <trkpt lat="10.281544" lon="-67.715244">
        <ele>440.80</ele>
        <time>2022-10-26T11:08:16Z</time>
      </trkpt>
      <trkpt lat="10.281536" lon="-67.715180">
        <ele>440.80</ele>
        <time>2022-10-26T11:08:17Z</time>
      </trkpt>
      <trkpt lat="10.281528" lon="-67.715119">
        <ele>440.80</ele>
        <time>2022-10-26T11:08:18Z</time>
      </trkpt>
      <trkpt lat="10.281521" lon="-67.715060">
        <ele>440.80</ele>
        <time>2022-10-26T11:08:19Z</time>
      </trkpt>
      <trkpt lat="10.281515" lon="-67.715001">
        <ele>440.80</ele>
        <time>2022-10-26T11:08:20Z</time>
      </trkpt>
      <trkpt lat="10.281506" lon="-67.714949">
        <ele>440.80</ele>
        <time>2022-10-26T11:08:21Z</time>
      </trkpt>
      <trkpt lat="10.281498" lon="-67.714898">
        <ele>440.90</ele>
        <time>2022-10-26T11:08:22Z</time>
      </trkpt>
      <trkpt lat="10.281492" lon="-67.714845">
        <ele>440.90</ele>
        <time>2022-10-26T11:08:23Z</time>
      </trkpt>
      <trkpt lat="10.281490" lon="-67.714789">
        <ele>440.90</ele>
        <time>2022-10-26T11:08:24Z</time>
      </trkpt>
      <trkpt lat="10.281488" lon="-67.714731">
        <ele>441.00</ele>
        <time>2022-10-26T11:08:25Z</time>
      </trkpt>
      <trkpt lat="10.281484" lon="-67.714672">
        <ele>441.00</ele>
        <time>2022-10-26T11:08:26Z</time>
      </trkpt>
      <trkpt lat="10.281482" lon="-67.714612">
        <ele>441.00</ele>
        <time>2022-10-26T11:08:27Z</time>
      </trkpt>
      <trkpt lat="10.281480" lon="-67.714550">
        <ele>441.00</ele>
        <time>2022-10-26T11:08:28Z</time>
      </trkpt>
      <trkpt lat="10.281474" lon="-67.714489">
        <ele>441.10</ele>
        <time>2022-10-26T11:08:29Z</time>
      </trkpt>
      <trkpt lat="10.281466" lon="-67.714423">
        <ele>441.10</ele>
        <time>2022-10-26T11:08:30Z</time>
      </trkpt>
      <trkpt lat="10.281462" lon="-67.714359">
        <ele>441.10</ele>
        <time>2022-10-26T11:08:31Z</time>
      </trkpt>
      <trkpt lat="10.281452" lon="-67.714300">
        <ele>441.10</ele>
        <time>2022-10-26T11:08:32Z</time>
      </trkpt>
      <trkpt lat="10.281440" lon="-67.714248">
        <ele>441.10</ele>
        <time>2022-10-26T11:08:33Z</time>
      </trkpt>
      <trkpt lat="10.281431" lon="-67.714191">
        <ele>441.10</ele>
        <time>2022-10-26T11:08:34Z</time>
      </trkpt>
      <trkpt lat="10.281424" lon="-67.714136">
        <ele>441.10</ele>
        <time>2022-10-26T11:08:35Z</time>
      </trkpt>
      <trkpt lat="10.281416" lon="-67.714076">
        <ele>441.10</ele>
        <time>2022-10-26T11:08:36Z</time>
      </trkpt>
      <trkpt lat="10.281404" lon="-67.714016">
        <ele>441.20</ele>
        <time>2022-10-26T11:08:37Z</time>
      </trkpt>
      <trkpt lat="10.281393" lon="-67.713953">
        <ele>441.20</ele>
        <time>2022-10-26T11:08:38Z</time>
      </trkpt>
      <trkpt lat="10.281380" lon="-67.713892">
        <ele>441.20</ele>
        <time>2022-10-26T11:08:39Z</time>
      </trkpt>
      <trkpt lat="10.281372" lon="-67.713834">
        <ele>441.20</ele>
        <time>2022-10-26T11:08:40Z</time>
      </trkpt>
      <trkpt lat="10.281367" lon="-67.713776">
        <ele>441.20</ele>
        <time>2022-10-26T11:08:41Z</time>
      </trkpt>
      <trkpt lat="10.281365" lon="-67.713720">
        <ele>441.20</ele>
        <time>2022-10-26T11:08:42Z</time>
      </trkpt>
      <trkpt lat="10.281360" lon="-67.713666">
        <ele>441.30</ele>
        <time>2022-10-26T11:08:43Z</time>
      </trkpt>
      <trkpt lat="10.281355" lon="-67.713609">
        <ele>441.30</ele>
        <time>2022-10-26T11:08:44Z</time>
      </trkpt>
      <trkpt lat="10.281349" lon="-67.713553">
        <ele>441.30</ele>
        <time>2022-10-26T11:08:45Z</time>
      </trkpt>
      <trkpt lat="10.281342" lon="-67.713495">
        <ele>441.30</ele>
        <time>2022-10-26T11:08:46Z</time>
      </trkpt>
      <trkpt lat="10.281335" lon="-67.713440">
        <ele>441.30</ele>
        <time>2022-10-26T11:08:47Z</time>
      </trkpt>
      <trkpt lat="10.281325" lon="-67.713386">
        <ele>441.30</ele>
        <time>2022-10-26T11:08:48Z</time>
      </trkpt>
      <trkpt lat="10.281316" lon="-67.713333">
        <ele>441.30</ele>
        <time>2022-10-26T11:08:49Z</time>
      </trkpt>
      <trkpt lat="10.281311" lon="-67.713277">
        <ele>441.30</ele>
        <time>2022-10-26T11:08:50Z</time>
      </trkpt>
      <trkpt lat="10.281307" lon="-67.713219">
        <ele>441.30</ele>
        <time>2022-10-26T11:08:51Z</time>
      </trkpt>
      <trkpt lat="10.281303" lon="-67.713161">
        <ele>441.30</ele>
        <time>2022-10-26T11:08:52Z</time>
      </trkpt>
      <trkpt lat="10.281290" lon="-67.713098">
        <ele>441.30</ele>
        <time>2022-10-26T11:08:53Z</time>
      </trkpt>
      <trkpt lat="10.281280" lon="-67.713037">
        <ele>441.30</ele>
        <time>2022-10-26T11:08:54Z</time>
      </trkpt>
      <trkpt lat="10.281270" lon="-67.712979">
        <ele>441.30</ele>
        <time>2022-10-26T11:08:55Z</time>
      </trkpt>
      <trkpt lat="10.281260" lon="-67.712920">
        <ele>441.30</ele>
        <time>2022-10-26T11:08:56Z</time>
      </trkpt>
      <trkpt lat="10.281251" lon="-67.712861">
        <ele>441.30</ele>
        <time>2022-10-26T11:08:57Z</time>
      </trkpt>
      <trkpt lat="10.281243" lon="-67.712801">
        <ele>441.30</ele>
        <time>2022-10-26T11:08:58Z</time>
      </trkpt>
      <trkpt lat="10.281237" lon="-67.712743">
        <ele>441.40</ele>
        <time>2022-10-26T11:08:59Z</time>
      </trkpt>
      <trkpt lat="10.281231" lon="-67.712680">
        <ele>441.40</ele>
        <time>2022-10-26T11:09:00Z</time>
      </trkpt>
      <trkpt lat="10.281224" lon="-67.712620">
        <ele>441.40</ele>
        <time>2022-10-26T11:09:01Z</time>
      </trkpt>
      <trkpt lat="10.281215" lon="-67.712562">
        <ele>441.40</ele>
        <time>2022-10-26T11:09:02Z</time>
      </trkpt>
      <trkpt lat="10.281203" lon="-67.712508">
        <ele>441.30</ele>
        <time>2022-10-26T11:09:03Z</time>
      </trkpt>
      <trkpt lat="10.281191" lon="-67.712452">
        <ele>441.30</ele>
        <time>2022-10-26T11:09:04Z</time>
      </trkpt>
      <trkpt lat="10.281178" lon="-67.712395">
        <ele>441.30</ele>
        <time>2022-10-26T11:09:05Z</time>
      </trkpt>
      <trkpt lat="10.281167" lon="-67.712337">
        <ele>441.30</ele>
        <time>2022-10-26T11:09:06Z</time>
      </trkpt>
      <trkpt lat="10.281160" lon="-67.712280">
        <ele>441.20</ele>
        <time>2022-10-26T11:09:07Z</time>
      </trkpt>
      <trkpt lat="10.281155" lon="-67.712223">
        <ele>441.20</ele>
        <time>2022-10-26T11:09:08Z</time>
      </trkpt>
      <trkpt lat="10.281148" lon="-67.712166">
        <ele>441.10</ele>
        <time>2022-10-26T11:09:09Z</time>
      </trkpt>
      <trkpt lat="10.281146" lon="-67.712103">
        <ele>441.10</ele>
        <time>2022-10-26T11:09:10Z</time>
      </trkpt>
      <trkpt lat="10.281143" lon="-67.712035">
        <ele>441.10</ele>
        <time>2022-10-26T11:09:11Z</time>
      </trkpt>
      <trkpt lat="10.281136" lon="-67.711968">
        <ele>441.00</ele>
        <time>2022-10-26T11:09:12Z</time>
      </trkpt>
      <trkpt lat="10.281126" lon="-67.711907">
        <ele>441.00</ele>
        <time>2022-10-26T11:09:13Z</time>
      </trkpt>
      <trkpt lat="10.281112" lon="-67.711844">
        <ele>441.00</ele>
        <time>2022-10-26T11:09:14Z</time>
      </trkpt>
      <trkpt lat="10.281097" lon="-67.711781">
        <ele>440.90</ele>
        <time>2022-10-26T11:09:15Z</time>
      </trkpt>
      <trkpt lat="10.281085" lon="-67.711723">
        <ele>440.90</ele>
        <time>2022-10-26T11:09:16Z</time>
      </trkpt>
      <trkpt lat="10.281076" lon="-67.711667">
        <ele>440.90</ele>
        <time>2022-10-26T11:09:17Z</time>
      </trkpt>
      <trkpt lat="10.281066" lon="-67.711609">
        <ele>440.80</ele>
        <time>2022-10-26T11:09:18Z</time>
      </trkpt>
      <trkpt lat="10.281058" lon="-67.711553">
        <ele>440.80</ele>
        <time>2022-10-26T11:09:19Z</time>
      </trkpt>
      <trkpt lat="10.281050" lon="-67.711496">
        <ele>440.80</ele>
        <time>2022-10-26T11:09:20Z</time>
      </trkpt>
      <trkpt lat="10.281045" lon="-67.711442">
        <ele>440.70</ele>
        <time>2022-10-26T11:09:21Z</time>
      </trkpt>
      <trkpt lat="10.281041" lon="-67.711390">
        <ele>440.70</ele>
        <time>2022-10-26T11:09:22Z</time>
      </trkpt>
      <trkpt lat="10.281039" lon="-67.711342">
        <ele>440.60</ele>
        <time>2022-10-26T11:09:23Z</time>
      </trkpt>
      <trkpt lat="10.281034" lon="-67.711287">
        <ele>440.60</ele>
        <time>2022-10-26T11:09:24Z</time>
      </trkpt>
      <trkpt lat="10.281028" lon="-67.711233">
        <ele>440.50</ele>
        <time>2022-10-26T11:09:25Z</time>
      </trkpt>
      <trkpt lat="10.281022" lon="-67.711170">
        <ele>440.50</ele>
        <time>2022-10-26T11:09:26Z</time>
      </trkpt>
      <trkpt lat="10.281017" lon="-67.711111">
        <ele>440.50</ele>
        <time>2022-10-26T11:09:27Z</time>
      </trkpt>
      <trkpt lat="10.281014" lon="-67.711054">
        <ele>440.40</ele>
        <time>2022-10-26T11:09:28Z</time>
      </trkpt>
      <trkpt lat="10.281009" lon="-67.711003">
        <ele>440.40</ele>
        <time>2022-10-26T11:09:29Z</time>
      </trkpt>
      <trkpt lat="10.281004" lon="-67.710948">
        <ele>440.30</ele>
        <time>2022-10-26T11:09:30Z</time>
      </trkpt>
      <trkpt lat="10.280997" lon="-67.710896">
        <ele>440.30</ele>
        <time>2022-10-26T11:09:31Z</time>
      </trkpt>
      <trkpt lat="10.280992" lon="-67.710840">
        <ele>440.20</ele>
        <time>2022-10-26T11:09:32Z</time>
      </trkpt>
      <trkpt lat="10.280987" lon="-67.710780">
        <ele>440.20</ele>
        <time>2022-10-26T11:09:33Z</time>
      </trkpt>
      <trkpt lat="10.280984" lon="-67.710713">
        <ele>440.10</ele>
        <time>2022-10-26T11:09:34Z</time>
      </trkpt>
      <trkpt lat="10.280978" lon="-67.710650">
        <ele>440.00</ele>
        <time>2022-10-26T11:09:35Z</time>
      </trkpt>
      <trkpt lat="10.280972" lon="-67.710584">
        <ele>440.00</ele>
        <time>2022-10-26T11:09:36Z</time>
      </trkpt>
      <trkpt lat="10.280967" lon="-67.710519">
        <ele>439.90</ele>
        <time>2022-10-26T11:09:37Z</time>
      </trkpt>
      <trkpt lat="10.280962" lon="-67.710449">
        <ele>439.80</ele>
        <time>2022-10-26T11:09:38Z</time>
      </trkpt>
      <trkpt lat="10.280958" lon="-67.710386">
        <ele>439.70</ele>
        <time>2022-10-26T11:09:39Z</time>
      </trkpt>
      <trkpt lat="10.280950" lon="-67.710321">
        <ele>439.70</ele>
        <time>2022-10-26T11:09:40Z</time>
      </trkpt>
      <trkpt lat="10.280943" lon="-67.710258">
        <ele>439.60</ele>
        <time>2022-10-26T11:09:41Z</time>
      </trkpt>
      <trkpt lat="10.280937" lon="-67.710195">
        <ele>439.50</ele>
        <time>2022-10-26T11:09:42Z</time>
      </trkpt>
      <trkpt lat="10.280930" lon="-67.710131">
        <ele>439.40</ele>
        <time>2022-10-26T11:09:43Z</time>
      </trkpt>
      <trkpt lat="10.280923" lon="-67.710069">
        <ele>439.30</ele>
        <time>2022-10-26T11:09:44Z</time>
      </trkpt>
      <trkpt lat="10.280916" lon="-67.710007">
        <ele>439.30</ele>
        <time>2022-10-26T11:09:45Z</time>
      </trkpt>
      <trkpt lat="10.280905" lon="-67.709942">
        <ele>439.20</ele>
        <time>2022-10-26T11:09:46Z</time>
      </trkpt>
      <trkpt lat="10.280895" lon="-67.709880">
        <ele>439.10</ele>
        <time>2022-10-26T11:09:47Z</time>
      </trkpt>
      <trkpt lat="10.280885" lon="-67.709815">
        <ele>439.00</ele>
        <time>2022-10-26T11:09:48Z</time>
      </trkpt>
      <trkpt lat="10.280875" lon="-67.709750">
        <ele>438.90</ele>
        <time>2022-10-26T11:09:49Z</time>
      </trkpt>
      <trkpt lat="10.280868" lon="-67.709684">
        <ele>438.80</ele>
        <time>2022-10-26T11:09:50Z</time>
      </trkpt>
      <trkpt lat="10.280856" lon="-67.709615">
        <ele>438.70</ele>
        <time>2022-10-26T11:09:51Z</time>
      </trkpt>
      <trkpt lat="10.280847" lon="-67.709545">
        <ele>438.60</ele>
        <time>2022-10-26T11:09:52Z</time>
      </trkpt>
      <trkpt lat="10.280835" lon="-67.709475">
        <ele>438.50</ele>
        <time>2022-10-26T11:09:53Z</time>
      </trkpt>
      <trkpt lat="10.280822" lon="-67.709400">
        <ele>438.40</ele>
        <time>2022-10-26T11:09:54Z</time>
      </trkpt>
      <trkpt lat="10.280800" lon="-67.709266">
        <ele>438.10</ele>
        <time>2022-10-26T11:09:56Z</time>
      </trkpt>
      <trkpt lat="10.280792" lon="-67.709202">
        <ele>438.00</ele>
        <time>2022-10-26T11:09:57Z</time>
      </trkpt>
      <trkpt lat="10.280785" lon="-67.709131">
        <ele>437.90</ele>
        <time>2022-10-26T11:09:58Z</time>
      </trkpt>
      <trkpt lat="10.280778" lon="-67.709067">
        <ele>437.80</ele>
        <time>2022-10-26T11:09:59Z</time>
      </trkpt>
      <trkpt lat="10.280769" lon="-67.708995">
        <ele>437.80</ele>
        <time>2022-10-26T11:10:00Z</time>
      </trkpt>
      <trkpt lat="10.280758" lon="-67.708922">
        <ele>437.70</ele>
        <time>2022-10-26T11:10:01Z</time>
      </trkpt>
      <trkpt lat="10.280744" lon="-67.708850">
        <ele>437.50</ele>
        <time>2022-10-26T11:10:02Z</time>
      </trkpt>
      <trkpt lat="10.280730" lon="-67.708780">
        <ele>437.40</ele>
        <time>2022-10-26T11:10:03Z</time>
      </trkpt>
      <trkpt lat="10.280723" lon="-67.708712">
        <ele>437.20</ele>
        <time>2022-10-26T11:10:04Z</time>
      </trkpt>
      <trkpt lat="10.280716" lon="-67.708645">
        <ele>437.10</ele>
        <time>2022-10-26T11:10:05Z</time>
      </trkpt>
      <trkpt lat="10.280707" lon="-67.708577">
        <ele>437.00</ele>
        <time>2022-10-26T11:10:06Z</time>
      </trkpt>
      <trkpt lat="10.280694" lon="-67.708505">
        <ele>436.90</ele>
        <time>2022-10-26T11:10:07Z</time>
      </trkpt>
      <trkpt lat="10.280685" lon="-67.708442">
        <ele>436.70</ele>
        <time>2022-10-26T11:10:08Z</time>
      </trkpt>
      <trkpt lat="10.280676" lon="-67.708375">
        <ele>436.60</ele>
        <time>2022-10-26T11:10:09Z</time>
      </trkpt>
      <trkpt lat="10.280667" lon="-67.708309">
        <ele>436.50</ele>
        <time>2022-10-26T11:10:10Z</time>
      </trkpt>
      <trkpt lat="10.280658" lon="-67.708244">
        <ele>436.40</ele>
        <time>2022-10-26T11:10:11Z</time>
      </trkpt>
      <trkpt lat="10.280650" lon="-67.708177">
        <ele>436.30</ele>
        <time>2022-10-26T11:10:12Z</time>
      </trkpt>
      <trkpt lat="10.280646" lon="-67.708105">
        <ele>436.10</ele>
        <time>2022-10-26T11:10:13Z</time>
      </trkpt>
      <trkpt lat="10.280642" lon="-67.708032">
        <ele>436.00</ele>
        <time>2022-10-26T11:10:14Z</time>
      </trkpt>
      <trkpt lat="10.280632" lon="-67.707962">
        <ele>435.90</ele>
        <time>2022-10-26T11:10:15Z</time>
      </trkpt>
      <trkpt lat="10.280623" lon="-67.707893">
        <ele>435.70</ele>
        <time>2022-10-26T11:10:16Z</time>
      </trkpt>
      <trkpt lat="10.280613" lon="-67.707819">
        <ele>435.60</ele>
        <time>2022-10-26T11:10:17Z</time>
      </trkpt>
      <trkpt lat="10.280602" lon="-67.707742">
        <ele>435.50</ele>
        <time>2022-10-26T11:10:18Z</time>
      </trkpt>
      <trkpt lat="10.280593" lon="-67.707669">
        <ele>435.40</ele>
        <time>2022-10-26T11:10:19Z</time>
      </trkpt>
      <trkpt lat="10.280581" lon="-67.707594">
        <ele>435.30</ele>
        <time>2022-10-26T11:10:20Z</time>
      </trkpt>
      <trkpt lat="10.280566" lon="-67.707512">
        <ele>435.20</ele>
        <time>2022-10-26T11:10:21Z</time>
      </trkpt>
      <trkpt lat="10.280554" lon="-67.707437">
        <ele>435.10</ele>
        <time>2022-10-26T11:10:22Z</time>
      </trkpt>
      <trkpt lat="10.280542" lon="-67.707360">
        <ele>435.00</ele>
        <time>2022-10-26T11:10:23Z</time>
      </trkpt>
      <trkpt lat="10.280534" lon="-67.707286">
        <ele>434.90</ele>
        <time>2022-10-26T11:10:24Z</time>
      </trkpt>
      <trkpt lat="10.280528" lon="-67.707212">
        <ele>434.70</ele>
        <time>2022-10-26T11:10:25Z</time>
      </trkpt>
      <trkpt lat="10.280523" lon="-67.707139">
        <ele>434.60</ele>
        <time>2022-10-26T11:10:26Z</time>
      </trkpt>
      <trkpt lat="10.280515" lon="-67.707065">
        <ele>434.40</ele>
        <time>2022-10-26T11:10:27Z</time>
      </trkpt>
      <trkpt lat="10.280506" lon="-67.706991">
        <ele>434.30</ele>
        <time>2022-10-26T11:10:28Z</time>
      </trkpt>
      <trkpt lat="10.280501" lon="-67.706914">
        <ele>434.20</ele>
        <time>2022-10-26T11:10:29Z</time>
      </trkpt>
      <trkpt lat="10.280496" lon="-67.706835">
        <ele>434.10</ele>
        <time>2022-10-26T11:10:30Z</time>
      </trkpt>
      <trkpt lat="10.280491" lon="-67.706756">
        <ele>433.90</ele>
        <time>2022-10-26T11:10:31Z</time>
      </trkpt>
      <trkpt lat="10.280483" lon="-67.706680">
        <ele>433.80</ele>
        <time>2022-10-26T11:10:32Z</time>
      </trkpt>
      <trkpt lat="10.280473" lon="-67.706604">
        <ele>433.70</ele>
        <time>2022-10-26T11:10:33Z</time>
      </trkpt>
      <trkpt lat="10.280463" lon="-67.706526">
        <ele>433.50</ele>
        <time>2022-10-26T11:10:34Z</time>
      </trkpt>
      <trkpt lat="10.280457" lon="-67.706450">
        <ele>433.40</ele>
        <time>2022-10-26T11:10:35Z</time>
      </trkpt>
      <trkpt lat="10.280450" lon="-67.706375">
        <ele>433.30</ele>
        <time>2022-10-26T11:10:36Z</time>
      </trkpt>
      <trkpt lat="10.280443" lon="-67.706300">
        <ele>433.20</ele>
        <time>2022-10-26T11:10:37Z</time>
      </trkpt>
      <trkpt lat="10.280439" lon="-67.706222">
        <ele>433.10</ele>
        <time>2022-10-26T11:10:38Z</time>
      </trkpt>
      <trkpt lat="10.280432" lon="-67.706136">
        <ele>432.90</ele>
        <time>2022-10-26T11:10:39Z</time>
      </trkpt>
      <trkpt lat="10.280421" lon="-67.706062">
        <ele>432.80</ele>
        <time>2022-10-26T11:10:40Z</time>
      </trkpt>
      <trkpt lat="10.280417" lon="-67.705988">
        <ele>432.70</ele>
        <time>2022-10-26T11:10:41Z</time>
      </trkpt>
      <trkpt lat="10.280412" lon="-67.705913">
        <ele>432.60</ele>
        <time>2022-10-26T11:10:42Z</time>
      </trkpt>
      <trkpt lat="10.280404" lon="-67.705833">
        <ele>432.50</ele>
        <time>2022-10-26T11:10:43Z</time>
      </trkpt>
      <trkpt lat="10.280397" lon="-67.705753">
        <ele>432.30</ele>
        <time>2022-10-26T11:10:44Z</time>
      </trkpt>
      <trkpt lat="10.280390" lon="-67.705672">
        <ele>432.20</ele>
        <time>2022-10-26T11:10:45Z</time>
      </trkpt>
      <trkpt lat="10.280380" lon="-67.705593">
        <ele>432.10</ele>
        <time>2022-10-26T11:10:46Z</time>
      </trkpt>
      <trkpt lat="10.280372" lon="-67.705517">
        <ele>431.90</ele>
        <time>2022-10-26T11:10:47Z</time>
      </trkpt>
      <trkpt lat="10.280362" lon="-67.705440">
        <ele>431.80</ele>
        <time>2022-10-26T11:10:48Z</time>
      </trkpt>
      <trkpt lat="10.280352" lon="-67.705363">
        <ele>431.70</ele>
        <time>2022-10-26T11:10:49Z</time>
      </trkpt>
      <trkpt lat="10.280343" lon="-67.705282">
        <ele>431.60</ele>
        <time>2022-10-26T11:10:50Z</time>
      </trkpt>
      <trkpt lat="10.280335" lon="-67.705203">
        <ele>431.40</ele>
        <time>2022-10-26T11:10:51Z</time>
      </trkpt>
      <trkpt lat="10.280327" lon="-67.705125">
        <ele>431.30</ele>
        <time>2022-10-26T11:10:52Z</time>
      </trkpt>
      <trkpt lat="10.280317" lon="-67.705044">
        <ele>431.10</ele>
        <time>2022-10-26T11:10:53Z</time>
      </trkpt>
      <trkpt lat="10.280307" lon="-67.704963">
        <ele>431.00</ele>
        <time>2022-10-26T11:10:54Z</time>
      </trkpt>
      <trkpt lat="10.280301" lon="-67.704887">
        <ele>430.90</ele>
        <time>2022-10-26T11:10:55Z</time>
      </trkpt>
      <trkpt lat="10.280291" lon="-67.704817">
        <ele>430.80</ele>
        <time>2022-10-26T11:10:56Z</time>
      </trkpt>
      <trkpt lat="10.280279" lon="-67.704744">
        <ele>430.60</ele>
        <time>2022-10-26T11:10:57Z</time>
      </trkpt>
      <trkpt lat="10.280268" lon="-67.704669">
        <ele>430.50</ele>
        <time>2022-10-26T11:10:58Z</time>
      </trkpt>
      <trkpt lat="10.280258" lon="-67.704594">
        <ele>430.30</ele>
        <time>2022-10-26T11:10:59Z</time>
      </trkpt>
      <trkpt lat="10.280243" lon="-67.704518">
        <ele>430.20</ele>
        <time>2022-10-26T11:11:00Z</time>
      </trkpt>
      <trkpt lat="10.280226" lon="-67.704438">
        <ele>430.10</ele>
        <time>2022-10-26T11:11:01Z</time>
      </trkpt>
      <trkpt lat="10.280212" lon="-67.704359">
        <ele>430.00</ele>
        <time>2022-10-26T11:11:02Z</time>
      </trkpt>
      <trkpt lat="10.280201" lon="-67.704276">
        <ele>429.80</ele>
        <time>2022-10-26T11:11:03Z</time>
      </trkpt>
      <trkpt lat="10.280186" lon="-67.704195">
        <ele>429.70</ele>
        <time>2022-10-26T11:11:04Z</time>
      </trkpt>
      <trkpt lat="10.280175" lon="-67.704120">
        <ele>429.60</ele>
        <time>2022-10-26T11:11:05Z</time>
      </trkpt>
      <trkpt lat="10.280165" lon="-67.704042">
        <ele>429.50</ele>
        <time>2022-10-26T11:11:06Z</time>
      </trkpt>
      <trkpt lat="10.280152" lon="-67.703957">
        <ele>429.40</ele>
        <time>2022-10-26T11:11:07Z</time>
      </trkpt>
      <trkpt lat="10.280143" lon="-67.703877">
        <ele>429.30</ele>
        <time>2022-10-26T11:11:08Z</time>
      </trkpt>
      <trkpt lat="10.280135" lon="-67.703801">
        <ele>429.20</ele>
        <time>2022-10-26T11:11:09Z</time>
      </trkpt>
      <trkpt lat="10.280125" lon="-67.703724">
        <ele>429.00</ele>
        <time>2022-10-26T11:11:10Z</time>
      </trkpt>
      <trkpt lat="10.280115" lon="-67.703643">
        <ele>428.90</ele>
        <time>2022-10-26T11:11:11Z</time>
      </trkpt>
      <trkpt lat="10.280105" lon="-67.703566">
        <ele>428.80</ele>
        <time>2022-10-26T11:11:12Z</time>
      </trkpt>
      <trkpt lat="10.280096" lon="-67.703489">
        <ele>428.70</ele>
        <time>2022-10-26T11:11:13Z</time>
      </trkpt>
      <trkpt lat="10.280091" lon="-67.703413">
        <ele>428.60</ele>
        <time>2022-10-26T11:11:14Z</time>
      </trkpt>
      <trkpt lat="10.280085" lon="-67.703335">
        <ele>428.50</ele>
        <time>2022-10-26T11:11:15Z</time>
      </trkpt>
      <trkpt lat="10.280075" lon="-67.703257">
        <ele>428.40</ele>
        <time>2022-10-26T11:11:16Z</time>
      </trkpt>
      <trkpt lat="10.280067" lon="-67.703177">
        <ele>428.40</ele>
        <time>2022-10-26T11:11:17Z</time>
      </trkpt>
      <trkpt lat="10.280055" lon="-67.703097">
        <ele>428.30</ele>
        <time>2022-10-26T11:11:18Z</time>
      </trkpt>
      <trkpt lat="10.280044" lon="-67.703016">
        <ele>428.20</ele>
        <time>2022-10-26T11:11:19Z</time>
      </trkpt>
      <trkpt lat="10.280033" lon="-67.702932">
        <ele>428.10</ele>
        <time>2022-10-26T11:11:20Z</time>
      </trkpt>
      <trkpt lat="10.280026" lon="-67.702851">
        <ele>428.10</ele>
        <time>2022-10-26T11:11:21Z</time>
      </trkpt>
      <trkpt lat="10.280023" lon="-67.702772">
        <ele>428.00</ele>
        <time>2022-10-26T11:11:22Z</time>
      </trkpt>
      <trkpt lat="10.280015" lon="-67.702697">
        <ele>427.90</ele>
        <time>2022-10-26T11:11:23Z</time>
      </trkpt>
      <trkpt lat="10.280006" lon="-67.702625">
        <ele>427.90</ele>
        <time>2022-10-26T11:11:24Z</time>
      </trkpt>
      <trkpt lat="10.279994" lon="-67.702554">
        <ele>427.80</ele>
        <time>2022-10-26T11:11:25Z</time>
      </trkpt>
      <trkpt lat="10.279981" lon="-67.702480">
        <ele>427.80</ele>
        <time>2022-10-26T11:11:26Z</time>
      </trkpt>
      <trkpt lat="10.279970" lon="-67.702406">
        <ele>427.70</ele>
        <time>2022-10-26T11:11:27Z</time>
      </trkpt>
      <trkpt lat="10.279959" lon="-67.702336">
        <ele>427.70</ele>
        <time>2022-10-26T11:11:28Z</time>
      </trkpt>
      <trkpt lat="10.279943" lon="-67.702266">
        <ele>427.60</ele>
        <time>2022-10-26T11:11:29Z</time>
      </trkpt>
      <trkpt lat="10.279929" lon="-67.702190">
        <ele>427.60</ele>
        <time>2022-10-26T11:11:30Z</time>
      </trkpt>
      <trkpt lat="10.279915" lon="-67.702114">
        <ele>427.60</ele>
        <time>2022-10-26T11:11:31Z</time>
      </trkpt>
      <trkpt lat="10.279903" lon="-67.702042">
        <ele>427.60</ele>
        <time>2022-10-26T11:11:32Z</time>
      </trkpt>
      <trkpt lat="10.279895" lon="-67.701968">
        <ele>427.60</ele>
        <time>2022-10-26T11:11:33Z</time>
      </trkpt>
      <trkpt lat="10.279885" lon="-67.701896">
        <ele>427.60</ele>
        <time>2022-10-26T11:11:34Z</time>
      </trkpt>
      <trkpt lat="10.279874" lon="-67.701824">
        <ele>427.60</ele>
        <time>2022-10-26T11:11:35Z</time>
      </trkpt>
      <trkpt lat="10.279860" lon="-67.701753">
        <ele>427.60</ele>
        <time>2022-10-26T11:11:36Z</time>
      </trkpt>
      <trkpt lat="10.279848" lon="-67.701684">
        <ele>427.50</ele>
        <time>2022-10-26T11:11:37Z</time>
      </trkpt>
      <trkpt lat="10.279839" lon="-67.701610">
        <ele>427.50</ele>
        <time>2022-10-26T11:11:38Z</time>
      </trkpt>
      <trkpt lat="10.279831" lon="-67.701541">
        <ele>427.40</ele>
        <time>2022-10-26T11:11:39Z</time>
      </trkpt>
      <trkpt lat="10.279827" lon="-67.701475">
        <ele>427.40</ele>
        <time>2022-10-26T11:11:40Z</time>
      </trkpt>
      <trkpt lat="10.279824" lon="-67.701407">
        <ele>427.40</ele>
        <time>2022-10-26T11:11:41Z</time>
      </trkpt>
      <trkpt lat="10.279820" lon="-67.701341">
        <ele>427.30</ele>
        <time>2022-10-26T11:11:42Z</time>
      </trkpt>
      <trkpt lat="10.279807" lon="-67.701280">
        <ele>427.30</ele>
        <time>2022-10-26T11:11:43Z</time>
      </trkpt>
      <trkpt lat="10.279795" lon="-67.701211">
        <ele>427.30</ele>
        <time>2022-10-26T11:11:44Z</time>
      </trkpt>
      <trkpt lat="10.279782" lon="-67.701139">
        <ele>427.30</ele>
        <time>2022-10-26T11:11:45Z</time>
      </trkpt>
      <trkpt lat="10.279770" lon="-67.701065">
        <ele>427.30</ele>
        <time>2022-10-26T11:11:46Z</time>
      </trkpt>
      <trkpt lat="10.279759" lon="-67.700993">
        <ele>427.30</ele>
        <time>2022-10-26T11:11:47Z</time>
      </trkpt>
      <trkpt lat="10.279742" lon="-67.700921">
        <ele>427.30</ele>
        <time>2022-10-26T11:11:48Z</time>
      </trkpt>
      <trkpt lat="10.279726" lon="-67.700856">
        <ele>427.30</ele>
        <time>2022-10-26T11:11:49Z</time>
      </trkpt>
      <trkpt lat="10.279715" lon="-67.700795">
        <ele>427.30</ele>
        <time>2022-10-26T11:11:50Z</time>
      </trkpt>
      <trkpt lat="10.279701" lon="-67.700740">
        <ele>427.30</ele>
        <time>2022-10-26T11:11:51Z</time>
      </trkpt>
      <trkpt lat="10.279690" lon="-67.700680">
        <ele>427.30</ele>
        <time>2022-10-26T11:11:52Z</time>
      </trkpt>
      <trkpt lat="10.279677" lon="-67.700612">
        <ele>427.30</ele>
        <time>2022-10-26T11:11:53Z</time>
      </trkpt>
      <trkpt lat="10.279665" lon="-67.700541">
        <ele>427.30</ele>
        <time>2022-10-26T11:11:54Z</time>
      </trkpt>
      <trkpt lat="10.279652" lon="-67.700471">
        <ele>427.30</ele>
        <time>2022-10-26T11:11:55Z</time>
      </trkpt>
      <trkpt lat="10.279640" lon="-67.700403">
        <ele>427.30</ele>
        <time>2022-10-26T11:11:56Z</time>
      </trkpt>
      <trkpt lat="10.279631" lon="-67.700334">
        <ele>427.30</ele>
        <time>2022-10-26T11:11:57Z</time>
      </trkpt>
      <trkpt lat="10.279622" lon="-67.700264">
        <ele>427.30</ele>
        <time>2022-10-26T11:11:58Z</time>
      </trkpt>
      <trkpt lat="10.279609" lon="-67.700194">
        <ele>427.30</ele>
        <time>2022-10-26T11:11:59Z</time>
      </trkpt>
      <trkpt lat="10.279597" lon="-67.700123">
        <ele>427.30</ele>
        <time>2022-10-26T11:12:00Z</time>
      </trkpt>
      <trkpt lat="10.279587" lon="-67.700053">
        <ele>427.20</ele>
        <time>2022-10-26T11:12:01Z</time>
      </trkpt>
      <trkpt lat="10.279575" lon="-67.699983">
        <ele>427.20</ele>
        <time>2022-10-26T11:12:02Z</time>
      </trkpt>
      <trkpt lat="10.279564" lon="-67.699913">
        <ele>427.20</ele>
        <time>2022-10-26T11:12:03Z</time>
      </trkpt>
      <trkpt lat="10.279552" lon="-67.699846">
        <ele>427.20</ele>
        <time>2022-10-26T11:12:04Z</time>
      </trkpt>
      <trkpt lat="10.279542" lon="-67.699781">
        <ele>427.20</ele>
        <time>2022-10-26T11:12:05Z</time>
      </trkpt>
      <trkpt lat="10.279536" lon="-67.699717">
        <ele>427.20</ele>
        <time>2022-10-26T11:12:06Z</time>
      </trkpt>
      <trkpt lat="10.279528" lon="-67.699656">
        <ele>427.20</ele>
        <time>2022-10-26T11:12:07Z</time>
      </trkpt>
      <trkpt lat="10.279518" lon="-67.699594">
        <ele>427.30</ele>
        <time>2022-10-26T11:12:08Z</time>
      </trkpt>
      <trkpt lat="10.279503" lon="-67.699528">
        <ele>427.30</ele>
        <time>2022-10-26T11:12:09Z</time>
      </trkpt>
      <trkpt lat="10.279490" lon="-67.699464">
        <ele>427.30</ele>
        <time>2022-10-26T11:12:10Z</time>
      </trkpt>
      <trkpt lat="10.279482" lon="-67.699400">
        <ele>427.30</ele>
        <time>2022-10-26T11:12:11Z</time>
      </trkpt>
      <trkpt lat="10.279471" lon="-67.699332">
        <ele>427.30</ele>
        <time>2022-10-26T11:12:12Z</time>
      </trkpt>
      <trkpt lat="10.279457" lon="-67.699269">
        <ele>427.30</ele>
        <time>2022-10-26T11:12:13Z</time>
      </trkpt>
      <trkpt lat="10.279441" lon="-67.699207">
        <ele>427.30</ele>
        <time>2022-10-26T11:12:14Z</time>
      </trkpt>
      <trkpt lat="10.279426" lon="-67.699144">
        <ele>427.30</ele>
        <time>2022-10-26T11:12:15Z</time>
      </trkpt>
      <trkpt lat="10.279408" lon="-67.699078">
        <ele>427.30</ele>
        <time>2022-10-26T11:12:16Z</time>
      </trkpt>
      <trkpt lat="10.279398" lon="-67.699018">
        <ele>427.30</ele>
        <time>2022-10-26T11:12:17Z</time>
      </trkpt>
      <trkpt lat="10.279388" lon="-67.698962">
        <ele>427.30</ele>
        <time>2022-10-26T11:12:18Z</time>
      </trkpt>
      <trkpt lat="10.279378" lon="-67.698907">
        <ele>427.30</ele>
        <time>2022-10-26T11:12:19Z</time>
      </trkpt>
      <trkpt lat="10.279366" lon="-67.698851">
        <ele>427.30</ele>
        <time>2022-10-26T11:12:20Z</time>
      </trkpt>
      <trkpt lat="10.279353" lon="-67.698792">
        <ele>427.30</ele>
        <time>2022-10-26T11:12:21Z</time>
      </trkpt>
      <trkpt lat="10.279340" lon="-67.698732">
        <ele>427.40</ele>
        <time>2022-10-26T11:12:22Z</time>
      </trkpt>
      <trkpt lat="10.279331" lon="-67.698674">
        <ele>427.40</ele>
        <time>2022-10-26T11:12:23Z</time>
      </trkpt>
      <trkpt lat="10.279322" lon="-67.698619">
        <ele>427.40</ele>
        <time>2022-10-26T11:12:24Z</time>
      </trkpt>
      <trkpt lat="10.279314" lon="-67.698565">
        <ele>427.40</ele>
        <time>2022-10-26T11:12:25Z</time>
      </trkpt>
      <trkpt lat="10.279308" lon="-67.698505">
        <ele>427.40</ele>
        <time>2022-10-26T11:12:26Z</time>
      </trkpt>
      <trkpt lat="10.279300" lon="-67.698449">
        <ele>427.50</ele>
        <time>2022-10-26T11:12:27Z</time>
      </trkpt>
      <trkpt lat="10.279290" lon="-67.698393">
        <ele>427.50</ele>
        <time>2022-10-26T11:12:28Z</time>
      </trkpt>
      <trkpt lat="10.279279" lon="-67.698338">
        <ele>427.50</ele>
        <time>2022-10-26T11:12:29Z</time>
      </trkpt>
      <trkpt lat="10.279270" lon="-67.698282">
        <ele>427.50</ele>
        <time>2022-10-26T11:12:30Z</time>
      </trkpt>
      <trkpt lat="10.279264" lon="-67.698225">
        <ele>427.60</ele>
        <time>2022-10-26T11:12:31Z</time>
      </trkpt>
      <trkpt lat="10.279256" lon="-67.698167">
        <ele>427.60</ele>
        <time>2022-10-26T11:12:32Z</time>
      </trkpt>
      <trkpt lat="10.279245" lon="-67.698116">
        <ele>427.60</ele>
        <time>2022-10-26T11:12:33Z</time>
      </trkpt>
      <trkpt lat="10.279234" lon="-67.698063">
        <ele>427.70</ele>
        <time>2022-10-26T11:12:34Z</time>
      </trkpt>
      <trkpt lat="10.279221" lon="-67.698009">
        <ele>427.70</ele>
        <time>2022-10-26T11:12:35Z</time>
      </trkpt>
      <trkpt lat="10.279208" lon="-67.697955">
        <ele>427.70</ele>
        <time>2022-10-26T11:12:36Z</time>
      </trkpt>
      <trkpt lat="10.279195" lon="-67.697901">
        <ele>427.70</ele>
        <time>2022-10-26T11:12:37Z</time>
      </trkpt>
      <trkpt lat="10.279185" lon="-67.697850">
        <ele>427.80</ele>
        <time>2022-10-26T11:12:38Z</time>
      </trkpt>
      <trkpt lat="10.279173" lon="-67.697799">
        <ele>427.80</ele>
        <time>2022-10-26T11:12:39Z</time>
      </trkpt>
      <trkpt lat="10.279160" lon="-67.697747">
        <ele>427.80</ele>
        <time>2022-10-26T11:12:40Z</time>
      </trkpt>
      <trkpt lat="10.279148" lon="-67.697692">
        <ele>427.80</ele>
        <time>2022-10-26T11:12:41Z</time>
      </trkpt>
      <trkpt lat="10.279137" lon="-67.697636">
        <ele>427.80</ele>
        <time>2022-10-26T11:12:42Z</time>
      </trkpt>
      <trkpt lat="10.279123" lon="-67.697581">
        <ele>427.90</ele>
        <time>2022-10-26T11:12:43Z</time>
      </trkpt>
      <trkpt lat="10.279113" lon="-67.697528">
        <ele>427.90</ele>
        <time>2022-10-26T11:12:44Z</time>
      </trkpt>
      <trkpt lat="10.279100" lon="-67.697481">
        <ele>427.90</ele>
        <time>2022-10-26T11:12:45Z</time>
      </trkpt>
      <trkpt lat="10.279093" lon="-67.697435">
        <ele>428.00</ele>
        <time>2022-10-26T11:12:46Z</time>
      </trkpt>
      <trkpt lat="10.279095" lon="-67.697391">
        <ele>428.00</ele>
        <time>2022-10-26T11:12:47Z</time>
      </trkpt>
      <trkpt lat="10.279098" lon="-67.697346">
        <ele>428.00</ele>
        <time>2022-10-26T11:12:48Z</time>
      </trkpt>
      <trkpt lat="10.279088" lon="-67.697300">
        <ele>428.00</ele>
        <time>2022-10-26T11:12:49Z</time>
      </trkpt>
      <trkpt lat="10.279081" lon="-67.697257">
        <ele>428.10</ele>
        <time>2022-10-26T11:12:50Z</time>
      </trkpt>
      <trkpt lat="10.279072" lon="-67.697216">
        <ele>428.10</ele>
        <time>2022-10-26T11:12:51Z</time>
      </trkpt>
      <trkpt lat="10.279062" lon="-67.697175">
        <ele>428.10</ele>
        <time>2022-10-26T11:12:52Z</time>
      </trkpt>
      <trkpt lat="10.279049" lon="-67.697131">
        <ele>428.10</ele>
        <time>2022-10-26T11:12:53Z</time>
      </trkpt>
      <trkpt lat="10.279036" lon="-67.697087">
        <ele>428.20</ele>
        <time>2022-10-26T11:12:54Z</time>
      </trkpt>
      <trkpt lat="10.279027" lon="-67.697048">
        <ele>428.20</ele>
        <time>2022-10-26T11:12:55Z</time>
      </trkpt>
      <trkpt lat="10.279019" lon="-67.697003">
        <ele>428.20</ele>
        <time>2022-10-26T11:12:56Z</time>
      </trkpt>
      <trkpt lat="10.279014" lon="-67.696953">
        <ele>428.30</ele>
        <time>2022-10-26T11:12:57Z</time>
      </trkpt>
      <trkpt lat="10.279008" lon="-67.696903">
        <ele>428.30</ele>
        <time>2022-10-26T11:12:58Z</time>
      </trkpt>
      <trkpt lat="10.279001" lon="-67.696856">
        <ele>428.30</ele>
        <time>2022-10-26T11:12:59Z</time>
      </trkpt>
      <trkpt lat="10.278992" lon="-67.696807">
        <ele>428.30</ele>
        <time>2022-10-26T11:13:00Z</time>
      </trkpt>
      <trkpt lat="10.278981" lon="-67.696756">
        <ele>428.30</ele>
        <time>2022-10-26T11:13:01Z</time>
      </trkpt>
      <trkpt lat="10.278968" lon="-67.696705">
        <ele>428.40</ele>
        <time>2022-10-26T11:13:02Z</time>
      </trkpt>
      <trkpt lat="10.278954" lon="-67.696652">
        <ele>428.40</ele>
        <time>2022-10-26T11:13:03Z</time>
      </trkpt>
      <trkpt lat="10.278943" lon="-67.696600">
        <ele>428.40</ele>
        <time>2022-10-26T11:13:04Z</time>
      </trkpt>
      <trkpt lat="10.278924" lon="-67.696539">
        <ele>428.40</ele>
        <time>2022-10-26T11:13:05Z</time>
      </trkpt>
      <trkpt lat="10.278909" lon="-67.696481">
        <ele>428.50</ele>
        <time>2022-10-26T11:13:06Z</time>
      </trkpt>
      <trkpt lat="10.278895" lon="-67.696424">
        <ele>428.50</ele>
        <time>2022-10-26T11:13:07Z</time>
      </trkpt>
      <trkpt lat="10.278881" lon="-67.696363">
        <ele>428.50</ele>
        <time>2022-10-26T11:13:08Z</time>
      </trkpt>
      <trkpt lat="10.278867" lon="-67.696301">
        <ele>428.60</ele>
        <time>2022-10-26T11:13:09Z</time>
      </trkpt>
      <trkpt lat="10.278853" lon="-67.696239">
        <ele>428.60</ele>
        <time>2022-10-26T11:13:10Z</time>
      </trkpt>
      <trkpt lat="10.278842" lon="-67.696171">
        <ele>428.60</ele>
        <time>2022-10-26T11:13:11Z</time>
      </trkpt>
      <trkpt lat="10.278830" lon="-67.696100">
        <ele>428.70</ele>
        <time>2022-10-26T11:13:12Z</time>
      </trkpt>
      <trkpt lat="10.278814" lon="-67.696028">
        <ele>428.70</ele>
        <time>2022-10-26T11:13:13Z</time>
      </trkpt>
      <trkpt lat="10.278799" lon="-67.695957">
        <ele>428.70</ele>
        <time>2022-10-26T11:13:14Z</time>
      </trkpt>
      <trkpt lat="10.278783" lon="-67.695888">
        <ele>428.70</ele>
        <time>2022-10-26T11:13:15Z</time>
      </trkpt>
      <trkpt lat="10.278767" lon="-67.695822">
        <ele>428.80</ele>
        <time>2022-10-26T11:13:16Z</time>
      </trkpt>
      <trkpt lat="10.278752" lon="-67.695755">
        <ele>428.80</ele>
        <time>2022-10-26T11:13:17Z</time>
      </trkpt>
      <trkpt lat="10.278740" lon="-67.695689">
        <ele>428.80</ele>
        <time>2022-10-26T11:13:18Z</time>
      </trkpt>
      <trkpt lat="10.278724" lon="-67.695628">
        <ele>428.80</ele>
        <time>2022-10-26T11:13:19Z</time>
      </trkpt>
      <trkpt lat="10.278710" lon="-67.695571">
        <ele>428.80</ele>
        <time>2022-10-26T11:13:20Z</time>
      </trkpt>
      <trkpt lat="10.278698" lon="-67.695513">
        <ele>428.70</ele>
        <time>2022-10-26T11:13:21Z</time>
      </trkpt>
      <trkpt lat="10.278689" lon="-67.695458">
        <ele>428.70</ele>
        <time>2022-10-26T11:13:22Z</time>
      </trkpt>
      <trkpt lat="10.278679" lon="-67.695405">
        <ele>428.70</ele>
        <time>2022-10-26T11:13:23Z</time>
      </trkpt>
      <trkpt lat="10.278663" lon="-67.695352">
        <ele>428.70</ele>
        <time>2022-10-26T11:13:24Z</time>
      </trkpt>
      <trkpt lat="10.278647" lon="-67.695298">
        <ele>428.70</ele>
        <time>2022-10-26T11:13:25Z</time>
      </trkpt>
      <trkpt lat="10.278632" lon="-67.695241">
        <ele>428.80</ele>
        <time>2022-10-26T11:13:26Z</time>
      </trkpt>
      <trkpt lat="10.278615" lon="-67.695180">
        <ele>428.80</ele>
        <time>2022-10-26T11:13:27Z</time>
      </trkpt>
      <trkpt lat="10.278593" lon="-67.695120">
        <ele>428.80</ele>
        <time>2022-10-26T11:13:28Z</time>
      </trkpt>
      <trkpt lat="10.278574" lon="-67.695056">
        <ele>428.80</ele>
        <time>2022-10-26T11:13:29Z</time>
      </trkpt>
      <trkpt lat="10.278557" lon="-67.694994">
        <ele>428.80</ele>
        <time>2022-10-26T11:13:30Z</time>
      </trkpt>
      <trkpt lat="10.278547" lon="-67.694932">
        <ele>428.80</ele>
        <time>2022-10-26T11:13:31Z</time>
      </trkpt>
      <trkpt lat="10.278533" lon="-67.694871">
        <ele>428.80</ele>
        <time>2022-10-26T11:13:32Z</time>
      </trkpt>
      <trkpt lat="10.278516" lon="-67.694821">
        <ele>428.80</ele>
        <time>2022-10-26T11:13:33Z</time>
      </trkpt>
      <trkpt lat="10.278502" lon="-67.694775">
        <ele>428.70</ele>
        <time>2022-10-26T11:13:34Z</time>
      </trkpt>
      <trkpt lat="10.278486" lon="-67.694728">
        <ele>428.70</ele>
        <time>2022-10-26T11:13:35Z</time>
      </trkpt>
      <trkpt lat="10.278470" lon="-67.694674">
        <ele>428.70</ele>
        <time>2022-10-26T11:13:36Z</time>
      </trkpt>
      <trkpt lat="10.278452" lon="-67.694622">
        <ele>428.70</ele>
        <time>2022-10-26T11:13:37Z</time>
      </trkpt>
      <trkpt lat="10.278435" lon="-67.694572">
        <ele>428.60</ele>
        <time>2022-10-26T11:13:38Z</time>
      </trkpt>
      <trkpt lat="10.278422" lon="-67.694520">
        <ele>428.60</ele>
        <time>2022-10-26T11:13:39Z</time>
      </trkpt>
      <trkpt lat="10.278409" lon="-67.694466">
        <ele>428.60</ele>
        <time>2022-10-26T11:13:40Z</time>
      </trkpt>
      <trkpt lat="10.278395" lon="-67.694413">
        <ele>428.60</ele>
        <time>2022-10-26T11:13:41Z</time>
      </trkpt>
      <trkpt lat="10.278383" lon="-67.694356">
        <ele>428.60</ele>
        <time>2022-10-26T11:13:42Z</time>
      </trkpt>
      <trkpt lat="10.278371" lon="-67.694302">
        <ele>428.60</ele>
        <time>2022-10-26T11:13:43Z</time>
      </trkpt>
      <trkpt lat="10.278361" lon="-67.694251">
        <ele>428.60</ele>
        <time>2022-10-26T11:13:44Z</time>
      </trkpt>
      <trkpt lat="10.278348" lon="-67.694199">
        <ele>428.50</ele>
        <time>2022-10-26T11:13:45Z</time>
      </trkpt>
      <trkpt lat="10.278335" lon="-67.694143">
        <ele>428.50</ele>
        <time>2022-10-26T11:13:46Z</time>
      </trkpt>
      <trkpt lat="10.278318" lon="-67.694081">
        <ele>428.50</ele>
        <time>2022-10-26T11:13:47Z</time>
      </trkpt>
      <trkpt lat="10.278305" lon="-67.694017">
        <ele>428.50</ele>
        <time>2022-10-26T11:13:48Z</time>
      </trkpt>
      <trkpt lat="10.278289" lon="-67.693954">
        <ele>428.50</ele>
        <time>2022-10-26T11:13:49Z</time>
      </trkpt>
      <trkpt lat="10.278272" lon="-67.693895">
        <ele>428.40</ele>
        <time>2022-10-26T11:13:50Z</time>
      </trkpt>
      <trkpt lat="10.278251" lon="-67.693839">
        <ele>428.40</ele>
        <time>2022-10-26T11:13:51Z</time>
      </trkpt>
      <trkpt lat="10.278236" lon="-67.693784">
        <ele>428.40</ele>
        <time>2022-10-26T11:13:52Z</time>
      </trkpt>
      <trkpt lat="10.278224" lon="-67.693728">
        <ele>428.40</ele>
        <time>2022-10-26T11:13:53Z</time>
      </trkpt>
      <trkpt lat="10.278214" lon="-67.693672">
        <ele>428.40</ele>
        <time>2022-10-26T11:13:54Z</time>
      </trkpt>
      <trkpt lat="10.278201" lon="-67.693613">
        <ele>428.40</ele>
        <time>2022-10-26T11:13:55Z</time>
      </trkpt>
      <trkpt lat="10.278188" lon="-67.693556">
        <ele>428.40</ele>
        <time>2022-10-26T11:13:56Z</time>
      </trkpt>
      <trkpt lat="10.278175" lon="-67.693499">
        <ele>428.40</ele>
        <time>2022-10-26T11:13:57Z</time>
      </trkpt>
      <trkpt lat="10.278163" lon="-67.693441">
        <ele>428.40</ele>
        <time>2022-10-26T11:13:58Z</time>
      </trkpt>
      <trkpt lat="10.278151" lon="-67.693382">
        <ele>428.40</ele>
        <time>2022-10-26T11:13:59Z</time>
      </trkpt>
      <trkpt lat="10.278140" lon="-67.693326">
        <ele>428.40</ele>
        <time>2022-10-26T11:14:00Z</time>
      </trkpt>
      <trkpt lat="10.278127" lon="-67.693272">
        <ele>428.40</ele>
        <time>2022-10-26T11:14:01Z</time>
      </trkpt>
      <trkpt lat="10.278112" lon="-67.693218">
        <ele>428.40</ele>
        <time>2022-10-26T11:14:02Z</time>
      </trkpt>
      <trkpt lat="10.278098" lon="-67.693163">
        <ele>428.40</ele>
        <time>2022-10-26T11:14:03Z</time>
      </trkpt>
      <trkpt lat="10.278085" lon="-67.693110">
        <ele>428.40</ele>
        <time>2022-10-26T11:14:04Z</time>
      </trkpt>
      <trkpt lat="10.278071" lon="-67.693055">
        <ele>428.40</ele>
        <time>2022-10-26T11:14:05Z</time>
      </trkpt>
      <trkpt lat="10.278055" lon="-67.692996">
        <ele>428.40</ele>
        <time>2022-10-26T11:14:06Z</time>
      </trkpt>
      <trkpt lat="10.278053" lon="-67.692943">
        <ele>428.40</ele>
        <time>2022-10-26T11:14:07Z</time>
      </trkpt>
      <trkpt lat="10.278047" lon="-67.692896">
        <ele>428.30</ele>
        <time>2022-10-26T11:14:08Z</time>
      </trkpt>
      <trkpt lat="10.278032" lon="-67.692844">
        <ele>428.30</ele>
        <time>2022-10-26T11:14:09Z</time>
      </trkpt>
      <trkpt lat="10.278018" lon="-67.692788">
        <ele>428.30</ele>
        <time>2022-10-26T11:14:10Z</time>
      </trkpt>
      <trkpt lat="10.278006" lon="-67.692734">
        <ele>428.30</ele>
        <time>2022-10-26T11:14:11Z</time>
      </trkpt>
      <trkpt lat="10.277994" lon="-67.692682">
        <ele>428.30</ele>
        <time>2022-10-26T11:14:12Z</time>
      </trkpt>
      <trkpt lat="10.277974" lon="-67.692634">
        <ele>428.30</ele>
        <time>2022-10-26T11:14:13Z</time>
      </trkpt>
      <trkpt lat="10.277952" lon="-67.692589">
        <ele>428.30</ele>
        <time>2022-10-26T11:14:14Z</time>
      </trkpt>
      <trkpt lat="10.277931" lon="-67.692536">
        <ele>428.30</ele>
        <time>2022-10-26T11:14:15Z</time>
      </trkpt>
      <trkpt lat="10.277917" lon="-67.692481">
        <ele>428.30</ele>
        <time>2022-10-26T11:14:16Z</time>
      </trkpt>
      <trkpt lat="10.277906" lon="-67.692424">
        <ele>428.30</ele>
        <time>2022-10-26T11:14:17Z</time>
      </trkpt>
      <trkpt lat="10.277896" lon="-67.692368">
        <ele>428.30</ele>
        <time>2022-10-26T11:14:18Z</time>
      </trkpt>
      <trkpt lat="10.277885" lon="-67.692311">
        <ele>428.20</ele>
        <time>2022-10-26T11:14:19Z</time>
      </trkpt>
      <trkpt lat="10.277873" lon="-67.692253">
        <ele>428.20</ele>
        <time>2022-10-26T11:14:20Z</time>
      </trkpt>
      <trkpt lat="10.277860" lon="-67.692197">
        <ele>428.20</ele>
        <time>2022-10-26T11:14:21Z</time>
      </trkpt>
      <trkpt lat="10.277846" lon="-67.692144">
        <ele>428.20</ele>
        <time>2022-10-26T11:14:22Z</time>
      </trkpt>
      <trkpt lat="10.277829" lon="-67.692095">
        <ele>428.20</ele>
        <time>2022-10-26T11:14:23Z</time>
      </trkpt>
      <trkpt lat="10.277819" lon="-67.692036">
        <ele>428.20</ele>
        <time>2022-10-26T11:14:24Z</time>
      </trkpt>
      <trkpt lat="10.277815" lon="-67.691976">
        <ele>428.20</ele>
        <time>2022-10-26T11:14:25Z</time>
      </trkpt>
      <trkpt lat="10.277807" lon="-67.691919">
        <ele>428.30</ele>
        <time>2022-10-26T11:14:26Z</time>
      </trkpt>
      <trkpt lat="10.277796" lon="-67.691862">
        <ele>428.30</ele>
        <time>2022-10-26T11:14:27Z</time>
      </trkpt>
      <trkpt lat="10.277785" lon="-67.691805">
        <ele>428.30</ele>
        <time>2022-10-26T11:14:28Z</time>
      </trkpt>
      <trkpt lat="10.277774" lon="-67.691751">
        <ele>428.30</ele>
        <time>2022-10-26T11:14:29Z</time>
      </trkpt>
      <trkpt lat="10.277763" lon="-67.691699">
        <ele>428.30</ele>
        <time>2022-10-26T11:14:30Z</time>
      </trkpt>
      <trkpt lat="10.277748" lon="-67.691648">
        <ele>428.30</ele>
        <time>2022-10-26T11:14:31Z</time>
      </trkpt>
      <trkpt lat="10.277731" lon="-67.691597">
        <ele>428.40</ele>
        <time>2022-10-26T11:14:32Z</time>
      </trkpt>
      <trkpt lat="10.277712" lon="-67.691542">
        <ele>428.40</ele>
        <time>2022-10-26T11:14:33Z</time>
      </trkpt>
      <trkpt lat="10.277694" lon="-67.691484">
        <ele>428.40</ele>
        <time>2022-10-26T11:14:34Z</time>
      </trkpt>
      <trkpt lat="10.277674" lon="-67.691426">
        <ele>428.40</ele>
        <time>2022-10-26T11:14:35Z</time>
      </trkpt>
      <trkpt lat="10.277659" lon="-67.691373">
        <ele>428.50</ele>
        <time>2022-10-26T11:14:36Z</time>
      </trkpt>
      <trkpt lat="10.277639" lon="-67.691316">
        <ele>428.50</ele>
        <time>2022-10-26T11:14:37Z</time>
      </trkpt>
      <trkpt lat="10.277623" lon="-67.691265">
        <ele>428.50</ele>
        <time>2022-10-26T11:14:38Z</time>
      </trkpt>
      <trkpt lat="10.277607" lon="-67.691214">
        <ele>428.50</ele>
        <time>2022-10-26T11:14:39Z</time>
      </trkpt>
      <trkpt lat="10.277590" lon="-67.691156">
        <ele>428.60</ele>
        <time>2022-10-26T11:14:40Z</time>
      </trkpt>
      <trkpt lat="10.277576" lon="-67.691101">
        <ele>428.60</ele>
        <time>2022-10-26T11:14:41Z</time>
      </trkpt>
      <trkpt lat="10.277566" lon="-67.691049">
        <ele>428.70</ele>
        <time>2022-10-26T11:14:42Z</time>
      </trkpt>
      <trkpt lat="10.277554" lon="-67.690999">
        <ele>428.70</ele>
        <time>2022-10-26T11:14:43Z</time>
      </trkpt>
      <trkpt lat="10.277537" lon="-67.690947">
        <ele>428.80</ele>
        <time>2022-10-26T11:14:44Z</time>
      </trkpt>
      <trkpt lat="10.277523" lon="-67.690896">
        <ele>428.80</ele>
        <time>2022-10-26T11:14:45Z</time>
      </trkpt>
      <trkpt lat="10.277507" lon="-67.690846">
        <ele>428.90</ele>
        <time>2022-10-26T11:14:46Z</time>
      </trkpt>
      <trkpt lat="10.277494" lon="-67.690791">
        <ele>429.00</ele>
        <time>2022-10-26T11:14:47Z</time>
      </trkpt>
      <trkpt lat="10.277481" lon="-67.690734">
        <ele>429.00</ele>
        <time>2022-10-26T11:14:48Z</time>
      </trkpt>
      <trkpt lat="10.277468" lon="-67.690677">
        <ele>429.10</ele>
        <time>2022-10-26T11:14:49Z</time>
      </trkpt>
      <trkpt lat="10.277456" lon="-67.690621">
        <ele>429.20</ele>
        <time>2022-10-26T11:14:50Z</time>
      </trkpt>
      <trkpt lat="10.277443" lon="-67.690570">
        <ele>429.30</ele>
        <time>2022-10-26T11:14:51Z</time>
      </trkpt>
      <trkpt lat="10.277433" lon="-67.690521">
        <ele>429.40</ele>
        <time>2022-10-26T11:14:52Z</time>
      </trkpt>
      <trkpt lat="10.277426" lon="-67.690473">
        <ele>429.50</ele>
        <time>2022-10-26T11:14:53Z</time>
      </trkpt>
      <trkpt lat="10.277421" lon="-67.690423">
        <ele>429.60</ele>
        <time>2022-10-26T11:14:54Z</time>
      </trkpt>
      <trkpt lat="10.277417" lon="-67.690375">
        <ele>429.70</ele>
        <time>2022-10-26T11:14:55Z</time>
      </trkpt>
      <trkpt lat="10.277407" lon="-67.690324">
        <ele>429.90</ele>
        <time>2022-10-26T11:14:56Z</time>
      </trkpt>
      <trkpt lat="10.277389" lon="-67.690269">
        <ele>429.90</ele>
        <time>2022-10-26T11:14:57Z</time>
      </trkpt>
      <trkpt lat="10.277371" lon="-67.690219">
        <ele>429.90</ele>
        <time>2022-10-26T11:14:58Z</time>
      </trkpt>
      <trkpt lat="10.277355" lon="-67.690169">
        <ele>429.90</ele>
        <time>2022-10-26T11:14:59Z</time>
      </trkpt>
      <trkpt lat="10.277341" lon="-67.690117">
        <ele>429.90</ele>
        <time>2022-10-26T11:15:00Z</time>
      </trkpt>
      <trkpt lat="10.277321" lon="-67.690072">
        <ele>429.90</ele>
        <time>2022-10-26T11:15:01Z</time>
      </trkpt>
      <trkpt lat="10.277300" lon="-67.690019">
        <ele>429.90</ele>
        <time>2022-10-26T11:15:02Z</time>
      </trkpt>
      <trkpt lat="10.277274" lon="-67.689966">
        <ele>429.90</ele>
        <time>2022-10-26T11:15:03Z</time>
      </trkpt>
      <trkpt lat="10.277259" lon="-67.689923">
        <ele>429.90</ele>
        <time>2022-10-26T11:15:04Z</time>
      </trkpt>
      <trkpt lat="10.277250" lon="-67.689881">
        <ele>429.90</ele>
        <time>2022-10-26T11:15:05Z</time>
      </trkpt>
      <trkpt lat="10.277236" lon="-67.689833">
        <ele>429.90</ele>
        <time>2022-10-26T11:15:06Z</time>
      </trkpt>
      <trkpt lat="10.277215" lon="-67.689785">
        <ele>429.90</ele>
        <time>2022-10-26T11:15:07Z</time>
      </trkpt>
      <trkpt lat="10.277197" lon="-67.689738">
        <ele>429.90</ele>
        <time>2022-10-26T11:15:08Z</time>
      </trkpt>
      <trkpt lat="10.277184" lon="-67.689688">
        <ele>429.90</ele>
        <time>2022-10-26T11:15:09Z</time>
      </trkpt>
      <trkpt lat="10.277173" lon="-67.689637">
        <ele>429.90</ele>
        <time>2022-10-26T11:15:10Z</time>
      </trkpt>
      <trkpt lat="10.277161" lon="-67.689590">
        <ele>429.90</ele>
        <time>2022-10-26T11:15:11Z</time>
      </trkpt>
      <trkpt lat="10.277151" lon="-67.689540">
        <ele>429.90</ele>
        <time>2022-10-26T11:15:12Z</time>
      </trkpt>
      <trkpt lat="10.277143" lon="-67.689489">
        <ele>429.90</ele>
        <time>2022-10-26T11:15:13Z</time>
      </trkpt>
      <trkpt lat="10.277127" lon="-67.689436">
        <ele>429.90</ele>
        <time>2022-10-26T11:15:14Z</time>
      </trkpt>
      <trkpt lat="10.277113" lon="-67.689379">
        <ele>429.90</ele>
        <time>2022-10-26T11:15:15Z</time>
      </trkpt>
      <trkpt lat="10.277104" lon="-67.689325">
        <ele>429.90</ele>
        <time>2022-10-26T11:15:16Z</time>
      </trkpt>
      <trkpt lat="10.277093" lon="-67.689270">
        <ele>430.00</ele>
        <time>2022-10-26T11:15:17Z</time>
      </trkpt>
      <trkpt lat="10.277082" lon="-67.689213">
        <ele>430.00</ele>
        <time>2022-10-26T11:15:18Z</time>
      </trkpt>
      <trkpt lat="10.277070" lon="-67.689155">
        <ele>430.00</ele>
        <time>2022-10-26T11:15:19Z</time>
      </trkpt>
      <trkpt lat="10.277056" lon="-67.689099">
        <ele>430.00</ele>
        <time>2022-10-26T11:15:20Z</time>
      </trkpt>
      <trkpt lat="10.277042" lon="-67.689043">
        <ele>430.00</ele>
        <time>2022-10-26T11:15:21Z</time>
      </trkpt>
      <trkpt lat="10.277029" lon="-67.688986">
        <ele>430.00</ele>
        <time>2022-10-26T11:15:22Z</time>
      </trkpt>
      <trkpt lat="10.277019" lon="-67.688929">
        <ele>430.10</ele>
        <time>2022-10-26T11:15:23Z</time>
      </trkpt>
      <trkpt lat="10.277009" lon="-67.688871">
        <ele>430.10</ele>
        <time>2022-10-26T11:15:24Z</time>
      </trkpt>
      <trkpt lat="10.276994" lon="-67.688818">
        <ele>430.10</ele>
        <time>2022-10-26T11:15:25Z</time>
      </trkpt>
      <trkpt lat="10.276980" lon="-67.688767">
        <ele>430.20</ele>
        <time>2022-10-26T11:15:26Z</time>
      </trkpt>
      <trkpt lat="10.276965" lon="-67.688715">
        <ele>430.30</ele>
        <time>2022-10-26T11:15:27Z</time>
      </trkpt>
      <trkpt lat="10.276951" lon="-67.688660">
        <ele>430.30</ele>
        <time>2022-10-26T11:15:28Z</time>
      </trkpt>
      <trkpt lat="10.276938" lon="-67.688608">
        <ele>430.30</ele>
        <time>2022-10-26T11:15:29Z</time>
      </trkpt>
      <trkpt lat="10.276925" lon="-67.688559">
        <ele>430.30</ele>
        <time>2022-10-26T11:15:30Z</time>
      </trkpt>
      <trkpt lat="10.276911" lon="-67.688508">
        <ele>430.40</ele>
        <time>2022-10-26T11:15:31Z</time>
      </trkpt>
      <trkpt lat="10.276898" lon="-67.688458">
        <ele>430.40</ele>
        <time>2022-10-26T11:15:32Z</time>
      </trkpt>
      <trkpt lat="10.276886" lon="-67.688409">
        <ele>430.40</ele>
        <time>2022-10-26T11:15:33Z</time>
      </trkpt>
      <trkpt lat="10.276873" lon="-67.688357">
        <ele>430.50</ele>
        <time>2022-10-26T11:15:34Z</time>
      </trkpt>
      <trkpt lat="10.276860" lon="-67.688303">
        <ele>430.50</ele>
        <time>2022-10-26T11:15:35Z</time>
      </trkpt>
      <trkpt lat="10.276846" lon="-67.688249">
        <ele>430.50</ele>
        <time>2022-10-26T11:15:36Z</time>
      </trkpt>
      <trkpt lat="10.276830" lon="-67.688196">
        <ele>430.50</ele>
        <time>2022-10-26T11:15:37Z</time>
      </trkpt>
      <trkpt lat="10.276813" lon="-67.688143">
        <ele>430.60</ele>
        <time>2022-10-26T11:15:38Z</time>
      </trkpt>
      <trkpt lat="10.276797" lon="-67.688088">
        <ele>430.60</ele>
        <time>2022-10-26T11:15:39Z</time>
      </trkpt>
      <trkpt lat="10.276783" lon="-67.688031">
        <ele>430.70</ele>
        <time>2022-10-26T11:15:40Z</time>
      </trkpt>
      <trkpt lat="10.276771" lon="-67.687971">
        <ele>430.70</ele>
        <time>2022-10-26T11:15:41Z</time>
      </trkpt>
      <trkpt lat="10.276758" lon="-67.687913">
        <ele>430.70</ele>
        <time>2022-10-26T11:15:42Z</time>
      </trkpt>
      <trkpt lat="10.276745" lon="-67.687856">
        <ele>430.70</ele>
        <time>2022-10-26T11:15:43Z</time>
      </trkpt>
      <trkpt lat="10.276732" lon="-67.687801">
        <ele>430.80</ele>
        <time>2022-10-26T11:15:44Z</time>
      </trkpt>
      <trkpt lat="10.276712" lon="-67.687746">
        <ele>430.80</ele>
        <time>2022-10-26T11:15:45Z</time>
      </trkpt>
      <trkpt lat="10.276680" lon="-67.687661">
        <ele>430.80</ele>
        <time>2022-10-26T11:15:46Z</time>
      </trkpt>
      <trkpt lat="10.276671" lon="-67.687631">
        <ele>430.80</ele>
        <time>2022-10-26T11:15:47Z</time>
      </trkpt>
      <trkpt lat="10.276656" lon="-67.687573">
        <ele>430.80</ele>
        <time>2022-10-26T11:15:48Z</time>
      </trkpt>
      <trkpt lat="10.276635" lon="-67.687516">
        <ele>430.80</ele>
        <time>2022-10-26T11:15:49Z</time>
      </trkpt>
      <trkpt lat="10.276616" lon="-67.687461">
        <ele>430.80</ele>
        <time>2022-10-26T11:15:50Z</time>
      </trkpt>
      <trkpt lat="10.276596" lon="-67.687403">
        <ele>430.80</ele>
        <time>2022-10-26T11:15:51Z</time>
      </trkpt>
      <trkpt lat="10.276574" lon="-67.687347">
        <ele>430.80</ele>
        <time>2022-10-26T11:15:52Z</time>
      </trkpt>
      <trkpt lat="10.276553" lon="-67.687292">
        <ele>430.80</ele>
        <time>2022-10-26T11:15:53Z</time>
      </trkpt>
      <trkpt lat="10.276528" lon="-67.687235">
        <ele>430.90</ele>
        <time>2022-10-26T11:15:54Z</time>
      </trkpt>
      <trkpt lat="10.276504" lon="-67.687177">
        <ele>430.90</ele>
        <time>2022-10-26T11:15:55Z</time>
      </trkpt>
      <trkpt lat="10.276484" lon="-67.687121">
        <ele>430.90</ele>
        <time>2022-10-26T11:15:56Z</time>
      </trkpt>
      <trkpt lat="10.276466" lon="-67.687065">
        <ele>430.90</ele>
        <time>2022-10-26T11:15:57Z</time>
      </trkpt>
      <trkpt lat="10.276451" lon="-67.687008">
        <ele>430.90</ele>
        <time>2022-10-26T11:15:58Z</time>
      </trkpt>
      <trkpt lat="10.276442" lon="-67.686948">
        <ele>430.90</ele>
        <time>2022-10-26T11:15:59Z</time>
      </trkpt>
      <trkpt lat="10.276430" lon="-67.686889">
        <ele>430.90</ele>
        <time>2022-10-26T11:16:00Z</time>
      </trkpt>
      <trkpt lat="10.276417" lon="-67.686833">
        <ele>430.90</ele>
        <time>2022-10-26T11:16:01Z</time>
      </trkpt>
      <trkpt lat="10.276404" lon="-67.686777">
        <ele>430.90</ele>
        <time>2022-10-26T11:16:02Z</time>
      </trkpt>
      <trkpt lat="10.276390" lon="-67.686725">
        <ele>430.80</ele>
        <time>2022-10-26T11:16:03Z</time>
      </trkpt>
      <trkpt lat="10.276372" lon="-67.686675">
        <ele>430.80</ele>
        <time>2022-10-26T11:16:04Z</time>
      </trkpt>
      <trkpt lat="10.276355" lon="-67.686627">
        <ele>430.80</ele>
        <time>2022-10-26T11:16:05Z</time>
      </trkpt>
      <trkpt lat="10.276338" lon="-67.686579">
        <ele>430.80</ele>
        <time>2022-10-26T11:16:06Z</time>
      </trkpt>
      <trkpt lat="10.276321" lon="-67.686530">
        <ele>430.80</ele>
        <time>2022-10-26T11:16:07Z</time>
      </trkpt>
      <trkpt lat="10.276305" lon="-67.686479">
        <ele>430.80</ele>
        <time>2022-10-26T11:16:08Z</time>
      </trkpt>
      <trkpt lat="10.276290" lon="-67.686427">
        <ele>430.80</ele>
        <time>2022-10-26T11:16:09Z</time>
      </trkpt>
      <trkpt lat="10.276277" lon="-67.686375">
        <ele>430.80</ele>
        <time>2022-10-26T11:16:10Z</time>
      </trkpt>
      <trkpt lat="10.276265" lon="-67.686324">
        <ele>430.80</ele>
        <time>2022-10-26T11:16:11Z</time>
      </trkpt>
      <trkpt lat="10.276252" lon="-67.686273">
        <ele>430.80</ele>
        <time>2022-10-26T11:16:12Z</time>
      </trkpt>
      <trkpt lat="10.276240" lon="-67.686222">
        <ele>430.80</ele>
        <time>2022-10-26T11:16:13Z</time>
      </trkpt>
      <trkpt lat="10.276230" lon="-67.686174">
        <ele>430.80</ele>
        <time>2022-10-26T11:16:14Z</time>
      </trkpt>
      <trkpt lat="10.276219" lon="-67.686126">
        <ele>430.80</ele>
        <time>2022-10-26T11:16:15Z</time>
      </trkpt>
      <trkpt lat="10.276206" lon="-67.686074">
        <ele>430.90</ele>
        <time>2022-10-26T11:16:16Z</time>
      </trkpt>
      <trkpt lat="10.276191" lon="-67.686020">
        <ele>430.90</ele>
        <time>2022-10-26T11:16:17Z</time>
      </trkpt>
      <trkpt lat="10.276176" lon="-67.685968">
        <ele>430.90</ele>
        <time>2022-10-26T11:16:18Z</time>
      </trkpt>
      <trkpt lat="10.276160" lon="-67.685914">
        <ele>430.90</ele>
        <time>2022-10-26T11:16:19Z</time>
      </trkpt>
      <trkpt lat="10.276142" lon="-67.685856">
        <ele>430.90</ele>
        <time>2022-10-26T11:16:20Z</time>
      </trkpt>
      <trkpt lat="10.276124" lon="-67.685797">
        <ele>430.90</ele>
        <time>2022-10-26T11:16:21Z</time>
      </trkpt>
      <trkpt lat="10.276108" lon="-67.685738">
        <ele>430.80</ele>
        <time>2022-10-26T11:16:22Z</time>
      </trkpt>
      <trkpt lat="10.276093" lon="-67.685679">
        <ele>430.80</ele>
        <time>2022-10-26T11:16:23Z</time>
      </trkpt>
      <trkpt lat="10.276077" lon="-67.685619">
        <ele>430.80</ele>
        <time>2022-10-26T11:16:24Z</time>
      </trkpt>
      <trkpt lat="10.276061" lon="-67.685558">
        <ele>430.70</ele>
        <time>2022-10-26T11:16:25Z</time>
      </trkpt>
      <trkpt lat="10.276047" lon="-67.685498">
        <ele>430.70</ele>
        <time>2022-10-26T11:16:26Z</time>
      </trkpt>
      <trkpt lat="10.276034" lon="-67.685437">
        <ele>430.70</ele>
        <time>2022-10-26T11:16:27Z</time>
      </trkpt>
      <trkpt lat="10.276020" lon="-67.685379">
        <ele>430.60</ele>
        <time>2022-10-26T11:16:28Z</time>
      </trkpt>
      <trkpt lat="10.276005" lon="-67.685321">
        <ele>430.60</ele>
        <time>2022-10-26T11:16:29Z</time>
      </trkpt>
      <trkpt lat="10.275992" lon="-67.685266">
        <ele>430.50</ele>
        <time>2022-10-26T11:16:30Z</time>
      </trkpt>
      <trkpt lat="10.275977" lon="-67.685207">
        <ele>430.50</ele>
        <time>2022-10-26T11:16:31Z</time>
      </trkpt>
      <trkpt lat="10.275962" lon="-67.685150">
        <ele>430.50</ele>
        <time>2022-10-26T11:16:32Z</time>
      </trkpt>
      <trkpt lat="10.275948" lon="-67.685092">
        <ele>430.40</ele>
        <time>2022-10-26T11:16:33Z</time>
      </trkpt>
      <trkpt lat="10.275933" lon="-67.685036">
        <ele>430.40</ele>
        <time>2022-10-26T11:16:34Z</time>
      </trkpt>
      <trkpt lat="10.275917" lon="-67.684975">
        <ele>430.40</ele>
        <time>2022-10-26T11:16:35Z</time>
      </trkpt>
      <trkpt lat="10.275900" lon="-67.684916">
        <ele>430.30</ele>
        <time>2022-10-26T11:16:36Z</time>
      </trkpt>
      <trkpt lat="10.275884" lon="-67.684858">
        <ele>430.30</ele>
        <time>2022-10-26T11:16:37Z</time>
      </trkpt>
      <trkpt lat="10.275867" lon="-67.684799">
        <ele>430.20</ele>
        <time>2022-10-26T11:16:38Z</time>
      </trkpt>
      <trkpt lat="10.275852" lon="-67.684736">
        <ele>430.10</ele>
        <time>2022-10-26T11:16:39Z</time>
      </trkpt>
      <trkpt lat="10.275835" lon="-67.684674">
        <ele>430.10</ele>
        <time>2022-10-26T11:16:40Z</time>
      </trkpt>
      <trkpt lat="10.275817" lon="-67.684614">
        <ele>430.00</ele>
        <time>2022-10-26T11:16:41Z</time>
      </trkpt>
      <trkpt lat="10.275800" lon="-67.684556">
        <ele>430.00</ele>
        <time>2022-10-26T11:16:42Z</time>
      </trkpt>
      <trkpt lat="10.275779" lon="-67.684497">
        <ele>430.00</ele>
        <time>2022-10-26T11:16:43Z</time>
      </trkpt>
      <trkpt lat="10.275758" lon="-67.684439">
        <ele>429.90</ele>
        <time>2022-10-26T11:16:44Z</time>
      </trkpt>
      <trkpt lat="10.275740" lon="-67.684381">
        <ele>429.90</ele>
        <time>2022-10-26T11:16:45Z</time>
      </trkpt>
      <trkpt lat="10.275726" lon="-67.684320">
        <ele>429.90</ele>
        <time>2022-10-26T11:16:46Z</time>
      </trkpt>
      <trkpt lat="10.275708" lon="-67.684262">
        <ele>429.80</ele>
        <time>2022-10-26T11:16:47Z</time>
      </trkpt>
      <trkpt lat="10.275692" lon="-67.684208">
        <ele>429.80</ele>
        <time>2022-10-26T11:16:48Z</time>
      </trkpt>
      <trkpt lat="10.275677" lon="-67.684155">
        <ele>429.80</ele>
        <time>2022-10-26T11:16:49Z</time>
      </trkpt>
      <trkpt lat="10.275664" lon="-67.684099">
        <ele>429.70</ele>
        <time>2022-10-26T11:16:50Z</time>
      </trkpt>
      <trkpt lat="10.275652" lon="-67.684041">
        <ele>429.70</ele>
        <time>2022-10-26T11:16:51Z</time>
      </trkpt>
      <trkpt lat="10.275638" lon="-67.683978">
        <ele>429.60</ele>
        <time>2022-10-26T11:16:52Z</time>
      </trkpt>
      <trkpt lat="10.275621" lon="-67.683916">
        <ele>429.60</ele>
        <time>2022-10-26T11:16:53Z</time>
      </trkpt>
      <trkpt lat="10.275604" lon="-67.683856">
        <ele>429.50</ele>
        <time>2022-10-26T11:16:54Z</time>
      </trkpt>
      <trkpt lat="10.275587" lon="-67.683797">
        <ele>429.50</ele>
        <time>2022-10-26T11:16:55Z</time>
      </trkpt>
      <trkpt lat="10.275568" lon="-67.683738">
        <ele>429.50</ele>
        <time>2022-10-26T11:16:56Z</time>
      </trkpt>
      <trkpt lat="10.275550" lon="-67.683678">
        <ele>429.50</ele>
        <time>2022-10-26T11:16:57Z</time>
      </trkpt>
      <trkpt lat="10.275532" lon="-67.683619">
        <ele>429.50</ele>
        <time>2022-10-26T11:16:58Z</time>
      </trkpt>
      <trkpt lat="10.275515" lon="-67.683558">
        <ele>429.50</ele>
        <time>2022-10-26T11:16:59Z</time>
      </trkpt>
      <trkpt lat="10.275498" lon="-67.683498">
        <ele>429.50</ele>
        <time>2022-10-26T11:17:00Z</time>
      </trkpt>
      <trkpt lat="10.275482" lon="-67.683440">
        <ele>429.50</ele>
        <time>2022-10-26T11:17:01Z</time>
      </trkpt>
      <trkpt lat="10.275463" lon="-67.683383">
        <ele>429.50</ele>
        <time>2022-10-26T11:17:02Z</time>
      </trkpt>
      <trkpt lat="10.275441" lon="-67.683324">
        <ele>429.50</ele>
        <time>2022-10-26T11:17:03Z</time>
      </trkpt>
      <trkpt lat="10.275418" lon="-67.683263">
        <ele>429.50</ele>
        <time>2022-10-26T11:17:04Z</time>
      </trkpt>
      <trkpt lat="10.275398" lon="-67.683204">
        <ele>429.50</ele>
        <time>2022-10-26T11:17:05Z</time>
      </trkpt>
      <trkpt lat="10.275381" lon="-67.683147">
        <ele>429.50</ele>
        <time>2022-10-26T11:17:06Z</time>
      </trkpt>
      <trkpt lat="10.275365" lon="-67.683091">
        <ele>429.50</ele>
        <time>2022-10-26T11:17:07Z</time>
      </trkpt>
      <trkpt lat="10.275349" lon="-67.683034">
        <ele>429.50</ele>
        <time>2022-10-26T11:17:08Z</time>
      </trkpt>
      <trkpt lat="10.275333" lon="-67.682982">
        <ele>429.50</ele>
        <time>2022-10-26T11:17:09Z</time>
      </trkpt>
      <trkpt lat="10.275318" lon="-67.682933">
        <ele>429.50</ele>
        <time>2022-10-26T11:17:10Z</time>
      </trkpt>
      <trkpt lat="10.275304" lon="-67.682881">
        <ele>429.50</ele>
        <time>2022-10-26T11:17:11Z</time>
      </trkpt>
      <trkpt lat="10.275290" lon="-67.682826">
        <ele>429.50</ele>
        <time>2022-10-26T11:17:12Z</time>
      </trkpt>
      <trkpt lat="10.275276" lon="-67.682774">
        <ele>429.50</ele>
        <time>2022-10-26T11:17:13Z</time>
      </trkpt>
      <trkpt lat="10.275259" lon="-67.682716">
        <ele>429.50</ele>
        <time>2022-10-26T11:17:14Z</time>
      </trkpt>
      <trkpt lat="10.275245" lon="-67.682656">
        <ele>429.50</ele>
        <time>2022-10-26T11:17:15Z</time>
      </trkpt>
      <trkpt lat="10.275232" lon="-67.682598">
        <ele>429.50</ele>
        <time>2022-10-26T11:17:16Z</time>
      </trkpt>
      <trkpt lat="10.275219" lon="-67.682542">
        <ele>429.50</ele>
        <time>2022-10-26T11:17:17Z</time>
      </trkpt>
      <trkpt lat="10.275206" lon="-67.682481">
        <ele>429.50</ele>
        <time>2022-10-26T11:17:18Z</time>
      </trkpt>
      <trkpt lat="10.275191" lon="-67.682419">
        <ele>429.50</ele>
        <time>2022-10-26T11:17:19Z</time>
      </trkpt>
      <trkpt lat="10.275174" lon="-67.682356">
        <ele>429.40</ele>
        <time>2022-10-26T11:17:20Z</time>
      </trkpt>
      <trkpt lat="10.275159" lon="-67.682298">
        <ele>429.40</ele>
        <time>2022-10-26T11:17:21Z</time>
      </trkpt>
      <trkpt lat="10.275144" lon="-67.682240">
        <ele>429.30</ele>
        <time>2022-10-26T11:17:22Z</time>
      </trkpt>
      <trkpt lat="10.275129" lon="-67.682179">
        <ele>429.30</ele>
        <time>2022-10-26T11:17:23Z</time>
      </trkpt>
      <trkpt lat="10.275112" lon="-67.682117">
        <ele>429.30</ele>
        <time>2022-10-26T11:17:24Z</time>
      </trkpt>
      <trkpt lat="10.275097" lon="-67.682054">
        <ele>429.30</ele>
        <time>2022-10-26T11:17:25Z</time>
      </trkpt>
      <trkpt lat="10.275079" lon="-67.681989">
        <ele>429.30</ele>
        <time>2022-10-26T11:17:26Z</time>
      </trkpt>
      <trkpt lat="10.275064" lon="-67.681933">
        <ele>429.40</ele>
        <time>2022-10-26T11:17:27Z</time>
      </trkpt>
      <trkpt lat="10.275047" lon="-67.681872">
        <ele>429.40</ele>
        <time>2022-10-26T11:17:28Z</time>
      </trkpt>
      <trkpt lat="10.275031" lon="-67.681815">
        <ele>429.40</ele>
        <time>2022-10-26T11:17:29Z</time>
      </trkpt>
      <trkpt lat="10.275015" lon="-67.681755">
        <ele>429.30</ele>
        <time>2022-10-26T11:17:30Z</time>
      </trkpt>
      <trkpt lat="10.275001" lon="-67.681692">
        <ele>429.30</ele>
        <time>2022-10-26T11:17:31Z</time>
      </trkpt>
      <trkpt lat="10.274986" lon="-67.681632">
        <ele>429.20</ele>
        <time>2022-10-26T11:17:32Z</time>
      </trkpt>
      <trkpt lat="10.274971" lon="-67.681571">
        <ele>429.20</ele>
        <time>2022-10-26T11:17:33Z</time>
      </trkpt>
      <trkpt lat="10.274957" lon="-67.681513">
        <ele>429.20</ele>
        <time>2022-10-26T11:17:34Z</time>
      </trkpt>
      <trkpt lat="10.274943" lon="-67.681452">
        <ele>429.20</ele>
        <time>2022-10-26T11:17:35Z</time>
      </trkpt>
      <trkpt lat="10.274928" lon="-67.681389">
        <ele>429.20</ele>
        <time>2022-10-26T11:17:36Z</time>
      </trkpt>
      <trkpt lat="10.274914" lon="-67.681324">
        <ele>429.20</ele>
        <time>2022-10-26T11:17:37Z</time>
      </trkpt>
      <trkpt lat="10.274902" lon="-67.681264">
        <ele>429.20</ele>
        <time>2022-10-26T11:17:38Z</time>
      </trkpt>
      <trkpt lat="10.274888" lon="-67.681204">
        <ele>429.20</ele>
        <time>2022-10-26T11:17:39Z</time>
      </trkpt>
      <trkpt lat="10.274874" lon="-67.681145">
        <ele>429.20</ele>
        <time>2022-10-26T11:17:40Z</time>
      </trkpt>
      <trkpt lat="10.274859" lon="-67.681085">
        <ele>429.10</ele>
        <time>2022-10-26T11:17:41Z</time>
      </trkpt>
      <trkpt lat="10.274846" lon="-67.681021">
        <ele>429.10</ele>
        <time>2022-10-26T11:17:42Z</time>
      </trkpt>
      <trkpt lat="10.274836" lon="-67.680957">
        <ele>429.10</ele>
        <time>2022-10-26T11:17:43Z</time>
      </trkpt>
      <trkpt lat="10.274825" lon="-67.680890">
        <ele>429.00</ele>
        <time>2022-10-26T11:17:44Z</time>
      </trkpt>
      <trkpt lat="10.274814" lon="-67.680830">
        <ele>429.00</ele>
        <time>2022-10-26T11:17:45Z</time>
      </trkpt>
      <trkpt lat="10.274801" lon="-67.680772">
        <ele>429.00</ele>
        <time>2022-10-26T11:17:46Z</time>
      </trkpt>
      <trkpt lat="10.274788" lon="-67.680717">
        <ele>429.00</ele>
        <time>2022-10-26T11:17:47Z</time>
      </trkpt>
      <trkpt lat="10.274778" lon="-67.680664">
        <ele>429.00</ele>
        <time>2022-10-26T11:17:48Z</time>
      </trkpt>
      <trkpt lat="10.274762" lon="-67.680609">
        <ele>429.10</ele>
        <time>2022-10-26T11:17:49Z</time>
      </trkpt>
      <trkpt lat="10.274742" lon="-67.680557">
        <ele>429.10</ele>
        <time>2022-10-26T11:17:50Z</time>
      </trkpt>
      <trkpt lat="10.274718" lon="-67.680505">
        <ele>429.10</ele>
        <time>2022-10-26T11:17:51Z</time>
      </trkpt>
      <trkpt lat="10.274693" lon="-67.680451">
        <ele>429.00</ele>
        <time>2022-10-26T11:17:52Z</time>
      </trkpt>
      <trkpt lat="10.274667" lon="-67.680396">
        <ele>429.00</ele>
        <time>2022-10-26T11:17:53Z</time>
      </trkpt>
      <trkpt lat="10.274647" lon="-67.680342">
        <ele>429.00</ele>
        <time>2022-10-26T11:17:54Z</time>
      </trkpt>
      <trkpt lat="10.274631" lon="-67.680291">
        <ele>429.00</ele>
        <time>2022-10-26T11:17:55Z</time>
      </trkpt>
      <trkpt lat="10.274617" lon="-67.680238">
        <ele>428.90</ele>
        <time>2022-10-26T11:17:56Z</time>
      </trkpt>
      <trkpt lat="10.274603" lon="-67.680187">
        <ele>428.90</ele>
        <time>2022-10-26T11:17:57Z</time>
      </trkpt>
      <trkpt lat="10.274588" lon="-67.680133">
        <ele>428.90</ele>
        <time>2022-10-26T11:17:58Z</time>
      </trkpt>
      <trkpt lat="10.274573" lon="-67.680080">
        <ele>428.90</ele>
        <time>2022-10-26T11:17:59Z</time>
      </trkpt>
      <trkpt lat="10.274557" lon="-67.680029">
        <ele>428.90</ele>
        <time>2022-10-26T11:18:00Z</time>
      </trkpt>
      <trkpt lat="10.274542" lon="-67.679977">
        <ele>428.90</ele>
        <time>2022-10-26T11:18:01Z</time>
      </trkpt>
      <trkpt lat="10.274528" lon="-67.679923">
        <ele>428.90</ele>
        <time>2022-10-26T11:18:02Z</time>
      </trkpt>
      <trkpt lat="10.274515" lon="-67.679873">
        <ele>428.90</ele>
        <time>2022-10-26T11:18:03Z</time>
      </trkpt>
      <trkpt lat="10.274498" lon="-67.679821">
        <ele>428.90</ele>
        <time>2022-10-26T11:18:04Z</time>
      </trkpt>
      <trkpt lat="10.274483" lon="-67.679766">
        <ele>428.80</ele>
        <time>2022-10-26T11:18:05Z</time>
      </trkpt>
      <trkpt lat="10.274467" lon="-67.679710">
        <ele>428.80</ele>
        <time>2022-10-26T11:18:06Z</time>
      </trkpt>
      <trkpt lat="10.274450" lon="-67.679653">
        <ele>428.80</ele>
        <time>2022-10-26T11:18:07Z</time>
      </trkpt>
      <trkpt lat="10.274434" lon="-67.679600">
        <ele>428.80</ele>
        <time>2022-10-26T11:18:08Z</time>
      </trkpt>
      <trkpt lat="10.274418" lon="-67.679547">
        <ele>428.80</ele>
        <time>2022-10-26T11:18:09Z</time>
      </trkpt>
      <trkpt lat="10.274404" lon="-67.679494">
        <ele>428.80</ele>
        <time>2022-10-26T11:18:10Z</time>
      </trkpt>
      <trkpt lat="10.274391" lon="-67.679440">
        <ele>428.70</ele>
        <time>2022-10-26T11:18:11Z</time>
      </trkpt>
      <trkpt lat="10.274378" lon="-67.679384">
        <ele>428.70</ele>
        <time>2022-10-26T11:18:12Z</time>
      </trkpt>
      <trkpt lat="10.274364" lon="-67.679329">
        <ele>428.70</ele>
        <time>2022-10-26T11:18:13Z</time>
      </trkpt>
      <trkpt lat="10.274348" lon="-67.679270">
        <ele>428.70</ele>
        <time>2022-10-26T11:18:14Z</time>
      </trkpt>
      <trkpt lat="10.274330" lon="-67.679213">
        <ele>428.70</ele>
        <time>2022-10-26T11:18:15Z</time>
      </trkpt>
      <trkpt lat="10.274312" lon="-67.679153">
        <ele>428.70</ele>
        <time>2022-10-26T11:18:16Z</time>
      </trkpt>
      <trkpt lat="10.274293" lon="-67.679098">
        <ele>428.70</ele>
        <time>2022-10-26T11:18:17Z</time>
      </trkpt>
      <trkpt lat="10.274275" lon="-67.679045">
        <ele>428.70</ele>
        <time>2022-10-26T11:18:18Z</time>
      </trkpt>
      <trkpt lat="10.274260" lon="-67.678994">
        <ele>428.70</ele>
        <time>2022-10-26T11:18:19Z</time>
      </trkpt>
      <trkpt lat="10.274244" lon="-67.678944">
        <ele>428.60</ele>
        <time>2022-10-26T11:18:20Z</time>
      </trkpt>
      <trkpt lat="10.274227" lon="-67.678894">
        <ele>428.60</ele>
        <time>2022-10-26T11:18:21Z</time>
      </trkpt>
      <trkpt lat="10.274207" lon="-67.678845">
        <ele>428.50</ele>
        <time>2022-10-26T11:18:22Z</time>
      </trkpt>
      <trkpt lat="10.274189" lon="-67.678790">
        <ele>428.50</ele>
        <time>2022-10-26T11:18:23Z</time>
      </trkpt>
      <trkpt lat="10.274172" lon="-67.678734">
        <ele>428.40</ele>
        <time>2022-10-26T11:18:24Z</time>
      </trkpt>
      <trkpt lat="10.274155" lon="-67.678675">
        <ele>428.40</ele>
        <time>2022-10-26T11:18:25Z</time>
      </trkpt>
      <trkpt lat="10.274141" lon="-67.678622">
        <ele>428.40</ele>
        <time>2022-10-26T11:18:26Z</time>
      </trkpt>
      <trkpt lat="10.274127" lon="-67.678568">
        <ele>428.30</ele>
        <time>2022-10-26T11:18:27Z</time>
      </trkpt>
      <trkpt lat="10.274111" lon="-67.678513">
        <ele>428.30</ele>
        <time>2022-10-26T11:18:28Z</time>
      </trkpt>
      <trkpt lat="10.274097" lon="-67.678460">
        <ele>428.30</ele>
        <time>2022-10-26T11:18:29Z</time>
      </trkpt>
      <trkpt lat="10.274084" lon="-67.678406">
        <ele>428.20</ele>
        <time>2022-10-26T11:18:30Z</time>
      </trkpt>
      <trkpt lat="10.274071" lon="-67.678351">
        <ele>428.20</ele>
        <time>2022-10-26T11:18:31Z</time>
      </trkpt>
      <trkpt lat="10.274055" lon="-67.678297">
        <ele>428.20</ele>
        <time>2022-10-26T11:18:32Z</time>
      </trkpt>
      <trkpt lat="10.274041" lon="-67.678242">
        <ele>428.20</ele>
        <time>2022-10-26T11:18:33Z</time>
      </trkpt>
      <trkpt lat="10.274024" lon="-67.678190">
        <ele>428.20</ele>
        <time>2022-10-26T11:18:34Z</time>
      </trkpt>
      <trkpt lat="10.274007" lon="-67.678136">
        <ele>428.10</ele>
        <time>2022-10-26T11:18:35Z</time>
      </trkpt>
      <trkpt lat="10.273988" lon="-67.678080">
        <ele>428.10</ele>
        <time>2022-10-26T11:18:36Z</time>
      </trkpt>
      <trkpt lat="10.273969" lon="-67.678026">
        <ele>428.10</ele>
        <time>2022-10-26T11:18:37Z</time>
      </trkpt>
      <trkpt lat="10.273957" lon="-67.677973">
        <ele>428.10</ele>
        <time>2022-10-26T11:18:38Z</time>
      </trkpt>
      <trkpt lat="10.273939" lon="-67.677917">
        <ele>428.10</ele>
        <time>2022-10-26T11:18:39Z</time>
      </trkpt>
      <trkpt lat="10.273925" lon="-67.677860">
        <ele>428.10</ele>
        <time>2022-10-26T11:18:40Z</time>
      </trkpt>
      <trkpt lat="10.273909" lon="-67.677801">
        <ele>428.00</ele>
        <time>2022-10-26T11:18:41Z</time>
      </trkpt>
      <trkpt lat="10.273896" lon="-67.677747">
        <ele>428.00</ele>
        <time>2022-10-26T11:18:42Z</time>
      </trkpt>
      <trkpt lat="10.273883" lon="-67.677694">
        <ele>428.00</ele>
        <time>2022-10-26T11:18:43Z</time>
      </trkpt>
      <trkpt lat="10.273870" lon="-67.677639">
        <ele>428.00</ele>
        <time>2022-10-26T11:18:44Z</time>
      </trkpt>
      <trkpt lat="10.273858" lon="-67.677583">
        <ele>428.00</ele>
        <time>2022-10-26T11:18:45Z</time>
      </trkpt>
      <trkpt lat="10.273846" lon="-67.677526">
        <ele>428.00</ele>
        <time>2022-10-26T11:18:46Z</time>
      </trkpt>
      <trkpt lat="10.273836" lon="-67.677467">
        <ele>427.90</ele>
        <time>2022-10-26T11:18:47Z</time>
      </trkpt>
      <trkpt lat="10.273826" lon="-67.677412">
        <ele>427.90</ele>
        <time>2022-10-26T11:18:48Z</time>
      </trkpt>
      <trkpt lat="10.273819" lon="-67.677356">
        <ele>427.80</ele>
        <time>2022-10-26T11:18:49Z</time>
      </trkpt>
      <trkpt lat="10.273807" lon="-67.677300">
        <ele>427.60</ele>
        <time>2022-10-26T11:18:50Z</time>
      </trkpt>
      <trkpt lat="10.273794" lon="-67.677244">
        <ele>427.50</ele>
        <time>2022-10-26T11:18:51Z</time>
      </trkpt>
      <trkpt lat="10.273782" lon="-67.677190">
        <ele>427.50</ele>
        <time>2022-10-26T11:18:52Z</time>
      </trkpt>
      <trkpt lat="10.273768" lon="-67.677134">
        <ele>427.40</ele>
        <time>2022-10-26T11:18:53Z</time>
      </trkpt>
      <trkpt lat="10.273753" lon="-67.677078">
        <ele>427.40</ele>
        <time>2022-10-26T11:18:54Z</time>
      </trkpt>
      <trkpt lat="10.273737" lon="-67.677020">
        <ele>427.30</ele>
        <time>2022-10-26T11:18:55Z</time>
      </trkpt>
      <trkpt lat="10.273722" lon="-67.676967">
        <ele>427.30</ele>
        <time>2022-10-26T11:18:56Z</time>
      </trkpt>
      <trkpt lat="10.273702" lon="-67.676912">
        <ele>427.20</ele>
        <time>2022-10-26T11:18:57Z</time>
      </trkpt>
      <trkpt lat="10.273679" lon="-67.676858">
        <ele>427.20</ele>
        <time>2022-10-26T11:18:58Z</time>
      </trkpt>
      <trkpt lat="10.273655" lon="-67.676802">
        <ele>427.10</ele>
        <time>2022-10-26T11:18:59Z</time>
      </trkpt>
      <trkpt lat="10.273636" lon="-67.676745">
        <ele>427.10</ele>
        <time>2022-10-26T11:19:00Z</time>
      </trkpt>
      <trkpt lat="10.273618" lon="-67.676689">
        <ele>427.00</ele>
        <time>2022-10-26T11:19:01Z</time>
      </trkpt>
      <trkpt lat="10.273601" lon="-67.676633">
        <ele>427.00</ele>
        <time>2022-10-26T11:19:02Z</time>
      </trkpt>
      <trkpt lat="10.273586" lon="-67.676577">
        <ele>426.90</ele>
        <time>2022-10-26T11:19:03Z</time>
      </trkpt>
      <trkpt lat="10.273569" lon="-67.676517">
        <ele>426.80</ele>
        <time>2022-10-26T11:19:04Z</time>
      </trkpt>
      <trkpt lat="10.273544" lon="-67.676452">
        <ele>426.70</ele>
        <time>2022-10-26T11:19:05Z</time>
      </trkpt>
      <trkpt lat="10.273526" lon="-67.676388">
        <ele>426.70</ele>
        <time>2022-10-26T11:19:06Z</time>
      </trkpt>
      <trkpt lat="10.273506" lon="-67.676323">
        <ele>426.60</ele>
        <time>2022-10-26T11:19:07Z</time>
      </trkpt>
      <trkpt lat="10.273488" lon="-67.676259">
        <ele>426.50</ele>
        <time>2022-10-26T11:19:08Z</time>
      </trkpt>
      <trkpt lat="10.273470" lon="-67.676193">
        <ele>426.50</ele>
        <time>2022-10-26T11:19:09Z</time>
      </trkpt>
      <trkpt lat="10.273453" lon="-67.676125">
        <ele>426.50</ele>
        <time>2022-10-26T11:19:10Z</time>
      </trkpt>
      <trkpt lat="10.273446" lon="-67.676056">
        <ele>426.40</ele>
        <time>2022-10-26T11:19:11Z</time>
      </trkpt>
      <trkpt lat="10.273444" lon="-67.675985">
        <ele>426.40</ele>
        <time>2022-10-26T11:19:12Z</time>
      </trkpt>
      <trkpt lat="10.273436" lon="-67.675914">
        <ele>426.40</ele>
        <time>2022-10-26T11:19:13Z</time>
      </trkpt>
      <trkpt lat="10.273417" lon="-67.675852">
        <ele>426.30</ele>
        <time>2022-10-26T11:19:14Z</time>
      </trkpt>
      <trkpt lat="10.273390" lon="-67.675792">
        <ele>426.30</ele>
        <time>2022-10-26T11:19:15Z</time>
      </trkpt>
      <trkpt lat="10.273368" lon="-67.675733">
        <ele>426.30</ele>
        <time>2022-10-26T11:19:16Z</time>
      </trkpt>
      <trkpt lat="10.273348" lon="-67.675676">
        <ele>426.30</ele>
        <time>2022-10-26T11:19:17Z</time>
      </trkpt>
      <trkpt lat="10.273330" lon="-67.675624">
        <ele>426.20</ele>
        <time>2022-10-26T11:19:18Z</time>
      </trkpt>
      <trkpt lat="10.273309" lon="-67.675572">
        <ele>426.20</ele>
        <time>2022-10-26T11:19:19Z</time>
      </trkpt>
      <trkpt lat="10.273292" lon="-67.675513">
        <ele>426.20</ele>
        <time>2022-10-26T11:19:20Z</time>
      </trkpt>
      <trkpt lat="10.273274" lon="-67.675453">
        <ele>426.10</ele>
        <time>2022-10-26T11:19:21Z</time>
      </trkpt>
      <trkpt lat="10.273258" lon="-67.675396">
        <ele>426.10</ele>
        <time>2022-10-26T11:19:22Z</time>
      </trkpt>
      <trkpt lat="10.273244" lon="-67.675344">
        <ele>426.00</ele>
        <time>2022-10-26T11:19:23Z</time>
      </trkpt>
      <trkpt lat="10.273232" lon="-67.675292">
        <ele>425.90</ele>
        <time>2022-10-26T11:19:24Z</time>
      </trkpt>
      <trkpt lat="10.273217" lon="-67.675241">
        <ele>425.80</ele>
        <time>2022-10-26T11:19:25Z</time>
      </trkpt>
      <trkpt lat="10.273201" lon="-67.675186">
        <ele>425.80</ele>
        <time>2022-10-26T11:19:26Z</time>
      </trkpt>
      <trkpt lat="10.273192" lon="-67.675134">
        <ele>425.80</ele>
        <time>2022-10-26T11:19:27Z</time>
      </trkpt>
      <trkpt lat="10.273178" lon="-67.675085">
        <ele>425.70</ele>
        <time>2022-10-26T11:19:28Z</time>
      </trkpt>
      <trkpt lat="10.273166" lon="-67.675037">
        <ele>425.70</ele>
        <time>2022-10-26T11:19:29Z</time>
      </trkpt>
      <trkpt lat="10.273152" lon="-67.674983">
        <ele>425.70</ele>
        <time>2022-10-26T11:19:30Z</time>
      </trkpt>
      <trkpt lat="10.273139" lon="-67.674930">
        <ele>425.60</ele>
        <time>2022-10-26T11:19:31Z</time>
      </trkpt>
      <trkpt lat="10.273131" lon="-67.674876">
        <ele>425.60</ele>
        <time>2022-10-26T11:19:32Z</time>
      </trkpt>
      <trkpt lat="10.273123" lon="-67.674822">
        <ele>425.50</ele>
        <time>2022-10-26T11:19:33Z</time>
      </trkpt>
      <trkpt lat="10.273108" lon="-67.674768">
        <ele>425.50</ele>
        <time>2022-10-26T11:19:34Z</time>
      </trkpt>
      <trkpt lat="10.273093" lon="-67.674712">
        <ele>425.50</ele>
        <time>2022-10-26T11:19:35Z</time>
      </trkpt>
      <trkpt lat="10.273077" lon="-67.674655">
        <ele>425.40</ele>
        <time>2022-10-26T11:19:36Z</time>
      </trkpt>
      <trkpt lat="10.273060" lon="-67.674601">
        <ele>425.40</ele>
        <time>2022-10-26T11:19:37Z</time>
      </trkpt>
      <trkpt lat="10.273046" lon="-67.674545">
        <ele>425.30</ele>
        <time>2022-10-26T11:19:38Z</time>
      </trkpt>
      <trkpt lat="10.273023" lon="-67.674478">
        <ele>425.30</ele>
        <time>2022-10-26T11:19:39Z</time>
      </trkpt>
      <trkpt lat="10.273003" lon="-67.674410">
        <ele>425.20</ele>
        <time>2022-10-26T11:19:40Z</time>
      </trkpt>
      <trkpt lat="10.272988" lon="-67.674342">
        <ele>425.10</ele>
        <time>2022-10-26T11:19:41Z</time>
      </trkpt>
      <trkpt lat="10.272975" lon="-67.674278">
        <ele>425.10</ele>
        <time>2022-10-26T11:19:42Z</time>
      </trkpt>
      <trkpt lat="10.272959" lon="-67.674214">
        <ele>425.00</ele>
        <time>2022-10-26T11:19:43Z</time>
      </trkpt>
      <trkpt lat="10.272945" lon="-67.674155">
        <ele>424.90</ele>
        <time>2022-10-26T11:19:44Z</time>
      </trkpt>
      <trkpt lat="10.272933" lon="-67.674096">
        <ele>424.90</ele>
        <time>2022-10-26T11:19:45Z</time>
      </trkpt>
      <trkpt lat="10.272921" lon="-67.674038">
        <ele>424.90</ele>
        <time>2022-10-26T11:19:46Z</time>
      </trkpt>
      <trkpt lat="10.272907" lon="-67.673981">
        <ele>424.80</ele>
        <time>2022-10-26T11:19:47Z</time>
      </trkpt>
      <trkpt lat="10.272889" lon="-67.673924">
        <ele>424.80</ele>
        <time>2022-10-26T11:19:48Z</time>
      </trkpt>
      <trkpt lat="10.272870" lon="-67.673865">
        <ele>424.80</ele>
        <time>2022-10-26T11:19:49Z</time>
      </trkpt>
      <trkpt lat="10.272855" lon="-67.673803">
        <ele>424.80</ele>
        <time>2022-10-26T11:19:50Z</time>
      </trkpt>
      <trkpt lat="10.272841" lon="-67.673741">
        <ele>424.70</ele>
        <time>2022-10-26T11:19:51Z</time>
      </trkpt>
      <trkpt lat="10.272827" lon="-67.673682">
        <ele>424.70</ele>
        <time>2022-10-26T11:19:52Z</time>
      </trkpt>
      <trkpt lat="10.272812" lon="-67.673625">
        <ele>424.70</ele>
        <time>2022-10-26T11:19:53Z</time>
      </trkpt>
      <trkpt lat="10.272797" lon="-67.673567">
        <ele>424.60</ele>
        <time>2022-10-26T11:19:54Z</time>
      </trkpt>
      <trkpt lat="10.272780" lon="-67.673510">
        <ele>424.60</ele>
        <time>2022-10-26T11:19:55Z</time>
      </trkpt>
      <trkpt lat="10.272763" lon="-67.673449">
        <ele>424.50</ele>
        <time>2022-10-26T11:19:56Z</time>
      </trkpt>
      <trkpt lat="10.272745" lon="-67.673387">
        <ele>424.50</ele>
        <time>2022-10-26T11:19:57Z</time>
      </trkpt>
      <trkpt lat="10.272727" lon="-67.673326">
        <ele>424.40</ele>
        <time>2022-10-26T11:19:58Z</time>
      </trkpt>
      <trkpt lat="10.272712" lon="-67.673267">
        <ele>424.40</ele>
        <time>2022-10-26T11:19:59Z</time>
      </trkpt>
      <trkpt lat="10.272695" lon="-67.673205">
        <ele>424.40</ele>
        <time>2022-10-26T11:20:00Z</time>
      </trkpt>
      <trkpt lat="10.272679" lon="-67.673151">
        <ele>424.30</ele>
        <time>2022-10-26T11:20:01Z</time>
      </trkpt>
      <trkpt lat="10.272660" lon="-67.673101">
        <ele>424.30</ele>
        <time>2022-10-26T11:20:02Z</time>
      </trkpt>
      <trkpt lat="10.272638" lon="-67.673057">
        <ele>424.30</ele>
        <time>2022-10-26T11:20:03Z</time>
      </trkpt>
      <trkpt lat="10.272617" lon="-67.673005">
        <ele>424.20</ele>
        <time>2022-10-26T11:20:04Z</time>
      </trkpt>
      <trkpt lat="10.272591" lon="-67.672945">
        <ele>424.20</ele>
        <time>2022-10-26T11:20:05Z</time>
      </trkpt>
      <trkpt lat="10.272562" lon="-67.672881">
        <ele>424.20</ele>
        <time>2022-10-26T11:20:06Z</time>
      </trkpt>
      <trkpt lat="10.272540" lon="-67.672818">
        <ele>424.20</ele>
        <time>2022-10-26T11:20:07Z</time>
      </trkpt>
      <trkpt lat="10.272522" lon="-67.672754">
        <ele>424.20</ele>
        <time>2022-10-26T11:20:08Z</time>
      </trkpt>
      <trkpt lat="10.272502" lon="-67.672691">
        <ele>424.10</ele>
        <time>2022-10-26T11:20:09Z</time>
      </trkpt>
      <trkpt lat="10.272481" lon="-67.672629">
        <ele>424.00</ele>
        <time>2022-10-26T11:20:10Z</time>
      </trkpt>
      <trkpt lat="10.272459" lon="-67.672568">
        <ele>424.00</ele>
        <time>2022-10-26T11:20:11Z</time>
      </trkpt>
      <trkpt lat="10.272438" lon="-67.672511">
        <ele>423.90</ele>
        <time>2022-10-26T11:20:12Z</time>
      </trkpt>
      <trkpt lat="10.272424" lon="-67.672458">
        <ele>423.80</ele>
        <time>2022-10-26T11:20:13Z</time>
      </trkpt>
      <trkpt lat="10.272409" lon="-67.672403">
        <ele>423.80</ele>
        <time>2022-10-26T11:20:14Z</time>
      </trkpt>
      <trkpt lat="10.272395" lon="-67.672347">
        <ele>423.70</ele>
        <time>2022-10-26T11:20:15Z</time>
      </trkpt>
      <trkpt lat="10.272385" lon="-67.672289">
        <ele>423.70</ele>
        <time>2022-10-26T11:20:16Z</time>
      </trkpt>
      <trkpt lat="10.272377" lon="-67.672230">
        <ele>423.60</ele>
        <time>2022-10-26T11:20:17Z</time>
      </trkpt>
      <trkpt lat="10.272365" lon="-67.672173">
        <ele>423.50</ele>
        <time>2022-10-26T11:20:18Z</time>
      </trkpt>
      <trkpt lat="10.272352" lon="-67.672118">
        <ele>423.50</ele>
        <time>2022-10-26T11:20:19Z</time>
      </trkpt>
      <trkpt lat="10.272337" lon="-67.672062">
        <ele>423.40</ele>
        <time>2022-10-26T11:20:20Z</time>
      </trkpt>
      <trkpt lat="10.272323" lon="-67.672007">
        <ele>423.40</ele>
        <time>2022-10-26T11:20:21Z</time>
      </trkpt>
      <trkpt lat="10.272309" lon="-67.671952">
        <ele>423.30</ele>
        <time>2022-10-26T11:20:22Z</time>
      </trkpt>
      <trkpt lat="10.272295" lon="-67.671898">
        <ele>423.20</ele>
        <time>2022-10-26T11:20:23Z</time>
      </trkpt>
      <trkpt lat="10.272280" lon="-67.671843">
        <ele>423.20</ele>
        <time>2022-10-26T11:20:24Z</time>
      </trkpt>
      <trkpt lat="10.272265" lon="-67.671784">
        <ele>423.10</ele>
        <time>2022-10-26T11:20:25Z</time>
      </trkpt>
      <trkpt lat="10.272252" lon="-67.671724">
        <ele>423.00</ele>
        <time>2022-10-26T11:20:26Z</time>
      </trkpt>
      <trkpt lat="10.272238" lon="-67.671667">
        <ele>423.00</ele>
        <time>2022-10-26T11:20:27Z</time>
      </trkpt>
      <trkpt lat="10.272212" lon="-67.671615">
        <ele>423.00</ele>
        <time>2022-10-26T11:20:28Z</time>
      </trkpt>
      <trkpt lat="10.272195" lon="-67.671561">
        <ele>422.90</ele>
        <time>2022-10-26T11:20:29Z</time>
      </trkpt>
      <trkpt lat="10.272180" lon="-67.671505">
        <ele>422.90</ele>
        <time>2022-10-26T11:20:30Z</time>
      </trkpt>
      <trkpt lat="10.272167" lon="-67.671449">
        <ele>422.90</ele>
        <time>2022-10-26T11:20:31Z</time>
      </trkpt>
      <trkpt lat="10.272153" lon="-67.671397">
        <ele>422.90</ele>
        <time>2022-10-26T11:20:32Z</time>
      </trkpt>
      <trkpt lat="10.272138" lon="-67.671345">
        <ele>422.80</ele>
        <time>2022-10-26T11:20:33Z</time>
      </trkpt>
      <trkpt lat="10.272119" lon="-67.671287">
        <ele>422.80</ele>
        <time>2022-10-26T11:20:34Z</time>
      </trkpt>
      <trkpt lat="10.272104" lon="-67.671224">
        <ele>422.70</ele>
        <time>2022-10-26T11:20:35Z</time>
      </trkpt>
      <trkpt lat="10.272088" lon="-67.671165">
        <ele>422.60</ele>
        <time>2022-10-26T11:20:36Z</time>
      </trkpt>
      <trkpt lat="10.272070" lon="-67.671106">
        <ele>422.60</ele>
        <time>2022-10-26T11:20:37Z</time>
      </trkpt>
      <trkpt lat="10.272055" lon="-67.671050">
        <ele>422.60</ele>
        <time>2022-10-26T11:20:38Z</time>
      </trkpt>
      <trkpt lat="10.272040" lon="-67.670996">
        <ele>422.60</ele>
        <time>2022-10-26T11:20:39Z</time>
      </trkpt>
      <trkpt lat="10.272025" lon="-67.670939">
        <ele>422.60</ele>
        <time>2022-10-26T11:20:40Z</time>
      </trkpt>
      <trkpt lat="10.272014" lon="-67.670880">
        <ele>422.60</ele>
        <time>2022-10-26T11:20:41Z</time>
      </trkpt>
      <trkpt lat="10.272001" lon="-67.670821">
        <ele>422.60</ele>
        <time>2022-10-26T11:20:42Z</time>
      </trkpt>
      <trkpt lat="10.271987" lon="-67.670759">
        <ele>422.60</ele>
        <time>2022-10-26T11:20:43Z</time>
      </trkpt>
      <trkpt lat="10.271963" lon="-67.670638">
        <ele>422.70</ele>
        <time>2022-10-26T11:20:45Z</time>
      </trkpt>
      <trkpt lat="10.271954" lon="-67.670579">
        <ele>422.80</ele>
        <time>2022-10-26T11:20:46Z</time>
      </trkpt>
      <trkpt lat="10.271940" lon="-67.670523">
        <ele>422.90</ele>
        <time>2022-10-26T11:20:47Z</time>
      </trkpt>
      <trkpt lat="10.271923" lon="-67.670469">
        <ele>423.00</ele>
        <time>2022-10-26T11:20:48Z</time>
      </trkpt>
      <trkpt lat="10.271910" lon="-67.670418">
        <ele>423.10</ele>
        <time>2022-10-26T11:20:49Z</time>
      </trkpt>
      <trkpt lat="10.271893" lon="-67.670367">
        <ele>423.20</ele>
        <time>2022-10-26T11:20:50Z</time>
      </trkpt>
      <trkpt lat="10.271879" lon="-67.670321">
        <ele>423.30</ele>
        <time>2022-10-26T11:20:51Z</time>
      </trkpt>
      <trkpt lat="10.271865" lon="-67.670269">
        <ele>423.40</ele>
        <time>2022-10-26T11:20:52Z</time>
      </trkpt>
      <trkpt lat="10.271851" lon="-67.670213">
        <ele>423.50</ele>
        <time>2022-10-26T11:20:53Z</time>
      </trkpt>
      <trkpt lat="10.271831" lon="-67.670155">
        <ele>423.60</ele>
        <time>2022-10-26T11:20:54Z</time>
      </trkpt>
      <trkpt lat="10.271815" lon="-67.670101">
        <ele>423.70</ele>
        <time>2022-10-26T11:20:55Z</time>
      </trkpt>
      <trkpt lat="10.271799" lon="-67.670051">
        <ele>423.80</ele>
        <time>2022-10-26T11:20:56Z</time>
      </trkpt>
      <trkpt lat="10.271786" lon="-67.670001">
        <ele>423.90</ele>
        <time>2022-10-26T11:20:57Z</time>
      </trkpt>
      <trkpt lat="10.271774" lon="-67.669949">
        <ele>424.00</ele>
        <time>2022-10-26T11:20:58Z</time>
      </trkpt>
      <trkpt lat="10.271763" lon="-67.669899">
        <ele>424.20</ele>
        <time>2022-10-26T11:20:59Z</time>
      </trkpt>
      <trkpt lat="10.271753" lon="-67.669851">
        <ele>424.30</ele>
        <time>2022-10-26T11:21:00Z</time>
      </trkpt>
      <trkpt lat="10.271744" lon="-67.669801">
        <ele>424.50</ele>
        <time>2022-10-26T11:21:01Z</time>
      </trkpt>
      <trkpt lat="10.271735" lon="-67.669746">
        <ele>424.60</ele>
        <time>2022-10-26T11:21:02Z</time>
      </trkpt>
      <trkpt lat="10.271721" lon="-67.669692">
        <ele>424.80</ele>
        <time>2022-10-26T11:21:03Z</time>
      </trkpt>
      <trkpt lat="10.271708" lon="-67.669645">
        <ele>425.00</ele>
        <time>2022-10-26T11:21:04Z</time>
      </trkpt>
      <trkpt lat="10.271696" lon="-67.669596">
        <ele>425.20</ele>
        <time>2022-10-26T11:21:05Z</time>
      </trkpt>
      <trkpt lat="10.271683" lon="-67.669549">
        <ele>425.40</ele>
        <time>2022-10-26T11:21:06Z</time>
      </trkpt>
      <trkpt lat="10.271671" lon="-67.669503">
        <ele>425.50</ele>
        <time>2022-10-26T11:21:07Z</time>
      </trkpt>
      <trkpt lat="10.271661" lon="-67.669459">
        <ele>425.70</ele>
        <time>2022-10-26T11:21:08Z</time>
      </trkpt>
      <trkpt lat="10.271650" lon="-67.669412">
        <ele>425.90</ele>
        <time>2022-10-26T11:21:09Z</time>
      </trkpt>
      <trkpt lat="10.271637" lon="-67.669368">
        <ele>426.10</ele>
        <time>2022-10-26T11:21:10Z</time>
      </trkpt>
      <trkpt lat="10.271625" lon="-67.669327">
        <ele>426.30</ele>
        <time>2022-10-26T11:21:11Z</time>
      </trkpt>
      <trkpt lat="10.271613" lon="-67.669284">
        <ele>426.40</ele>
        <time>2022-10-26T11:21:12Z</time>
      </trkpt>
      <trkpt lat="10.271602" lon="-67.669242">
        <ele>426.60</ele>
        <time>2022-10-26T11:21:13Z</time>
      </trkpt>
      <trkpt lat="10.271590" lon="-67.669201">
        <ele>426.80</ele>
        <time>2022-10-26T11:21:14Z</time>
      </trkpt>
      <trkpt lat="10.271581" lon="-67.669159">
        <ele>427.00</ele>
        <time>2022-10-26T11:21:15Z</time>
      </trkpt>
      <trkpt lat="10.271577" lon="-67.669116">
        <ele>427.10</ele>
        <time>2022-10-26T11:21:16Z</time>
      </trkpt>
      <trkpt lat="10.271571" lon="-67.669077">
        <ele>427.30</ele>
        <time>2022-10-26T11:21:17Z</time>
      </trkpt>
      <trkpt lat="10.271562" lon="-67.669037">
        <ele>427.40</ele>
        <time>2022-10-26T11:21:18Z</time>
      </trkpt>
      <trkpt lat="10.271547" lon="-67.668997">
        <ele>427.60</ele>
        <time>2022-10-26T11:21:19Z</time>
      </trkpt>
      <trkpt lat="10.271524" lon="-67.668957">
        <ele>427.80</ele>
        <time>2022-10-26T11:21:20Z</time>
      </trkpt>
      <trkpt lat="10.271503" lon="-67.668919">
        <ele>427.90</ele>
        <time>2022-10-26T11:21:21Z</time>
      </trkpt>
      <trkpt lat="10.271481" lon="-67.668880">
        <ele>428.10</ele>
        <time>2022-10-26T11:21:22Z</time>
      </trkpt>
      <trkpt lat="10.271466" lon="-67.668842">
        <ele>428.20</ele>
        <time>2022-10-26T11:21:23Z</time>
      </trkpt>
      <trkpt lat="10.271460" lon="-67.668806">
        <ele>428.40</ele>
        <time>2022-10-26T11:21:24Z</time>
      </trkpt>
      <trkpt lat="10.271452" lon="-67.668774">
        <ele>428.50</ele>
        <time>2022-10-26T11:21:25Z</time>
      </trkpt>
      <trkpt lat="10.271441" lon="-67.668744">
        <ele>428.60</ele>
        <time>2022-10-26T11:21:26Z</time>
      </trkpt>
      <trkpt lat="10.271426" lon="-67.668714">
        <ele>428.70</ele>
        <time>2022-10-26T11:21:27Z</time>
      </trkpt>
      <trkpt lat="10.271411" lon="-67.668685">
        <ele>428.90</ele>
        <time>2022-10-26T11:21:28Z</time>
      </trkpt>
      <trkpt lat="10.271398" lon="-67.668652">
        <ele>429.00</ele>
        <time>2022-10-26T11:21:29Z</time>
      </trkpt>
      <trkpt lat="10.271388" lon="-67.668618">
        <ele>429.10</ele>
        <time>2022-10-26T11:21:30Z</time>
      </trkpt>
      <trkpt lat="10.271379" lon="-67.668584">
        <ele>429.30</ele>
        <time>2022-10-26T11:21:31Z</time>
      </trkpt>
      <trkpt lat="10.271373" lon="-67.668551">
        <ele>429.40</ele>
        <time>2022-10-26T11:21:32Z</time>
      </trkpt>
      <trkpt lat="10.271367" lon="-67.668520">
        <ele>429.60</ele>
        <time>2022-10-26T11:21:33Z</time>
      </trkpt>
      <trkpt lat="10.271362" lon="-67.668491">
        <ele>429.70</ele>
        <time>2022-10-26T11:21:34Z</time>
      </trkpt>
      <trkpt lat="10.271354" lon="-67.668459">
        <ele>429.80</ele>
        <time>2022-10-26T11:21:35Z</time>
      </trkpt>
      <trkpt lat="10.271347" lon="-67.668426">
        <ele>430.00</ele>
        <time>2022-10-26T11:21:36Z</time>
      </trkpt>
      <trkpt lat="10.271339" lon="-67.668392">
        <ele>430.10</ele>
        <time>2022-10-26T11:21:37Z</time>
      </trkpt>
      <trkpt lat="10.271332" lon="-67.668356">
        <ele>430.30</ele>
        <time>2022-10-26T11:21:38Z</time>
      </trkpt>
      <trkpt lat="10.271323" lon="-67.668323">
        <ele>430.40</ele>
        <time>2022-10-26T11:21:39Z</time>
      </trkpt>
      <trkpt lat="10.271309" lon="-67.668296">
        <ele>430.50</ele>
        <time>2022-10-26T11:21:40Z</time>
      </trkpt>
      <trkpt lat="10.271297" lon="-67.668267">
        <ele>430.70</ele>
        <time>2022-10-26T11:21:41Z</time>
      </trkpt>
      <trkpt lat="10.271288" lon="-67.668238">
        <ele>430.80</ele>
        <time>2022-10-26T11:21:42Z</time>
      </trkpt>
      <trkpt lat="10.271279" lon="-67.668208">
        <ele>430.90</ele>
        <time>2022-10-26T11:21:43Z</time>
      </trkpt>
      <trkpt lat="10.271268" lon="-67.668180">
        <ele>431.00</ele>
        <time>2022-10-26T11:21:44Z</time>
      </trkpt>
      <trkpt lat="10.271257" lon="-67.668143">
        <ele>431.20</ele>
        <time>2022-10-26T11:21:45Z</time>
      </trkpt>
      <trkpt lat="10.271255" lon="-67.668130">
        <ele>431.20</ele>
        <time>2022-10-26T11:21:46Z</time>
      </trkpt>
      <trkpt lat="10.271246" lon="-67.668097">
        <ele>431.40</ele>
        <time>2022-10-26T11:21:47Z</time>
      </trkpt>
      <trkpt lat="10.271243" lon="-67.668085">
        <ele>431.40</ele>
        <time>2022-10-26T11:21:48Z</time>
      </trkpt>
      <trkpt lat="10.271236" lon="-67.668057">
        <ele>431.60</ele>
        <time>2022-10-26T11:21:49Z</time>
      </trkpt>
      <trkpt lat="10.271231" lon="-67.668026">
        <ele>431.70</ele>
        <time>2022-10-26T11:21:50Z</time>
      </trkpt>
      <trkpt lat="10.271227" lon="-67.667999">
        <ele>431.80</ele>
        <time>2022-10-26T11:21:51Z</time>
      </trkpt>
      <trkpt lat="10.271215" lon="-67.667966">
        <ele>432.00</ele>
        <time>2022-10-26T11:21:52Z</time>
      </trkpt>
      <trkpt lat="10.271203" lon="-67.667929">
        <ele>432.10</ele>
        <time>2022-10-26T11:21:53Z</time>
      </trkpt>
      <trkpt lat="10.271189" lon="-67.667895">
        <ele>432.30</ele>
        <time>2022-10-26T11:21:54Z</time>
      </trkpt>
      <trkpt lat="10.271176" lon="-67.667865">
        <ele>432.40</ele>
        <time>2022-10-26T11:21:55Z</time>
      </trkpt>
      <trkpt lat="10.271170" lon="-67.667837">
        <ele>432.50</ele>
        <time>2022-10-26T11:21:56Z</time>
      </trkpt>
      <trkpt lat="10.271160" lon="-67.667799">
        <ele>432.70</ele>
        <time>2022-10-26T11:21:57Z</time>
      </trkpt>
      <trkpt lat="10.271157" lon="-67.667786">
        <ele>432.70</ele>
        <time>2022-10-26T11:21:58Z</time>
      </trkpt>
      <trkpt lat="10.271161" lon="-67.667748">
        <ele>432.80</ele>
        <time>2022-10-26T11:21:59Z</time>
      </trkpt>
      <trkpt lat="10.271163" lon="-67.667735">
        <ele>432.90</ele>
        <time>2022-10-26T11:22:00Z</time>
      </trkpt>
      <trkpt lat="10.271169" lon="-67.667693">
        <ele>433.00</ele>
        <time>2022-10-26T11:22:01Z</time>
      </trkpt>
      <trkpt lat="10.271168" lon="-67.667678">
        <ele>433.00</ele>
        <time>2022-10-26T11:22:02Z</time>
      </trkpt>
      <trkpt lat="10.271172" lon="-67.667646">
        <ele>433.10</ele>
        <time>2022-10-26T11:22:03Z</time>
      </trkpt>
      <trkpt lat="10.271181" lon="-67.667614">
        <ele>433.20</ele>
        <time>2022-10-26T11:22:04Z</time>
      </trkpt>
      <trkpt lat="10.271187" lon="-67.667582">
        <ele>433.20</ele>
        <time>2022-10-26T11:22:05Z</time>
      </trkpt>
      <trkpt lat="10.271188" lon="-67.667552">
        <ele>433.30</ele>
        <time>2022-10-26T11:22:06Z</time>
      </trkpt>
      <trkpt lat="10.271188" lon="-67.667520">
        <ele>433.40</ele>
        <time>2022-10-26T11:22:07Z</time>
      </trkpt>
      <trkpt lat="10.271192" lon="-67.667489">
        <ele>433.50</ele>
        <time>2022-10-26T11:22:08Z</time>
      </trkpt>
      <trkpt lat="10.271197" lon="-67.667459">
        <ele>433.50</ele>
        <time>2022-10-26T11:22:09Z</time>
      </trkpt>
      <trkpt lat="10.271203" lon="-67.667431">
        <ele>433.60</ele>
        <time>2022-10-26T11:22:10Z</time>
      </trkpt>
      <trkpt lat="10.271209" lon="-67.667397">
        <ele>434.50</ele>
        <time>2022-10-26T11:22:11Z</time>
      </trkpt>
      <trkpt lat="10.271211" lon="-67.667389">
        <ele>434.60</ele>
        <time>2022-10-26T11:22:12Z</time>
      </trkpt>
      <trkpt lat="10.271217" lon="-67.667381">
        <ele>434.60</ele>
        <time>2022-10-26T11:22:13Z</time>
      </trkpt>
      <trkpt lat="10.271226" lon="-67.667379">
        <ele>434.70</ele>
        <time>2022-10-26T11:22:14Z</time>
      </trkpt>
      <trkpt lat="10.271240" lon="-67.667375">
        <ele>434.70</ele>
        <time>2022-10-26T11:22:15Z</time>
      </trkpt>
      <trkpt lat="10.271271" lon="-67.667378">
        <ele>434.80</ele>
        <time>2022-10-26T11:22:16Z</time>
      </trkpt>
      <trkpt lat="10.271280" lon="-67.667380">
        <ele>434.80</ele>
        <time>2022-10-26T11:22:17Z</time>
      </trkpt>
      <trkpt lat="10.271300" lon="-67.667399">
        <ele>434.90</ele>
        <time>2022-10-26T11:22:18Z</time>
      </trkpt>
      <trkpt lat="10.271307" lon="-67.667406">
        <ele>434.90</ele>
        <time>2022-10-26T11:22:19Z</time>
      </trkpt>
      <trkpt lat="10.271318" lon="-67.667419">
        <ele>434.90</ele>
        <time>2022-10-26T11:22:20Z</time>
      </trkpt>
      <trkpt lat="10.271326" lon="-67.667432">
        <ele>434.90</ele>
        <time>2022-10-26T11:22:21Z</time>
      </trkpt>
      <trkpt lat="10.271339" lon="-67.667441">
        <ele>434.90</ele>
        <time>2022-10-26T11:22:22Z</time>
      </trkpt>
      <trkpt lat="10.271350" lon="-67.667448">
        <ele>434.90</ele>
        <time>2022-10-26T11:22:23Z</time>
      </trkpt>
      <trkpt lat="10.271356" lon="-67.667452">
        <ele>434.90</ele>
        <time>2022-10-26T11:22:24Z</time>
      </trkpt>
      <trkpt lat="10.271356" lon="-67.667453">
        <ele>434.90</ele>
        <time>2022-10-26T11:22:25Z</time>
      </trkpt>
      <trkpt lat="10.271357" lon="-67.667453">
        <ele>434.90</ele>
        <time>2022-10-26T11:22:26Z</time>
      </trkpt>
      <trkpt lat="10.271358" lon="-67.667454">
        <ele>434.90</ele>
        <time>2022-10-26T11:22:27Z</time>
      </trkpt>
      <trkpt lat="10.271359" lon="-67.667455">
        <ele>434.90</ele>
        <time>2022-10-26T11:22:28Z</time>
      </trkpt>
      <trkpt lat="10.271359" lon="-67.667455">
        <ele>434.90</ele>
        <time>2022-10-26T11:22:29Z</time>
      </trkpt>
      <trkpt lat="10.271360" lon="-67.667456">
        <ele>434.90</ele>
        <time>2022-10-26T11:22:30Z</time>
      </trkpt>
      <trkpt lat="10.271361" lon="-67.667457">
        <ele>434.90</ele>
        <time>2022-10-26T11:22:31Z</time>
      </trkpt>
      <trkpt lat="10.271361" lon="-67.667457">
        <ele>434.90</ele>
        <time>2022-10-26T11:22:32Z</time>
      </trkpt>
      <trkpt lat="10.271362" lon="-67.667458">
        <ele>434.90</ele>
        <time>2022-10-26T11:22:33Z</time>
      </trkpt>
      <trkpt lat="10.271363" lon="-67.667459">
        <ele>434.90</ele>
        <time>2022-10-26T11:22:34Z</time>
      </trkpt>
      <trkpt lat="10.271364" lon="-67.667459">
        <ele>434.90</ele>
        <time>2022-10-26T11:22:35Z</time>
      </trkpt>
      <trkpt lat="10.271364" lon="-67.667460">
        <ele>434.90</ele>
        <time>2022-10-26T11:22:36Z</time>
      </trkpt>
      <trkpt lat="10.271365" lon="-67.667461">
        <ele>434.90</ele>
        <time>2022-10-26T11:22:37Z</time>
      </trkpt>
      <trkpt lat="10.271366" lon="-67.667461">
        <ele>434.90</ele>
        <time>2022-10-26T11:22:38Z</time>
      </trkpt>
      <trkpt lat="10.271366" lon="-67.667462">
        <ele>434.90</ele>
        <time>2022-10-26T11:22:39Z</time>
      </trkpt>
      <trkpt lat="10.271367" lon="-67.667463">
        <ele>434.90</ele>
        <time>2022-10-26T11:22:40Z</time>
      </trkpt>
      <trkpt lat="10.271368" lon="-67.667463">
        <ele>434.90</ele>
        <time>2022-10-26T11:22:41Z</time>
      </trkpt>
      <trkpt lat="10.271369" lon="-67.667464">
        <ele>434.90</ele>
        <time>2022-10-26T11:22:42Z</time>
      </trkpt>
      <trkpt lat="10.271369" lon="-67.667465">
        <ele>434.90</ele>
        <time>2022-10-26T11:22:43Z</time>
      </trkpt>
      <trkpt lat="10.271370" lon="-67.667465">
        <ele>434.90</ele>
        <time>2022-10-26T11:22:44Z</time>
      </trkpt>
      <trkpt lat="10.271371" lon="-67.667466">
        <ele>434.90</ele>
        <time>2022-10-26T11:22:45Z</time>
      </trkpt>
      <trkpt lat="10.271372" lon="-67.667467">
        <ele>434.90</ele>
        <time>2022-10-26T11:22:46Z</time>
      </trkpt>
      <trkpt lat="10.271372" lon="-67.667468">
        <ele>434.90</ele>
        <time>2022-10-26T11:22:47Z</time>
      </trkpt>
      <trkpt lat="10.271373" lon="-67.667468">
        <ele>434.90</ele>
        <time>2022-10-26T11:22:48Z</time>
      </trkpt>
      <trkpt lat="10.271374" lon="-67.667469">
        <ele>434.90</ele>
        <time>2022-10-26T11:22:49Z</time>
      </trkpt>
      <trkpt lat="10.271374" lon="-67.667470">
        <ele>434.90</ele>
        <time>2022-10-26T11:22:50Z</time>
      </trkpt>
      <trkpt lat="10.271375" lon="-67.667470">
        <ele>434.90</ele>
        <time>2022-10-26T11:22:51Z</time>
      </trkpt>
      <trkpt lat="10.271376" lon="-67.667471">
        <ele>434.90</ele>
        <time>2022-10-26T11:22:52Z</time>
      </trkpt>
      <trkpt lat="10.271377" lon="-67.667472">
        <ele>434.90</ele>
        <time>2022-10-26T11:22:53Z</time>
      </trkpt>
      <trkpt lat="10.271377" lon="-67.667472">
        <ele>434.90</ele>
        <time>2022-10-26T11:22:54Z</time>
      </trkpt>
      <trkpt lat="10.271378" lon="-67.667473">
        <ele>434.90</ele>
        <time>2022-10-26T11:22:55Z</time>
      </trkpt>
      <trkpt lat="10.271379" lon="-67.667474">
        <ele>434.90</ele>
        <time>2022-10-26T11:22:56Z</time>
      </trkpt>
      <trkpt lat="10.271379" lon="-67.667474">
        <ele>434.90</ele>
        <time>2022-10-26T11:22:57Z</time>
      </trkpt>
      <trkpt lat="10.271380" lon="-67.667475">
        <ele>434.90</ele>
        <time>2022-10-26T11:22:58Z</time>
      </trkpt>
      <trkpt lat="10.271381" lon="-67.667476">
        <ele>434.90</ele>
        <time>2022-10-26T11:22:59Z</time>
      </trkpt>
      <trkpt lat="10.271382" lon="-67.667476">
        <ele>434.90</ele>
        <time>2022-10-26T11:23:00Z</time>
      </trkpt>
      <trkpt lat="10.271382" lon="-67.667477">
        <ele>434.90</ele>
        <time>2022-10-26T11:23:01Z</time>
      </trkpt>
      <trkpt lat="10.271383" lon="-67.667478">
        <ele>434.90</ele>
        <time>2022-10-26T11:23:02Z</time>
      </trkpt>
      <trkpt lat="10.271384" lon="-67.667478">
        <ele>434.90</ele>
        <time>2022-10-26T11:23:03Z</time>
      </trkpt>
      <trkpt lat="10.271384" lon="-67.667479">
        <ele>434.90</ele>
        <time>2022-10-26T11:23:04Z</time>
      </trkpt>
      <trkpt lat="10.271385" lon="-67.667480">
        <ele>434.90</ele>
        <time>2022-10-26T11:23:05Z</time>
      </trkpt>
      <trkpt lat="10.271386" lon="-67.667480">
        <ele>434.90</ele>
        <time>2022-10-26T11:23:06Z</time>
      </trkpt>
      <trkpt lat="10.271387" lon="-67.667481">
        <ele>434.90</ele>
        <time>2022-10-26T11:23:07Z</time>
      </trkpt>
      <trkpt lat="10.271387" lon="-67.667482">
        <ele>434.90</ele>
        <time>2022-10-26T11:23:08Z</time>
      </trkpt>
      <trkpt lat="10.271388" lon="-67.667483">
        <ele>434.90</ele>
        <time>2022-10-26T11:23:09Z</time>
      </trkpt>
      <trkpt lat="10.271389" lon="-67.667483">
        <ele>434.90</ele>
        <time>2022-10-26T11:23:10Z</time>
      </trkpt>
      <trkpt lat="10.271389" lon="-67.667484">
        <ele>434.90</ele>
        <time>2022-10-26T11:23:11Z</time>
      </trkpt>
      <trkpt lat="10.271390" lon="-67.667485">
        <ele>434.90</ele>
        <time>2022-10-26T11:23:12Z</time>
      </trkpt>
      <trkpt lat="10.271391" lon="-67.667485">
        <ele>434.90</ele>
        <time>2022-10-26T11:23:13Z</time>
      </trkpt>
      <trkpt lat="10.271392" lon="-67.667486">
        <ele>434.90</ele>
        <time>2022-10-26T11:23:14Z</time>
      </trkpt>
      <trkpt lat="10.271392" lon="-67.667487">
        <ele>434.90</ele>
        <time>2022-10-26T11:23:15Z</time>
      </trkpt>
      <trkpt lat="10.271393" lon="-67.667487">
        <ele>434.90</ele>
        <time>2022-10-26T11:23:16Z</time>
      </trkpt>
      <trkpt lat="10.271394" lon="-67.667488">
        <ele>434.90</ele>
        <time>2022-10-26T11:23:17Z</time>
      </trkpt>
      <trkpt lat="10.271394" lon="-67.667489">
        <ele>434.90</ele>
        <time>2022-10-26T11:23:18Z</time>
      </trkpt>
      <trkpt lat="10.271395" lon="-67.667489">
        <ele>434.90</ele>
        <time>2022-10-26T11:23:19Z</time>
      </trkpt>
      <trkpt lat="10.271396" lon="-67.667490">
        <ele>434.90</ele>
        <time>2022-10-26T11:23:20Z</time>
      </trkpt>
      <trkpt lat="10.271397" lon="-67.667491">
        <ele>434.90</ele>
        <time>2022-10-26T11:23:21Z</time>
      </trkpt>
      <trkpt lat="10.271397" lon="-67.667491">
        <ele>434.90</ele>
        <time>2022-10-26T11:23:22Z</time>
      </trkpt>
      <trkpt lat="10.271398" lon="-67.667492">
        <ele>434.90</ele>
        <time>2022-10-26T11:23:23Z</time>
      </trkpt>
      <trkpt lat="10.271412" lon="-67.667501">
        <ele>434.90</ele>
        <time>2022-10-26T11:23:24Z</time>
      </trkpt>
      <trkpt lat="10.271417" lon="-67.667503">
        <ele>434.90</ele>
        <time>2022-10-26T11:23:25Z</time>
      </trkpt>
      <trkpt lat="10.271427" lon="-67.667504">
        <ele>434.90</ele>
        <time>2022-10-26T11:23:26Z</time>
      </trkpt>
      <trkpt lat="10.271429" lon="-67.667504">
        <ele>434.90</ele>
        <time>2022-10-26T11:23:27Z</time>
      </trkpt>
      <trkpt lat="10.271429" lon="-67.667503">
        <ele>434.90</ele>
        <time>2022-10-26T11:23:28Z</time>
      </trkpt>
      <trkpt lat="10.271428" lon="-67.667502">
        <ele>434.90</ele>
        <time>2022-10-26T11:23:29Z</time>
      </trkpt>
      <trkpt lat="10.271427" lon="-67.667502">
        <ele>434.90</ele>
        <time>2022-10-26T11:23:30Z</time>
      </trkpt>
      <trkpt lat="10.271426" lon="-67.667501">
        <ele>434.90</ele>
        <time>2022-10-26T11:23:31Z</time>
      </trkpt>
      <trkpt lat="10.271425" lon="-67.667500">
        <ele>434.90</ele>
        <time>2022-10-26T11:23:32Z</time>
      </trkpt>
      <trkpt lat="10.271424" lon="-67.667499">
        <ele>434.90</ele>
        <time>2022-10-26T11:23:33Z</time>
      </trkpt>
      <trkpt lat="10.271423" lon="-67.667498">
        <ele>434.90</ele>
        <time>2022-10-26T11:23:34Z</time>
      </trkpt>
      <trkpt lat="10.271422" lon="-67.667498">
        <ele>434.90</ele>
        <time>2022-10-26T11:23:35Z</time>
      </trkpt>
      <trkpt lat="10.271422" lon="-67.667497">
        <ele>434.90</ele>
        <time>2022-10-26T11:23:36Z</time>
      </trkpt>
      <trkpt lat="10.271421" lon="-67.667496">
        <ele>434.90</ele>
        <time>2022-10-26T11:23:37Z</time>
      </trkpt>
      <trkpt lat="10.271420" lon="-67.667495">
        <ele>434.90</ele>
        <time>2022-10-26T11:23:38Z</time>
      </trkpt>
      <trkpt lat="10.271419" lon="-67.667494">
        <ele>434.90</ele>
        <time>2022-10-26T11:23:39Z</time>
      </trkpt>
      <trkpt lat="10.271418" lon="-67.667494">
        <ele>434.90</ele>
        <time>2022-10-26T11:23:40Z</time>
      </trkpt>
      <trkpt lat="10.271417" lon="-67.667493">
        <ele>434.90</ele>
        <time>2022-10-26T11:23:41Z</time>
      </trkpt>
      <trkpt lat="10.271416" lon="-67.667492">
        <ele>434.90</ele>
        <time>2022-10-26T11:23:42Z</time>
      </trkpt>
      <trkpt lat="10.271416" lon="-67.667491">
        <ele>434.90</ele>
        <time>2022-10-26T11:23:43Z</time>
      </trkpt>
      <trkpt lat="10.271415" lon="-67.667490">
        <ele>434.90</ele>
        <time>2022-10-26T11:23:44Z</time>
      </trkpt>
      <trkpt lat="10.271414" lon="-67.667490">
        <ele>434.90</ele>
        <time>2022-10-26T11:23:45Z</time>
      </trkpt>
      <trkpt lat="10.271413" lon="-67.667489">
        <ele>434.90</ele>
        <time>2022-10-26T11:23:46Z</time>
      </trkpt>
      <trkpt lat="10.271412" lon="-67.667488">
        <ele>434.90</ele>
        <time>2022-10-26T11:23:47Z</time>
      </trkpt>
      <trkpt lat="10.271411" lon="-67.667487">
        <ele>434.90</ele>
        <time>2022-10-26T11:23:48Z</time>
      </trkpt>
      <trkpt lat="10.271410" lon="-67.667486">
        <ele>434.90</ele>
        <time>2022-10-26T11:23:49Z</time>
      </trkpt>
      <trkpt lat="10.271410" lon="-67.667485">
        <ele>434.90</ele>
        <time>2022-10-26T11:23:50Z</time>
      </trkpt>
      <trkpt lat="10.271409" lon="-67.667485">
        <ele>434.90</ele>
        <time>2022-10-26T11:23:51Z</time>
      </trkpt>
      <trkpt lat="10.271408" lon="-67.667484">
        <ele>434.90</ele>
        <time>2022-10-26T11:23:52Z</time>
      </trkpt>
      <trkpt lat="10.271407" lon="-67.667483">
        <ele>434.90</ele>
        <time>2022-10-26T11:23:53Z</time>
      </trkpt>
      <trkpt lat="10.271406" lon="-67.667482">
        <ele>434.90</ele>
        <time>2022-10-26T11:23:54Z</time>
      </trkpt>
      <trkpt lat="10.271405" lon="-67.667481">
        <ele>434.90</ele>
        <time>2022-10-26T11:23:55Z</time>
      </trkpt>
      <trkpt lat="10.271404" lon="-67.667481">
        <ele>434.90</ele>
        <time>2022-10-26T11:23:56Z</time>
      </trkpt>
      <trkpt lat="10.271403" lon="-67.667480">
        <ele>434.90</ele>
        <time>2022-10-26T11:23:57Z</time>
      </trkpt>
      <trkpt lat="10.271403" lon="-67.667479">
        <ele>434.90</ele>
        <time>2022-10-26T11:23:58Z</time>
      </trkpt>
      <trkpt lat="10.271402" lon="-67.667478">
        <ele>434.90</ele>
        <time>2022-10-26T11:23:59Z</time>
      </trkpt>
      <trkpt lat="10.271401" lon="-67.667477">
        <ele>434.90</ele>
        <time>2022-10-26T11:24:00Z</time>
      </trkpt>
      <trkpt lat="10.271400" lon="-67.667477">
        <ele>434.90</ele>
        <time>2022-10-26T11:24:01Z</time>
      </trkpt>
      <trkpt lat="10.271399" lon="-67.667476">
        <ele>434.90</ele>
        <time>2022-10-26T11:24:02Z</time>
      </trkpt>
      <trkpt lat="10.271398" lon="-67.667475">
        <ele>434.90</ele>
        <time>2022-10-26T11:24:03Z</time>
      </trkpt>
      <trkpt lat="10.271397" lon="-67.667474">
        <ele>434.90</ele>
        <time>2022-10-26T11:24:04Z</time>
      </trkpt>
      <trkpt lat="10.271397" lon="-67.667473">
        <ele>434.90</ele>
        <time>2022-10-26T11:24:05Z</time>
      </trkpt>
      <trkpt lat="10.271396" lon="-67.667473">
        <ele>434.90</ele>
        <time>2022-10-26T11:24:06Z</time>
      </trkpt>
      <trkpt lat="10.271395" lon="-67.667472">
        <ele>434.90</ele>
        <time>2022-10-26T11:24:07Z</time>
      </trkpt>
      <trkpt lat="10.271394" lon="-67.667471">
        <ele>434.90</ele>
        <time>2022-10-26T11:24:08Z</time>
      </trkpt>
      <trkpt lat="10.271393" lon="-67.667470">
        <ele>434.90</ele>
        <time>2022-10-26T11:24:09Z</time>
      </trkpt>
      <trkpt lat="10.271392" lon="-67.667469">
        <ele>434.90</ele>
        <time>2022-10-26T11:24:10Z</time>
      </trkpt>
      <trkpt lat="10.271391" lon="-67.667469">
        <ele>434.90</ele>
        <time>2022-10-26T11:24:11Z</time>
      </trkpt>
      <trkpt lat="10.271391" lon="-67.667468">
        <ele>434.90</ele>
        <time>2022-10-26T11:24:12Z</time>
      </trkpt>
      <trkpt lat="10.271390" lon="-67.667467">
        <ele>434.90</ele>
        <time>2022-10-26T11:24:13Z</time>
      </trkpt>
      <trkpt lat="10.271389" lon="-67.667466">
        <ele>434.90</ele>
        <time>2022-10-26T11:24:14Z</time>
      </trkpt>
      <trkpt lat="10.271388" lon="-67.667465">
        <ele>434.90</ele>
        <time>2022-10-26T11:24:15Z</time>
      </trkpt>
      <trkpt lat="10.271387" lon="-67.667465">
        <ele>434.90</ele>
        <time>2022-10-26T11:24:16Z</time>
      </trkpt>
      <trkpt lat="10.271386" lon="-67.667464">
        <ele>434.90</ele>
        <time>2022-10-26T11:24:17Z</time>
      </trkpt>
      <trkpt lat="10.271385" lon="-67.667463">
        <ele>434.90</ele>
        <time>2022-10-26T11:24:18Z</time>
      </trkpt>
      <trkpt lat="10.271385" lon="-67.667462">
        <ele>434.90</ele>
        <time>2022-10-26T11:24:19Z</time>
      </trkpt>
      <trkpt lat="10.271384" lon="-67.667461">
        <ele>434.90</ele>
        <time>2022-10-26T11:24:20Z</time>
      </trkpt>
      <trkpt lat="10.271383" lon="-67.667461">
        <ele>434.90</ele>
        <time>2022-10-26T11:24:21Z</time>
      </trkpt>
      <trkpt lat="10.271372" lon="-67.667451">
        <ele>434.90</ele>
        <time>2022-10-26T11:24:22Z</time>
      </trkpt>
      <trkpt lat="10.271364" lon="-67.667445">
        <ele>434.90</ele>
        <time>2022-10-26T11:24:23Z</time>
      </trkpt>
      <trkpt lat="10.271360" lon="-67.667443">
        <ele>434.90</ele>
        <time>2022-10-26T11:24:24Z</time>
      </trkpt>
      <trkpt lat="10.271360" lon="-67.667444">
        <ele>434.90</ele>
        <time>2022-10-26T11:24:25Z</time>
      </trkpt>
      <trkpt lat="10.271362" lon="-67.667447">
        <ele>434.90</ele>
        <time>2022-10-26T11:24:26Z</time>
      </trkpt>
      <trkpt lat="10.271363" lon="-67.667449">
        <ele>434.90</ele>
        <time>2022-10-26T11:24:27Z</time>
      </trkpt>
      <trkpt lat="10.271365" lon="-67.667451">
        <ele>434.90</ele>
        <time>2022-10-26T11:24:28Z</time>
      </trkpt>
      <trkpt lat="10.271366" lon="-67.667454">
        <ele>434.90</ele>
        <time>2022-10-26T11:24:29Z</time>
      </trkpt>
      <trkpt lat="10.271368" lon="-67.667456">
        <ele>434.90</ele>
        <time>2022-10-26T11:24:30Z</time>
      </trkpt>
      <trkpt lat="10.271369" lon="-67.667458">
        <ele>434.90</ele>
        <time>2022-10-26T11:24:31Z</time>
      </trkpt>
      <trkpt lat="10.271370" lon="-67.667461">
        <ele>434.90</ele>
        <time>2022-10-26T11:24:32Z</time>
      </trkpt>
      <trkpt lat="10.271372" lon="-67.667463">
        <ele>434.90</ele>
        <time>2022-10-26T11:24:33Z</time>
      </trkpt>
      <trkpt lat="10.271373" lon="-67.667465">
        <ele>434.90</ele>
        <time>2022-10-26T11:24:34Z</time>
      </trkpt>
      <trkpt lat="10.271375" lon="-67.667468">
        <ele>434.90</ele>
        <time>2022-10-26T11:24:35Z</time>
      </trkpt>
      <trkpt lat="10.271376" lon="-67.667470">
        <ele>434.90</ele>
        <time>2022-10-26T11:24:36Z</time>
      </trkpt>
      <trkpt lat="10.271378" lon="-67.667472">
        <ele>434.90</ele>
        <time>2022-10-26T11:24:37Z</time>
      </trkpt>
      <trkpt lat="10.271379" lon="-67.667475">
        <ele>434.90</ele>
        <time>2022-10-26T11:24:38Z</time>
      </trkpt>
      <trkpt lat="10.271381" lon="-67.667477">
        <ele>434.90</ele>
        <time>2022-10-26T11:24:39Z</time>
      </trkpt>
      <trkpt lat="10.271382" lon="-67.667479">
        <ele>434.90</ele>
        <time>2022-10-26T11:24:40Z</time>
      </trkpt>
      <trkpt lat="10.271384" lon="-67.667481">
        <ele>434.90</ele>
        <time>2022-10-26T11:24:41Z</time>
      </trkpt>
      <trkpt lat="10.271385" lon="-67.667484">
        <ele>434.90</ele>
        <time>2022-10-26T11:24:42Z</time>
      </trkpt>
      <trkpt lat="10.271387" lon="-67.667486">
        <ele>434.90</ele>
        <time>2022-10-26T11:24:43Z</time>
      </trkpt>
      <trkpt lat="10.271388" lon="-67.667488">
        <ele>434.90</ele>
        <time>2022-10-26T11:24:44Z</time>
      </trkpt>
      <trkpt lat="10.271389" lon="-67.667491">
        <ele>434.90</ele>
        <time>2022-10-26T11:24:45Z</time>
      </trkpt>
      <trkpt lat="10.271391" lon="-67.667493">
        <ele>434.90</ele>
        <time>2022-10-26T11:24:46Z</time>
      </trkpt>
      <trkpt lat="10.271392" lon="-67.667495">
        <ele>434.90</ele>
        <time>2022-10-26T11:24:47Z</time>
      </trkpt>
      <trkpt lat="10.271394" lon="-67.667498">
        <ele>434.90</ele>
        <time>2022-10-26T11:24:48Z</time>
      </trkpt>
      <trkpt lat="10.271395" lon="-67.667500">
        <ele>434.90</ele>
        <time>2022-10-26T11:24:49Z</time>
      </trkpt>
      <trkpt lat="10.271397" lon="-67.667502">
        <ele>434.90</ele>
        <time>2022-10-26T11:24:50Z</time>
      </trkpt>
      <trkpt lat="10.271418" lon="-67.667537">
        <ele>434.90</ele>
        <time>2022-10-26T11:24:51Z</time>
      </trkpt>
      <trkpt lat="10.271430" lon="-67.667571">
        <ele>434.90</ele>
        <time>2022-10-26T11:24:52Z</time>
      </trkpt>
      <trkpt lat="10.271434" lon="-67.667585">
        <ele>434.90</ele>
        <time>2022-10-26T11:24:53Z</time>
      </trkpt>
      <trkpt lat="10.271443" lon="-67.667620">
        <ele>434.90</ele>
        <time>2022-10-26T11:24:54Z</time>
      </trkpt>
      <trkpt lat="10.271453" lon="-67.667660">
        <ele>434.90</ele>
        <time>2022-10-26T11:24:55Z</time>
      </trkpt>
      <trkpt lat="10.271456" lon="-67.667676">
        <ele>434.90</ele>
        <time>2022-10-26T11:24:56Z</time>
      </trkpt>
      <trkpt lat="10.271460" lon="-67.667704">
        <ele>434.80</ele>
        <time>2022-10-26T11:24:57Z</time>
      </trkpt>
      <trkpt lat="10.271456" lon="-67.667736">
        <ele>434.70</ele>
        <time>2022-10-26T11:24:58Z</time>
      </trkpt>
      <trkpt lat="10.271455" lon="-67.667776">
        <ele>434.60</ele>
        <time>2022-10-26T11:24:59Z</time>
      </trkpt>
      <trkpt lat="10.271454" lon="-67.667789">
        <ele>434.60</ele>
        <time>2022-10-26T11:25:00Z</time>
      </trkpt>
      <trkpt lat="10.271460" lon="-67.667817">
        <ele>434.50</ele>
        <time>2022-10-26T11:25:01Z</time>
      </trkpt>
      <trkpt lat="10.271469" lon="-67.667851">
        <ele>434.40</ele>
        <time>2022-10-26T11:25:02Z</time>
      </trkpt>
      <trkpt lat="10.271471" lon="-67.667864">
        <ele>434.40</ele>
        <time>2022-10-26T11:25:03Z</time>
      </trkpt>
      <trkpt lat="10.271478" lon="-67.667912">
        <ele>434.30</ele>
        <time>2022-10-26T11:25:04Z</time>
      </trkpt>
      <trkpt lat="10.271479" lon="-67.667934">
        <ele>434.20</ele>
        <time>2022-10-26T11:25:05Z</time>
      </trkpt>
      <trkpt lat="10.271491" lon="-67.667991">
        <ele>434.00</ele>
        <time>2022-10-26T11:25:06Z</time>
      </trkpt>
      <trkpt lat="10.271522" lon="-67.668053">
        <ele>433.80</ele>
        <time>2022-10-26T11:25:07Z</time>
      </trkpt>
      <trkpt lat="10.271546" lon="-67.668118">
        <ele>433.50</ele>
        <time>2022-10-26T11:25:08Z</time>
      </trkpt>
      <trkpt lat="10.271570" lon="-67.668190">
        <ele>433.20</ele>
        <time>2022-10-26T11:25:09Z</time>
      </trkpt>
      <trkpt lat="10.271590" lon="-67.668261">
        <ele>433.00</ele>
        <time>2022-10-26T11:25:10Z</time>
      </trkpt>
      <trkpt lat="10.271610" lon="-67.668333">
        <ele>432.70</ele>
        <time>2022-10-26T11:25:11Z</time>
      </trkpt>
      <trkpt lat="10.271633" lon="-67.668401">
        <ele>432.40</ele>
        <time>2022-10-26T11:25:12Z</time>
      </trkpt>
      <trkpt lat="10.271655" lon="-67.668470">
        <ele>432.10</ele>
        <time>2022-10-26T11:25:13Z</time>
      </trkpt>
      <trkpt lat="10.271677" lon="-67.668540">
        <ele>431.80</ele>
        <time>2022-10-26T11:25:14Z</time>
      </trkpt>
      <trkpt lat="10.271707" lon="-67.668620">
        <ele>431.40</ele>
        <time>2022-10-26T11:25:15Z</time>
      </trkpt>
      <trkpt lat="10.271736" lon="-67.668698">
        <ele>431.10</ele>
        <time>2022-10-26T11:25:16Z</time>
      </trkpt>
      <trkpt lat="10.271761" lon="-67.668778">
        <ele>430.90</ele>
        <time>2022-10-26T11:25:17Z</time>
      </trkpt>
      <trkpt lat="10.271781" lon="-67.668856">
        <ele>430.60</ele>
        <time>2022-10-26T11:25:18Z</time>
      </trkpt>
      <trkpt lat="10.271801" lon="-67.668931">
        <ele>430.40</ele>
        <time>2022-10-26T11:25:19Z</time>
      </trkpt>
      <trkpt lat="10.271821" lon="-67.669002">
        <ele>430.10</ele>
        <time>2022-10-26T11:25:20Z</time>
      </trkpt>
      <trkpt lat="10.271841" lon="-67.669072">
        <ele>429.80</ele>
        <time>2022-10-26T11:25:21Z</time>
      </trkpt>
      <trkpt lat="10.271868" lon="-67.669148">
        <ele>429.60</ele>
        <time>2022-10-26T11:25:22Z</time>
      </trkpt>
      <trkpt lat="10.271890" lon="-67.669222">
        <ele>429.30</ele>
        <time>2022-10-26T11:25:23Z</time>
      </trkpt>
      <trkpt lat="10.271912" lon="-67.669299">
        <ele>429.00</ele>
        <time>2022-10-26T11:25:24Z</time>
      </trkpt>
      <trkpt lat="10.271932" lon="-67.669374">
        <ele>428.70</ele>
        <time>2022-10-26T11:25:25Z</time>
      </trkpt>
      <trkpt lat="10.271952" lon="-67.669452">
        <ele>428.40</ele>
        <time>2022-10-26T11:25:26Z</time>
      </trkpt>
      <trkpt lat="10.271972" lon="-67.669531">
        <ele>428.10</ele>
        <time>2022-10-26T11:25:27Z</time>
      </trkpt>
      <trkpt lat="10.271993" lon="-67.669610">
        <ele>427.90</ele>
        <time>2022-10-26T11:25:28Z</time>
      </trkpt>
      <trkpt lat="10.272018" lon="-67.669685">
        <ele>427.60</ele>
        <time>2022-10-26T11:25:29Z</time>
      </trkpt>
      <trkpt lat="10.272041" lon="-67.669761">
        <ele>427.40</ele>
        <time>2022-10-26T11:25:30Z</time>
      </trkpt>
      <trkpt lat="10.272061" lon="-67.669839">
        <ele>427.20</ele>
        <time>2022-10-26T11:25:31Z</time>
      </trkpt>
      <trkpt lat="10.272082" lon="-67.669917">
        <ele>427.00</ele>
        <time>2022-10-26T11:25:32Z</time>
      </trkpt>
      <trkpt lat="10.272102" lon="-67.669993">
        <ele>426.80</ele>
        <time>2022-10-26T11:25:33Z</time>
      </trkpt>
      <trkpt lat="10.272122" lon="-67.670069">
        <ele>426.60</ele>
        <time>2022-10-26T11:25:34Z</time>
      </trkpt>
      <trkpt lat="10.272141" lon="-67.670145">
        <ele>426.50</ele>
        <time>2022-10-26T11:25:35Z</time>
      </trkpt>
      <trkpt lat="10.272166" lon="-67.670225">
        <ele>426.30</ele>
        <time>2022-10-26T11:25:36Z</time>
      </trkpt>
      <trkpt lat="10.272191" lon="-67.670307">
        <ele>426.20</ele>
        <time>2022-10-26T11:25:37Z</time>
      </trkpt>
      <trkpt lat="10.272213" lon="-67.670388">
        <ele>426.00</ele>
        <time>2022-10-26T11:25:38Z</time>
      </trkpt>
      <trkpt lat="10.272237" lon="-67.670467">
        <ele>425.80</ele>
        <time>2022-10-26T11:25:39Z</time>
      </trkpt>
      <trkpt lat="10.272270" lon="-67.670541">
        <ele>425.60</ele>
        <time>2022-10-26T11:25:40Z</time>
      </trkpt>
      <trkpt lat="10.272292" lon="-67.670615">
        <ele>425.40</ele>
        <time>2022-10-26T11:25:41Z</time>
      </trkpt>
      <trkpt lat="10.272310" lon="-67.670691">
        <ele>425.30</ele>
        <time>2022-10-26T11:25:42Z</time>
      </trkpt>
      <trkpt lat="10.272330" lon="-67.670762">
        <ele>425.30</ele>
        <time>2022-10-26T11:25:43Z</time>
      </trkpt>
      <trkpt lat="10.272348" lon="-67.670835">
        <ele>425.20</ele>
        <time>2022-10-26T11:25:44Z</time>
      </trkpt>
      <trkpt lat="10.272369" lon="-67.670906">
        <ele>425.20</ele>
        <time>2022-10-26T11:25:45Z</time>
      </trkpt>
      <trkpt lat="10.272391" lon="-67.670977">
        <ele>425.20</ele>
        <time>2022-10-26T11:25:46Z</time>
      </trkpt>
      <trkpt lat="10.272410" lon="-67.671046">
        <ele>425.20</ele>
        <time>2022-10-26T11:25:47Z</time>
      </trkpt>
      <trkpt lat="10.272427" lon="-67.671112">
        <ele>425.20</ele>
        <time>2022-10-26T11:25:48Z</time>
      </trkpt>
      <trkpt lat="10.272447" lon="-67.671174">
        <ele>425.10</ele>
        <time>2022-10-26T11:25:49Z</time>
      </trkpt>
      <trkpt lat="10.272467" lon="-67.671236">
        <ele>425.10</ele>
        <time>2022-10-26T11:25:50Z</time>
      </trkpt>
      <trkpt lat="10.272484" lon="-67.671300">
        <ele>425.10</ele>
        <time>2022-10-26T11:25:51Z</time>
      </trkpt>
      <trkpt lat="10.272497" lon="-67.671363">
        <ele>425.10</ele>
        <time>2022-10-26T11:25:52Z</time>
      </trkpt>
      <trkpt lat="10.272513" lon="-67.671433">
        <ele>425.10</ele>
        <time>2022-10-26T11:25:53Z</time>
      </trkpt>
      <trkpt lat="10.272528" lon="-67.671496">
        <ele>425.20</ele>
        <time>2022-10-26T11:25:54Z</time>
      </trkpt>
      <trkpt lat="10.272549" lon="-67.671558">
        <ele>425.20</ele>
        <time>2022-10-26T11:25:55Z</time>
      </trkpt>
      <trkpt lat="10.272571" lon="-67.671620">
        <ele>425.20</ele>
        <time>2022-10-26T11:25:56Z</time>
      </trkpt>
      <trkpt lat="10.272587" lon="-67.671683">
        <ele>425.20</ele>
        <time>2022-10-26T11:25:57Z</time>
      </trkpt>
      <trkpt lat="10.272604" lon="-67.671748">
        <ele>425.20</ele>
        <time>2022-10-26T11:25:58Z</time>
      </trkpt>
      <trkpt lat="10.272619" lon="-67.671813">
        <ele>425.30</ele>
        <time>2022-10-26T11:25:59Z</time>
      </trkpt>
      <trkpt lat="10.272628" lon="-67.671880">
        <ele>425.30</ele>
        <time>2022-10-26T11:26:00Z</time>
      </trkpt>
      <trkpt lat="10.272638" lon="-67.671945">
        <ele>425.30</ele>
        <time>2022-10-26T11:26:01Z</time>
      </trkpt>
      <trkpt lat="10.272651" lon="-67.672007">
        <ele>425.30</ele>
        <time>2022-10-26T11:26:02Z</time>
      </trkpt>
      <trkpt lat="10.272668" lon="-67.672069">
        <ele>425.40</ele>
        <time>2022-10-26T11:26:03Z</time>
      </trkpt>
      <trkpt lat="10.272682" lon="-67.672133">
        <ele>425.40</ele>
        <time>2022-10-26T11:26:04Z</time>
      </trkpt>
      <trkpt lat="10.272695" lon="-67.672197">
        <ele>425.40</ele>
        <time>2022-10-26T11:26:05Z</time>
      </trkpt>
      <trkpt lat="10.272707" lon="-67.672263">
        <ele>425.40</ele>
        <time>2022-10-26T11:26:06Z</time>
      </trkpt>
      <trkpt lat="10.272726" lon="-67.672333">
        <ele>425.50</ele>
        <time>2022-10-26T11:26:07Z</time>
      </trkpt>
      <trkpt lat="10.272741" lon="-67.672410">
        <ele>425.50</ele>
        <time>2022-10-26T11:26:08Z</time>
      </trkpt>
      <trkpt lat="10.272755" lon="-67.672487">
        <ele>425.50</ele>
        <time>2022-10-26T11:26:09Z</time>
      </trkpt>
      <trkpt lat="10.272770" lon="-67.672566">
        <ele>425.50</ele>
        <time>2022-10-26T11:26:10Z</time>
      </trkpt>
      <trkpt lat="10.272785" lon="-67.672643">
        <ele>425.50</ele>
        <time>2022-10-26T11:26:11Z</time>
      </trkpt>
      <trkpt lat="10.272810" lon="-67.672717">
        <ele>425.60</ele>
        <time>2022-10-26T11:26:12Z</time>
      </trkpt>
      <trkpt lat="10.272833" lon="-67.672792">
        <ele>425.60</ele>
        <time>2022-10-26T11:26:13Z</time>
      </trkpt>
      <trkpt lat="10.272853" lon="-67.672869">
        <ele>425.70</ele>
        <time>2022-10-26T11:26:14Z</time>
      </trkpt>
      <trkpt lat="10.272876" lon="-67.672950">
        <ele>425.70</ele>
        <time>2022-10-26T11:26:15Z</time>
      </trkpt>
      <trkpt lat="10.272897" lon="-67.673035">
        <ele>425.80</ele>
        <time>2022-10-26T11:26:16Z</time>
      </trkpt>
      <trkpt lat="10.272918" lon="-67.673119">
        <ele>425.90</ele>
        <time>2022-10-26T11:26:17Z</time>
      </trkpt>
      <trkpt lat="10.272944" lon="-67.673200">
        <ele>426.00</ele>
        <time>2022-10-26T11:26:18Z</time>
      </trkpt>
      <trkpt lat="10.272972" lon="-67.673282">
        <ele>426.10</ele>
        <time>2022-10-26T11:26:19Z</time>
      </trkpt>
      <trkpt lat="10.272999" lon="-67.673366">
        <ele>426.20</ele>
        <time>2022-10-26T11:26:20Z</time>
      </trkpt>
      <trkpt lat="10.273022" lon="-67.673443">
        <ele>426.30</ele>
        <time>2022-10-26T11:26:21Z</time>
      </trkpt>
      <trkpt lat="10.273043" lon="-67.673515">
        <ele>426.40</ele>
        <time>2022-10-26T11:26:22Z</time>
      </trkpt>
      <trkpt lat="10.273065" lon="-67.673588">
        <ele>426.40</ele>
        <time>2022-10-26T11:26:23Z</time>
      </trkpt>
      <trkpt lat="10.273082" lon="-67.673663">
        <ele>426.50</ele>
        <time>2022-10-26T11:26:24Z</time>
      </trkpt>
      <trkpt lat="10.273100" lon="-67.673735">
        <ele>426.60</ele>
        <time>2022-10-26T11:26:25Z</time>
      </trkpt>
      <trkpt lat="10.273117" lon="-67.673807">
        <ele>426.70</ele>
        <time>2022-10-26T11:26:26Z</time>
      </trkpt>
      <trkpt lat="10.273134" lon="-67.673880">
        <ele>426.80</ele>
        <time>2022-10-26T11:26:27Z</time>
      </trkpt>
      <trkpt lat="10.273148" lon="-67.673950">
        <ele>426.90</ele>
        <time>2022-10-26T11:26:28Z</time>
      </trkpt>
      <trkpt lat="10.273164" lon="-67.674017">
        <ele>426.90</ele>
        <time>2022-10-26T11:26:29Z</time>
      </trkpt>
      <trkpt lat="10.273178" lon="-67.674085">
        <ele>427.00</ele>
        <time>2022-10-26T11:26:30Z</time>
      </trkpt>
      <trkpt lat="10.273190" lon="-67.674150">
        <ele>427.00</ele>
        <time>2022-10-26T11:26:31Z</time>
      </trkpt>
      <trkpt lat="10.273202" lon="-67.674213">
        <ele>427.00</ele>
        <time>2022-10-26T11:26:32Z</time>
      </trkpt>
      <trkpt lat="10.273215" lon="-67.674274">
        <ele>427.10</ele>
        <time>2022-10-26T11:26:33Z</time>
      </trkpt>
      <trkpt lat="10.273228" lon="-67.674335">
        <ele>427.10</ele>
        <time>2022-10-26T11:26:34Z</time>
      </trkpt>
      <trkpt lat="10.273245" lon="-67.674394">
        <ele>427.10</ele>
        <time>2022-10-26T11:26:35Z</time>
      </trkpt>
      <trkpt lat="10.273264" lon="-67.674451">
        <ele>427.10</ele>
        <time>2022-10-26T11:26:36Z</time>
      </trkpt>
      <trkpt lat="10.273283" lon="-67.674509">
        <ele>427.20</ele>
        <time>2022-10-26T11:26:37Z</time>
      </trkpt>
      <trkpt lat="10.273301" lon="-67.674565">
        <ele>427.20</ele>
        <time>2022-10-26T11:26:38Z</time>
      </trkpt>
      <trkpt lat="10.273318" lon="-67.674621">
        <ele>427.20</ele>
        <time>2022-10-26T11:26:39Z</time>
      </trkpt>
      <trkpt lat="10.273335" lon="-67.674675">
        <ele>427.30</ele>
        <time>2022-10-26T11:26:40Z</time>
      </trkpt>
      <trkpt lat="10.273354" lon="-67.674728">
        <ele>427.30</ele>
        <time>2022-10-26T11:26:41Z</time>
      </trkpt>
      <trkpt lat="10.273371" lon="-67.674780">
        <ele>427.30</ele>
        <time>2022-10-26T11:26:42Z</time>
      </trkpt>
      <trkpt lat="10.273388" lon="-67.674831">
        <ele>427.40</ele>
        <time>2022-10-26T11:26:43Z</time>
      </trkpt>
      <trkpt lat="10.273402" lon="-67.674883">
        <ele>427.40</ele>
        <time>2022-10-26T11:26:44Z</time>
      </trkpt>
      <trkpt lat="10.273414" lon="-67.674932">
        <ele>427.40</ele>
        <time>2022-10-26T11:26:45Z</time>
      </trkpt>
      <trkpt lat="10.273426" lon="-67.674976">
        <ele>427.40</ele>
        <time>2022-10-26T11:26:46Z</time>
      </trkpt>
      <trkpt lat="10.273438" lon="-67.675018">
        <ele>427.50</ele>
        <time>2022-10-26T11:26:47Z</time>
      </trkpt>
      <trkpt lat="10.273451" lon="-67.675059">
        <ele>427.50</ele>
        <time>2022-10-26T11:26:48Z</time>
      </trkpt>
      <trkpt lat="10.273465" lon="-67.675103">
        <ele>427.50</ele>
        <time>2022-10-26T11:26:49Z</time>
      </trkpt>
      <trkpt lat="10.273480" lon="-67.675146">
        <ele>427.50</ele>
        <time>2022-10-26T11:26:50Z</time>
      </trkpt>
      <trkpt lat="10.273494" lon="-67.675187">
        <ele>427.50</ele>
        <time>2022-10-26T11:26:51Z</time>
      </trkpt>
      <trkpt lat="10.273513" lon="-67.675225">
        <ele>427.50</ele>
        <time>2022-10-26T11:26:52Z</time>
      </trkpt>
      <trkpt lat="10.273532" lon="-67.675268">
        <ele>427.50</ele>
        <time>2022-10-26T11:26:53Z</time>
      </trkpt>
      <trkpt lat="10.273549" lon="-67.675316">
        <ele>427.50</ele>
        <time>2022-10-26T11:26:54Z</time>
      </trkpt>
      <trkpt lat="10.273563" lon="-67.675363">
        <ele>427.50</ele>
        <time>2022-10-26T11:26:55Z</time>
      </trkpt>
      <trkpt lat="10.273575" lon="-67.675411">
        <ele>427.50</ele>
        <time>2022-10-26T11:26:56Z</time>
      </trkpt>
      <trkpt lat="10.273588" lon="-67.675462">
        <ele>427.50</ele>
        <time>2022-10-26T11:26:57Z</time>
      </trkpt>
      <trkpt lat="10.273602" lon="-67.675512">
        <ele>427.50</ele>
        <time>2022-10-26T11:26:58Z</time>
      </trkpt>
      <trkpt lat="10.273616" lon="-67.675562">
        <ele>427.60</ele>
        <time>2022-10-26T11:26:59Z</time>
      </trkpt>
      <trkpt lat="10.273629" lon="-67.675612">
        <ele>427.60</ele>
        <time>2022-10-26T11:27:00Z</time>
      </trkpt>
      <trkpt lat="10.273642" lon="-67.675663">
        <ele>427.60</ele>
        <time>2022-10-26T11:27:01Z</time>
      </trkpt>
      <trkpt lat="10.273655" lon="-67.675714">
        <ele>427.60</ele>
        <time>2022-10-26T11:27:02Z</time>
      </trkpt>
      <trkpt lat="10.273669" lon="-67.675765">
        <ele>427.60</ele>
        <time>2022-10-26T11:27:03Z</time>
      </trkpt>
      <trkpt lat="10.273682" lon="-67.675819">
        <ele>427.60</ele>
        <time>2022-10-26T11:27:04Z</time>
      </trkpt>
      <trkpt lat="10.273695" lon="-67.675873">
        <ele>427.70</ele>
        <time>2022-10-26T11:27:05Z</time>
      </trkpt>
      <trkpt lat="10.273709" lon="-67.675926">
        <ele>427.70</ele>
        <time>2022-10-26T11:27:06Z</time>
      </trkpt>
      <trkpt lat="10.273723" lon="-67.675977">
        <ele>427.70</ele>
        <time>2022-10-26T11:27:07Z</time>
      </trkpt>
      <trkpt lat="10.273736" lon="-67.676027">
        <ele>427.70</ele>
        <time>2022-10-26T11:27:08Z</time>
      </trkpt>
      <trkpt lat="10.273749" lon="-67.676075">
        <ele>427.80</ele>
        <time>2022-10-26T11:27:09Z</time>
      </trkpt>
      <trkpt lat="10.273760" lon="-67.676122">
        <ele>427.80</ele>
        <time>2022-10-26T11:27:10Z</time>
      </trkpt>
      <trkpt lat="10.273773" lon="-67.676168">
        <ele>427.80</ele>
        <time>2022-10-26T11:27:11Z</time>
      </trkpt>
      <trkpt lat="10.273787" lon="-67.676215">
        <ele>427.90</ele>
        <time>2022-10-26T11:27:12Z</time>
      </trkpt>
      <trkpt lat="10.273803" lon="-67.676261">
        <ele>428.00</ele>
        <time>2022-10-26T11:27:13Z</time>
      </trkpt>
      <trkpt lat="10.273819" lon="-67.676307">
        <ele>428.00</ele>
        <time>2022-10-26T11:27:14Z</time>
      </trkpt>
      <trkpt lat="10.273833" lon="-67.676354">
        <ele>428.10</ele>
        <time>2022-10-26T11:27:15Z</time>
      </trkpt>
      <trkpt lat="10.273846" lon="-67.676402">
        <ele>428.10</ele>
        <time>2022-10-26T11:27:16Z</time>
      </trkpt>
      <trkpt lat="10.273862" lon="-67.676450">
        <ele>428.20</ele>
        <time>2022-10-26T11:27:17Z</time>
      </trkpt>
      <trkpt lat="10.273876" lon="-67.676498">
        <ele>428.20</ele>
        <time>2022-10-26T11:27:18Z</time>
      </trkpt>
      <trkpt lat="10.273894" lon="-67.676550">
        <ele>428.30</ele>
        <time>2022-10-26T11:27:19Z</time>
      </trkpt>
      <trkpt lat="10.273912" lon="-67.676605">
        <ele>428.30</ele>
        <time>2022-10-26T11:27:20Z</time>
      </trkpt>
      <trkpt lat="10.273931" lon="-67.676659">
        <ele>428.30</ele>
        <time>2022-10-26T11:27:21Z</time>
      </trkpt>
      <trkpt lat="10.273951" lon="-67.676710">
        <ele>428.30</ele>
        <time>2022-10-26T11:27:22Z</time>
      </trkpt>
      <trkpt lat="10.273970" lon="-67.676759">
        <ele>428.30</ele>
        <time>2022-10-26T11:27:23Z</time>
      </trkpt>
      <trkpt lat="10.273986" lon="-67.676808">
        <ele>428.30</ele>
        <time>2022-10-26T11:27:24Z</time>
      </trkpt>
      <trkpt lat="10.274000" lon="-67.676858">
        <ele>428.30</ele>
        <time>2022-10-26T11:27:25Z</time>
      </trkpt>
      <trkpt lat="10.274013" lon="-67.676911">
        <ele>428.30</ele>
        <time>2022-10-26T11:27:26Z</time>
      </trkpt>
      <trkpt lat="10.274027" lon="-67.676965">
        <ele>428.30</ele>
        <time>2022-10-26T11:27:27Z</time>
      </trkpt>
      <trkpt lat="10.274041" lon="-67.677017">
        <ele>428.30</ele>
        <time>2022-10-26T11:27:28Z</time>
      </trkpt>
      <trkpt lat="10.274054" lon="-67.677069">
        <ele>428.40</ele>
        <time>2022-10-26T11:27:29Z</time>
      </trkpt>
      <trkpt lat="10.274066" lon="-67.677123">
        <ele>428.40</ele>
        <time>2022-10-26T11:27:30Z</time>
      </trkpt>
      <trkpt lat="10.274080" lon="-67.677177">
        <ele>428.40</ele>
        <time>2022-10-26T11:27:31Z</time>
      </trkpt>
      <trkpt lat="10.274091" lon="-67.677234">
        <ele>428.40</ele>
        <time>2022-10-26T11:27:32Z</time>
      </trkpt>
      <trkpt lat="10.274098" lon="-67.677296">
        <ele>428.40</ele>
        <time>2022-10-26T11:27:33Z</time>
      </trkpt>
      <trkpt lat="10.274107" lon="-67.677353">
        <ele>428.40</ele>
        <time>2022-10-26T11:27:34Z</time>
      </trkpt>
      <trkpt lat="10.274118" lon="-67.677406">
        <ele>428.40</ele>
        <time>2022-10-26T11:27:35Z</time>
      </trkpt>
      <trkpt lat="10.274130" lon="-67.677457">
        <ele>428.50</ele>
        <time>2022-10-26T11:27:36Z</time>
      </trkpt>
      <trkpt lat="10.274139" lon="-67.677506">
        <ele>428.50</ele>
        <time>2022-10-26T11:27:37Z</time>
      </trkpt>
      <trkpt lat="10.274147" lon="-67.677558">
        <ele>428.50</ele>
        <time>2022-10-26T11:27:38Z</time>
      </trkpt>
      <trkpt lat="10.274156" lon="-67.677613">
        <ele>428.50</ele>
        <time>2022-10-26T11:27:39Z</time>
      </trkpt>
      <trkpt lat="10.274167" lon="-67.677666">
        <ele>428.50</ele>
        <time>2022-10-26T11:27:40Z</time>
      </trkpt>
      <trkpt lat="10.274178" lon="-67.677716">
        <ele>428.50</ele>
        <time>2022-10-26T11:27:41Z</time>
      </trkpt>
      <trkpt lat="10.274190" lon="-67.677768">
        <ele>428.50</ele>
        <time>2022-10-26T11:27:42Z</time>
      </trkpt>
      <trkpt lat="10.274203" lon="-67.677820">
        <ele>428.50</ele>
        <time>2022-10-26T11:27:43Z</time>
      </trkpt>
      <trkpt lat="10.274214" lon="-67.677875">
        <ele>428.60</ele>
        <time>2022-10-26T11:27:44Z</time>
      </trkpt>
      <trkpt lat="10.274225" lon="-67.677929">
        <ele>428.70</ele>
        <time>2022-10-26T11:27:45Z</time>
      </trkpt>
      <trkpt lat="10.274238" lon="-67.677981">
        <ele>428.70</ele>
        <time>2022-10-26T11:27:46Z</time>
      </trkpt>
      <trkpt lat="10.274251" lon="-67.678033">
        <ele>428.70</ele>
        <time>2022-10-26T11:27:47Z</time>
      </trkpt>
      <trkpt lat="10.274266" lon="-67.678080">
        <ele>428.80</ele>
        <time>2022-10-26T11:27:48Z</time>
      </trkpt>
      <trkpt lat="10.274283" lon="-67.678126">
        <ele>428.80</ele>
        <time>2022-10-26T11:27:49Z</time>
      </trkpt>
      <trkpt lat="10.274300" lon="-67.678174">
        <ele>428.80</ele>
        <time>2022-10-26T11:27:50Z</time>
      </trkpt>
      <trkpt lat="10.274317" lon="-67.678224">
        <ele>428.80</ele>
        <time>2022-10-26T11:27:51Z</time>
      </trkpt>
      <trkpt lat="10.274333" lon="-67.678275">
        <ele>428.80</ele>
        <time>2022-10-26T11:27:52Z</time>
      </trkpt>
      <trkpt lat="10.274347" lon="-67.678324">
        <ele>428.80</ele>
        <time>2022-10-26T11:27:53Z</time>
      </trkpt>
      <trkpt lat="10.274359" lon="-67.678373">
        <ele>428.80</ele>
        <time>2022-10-26T11:27:54Z</time>
      </trkpt>
      <trkpt lat="10.274370" lon="-67.678422">
        <ele>428.80</ele>
        <time>2022-10-26T11:27:55Z</time>
      </trkpt>
      <trkpt lat="10.274382" lon="-67.678472">
        <ele>428.90</ele>
        <time>2022-10-26T11:27:56Z</time>
      </trkpt>
      <trkpt lat="10.274394" lon="-67.678522">
        <ele>428.90</ele>
        <time>2022-10-26T11:27:57Z</time>
      </trkpt>
      <trkpt lat="10.274406" lon="-67.678570">
        <ele>429.00</ele>
        <time>2022-10-26T11:27:58Z</time>
      </trkpt>
      <trkpt lat="10.274421" lon="-67.678617">
        <ele>429.00</ele>
        <time>2022-10-26T11:27:59Z</time>
      </trkpt>
      <trkpt lat="10.274436" lon="-67.678664">
        <ele>429.10</ele>
        <time>2022-10-26T11:28:00Z</time>
      </trkpt>
      <trkpt lat="10.274453" lon="-67.678708">
        <ele>429.10</ele>
        <time>2022-10-26T11:28:01Z</time>
      </trkpt>
      <trkpt lat="10.274467" lon="-67.678751">
        <ele>429.20</ele>
        <time>2022-10-26T11:28:02Z</time>
      </trkpt>
      <trkpt lat="10.274480" lon="-67.678792">
        <ele>429.20</ele>
        <time>2022-10-26T11:28:03Z</time>
      </trkpt>
      <trkpt lat="10.274491" lon="-67.678831">
        <ele>429.20</ele>
        <time>2022-10-26T11:28:04Z</time>
      </trkpt>
      <trkpt lat="10.274501" lon="-67.678872">
        <ele>429.20</ele>
        <time>2022-10-26T11:28:05Z</time>
      </trkpt>
      <trkpt lat="10.274510" lon="-67.678916">
        <ele>429.20</ele>
        <time>2022-10-26T11:28:06Z</time>
      </trkpt>
      <trkpt lat="10.274518" lon="-67.678961">
        <ele>429.30</ele>
        <time>2022-10-26T11:28:07Z</time>
      </trkpt>
      <trkpt lat="10.274528" lon="-67.679005">
        <ele>429.30</ele>
        <time>2022-10-26T11:28:08Z</time>
      </trkpt>
      <trkpt lat="10.274541" lon="-67.679051">
        <ele>429.30</ele>
        <time>2022-10-26T11:28:09Z</time>
      </trkpt>
      <trkpt lat="10.274554" lon="-67.679094">
        <ele>429.30</ele>
        <time>2022-10-26T11:28:10Z</time>
      </trkpt>
      <trkpt lat="10.274569" lon="-67.679135">
        <ele>429.40</ele>
        <time>2022-10-26T11:28:11Z</time>
      </trkpt>
      <trkpt lat="10.274585" lon="-67.679178">
        <ele>429.40</ele>
        <time>2022-10-26T11:28:12Z</time>
      </trkpt>
      <trkpt lat="10.274599" lon="-67.679224">
        <ele>429.40</ele>
        <time>2022-10-26T11:28:13Z</time>
      </trkpt>
      <trkpt lat="10.274611" lon="-67.679274">
        <ele>429.40</ele>
        <time>2022-10-26T11:28:14Z</time>
      </trkpt>
      <trkpt lat="10.274622" lon="-67.679324">
        <ele>429.40</ele>
        <time>2022-10-26T11:28:15Z</time>
      </trkpt>
      <trkpt lat="10.274632" lon="-67.679373">
        <ele>429.40</ele>
        <time>2022-10-26T11:28:16Z</time>
      </trkpt>
      <trkpt lat="10.274644" lon="-67.679423">
        <ele>429.40</ele>
        <time>2022-10-26T11:28:17Z</time>
      </trkpt>
      <trkpt lat="10.274656" lon="-67.679470">
        <ele>429.50</ele>
        <time>2022-10-26T11:28:18Z</time>
      </trkpt>
      <trkpt lat="10.274669" lon="-67.679515">
        <ele>429.50</ele>
        <time>2022-10-26T11:28:19Z</time>
      </trkpt>
      <trkpt lat="10.274681" lon="-67.679560">
        <ele>429.50</ele>
        <time>2022-10-26T11:28:20Z</time>
      </trkpt>
      <trkpt lat="10.274692" lon="-67.679605">
        <ele>429.60</ele>
        <time>2022-10-26T11:28:21Z</time>
      </trkpt>
      <trkpt lat="10.274701" lon="-67.679650">
        <ele>429.60</ele>
        <time>2022-10-26T11:28:22Z</time>
      </trkpt>
      <trkpt lat="10.274712" lon="-67.679696">
        <ele>429.60</ele>
        <time>2022-10-26T11:28:23Z</time>
      </trkpt>
      <trkpt lat="10.274722" lon="-67.679741">
        <ele>429.60</ele>
        <time>2022-10-26T11:28:24Z</time>
      </trkpt>
      <trkpt lat="10.274733" lon="-67.679783">
        <ele>429.70</ele>
        <time>2022-10-26T11:28:25Z</time>
      </trkpt>
      <trkpt lat="10.274745" lon="-67.679824">
        <ele>429.70</ele>
        <time>2022-10-26T11:28:26Z</time>
      </trkpt>
      <trkpt lat="10.274758" lon="-67.679864">
        <ele>429.80</ele>
        <time>2022-10-26T11:28:27Z</time>
      </trkpt>
      <trkpt lat="10.274770" lon="-67.679905">
        <ele>429.80</ele>
        <time>2022-10-26T11:28:28Z</time>
      </trkpt>
      <trkpt lat="10.274783" lon="-67.679944">
        <ele>429.80</ele>
        <time>2022-10-26T11:28:29Z</time>
      </trkpt>
      <trkpt lat="10.274795" lon="-67.679980">
        <ele>429.90</ele>
        <time>2022-10-26T11:28:30Z</time>
      </trkpt>
      <trkpt lat="10.274807" lon="-67.680015">
        <ele>429.90</ele>
        <time>2022-10-26T11:28:31Z</time>
      </trkpt>
      <trkpt lat="10.274819" lon="-67.680049">
        <ele>429.90</ele>
        <time>2022-10-26T11:28:32Z</time>
      </trkpt>
      <trkpt lat="10.274832" lon="-67.680082">
        <ele>429.90</ele>
        <time>2022-10-26T11:28:33Z</time>
      </trkpt>
      <trkpt lat="10.274847" lon="-67.680114">
        <ele>429.90</ele>
        <time>2022-10-26T11:28:34Z</time>
      </trkpt>
      <trkpt lat="10.274859" lon="-67.680139">
        <ele>429.90</ele>
        <time>2022-10-26T11:28:35Z</time>
      </trkpt>
      <trkpt lat="10.274879" lon="-67.680171">
        <ele>429.90</ele>
        <time>2022-10-26T11:28:36Z</time>
      </trkpt>
      <trkpt lat="10.274886" lon="-67.680186">
        <ele>429.90</ele>
        <time>2022-10-26T11:28:37Z</time>
      </trkpt>
      <trkpt lat="10.274898" lon="-67.680212">
        <ele>429.90</ele>
        <time>2022-10-26T11:28:38Z</time>
      </trkpt>
      <trkpt lat="10.274911" lon="-67.680248">
        <ele>429.90</ele>
        <time>2022-10-26T11:28:39Z</time>
      </trkpt>
      <trkpt lat="10.274924" lon="-67.680288">
        <ele>430.00</ele>
        <time>2022-10-26T11:28:40Z</time>
      </trkpt>
      <trkpt lat="10.274939" lon="-67.680331">
        <ele>430.00</ele>
        <time>2022-10-26T11:28:41Z</time>
      </trkpt>
      <trkpt lat="10.274951" lon="-67.680376">
        <ele>430.00</ele>
        <time>2022-10-26T11:28:42Z</time>
      </trkpt>
      <trkpt lat="10.274961" lon="-67.680422">
        <ele>430.00</ele>
        <time>2022-10-26T11:28:43Z</time>
      </trkpt>
      <trkpt lat="10.274973" lon="-67.680468">
        <ele>430.00</ele>
        <time>2022-10-26T11:28:44Z</time>
      </trkpt>
      <trkpt lat="10.274987" lon="-67.680515">
        <ele>430.00</ele>
        <time>2022-10-26T11:28:45Z</time>
      </trkpt>
      <trkpt lat="10.275003" lon="-67.680563">
        <ele>430.00</ele>
        <time>2022-10-26T11:28:46Z</time>
      </trkpt>
      <trkpt lat="10.275019" lon="-67.680608">
        <ele>430.00</ele>
        <time>2022-10-26T11:28:47Z</time>
      </trkpt>
      <trkpt lat="10.275038" lon="-67.680655">
        <ele>430.00</ele>
        <time>2022-10-26T11:28:48Z</time>
      </trkpt>
      <trkpt lat="10.275051" lon="-67.680704">
        <ele>430.00</ele>
        <time>2022-10-26T11:28:49Z</time>
      </trkpt>
      <trkpt lat="10.275064" lon="-67.680751">
        <ele>430.00</ele>
        <time>2022-10-26T11:28:50Z</time>
      </trkpt>
      <trkpt lat="10.275075" lon="-67.680798">
        <ele>430.10</ele>
        <time>2022-10-26T11:28:51Z</time>
      </trkpt>
      <trkpt lat="10.275084" lon="-67.680843">
        <ele>430.10</ele>
        <time>2022-10-26T11:28:52Z</time>
      </trkpt>
      <trkpt lat="10.275093" lon="-67.680889">
        <ele>430.10</ele>
        <time>2022-10-26T11:28:53Z</time>
      </trkpt>
      <trkpt lat="10.275103" lon="-67.680936">
        <ele>430.10</ele>
        <time>2022-10-26T11:28:54Z</time>
      </trkpt>
      <trkpt lat="10.275114" lon="-67.680983">
        <ele>430.10</ele>
        <time>2022-10-26T11:28:55Z</time>
      </trkpt>
      <trkpt lat="10.275125" lon="-67.681029">
        <ele>430.10</ele>
        <time>2022-10-26T11:28:56Z</time>
      </trkpt>
      <trkpt lat="10.275137" lon="-67.681078">
        <ele>430.10</ele>
        <time>2022-10-26T11:28:57Z</time>
      </trkpt>
      <trkpt lat="10.275149" lon="-67.681126">
        <ele>430.10</ele>
        <time>2022-10-26T11:28:58Z</time>
      </trkpt>
      <trkpt lat="10.275162" lon="-67.681171">
        <ele>430.20</ele>
        <time>2022-10-26T11:28:59Z</time>
      </trkpt>
      <trkpt lat="10.275175" lon="-67.681219">
        <ele>430.20</ele>
        <time>2022-10-26T11:29:00Z</time>
      </trkpt>
      <trkpt lat="10.275189" lon="-67.681270">
        <ele>430.20</ele>
        <time>2022-10-26T11:29:01Z</time>
      </trkpt>
      <trkpt lat="10.275200" lon="-67.681320">
        <ele>430.20</ele>
        <time>2022-10-26T11:29:02Z</time>
      </trkpt>
      <trkpt lat="10.275210" lon="-67.681370">
        <ele>430.20</ele>
        <time>2022-10-26T11:29:03Z</time>
      </trkpt>
      <trkpt lat="10.275219" lon="-67.681419">
        <ele>430.20</ele>
        <time>2022-10-26T11:29:04Z</time>
      </trkpt>
      <trkpt lat="10.275230" lon="-67.681467">
        <ele>430.20</ele>
        <time>2022-10-26T11:29:05Z</time>
      </trkpt>
      <trkpt lat="10.275243" lon="-67.681517">
        <ele>430.30</ele>
        <time>2022-10-26T11:29:06Z</time>
      </trkpt>
      <trkpt lat="10.275258" lon="-67.681567">
        <ele>430.30</ele>
        <time>2022-10-26T11:29:07Z</time>
      </trkpt>
      <trkpt lat="10.275271" lon="-67.681619">
        <ele>430.30</ele>
        <time>2022-10-26T11:29:08Z</time>
      </trkpt>
      <trkpt lat="10.275282" lon="-67.681672">
        <ele>430.30</ele>
        <time>2022-10-26T11:29:09Z</time>
      </trkpt>
      <trkpt lat="10.275292" lon="-67.681726">
        <ele>430.30</ele>
        <time>2022-10-26T11:29:10Z</time>
      </trkpt>
      <trkpt lat="10.275302" lon="-67.681775">
        <ele>430.30</ele>
        <time>2022-10-26T11:29:11Z</time>
      </trkpt>
      <trkpt lat="10.275314" lon="-67.681820">
        <ele>430.30</ele>
        <time>2022-10-26T11:29:12Z</time>
      </trkpt>
      <trkpt lat="10.275327" lon="-67.681864">
        <ele>430.30</ele>
        <time>2022-10-26T11:29:13Z</time>
      </trkpt>
      <trkpt lat="10.275343" lon="-67.681907">
        <ele>430.30</ele>
        <time>2022-10-26T11:29:14Z</time>
      </trkpt>
      <trkpt lat="10.275357" lon="-67.681955">
        <ele>430.30</ele>
        <time>2022-10-26T11:29:15Z</time>
      </trkpt>
      <trkpt lat="10.275373" lon="-67.682005">
        <ele>430.30</ele>
        <time>2022-10-26T11:29:16Z</time>
      </trkpt>
      <trkpt lat="10.275387" lon="-67.682059">
        <ele>430.30</ele>
        <time>2022-10-26T11:29:17Z</time>
      </trkpt>
      <trkpt lat="10.275401" lon="-67.682114">
        <ele>430.40</ele>
        <time>2022-10-26T11:29:18Z</time>
      </trkpt>
      <trkpt lat="10.275415" lon="-67.682167">
        <ele>430.40</ele>
        <time>2022-10-26T11:29:19Z</time>
      </trkpt>
      <trkpt lat="10.275430" lon="-67.682214">
        <ele>430.40</ele>
        <time>2022-10-26T11:29:20Z</time>
      </trkpt>
      <trkpt lat="10.275447" lon="-67.682261">
        <ele>430.50</ele>
        <time>2022-10-26T11:29:21Z</time>
      </trkpt>
      <trkpt lat="10.275463" lon="-67.682309">
        <ele>430.50</ele>
        <time>2022-10-26T11:29:22Z</time>
      </trkpt>
      <trkpt lat="10.275476" lon="-67.682360">
        <ele>430.50</ele>
        <time>2022-10-26T11:29:23Z</time>
      </trkpt>
      <trkpt lat="10.275491" lon="-67.682408">
        <ele>430.50</ele>
        <time>2022-10-26T11:29:24Z</time>
      </trkpt>
      <trkpt lat="10.275507" lon="-67.682456">
        <ele>430.50</ele>
        <time>2022-10-26T11:29:25Z</time>
      </trkpt>
      <trkpt lat="10.275524" lon="-67.682505">
        <ele>430.50</ele>
        <time>2022-10-26T11:29:26Z</time>
      </trkpt>
      <trkpt lat="10.275538" lon="-67.682555">
        <ele>430.60</ele>
        <time>2022-10-26T11:29:27Z</time>
      </trkpt>
      <trkpt lat="10.275552" lon="-67.682610">
        <ele>430.60</ele>
        <time>2022-10-26T11:29:28Z</time>
      </trkpt>
      <trkpt lat="10.275566" lon="-67.682666">
        <ele>430.60</ele>
        <time>2022-10-26T11:29:29Z</time>
      </trkpt>
      <trkpt lat="10.275580" lon="-67.682720">
        <ele>430.60</ele>
        <time>2022-10-26T11:29:30Z</time>
      </trkpt>
      <trkpt lat="10.275596" lon="-67.682775">
        <ele>430.60</ele>
        <time>2022-10-26T11:29:31Z</time>
      </trkpt>
      <trkpt lat="10.275612" lon="-67.682830">
        <ele>430.60</ele>
        <time>2022-10-26T11:29:32Z</time>
      </trkpt>
      <trkpt lat="10.275628" lon="-67.682880">
        <ele>430.60</ele>
        <time>2022-10-26T11:29:33Z</time>
      </trkpt>
      <trkpt lat="10.275642" lon="-67.682931">
        <ele>430.60</ele>
        <time>2022-10-26T11:29:34Z</time>
      </trkpt>
      <trkpt lat="10.275653" lon="-67.682981">
        <ele>430.60</ele>
        <time>2022-10-26T11:29:35Z</time>
      </trkpt>
      <trkpt lat="10.275664" lon="-67.683031">
        <ele>430.60</ele>
        <time>2022-10-26T11:29:36Z</time>
      </trkpt>
      <trkpt lat="10.275678" lon="-67.683079">
        <ele>430.60</ele>
        <time>2022-10-26T11:29:37Z</time>
      </trkpt>
      <trkpt lat="10.275691" lon="-67.683126">
        <ele>430.60</ele>
        <time>2022-10-26T11:29:38Z</time>
      </trkpt>
      <trkpt lat="10.275704" lon="-67.683178">
        <ele>430.60</ele>
        <time>2022-10-26T11:29:39Z</time>
      </trkpt>
      <trkpt lat="10.275716" lon="-67.683233">
        <ele>430.60</ele>
        <time>2022-10-26T11:29:40Z</time>
      </trkpt>
      <trkpt lat="10.275729" lon="-67.683287">
        <ele>430.60</ele>
        <time>2022-10-26T11:29:41Z</time>
      </trkpt>
      <trkpt lat="10.275742" lon="-67.683340">
        <ele>430.60</ele>
        <time>2022-10-26T11:29:42Z</time>
      </trkpt>
      <trkpt lat="10.275758" lon="-67.683393">
        <ele>430.70</ele>
        <time>2022-10-26T11:29:43Z</time>
      </trkpt>
      <trkpt lat="10.275773" lon="-67.683443">
        <ele>430.70</ele>
        <time>2022-10-26T11:29:44Z</time>
      </trkpt>
      <trkpt lat="10.275790" lon="-67.683492">
        <ele>430.70</ele>
        <time>2022-10-26T11:29:45Z</time>
      </trkpt>
      <trkpt lat="10.275807" lon="-67.683540">
        <ele>430.60</ele>
        <time>2022-10-26T11:29:46Z</time>
      </trkpt>
      <trkpt lat="10.275823" lon="-67.683594">
        <ele>430.60</ele>
        <time>2022-10-26T11:29:47Z</time>
      </trkpt>
      <trkpt lat="10.275839" lon="-67.683646">
        <ele>430.70</ele>
        <time>2022-10-26T11:29:48Z</time>
      </trkpt>
      <trkpt lat="10.275857" lon="-67.683698">
        <ele>430.70</ele>
        <time>2022-10-26T11:29:49Z</time>
      </trkpt>
      <trkpt lat="10.275874" lon="-67.683750">
        <ele>430.70</ele>
        <time>2022-10-26T11:29:50Z</time>
      </trkpt>
      <trkpt lat="10.275891" lon="-67.683800">
        <ele>430.70</ele>
        <time>2022-10-26T11:29:51Z</time>
      </trkpt>
      <trkpt lat="10.275906" lon="-67.683849">
        <ele>430.70</ele>
        <time>2022-10-26T11:29:52Z</time>
      </trkpt>
      <trkpt lat="10.275918" lon="-67.683897">
        <ele>430.80</ele>
        <time>2022-10-26T11:29:53Z</time>
      </trkpt>
      <trkpt lat="10.275929" lon="-67.683946">
        <ele>430.80</ele>
        <time>2022-10-26T11:29:54Z</time>
      </trkpt>
      <trkpt lat="10.275940" lon="-67.683993">
        <ele>430.80</ele>
        <time>2022-10-26T11:29:55Z</time>
      </trkpt>
      <trkpt lat="10.275953" lon="-67.684039">
        <ele>430.80</ele>
        <time>2022-10-26T11:29:56Z</time>
      </trkpt>
      <trkpt lat="10.275966" lon="-67.684082">
        <ele>430.80</ele>
        <time>2022-10-26T11:29:57Z</time>
      </trkpt>
      <trkpt lat="10.275979" lon="-67.684125">
        <ele>430.80</ele>
        <time>2022-10-26T11:29:58Z</time>
      </trkpt>
      <trkpt lat="10.275988" lon="-67.684166">
        <ele>430.90</ele>
        <time>2022-10-26T11:29:59Z</time>
      </trkpt>
      <trkpt lat="10.275996" lon="-67.684212">
        <ele>430.90</ele>
        <time>2022-10-26T11:30:00Z</time>
      </trkpt>
      <trkpt lat="10.276004" lon="-67.684256">
        <ele>430.90</ele>
        <time>2022-10-26T11:30:01Z</time>
      </trkpt>
      <trkpt lat="10.276013" lon="-67.684299">
        <ele>431.00</ele>
        <time>2022-10-26T11:30:02Z</time>
      </trkpt>
      <trkpt lat="10.276024" lon="-67.684343">
        <ele>431.00</ele>
        <time>2022-10-26T11:30:03Z</time>
      </trkpt>
      <trkpt lat="10.276036" lon="-67.684389">
        <ele>431.00</ele>
        <time>2022-10-26T11:30:04Z</time>
      </trkpt>
      <trkpt lat="10.276041" lon="-67.684441">
        <ele>431.10</ele>
        <time>2022-10-26T11:30:05Z</time>
      </trkpt>
      <trkpt lat="10.276047" lon="-67.684492">
        <ele>431.10</ele>
        <time>2022-10-26T11:30:06Z</time>
      </trkpt>
      <trkpt lat="10.276053" lon="-67.684544">
        <ele>431.20</ele>
        <time>2022-10-26T11:30:07Z</time>
      </trkpt>
      <trkpt lat="10.276063" lon="-67.684593">
        <ele>431.30</ele>
        <time>2022-10-26T11:30:08Z</time>
      </trkpt>
      <trkpt lat="10.276075" lon="-67.684641">
        <ele>431.30</ele>
        <time>2022-10-26T11:30:09Z</time>
      </trkpt>
      <trkpt lat="10.276087" lon="-67.684687">
        <ele>431.40</ele>
        <time>2022-10-26T11:30:10Z</time>
      </trkpt>
      <trkpt lat="10.276100" lon="-67.684735">
        <ele>431.50</ele>
        <time>2022-10-26T11:30:11Z</time>
      </trkpt>
      <trkpt lat="10.276117" lon="-67.684782">
        <ele>431.50</ele>
        <time>2022-10-26T11:30:12Z</time>
      </trkpt>
      <trkpt lat="10.276134" lon="-67.684830">
        <ele>431.60</ele>
        <time>2022-10-26T11:30:13Z</time>
      </trkpt>
      <trkpt lat="10.276150" lon="-67.684874">
        <ele>431.70</ele>
        <time>2022-10-26T11:30:14Z</time>
      </trkpt>
      <trkpt lat="10.276166" lon="-67.684919">
        <ele>431.80</ele>
        <time>2022-10-26T11:30:15Z</time>
      </trkpt>
      <trkpt lat="10.276179" lon="-67.684965">
        <ele>431.80</ele>
        <time>2022-10-26T11:30:16Z</time>
      </trkpt>
      <trkpt lat="10.276191" lon="-67.685015">
        <ele>431.80</ele>
        <time>2022-10-26T11:30:17Z</time>
      </trkpt>
      <trkpt lat="10.276203" lon="-67.685061">
        <ele>431.80</ele>
        <time>2022-10-26T11:30:18Z</time>
      </trkpt>
      <trkpt lat="10.276212" lon="-67.685108">
        <ele>431.80</ele>
        <time>2022-10-26T11:30:19Z</time>
      </trkpt>
      <trkpt lat="10.276222" lon="-67.685154">
        <ele>431.80</ele>
        <time>2022-10-26T11:30:20Z</time>
      </trkpt>
      <trkpt lat="10.276233" lon="-67.685199">
        <ele>431.80</ele>
        <time>2022-10-26T11:30:21Z</time>
      </trkpt>
      <trkpt lat="10.276245" lon="-67.685244">
        <ele>431.90</ele>
        <time>2022-10-26T11:30:22Z</time>
      </trkpt>
      <trkpt lat="10.276260" lon="-67.685290">
        <ele>431.90</ele>
        <time>2022-10-26T11:30:23Z</time>
      </trkpt>
      <trkpt lat="10.276272" lon="-67.685335">
        <ele>431.90</ele>
        <time>2022-10-26T11:30:24Z</time>
      </trkpt>
      <trkpt lat="10.276284" lon="-67.685379">
        <ele>431.90</ele>
        <time>2022-10-26T11:30:25Z</time>
      </trkpt>
      <trkpt lat="10.276294" lon="-67.685422">
        <ele>431.90</ele>
        <time>2022-10-26T11:30:26Z</time>
      </trkpt>
      <trkpt lat="10.276305" lon="-67.685464">
        <ele>431.90</ele>
        <time>2022-10-26T11:30:27Z</time>
      </trkpt>
      <trkpt lat="10.276317" lon="-67.685505">
        <ele>431.90</ele>
        <time>2022-10-26T11:30:28Z</time>
      </trkpt>
      <trkpt lat="10.276328" lon="-67.685547">
        <ele>431.90</ele>
        <time>2022-10-26T11:30:29Z</time>
      </trkpt>
      <trkpt lat="10.276340" lon="-67.685587">
        <ele>431.90</ele>
        <time>2022-10-26T11:30:30Z</time>
      </trkpt>
      <trkpt lat="10.276351" lon="-67.685624">
        <ele>431.90</ele>
        <time>2022-10-26T11:30:31Z</time>
      </trkpt>
      <trkpt lat="10.276364" lon="-67.685664">
        <ele>432.00</ele>
        <time>2022-10-26T11:30:32Z</time>
      </trkpt>
      <trkpt lat="10.276379" lon="-67.685706">
        <ele>432.00</ele>
        <time>2022-10-26T11:30:33Z</time>
      </trkpt>
      <trkpt lat="10.276393" lon="-67.685752">
        <ele>432.10</ele>
        <time>2022-10-26T11:30:34Z</time>
      </trkpt>
      <trkpt lat="10.276407" lon="-67.685797">
        <ele>432.10</ele>
        <time>2022-10-26T11:30:35Z</time>
      </trkpt>
      <trkpt lat="10.276418" lon="-67.685847">
        <ele>432.20</ele>
        <time>2022-10-26T11:30:36Z</time>
      </trkpt>
      <trkpt lat="10.276429" lon="-67.685895">
        <ele>432.20</ele>
        <time>2022-10-26T11:30:37Z</time>
      </trkpt>
      <trkpt lat="10.276440" lon="-67.685942">
        <ele>432.30</ele>
        <time>2022-10-26T11:30:38Z</time>
      </trkpt>
      <trkpt lat="10.276451" lon="-67.685992">
        <ele>432.30</ele>
        <time>2022-10-26T11:30:39Z</time>
      </trkpt>
      <trkpt lat="10.276465" lon="-67.686040">
        <ele>432.30</ele>
        <time>2022-10-26T11:30:40Z</time>
      </trkpt>
      <trkpt lat="10.276480" lon="-67.686085">
        <ele>432.30</ele>
        <time>2022-10-26T11:30:41Z</time>
      </trkpt>
      <trkpt lat="10.276493" lon="-67.686132">
        <ele>432.30</ele>
        <time>2022-10-26T11:30:42Z</time>
      </trkpt>
      <trkpt lat="10.276506" lon="-67.686182">
        <ele>432.30</ele>
        <time>2022-10-26T11:30:43Z</time>
      </trkpt>
      <trkpt lat="10.276511" lon="-67.686234">
        <ele>432.20</ele>
        <time>2022-10-26T11:30:44Z</time>
      </trkpt>
      <trkpt lat="10.276519" lon="-67.686287">
        <ele>432.20</ele>
        <time>2022-10-26T11:30:45Z</time>
      </trkpt>
      <trkpt lat="10.276530" lon="-67.686334">
        <ele>432.20</ele>
        <time>2022-10-26T11:30:46Z</time>
      </trkpt>
      <trkpt lat="10.276543" lon="-67.686377">
        <ele>432.20</ele>
        <time>2022-10-26T11:30:47Z</time>
      </trkpt>
      <trkpt lat="10.276553" lon="-67.686419">
        <ele>432.20</ele>
        <time>2022-10-26T11:30:48Z</time>
      </trkpt>
      <trkpt lat="10.276565" lon="-67.686461">
        <ele>432.20</ele>
        <time>2022-10-26T11:30:49Z</time>
      </trkpt>
      <trkpt lat="10.276575" lon="-67.686505">
        <ele>432.20</ele>
        <time>2022-10-26T11:30:50Z</time>
      </trkpt>
      <trkpt lat="10.276585" lon="-67.686548">
        <ele>432.30</ele>
        <time>2022-10-26T11:30:51Z</time>
      </trkpt>
      <trkpt lat="10.276597" lon="-67.686590">
        <ele>432.30</ele>
        <time>2022-10-26T11:30:52Z</time>
      </trkpt>
      <trkpt lat="10.276613" lon="-67.686631">
        <ele>432.30</ele>
        <time>2022-10-26T11:30:53Z</time>
      </trkpt>
      <trkpt lat="10.276629" lon="-67.686676">
        <ele>432.30</ele>
        <time>2022-10-26T11:30:54Z</time>
      </trkpt>
      <trkpt lat="10.276642" lon="-67.686722">
        <ele>432.30</ele>
        <time>2022-10-26T11:30:55Z</time>
      </trkpt>
      <trkpt lat="10.276653" lon="-67.686769">
        <ele>432.30</ele>
        <time>2022-10-26T11:30:56Z</time>
      </trkpt>
      <trkpt lat="10.276667" lon="-67.686816">
        <ele>432.30</ele>
        <time>2022-10-26T11:30:57Z</time>
      </trkpt>
      <trkpt lat="10.276678" lon="-67.686867">
        <ele>432.30</ele>
        <time>2022-10-26T11:30:58Z</time>
      </trkpt>
      <trkpt lat="10.276688" lon="-67.686918">
        <ele>432.30</ele>
        <time>2022-10-26T11:30:59Z</time>
      </trkpt>
      <trkpt lat="10.276698" lon="-67.686968">
        <ele>432.30</ele>
        <time>2022-10-26T11:31:00Z</time>
      </trkpt>
      <trkpt lat="10.276712" lon="-67.687012">
        <ele>432.30</ele>
        <time>2022-10-26T11:31:01Z</time>
      </trkpt>
      <trkpt lat="10.276734" lon="-67.687054">
        <ele>432.30</ele>
        <time>2022-10-26T11:31:02Z</time>
      </trkpt>
      <trkpt lat="10.276754" lon="-67.687090">
        <ele>432.30</ele>
        <time>2022-10-26T11:31:03Z</time>
      </trkpt>
      <trkpt lat="10.276776" lon="-67.687128">
        <ele>432.30</ele>
        <time>2022-10-26T11:31:04Z</time>
      </trkpt>
      <trkpt lat="10.276794" lon="-67.687166">
        <ele>432.30</ele>
        <time>2022-10-26T11:31:05Z</time>
      </trkpt>
      <trkpt lat="10.276807" lon="-67.687205">
        <ele>432.30</ele>
        <time>2022-10-26T11:31:06Z</time>
      </trkpt>
      <trkpt lat="10.276819" lon="-67.687246">
        <ele>432.30</ele>
        <time>2022-10-26T11:31:07Z</time>
      </trkpt>
      <trkpt lat="10.276830" lon="-67.687291">
        <ele>432.20</ele>
        <time>2022-10-26T11:31:08Z</time>
      </trkpt>
      <trkpt lat="10.276840" lon="-67.687335">
        <ele>432.20</ele>
        <time>2022-10-26T11:31:09Z</time>
      </trkpt>
      <trkpt lat="10.276847" lon="-67.687371">
        <ele>432.20</ele>
        <time>2022-10-26T11:31:10Z</time>
      </trkpt>
      <trkpt lat="10.276857" lon="-67.687403">
        <ele>432.20</ele>
        <time>2022-10-26T11:31:11Z</time>
      </trkpt>
      <trkpt lat="10.276863" lon="-67.687439">
        <ele>432.20</ele>
        <time>2022-10-26T11:31:12Z</time>
      </trkpt>
      <trkpt lat="10.276874" lon="-67.687475">
        <ele>432.20</ele>
        <time>2022-10-26T11:31:13Z</time>
      </trkpt>
      <trkpt lat="10.276885" lon="-67.687515">
        <ele>432.10</ele>
        <time>2022-10-26T11:31:14Z</time>
      </trkpt>
      <trkpt lat="10.276896" lon="-67.687558">
        <ele>432.10</ele>
        <time>2022-10-26T11:31:15Z</time>
      </trkpt>
      <trkpt lat="10.276907" lon="-67.687602">
        <ele>432.10</ele>
        <time>2022-10-26T11:31:16Z</time>
      </trkpt>
      <trkpt lat="10.276917" lon="-67.687648">
        <ele>432.10</ele>
        <time>2022-10-26T11:31:17Z</time>
      </trkpt>
      <trkpt lat="10.276930" lon="-67.687693">
        <ele>432.10</ele>
        <time>2022-10-26T11:31:18Z</time>
      </trkpt>
      <trkpt lat="10.276947" lon="-67.687738">
        <ele>432.10</ele>
        <time>2022-10-26T11:31:19Z</time>
      </trkpt>
      <trkpt lat="10.276962" lon="-67.687781">
        <ele>432.10</ele>
        <time>2022-10-26T11:31:20Z</time>
      </trkpt>
      <trkpt lat="10.276980" lon="-67.687827">
        <ele>432.10</ele>
        <time>2022-10-26T11:31:21Z</time>
      </trkpt>
      <trkpt lat="10.276999" lon="-67.687876">
        <ele>432.10</ele>
        <time>2022-10-26T11:31:22Z</time>
      </trkpt>
      <trkpt lat="10.277013" lon="-67.687928">
        <ele>432.00</ele>
        <time>2022-10-26T11:31:23Z</time>
      </trkpt>
      <trkpt lat="10.277027" lon="-67.687980">
        <ele>432.00</ele>
        <time>2022-10-26T11:31:24Z</time>
      </trkpt>
      <trkpt lat="10.277039" lon="-67.688031">
        <ele>431.90</ele>
        <time>2022-10-26T11:31:25Z</time>
      </trkpt>
      <trkpt lat="10.277050" lon="-67.688081">
        <ele>431.90</ele>
        <time>2022-10-26T11:31:26Z</time>
      </trkpt>
      <trkpt lat="10.277063" lon="-67.688131">
        <ele>431.90</ele>
        <time>2022-10-26T11:31:27Z</time>
      </trkpt>
      <trkpt lat="10.277073" lon="-67.688178">
        <ele>431.80</ele>
        <time>2022-10-26T11:31:28Z</time>
      </trkpt>
      <trkpt lat="10.277081" lon="-67.688231">
        <ele>431.80</ele>
        <time>2022-10-26T11:31:29Z</time>
      </trkpt>
      <trkpt lat="10.277095" lon="-67.688284">
        <ele>431.80</ele>
        <time>2022-10-26T11:31:30Z</time>
      </trkpt>
      <trkpt lat="10.277106" lon="-67.688337">
        <ele>431.70</ele>
        <time>2022-10-26T11:31:31Z</time>
      </trkpt>
      <trkpt lat="10.277118" lon="-67.688384">
        <ele>431.70</ele>
        <time>2022-10-26T11:31:32Z</time>
      </trkpt>
      <trkpt lat="10.277129" lon="-67.688433">
        <ele>431.70</ele>
        <time>2022-10-26T11:31:33Z</time>
      </trkpt>
      <trkpt lat="10.277140" lon="-67.688481">
        <ele>431.70</ele>
        <time>2022-10-26T11:31:34Z</time>
      </trkpt>
      <trkpt lat="10.277153" lon="-67.688526">
        <ele>431.70</ele>
        <time>2022-10-26T11:31:35Z</time>
      </trkpt>
      <trkpt lat="10.277169" lon="-67.688570">
        <ele>431.60</ele>
        <time>2022-10-26T11:31:36Z</time>
      </trkpt>
      <trkpt lat="10.277187" lon="-67.688614">
        <ele>431.60</ele>
        <time>2022-10-26T11:31:37Z</time>
      </trkpt>
      <trkpt lat="10.277205" lon="-67.688661">
        <ele>431.60</ele>
        <time>2022-10-26T11:31:38Z</time>
      </trkpt>
      <trkpt lat="10.277217" lon="-67.688712">
        <ele>431.50</ele>
        <time>2022-10-26T11:31:39Z</time>
      </trkpt>
      <trkpt lat="10.277227" lon="-67.688766">
        <ele>431.50</ele>
        <time>2022-10-26T11:31:40Z</time>
      </trkpt>
      <trkpt lat="10.277240" lon="-67.688816">
        <ele>431.40</ele>
        <time>2022-10-26T11:31:41Z</time>
      </trkpt>
      <trkpt lat="10.277252" lon="-67.688864">
        <ele>431.40</ele>
        <time>2022-10-26T11:31:42Z</time>
      </trkpt>
      <trkpt lat="10.277261" lon="-67.688910">
        <ele>431.40</ele>
        <time>2022-10-26T11:31:43Z</time>
      </trkpt>
      <trkpt lat="10.277272" lon="-67.688953">
        <ele>431.40</ele>
        <time>2022-10-26T11:31:44Z</time>
      </trkpt>
      <trkpt lat="10.277282" lon="-67.688999">
        <ele>431.40</ele>
        <time>2022-10-26T11:31:45Z</time>
      </trkpt>
      <trkpt lat="10.277292" lon="-67.689047">
        <ele>431.30</ele>
        <time>2022-10-26T11:31:46Z</time>
      </trkpt>
      <trkpt lat="10.277300" lon="-67.689095">
        <ele>431.30</ele>
        <time>2022-10-26T11:31:47Z</time>
      </trkpt>
      <trkpt lat="10.277307" lon="-67.689143">
        <ele>431.30</ele>
        <time>2022-10-26T11:31:48Z</time>
      </trkpt>
      <trkpt lat="10.277317" lon="-67.689191">
        <ele>431.20</ele>
        <time>2022-10-26T11:31:49Z</time>
      </trkpt>
      <trkpt lat="10.277336" lon="-67.689240">
        <ele>431.20</ele>
        <time>2022-10-26T11:31:50Z</time>
      </trkpt>
      <trkpt lat="10.277358" lon="-67.689286">
        <ele>431.10</ele>
        <time>2022-10-26T11:31:51Z</time>
      </trkpt>
      <trkpt lat="10.277376" lon="-67.689328">
        <ele>431.10</ele>
        <time>2022-10-26T11:31:52Z</time>
      </trkpt>
      <trkpt lat="10.277391" lon="-67.689369">
        <ele>431.00</ele>
        <time>2022-10-26T11:31:53Z</time>
      </trkpt>
      <trkpt lat="10.277405" lon="-67.689416">
        <ele>431.00</ele>
        <time>2022-10-26T11:31:54Z</time>
      </trkpt>
      <trkpt lat="10.277418" lon="-67.689464">
        <ele>431.00</ele>
        <time>2022-10-26T11:31:55Z</time>
      </trkpt>
      <trkpt lat="10.277433" lon="-67.689518">
        <ele>431.00</ele>
        <time>2022-10-26T11:31:56Z</time>
      </trkpt>
      <trkpt lat="10.277452" lon="-67.689571">
        <ele>430.90</ele>
        <time>2022-10-26T11:31:57Z</time>
      </trkpt>
      <trkpt lat="10.277471" lon="-67.689625">
        <ele>430.90</ele>
        <time>2022-10-26T11:31:58Z</time>
      </trkpt>
      <trkpt lat="10.277487" lon="-67.689677">
        <ele>430.90</ele>
        <time>2022-10-26T11:31:59Z</time>
      </trkpt>
      <trkpt lat="10.277501" lon="-67.689727">
        <ele>430.90</ele>
        <time>2022-10-26T11:32:00Z</time>
      </trkpt>
      <trkpt lat="10.277514" lon="-67.689776">
        <ele>430.90</ele>
        <time>2022-10-26T11:32:01Z</time>
      </trkpt>
      <trkpt lat="10.277527" lon="-67.689823">
        <ele>430.90</ele>
        <time>2022-10-26T11:32:02Z</time>
      </trkpt>
      <trkpt lat="10.277541" lon="-67.689871">
        <ele>430.90</ele>
        <time>2022-10-26T11:32:03Z</time>
      </trkpt>
      <trkpt lat="10.277553" lon="-67.689919">
        <ele>430.90</ele>
        <time>2022-10-26T11:32:04Z</time>
      </trkpt>
      <trkpt lat="10.277568" lon="-67.689966">
        <ele>430.90</ele>
        <time>2022-10-26T11:32:05Z</time>
      </trkpt>
      <trkpt lat="10.277589" lon="-67.690012">
        <ele>430.90</ele>
        <time>2022-10-26T11:32:06Z</time>
      </trkpt>
      <trkpt lat="10.277604" lon="-67.690060">
        <ele>430.90</ele>
        <time>2022-10-26T11:32:07Z</time>
      </trkpt>
      <trkpt lat="10.277617" lon="-67.690107">
        <ele>430.80</ele>
        <time>2022-10-26T11:32:08Z</time>
      </trkpt>
      <trkpt lat="10.277627" lon="-67.690155">
        <ele>430.80</ele>
        <time>2022-10-26T11:32:09Z</time>
      </trkpt>
      <trkpt lat="10.277637" lon="-67.690202">
        <ele>430.80</ele>
        <time>2022-10-26T11:32:10Z</time>
      </trkpt>
      <trkpt lat="10.277652" lon="-67.690248">
        <ele>430.80</ele>
        <time>2022-10-26T11:32:11Z</time>
      </trkpt>
      <trkpt lat="10.277661" lon="-67.690299">
        <ele>430.70</ele>
        <time>2022-10-26T11:32:12Z</time>
      </trkpt>
      <trkpt lat="10.277672" lon="-67.690354">
        <ele>430.60</ele>
        <time>2022-10-26T11:32:13Z</time>
      </trkpt>
      <trkpt lat="10.277678" lon="-67.690406">
        <ele>430.60</ele>
        <time>2022-10-26T11:32:14Z</time>
      </trkpt>
      <trkpt lat="10.277683" lon="-67.690452">
        <ele>430.50</ele>
        <time>2022-10-26T11:32:15Z</time>
      </trkpt>
      <trkpt lat="10.277692" lon="-67.690500">
        <ele>430.50</ele>
        <time>2022-10-26T11:32:16Z</time>
      </trkpt>
      <trkpt lat="10.277703" lon="-67.690549">
        <ele>430.40</ele>
        <time>2022-10-26T11:32:17Z</time>
      </trkpt>
      <trkpt lat="10.277715" lon="-67.690598">
        <ele>430.40</ele>
        <time>2022-10-26T11:32:18Z</time>
      </trkpt>
      <trkpt lat="10.277730" lon="-67.690646">
        <ele>430.40</ele>
        <time>2022-10-26T11:32:19Z</time>
      </trkpt>
      <trkpt lat="10.277745" lon="-67.690696">
        <ele>430.30</ele>
        <time>2022-10-26T11:32:20Z</time>
      </trkpt>
      <trkpt lat="10.277760" lon="-67.690747">
        <ele>430.30</ele>
        <time>2022-10-26T11:32:21Z</time>
      </trkpt>
      <trkpt lat="10.277773" lon="-67.690796">
        <ele>430.30</ele>
        <time>2022-10-26T11:32:22Z</time>
      </trkpt>
      <trkpt lat="10.277785" lon="-67.690845">
        <ele>430.30</ele>
        <time>2022-10-26T11:32:23Z</time>
      </trkpt>
      <trkpt lat="10.277797" lon="-67.690895">
        <ele>430.30</ele>
        <time>2022-10-26T11:32:24Z</time>
      </trkpt>
      <trkpt lat="10.277816" lon="-67.690942">
        <ele>430.20</ele>
        <time>2022-10-26T11:32:25Z</time>
      </trkpt>
      <trkpt lat="10.277839" lon="-67.690976">
        <ele>430.20</ele>
        <time>2022-10-26T11:32:26Z</time>
      </trkpt>
      <trkpt lat="10.277852" lon="-67.691012">
        <ele>430.20</ele>
        <time>2022-10-26T11:32:27Z</time>
      </trkpt>
      <trkpt lat="10.277866" lon="-67.691042">
        <ele>430.20</ele>
        <time>2022-10-26T11:32:28Z</time>
      </trkpt>
      <trkpt lat="10.277874" lon="-67.691073">
        <ele>430.20</ele>
        <time>2022-10-26T11:32:29Z</time>
      </trkpt>
      <trkpt lat="10.277884" lon="-67.691117">
        <ele>430.20</ele>
        <time>2022-10-26T11:32:30Z</time>
      </trkpt>
      <trkpt lat="10.277891" lon="-67.691163">
        <ele>430.10</ele>
        <time>2022-10-26T11:32:31Z</time>
      </trkpt>
      <trkpt lat="10.277897" lon="-67.691210">
        <ele>430.10</ele>
        <time>2022-10-26T11:32:32Z</time>
      </trkpt>
      <trkpt lat="10.277900" lon="-67.691254">
        <ele>430.10</ele>
        <time>2022-10-26T11:32:33Z</time>
      </trkpt>
      <trkpt lat="10.277903" lon="-67.691296">
        <ele>430.10</ele>
        <time>2022-10-26T11:32:34Z</time>
      </trkpt>
      <trkpt lat="10.277919" lon="-67.691322">
        <ele>430.10</ele>
        <time>2022-10-26T11:32:35Z</time>
      </trkpt>
      <trkpt lat="10.277937" lon="-67.691359">
        <ele>430.10</ele>
        <time>2022-10-26T11:32:36Z</time>
      </trkpt>
      <trkpt lat="10.277954" lon="-67.691400">
        <ele>430.10</ele>
        <time>2022-10-26T11:32:37Z</time>
      </trkpt>
      <trkpt lat="10.277971" lon="-67.691444">
        <ele>430.10</ele>
        <time>2022-10-26T11:32:38Z</time>
      </trkpt>
      <trkpt lat="10.277987" lon="-67.691492">
        <ele>430.10</ele>
        <time>2022-10-26T11:32:39Z</time>
      </trkpt>
      <trkpt lat="10.278001" lon="-67.691538">
        <ele>430.10</ele>
        <time>2022-10-26T11:32:40Z</time>
      </trkpt>
      <trkpt lat="10.278014" lon="-67.691583">
        <ele>430.10</ele>
        <time>2022-10-26T11:32:41Z</time>
      </trkpt>
      <trkpt lat="10.278025" lon="-67.691629">
        <ele>430.10</ele>
        <time>2022-10-26T11:32:42Z</time>
      </trkpt>
      <trkpt lat="10.278028" lon="-67.691671">
        <ele>430.10</ele>
        <time>2022-10-26T11:32:43Z</time>
      </trkpt>
      <trkpt lat="10.278031" lon="-67.691716">
        <ele>430.10</ele>
        <time>2022-10-26T11:32:44Z</time>
      </trkpt>
      <trkpt lat="10.278037" lon="-67.691759">
        <ele>430.10</ele>
        <time>2022-10-26T11:32:45Z</time>
      </trkpt>
      <trkpt lat="10.278046" lon="-67.691800">
        <ele>430.00</ele>
        <time>2022-10-26T11:32:46Z</time>
      </trkpt>
      <trkpt lat="10.278056" lon="-67.691845">
        <ele>430.00</ele>
        <time>2022-10-26T11:32:47Z</time>
      </trkpt>
      <trkpt lat="10.278069" lon="-67.691888">
        <ele>430.00</ele>
        <time>2022-10-26T11:32:48Z</time>
      </trkpt>
      <trkpt lat="10.278083" lon="-67.691931">
        <ele>430.00</ele>
        <time>2022-10-26T11:32:49Z</time>
      </trkpt>
      <trkpt lat="10.278096" lon="-67.691977">
        <ele>429.90</ele>
        <time>2022-10-26T11:32:50Z</time>
      </trkpt>
      <trkpt lat="10.278111" lon="-67.692026">
        <ele>429.90</ele>
        <time>2022-10-26T11:32:51Z</time>
      </trkpt>
      <trkpt lat="10.278128" lon="-67.692075">
        <ele>429.90</ele>
        <time>2022-10-26T11:32:52Z</time>
      </trkpt>
      <trkpt lat="10.278147" lon="-67.692118">
        <ele>429.90</ele>
        <time>2022-10-26T11:32:53Z</time>
      </trkpt>
      <trkpt lat="10.278164" lon="-67.692164">
        <ele>429.90</ele>
        <time>2022-10-26T11:32:54Z</time>
      </trkpt>
      <trkpt lat="10.278177" lon="-67.692211">
        <ele>429.90</ele>
        <time>2022-10-26T11:32:55Z</time>
      </trkpt>
      <trkpt lat="10.278190" lon="-67.692258">
        <ele>429.90</ele>
        <time>2022-10-26T11:32:56Z</time>
      </trkpt>
      <trkpt lat="10.278206" lon="-67.692301">
        <ele>429.90</ele>
        <time>2022-10-26T11:32:57Z</time>
      </trkpt>
      <trkpt lat="10.278228" lon="-67.692350">
        <ele>429.90</ele>
        <time>2022-10-26T11:32:58Z</time>
      </trkpt>
      <trkpt lat="10.278252" lon="-67.692405">
        <ele>429.90</ele>
        <time>2022-10-26T11:32:59Z</time>
      </trkpt>
      <trkpt lat="10.278271" lon="-67.692453">
        <ele>429.90</ele>
        <time>2022-10-26T11:33:00Z</time>
      </trkpt>
      <trkpt lat="10.278287" lon="-67.692502">
        <ele>429.80</ele>
        <time>2022-10-26T11:33:01Z</time>
      </trkpt>
      <trkpt lat="10.278291" lon="-67.692551">
        <ele>429.80</ele>
        <time>2022-10-26T11:33:02Z</time>
      </trkpt>
      <trkpt lat="10.278300" lon="-67.692598">
        <ele>429.80</ele>
        <time>2022-10-26T11:33:03Z</time>
      </trkpt>
      <trkpt lat="10.278315" lon="-67.692650">
        <ele>429.80</ele>
        <time>2022-10-26T11:33:04Z</time>
      </trkpt>
      <trkpt lat="10.278334" lon="-67.692703">
        <ele>429.80</ele>
        <time>2022-10-26T11:33:05Z</time>
      </trkpt>
      <trkpt lat="10.278350" lon="-67.692758">
        <ele>429.80</ele>
        <time>2022-10-26T11:33:06Z</time>
      </trkpt>
      <trkpt lat="10.278363" lon="-67.692819">
        <ele>429.80</ele>
        <time>2022-10-26T11:33:07Z</time>
      </trkpt>
      <trkpt lat="10.278368" lon="-67.692876">
        <ele>429.80</ele>
        <time>2022-10-26T11:33:08Z</time>
      </trkpt>
      <trkpt lat="10.278377" lon="-67.692929">
        <ele>429.80</ele>
        <time>2022-10-26T11:33:09Z</time>
      </trkpt>
      <trkpt lat="10.278389" lon="-67.692970">
        <ele>429.80</ele>
        <time>2022-10-26T11:33:10Z</time>
      </trkpt>
      <trkpt lat="10.278403" lon="-67.693008">
        <ele>429.80</ele>
        <time>2022-10-26T11:33:11Z</time>
      </trkpt>
      <trkpt lat="10.278416" lon="-67.693044">
        <ele>429.70</ele>
        <time>2022-10-26T11:33:12Z</time>
      </trkpt>
      <trkpt lat="10.278428" lon="-67.693080">
        <ele>429.70</ele>
        <time>2022-10-26T11:33:13Z</time>
      </trkpt>
      <trkpt lat="10.278440" lon="-67.693118">
        <ele>429.70</ele>
        <time>2022-10-26T11:33:14Z</time>
      </trkpt>
      <trkpt lat="10.278453" lon="-67.693158">
        <ele>429.70</ele>
        <time>2022-10-26T11:33:15Z</time>
      </trkpt>
      <trkpt lat="10.278473" lon="-67.693196">
        <ele>429.70</ele>
        <time>2022-10-26T11:33:16Z</time>
      </trkpt>
      <trkpt lat="10.278495" lon="-67.693234">
        <ele>429.70</ele>
        <time>2022-10-26T11:33:17Z</time>
      </trkpt>
      <trkpt lat="10.278513" lon="-67.693275">
        <ele>429.60</ele>
        <time>2022-10-26T11:33:18Z</time>
      </trkpt>
      <trkpt lat="10.278527" lon="-67.693318">
        <ele>429.60</ele>
        <time>2022-10-26T11:33:19Z</time>
      </trkpt>
      <trkpt lat="10.278538" lon="-67.693367">
        <ele>429.60</ele>
        <time>2022-10-26T11:33:20Z</time>
      </trkpt>
      <trkpt lat="10.278541" lon="-67.693419">
        <ele>429.60</ele>
        <time>2022-10-26T11:33:21Z</time>
      </trkpt>
      <trkpt lat="10.278545" lon="-67.693471">
        <ele>429.60</ele>
        <time>2022-10-26T11:33:22Z</time>
      </trkpt>
      <trkpt lat="10.278549" lon="-67.693521">
        <ele>429.60</ele>
        <time>2022-10-26T11:33:23Z</time>
      </trkpt>
      <trkpt lat="10.278557" lon="-67.693571">
        <ele>429.50</ele>
        <time>2022-10-26T11:33:24Z</time>
      </trkpt>
      <trkpt lat="10.278567" lon="-67.693622">
        <ele>429.50</ele>
        <time>2022-10-26T11:33:25Z</time>
      </trkpt>
      <trkpt lat="10.278575" lon="-67.693678">
        <ele>429.50</ele>
        <time>2022-10-26T11:33:26Z</time>
      </trkpt>
      <trkpt lat="10.278571" lon="-67.693737">
        <ele>429.50</ele>
        <time>2022-10-26T11:33:27Z</time>
      </trkpt>
      <trkpt lat="10.278560" lon="-67.693792">
        <ele>429.50</ele>
        <time>2022-10-26T11:33:28Z</time>
      </trkpt>
      <trkpt lat="10.278551" lon="-67.693837">
        <ele>429.50</ele>
        <time>2022-10-26T11:33:29Z</time>
      </trkpt>
      <trkpt lat="10.278550" lon="-67.693885">
        <ele>429.50</ele>
        <time>2022-10-26T11:33:30Z</time>
      </trkpt>
      <trkpt lat="10.278556" lon="-67.693934">
        <ele>429.50</ele>
        <time>2022-10-26T11:33:31Z</time>
      </trkpt>
      <trkpt lat="10.278561" lon="-67.693979">
        <ele>429.50</ele>
        <time>2022-10-26T11:33:32Z</time>
      </trkpt>
      <trkpt lat="10.278572" lon="-67.694029">
        <ele>429.50</ele>
        <time>2022-10-26T11:33:33Z</time>
      </trkpt>
      <trkpt lat="10.278587" lon="-67.694077">
        <ele>429.50</ele>
        <time>2022-10-26T11:33:34Z</time>
      </trkpt>
      <trkpt lat="10.278606" lon="-67.694124">
        <ele>429.40</ele>
        <time>2022-10-26T11:33:35Z</time>
      </trkpt>
      <trkpt lat="10.278623" lon="-67.694171">
        <ele>429.40</ele>
        <time>2022-10-26T11:33:36Z</time>
      </trkpt>
      <trkpt lat="10.278640" lon="-67.694216">
        <ele>429.40</ele>
        <time>2022-10-26T11:33:37Z</time>
      </trkpt>
      <trkpt lat="10.278655" lon="-67.694259">
        <ele>429.40</ele>
        <time>2022-10-26T11:33:38Z</time>
      </trkpt>
      <trkpt lat="10.278670" lon="-67.694304">
        <ele>429.40</ele>
        <time>2022-10-26T11:33:39Z</time>
      </trkpt>
      <trkpt lat="10.278682" lon="-67.694351">
        <ele>429.40</ele>
        <time>2022-10-26T11:33:40Z</time>
      </trkpt>
      <trkpt lat="10.278692" lon="-67.694399">
        <ele>429.40</ele>
        <time>2022-10-26T11:33:41Z</time>
      </trkpt>
      <trkpt lat="10.278704" lon="-67.694445">
        <ele>429.40</ele>
        <time>2022-10-26T11:33:42Z</time>
      </trkpt>
      <trkpt lat="10.278709" lon="-67.694485">
        <ele>429.40</ele>
        <time>2022-10-26T11:33:43Z</time>
      </trkpt>
      <trkpt lat="10.278717" lon="-67.694527">
        <ele>429.40</ele>
        <time>2022-10-26T11:33:44Z</time>
      </trkpt>
      <trkpt lat="10.278729" lon="-67.694567">
        <ele>429.40</ele>
        <time>2022-10-26T11:33:45Z</time>
      </trkpt>
      <trkpt lat="10.278741" lon="-67.694606">
        <ele>429.40</ele>
        <time>2022-10-26T11:33:46Z</time>
      </trkpt>
      <trkpt lat="10.278751" lon="-67.694641">
        <ele>429.40</ele>
        <time>2022-10-26T11:33:47Z</time>
      </trkpt>
      <trkpt lat="10.278763" lon="-67.694683">
        <ele>429.40</ele>
        <time>2022-10-26T11:33:48Z</time>
      </trkpt>
      <trkpt lat="10.278773" lon="-67.694736">
        <ele>429.40</ele>
        <time>2022-10-26T11:33:49Z</time>
      </trkpt>
      <trkpt lat="10.278786" lon="-67.694787">
        <ele>429.40</ele>
        <time>2022-10-26T11:33:50Z</time>
      </trkpt>
      <trkpt lat="10.278800" lon="-67.694832">
        <ele>429.40</ele>
        <time>2022-10-26T11:33:51Z</time>
      </trkpt>
      <trkpt lat="10.278808" lon="-67.694878">
        <ele>429.40</ele>
        <time>2022-10-26T11:33:52Z</time>
      </trkpt>
      <trkpt lat="10.278818" lon="-67.694922">
        <ele>429.50</ele>
        <time>2022-10-26T11:33:53Z</time>
      </trkpt>
      <trkpt lat="10.278830" lon="-67.694968">
        <ele>429.50</ele>
        <time>2022-10-26T11:33:54Z</time>
      </trkpt>
      <trkpt lat="10.278844" lon="-67.695016">
        <ele>429.50</ele>
        <time>2022-10-26T11:33:55Z</time>
      </trkpt>
      <trkpt lat="10.278859" lon="-67.695061">
        <ele>429.50</ele>
        <time>2022-10-26T11:33:56Z</time>
      </trkpt>
      <trkpt lat="10.278873" lon="-67.695108">
        <ele>429.50</ele>
        <time>2022-10-26T11:33:57Z</time>
      </trkpt>
      <trkpt lat="10.278884" lon="-67.695150">
        <ele>429.50</ele>
        <time>2022-10-26T11:33:58Z</time>
      </trkpt>
      <trkpt lat="10.278894" lon="-67.695193">
        <ele>429.50</ele>
        <time>2022-10-26T11:33:59Z</time>
      </trkpt>
      <trkpt lat="10.278906" lon="-67.695239">
        <ele>429.50</ele>
        <time>2022-10-26T11:34:00Z</time>
      </trkpt>
      <trkpt lat="10.278919" lon="-67.695289">
        <ele>429.50</ele>
        <time>2022-10-26T11:34:01Z</time>
      </trkpt>
      <trkpt lat="10.278936" lon="-67.695341">
        <ele>429.50</ele>
        <time>2022-10-26T11:34:02Z</time>
      </trkpt>
      <trkpt lat="10.278955" lon="-67.695396">
        <ele>429.50</ele>
        <time>2022-10-26T11:34:03Z</time>
      </trkpt>
      <trkpt lat="10.278971" lon="-67.695453">
        <ele>429.50</ele>
        <time>2022-10-26T11:34:04Z</time>
      </trkpt>
      <trkpt lat="10.278987" lon="-67.695508">
        <ele>429.50</ele>
        <time>2022-10-26T11:34:05Z</time>
      </trkpt>
      <trkpt lat="10.279003" lon="-67.695566">
        <ele>429.50</ele>
        <time>2022-10-26T11:34:06Z</time>
      </trkpt>
      <trkpt lat="10.279017" lon="-67.695621">
        <ele>429.50</ele>
        <time>2022-10-26T11:34:07Z</time>
      </trkpt>
      <trkpt lat="10.279027" lon="-67.695673">
        <ele>429.50</ele>
        <time>2022-10-26T11:34:08Z</time>
      </trkpt>
      <trkpt lat="10.279039" lon="-67.695720">
        <ele>429.50</ele>
        <time>2022-10-26T11:34:09Z</time>
      </trkpt>
      <trkpt lat="10.279055" lon="-67.695770">
        <ele>429.40</ele>
        <time>2022-10-26T11:34:10Z</time>
      </trkpt>
      <trkpt lat="10.279071" lon="-67.695820">
        <ele>429.40</ele>
        <time>2022-10-26T11:34:11Z</time>
      </trkpt>
      <trkpt lat="10.279085" lon="-67.695870">
        <ele>429.40</ele>
        <time>2022-10-26T11:34:12Z</time>
      </trkpt>
      <trkpt lat="10.279097" lon="-67.695921">
        <ele>429.40</ele>
        <time>2022-10-26T11:34:13Z</time>
      </trkpt>
      <trkpt lat="10.279109" lon="-67.695974">
        <ele>429.30</ele>
        <time>2022-10-26T11:34:14Z</time>
      </trkpt>
      <trkpt lat="10.279119" lon="-67.696024">
        <ele>429.30</ele>
        <time>2022-10-26T11:34:15Z</time>
      </trkpt>
      <trkpt lat="10.279131" lon="-67.696077">
        <ele>429.30</ele>
        <time>2022-10-26T11:34:16Z</time>
      </trkpt>
      <trkpt lat="10.279139" lon="-67.696126">
        <ele>429.30</ele>
        <time>2022-10-26T11:34:17Z</time>
      </trkpt>
      <trkpt lat="10.279146" lon="-67.696179">
        <ele>429.30</ele>
        <time>2022-10-26T11:34:18Z</time>
      </trkpt>
      <trkpt lat="10.279155" lon="-67.696233">
        <ele>429.30</ele>
        <time>2022-10-26T11:34:19Z</time>
      </trkpt>
      <trkpt lat="10.279165" lon="-67.696287">
        <ele>429.30</ele>
        <time>2022-10-26T11:34:20Z</time>
      </trkpt>
      <trkpt lat="10.279178" lon="-67.696342">
        <ele>429.20</ele>
        <time>2022-10-26T11:34:21Z</time>
      </trkpt>
      <trkpt lat="10.279193" lon="-67.696399">
        <ele>429.20</ele>
        <time>2022-10-26T11:34:22Z</time>
      </trkpt>
      <trkpt lat="10.279208" lon="-67.696454">
        <ele>429.10</ele>
        <time>2022-10-26T11:34:23Z</time>
      </trkpt>
      <trkpt lat="10.279221" lon="-67.696509">
        <ele>429.10</ele>
        <time>2022-10-26T11:34:24Z</time>
      </trkpt>
      <trkpt lat="10.279233" lon="-67.696561">
        <ele>429.10</ele>
        <time>2022-10-26T11:34:25Z</time>
      </trkpt>
      <trkpt lat="10.279246" lon="-67.696612">
        <ele>429.10</ele>
        <time>2022-10-26T11:34:26Z</time>
      </trkpt>
      <trkpt lat="10.279262" lon="-67.696658">
        <ele>429.10</ele>
        <time>2022-10-26T11:34:27Z</time>
      </trkpt>
      <trkpt lat="10.279276" lon="-67.696711">
        <ele>429.10</ele>
        <time>2022-10-26T11:34:28Z</time>
      </trkpt>
      <trkpt lat="10.279288" lon="-67.696765">
        <ele>429.10</ele>
        <time>2022-10-26T11:34:29Z</time>
      </trkpt>
      <trkpt lat="10.279301" lon="-67.696823">
        <ele>429.10</ele>
        <time>2022-10-26T11:34:30Z</time>
      </trkpt>
      <trkpt lat="10.279307" lon="-67.696884">
        <ele>429.10</ele>
        <time>2022-10-26T11:34:31Z</time>
      </trkpt>
      <trkpt lat="10.279310" lon="-67.696946">
        <ele>429.00</ele>
        <time>2022-10-26T11:34:32Z</time>
      </trkpt>
      <trkpt lat="10.279317" lon="-67.697012">
        <ele>429.00</ele>
        <time>2022-10-26T11:34:33Z</time>
      </trkpt>
      <trkpt lat="10.279328" lon="-67.697086">
        <ele>429.00</ele>
        <time>2022-10-26T11:34:34Z</time>
      </trkpt>
      <trkpt lat="10.279338" lon="-67.697159">
        <ele>429.00</ele>
        <time>2022-10-26T11:34:35Z</time>
      </trkpt>
      <trkpt lat="10.279351" lon="-67.697237">
        <ele>429.00</ele>
        <time>2022-10-26T11:34:36Z</time>
      </trkpt>
      <trkpt lat="10.279368" lon="-67.697312">
        <ele>429.00</ele>
        <time>2022-10-26T11:34:37Z</time>
      </trkpt>
      <trkpt lat="10.279384" lon="-67.697394">
        <ele>428.90</ele>
        <time>2022-10-26T11:34:38Z</time>
      </trkpt>
      <trkpt lat="10.279405" lon="-67.697478">
        <ele>428.90</ele>
        <time>2022-10-26T11:34:39Z</time>
      </trkpt>
      <trkpt lat="10.279427" lon="-67.697568">
        <ele>428.90</ele>
        <time>2022-10-26T11:34:40Z</time>
      </trkpt>
      <trkpt lat="10.279451" lon="-67.697657">
        <ele>428.90</ele>
        <time>2022-10-26T11:34:41Z</time>
      </trkpt>
      <trkpt lat="10.279472" lon="-67.697750">
        <ele>428.90</ele>
        <time>2022-10-26T11:34:42Z</time>
      </trkpt>
      <trkpt lat="10.279492" lon="-67.697831">
        <ele>428.90</ele>
        <time>2022-10-26T11:34:43Z</time>
      </trkpt>
      <trkpt lat="10.279512" lon="-67.697923">
        <ele>428.80</ele>
        <time>2022-10-26T11:34:44Z</time>
      </trkpt>
      <trkpt lat="10.279533" lon="-67.698013">
        <ele>428.80</ele>
        <time>2022-10-26T11:34:45Z</time>
      </trkpt>
      <trkpt lat="10.279552" lon="-67.698104">
        <ele>428.80</ele>
        <time>2022-10-26T11:34:46Z</time>
      </trkpt>
      <trkpt lat="10.279574" lon="-67.698200">
        <ele>428.70</ele>
        <time>2022-10-26T11:34:47Z</time>
      </trkpt>
      <trkpt lat="10.279593" lon="-67.698295">
        <ele>428.70</ele>
        <time>2022-10-26T11:34:48Z</time>
      </trkpt>
      <trkpt lat="10.279615" lon="-67.698388">
        <ele>428.60</ele>
        <time>2022-10-26T11:34:49Z</time>
      </trkpt>
      <trkpt lat="10.279633" lon="-67.698484">
        <ele>428.50</ele>
        <time>2022-10-26T11:34:50Z</time>
      </trkpt>
      <trkpt lat="10.279658" lon="-67.698588">
        <ele>428.40</ele>
        <time>2022-10-26T11:34:51Z</time>
      </trkpt>
      <trkpt lat="10.279675" lon="-67.698683">
        <ele>428.40</ele>
        <time>2022-10-26T11:34:52Z</time>
      </trkpt>
      <trkpt lat="10.279691" lon="-67.698782">
        <ele>428.30</ele>
        <time>2022-10-26T11:34:53Z</time>
      </trkpt>
      <trkpt lat="10.279710" lon="-67.698881">
        <ele>428.20</ele>
        <time>2022-10-26T11:34:54Z</time>
      </trkpt>
      <trkpt lat="10.279731" lon="-67.698981">
        <ele>428.20</ele>
        <time>2022-10-26T11:34:55Z</time>
      </trkpt>
      <trkpt lat="10.279744" lon="-67.699080">
        <ele>428.10</ele>
        <time>2022-10-26T11:34:56Z</time>
      </trkpt>
      <trkpt lat="10.279755" lon="-67.699177">
        <ele>428.10</ele>
        <time>2022-10-26T11:34:57Z</time>
      </trkpt>
      <trkpt lat="10.279766" lon="-67.699277">
        <ele>428.10</ele>
        <time>2022-10-26T11:34:58Z</time>
      </trkpt>
      <trkpt lat="10.279772" lon="-67.699370">
        <ele>428.00</ele>
        <time>2022-10-26T11:34:59Z</time>
      </trkpt>
      <trkpt lat="10.279785" lon="-67.699461">
        <ele>428.00</ele>
        <time>2022-10-26T11:35:00Z</time>
      </trkpt>
      <trkpt lat="10.279801" lon="-67.699547">
        <ele>428.00</ele>
        <time>2022-10-26T11:35:01Z</time>
      </trkpt>
      <trkpt lat="10.279814" lon="-67.699633">
        <ele>428.00</ele>
        <time>2022-10-26T11:35:02Z</time>
      </trkpt>
      <trkpt lat="10.279826" lon="-67.699717">
        <ele>427.90</ele>
        <time>2022-10-26T11:35:03Z</time>
      </trkpt>
      <trkpt lat="10.279837" lon="-67.699801">
        <ele>427.90</ele>
        <time>2022-10-26T11:35:04Z</time>
      </trkpt>
      <trkpt lat="10.279848" lon="-67.699884">
        <ele>427.90</ele>
        <time>2022-10-26T11:35:05Z</time>
      </trkpt>
      <trkpt lat="10.279861" lon="-67.699972">
        <ele>427.90</ele>
        <time>2022-10-26T11:35:06Z</time>
      </trkpt>
      <trkpt lat="10.279873" lon="-67.700059">
        <ele>427.90</ele>
        <time>2022-10-26T11:35:07Z</time>
      </trkpt>
      <trkpt lat="10.279889" lon="-67.700144">
        <ele>428.00</ele>
        <time>2022-10-26T11:35:08Z</time>
      </trkpt>
      <trkpt lat="10.279904" lon="-67.700219">
        <ele>428.00</ele>
        <time>2022-10-26T11:35:09Z</time>
      </trkpt>
      <trkpt lat="10.279918" lon="-67.700291">
        <ele>428.00</ele>
        <time>2022-10-26T11:35:10Z</time>
      </trkpt>
      <trkpt lat="10.279935" lon="-67.700366">
        <ele>428.00</ele>
        <time>2022-10-26T11:35:11Z</time>
      </trkpt>
      <trkpt lat="10.279943" lon="-67.700442">
        <ele>428.00</ele>
        <time>2022-10-26T11:35:12Z</time>
      </trkpt>
      <trkpt lat="10.279946" lon="-67.700516">
        <ele>428.00</ele>
        <time>2022-10-26T11:35:13Z</time>
      </trkpt>
      <trkpt lat="10.279958" lon="-67.700591">
        <ele>428.00</ele>
        <time>2022-10-26T11:35:14Z</time>
      </trkpt>
      <trkpt lat="10.279974" lon="-67.700668">
        <ele>428.00</ele>
        <time>2022-10-26T11:35:15Z</time>
      </trkpt>
      <trkpt lat="10.279990" lon="-67.700744">
        <ele>428.00</ele>
        <time>2022-10-26T11:35:16Z</time>
      </trkpt>
      <trkpt lat="10.280003" lon="-67.700818">
        <ele>428.00</ele>
        <time>2022-10-26T11:35:17Z</time>
      </trkpt>
      <trkpt lat="10.280016" lon="-67.700892">
        <ele>428.00</ele>
        <time>2022-10-26T11:35:18Z</time>
      </trkpt>
      <trkpt lat="10.280025" lon="-67.700963">
        <ele>428.00</ele>
        <time>2022-10-26T11:35:19Z</time>
      </trkpt>
      <trkpt lat="10.280035" lon="-67.701035">
        <ele>428.00</ele>
        <time>2022-10-26T11:35:20Z</time>
      </trkpt>
      <trkpt lat="10.280036" lon="-67.701098">
        <ele>428.00</ele>
        <time>2022-10-26T11:35:21Z</time>
      </trkpt>
      <trkpt lat="10.280045" lon="-67.701165">
        <ele>428.00</ele>
        <time>2022-10-26T11:35:22Z</time>
      </trkpt>
      <trkpt lat="10.280056" lon="-67.701230">
        <ele>428.10</ele>
        <time>2022-10-26T11:35:23Z</time>
      </trkpt>
      <trkpt lat="10.280064" lon="-67.701300">
        <ele>428.10</ele>
        <time>2022-10-26T11:35:24Z</time>
      </trkpt>
      <trkpt lat="10.280075" lon="-67.701371">
        <ele>428.10</ele>
        <time>2022-10-26T11:35:25Z</time>
      </trkpt>
      <trkpt lat="10.280094" lon="-67.701447">
        <ele>428.10</ele>
        <time>2022-10-26T11:35:26Z</time>
      </trkpt>
      <trkpt lat="10.280110" lon="-67.701517">
        <ele>428.10</ele>
        <time>2022-10-26T11:35:27Z</time>
      </trkpt>
      <trkpt lat="10.280121" lon="-67.701589">
        <ele>428.10</ele>
        <time>2022-10-26T11:35:28Z</time>
      </trkpt>
      <trkpt lat="10.280130" lon="-67.701653">
        <ele>428.10</ele>
        <time>2022-10-26T11:35:29Z</time>
      </trkpt>
      <trkpt lat="10.280138" lon="-67.701722">
        <ele>428.20</ele>
        <time>2022-10-26T11:35:30Z</time>
      </trkpt>
      <trkpt lat="10.280146" lon="-67.701792">
        <ele>428.20</ele>
        <time>2022-10-26T11:35:31Z</time>
      </trkpt>
      <trkpt lat="10.280154" lon="-67.701868">
        <ele>428.30</ele>
        <time>2022-10-26T11:35:32Z</time>
      </trkpt>
      <trkpt lat="10.280161" lon="-67.701943">
        <ele>428.30</ele>
        <time>2022-10-26T11:35:33Z</time>
      </trkpt>
      <trkpt lat="10.280170" lon="-67.702018">
        <ele>428.30</ele>
        <time>2022-10-26T11:35:34Z</time>
      </trkpt>
      <trkpt lat="10.280178" lon="-67.702093">
        <ele>428.30</ele>
        <time>2022-10-26T11:35:35Z</time>
      </trkpt>
      <trkpt lat="10.280181" lon="-67.702171">
        <ele>428.40</ele>
        <time>2022-10-26T11:35:36Z</time>
      </trkpt>
      <trkpt lat="10.280187" lon="-67.702249">
        <ele>428.40</ele>
        <time>2022-10-26T11:35:37Z</time>
      </trkpt>
      <trkpt lat="10.280194" lon="-67.702332">
        <ele>428.50</ele>
        <time>2022-10-26T11:35:38Z</time>
      </trkpt>
      <trkpt lat="10.280204" lon="-67.702415">
        <ele>428.50</ele>
        <time>2022-10-26T11:35:39Z</time>
      </trkpt>
      <trkpt lat="10.280212" lon="-67.702500">
        <ele>428.60</ele>
        <time>2022-10-26T11:35:40Z</time>
      </trkpt>
      <trkpt lat="10.280219" lon="-67.702581">
        <ele>428.60</ele>
        <time>2022-10-26T11:35:41Z</time>
      </trkpt>
      <trkpt lat="10.280231" lon="-67.702663">
        <ele>428.60</ele>
        <time>2022-10-26T11:35:42Z</time>
      </trkpt>
      <trkpt lat="10.280242" lon="-67.702745">
        <ele>428.60</ele>
        <time>2022-10-26T11:35:43Z</time>
      </trkpt>
      <trkpt lat="10.280259" lon="-67.702826">
        <ele>428.70</ele>
        <time>2022-10-26T11:35:44Z</time>
      </trkpt>
      <trkpt lat="10.280280" lon="-67.702914">
        <ele>428.70</ele>
        <time>2022-10-26T11:35:45Z</time>
      </trkpt>
      <trkpt lat="10.280296" lon="-67.703003">
        <ele>428.80</ele>
        <time>2022-10-26T11:35:46Z</time>
      </trkpt>
      <trkpt lat="10.280312" lon="-67.703091">
        <ele>428.90</ele>
        <time>2022-10-26T11:35:47Z</time>
      </trkpt>
      <trkpt lat="10.280324" lon="-67.703176">
        <ele>428.90</ele>
        <time>2022-10-26T11:35:48Z</time>
      </trkpt>
      <trkpt lat="10.280333" lon="-67.703265">
        <ele>429.00</ele>
        <time>2022-10-26T11:35:49Z</time>
      </trkpt>
      <trkpt lat="10.280347" lon="-67.703355">
        <ele>429.10</ele>
        <time>2022-10-26T11:35:50Z</time>
      </trkpt>
      <trkpt lat="10.280365" lon="-67.703442">
        <ele>429.10</ele>
        <time>2022-10-26T11:35:51Z</time>
      </trkpt>
      <trkpt lat="10.280387" lon="-67.703533">
        <ele>429.20</ele>
        <time>2022-10-26T11:35:52Z</time>
      </trkpt>
      <trkpt lat="10.280404" lon="-67.703621">
        <ele>429.30</ele>
        <time>2022-10-26T11:35:53Z</time>
      </trkpt>
      <trkpt lat="10.280424" lon="-67.703712">
        <ele>429.40</ele>
        <time>2022-10-26T11:35:54Z</time>
      </trkpt>
      <trkpt lat="10.280438" lon="-67.703799">
        <ele>429.50</ele>
        <time>2022-10-26T11:35:55Z</time>
      </trkpt>
      <trkpt lat="10.280451" lon="-67.703885">
        <ele>429.60</ele>
        <time>2022-10-26T11:35:56Z</time>
      </trkpt>
      <trkpt lat="10.280462" lon="-67.703967">
        <ele>429.70</ele>
        <time>2022-10-26T11:35:57Z</time>
      </trkpt>
      <trkpt lat="10.280467" lon="-67.704046">
        <ele>429.80</ele>
        <time>2022-10-26T11:35:58Z</time>
      </trkpt>
      <trkpt lat="10.280470" lon="-67.704126">
        <ele>430.00</ele>
        <time>2022-10-26T11:35:59Z</time>
      </trkpt>
      <trkpt lat="10.280473" lon="-67.704202">
        <ele>430.10</ele>
        <time>2022-10-26T11:36:00Z</time>
      </trkpt>
      <trkpt lat="10.280478" lon="-67.704274">
        <ele>430.20</ele>
        <time>2022-10-26T11:36:01Z</time>
      </trkpt>
      <trkpt lat="10.280483" lon="-67.704346">
        <ele>430.30</ele>
        <time>2022-10-26T11:36:02Z</time>
      </trkpt>
      <trkpt lat="10.280492" lon="-67.704421">
        <ele>430.40</ele>
        <time>2022-10-26T11:36:03Z</time>
      </trkpt>
      <trkpt lat="10.280506" lon="-67.704497">
        <ele>430.50</ele>
        <time>2022-10-26T11:36:04Z</time>
      </trkpt>
      <trkpt lat="10.280521" lon="-67.704562">
        <ele>430.60</ele>
        <time>2022-10-26T11:36:05Z</time>
      </trkpt>
      <trkpt lat="10.280533" lon="-67.704627">
        <ele>430.70</ele>
        <time>2022-10-26T11:36:06Z</time>
      </trkpt>
      <trkpt lat="10.280547" lon="-67.704688">
        <ele>430.70</ele>
        <time>2022-10-26T11:36:07Z</time>
      </trkpt>
      <trkpt lat="10.280560" lon="-67.704743">
        <ele>430.80</ele>
        <time>2022-10-26T11:36:08Z</time>
      </trkpt>
      <trkpt lat="10.280567" lon="-67.704790">
        <ele>430.90</ele>
        <time>2022-10-26T11:36:09Z</time>
      </trkpt>
      <trkpt lat="10.280568" lon="-67.704833">
        <ele>430.90</ele>
        <time>2022-10-26T11:36:10Z</time>
      </trkpt>
      <trkpt lat="10.280565" lon="-67.704875">
        <ele>431.00</ele>
        <time>2022-10-26T11:36:11Z</time>
      </trkpt>
      <trkpt lat="10.280561" lon="-67.704916">
        <ele>431.00</ele>
        <time>2022-10-26T11:36:12Z</time>
      </trkpt>
      <trkpt lat="10.280563" lon="-67.704957">
        <ele>431.10</ele>
        <time>2022-10-26T11:36:13Z</time>
      </trkpt>
      <trkpt lat="10.280566" lon="-67.704998">
        <ele>431.10</ele>
        <time>2022-10-26T11:36:14Z</time>
      </trkpt>
      <trkpt lat="10.280568" lon="-67.705037">
        <ele>431.20</ele>
        <time>2022-10-26T11:36:15Z</time>
      </trkpt>
      <trkpt lat="10.280570" lon="-67.705077">
        <ele>431.20</ele>
        <time>2022-10-26T11:36:16Z</time>
      </trkpt>
      <trkpt lat="10.280569" lon="-67.705115">
        <ele>431.30</ele>
        <time>2022-10-26T11:36:17Z</time>
      </trkpt>
      <trkpt lat="10.280568" lon="-67.705156">
        <ele>431.30</ele>
        <time>2022-10-26T11:36:18Z</time>
      </trkpt>
      <trkpt lat="10.280568" lon="-67.705196">
        <ele>431.40</ele>
        <time>2022-10-26T11:36:19Z</time>
      </trkpt>
      <trkpt lat="10.280582" lon="-67.705241">
        <ele>431.50</ele>
        <time>2022-10-26T11:36:20Z</time>
      </trkpt>
      <trkpt lat="10.280601" lon="-67.705294">
        <ele>431.50</ele>
        <time>2022-10-26T11:36:21Z</time>
      </trkpt>
      <trkpt lat="10.280618" lon="-67.705350">
        <ele>431.60</ele>
        <time>2022-10-26T11:36:22Z</time>
      </trkpt>
      <trkpt lat="10.280634" lon="-67.705407">
        <ele>431.70</ele>
        <time>2022-10-26T11:36:23Z</time>
      </trkpt>
      <trkpt lat="10.280651" lon="-67.705466">
        <ele>431.80</ele>
        <time>2022-10-26T11:36:24Z</time>
      </trkpt>
      <trkpt lat="10.280672" lon="-67.705525">
        <ele>431.90</ele>
        <time>2022-10-26T11:36:25Z</time>
      </trkpt>
      <trkpt lat="10.280692" lon="-67.705586">
        <ele>432.00</ele>
        <time>2022-10-26T11:36:26Z</time>
      </trkpt>
      <trkpt lat="10.280711" lon="-67.705647">
        <ele>432.10</ele>
        <time>2022-10-26T11:36:27Z</time>
      </trkpt>
      <trkpt lat="10.280726" lon="-67.705709">
        <ele>432.20</ele>
        <time>2022-10-26T11:36:28Z</time>
      </trkpt>
      <trkpt lat="10.280738" lon="-67.705773">
        <ele>432.30</ele>
        <time>2022-10-26T11:36:29Z</time>
      </trkpt>
      <trkpt lat="10.280742" lon="-67.705843">
        <ele>432.40</ele>
        <time>2022-10-26T11:36:30Z</time>
      </trkpt>
      <trkpt lat="10.280743" lon="-67.705910">
        <ele>432.50</ele>
        <time>2022-10-26T11:36:31Z</time>
      </trkpt>
      <trkpt lat="10.280745" lon="-67.705984">
        <ele>432.60</ele>
        <time>2022-10-26T11:36:32Z</time>
      </trkpt>
      <trkpt lat="10.280746" lon="-67.706059">
        <ele>432.70</ele>
        <time>2022-10-26T11:36:33Z</time>
      </trkpt>
      <trkpt lat="10.280746" lon="-67.706134">
        <ele>432.80</ele>
        <time>2022-10-26T11:36:34Z</time>
      </trkpt>
      <trkpt lat="10.280749" lon="-67.706205">
        <ele>432.90</ele>
        <time>2022-10-26T11:36:35Z</time>
      </trkpt>
      <trkpt lat="10.280756" lon="-67.706274">
        <ele>433.00</ele>
        <time>2022-10-26T11:36:36Z</time>
      </trkpt>
      <trkpt lat="10.280763" lon="-67.706342">
        <ele>433.10</ele>
        <time>2022-10-26T11:36:37Z</time>
      </trkpt>
      <trkpt lat="10.280767" lon="-67.706409">
        <ele>433.20</ele>
        <time>2022-10-26T11:36:38Z</time>
      </trkpt>
      <trkpt lat="10.280772" lon="-67.706473">
        <ele>433.30</ele>
        <time>2022-10-26T11:36:39Z</time>
      </trkpt>
      <trkpt lat="10.280778" lon="-67.706535">
        <ele>433.40</ele>
        <time>2022-10-26T11:36:40Z</time>
      </trkpt>
      <trkpt lat="10.280781" lon="-67.706587">
        <ele>433.50</ele>
        <time>2022-10-26T11:36:41Z</time>
      </trkpt>
      <trkpt lat="10.280782" lon="-67.706634">
        <ele>433.50</ele>
        <time>2022-10-26T11:36:42Z</time>
      </trkpt>
      <trkpt lat="10.280780" lon="-67.706679">
        <ele>433.60</ele>
        <time>2022-10-26T11:36:43Z</time>
      </trkpt>
      <trkpt lat="10.280783" lon="-67.706725">
        <ele>433.60</ele>
        <time>2022-10-26T11:36:44Z</time>
      </trkpt>
      <trkpt lat="10.280784" lon="-67.706770">
        <ele>433.70</ele>
        <time>2022-10-26T11:36:45Z</time>
      </trkpt>
      <trkpt lat="10.280788" lon="-67.706814">
        <ele>433.80</ele>
        <time>2022-10-26T11:36:46Z</time>
      </trkpt>
      <trkpt lat="10.280788" lon="-67.706861">
        <ele>433.80</ele>
        <time>2022-10-26T11:36:47Z</time>
      </trkpt>
      <trkpt lat="10.280791" lon="-67.706904">
        <ele>433.90</ele>
        <time>2022-10-26T11:36:48Z</time>
      </trkpt>
      <trkpt lat="10.280796" lon="-67.706948">
        <ele>434.00</ele>
        <time>2022-10-26T11:36:49Z</time>
      </trkpt>
      <trkpt lat="10.280803" lon="-67.706991">
        <ele>434.00</ele>
        <time>2022-10-26T11:36:50Z</time>
      </trkpt>
      <trkpt lat="10.280817" lon="-67.707035">
        <ele>434.10</ele>
        <time>2022-10-26T11:36:51Z</time>
      </trkpt>
      <trkpt lat="10.280831" lon="-67.707081">
        <ele>434.20</ele>
        <time>2022-10-26T11:36:52Z</time>
      </trkpt>
      <trkpt lat="10.280842" lon="-67.707128">
        <ele>434.20</ele>
        <time>2022-10-26T11:36:53Z</time>
      </trkpt>
      <trkpt lat="10.280851" lon="-67.707179">
        <ele>434.30</ele>
        <time>2022-10-26T11:36:54Z</time>
      </trkpt>
      <trkpt lat="10.280859" lon="-67.707227">
        <ele>434.40</ele>
        <time>2022-10-26T11:36:55Z</time>
      </trkpt>
      <trkpt lat="10.280876" lon="-67.707278">
        <ele>434.50</ele>
        <time>2022-10-26T11:36:56Z</time>
      </trkpt>
      <trkpt lat="10.280890" lon="-67.707331">
        <ele>434.60</ele>
        <time>2022-10-26T11:36:57Z</time>
      </trkpt>
      <trkpt lat="10.280903" lon="-67.707382">
        <ele>434.70</ele>
        <time>2022-10-26T11:36:58Z</time>
      </trkpt>
      <trkpt lat="10.280911" lon="-67.707431">
        <ele>434.80</ele>
        <time>2022-10-26T11:36:59Z</time>
      </trkpt>
      <trkpt lat="10.280912" lon="-67.707483">
        <ele>434.80</ele>
        <time>2022-10-26T11:37:00Z</time>
      </trkpt>
      <trkpt lat="10.280908" lon="-67.707532">
        <ele>434.90</ele>
        <time>2022-10-26T11:37:01Z</time>
      </trkpt>
      <trkpt lat="10.280903" lon="-67.707583">
        <ele>435.00</ele>
        <time>2022-10-26T11:37:02Z</time>
      </trkpt>
      <trkpt lat="10.280904" lon="-67.707633">
        <ele>435.10</ele>
        <time>2022-10-26T11:37:03Z</time>
      </trkpt>
      <trkpt lat="10.280902" lon="-67.707684">
        <ele>435.20</ele>
        <time>2022-10-26T11:37:04Z</time>
      </trkpt>
      <trkpt lat="10.280901" lon="-67.707739">
        <ele>435.30</ele>
        <time>2022-10-26T11:37:05Z</time>
      </trkpt>
      <trkpt lat="10.280904" lon="-67.707794">
        <ele>435.40</ele>
        <time>2022-10-26T11:37:06Z</time>
      </trkpt>
      <trkpt lat="10.280910" lon="-67.707847">
        <ele>435.50</ele>
        <time>2022-10-26T11:37:07Z</time>
      </trkpt>
      <trkpt lat="10.280916" lon="-67.707900">
        <ele>435.60</ele>
        <time>2022-10-26T11:37:08Z</time>
      </trkpt>
      <trkpt lat="10.280923" lon="-67.707951">
        <ele>435.70</ele>
        <time>2022-10-26T11:37:09Z</time>
      </trkpt>
      <trkpt lat="10.280928" lon="-67.708001">
        <ele>435.70</ele>
        <time>2022-10-26T11:37:10Z</time>
      </trkpt>
      <trkpt lat="10.280931" lon="-67.708050">
        <ele>435.80</ele>
        <time>2022-10-26T11:37:11Z</time>
      </trkpt>
      <trkpt lat="10.280936" lon="-67.708098">
        <ele>435.90</ele>
        <time>2022-10-26T11:37:12Z</time>
      </trkpt>
      <trkpt lat="10.280948" lon="-67.708178">
        <ele>436.10</ele>
        <time>2022-10-26T11:37:14Z</time>
      </trkpt>
      <trkpt lat="10.280959" lon="-67.708217">
        <ele>436.20</ele>
        <time>2022-10-26T11:37:15Z</time>
      </trkpt>
      <trkpt lat="10.280977" lon="-67.708255">
        <ele>436.30</ele>
        <time>2022-10-26T11:37:16Z</time>
      </trkpt>
      <trkpt lat="10.280997" lon="-67.708296">
        <ele>436.30</ele>
        <time>2022-10-26T11:37:17Z</time>
      </trkpt>
      <trkpt lat="10.281012" lon="-67.708338">
        <ele>436.40</ele>
        <time>2022-10-26T11:37:18Z</time>
      </trkpt>
      <trkpt lat="10.281020" lon="-67.708383">
        <ele>436.50</ele>
        <time>2022-10-26T11:37:19Z</time>
      </trkpt>
      <trkpt lat="10.281017" lon="-67.708429">
        <ele>436.60</ele>
        <time>2022-10-26T11:37:20Z</time>
      </trkpt>
      <trkpt lat="10.281012" lon="-67.708482">
        <ele>436.70</ele>
        <time>2022-10-26T11:37:21Z</time>
      </trkpt>
      <trkpt lat="10.281007" lon="-67.708532">
        <ele>436.80</ele>
        <time>2022-10-26T11:37:22Z</time>
      </trkpt>
      <trkpt lat="10.281003" lon="-67.708585">
        <ele>436.90</ele>
        <time>2022-10-26T11:37:23Z</time>
      </trkpt>
      <trkpt lat="10.280998" lon="-67.708638">
        <ele>437.00</ele>
        <time>2022-10-26T11:37:24Z</time>
      </trkpt>
      <trkpt lat="10.281001" lon="-67.708692">
        <ele>437.10</ele>
        <time>2022-10-26T11:37:25Z</time>
      </trkpt>
      <trkpt lat="10.281003" lon="-67.708747">
        <ele>437.20</ele>
        <time>2022-10-26T11:37:26Z</time>
      </trkpt>
      <trkpt lat="10.281008" lon="-67.708804">
        <ele>437.30</ele>
        <time>2022-10-26T11:37:27Z</time>
      </trkpt>
      <trkpt lat="10.281014" lon="-67.708864">
        <ele>437.40</ele>
        <time>2022-10-26T11:37:28Z</time>
      </trkpt>
      <trkpt lat="10.281020" lon="-67.708925">
        <ele>437.50</ele>
        <time>2022-10-26T11:37:29Z</time>
      </trkpt>
      <trkpt lat="10.281020" lon="-67.708985">
        <ele>437.60</ele>
        <time>2022-10-26T11:37:30Z</time>
      </trkpt>
      <trkpt lat="10.281014" lon="-67.709042">
        <ele>437.80</ele>
        <time>2022-10-26T11:37:31Z</time>
      </trkpt>
      <trkpt lat="10.281018" lon="-67.709099">
        <ele>437.90</ele>
        <time>2022-10-26T11:37:32Z</time>
      </trkpt>
      <trkpt lat="10.281027" lon="-67.709157">
        <ele>438.00</ele>
        <time>2022-10-26T11:37:33Z</time>
      </trkpt>
      <trkpt lat="10.281036" lon="-67.709215">
        <ele>438.10</ele>
        <time>2022-10-26T11:37:34Z</time>
      </trkpt>
      <trkpt lat="10.281045" lon="-67.709271">
        <ele>438.20</ele>
        <time>2022-10-26T11:37:35Z</time>
      </trkpt>
      <trkpt lat="10.281051" lon="-67.709332">
        <ele>438.30</ele>
        <time>2022-10-26T11:37:36Z</time>
      </trkpt>
      <trkpt lat="10.281055" lon="-67.709394">
        <ele>438.40</ele>
        <time>2022-10-26T11:37:37Z</time>
      </trkpt>
      <trkpt lat="10.281057" lon="-67.709454">
        <ele>438.50</ele>
        <time>2022-10-26T11:37:38Z</time>
      </trkpt>
      <trkpt lat="10.281063" lon="-67.709515">
        <ele>438.60</ele>
        <time>2022-10-26T11:37:39Z</time>
      </trkpt>
      <trkpt lat="10.281069" lon="-67.709577">
        <ele>438.70</ele>
        <time>2022-10-26T11:37:40Z</time>
      </trkpt>
      <trkpt lat="10.281075" lon="-67.709640">
        <ele>438.80</ele>
        <time>2022-10-26T11:37:41Z</time>
      </trkpt>
      <trkpt lat="10.281080" lon="-67.709704">
        <ele>438.90</ele>
        <time>2022-10-26T11:37:42Z</time>
      </trkpt>
      <trkpt lat="10.281083" lon="-67.709768">
        <ele>439.00</ele>
        <time>2022-10-26T11:37:43Z</time>
      </trkpt>
      <trkpt lat="10.281092" lon="-67.709838">
        <ele>439.10</ele>
        <time>2022-10-26T11:37:44Z</time>
      </trkpt>
      <trkpt lat="10.281099" lon="-67.709909">
        <ele>439.20</ele>
        <time>2022-10-26T11:37:45Z</time>
      </trkpt>
      <trkpt lat="10.281106" lon="-67.709976">
        <ele>439.30</ele>
        <time>2022-10-26T11:37:46Z</time>
      </trkpt>
      <trkpt lat="10.281115" lon="-67.710040">
        <ele>439.40</ele>
        <time>2022-10-26T11:37:47Z</time>
      </trkpt>
      <trkpt lat="10.281124" lon="-67.710103">
        <ele>439.50</ele>
        <time>2022-10-26T11:37:48Z</time>
      </trkpt>
      <trkpt lat="10.281137" lon="-67.710168">
        <ele>439.60</ele>
        <time>2022-10-26T11:37:49Z</time>
      </trkpt>
      <trkpt lat="10.281151" lon="-67.710225">
        <ele>439.70</ele>
        <time>2022-10-26T11:37:50Z</time>
      </trkpt>
      <trkpt lat="10.281161" lon="-67.710277">
        <ele>439.80</ele>
        <time>2022-10-26T11:37:51Z</time>
      </trkpt>
      <trkpt lat="10.281167" lon="-67.710327">
        <ele>439.90</ele>
        <time>2022-10-26T11:37:52Z</time>
      </trkpt>
      <trkpt lat="10.281171" lon="-67.710383">
        <ele>440.00</ele>
        <time>2022-10-26T11:37:53Z</time>
      </trkpt>
      <trkpt lat="10.281174" lon="-67.710440">
        <ele>440.00</ele>
        <time>2022-10-26T11:37:54Z</time>
      </trkpt>
      <trkpt lat="10.281176" lon="-67.710495">
        <ele>440.10</ele>
        <time>2022-10-26T11:37:55Z</time>
      </trkpt>
      <trkpt lat="10.281177" lon="-67.710551">
        <ele>440.10</ele>
        <time>2022-10-26T11:37:56Z</time>
      </trkpt>
      <trkpt lat="10.281179" lon="-67.710609">
        <ele>440.20</ele>
        <time>2022-10-26T11:37:57Z</time>
      </trkpt>
      <trkpt lat="10.281175" lon="-67.710665">
        <ele>440.20</ele>
        <time>2022-10-26T11:37:58Z</time>
      </trkpt>
      <trkpt lat="10.281173" lon="-67.710720">
        <ele>440.30</ele>
        <time>2022-10-26T11:37:59Z</time>
      </trkpt>
      <trkpt lat="10.281175" lon="-67.710776">
        <ele>440.40</ele>
        <time>2022-10-26T11:38:00Z</time>
      </trkpt>
      <trkpt lat="10.281180" lon="-67.710833">
        <ele>440.40</ele>
        <time>2022-10-26T11:38:01Z</time>
      </trkpt>
      <trkpt lat="10.281185" lon="-67.710889">
        <ele>440.50</ele>
        <time>2022-10-26T11:38:02Z</time>
      </trkpt>
      <trkpt lat="10.281189" lon="-67.710946">
        <ele>440.50</ele>
        <time>2022-10-26T11:38:03Z</time>
      </trkpt>
      <trkpt lat="10.281195" lon="-67.711005">
        <ele>440.60</ele>
        <time>2022-10-26T11:38:04Z</time>
      </trkpt>
      <trkpt lat="10.281197" lon="-67.711063">
        <ele>440.60</ele>
        <time>2022-10-26T11:38:05Z</time>
      </trkpt>
      <trkpt lat="10.281209" lon="-67.711125">
        <ele>440.70</ele>
        <time>2022-10-26T11:38:06Z</time>
      </trkpt>
      <trkpt lat="10.281216" lon="-67.711184">
        <ele>440.80</ele>
        <time>2022-10-26T11:38:07Z</time>
      </trkpt>
      <trkpt lat="10.281222" lon="-67.711240">
        <ele>440.80</ele>
        <time>2022-10-26T11:38:08Z</time>
      </trkpt>
      <trkpt lat="10.281225" lon="-67.711294">
        <ele>440.90</ele>
        <time>2022-10-26T11:38:09Z</time>
      </trkpt>
      <trkpt lat="10.281232" lon="-67.711347">
        <ele>440.90</ele>
        <time>2022-10-26T11:38:10Z</time>
      </trkpt>
      <trkpt lat="10.281243" lon="-67.711400">
        <ele>441.00</ele>
        <time>2022-10-26T11:38:11Z</time>
      </trkpt>
      <trkpt lat="10.281258" lon="-67.711452">
        <ele>441.00</ele>
        <time>2022-10-26T11:38:12Z</time>
      </trkpt>
      <trkpt lat="10.281271" lon="-67.711500">
        <ele>441.10</ele>
        <time>2022-10-26T11:38:13Z</time>
      </trkpt>
      <trkpt lat="10.281288" lon="-67.711543">
        <ele>441.10</ele>
        <time>2022-10-26T11:38:14Z</time>
      </trkpt>
      <trkpt lat="10.281300" lon="-67.711586">
        <ele>441.20</ele>
        <time>2022-10-26T11:38:15Z</time>
      </trkpt>
      <trkpt lat="10.281309" lon="-67.711628">
        <ele>441.20</ele>
        <time>2022-10-26T11:38:16Z</time>
      </trkpt>
      <trkpt lat="10.281320" lon="-67.711673">
        <ele>441.20</ele>
        <time>2022-10-26T11:38:17Z</time>
      </trkpt>
      <trkpt lat="10.281329" lon="-67.711718">
        <ele>441.30</ele>
        <time>2022-10-26T11:38:18Z</time>
      </trkpt>
      <trkpt lat="10.281342" lon="-67.711762">
        <ele>441.30</ele>
        <time>2022-10-26T11:38:19Z</time>
      </trkpt>
      <trkpt lat="10.281361" lon="-67.711809">
        <ele>441.40</ele>
        <time>2022-10-26T11:38:20Z</time>
      </trkpt>
      <trkpt lat="10.281378" lon="-67.711859">
        <ele>441.40</ele>
        <time>2022-10-26T11:38:21Z</time>
      </trkpt>
      <trkpt lat="10.281391" lon="-67.711912">
        <ele>441.40</ele>
        <time>2022-10-26T11:38:22Z</time>
      </trkpt>
      <trkpt lat="10.281397" lon="-67.711967">
        <ele>441.50</ele>
        <time>2022-10-26T11:38:23Z</time>
      </trkpt>
      <trkpt lat="10.281399" lon="-67.712021">
        <ele>441.50</ele>
        <time>2022-10-26T11:38:24Z</time>
      </trkpt>
      <trkpt lat="10.281400" lon="-67.712077">
        <ele>441.50</ele>
        <time>2022-10-26T11:38:25Z</time>
      </trkpt>
      <trkpt lat="10.281410" lon="-67.712137">
        <ele>441.50</ele>
        <time>2022-10-26T11:38:26Z</time>
      </trkpt>
      <trkpt lat="10.281427" lon="-67.712200">
        <ele>441.60</ele>
        <time>2022-10-26T11:38:27Z</time>
      </trkpt>
      <trkpt lat="10.281447" lon="-67.712268">
        <ele>441.60</ele>
        <time>2022-10-26T11:38:28Z</time>
      </trkpt>
      <trkpt lat="10.281461" lon="-67.712332">
        <ele>441.70</ele>
        <time>2022-10-26T11:38:29Z</time>
      </trkpt>
      <trkpt lat="10.281470" lon="-67.712396">
        <ele>441.70</ele>
        <time>2022-10-26T11:38:30Z</time>
      </trkpt>
      <trkpt lat="10.281472" lon="-67.712464">
        <ele>441.70</ele>
        <time>2022-10-26T11:38:31Z</time>
      </trkpt>
      <trkpt lat="10.281471" lon="-67.712537">
        <ele>441.80</ele>
        <time>2022-10-26T11:38:32Z</time>
      </trkpt>
      <trkpt lat="10.281476" lon="-67.712617">
        <ele>441.80</ele>
        <time>2022-10-26T11:38:33Z</time>
      </trkpt>
      <trkpt lat="10.281478" lon="-67.712706">
        <ele>441.80</ele>
        <time>2022-10-26T11:38:34Z</time>
      </trkpt>
      <trkpt lat="10.281483" lon="-67.712793">
        <ele>441.80</ele>
        <time>2022-10-26T11:38:35Z</time>
      </trkpt>
      <trkpt lat="10.281491" lon="-67.712875">
        <ele>441.90</ele>
        <time>2022-10-26T11:38:36Z</time>
      </trkpt>
      <trkpt lat="10.281509" lon="-67.712958">
        <ele>441.90</ele>
        <time>2022-10-26T11:38:37Z</time>
      </trkpt>
      <trkpt lat="10.281521" lon="-67.713034">
        <ele>441.90</ele>
        <time>2022-10-26T11:38:38Z</time>
      </trkpt>
      <trkpt lat="10.281531" lon="-67.713105">
        <ele>441.80</ele>
        <time>2022-10-26T11:38:39Z</time>
      </trkpt>
      <trkpt lat="10.281540" lon="-67.713176">
        <ele>441.80</ele>
        <time>2022-10-26T11:38:40Z</time>
      </trkpt>
      <trkpt lat="10.281555" lon="-67.713247">
        <ele>441.80</ele>
        <time>2022-10-26T11:38:41Z</time>
      </trkpt>
      <trkpt lat="10.281575" lon="-67.713321">
        <ele>441.80</ele>
        <time>2022-10-26T11:38:42Z</time>
      </trkpt>
      <trkpt lat="10.281591" lon="-67.713399">
        <ele>441.80</ele>
        <time>2022-10-26T11:38:43Z</time>
      </trkpt>
      <trkpt lat="10.281602" lon="-67.713479">
        <ele>441.80</ele>
        <time>2022-10-26T11:38:44Z</time>
      </trkpt>
      <trkpt lat="10.281612" lon="-67.713562">
        <ele>441.80</ele>
        <time>2022-10-26T11:38:45Z</time>
      </trkpt>
      <trkpt lat="10.281619" lon="-67.713644">
        <ele>441.70</ele>
        <time>2022-10-26T11:38:46Z</time>
      </trkpt>
      <trkpt lat="10.281621" lon="-67.713724">
        <ele>441.70</ele>
        <time>2022-10-26T11:38:47Z</time>
      </trkpt>
      <trkpt lat="10.281623" lon="-67.713801">
        <ele>441.70</ele>
        <time>2022-10-26T11:38:48Z</time>
      </trkpt>
      <trkpt lat="10.281628" lon="-67.713877">
        <ele>441.70</ele>
        <time>2022-10-26T11:38:49Z</time>
      </trkpt>
      <trkpt lat="10.281633" lon="-67.713958">
        <ele>441.70</ele>
        <time>2022-10-26T11:38:50Z</time>
      </trkpt>
      <trkpt lat="10.281639" lon="-67.714032">
        <ele>441.60</ele>
        <time>2022-10-26T11:38:51Z</time>
      </trkpt>
      <trkpt lat="10.281646" lon="-67.714102">
        <ele>441.60</ele>
        <time>2022-10-26T11:38:52Z</time>
      </trkpt>
      <trkpt lat="10.281651" lon="-67.714168">
        <ele>441.60</ele>
        <time>2022-10-26T11:38:53Z</time>
      </trkpt>
      <trkpt lat="10.281655" lon="-67.714227">
        <ele>441.50</ele>
        <time>2022-10-26T11:38:54Z</time>
      </trkpt>
      <trkpt lat="10.281665" lon="-67.714287">
        <ele>441.50</ele>
        <time>2022-10-26T11:38:55Z</time>
      </trkpt>
      <trkpt lat="10.281676" lon="-67.714350">
        <ele>441.50</ele>
        <time>2022-10-26T11:38:56Z</time>
      </trkpt>
      <trkpt lat="10.281686" lon="-67.714416">
        <ele>441.40</ele>
        <time>2022-10-26T11:38:57Z</time>
      </trkpt>
      <trkpt lat="10.281696" lon="-67.714484">
        <ele>441.40</ele>
        <time>2022-10-26T11:38:58Z</time>
      </trkpt>
      <trkpt lat="10.281702" lon="-67.714551">
        <ele>441.40</ele>
        <time>2022-10-26T11:38:59Z</time>
      </trkpt>
      <trkpt lat="10.281708" lon="-67.714618">
        <ele>441.40</ele>
        <time>2022-10-26T11:39:00Z</time>
      </trkpt>
      <trkpt lat="10.281721" lon="-67.714686">
        <ele>441.30</ele>
        <time>2022-10-26T11:39:01Z</time>
      </trkpt>
      <trkpt lat="10.281735" lon="-67.714754">
        <ele>441.30</ele>
        <time>2022-10-26T11:39:02Z</time>
      </trkpt>
      <trkpt lat="10.281748" lon="-67.714824">
        <ele>441.20</ele>
        <time>2022-10-26T11:39:03Z</time>
      </trkpt>
      <trkpt lat="10.281763" lon="-67.714900">
        <ele>441.20</ele>
        <time>2022-10-26T11:39:04Z</time>
      </trkpt>
      <trkpt lat="10.281780" lon="-67.714981">
        <ele>441.20</ele>
        <time>2022-10-26T11:39:05Z</time>
      </trkpt>
      <trkpt lat="10.281791" lon="-67.715065">
        <ele>441.20</ele>
        <time>2022-10-26T11:39:06Z</time>
      </trkpt>
      <trkpt lat="10.281796" lon="-67.715149">
        <ele>441.20</ele>
        <time>2022-10-26T11:39:07Z</time>
      </trkpt>
      <trkpt lat="10.281802" lon="-67.715230">
        <ele>441.20</ele>
        <time>2022-10-26T11:39:08Z</time>
      </trkpt>
      <trkpt lat="10.281812" lon="-67.715310">
        <ele>441.20</ele>
        <time>2022-10-26T11:39:09Z</time>
      </trkpt>
      <trkpt lat="10.281827" lon="-67.715393">
        <ele>441.20</ele>
        <time>2022-10-26T11:39:10Z</time>
      </trkpt>
      <trkpt lat="10.281841" lon="-67.715479">
        <ele>441.20</ele>
        <time>2022-10-26T11:39:11Z</time>
      </trkpt>
      <trkpt lat="10.281856" lon="-67.715566">
        <ele>441.20</ele>
        <time>2022-10-26T11:39:12Z</time>
      </trkpt>
      <trkpt lat="10.281869" lon="-67.715654">
        <ele>441.10</ele>
        <time>2022-10-26T11:39:13Z</time>
      </trkpt>
      <trkpt lat="10.281882" lon="-67.715738">
        <ele>441.10</ele>
        <time>2022-10-26T11:39:14Z</time>
      </trkpt>
      <trkpt lat="10.281897" lon="-67.715822">
        <ele>441.20</ele>
        <time>2022-10-26T11:39:15Z</time>
      </trkpt>
      <trkpt lat="10.281911" lon="-67.715906">
        <ele>441.20</ele>
        <time>2022-10-26T11:39:16Z</time>
      </trkpt>
      <trkpt lat="10.281920" lon="-67.715985">
        <ele>441.10</ele>
        <time>2022-10-26T11:39:17Z</time>
      </trkpt>
      <trkpt lat="10.281928" lon="-67.716064">
        <ele>441.10</ele>
        <time>2022-10-26T11:39:18Z</time>
      </trkpt>
      <trkpt lat="10.281936" lon="-67.716138">
        <ele>441.00</ele>
        <time>2022-10-26T11:39:19Z</time>
      </trkpt>
      <trkpt lat="10.281944" lon="-67.716208">
        <ele>441.00</ele>
        <time>2022-10-26T11:39:20Z</time>
      </trkpt>
      <trkpt lat="10.281950" lon="-67.716275">
        <ele>441.00</ele>
        <time>2022-10-26T11:39:21Z</time>
      </trkpt>
      <trkpt lat="10.281952" lon="-67.716350">
        <ele>440.90</ele>
        <time>2022-10-26T11:39:22Z</time>
      </trkpt>
      <trkpt lat="10.281955" lon="-67.716426">
        <ele>440.90</ele>
        <time>2022-10-26T11:39:23Z</time>
      </trkpt>
      <trkpt lat="10.281960" lon="-67.716504">
        <ele>440.90</ele>
        <time>2022-10-26T11:39:24Z</time>
      </trkpt>
      <trkpt lat="10.281967" lon="-67.716589">
        <ele>440.90</ele>
        <time>2022-10-26T11:39:25Z</time>
      </trkpt>
      <trkpt lat="10.281971" lon="-67.716679">
        <ele>440.90</ele>
        <time>2022-10-26T11:39:26Z</time>
      </trkpt>
      <trkpt lat="10.281974" lon="-67.716770">
        <ele>440.90</ele>
        <time>2022-10-26T11:39:27Z</time>
      </trkpt>
      <trkpt lat="10.281972" lon="-67.716857">
        <ele>440.90</ele>
        <time>2022-10-26T11:39:28Z</time>
      </trkpt>
      <trkpt lat="10.281970" lon="-67.716943">
        <ele>440.90</ele>
        <time>2022-10-26T11:39:29Z</time>
      </trkpt>
      <trkpt lat="10.281972" lon="-67.717028">
        <ele>440.80</ele>
        <time>2022-10-26T11:39:30Z</time>
      </trkpt>
      <trkpt lat="10.281980" lon="-67.717112">
        <ele>440.80</ele>
        <time>2022-10-26T11:39:31Z</time>
      </trkpt>
      <trkpt lat="10.281992" lon="-67.717197">
        <ele>440.80</ele>
        <time>2022-10-26T11:39:32Z</time>
      </trkpt>
      <trkpt lat="10.282006" lon="-67.717282">
        <ele>440.70</ele>
        <time>2022-10-26T11:39:33Z</time>
      </trkpt>
      <trkpt lat="10.282022" lon="-67.717370">
        <ele>440.70</ele>
        <time>2022-10-26T11:39:34Z</time>
      </trkpt>
      <trkpt lat="10.282036" lon="-67.717452">
        <ele>440.80</ele>
        <time>2022-10-26T11:39:35Z</time>
      </trkpt>
      <trkpt lat="10.282046" lon="-67.717533">
        <ele>440.80</ele>
        <time>2022-10-26T11:39:36Z</time>
      </trkpt>
      <trkpt lat="10.282062" lon="-67.717613">
        <ele>440.90</ele>
        <time>2022-10-26T11:39:37Z</time>
      </trkpt>
      <trkpt lat="10.282077" lon="-67.717689">
        <ele>441.00</ele>
        <time>2022-10-26T11:39:38Z</time>
      </trkpt>
      <trkpt lat="10.282090" lon="-67.717762">
        <ele>441.00</ele>
        <time>2022-10-26T11:39:39Z</time>
      </trkpt>
      <trkpt lat="10.282102" lon="-67.717838">
        <ele>441.00</ele>
        <time>2022-10-26T11:39:40Z</time>
      </trkpt>
      <trkpt lat="10.282110" lon="-67.717915">
        <ele>441.00</ele>
        <time>2022-10-26T11:39:41Z</time>
      </trkpt>
      <trkpt lat="10.282117" lon="-67.717987">
        <ele>441.00</ele>
        <time>2022-10-26T11:39:42Z</time>
      </trkpt>
      <trkpt lat="10.282128" lon="-67.718062">
        <ele>441.00</ele>
        <time>2022-10-26T11:39:43Z</time>
      </trkpt>
      <trkpt lat="10.282137" lon="-67.718136">
        <ele>441.00</ele>
        <time>2022-10-26T11:39:44Z</time>
      </trkpt>
      <trkpt lat="10.282145" lon="-67.718211">
        <ele>441.00</ele>
        <time>2022-10-26T11:39:45Z</time>
      </trkpt>
      <trkpt lat="10.282151" lon="-67.718287">
        <ele>441.00</ele>
        <time>2022-10-26T11:39:46Z</time>
      </trkpt>
      <trkpt lat="10.282149" lon="-67.718359">
        <ele>441.00</ele>
        <time>2022-10-26T11:39:47Z</time>
      </trkpt>
      <trkpt lat="10.282146" lon="-67.718434">
        <ele>441.10</ele>
        <time>2022-10-26T11:39:48Z</time>
      </trkpt>
      <trkpt lat="10.282147" lon="-67.718510">
        <ele>441.10</ele>
        <time>2022-10-26T11:39:49Z</time>
      </trkpt>
      <trkpt lat="10.282151" lon="-67.718585">
        <ele>441.20</ele>
        <time>2022-10-26T11:39:50Z</time>
      </trkpt>
      <trkpt lat="10.282158" lon="-67.718661">
        <ele>441.20</ele>
        <time>2022-10-26T11:39:51Z</time>
      </trkpt>
      <trkpt lat="10.282166" lon="-67.718737">
        <ele>441.20</ele>
        <time>2022-10-26T11:39:52Z</time>
      </trkpt>
      <trkpt lat="10.282177" lon="-67.718816">
        <ele>441.20</ele>
        <time>2022-10-26T11:39:53Z</time>
      </trkpt>
      <trkpt lat="10.282192" lon="-67.718897">
        <ele>441.20</ele>
        <time>2022-10-26T11:39:54Z</time>
      </trkpt>
      <trkpt lat="10.282208" lon="-67.718978">
        <ele>441.30</ele>
        <time>2022-10-26T11:39:55Z</time>
      </trkpt>
      <trkpt lat="10.282225" lon="-67.719061">
        <ele>441.30</ele>
        <time>2022-10-26T11:39:56Z</time>
      </trkpt>
      <trkpt lat="10.282246" lon="-67.719141">
        <ele>441.30</ele>
        <time>2022-10-26T11:39:57Z</time>
      </trkpt>
      <trkpt lat="10.282268" lon="-67.719221">
        <ele>441.30</ele>
        <time>2022-10-26T11:39:58Z</time>
      </trkpt>
      <trkpt lat="10.282288" lon="-67.719301">
        <ele>441.30</ele>
        <time>2022-10-26T11:39:59Z</time>
      </trkpt>
      <trkpt lat="10.282309" lon="-67.719382">
        <ele>441.30</ele>
        <time>2022-10-26T11:40:00Z</time>
      </trkpt>
      <trkpt lat="10.282325" lon="-67.719459">
        <ele>441.40</ele>
        <time>2022-10-26T11:40:01Z</time>
      </trkpt>
      <trkpt lat="10.282334" lon="-67.719535">
        <ele>441.40</ele>
        <time>2022-10-26T11:40:02Z</time>
      </trkpt>
      <trkpt lat="10.282344" lon="-67.719613">
        <ele>441.40</ele>
        <time>2022-10-26T11:40:03Z</time>
      </trkpt>
      <trkpt lat="10.282359" lon="-67.719690">
        <ele>441.40</ele>
        <time>2022-10-26T11:40:04Z</time>
      </trkpt>
      <trkpt lat="10.282377" lon="-67.719766">
        <ele>441.40</ele>
        <time>2022-10-26T11:40:05Z</time>
      </trkpt>
      <trkpt lat="10.282393" lon="-67.719844">
        <ele>441.40</ele>
        <time>2022-10-26T11:40:06Z</time>
      </trkpt>
      <trkpt lat="10.282407" lon="-67.719920">
        <ele>441.40</ele>
        <time>2022-10-26T11:40:07Z</time>
      </trkpt>
      <trkpt lat="10.282417" lon="-67.719996">
        <ele>441.40</ele>
        <time>2022-10-26T11:40:08Z</time>
      </trkpt>
      <trkpt lat="10.282425" lon="-67.720071">
        <ele>441.40</ele>
        <time>2022-10-26T11:40:09Z</time>
      </trkpt>
      <trkpt lat="10.282434" lon="-67.720146">
        <ele>441.40</ele>
        <time>2022-10-26T11:40:10Z</time>
      </trkpt>
      <trkpt lat="10.282443" lon="-67.720222">
        <ele>441.40</ele>
        <time>2022-10-26T11:40:11Z</time>
      </trkpt>
      <trkpt lat="10.282450" lon="-67.720299">
        <ele>441.40</ele>
        <time>2022-10-26T11:40:12Z</time>
      </trkpt>
      <trkpt lat="10.282457" lon="-67.720376">
        <ele>441.40</ele>
        <time>2022-10-26T11:40:13Z</time>
      </trkpt>
      <trkpt lat="10.282463" lon="-67.720448">
        <ele>441.40</ele>
        <time>2022-10-26T11:40:14Z</time>
      </trkpt>
      <trkpt lat="10.282470" lon="-67.720518">
        <ele>441.40</ele>
        <time>2022-10-26T11:40:15Z</time>
      </trkpt>
      <trkpt lat="10.282480" lon="-67.720584">
        <ele>441.40</ele>
        <time>2022-10-26T11:40:16Z</time>
      </trkpt>
      <trkpt lat="10.282491" lon="-67.720651">
        <ele>441.40</ele>
        <time>2022-10-26T11:40:17Z</time>
      </trkpt>
      <trkpt lat="10.282502" lon="-67.720721">
        <ele>441.40</ele>
        <time>2022-10-26T11:40:18Z</time>
      </trkpt>
      <trkpt lat="10.282512" lon="-67.720789">
        <ele>441.40</ele>
        <time>2022-10-26T11:40:19Z</time>
      </trkpt>
      <trkpt lat="10.282519" lon="-67.720856">
        <ele>441.40</ele>
        <time>2022-10-26T11:40:20Z</time>
      </trkpt>
      <trkpt lat="10.282526" lon="-67.720925">
        <ele>441.40</ele>
        <time>2022-10-26T11:40:21Z</time>
      </trkpt>
      <trkpt lat="10.282533" lon="-67.720995">
        <ele>441.40</ele>
        <time>2022-10-26T11:40:22Z</time>
      </trkpt>
      <trkpt lat="10.282538" lon="-67.721064">
        <ele>441.40</ele>
        <time>2022-10-26T11:40:23Z</time>
      </trkpt>
      <trkpt lat="10.282542" lon="-67.721133">
        <ele>441.40</ele>
        <time>2022-10-26T11:40:24Z</time>
      </trkpt>
      <trkpt lat="10.282544" lon="-67.721203">
        <ele>441.40</ele>
        <time>2022-10-26T11:40:25Z</time>
      </trkpt>
      <trkpt lat="10.282545" lon="-67.721274">
        <ele>441.40</ele>
        <time>2022-10-26T11:40:26Z</time>
      </trkpt>
      <trkpt lat="10.282544" lon="-67.721345">
        <ele>441.30</ele>
        <time>2022-10-26T11:40:27Z</time>
      </trkpt>
      <trkpt lat="10.282547" lon="-67.721413">
        <ele>441.30</ele>
        <time>2022-10-26T11:40:28Z</time>
      </trkpt>
      <trkpt lat="10.282549" lon="-67.721480">
        <ele>441.30</ele>
        <time>2022-10-26T11:40:29Z</time>
      </trkpt>
      <trkpt lat="10.282553" lon="-67.721547">
        <ele>441.20</ele>
        <time>2022-10-26T11:40:30Z</time>
      </trkpt>
      <trkpt lat="10.282559" lon="-67.721615">
        <ele>441.20</ele>
        <time>2022-10-26T11:40:31Z</time>
      </trkpt>
      <trkpt lat="10.282572" lon="-67.721687">
        <ele>441.20</ele>
        <time>2022-10-26T11:40:32Z</time>
      </trkpt>
      <trkpt lat="10.282584" lon="-67.721756">
        <ele>441.20</ele>
        <time>2022-10-26T11:40:33Z</time>
      </trkpt>
      <trkpt lat="10.282598" lon="-67.721826">
        <ele>441.20</ele>
        <time>2022-10-26T11:40:34Z</time>
      </trkpt>
      <trkpt lat="10.282612" lon="-67.721896">
        <ele>441.10</ele>
        <time>2022-10-26T11:40:35Z</time>
      </trkpt>
      <trkpt lat="10.282621" lon="-67.721966">
        <ele>441.10</ele>
        <time>2022-10-26T11:40:36Z</time>
      </trkpt>
      <trkpt lat="10.282625" lon="-67.722034">
        <ele>441.00</ele>
        <time>2022-10-26T11:40:37Z</time>
      </trkpt>
      <trkpt lat="10.282629" lon="-67.722102">
        <ele>441.00</ele>
        <time>2022-10-26T11:40:38Z</time>
      </trkpt>
      <trkpt lat="10.282633" lon="-67.722173">
        <ele>441.00</ele>
        <time>2022-10-26T11:40:39Z</time>
      </trkpt>
      <trkpt lat="10.282635" lon="-67.722245">
        <ele>441.00</ele>
        <time>2022-10-26T11:40:40Z</time>
      </trkpt>
      <trkpt lat="10.282635" lon="-67.722311">
        <ele>441.00</ele>
        <time>2022-10-26T11:40:41Z</time>
      </trkpt>
      <trkpt lat="10.282639" lon="-67.722374">
        <ele>441.00</ele>
        <time>2022-10-26T11:40:42Z</time>
      </trkpt>
      <trkpt lat="10.282645" lon="-67.722435">
        <ele>441.00</ele>
        <time>2022-10-26T11:40:43Z</time>
      </trkpt>
      <trkpt lat="10.282655" lon="-67.722494">
        <ele>441.00</ele>
        <time>2022-10-26T11:40:44Z</time>
      </trkpt>
      <trkpt lat="10.282666" lon="-67.722555">
        <ele>441.00</ele>
        <time>2022-10-26T11:40:45Z</time>
      </trkpt>
      <trkpt lat="10.282676" lon="-67.722613">
        <ele>440.90</ele>
        <time>2022-10-26T11:40:46Z</time>
      </trkpt>
      <trkpt lat="10.282684" lon="-67.722671">
        <ele>440.90</ele>
        <time>2022-10-26T11:40:47Z</time>
      </trkpt>
      <trkpt lat="10.282694" lon="-67.722733">
        <ele>440.80</ele>
        <time>2022-10-26T11:40:48Z</time>
      </trkpt>
      <trkpt lat="10.282701" lon="-67.722793">
        <ele>440.80</ele>
        <time>2022-10-26T11:40:49Z</time>
      </trkpt>
      <trkpt lat="10.282709" lon="-67.722855">
        <ele>440.80</ele>
        <time>2022-10-26T11:40:50Z</time>
      </trkpt>
      <trkpt lat="10.282717" lon="-67.722915">
        <ele>440.70</ele>
        <time>2022-10-26T11:40:51Z</time>
      </trkpt>
      <trkpt lat="10.282724" lon="-67.722974">
        <ele>440.70</ele>
        <time>2022-10-26T11:40:52Z</time>
      </trkpt>
      <trkpt lat="10.282727" lon="-67.723035">
        <ele>440.60</ele>
        <time>2022-10-26T11:40:53Z</time>
      </trkpt>
      <trkpt lat="10.282728" lon="-67.723097">
        <ele>440.60</ele>
        <time>2022-10-26T11:40:54Z</time>
      </trkpt>
      <trkpt lat="10.282729" lon="-67.723162">
        <ele>440.50</ele>
        <time>2022-10-26T11:40:55Z</time>
      </trkpt>
      <trkpt lat="10.282732" lon="-67.723225">
        <ele>440.40</ele>
        <time>2022-10-26T11:40:56Z</time>
      </trkpt>
      <trkpt lat="10.282735" lon="-67.723289">
        <ele>440.40</ele>
        <time>2022-10-26T11:40:57Z</time>
      </trkpt>
      <trkpt lat="10.282743" lon="-67.723356">
        <ele>440.30</ele>
        <time>2022-10-26T11:40:58Z</time>
      </trkpt>
      <trkpt lat="10.282754" lon="-67.723422">
        <ele>440.20</ele>
        <time>2022-10-26T11:40:59Z</time>
      </trkpt>
      <trkpt lat="10.282767" lon="-67.723491">
        <ele>440.20</ele>
        <time>2022-10-26T11:41:00Z</time>
      </trkpt>
      <trkpt lat="10.282782" lon="-67.723560">
        <ele>440.10</ele>
        <time>2022-10-26T11:41:01Z</time>
      </trkpt>
      <trkpt lat="10.282801" lon="-67.723632">
        <ele>440.00</ele>
        <time>2022-10-26T11:41:02Z</time>
      </trkpt>
      <trkpt lat="10.282819" lon="-67.723702">
        <ele>439.90</ele>
        <time>2022-10-26T11:41:03Z</time>
      </trkpt>
      <trkpt lat="10.282835" lon="-67.723772">
        <ele>439.80</ele>
        <time>2022-10-26T11:41:04Z</time>
      </trkpt>
      <trkpt lat="10.282848" lon="-67.723839">
        <ele>439.70</ele>
        <time>2022-10-26T11:41:05Z</time>
      </trkpt>
      <trkpt lat="10.282857" lon="-67.723907">
        <ele>439.60</ele>
        <time>2022-10-26T11:41:06Z</time>
      </trkpt>
      <trkpt lat="10.282866" lon="-67.723976">
        <ele>439.50</ele>
        <time>2022-10-26T11:41:07Z</time>
      </trkpt>
      <trkpt lat="10.282875" lon="-67.724045">
        <ele>439.50</ele>
        <time>2022-10-26T11:41:08Z</time>
      </trkpt>
      <trkpt lat="10.282882" lon="-67.724116">
        <ele>439.40</ele>
        <time>2022-10-26T11:41:09Z</time>
      </trkpt>
      <trkpt lat="10.282891" lon="-67.724184">
        <ele>439.30</ele>
        <time>2022-10-26T11:41:10Z</time>
      </trkpt>
      <trkpt lat="10.282896" lon="-67.724253">
        <ele>439.20</ele>
        <time>2022-10-26T11:41:11Z</time>
      </trkpt>
      <trkpt lat="10.282902" lon="-67.724322">
        <ele>439.10</ele>
        <time>2022-10-26T11:41:12Z</time>
      </trkpt>
      <trkpt lat="10.282910" lon="-67.724390">
        <ele>439.00</ele>
        <time>2022-10-26T11:41:13Z</time>
      </trkpt>
      <trkpt lat="10.282918" lon="-67.724457">
        <ele>439.00</ele>
        <time>2022-10-26T11:41:14Z</time>
      </trkpt>
      <trkpt lat="10.282925" lon="-67.724526">
        <ele>438.90</ele>
        <time>2022-10-26T11:41:15Z</time>
      </trkpt>
      <trkpt lat="10.282933" lon="-67.724596">
        <ele>438.80</ele>
        <time>2022-10-26T11:41:16Z</time>
      </trkpt>
      <trkpt lat="10.282940" lon="-67.724666">
        <ele>438.70</ele>
        <time>2022-10-26T11:41:17Z</time>
      </trkpt>
      <trkpt lat="10.282948" lon="-67.724737">
        <ele>438.70</ele>
        <time>2022-10-26T11:41:18Z</time>
      </trkpt>
      <trkpt lat="10.282957" lon="-67.724808">
        <ele>438.60</ele>
        <time>2022-10-26T11:41:19Z</time>
      </trkpt>
      <trkpt lat="10.282969" lon="-67.724877">
        <ele>438.50</ele>
        <time>2022-10-26T11:41:20Z</time>
      </trkpt>
      <trkpt lat="10.282984" lon="-67.724945">
        <ele>438.40</ele>
        <time>2022-10-26T11:41:21Z</time>
      </trkpt>
      <trkpt lat="10.282999" lon="-67.725013">
        <ele>438.30</ele>
        <time>2022-10-26T11:41:22Z</time>
      </trkpt>
      <trkpt lat="10.283011" lon="-67.725084">
        <ele>438.20</ele>
        <time>2022-10-26T11:41:23Z</time>
      </trkpt>
      <trkpt lat="10.283023" lon="-67.725160">
        <ele>438.10</ele>
        <time>2022-10-26T11:41:24Z</time>
      </trkpt>
      <trkpt lat="10.283034" lon="-67.725236">
        <ele>438.00</ele>
        <time>2022-10-26T11:41:25Z</time>
      </trkpt>
      <trkpt lat="10.283045" lon="-67.725311">
        <ele>437.90</ele>
        <time>2022-10-26T11:41:26Z</time>
      </trkpt>
      <trkpt lat="10.283056" lon="-67.725382">
        <ele>437.80</ele>
        <time>2022-10-26T11:41:27Z</time>
      </trkpt>
      <trkpt lat="10.283061" lon="-67.725454">
        <ele>437.80</ele>
        <time>2022-10-26T11:41:28Z</time>
      </trkpt>
      <trkpt lat="10.283062" lon="-67.725524">
        <ele>437.70</ele>
        <time>2022-10-26T11:41:29Z</time>
      </trkpt>
      <trkpt lat="10.283061" lon="-67.725594">
        <ele>437.60</ele>
        <time>2022-10-26T11:41:30Z</time>
      </trkpt>
      <trkpt lat="10.283065" lon="-67.725663">
        <ele>437.50</ele>
        <time>2022-10-26T11:41:31Z</time>
      </trkpt>
      <trkpt lat="10.283073" lon="-67.725731">
        <ele>437.40</ele>
        <time>2022-10-26T11:41:32Z</time>
      </trkpt>
      <trkpt lat="10.283089" lon="-67.725799">
        <ele>437.30</ele>
        <time>2022-10-26T11:41:33Z</time>
      </trkpt>
      <trkpt lat="10.283108" lon="-67.725869">
        <ele>437.20</ele>
        <time>2022-10-26T11:41:34Z</time>
      </trkpt>
      <trkpt lat="10.283125" lon="-67.725938">
        <ele>437.00</ele>
        <time>2022-10-26T11:41:35Z</time>
      </trkpt>
      <trkpt lat="10.283137" lon="-67.726006">
        <ele>436.90</ele>
        <time>2022-10-26T11:41:36Z</time>
      </trkpt>
      <trkpt lat="10.283145" lon="-67.726074">
        <ele>436.80</ele>
        <time>2022-10-26T11:41:37Z</time>
      </trkpt>
      <trkpt lat="10.283150" lon="-67.726141">
        <ele>436.70</ele>
        <time>2022-10-26T11:41:38Z</time>
      </trkpt>
      <trkpt lat="10.283156" lon="-67.726209">
        <ele>436.60</ele>
        <time>2022-10-26T11:41:39Z</time>
      </trkpt>
      <trkpt lat="10.283165" lon="-67.726276">
        <ele>436.40</ele>
        <time>2022-10-26T11:41:40Z</time>
      </trkpt>
      <trkpt lat="10.283176" lon="-67.726345">
        <ele>436.30</ele>
        <time>2022-10-26T11:41:41Z</time>
      </trkpt>
      <trkpt lat="10.283187" lon="-67.726413">
        <ele>436.20</ele>
        <time>2022-10-26T11:41:42Z</time>
      </trkpt>
      <trkpt lat="10.283197" lon="-67.726482">
        <ele>436.10</ele>
        <time>2022-10-26T11:41:43Z</time>
      </trkpt>
      <trkpt lat="10.283206" lon="-67.726555">
        <ele>436.00</ele>
        <time>2022-10-26T11:41:44Z</time>
      </trkpt>
      <trkpt lat="10.283213" lon="-67.726628">
        <ele>435.90</ele>
        <time>2022-10-26T11:41:45Z</time>
      </trkpt>
      <trkpt lat="10.283217" lon="-67.726702">
        <ele>435.80</ele>
        <time>2022-10-26T11:41:46Z</time>
      </trkpt>
      <trkpt lat="10.283223" lon="-67.726773">
        <ele>435.80</ele>
        <time>2022-10-26T11:41:47Z</time>
      </trkpt>
      <trkpt lat="10.283229" lon="-67.726843">
        <ele>435.70</ele>
        <time>2022-10-26T11:41:48Z</time>
      </trkpt>
      <trkpt lat="10.283236" lon="-67.726913">
        <ele>435.60</ele>
        <time>2022-10-26T11:41:49Z</time>
      </trkpt>
      <trkpt lat="10.283244" lon="-67.726983">
        <ele>435.50</ele>
        <time>2022-10-26T11:41:50Z</time>
      </trkpt>
      <trkpt lat="10.283249" lon="-67.727053">
        <ele>435.50</ele>
        <time>2022-10-26T11:41:51Z</time>
      </trkpt>
      <trkpt lat="10.283254" lon="-67.727125">
        <ele>435.40</ele>
        <time>2022-10-26T11:41:52Z</time>
      </trkpt>
      <trkpt lat="10.283262" lon="-67.727198">
        <ele>435.30</ele>
        <time>2022-10-26T11:41:53Z</time>
      </trkpt>
      <trkpt lat="10.283269" lon="-67.727270">
        <ele>435.20</ele>
        <time>2022-10-26T11:41:54Z</time>
      </trkpt>
      <trkpt lat="10.283276" lon="-67.727339">
        <ele>435.10</ele>
        <time>2022-10-26T11:41:55Z</time>
      </trkpt>
      <trkpt lat="10.283286" lon="-67.727409">
        <ele>435.10</ele>
        <time>2022-10-26T11:41:56Z</time>
      </trkpt>
      <trkpt lat="10.283297" lon="-67.727480">
        <ele>435.00</ele>
        <time>2022-10-26T11:41:57Z</time>
      </trkpt>
      <trkpt lat="10.283304" lon="-67.727551">
        <ele>434.90</ele>
        <time>2022-10-26T11:41:58Z</time>
      </trkpt>
      <trkpt lat="10.283307" lon="-67.727623">
        <ele>434.80</ele>
        <time>2022-10-26T11:41:59Z</time>
      </trkpt>
      <trkpt lat="10.283312" lon="-67.727694">
        <ele>434.70</ele>
        <time>2022-10-26T11:42:00Z</time>
      </trkpt>
      <trkpt lat="10.283316" lon="-67.727766">
        <ele>434.60</ele>
        <time>2022-10-26T11:42:01Z</time>
      </trkpt>
      <trkpt lat="10.283322" lon="-67.727837">
        <ele>434.50</ele>
        <time>2022-10-26T11:42:02Z</time>
      </trkpt>
      <trkpt lat="10.283330" lon="-67.727908">
        <ele>434.40</ele>
        <time>2022-10-26T11:42:03Z</time>
      </trkpt>
      <trkpt lat="10.283338" lon="-67.727981">
        <ele>434.30</ele>
        <time>2022-10-26T11:42:04Z</time>
      </trkpt>
      <trkpt lat="10.283345" lon="-67.728054">
        <ele>434.20</ele>
        <time>2022-10-26T11:42:05Z</time>
      </trkpt>
      <trkpt lat="10.283352" lon="-67.728127">
        <ele>434.10</ele>
        <time>2022-10-26T11:42:06Z</time>
      </trkpt>
      <trkpt lat="10.283361" lon="-67.728199">
        <ele>434.00</ele>
        <time>2022-10-26T11:42:07Z</time>
      </trkpt>
      <trkpt lat="10.283368" lon="-67.728275">
        <ele>433.90</ele>
        <time>2022-10-26T11:42:08Z</time>
      </trkpt>
      <trkpt lat="10.283378" lon="-67.728349">
        <ele>433.70</ele>
        <time>2022-10-26T11:42:09Z</time>
      </trkpt>
      <trkpt lat="10.283389" lon="-67.728423">
        <ele>433.70</ele>
        <time>2022-10-26T11:42:10Z</time>
      </trkpt>
      <trkpt lat="10.283400" lon="-67.728498">
        <ele>433.60</ele>
        <time>2022-10-26T11:42:11Z</time>
      </trkpt>
      <trkpt lat="10.283410" lon="-67.728573">
        <ele>433.50</ele>
        <time>2022-10-26T11:42:12Z</time>
      </trkpt>
      <trkpt lat="10.283421" lon="-67.728649">
        <ele>433.40</ele>
        <time>2022-10-26T11:42:13Z</time>
      </trkpt>
      <trkpt lat="10.283430" lon="-67.728720">
        <ele>433.30</ele>
        <time>2022-10-26T11:42:14Z</time>
      </trkpt>
      <trkpt lat="10.283439" lon="-67.728788">
        <ele>433.30</ele>
        <time>2022-10-26T11:42:15Z</time>
      </trkpt>
      <trkpt lat="10.283451" lon="-67.728861">
        <ele>433.20</ele>
        <time>2022-10-26T11:42:16Z</time>
      </trkpt>
      <trkpt lat="10.283462" lon="-67.728932">
        <ele>433.10</ele>
        <time>2022-10-26T11:42:17Z</time>
      </trkpt>
      <trkpt lat="10.283470" lon="-67.729007">
        <ele>433.10</ele>
        <time>2022-10-26T11:42:18Z</time>
      </trkpt>
      <trkpt lat="10.283478" lon="-67.729082">
        <ele>433.00</ele>
        <time>2022-10-26T11:42:19Z</time>
      </trkpt>
      <trkpt lat="10.283487" lon="-67.729156">
        <ele>433.00</ele>
        <time>2022-10-26T11:42:20Z</time>
      </trkpt>
      <trkpt lat="10.283494" lon="-67.729227">
        <ele>433.00</ele>
        <time>2022-10-26T11:42:21Z</time>
      </trkpt>
      <trkpt lat="10.283500" lon="-67.729298">
        <ele>433.00</ele>
        <time>2022-10-26T11:42:22Z</time>
      </trkpt>
      <trkpt lat="10.283507" lon="-67.729370">
        <ele>433.00</ele>
        <time>2022-10-26T11:42:23Z</time>
      </trkpt>
      <trkpt lat="10.283514" lon="-67.729441">
        <ele>433.00</ele>
        <time>2022-10-26T11:42:24Z</time>
      </trkpt>
      <trkpt lat="10.283522" lon="-67.729511">
        <ele>433.00</ele>
        <time>2022-10-26T11:42:25Z</time>
      </trkpt>
      <trkpt lat="10.283530" lon="-67.729583">
        <ele>433.00</ele>
        <time>2022-10-26T11:42:26Z</time>
      </trkpt>
      <trkpt lat="10.283539" lon="-67.729656">
        <ele>433.00</ele>
        <time>2022-10-26T11:42:27Z</time>
      </trkpt>
      <trkpt lat="10.283548" lon="-67.729727">
        <ele>433.10</ele>
        <time>2022-10-26T11:42:28Z</time>
      </trkpt>
      <trkpt lat="10.283555" lon="-67.729796">
        <ele>433.10</ele>
        <time>2022-10-26T11:42:29Z</time>
      </trkpt>
      <trkpt lat="10.283561" lon="-67.729866">
        <ele>433.10</ele>
        <time>2022-10-26T11:42:30Z</time>
      </trkpt>
      <trkpt lat="10.283570" lon="-67.729935">
        <ele>433.10</ele>
        <time>2022-10-26T11:42:31Z</time>
      </trkpt>
      <trkpt lat="10.283579" lon="-67.730002">
        <ele>433.10</ele>
        <time>2022-10-26T11:42:32Z</time>
      </trkpt>
      <trkpt lat="10.283591" lon="-67.730071">
        <ele>433.10</ele>
        <time>2022-10-26T11:42:33Z</time>
      </trkpt>
      <trkpt lat="10.283603" lon="-67.730139">
        <ele>433.10</ele>
        <time>2022-10-26T11:42:34Z</time>
      </trkpt>
      <trkpt lat="10.283613" lon="-67.730204">
        <ele>433.10</ele>
        <time>2022-10-26T11:42:35Z</time>
      </trkpt>
      <trkpt lat="10.283622" lon="-67.730267">
        <ele>433.10</ele>
        <time>2022-10-26T11:42:36Z</time>
      </trkpt>
      <trkpt lat="10.283630" lon="-67.730330">
        <ele>433.10</ele>
        <time>2022-10-26T11:42:37Z</time>
      </trkpt>
      <trkpt lat="10.283638" lon="-67.730394">
        <ele>433.20</ele>
        <time>2022-10-26T11:42:38Z</time>
      </trkpt>
      <trkpt lat="10.283645" lon="-67.730458">
        <ele>433.20</ele>
        <time>2022-10-26T11:42:39Z</time>
      </trkpt>
      <trkpt lat="10.283654" lon="-67.730523">
        <ele>433.20</ele>
        <time>2022-10-26T11:42:40Z</time>
      </trkpt>
      <trkpt lat="10.283662" lon="-67.730589">
        <ele>433.20</ele>
        <time>2022-10-26T11:42:41Z</time>
      </trkpt>
      <trkpt lat="10.283667" lon="-67.730653">
        <ele>433.20</ele>
        <time>2022-10-26T11:42:42Z</time>
      </trkpt>
      <trkpt lat="10.283673" lon="-67.730717">
        <ele>433.20</ele>
        <time>2022-10-26T11:42:43Z</time>
      </trkpt>
      <trkpt lat="10.283681" lon="-67.730783">
        <ele>433.20</ele>
        <time>2022-10-26T11:42:44Z</time>
      </trkpt>
      <trkpt lat="10.283691" lon="-67.730851">
        <ele>433.20</ele>
        <time>2022-10-26T11:42:45Z</time>
      </trkpt>
      <trkpt lat="10.283702" lon="-67.730916">
        <ele>433.20</ele>
        <time>2022-10-26T11:42:46Z</time>
      </trkpt>
      <trkpt lat="10.283713" lon="-67.730983">
        <ele>433.30</ele>
        <time>2022-10-26T11:42:47Z</time>
      </trkpt>
      <trkpt lat="10.283728" lon="-67.731049">
        <ele>433.30</ele>
        <time>2022-10-26T11:42:48Z</time>
      </trkpt>
      <trkpt lat="10.283733" lon="-67.731117">
        <ele>433.40</ele>
        <time>2022-10-26T11:42:49Z</time>
      </trkpt>
      <trkpt lat="10.283733" lon="-67.731183">
        <ele>433.50</ele>
        <time>2022-10-26T11:42:50Z</time>
      </trkpt>
      <trkpt lat="10.283736" lon="-67.731251">
        <ele>433.60</ele>
        <time>2022-10-26T11:42:51Z</time>
      </trkpt>
      <trkpt lat="10.283741" lon="-67.731321">
        <ele>433.60</ele>
        <time>2022-10-26T11:42:52Z</time>
      </trkpt>
      <trkpt lat="10.283746" lon="-67.731395">
        <ele>433.60</ele>
        <time>2022-10-26T11:42:53Z</time>
      </trkpt>
      <trkpt lat="10.283751" lon="-67.731466">
        <ele>433.60</ele>
        <time>2022-10-26T11:42:54Z</time>
      </trkpt>
      <trkpt lat="10.283755" lon="-67.731536">
        <ele>433.60</ele>
        <time>2022-10-26T11:42:55Z</time>
      </trkpt>
      <trkpt lat="10.283760" lon="-67.731606">
        <ele>433.60</ele>
        <time>2022-10-26T11:42:56Z</time>
      </trkpt>
      <trkpt lat="10.283762" lon="-67.731676">
        <ele>433.60</ele>
        <time>2022-10-26T11:42:57Z</time>
      </trkpt>
      <trkpt lat="10.283763" lon="-67.731742">
        <ele>433.70</ele>
        <time>2022-10-26T11:42:58Z</time>
      </trkpt>
      <trkpt lat="10.283763" lon="-67.731809">
        <ele>433.70</ele>
        <time>2022-10-26T11:42:59Z</time>
      </trkpt>
      <trkpt lat="10.283761" lon="-67.731875">
        <ele>433.70</ele>
        <time>2022-10-26T11:43:00Z</time>
      </trkpt>
      <trkpt lat="10.283762" lon="-67.731943">
        <ele>433.70</ele>
        <time>2022-10-26T11:43:01Z</time>
      </trkpt>
      <trkpt lat="10.283769" lon="-67.732009">
        <ele>433.70</ele>
        <time>2022-10-26T11:43:02Z</time>
      </trkpt>
      <trkpt lat="10.283780" lon="-67.732075">
        <ele>433.70</ele>
        <time>2022-10-26T11:43:03Z</time>
      </trkpt>
      <trkpt lat="10.283792" lon="-67.732142">
        <ele>433.70</ele>
        <time>2022-10-26T11:43:04Z</time>
      </trkpt>
      <trkpt lat="10.283801" lon="-67.732208">
        <ele>433.70</ele>
        <time>2022-10-26T11:43:05Z</time>
      </trkpt>
      <trkpt lat="10.283806" lon="-67.732274">
        <ele>433.70</ele>
        <time>2022-10-26T11:43:06Z</time>
      </trkpt>
      <trkpt lat="10.283805" lon="-67.732338">
        <ele>433.60</ele>
        <time>2022-10-26T11:43:07Z</time>
      </trkpt>
      <trkpt lat="10.283805" lon="-67.732402">
        <ele>433.60</ele>
        <time>2022-10-26T11:43:08Z</time>
      </trkpt>
      <trkpt lat="10.283803" lon="-67.732469">
        <ele>433.60</ele>
        <time>2022-10-26T11:43:09Z</time>
      </trkpt>
      <trkpt lat="10.283801" lon="-67.732536">
        <ele>433.60</ele>
        <time>2022-10-26T11:43:10Z</time>
      </trkpt>
      <trkpt lat="10.283798" lon="-67.732603">
        <ele>433.60</ele>
        <time>2022-10-26T11:43:11Z</time>
      </trkpt>
      <trkpt lat="10.283797" lon="-67.732668">
        <ele>433.60</ele>
        <time>2022-10-26T11:43:12Z</time>
      </trkpt>
      <trkpt lat="10.283801" lon="-67.732729">
        <ele>433.60</ele>
        <time>2022-10-26T11:43:13Z</time>
      </trkpt>
      <trkpt lat="10.283803" lon="-67.732793">
        <ele>433.60</ele>
        <time>2022-10-26T11:43:14Z</time>
      </trkpt>
      <trkpt lat="10.283805" lon="-67.732857">
        <ele>433.60</ele>
        <time>2022-10-26T11:43:15Z</time>
      </trkpt>
      <trkpt lat="10.283802" lon="-67.732921">
        <ele>433.60</ele>
        <time>2022-10-26T11:43:16Z</time>
      </trkpt>
      <trkpt lat="10.283801" lon="-67.732986">
        <ele>433.60</ele>
        <time>2022-10-26T11:43:17Z</time>
      </trkpt>
      <trkpt lat="10.283795" lon="-67.733052">
        <ele>433.60</ele>
        <time>2022-10-26T11:43:18Z</time>
      </trkpt>
      <trkpt lat="10.283789" lon="-67.733117">
        <ele>433.60</ele>
        <time>2022-10-26T11:43:19Z</time>
      </trkpt>
      <trkpt lat="10.283782" lon="-67.733178">
        <ele>433.60</ele>
        <time>2022-10-26T11:43:20Z</time>
      </trkpt>
      <trkpt lat="10.283774" lon="-67.733235">
        <ele>433.60</ele>
        <time>2022-10-26T11:43:21Z</time>
      </trkpt>
      <trkpt lat="10.283767" lon="-67.733293">
        <ele>433.60</ele>
        <time>2022-10-26T11:43:22Z</time>
      </trkpt>
      <trkpt lat="10.283760" lon="-67.733353">
        <ele>433.60</ele>
        <time>2022-10-26T11:43:23Z</time>
      </trkpt>
      <trkpt lat="10.283752" lon="-67.733415">
        <ele>433.60</ele>
        <time>2022-10-26T11:43:24Z</time>
      </trkpt>
      <trkpt lat="10.283745" lon="-67.733475">
        <ele>433.60</ele>
        <time>2022-10-26T11:43:25Z</time>
      </trkpt>
      <trkpt lat="10.283740" lon="-67.733538">
        <ele>433.60</ele>
        <time>2022-10-26T11:43:26Z</time>
      </trkpt>
      <trkpt lat="10.283736" lon="-67.733600">
        <ele>433.60</ele>
        <time>2022-10-26T11:43:27Z</time>
      </trkpt>
      <trkpt lat="10.283732" lon="-67.733661">
        <ele>433.60</ele>
        <time>2022-10-26T11:43:28Z</time>
      </trkpt>
      <trkpt lat="10.283728" lon="-67.733718">
        <ele>433.50</ele>
        <time>2022-10-26T11:43:29Z</time>
      </trkpt>
      <trkpt lat="10.283719" lon="-67.733777">
        <ele>433.50</ele>
        <time>2022-10-26T11:43:30Z</time>
      </trkpt>
      <trkpt lat="10.283710" lon="-67.733837">
        <ele>433.50</ele>
        <time>2022-10-26T11:43:31Z</time>
      </trkpt>
      <trkpt lat="10.283702" lon="-67.733899">
        <ele>433.50</ele>
        <time>2022-10-26T11:43:32Z</time>
      </trkpt>
      <trkpt lat="10.283693" lon="-67.733962">
        <ele>433.50</ele>
        <time>2022-10-26T11:43:33Z</time>
      </trkpt>
      <trkpt lat="10.283681" lon="-67.734024">
        <ele>433.50</ele>
        <time>2022-10-26T11:43:34Z</time>
      </trkpt>
      <trkpt lat="10.283672" lon="-67.734085">
        <ele>433.50</ele>
        <time>2022-10-26T11:43:35Z</time>
      </trkpt>
      <trkpt lat="10.283664" lon="-67.734149">
        <ele>433.50</ele>
        <time>2022-10-26T11:43:36Z</time>
      </trkpt>
      <trkpt lat="10.283657" lon="-67.734211">
        <ele>433.50</ele>
        <time>2022-10-26T11:43:37Z</time>
      </trkpt>
      <trkpt lat="10.283645" lon="-67.734273">
        <ele>433.40</ele>
        <time>2022-10-26T11:43:38Z</time>
      </trkpt>
      <trkpt lat="10.283630" lon="-67.734333">
        <ele>433.40</ele>
        <time>2022-10-26T11:43:39Z</time>
      </trkpt>
      <trkpt lat="10.283613" lon="-67.734394">
        <ele>433.40</ele>
        <time>2022-10-26T11:43:40Z</time>
      </trkpt>
      <trkpt lat="10.283595" lon="-67.734454">
        <ele>433.40</ele>
        <time>2022-10-26T11:43:41Z</time>
      </trkpt>
      <trkpt lat="10.283576" lon="-67.734514">
        <ele>433.40</ele>
        <time>2022-10-26T11:43:42Z</time>
      </trkpt>
      <trkpt lat="10.283556" lon="-67.734573">
        <ele>433.40</ele>
        <time>2022-10-26T11:43:43Z</time>
      </trkpt>
      <trkpt lat="10.283540" lon="-67.734634">
        <ele>433.40</ele>
        <time>2022-10-26T11:43:44Z</time>
      </trkpt>
      <trkpt lat="10.283523" lon="-67.734697">
        <ele>433.30</ele>
        <time>2022-10-26T11:43:45Z</time>
      </trkpt>
      <trkpt lat="10.283507" lon="-67.734755">
        <ele>433.30</ele>
        <time>2022-10-26T11:43:46Z</time>
      </trkpt>
      <trkpt lat="10.283491" lon="-67.734810">
        <ele>433.30</ele>
        <time>2022-10-26T11:43:47Z</time>
      </trkpt>
      <trkpt lat="10.283474" lon="-67.734867">
        <ele>433.30</ele>
        <time>2022-10-26T11:43:48Z</time>
      </trkpt>
      <trkpt lat="10.283456" lon="-67.734919">
        <ele>433.30</ele>
        <time>2022-10-26T11:43:49Z</time>
      </trkpt>
      <trkpt lat="10.283439" lon="-67.734966">
        <ele>433.30</ele>
        <time>2022-10-26T11:43:50Z</time>
      </trkpt>
      <trkpt lat="10.283422" lon="-67.735011">
        <ele>433.20</ele>
        <time>2022-10-26T11:43:51Z</time>
      </trkpt>
      <trkpt lat="10.283403" lon="-67.735056">
        <ele>433.20</ele>
        <time>2022-10-26T11:43:52Z</time>
      </trkpt>
      <trkpt lat="10.283384" lon="-67.735102">
        <ele>433.20</ele>
        <time>2022-10-26T11:43:53Z</time>
      </trkpt>
      <trkpt lat="10.283368" lon="-67.735151">
        <ele>433.10</ele>
        <time>2022-10-26T11:43:54Z</time>
      </trkpt>
      <trkpt lat="10.283352" lon="-67.735203">
        <ele>433.10</ele>
        <time>2022-10-26T11:43:55Z</time>
      </trkpt>
      <trkpt lat="10.283338" lon="-67.735254">
        <ele>433.00</ele>
        <time>2022-10-26T11:43:56Z</time>
      </trkpt>
      <trkpt lat="10.283326" lon="-67.735304">
        <ele>433.00</ele>
        <time>2022-10-26T11:43:57Z</time>
      </trkpt>
      <trkpt lat="10.283312" lon="-67.735356">
        <ele>433.00</ele>
        <time>2022-10-26T11:43:58Z</time>
      </trkpt>
      <trkpt lat="10.283296" lon="-67.735408">
        <ele>432.90</ele>
        <time>2022-10-26T11:43:59Z</time>
      </trkpt>
      <trkpt lat="10.283276" lon="-67.735461">
        <ele>432.90</ele>
        <time>2022-10-26T11:44:00Z</time>
      </trkpt>
      <trkpt lat="10.283255" lon="-67.735516">
        <ele>432.90</ele>
        <time>2022-10-26T11:44:01Z</time>
      </trkpt>
      <trkpt lat="10.283236" lon="-67.735573">
        <ele>432.80</ele>
        <time>2022-10-26T11:44:02Z</time>
      </trkpt>
      <trkpt lat="10.283217" lon="-67.735631">
        <ele>432.80</ele>
        <time>2022-10-26T11:44:03Z</time>
      </trkpt>
      <trkpt lat="10.283199" lon="-67.735691">
        <ele>432.70</ele>
        <time>2022-10-26T11:44:04Z</time>
      </trkpt>
      <trkpt lat="10.283178" lon="-67.735753">
        <ele>432.70</ele>
        <time>2022-10-26T11:44:05Z</time>
      </trkpt>
      <trkpt lat="10.283156" lon="-67.735818">
        <ele>432.60</ele>
        <time>2022-10-26T11:44:06Z</time>
      </trkpt>
      <trkpt lat="10.283137" lon="-67.735877">
        <ele>432.60</ele>
        <time>2022-10-26T11:44:07Z</time>
      </trkpt>
      <trkpt lat="10.283120" lon="-67.735937">
        <ele>432.50</ele>
        <time>2022-10-26T11:44:08Z</time>
      </trkpt>
      <trkpt lat="10.283101" lon="-67.735993">
        <ele>432.50</ele>
        <time>2022-10-26T11:44:09Z</time>
      </trkpt>
      <trkpt lat="10.283079" lon="-67.736049">
        <ele>432.40</ele>
        <time>2022-10-26T11:44:10Z</time>
      </trkpt>
      <trkpt lat="10.283056" lon="-67.736101">
        <ele>432.40</ele>
        <time>2022-10-26T11:44:11Z</time>
      </trkpt>
      <trkpt lat="10.283034" lon="-67.736149">
        <ele>432.40</ele>
        <time>2022-10-26T11:44:12Z</time>
      </trkpt>
      <trkpt lat="10.283015" lon="-67.736196">
        <ele>432.30</ele>
        <time>2022-10-26T11:44:13Z</time>
      </trkpt>
      <trkpt lat="10.282997" lon="-67.736243">
        <ele>432.30</ele>
        <time>2022-10-26T11:44:14Z</time>
      </trkpt>
      <trkpt lat="10.282983" lon="-67.736289">
        <ele>432.30</ele>
        <time>2022-10-26T11:44:15Z</time>
      </trkpt>
      <trkpt lat="10.282971" lon="-67.736335">
        <ele>432.30</ele>
        <time>2022-10-26T11:44:16Z</time>
      </trkpt>
      <trkpt lat="10.282960" lon="-67.736380">
        <ele>432.20</ele>
        <time>2022-10-26T11:44:17Z</time>
      </trkpt>
      <trkpt lat="10.282948" lon="-67.736426">
        <ele>432.20</ele>
        <time>2022-10-26T11:44:18Z</time>
      </trkpt>
      <trkpt lat="10.282936" lon="-67.736471">
        <ele>432.20</ele>
        <time>2022-10-26T11:44:19Z</time>
      </trkpt>
      <trkpt lat="10.282922" lon="-67.736513">
        <ele>432.10</ele>
        <time>2022-10-26T11:44:20Z</time>
      </trkpt>
      <trkpt lat="10.282908" lon="-67.736556">
        <ele>432.10</ele>
        <time>2022-10-26T11:44:21Z</time>
      </trkpt>
      <trkpt lat="10.282893" lon="-67.736601">
        <ele>432.10</ele>
        <time>2022-10-26T11:44:22Z</time>
      </trkpt>
      <trkpt lat="10.282878" lon="-67.736648">
        <ele>432.00</ele>
        <time>2022-10-26T11:44:23Z</time>
      </trkpt>
      <trkpt lat="10.282866" lon="-67.736694">
        <ele>432.00</ele>
        <time>2022-10-26T11:44:24Z</time>
      </trkpt>
      <trkpt lat="10.282853" lon="-67.736738">
        <ele>432.00</ele>
        <time>2022-10-26T11:44:25Z</time>
      </trkpt>
      <trkpt lat="10.282837" lon="-67.736781">
        <ele>432.00</ele>
        <time>2022-10-26T11:44:26Z</time>
      </trkpt>
      <trkpt lat="10.282822" lon="-67.736824">
        <ele>432.00</ele>
        <time>2022-10-26T11:44:27Z</time>
      </trkpt>
      <trkpt lat="10.282805" lon="-67.736869">
        <ele>432.00</ele>
        <time>2022-10-26T11:44:28Z</time>
      </trkpt>
      <trkpt lat="10.282789" lon="-67.736910">
        <ele>432.00</ele>
        <time>2022-10-26T11:44:29Z</time>
      </trkpt>
      <trkpt lat="10.282774" lon="-67.736955">
        <ele>432.00</ele>
        <time>2022-10-26T11:44:30Z</time>
      </trkpt>
      <trkpt lat="10.282759" lon="-67.737001">
        <ele>432.00</ele>
        <time>2022-10-26T11:44:31Z</time>
      </trkpt>
      <trkpt lat="10.282745" lon="-67.737046">
        <ele>432.10</ele>
        <time>2022-10-26T11:44:32Z</time>
      </trkpt>
      <trkpt lat="10.282730" lon="-67.737090">
        <ele>432.10</ele>
        <time>2022-10-26T11:44:33Z</time>
      </trkpt>
      <trkpt lat="10.282712" lon="-67.737133">
        <ele>432.10</ele>
        <time>2022-10-26T11:44:34Z</time>
      </trkpt>
      <trkpt lat="10.282692" lon="-67.737176">
        <ele>432.10</ele>
        <time>2022-10-26T11:44:35Z</time>
      </trkpt>
      <trkpt lat="10.282674" lon="-67.737222">
        <ele>432.10</ele>
        <time>2022-10-26T11:44:36Z</time>
      </trkpt>
      <trkpt lat="10.282658" lon="-67.737268">
        <ele>432.10</ele>
        <time>2022-10-26T11:44:37Z</time>
      </trkpt>
      <trkpt lat="10.282645" lon="-67.737317">
        <ele>432.10</ele>
        <time>2022-10-26T11:44:38Z</time>
      </trkpt>
      <trkpt lat="10.282630" lon="-67.737366">
        <ele>432.10</ele>
        <time>2022-10-26T11:44:39Z</time>
      </trkpt>
      <trkpt lat="10.282615" lon="-67.737414">
        <ele>432.10</ele>
        <time>2022-10-26T11:44:40Z</time>
      </trkpt>
      <trkpt lat="10.282598" lon="-67.737461">
        <ele>432.10</ele>
        <time>2022-10-26T11:44:41Z</time>
      </trkpt>
      <trkpt lat="10.282583" lon="-67.737506">
        <ele>432.10</ele>
        <time>2022-10-26T11:44:42Z</time>
      </trkpt>
      <trkpt lat="10.282566" lon="-67.737552">
        <ele>432.20</ele>
        <time>2022-10-26T11:44:43Z</time>
      </trkpt>
      <trkpt lat="10.282549" lon="-67.737596">
        <ele>432.20</ele>
        <time>2022-10-26T11:44:44Z</time>
      </trkpt>
      <trkpt lat="10.282532" lon="-67.737639">
        <ele>432.30</ele>
        <time>2022-10-26T11:44:45Z</time>
      </trkpt>
      <trkpt lat="10.282515" lon="-67.737683">
        <ele>432.30</ele>
        <time>2022-10-26T11:44:46Z</time>
      </trkpt>
      <trkpt lat="10.282495" lon="-67.737731">
        <ele>432.40</ele>
        <time>2022-10-26T11:44:47Z</time>
      </trkpt>
      <trkpt lat="10.282476" lon="-67.737779">
        <ele>432.40</ele>
        <time>2022-10-26T11:44:48Z</time>
      </trkpt>
      <trkpt lat="10.282460" lon="-67.737825">
        <ele>432.50</ele>
        <time>2022-10-26T11:44:49Z</time>
      </trkpt>
      <trkpt lat="10.282445" lon="-67.737869">
        <ele>432.50</ele>
        <time>2022-10-26T11:44:50Z</time>
      </trkpt>
      <trkpt lat="10.282430" lon="-67.737913">
        <ele>432.60</ele>
        <time>2022-10-26T11:44:51Z</time>
      </trkpt>
      <trkpt lat="10.282417" lon="-67.737958">
        <ele>432.60</ele>
        <time>2022-10-26T11:44:52Z</time>
      </trkpt>
      <trkpt lat="10.282403" lon="-67.738005">
        <ele>432.70</ele>
        <time>2022-10-26T11:44:53Z</time>
      </trkpt>
      <trkpt lat="10.282390" lon="-67.738045">
        <ele>432.70</ele>
        <time>2022-10-26T11:44:54Z</time>
      </trkpt>
      <trkpt lat="10.282378" lon="-67.738082">
        <ele>432.70</ele>
        <time>2022-10-26T11:44:55Z</time>
      </trkpt>
      <trkpt lat="10.282367" lon="-67.738117">
        <ele>432.70</ele>
        <time>2022-10-26T11:44:56Z</time>
      </trkpt>
      <trkpt lat="10.282354" lon="-67.738152">
        <ele>432.80</ele>
        <time>2022-10-26T11:44:57Z</time>
      </trkpt>
      <trkpt lat="10.282342" lon="-67.738187">
        <ele>432.80</ele>
        <time>2022-10-26T11:44:58Z</time>
      </trkpt>
      <trkpt lat="10.282332" lon="-67.738223">
        <ele>432.80</ele>
        <time>2022-10-26T11:44:59Z</time>
      </trkpt>
      <trkpt lat="10.282323" lon="-67.738259">
        <ele>432.80</ele>
        <time>2022-10-26T11:45:00Z</time>
      </trkpt>
      <trkpt lat="10.282312" lon="-67.738295">
        <ele>432.90</ele>
        <time>2022-10-26T11:45:01Z</time>
      </trkpt>
      <trkpt lat="10.282300" lon="-67.738330">
        <ele>432.90</ele>
        <time>2022-10-26T11:45:02Z</time>
      </trkpt>
      <trkpt lat="10.282286" lon="-67.738366">
        <ele>432.90</ele>
        <time>2022-10-26T11:45:03Z</time>
      </trkpt>
      <trkpt lat="10.282272" lon="-67.738402">
        <ele>432.90</ele>
        <time>2022-10-26T11:45:04Z</time>
      </trkpt>
      <trkpt lat="10.282257" lon="-67.738439">
        <ele>433.00</ele>
        <time>2022-10-26T11:45:05Z</time>
      </trkpt>
      <trkpt lat="10.282243" lon="-67.738474">
        <ele>433.00</ele>
        <time>2022-10-26T11:45:06Z</time>
      </trkpt>
      <trkpt lat="10.282233" lon="-67.738505">
        <ele>433.00</ele>
        <time>2022-10-26T11:45:07Z</time>
      </trkpt>
      <trkpt lat="10.282221" lon="-67.738538">
        <ele>433.10</ele>
        <time>2022-10-26T11:45:08Z</time>
      </trkpt>
      <trkpt lat="10.282207" lon="-67.738572">
        <ele>433.10</ele>
        <time>2022-10-26T11:45:09Z</time>
      </trkpt>
      <trkpt lat="10.282195" lon="-67.738609">
        <ele>433.20</ele>
        <time>2022-10-26T11:45:10Z</time>
      </trkpt>
      <trkpt lat="10.282184" lon="-67.738647">
        <ele>433.20</ele>
        <time>2022-10-26T11:45:11Z</time>
      </trkpt>
      <trkpt lat="10.282172" lon="-67.738683">
        <ele>433.20</ele>
        <time>2022-10-26T11:45:12Z</time>
      </trkpt>
      <trkpt lat="10.282160" lon="-67.738718">
        <ele>433.30</ele>
        <time>2022-10-26T11:45:13Z</time>
      </trkpt>
      <trkpt lat="10.282148" lon="-67.738753">
        <ele>433.30</ele>
        <time>2022-10-26T11:45:14Z</time>
      </trkpt>
      <trkpt lat="10.282134" lon="-67.738790">
        <ele>433.40</ele>
        <time>2022-10-26T11:45:15Z</time>
      </trkpt>
      <trkpt lat="10.282118" lon="-67.738827">
        <ele>433.40</ele>
        <time>2022-10-26T11:45:16Z</time>
      </trkpt>
      <trkpt lat="10.282102" lon="-67.738865">
        <ele>433.50</ele>
        <time>2022-10-26T11:45:17Z</time>
      </trkpt>
      <trkpt lat="10.282087" lon="-67.738901">
        <ele>433.50</ele>
        <time>2022-10-26T11:45:18Z</time>
      </trkpt>
      <trkpt lat="10.282070" lon="-67.738939">
        <ele>433.60</ele>
        <time>2022-10-26T11:45:19Z</time>
      </trkpt>
      <trkpt lat="10.282054" lon="-67.738980">
        <ele>433.70</ele>
        <time>2022-10-26T11:45:20Z</time>
      </trkpt>
      <trkpt lat="10.282041" lon="-67.739020">
        <ele>433.70</ele>
        <time>2022-10-26T11:45:21Z</time>
      </trkpt>
      <trkpt lat="10.282030" lon="-67.739057">
        <ele>433.80</ele>
        <time>2022-10-26T11:45:22Z</time>
      </trkpt>
      <trkpt lat="10.282022" lon="-67.739095">
        <ele>433.80</ele>
        <time>2022-10-26T11:45:23Z</time>
      </trkpt>
      <trkpt lat="10.282012" lon="-67.739135">
        <ele>433.90</ele>
        <time>2022-10-26T11:45:24Z</time>
      </trkpt>
      <trkpt lat="10.281999" lon="-67.739176">
        <ele>434.00</ele>
        <time>2022-10-26T11:45:25Z</time>
      </trkpt>
      <trkpt lat="10.281986" lon="-67.739216">
        <ele>434.00</ele>
        <time>2022-10-26T11:45:26Z</time>
      </trkpt>
      <trkpt lat="10.281973" lon="-67.739255">
        <ele>434.10</ele>
        <time>2022-10-26T11:45:27Z</time>
      </trkpt>
      <trkpt lat="10.281959" lon="-67.739296">
        <ele>434.10</ele>
        <time>2022-10-26T11:45:28Z</time>
      </trkpt>
      <trkpt lat="10.281944" lon="-67.739337">
        <ele>434.20</ele>
        <time>2022-10-26T11:45:29Z</time>
      </trkpt>
      <trkpt lat="10.281930" lon="-67.739379">
        <ele>434.30</ele>
        <time>2022-10-26T11:45:30Z</time>
      </trkpt>
      <trkpt lat="10.281916" lon="-67.739420">
        <ele>434.30</ele>
        <time>2022-10-26T11:45:31Z</time>
      </trkpt>
      <trkpt lat="10.281904" lon="-67.739460">
        <ele>434.40</ele>
        <time>2022-10-26T11:45:32Z</time>
      </trkpt>
      <trkpt lat="10.281893" lon="-67.739504">
        <ele>434.50</ele>
        <time>2022-10-26T11:45:33Z</time>
      </trkpt>
      <trkpt lat="10.281885" lon="-67.739549">
        <ele>434.50</ele>
        <time>2022-10-26T11:45:34Z</time>
      </trkpt>
      <trkpt lat="10.281880" lon="-67.739593">
        <ele>434.60</ele>
        <time>2022-10-26T11:45:35Z</time>
      </trkpt>
      <trkpt lat="10.281873" lon="-67.739635">
        <ele>434.70</ele>
        <time>2022-10-26T11:45:36Z</time>
      </trkpt>
      <trkpt lat="10.281858" lon="-67.739677">
        <ele>434.80</ele>
        <time>2022-10-26T11:45:37Z</time>
      </trkpt>
      <trkpt lat="10.281846" lon="-67.739716">
        <ele>435.00</ele>
        <time>2022-10-26T11:45:38Z</time>
      </trkpt>
      <trkpt lat="10.281832" lon="-67.739755">
        <ele>435.10</ele>
        <time>2022-10-26T11:45:39Z</time>
      </trkpt>
      <trkpt lat="10.281816" lon="-67.739791">
        <ele>435.20</ele>
        <time>2022-10-26T11:45:40Z</time>
      </trkpt>
      <trkpt lat="10.281800" lon="-67.739824">
        <ele>435.30</ele>
        <time>2022-10-26T11:45:41Z</time>
      </trkpt>
      <trkpt lat="10.281783" lon="-67.739858">
        <ele>435.40</ele>
        <time>2022-10-26T11:45:42Z</time>
      </trkpt>
      <trkpt lat="10.281765" lon="-67.739894">
        <ele>435.40</ele>
        <time>2022-10-26T11:45:43Z</time>
      </trkpt>
      <trkpt lat="10.281749" lon="-67.739929">
        <ele>435.50</ele>
        <time>2022-10-26T11:45:44Z</time>
      </trkpt>
      <trkpt lat="10.281732" lon="-67.739965">
        <ele>435.60</ele>
        <time>2022-10-26T11:45:45Z</time>
      </trkpt>
      <trkpt lat="10.281715" lon="-67.740002">
        <ele>435.60</ele>
        <time>2022-10-26T11:45:46Z</time>
      </trkpt>
      <trkpt lat="10.281701" lon="-67.740036">
        <ele>435.70</ele>
        <time>2022-10-26T11:45:47Z</time>
      </trkpt>
      <trkpt lat="10.281688" lon="-67.740070">
        <ele>435.80</ele>
        <time>2022-10-26T11:45:48Z</time>
      </trkpt>
      <trkpt lat="10.281677" lon="-67.740106">
        <ele>435.80</ele>
        <time>2022-10-26T11:45:49Z</time>
      </trkpt>
      <trkpt lat="10.281669" lon="-67.740143">
        <ele>435.90</ele>
        <time>2022-10-26T11:45:50Z</time>
      </trkpt>
      <trkpt lat="10.281659" lon="-67.740178">
        <ele>435.90</ele>
        <time>2022-10-26T11:45:51Z</time>
      </trkpt>
      <trkpt lat="10.281647" lon="-67.740212">
        <ele>436.00</ele>
        <time>2022-10-26T11:45:52Z</time>
      </trkpt>
      <trkpt lat="10.281636" lon="-67.740246">
        <ele>436.10</ele>
        <time>2022-10-26T11:45:53Z</time>
      </trkpt>
      <trkpt lat="10.281625" lon="-67.740282">
        <ele>436.10</ele>
        <time>2022-10-26T11:45:54Z</time>
      </trkpt>
      <trkpt lat="10.281612" lon="-67.740318">
        <ele>436.20</ele>
        <time>2022-10-26T11:45:55Z</time>
      </trkpt>
      <trkpt lat="10.281602" lon="-67.740355">
        <ele>436.20</ele>
        <time>2022-10-26T11:45:56Z</time>
      </trkpt>
      <trkpt lat="10.281588" lon="-67.740390">
        <ele>436.30</ele>
        <time>2022-10-26T11:45:57Z</time>
      </trkpt>
      <trkpt lat="10.281574" lon="-67.740424">
        <ele>436.40</ele>
        <time>2022-10-26T11:45:58Z</time>
      </trkpt>
      <trkpt lat="10.281560" lon="-67.740458">
        <ele>436.40</ele>
        <time>2022-10-26T11:45:59Z</time>
      </trkpt>
      <trkpt lat="10.281544" lon="-67.740488">
        <ele>436.50</ele>
        <time>2022-10-26T11:46:00Z</time>
      </trkpt>
      <trkpt lat="10.281531" lon="-67.740518">
        <ele>436.50</ele>
        <time>2022-10-26T11:46:01Z</time>
      </trkpt>
      <trkpt lat="10.281520" lon="-67.740548">
        <ele>436.60</ele>
        <time>2022-10-26T11:46:02Z</time>
      </trkpt>
      <trkpt lat="10.281508" lon="-67.740581">
        <ele>436.70</ele>
        <time>2022-10-26T11:46:03Z</time>
      </trkpt>
      <trkpt lat="10.281493" lon="-67.740617">
        <ele>436.70</ele>
        <time>2022-10-26T11:46:04Z</time>
      </trkpt>
      <trkpt lat="10.281480" lon="-67.740651">
        <ele>436.80</ele>
        <time>2022-10-26T11:46:05Z</time>
      </trkpt>
      <trkpt lat="10.281469" lon="-67.740682">
        <ele>436.90</ele>
        <time>2022-10-26T11:46:06Z</time>
      </trkpt>
      <trkpt lat="10.281459" lon="-67.740713">
        <ele>437.00</ele>
        <time>2022-10-26T11:46:07Z</time>
      </trkpt>
      <trkpt lat="10.281448" lon="-67.740744">
        <ele>437.00</ele>
        <time>2022-10-26T11:46:08Z</time>
      </trkpt>
      <trkpt lat="10.281437" lon="-67.740777">
        <ele>437.10</ele>
        <time>2022-10-26T11:46:09Z</time>
      </trkpt>
      <trkpt lat="10.281425" lon="-67.740810">
        <ele>437.20</ele>
        <time>2022-10-26T11:46:10Z</time>
      </trkpt>
      <trkpt lat="10.281415" lon="-67.740845">
        <ele>437.20</ele>
        <time>2022-10-26T11:46:11Z</time>
      </trkpt>
      <trkpt lat="10.281404" lon="-67.740878">
        <ele>437.30</ele>
        <time>2022-10-26T11:46:12Z</time>
      </trkpt>
      <trkpt lat="10.281391" lon="-67.740910">
        <ele>437.30</ele>
        <time>2022-10-26T11:46:13Z</time>
      </trkpt>
      <trkpt lat="10.281374" lon="-67.740941">
        <ele>437.40</ele>
        <time>2022-10-26T11:46:14Z</time>
      </trkpt>
      <trkpt lat="10.281356" lon="-67.740971">
        <ele>437.50</ele>
        <time>2022-10-26T11:46:15Z</time>
      </trkpt>
      <trkpt lat="10.281339" lon="-67.741003">
        <ele>437.50</ele>
        <time>2022-10-26T11:46:16Z</time>
      </trkpt>
      <trkpt lat="10.281329" lon="-67.741038">
        <ele>437.60</ele>
        <time>2022-10-26T11:46:17Z</time>
      </trkpt>
      <trkpt lat="10.281326" lon="-67.741078">
        <ele>437.70</ele>
        <time>2022-10-26T11:46:18Z</time>
      </trkpt>
      <trkpt lat="10.281320" lon="-67.741116">
        <ele>437.70</ele>
        <time>2022-10-26T11:46:19Z</time>
      </trkpt>
      <trkpt lat="10.281315" lon="-67.741155">
        <ele>437.80</ele>
        <time>2022-10-26T11:46:20Z</time>
      </trkpt>
      <trkpt lat="10.281308" lon="-67.741194">
        <ele>437.90</ele>
        <time>2022-10-26T11:46:21Z</time>
      </trkpt>
      <trkpt lat="10.281296" lon="-67.741231">
        <ele>438.00</ele>
        <time>2022-10-26T11:46:22Z</time>
      </trkpt>
      <trkpt lat="10.281283" lon="-67.741267">
        <ele>438.00</ele>
        <time>2022-10-26T11:46:23Z</time>
      </trkpt>
      <trkpt lat="10.281272" lon="-67.741301">
        <ele>438.10</ele>
        <time>2022-10-26T11:46:24Z</time>
      </trkpt>
      <trkpt lat="10.281265" lon="-67.741334">
        <ele>438.10</ele>
        <time>2022-10-26T11:46:25Z</time>
      </trkpt>
      <trkpt lat="10.281258" lon="-67.741366">
        <ele>438.20</ele>
        <time>2022-10-26T11:46:26Z</time>
      </trkpt>
      <trkpt lat="10.281250" lon="-67.741399">
        <ele>438.30</ele>
        <time>2022-10-26T11:46:27Z</time>
      </trkpt>
      <trkpt lat="10.281238" lon="-67.741431">
        <ele>438.30</ele>
        <time>2022-10-26T11:46:28Z</time>
      </trkpt>
      <trkpt lat="10.281225" lon="-67.741463">
        <ele>438.40</ele>
        <time>2022-10-26T11:46:29Z</time>
      </trkpt>
      <trkpt lat="10.281215" lon="-67.741497">
        <ele>438.40</ele>
        <time>2022-10-26T11:46:30Z</time>
      </trkpt>
      <trkpt lat="10.281207" lon="-67.741533">
        <ele>438.50</ele>
        <time>2022-10-26T11:46:31Z</time>
      </trkpt>
      <trkpt lat="10.281202" lon="-67.741568">
        <ele>438.60</ele>
        <time>2022-10-26T11:46:32Z</time>
      </trkpt>
      <trkpt lat="10.281193" lon="-67.741602">
        <ele>438.60</ele>
        <time>2022-10-26T11:46:33Z</time>
      </trkpt>
      <trkpt lat="10.281181" lon="-67.741637">
        <ele>438.70</ele>
        <time>2022-10-26T11:46:34Z</time>
      </trkpt>
      <trkpt lat="10.281167" lon="-67.741670">
        <ele>438.70</ele>
        <time>2022-10-26T11:46:35Z</time>
      </trkpt>
      <trkpt lat="10.281153" lon="-67.741705">
        <ele>438.80</ele>
        <time>2022-10-26T11:46:36Z</time>
      </trkpt>
      <trkpt lat="10.281142" lon="-67.741737">
        <ele>438.90</ele>
        <time>2022-10-26T11:46:37Z</time>
      </trkpt>
      <trkpt lat="10.281132" lon="-67.741767">
        <ele>438.90</ele>
        <time>2022-10-26T11:46:38Z</time>
      </trkpt>
      <trkpt lat="10.281119" lon="-67.741798">
        <ele>439.00</ele>
        <time>2022-10-26T11:46:39Z</time>
      </trkpt>
      <trkpt lat="10.281103" lon="-67.741831">
        <ele>439.00</ele>
        <time>2022-10-26T11:46:40Z</time>
      </trkpt>
      <trkpt lat="10.281086" lon="-67.741862">
        <ele>439.10</ele>
        <time>2022-10-26T11:46:41Z</time>
      </trkpt>
      <trkpt lat="10.281068" lon="-67.741894">
        <ele>439.10</ele>
        <time>2022-10-26T11:46:42Z</time>
      </trkpt>
      <trkpt lat="10.281053" lon="-67.741926">
        <ele>439.20</ele>
        <time>2022-10-26T11:46:43Z</time>
      </trkpt>
      <trkpt lat="10.281041" lon="-67.741954">
        <ele>439.20</ele>
        <time>2022-10-26T11:46:44Z</time>
      </trkpt>
      <trkpt lat="10.281028" lon="-67.741980">
        <ele>439.30</ele>
        <time>2022-10-26T11:46:45Z</time>
      </trkpt>
      <trkpt lat="10.281017" lon="-67.742006">
        <ele>439.30</ele>
        <time>2022-10-26T11:46:46Z</time>
      </trkpt>
      <trkpt lat="10.281007" lon="-67.742034">
        <ele>439.40</ele>
        <time>2022-10-26T11:46:47Z</time>
      </trkpt>
      <trkpt lat="10.280999" lon="-67.742063">
        <ele>439.40</ele>
        <time>2022-10-26T11:46:48Z</time>
      </trkpt>
      <trkpt lat="10.280988" lon="-67.742095">
        <ele>439.50</ele>
        <time>2022-10-26T11:46:49Z</time>
      </trkpt>
      <trkpt lat="10.280976" lon="-67.742128">
        <ele>439.60</ele>
        <time>2022-10-26T11:46:50Z</time>
      </trkpt>
      <trkpt lat="10.280965" lon="-67.742165">
        <ele>439.60</ele>
        <time>2022-10-26T11:46:51Z</time>
      </trkpt>
      <trkpt lat="10.280956" lon="-67.742201">
        <ele>439.70</ele>
        <time>2022-10-26T11:46:52Z</time>
      </trkpt>
      <trkpt lat="10.280945" lon="-67.742238">
        <ele>439.80</ele>
        <time>2022-10-26T11:46:53Z</time>
      </trkpt>
      <trkpt lat="10.280934" lon="-67.742274">
        <ele>439.80</ele>
        <time>2022-10-26T11:46:54Z</time>
      </trkpt>
      <trkpt lat="10.280924" lon="-67.742311">
        <ele>439.90</ele>
        <time>2022-10-26T11:46:55Z</time>
      </trkpt>
      <trkpt lat="10.280913" lon="-67.742348">
        <ele>440.00</ele>
        <time>2022-10-26T11:46:56Z</time>
      </trkpt>
      <trkpt lat="10.280901" lon="-67.742384">
        <ele>440.00</ele>
        <time>2022-10-26T11:46:57Z</time>
      </trkpt>
      <trkpt lat="10.280889" lon="-67.742418">
        <ele>440.10</ele>
        <time>2022-10-26T11:46:58Z</time>
      </trkpt>
      <trkpt lat="10.280878" lon="-67.742454">
        <ele>440.20</ele>
        <time>2022-10-26T11:46:59Z</time>
      </trkpt>
      <trkpt lat="10.280864" lon="-67.742491">
        <ele>440.20</ele>
        <time>2022-10-26T11:47:00Z</time>
      </trkpt>
      <trkpt lat="10.280847" lon="-67.742528">
        <ele>440.30</ele>
        <time>2022-10-26T11:47:01Z</time>
      </trkpt>
      <trkpt lat="10.280829" lon="-67.742568">
        <ele>440.40</ele>
        <time>2022-10-26T11:47:02Z</time>
      </trkpt>
      <trkpt lat="10.280813" lon="-67.742609">
        <ele>440.50</ele>
        <time>2022-10-26T11:47:03Z</time>
      </trkpt>
      <trkpt lat="10.280796" lon="-67.742653">
        <ele>440.60</ele>
        <time>2022-10-26T11:47:04Z</time>
      </trkpt>
      <trkpt lat="10.280781" lon="-67.742702">
        <ele>440.70</ele>
        <time>2022-10-26T11:47:05Z</time>
      </trkpt>
      <trkpt lat="10.280767" lon="-67.742749">
        <ele>440.80</ele>
        <time>2022-10-26T11:47:06Z</time>
      </trkpt>
      <trkpt lat="10.280751" lon="-67.742793">
        <ele>440.90</ele>
        <time>2022-10-26T11:47:07Z</time>
      </trkpt>
      <trkpt lat="10.280735" lon="-67.742835">
        <ele>440.90</ele>
        <time>2022-10-26T11:47:08Z</time>
      </trkpt>
      <trkpt lat="10.280718" lon="-67.742875">
        <ele>441.00</ele>
        <time>2022-10-26T11:47:09Z</time>
      </trkpt>
      <trkpt lat="10.280699" lon="-67.742914">
        <ele>441.10</ele>
        <time>2022-10-26T11:47:10Z</time>
      </trkpt>
      <trkpt lat="10.280682" lon="-67.742955">
        <ele>441.10</ele>
        <time>2022-10-26T11:47:11Z</time>
      </trkpt>
      <trkpt lat="10.280663" lon="-67.742996">
        <ele>441.20</ele>
        <time>2022-10-26T11:47:12Z</time>
      </trkpt>
      <trkpt lat="10.280643" lon="-67.743036">
        <ele>441.30</ele>
        <time>2022-10-26T11:47:13Z</time>
      </trkpt>
      <trkpt lat="10.280627" lon="-67.743076">
        <ele>441.40</ele>
        <time>2022-10-26T11:47:14Z</time>
      </trkpt>
      <trkpt lat="10.280614" lon="-67.743114">
        <ele>441.40</ele>
        <time>2022-10-26T11:47:15Z</time>
      </trkpt>
      <trkpt lat="10.280604" lon="-67.743157">
        <ele>441.50</ele>
        <time>2022-10-26T11:47:16Z</time>
      </trkpt>
      <trkpt lat="10.280594" lon="-67.743200">
        <ele>441.60</ele>
        <time>2022-10-26T11:47:17Z</time>
      </trkpt>
      <trkpt lat="10.280586" lon="-67.743243">
        <ele>441.60</ele>
        <time>2022-10-26T11:47:18Z</time>
      </trkpt>
      <trkpt lat="10.280578" lon="-67.743287">
        <ele>441.70</ele>
        <time>2022-10-26T11:47:19Z</time>
      </trkpt>
      <trkpt lat="10.280567" lon="-67.743333">
        <ele>441.80</ele>
        <time>2022-10-26T11:47:20Z</time>
      </trkpt>
      <trkpt lat="10.280555" lon="-67.743378">
        <ele>441.80</ele>
        <time>2022-10-26T11:47:21Z</time>
      </trkpt>
      <trkpt lat="10.280542" lon="-67.743424">
        <ele>441.90</ele>
        <time>2022-10-26T11:47:22Z</time>
      </trkpt>
      <trkpt lat="10.280530" lon="-67.743471">
        <ele>442.00</ele>
        <time>2022-10-26T11:47:23Z</time>
      </trkpt>
      <trkpt lat="10.280518" lon="-67.743519">
        <ele>442.00</ele>
        <time>2022-10-26T11:47:24Z</time>
      </trkpt>
      <trkpt lat="10.280506" lon="-67.743565">
        <ele>442.10</ele>
        <time>2022-10-26T11:47:25Z</time>
      </trkpt>
      <trkpt lat="10.280494" lon="-67.743611">
        <ele>442.10</ele>
        <time>2022-10-26T11:47:26Z</time>
      </trkpt>
      <trkpt lat="10.280481" lon="-67.743658">
        <ele>442.20</ele>
        <time>2022-10-26T11:47:27Z</time>
      </trkpt>
      <trkpt lat="10.280467" lon="-67.743706">
        <ele>442.30</ele>
        <time>2022-10-26T11:47:28Z</time>
      </trkpt>
      <trkpt lat="10.280455" lon="-67.743755">
        <ele>442.30</ele>
        <time>2022-10-26T11:47:29Z</time>
      </trkpt>
      <trkpt lat="10.280442" lon="-67.743805">
        <ele>442.40</ele>
        <time>2022-10-26T11:47:30Z</time>
      </trkpt>
      <trkpt lat="10.280428" lon="-67.743852">
        <ele>442.50</ele>
        <time>2022-10-26T11:47:31Z</time>
      </trkpt>
      <trkpt lat="10.280413" lon="-67.743899">
        <ele>442.50</ele>
        <time>2022-10-26T11:47:32Z</time>
      </trkpt>
      <trkpt lat="10.280398" lon="-67.743942">
        <ele>442.60</ele>
        <time>2022-10-26T11:47:33Z</time>
      </trkpt>
      <trkpt lat="10.280383" lon="-67.743985">
        <ele>442.70</ele>
        <time>2022-10-26T11:47:34Z</time>
      </trkpt>
      <trkpt lat="10.280366" lon="-67.744028">
        <ele>442.70</ele>
        <time>2022-10-26T11:47:35Z</time>
      </trkpt>
      <trkpt lat="10.280351" lon="-67.744068">
        <ele>442.70</ele>
        <time>2022-10-26T11:47:36Z</time>
      </trkpt>
      <trkpt lat="10.280335" lon="-67.744105">
        <ele>442.80</ele>
        <time>2022-10-26T11:47:37Z</time>
      </trkpt>
      <trkpt lat="10.280320" lon="-67.744143">
        <ele>442.80</ele>
        <time>2022-10-26T11:47:38Z</time>
      </trkpt>
      <trkpt lat="10.280304" lon="-67.744183">
        <ele>442.90</ele>
        <time>2022-10-26T11:47:39Z</time>
      </trkpt>
      <trkpt lat="10.280289" lon="-67.744225">
        <ele>442.90</ele>
        <time>2022-10-26T11:47:40Z</time>
      </trkpt>
      <trkpt lat="10.280273" lon="-67.744269">
        <ele>443.00</ele>
        <time>2022-10-26T11:47:41Z</time>
      </trkpt>
      <trkpt lat="10.280258" lon="-67.744314">
        <ele>443.00</ele>
        <time>2022-10-26T11:47:42Z</time>
      </trkpt>
      <trkpt lat="10.280242" lon="-67.744356">
        <ele>443.10</ele>
        <time>2022-10-26T11:47:43Z</time>
      </trkpt>
      <trkpt lat="10.280228" lon="-67.744398">
        <ele>443.10</ele>
        <time>2022-10-26T11:47:44Z</time>
      </trkpt>
      <trkpt lat="10.280214" lon="-67.744440">
        <ele>443.20</ele>
        <time>2022-10-26T11:47:45Z</time>
      </trkpt>
      <trkpt lat="10.280197" lon="-67.744483">
        <ele>443.20</ele>
        <time>2022-10-26T11:47:46Z</time>
      </trkpt>
      <trkpt lat="10.280176" lon="-67.744530">
        <ele>443.30</ele>
        <time>2022-10-26T11:47:47Z</time>
      </trkpt>
      <trkpt lat="10.280152" lon="-67.744578">
        <ele>443.30</ele>
        <time>2022-10-26T11:47:48Z</time>
      </trkpt>
      <trkpt lat="10.280128" lon="-67.744628">
        <ele>443.40</ele>
        <time>2022-10-26T11:47:49Z</time>
      </trkpt>
      <trkpt lat="10.280111" lon="-67.744678">
        <ele>443.40</ele>
        <time>2022-10-26T11:47:50Z</time>
      </trkpt>
      <trkpt lat="10.280103" lon="-67.744730">
        <ele>443.40</ele>
        <time>2022-10-26T11:47:51Z</time>
      </trkpt>
      <trkpt lat="10.280098" lon="-67.744780">
        <ele>443.50</ele>
        <time>2022-10-26T11:47:52Z</time>
      </trkpt>
      <trkpt lat="10.280085" lon="-67.744829">
        <ele>443.50</ele>
        <time>2022-10-26T11:47:53Z</time>
      </trkpt>
      <trkpt lat="10.280070" lon="-67.744875">
        <ele>443.50</ele>
        <time>2022-10-26T11:47:54Z</time>
      </trkpt>
      <trkpt lat="10.280056" lon="-67.744917">
        <ele>443.50</ele>
        <time>2022-10-26T11:47:55Z</time>
      </trkpt>
      <trkpt lat="10.280040" lon="-67.744957">
        <ele>443.60</ele>
        <time>2022-10-26T11:47:56Z</time>
      </trkpt>
      <trkpt lat="10.280023" lon="-67.744995">
        <ele>443.60</ele>
        <time>2022-10-26T11:47:57Z</time>
      </trkpt>
      <trkpt lat="10.280012" lon="-67.745030">
        <ele>443.60</ele>
        <time>2022-10-26T11:47:58Z</time>
      </trkpt>
      <trkpt lat="10.280004" lon="-67.745063">
        <ele>443.60</ele>
        <time>2022-10-26T11:47:59Z</time>
      </trkpt>
      <trkpt lat="10.279991" lon="-67.745098">
        <ele>443.60</ele>
        <time>2022-10-26T11:48:00Z</time>
      </trkpt>
      <trkpt lat="10.279975" lon="-67.745135">
        <ele>443.60</ele>
        <time>2022-10-26T11:48:01Z</time>
      </trkpt>
      <trkpt lat="10.279959" lon="-67.745171">
        <ele>443.60</ele>
        <time>2022-10-26T11:48:02Z</time>
      </trkpt>
      <trkpt lat="10.279941" lon="-67.745207">
        <ele>443.60</ele>
        <time>2022-10-26T11:48:03Z</time>
      </trkpt>
      <trkpt lat="10.279918" lon="-67.745249">
        <ele>443.70</ele>
        <time>2022-10-26T11:48:04Z</time>
      </trkpt>
      <trkpt lat="10.279898" lon="-67.745289">
        <ele>443.70</ele>
        <time>2022-10-26T11:48:05Z</time>
      </trkpt>
      <trkpt lat="10.279878" lon="-67.745331">
        <ele>443.70</ele>
        <time>2022-10-26T11:48:06Z</time>
      </trkpt>
      <trkpt lat="10.279860" lon="-67.745373">
        <ele>443.70</ele>
        <time>2022-10-26T11:48:07Z</time>
      </trkpt>
      <trkpt lat="10.279844" lon="-67.745415">
        <ele>443.70</ele>
        <time>2022-10-26T11:48:08Z</time>
      </trkpt>
      <trkpt lat="10.279829" lon="-67.745456">
        <ele>443.70</ele>
        <time>2022-10-26T11:48:09Z</time>
      </trkpt>
      <trkpt lat="10.279815" lon="-67.745496">
        <ele>443.70</ele>
        <time>2022-10-26T11:48:10Z</time>
      </trkpt>
      <trkpt lat="10.279802" lon="-67.745538">
        <ele>443.70</ele>
        <time>2022-10-26T11:48:11Z</time>
      </trkpt>
      <trkpt lat="10.279792" lon="-67.745586">
        <ele>443.70</ele>
        <time>2022-10-26T11:48:12Z</time>
      </trkpt>
      <trkpt lat="10.279780" lon="-67.745634">
        <ele>443.70</ele>
        <time>2022-10-26T11:48:13Z</time>
      </trkpt>
      <trkpt lat="10.279766" lon="-67.745685">
        <ele>443.70</ele>
        <time>2022-10-26T11:48:14Z</time>
      </trkpt>
      <trkpt lat="10.279749" lon="-67.745734">
        <ele>443.70</ele>
        <time>2022-10-26T11:48:15Z</time>
      </trkpt>
      <trkpt lat="10.279733" lon="-67.745782">
        <ele>443.70</ele>
        <time>2022-10-26T11:48:16Z</time>
      </trkpt>
      <trkpt lat="10.279721" lon="-67.745827">
        <ele>443.70</ele>
        <time>2022-10-26T11:48:17Z</time>
      </trkpt>
      <trkpt lat="10.279710" lon="-67.745873">
        <ele>443.70</ele>
        <time>2022-10-26T11:48:18Z</time>
      </trkpt>
      <trkpt lat="10.279699" lon="-67.745918">
        <ele>443.70</ele>
        <time>2022-10-26T11:48:19Z</time>
      </trkpt>
      <trkpt lat="10.279690" lon="-67.745964">
        <ele>443.70</ele>
        <time>2022-10-26T11:48:20Z</time>
      </trkpt>
      <trkpt lat="10.279678" lon="-67.746009">
        <ele>443.70</ele>
        <time>2022-10-26T11:48:21Z</time>
      </trkpt>
      <trkpt lat="10.279667" lon="-67.746054">
        <ele>443.70</ele>
        <time>2022-10-26T11:48:22Z</time>
      </trkpt>
      <trkpt lat="10.279654" lon="-67.746095">
        <ele>443.60</ele>
        <time>2022-10-26T11:48:23Z</time>
      </trkpt>
      <trkpt lat="10.279639" lon="-67.746136">
        <ele>443.60</ele>
        <time>2022-10-26T11:48:24Z</time>
      </trkpt>
      <trkpt lat="10.279626" lon="-67.746174">
        <ele>443.60</ele>
        <time>2022-10-26T11:48:25Z</time>
      </trkpt>
      <trkpt lat="10.279609" lon="-67.746213">
        <ele>443.60</ele>
        <time>2022-10-26T11:48:26Z</time>
      </trkpt>
      <trkpt lat="10.279596" lon="-67.746257">
        <ele>443.60</ele>
        <time>2022-10-26T11:48:27Z</time>
      </trkpt>
      <trkpt lat="10.279586" lon="-67.746301">
        <ele>443.60</ele>
        <time>2022-10-26T11:48:28Z</time>
      </trkpt>
      <trkpt lat="10.279573" lon="-67.746345">
        <ele>443.60</ele>
        <time>2022-10-26T11:48:29Z</time>
      </trkpt>
      <trkpt lat="10.279561" lon="-67.746391">
        <ele>443.60</ele>
        <time>2022-10-26T11:48:30Z</time>
      </trkpt>
      <trkpt lat="10.279548" lon="-67.746437">
        <ele>443.50</ele>
        <time>2022-10-26T11:48:31Z</time>
      </trkpt>
      <trkpt lat="10.279533" lon="-67.746484">
        <ele>443.50</ele>
        <time>2022-10-26T11:48:32Z</time>
      </trkpt>
      <trkpt lat="10.279515" lon="-67.746530">
        <ele>443.50</ele>
        <time>2022-10-26T11:48:33Z</time>
      </trkpt>
      <trkpt lat="10.279498" lon="-67.746573">
        <ele>443.50</ele>
        <time>2022-10-26T11:48:34Z</time>
      </trkpt>
      <trkpt lat="10.279480" lon="-67.746616">
        <ele>443.50</ele>
        <time>2022-10-26T11:48:35Z</time>
      </trkpt>
      <trkpt lat="10.279465" lon="-67.746656">
        <ele>443.50</ele>
        <time>2022-10-26T11:48:36Z</time>
      </trkpt>
      <trkpt lat="10.279453" lon="-67.746695">
        <ele>443.40</ele>
        <time>2022-10-26T11:48:37Z</time>
      </trkpt>
      <trkpt lat="10.279441" lon="-67.746733">
        <ele>443.40</ele>
        <time>2022-10-26T11:48:38Z</time>
      </trkpt>
      <trkpt lat="10.279428" lon="-67.746772">
        <ele>443.40</ele>
        <time>2022-10-26T11:48:39Z</time>
      </trkpt>
      <trkpt lat="10.279414" lon="-67.746807">
        <ele>443.40</ele>
        <time>2022-10-26T11:48:40Z</time>
      </trkpt>
      <trkpt lat="10.279399" lon="-67.746845">
        <ele>443.40</ele>
        <time>2022-10-26T11:48:41Z</time>
      </trkpt>
      <trkpt lat="10.279385" lon="-67.746888">
        <ele>443.40</ele>
        <time>2022-10-26T11:48:42Z</time>
      </trkpt>
      <trkpt lat="10.279372" lon="-67.746932">
        <ele>443.40</ele>
        <time>2022-10-26T11:48:43Z</time>
      </trkpt>
      <trkpt lat="10.279356" lon="-67.746977">
        <ele>443.30</ele>
        <time>2022-10-26T11:48:44Z</time>
      </trkpt>
      <trkpt lat="10.279340" lon="-67.747020">
        <ele>443.30</ele>
        <time>2022-10-26T11:48:45Z</time>
      </trkpt>
      <trkpt lat="10.279323" lon="-67.747063">
        <ele>443.30</ele>
        <time>2022-10-26T11:48:46Z</time>
      </trkpt>
      <trkpt lat="10.279308" lon="-67.747106">
        <ele>443.30</ele>
        <time>2022-10-26T11:48:47Z</time>
      </trkpt>
      <trkpt lat="10.279293" lon="-67.747153">
        <ele>443.30</ele>
        <time>2022-10-26T11:48:48Z</time>
      </trkpt>
      <trkpt lat="10.279278" lon="-67.747197">
        <ele>443.20</ele>
        <time>2022-10-26T11:48:49Z</time>
      </trkpt>
      <trkpt lat="10.279259" lon="-67.747242">
        <ele>443.20</ele>
        <time>2022-10-26T11:48:50Z</time>
      </trkpt>
      <trkpt lat="10.279241" lon="-67.747285">
        <ele>443.20</ele>
        <time>2022-10-26T11:48:51Z</time>
      </trkpt>
      <trkpt lat="10.279223" lon="-67.747334">
        <ele>443.20</ele>
        <time>2022-10-26T11:48:52Z</time>
      </trkpt>
      <trkpt lat="10.279205" lon="-67.747381">
        <ele>443.20</ele>
        <time>2022-10-26T11:48:53Z</time>
      </trkpt>
      <trkpt lat="10.279182" lon="-67.747432">
        <ele>443.20</ele>
        <time>2022-10-26T11:48:54Z</time>
      </trkpt>
      <trkpt lat="10.279156" lon="-67.747476">
        <ele>443.20</ele>
        <time>2022-10-26T11:48:55Z</time>
      </trkpt>
      <trkpt lat="10.279134" lon="-67.747522">
        <ele>443.20</ele>
        <time>2022-10-26T11:48:56Z</time>
      </trkpt>
      <trkpt lat="10.279115" lon="-67.747564">
        <ele>443.10</ele>
        <time>2022-10-26T11:48:57Z</time>
      </trkpt>
      <trkpt lat="10.279099" lon="-67.747611">
        <ele>443.10</ele>
        <time>2022-10-26T11:48:58Z</time>
      </trkpt>
      <trkpt lat="10.279085" lon="-67.747657">
        <ele>443.10</ele>
        <time>2022-10-26T11:48:59Z</time>
      </trkpt>
      <trkpt lat="10.279075" lon="-67.747709">
        <ele>443.10</ele>
        <time>2022-10-26T11:49:00Z</time>
      </trkpt>
      <trkpt lat="10.279061" lon="-67.747757">
        <ele>443.00</ele>
        <time>2022-10-26T11:49:01Z</time>
      </trkpt>
      <trkpt lat="10.279044" lon="-67.747806">
        <ele>443.00</ele>
        <time>2022-10-26T11:49:02Z</time>
      </trkpt>
      <trkpt lat="10.279028" lon="-67.747849">
        <ele>443.00</ele>
        <time>2022-10-26T11:49:03Z</time>
      </trkpt>
      <trkpt lat="10.279009" lon="-67.747894">
        <ele>443.00</ele>
        <time>2022-10-26T11:49:04Z</time>
      </trkpt>
      <trkpt lat="10.278993" lon="-67.747941">
        <ele>443.00</ele>
        <time>2022-10-26T11:49:05Z</time>
      </trkpt>
      <trkpt lat="10.278980" lon="-67.747991">
        <ele>442.90</ele>
        <time>2022-10-26T11:49:06Z</time>
      </trkpt>
      <trkpt lat="10.278967" lon="-67.748041">
        <ele>442.90</ele>
        <time>2022-10-26T11:49:07Z</time>
      </trkpt>
      <trkpt lat="10.278955" lon="-67.748088">
        <ele>442.90</ele>
        <time>2022-10-26T11:49:08Z</time>
      </trkpt>
      <trkpt lat="10.278941" lon="-67.748133">
        <ele>442.90</ele>
        <time>2022-10-26T11:49:09Z</time>
      </trkpt>
      <trkpt lat="10.278924" lon="-67.748181">
        <ele>442.90</ele>
        <time>2022-10-26T11:49:10Z</time>
      </trkpt>
      <trkpt lat="10.278906" lon="-67.748226">
        <ele>442.90</ele>
        <time>2022-10-26T11:49:11Z</time>
      </trkpt>
      <trkpt lat="10.278887" lon="-67.748275">
        <ele>442.80</ele>
        <time>2022-10-26T11:49:12Z</time>
      </trkpt>
      <trkpt lat="10.278872" lon="-67.748320">
        <ele>442.80</ele>
        <time>2022-10-26T11:49:13Z</time>
      </trkpt>
      <trkpt lat="10.278852" lon="-67.748362">
        <ele>442.80</ele>
        <time>2022-10-26T11:49:14Z</time>
      </trkpt>
      <trkpt lat="10.278829" lon="-67.748406">
        <ele>442.80</ele>
        <time>2022-10-26T11:49:15Z</time>
      </trkpt>
      <trkpt lat="10.278807" lon="-67.748453">
        <ele>442.80</ele>
        <time>2022-10-26T11:49:16Z</time>
      </trkpt>
      <trkpt lat="10.278790" lon="-67.748498">
        <ele>442.80</ele>
        <time>2022-10-26T11:49:17Z</time>
      </trkpt>
      <trkpt lat="10.278776" lon="-67.748547">
        <ele>442.80</ele>
        <time>2022-10-26T11:49:18Z</time>
      </trkpt>
      <trkpt lat="10.278764" lon="-67.748604">
        <ele>442.80</ele>
        <time>2022-10-26T11:49:19Z</time>
      </trkpt>
      <trkpt lat="10.278750" lon="-67.748668">
        <ele>442.70</ele>
        <time>2022-10-26T11:49:20Z</time>
      </trkpt>
      <trkpt lat="10.278738" lon="-67.748729">
        <ele>442.70</ele>
        <time>2022-10-26T11:49:21Z</time>
      </trkpt>
      <trkpt lat="10.278724" lon="-67.748781">
        <ele>442.70</ele>
        <time>2022-10-26T11:49:22Z</time>
      </trkpt>
      <trkpt lat="10.278707" lon="-67.748826">
        <ele>442.70</ele>
        <time>2022-10-26T11:49:23Z</time>
      </trkpt>
      <trkpt lat="10.278678" lon="-67.748859">
        <ele>442.70</ele>
        <time>2022-10-26T11:49:24Z</time>
      </trkpt>
      <trkpt lat="10.278653" lon="-67.748896">
        <ele>442.70</ele>
        <time>2022-10-26T11:49:25Z</time>
      </trkpt>
      <trkpt lat="10.278632" lon="-67.748933">
        <ele>442.70</ele>
        <time>2022-10-26T11:49:26Z</time>
      </trkpt>
      <trkpt lat="10.278616" lon="-67.748973">
        <ele>442.70</ele>
        <time>2022-10-26T11:49:27Z</time>
      </trkpt>
      <trkpt lat="10.278598" lon="-67.749014">
        <ele>442.70</ele>
        <time>2022-10-26T11:49:28Z</time>
      </trkpt>
      <trkpt lat="10.278579" lon="-67.749055">
        <ele>442.70</ele>
        <time>2022-10-26T11:49:29Z</time>
      </trkpt>
      <trkpt lat="10.278556" lon="-67.749096">
        <ele>442.70</ele>
        <time>2022-10-26T11:49:30Z</time>
      </trkpt>
      <trkpt lat="10.278534" lon="-67.749136">
        <ele>442.70</ele>
        <time>2022-10-26T11:49:31Z</time>
      </trkpt>
      <trkpt lat="10.278521" lon="-67.749180">
        <ele>442.70</ele>
        <time>2022-10-26T11:49:32Z</time>
      </trkpt>
      <trkpt lat="10.278507" lon="-67.749226">
        <ele>442.70</ele>
        <time>2022-10-26T11:49:33Z</time>
      </trkpt>
      <trkpt lat="10.278491" lon="-67.749271">
        <ele>442.70</ele>
        <time>2022-10-26T11:49:34Z</time>
      </trkpt>
      <trkpt lat="10.278478" lon="-67.749319">
        <ele>442.70</ele>
        <time>2022-10-26T11:49:35Z</time>
      </trkpt>
      <trkpt lat="10.278464" lon="-67.749368">
        <ele>442.70</ele>
        <time>2022-10-26T11:49:36Z</time>
      </trkpt>
      <trkpt lat="10.278448" lon="-67.749416">
        <ele>442.70</ele>
        <time>2022-10-26T11:49:37Z</time>
      </trkpt>
      <trkpt lat="10.278433" lon="-67.749465">
        <ele>442.70</ele>
        <time>2022-10-26T11:49:38Z</time>
      </trkpt>
      <trkpt lat="10.278416" lon="-67.749513">
        <ele>442.70</ele>
        <time>2022-10-26T11:49:39Z</time>
      </trkpt>
      <trkpt lat="10.278398" lon="-67.749561">
        <ele>442.70</ele>
        <time>2022-10-26T11:49:40Z</time>
      </trkpt>
      <trkpt lat="10.278383" lon="-67.749607">
        <ele>442.70</ele>
        <time>2022-10-26T11:49:41Z</time>
      </trkpt>
      <trkpt lat="10.278367" lon="-67.749655">
        <ele>442.80</ele>
        <time>2022-10-26T11:49:42Z</time>
      </trkpt>
      <trkpt lat="10.278351" lon="-67.749702">
        <ele>442.80</ele>
        <time>2022-10-26T11:49:43Z</time>
      </trkpt>
      <trkpt lat="10.278334" lon="-67.749750">
        <ele>442.80</ele>
        <time>2022-10-26T11:49:44Z</time>
      </trkpt>
      <trkpt lat="10.278319" lon="-67.749798">
        <ele>442.80</ele>
        <time>2022-10-26T11:49:45Z</time>
      </trkpt>
      <trkpt lat="10.278304" lon="-67.749849">
        <ele>442.90</ele>
        <time>2022-10-26T11:49:46Z</time>
      </trkpt>
      <trkpt lat="10.278284" lon="-67.749897">
        <ele>442.90</ele>
        <time>2022-10-26T11:49:47Z</time>
      </trkpt>
      <trkpt lat="10.278261" lon="-67.749945">
        <ele>442.90</ele>
        <time>2022-10-26T11:49:48Z</time>
      </trkpt>
      <trkpt lat="10.278243" lon="-67.749988">
        <ele>442.90</ele>
        <time>2022-10-26T11:49:49Z</time>
      </trkpt>
      <trkpt lat="10.278229" lon="-67.750035">
        <ele>443.00</ele>
        <time>2022-10-26T11:49:50Z</time>
      </trkpt>
      <trkpt lat="10.278215" lon="-67.750086">
        <ele>443.00</ele>
        <time>2022-10-26T11:49:51Z</time>
      </trkpt>
      <trkpt lat="10.278202" lon="-67.750135">
        <ele>443.10</ele>
        <time>2022-10-26T11:49:52Z</time>
      </trkpt>
      <trkpt lat="10.278185" lon="-67.750178">
        <ele>443.10</ele>
        <time>2022-10-26T11:49:53Z</time>
      </trkpt>
      <trkpt lat="10.278167" lon="-67.750220">
        <ele>443.20</ele>
        <time>2022-10-26T11:49:54Z</time>
      </trkpt>
      <trkpt lat="10.278149" lon="-67.750262">
        <ele>443.20</ele>
        <time>2022-10-26T11:49:55Z</time>
      </trkpt>
      <trkpt lat="10.278132" lon="-67.750305">
        <ele>443.30</ele>
        <time>2022-10-26T11:49:56Z</time>
      </trkpt>
      <trkpt lat="10.278114" lon="-67.750348">
        <ele>443.30</ele>
        <time>2022-10-26T11:49:57Z</time>
      </trkpt>
      <trkpt lat="10.278095" lon="-67.750390">
        <ele>443.30</ele>
        <time>2022-10-26T11:49:58Z</time>
      </trkpt>
      <trkpt lat="10.278077" lon="-67.750434">
        <ele>443.40</ele>
        <time>2022-10-26T11:49:59Z</time>
      </trkpt>
      <trkpt lat="10.278060" lon="-67.750476">
        <ele>443.40</ele>
        <time>2022-10-26T11:50:00Z</time>
      </trkpt>
      <trkpt lat="10.278046" lon="-67.750520">
        <ele>443.50</ele>
        <time>2022-10-26T11:50:01Z</time>
      </trkpt>
      <trkpt lat="10.278032" lon="-67.750564">
        <ele>443.50</ele>
        <time>2022-10-26T11:50:02Z</time>
      </trkpt>
      <trkpt lat="10.278014" lon="-67.750607">
        <ele>443.60</ele>
        <time>2022-10-26T11:50:03Z</time>
      </trkpt>
      <trkpt lat="10.277998" lon="-67.750654">
        <ele>443.60</ele>
        <time>2022-10-26T11:50:04Z</time>
      </trkpt>
      <trkpt lat="10.277984" lon="-67.750699">
        <ele>443.70</ele>
        <time>2022-10-26T11:50:05Z</time>
      </trkpt>
      <trkpt lat="10.277969" lon="-67.750743">
        <ele>443.70</ele>
        <time>2022-10-26T11:50:06Z</time>
      </trkpt>
      <trkpt lat="10.277955" lon="-67.750784">
        <ele>443.80</ele>
        <time>2022-10-26T11:50:07Z</time>
      </trkpt>
      <trkpt lat="10.277944" lon="-67.750827">
        <ele>443.90</ele>
        <time>2022-10-26T11:50:08Z</time>
      </trkpt>
      <trkpt lat="10.277930" lon="-67.750871">
        <ele>443.90</ele>
        <time>2022-10-26T11:50:09Z</time>
      </trkpt>
      <trkpt lat="10.277916" lon="-67.750912">
        <ele>444.00</ele>
        <time>2022-10-26T11:50:10Z</time>
      </trkpt>
      <trkpt lat="10.277901" lon="-67.750955">
        <ele>444.00</ele>
        <time>2022-10-26T11:50:11Z</time>
      </trkpt>
      <trkpt lat="10.277887" lon="-67.750999">
        <ele>444.10</ele>
        <time>2022-10-26T11:50:12Z</time>
      </trkpt>
      <trkpt lat="10.277874" lon="-67.751042">
        <ele>444.20</ele>
        <time>2022-10-26T11:50:13Z</time>
      </trkpt>
      <trkpt lat="10.277859" lon="-67.751085">
        <ele>444.20</ele>
        <time>2022-10-26T11:50:14Z</time>
      </trkpt>
      <trkpt lat="10.277847" lon="-67.751129">
        <ele>444.30</ele>
        <time>2022-10-26T11:50:15Z</time>
      </trkpt>
      <trkpt lat="10.277841" lon="-67.751173">
        <ele>444.30</ele>
        <time>2022-10-26T11:50:16Z</time>
      </trkpt>
      <trkpt lat="10.277830" lon="-67.751214">
        <ele>444.40</ele>
        <time>2022-10-26T11:50:17Z</time>
      </trkpt>
      <trkpt lat="10.277816" lon="-67.751254">
        <ele>444.50</ele>
        <time>2022-10-26T11:50:18Z</time>
      </trkpt>
      <trkpt lat="10.277806" lon="-67.751293">
        <ele>444.50</ele>
        <time>2022-10-26T11:50:19Z</time>
      </trkpt>
      <trkpt lat="10.277794" lon="-67.751329">
        <ele>444.60</ele>
        <time>2022-10-26T11:50:20Z</time>
      </trkpt>
      <trkpt lat="10.277784" lon="-67.751362">
        <ele>444.60</ele>
        <time>2022-10-26T11:50:21Z</time>
      </trkpt>
      <trkpt lat="10.277776" lon="-67.751401">
        <ele>444.70</ele>
        <time>2022-10-26T11:50:22Z</time>
      </trkpt>
      <trkpt lat="10.277762" lon="-67.751440">
        <ele>444.80</ele>
        <time>2022-10-26T11:50:23Z</time>
      </trkpt>
      <trkpt lat="10.277747" lon="-67.751478">
        <ele>444.90</ele>
        <time>2022-10-26T11:50:24Z</time>
      </trkpt>
      <trkpt lat="10.277732" lon="-67.751516">
        <ele>444.90</ele>
        <time>2022-10-26T11:50:25Z</time>
      </trkpt>
      <trkpt lat="10.277716" lon="-67.751555">
        <ele>445.00</ele>
        <time>2022-10-26T11:50:26Z</time>
      </trkpt>
      <trkpt lat="10.277704" lon="-67.751596">
        <ele>445.10</ele>
        <time>2022-10-26T11:50:27Z</time>
      </trkpt>
      <trkpt lat="10.277690" lon="-67.751637">
        <ele>445.10</ele>
        <time>2022-10-26T11:50:28Z</time>
      </trkpt>
      <trkpt lat="10.277676" lon="-67.751679">
        <ele>445.20</ele>
        <time>2022-10-26T11:50:29Z</time>
      </trkpt>
      <trkpt lat="10.277661" lon="-67.751720">
        <ele>445.30</ele>
        <time>2022-10-26T11:50:30Z</time>
      </trkpt>
      <trkpt lat="10.277646" lon="-67.751762">
        <ele>445.40</ele>
        <time>2022-10-26T11:50:31Z</time>
      </trkpt>
      <trkpt lat="10.277631" lon="-67.751804">
        <ele>445.40</ele>
        <time>2022-10-26T11:50:32Z</time>
      </trkpt>
      <trkpt lat="10.277617" lon="-67.751846">
        <ele>445.50</ele>
        <time>2022-10-26T11:50:33Z</time>
      </trkpt>
      <trkpt lat="10.277604" lon="-67.751886">
        <ele>445.60</ele>
        <time>2022-10-26T11:50:34Z</time>
      </trkpt>
      <trkpt lat="10.277591" lon="-67.751926">
        <ele>445.60</ele>
        <time>2022-10-26T11:50:35Z</time>
      </trkpt>
      <trkpt lat="10.277578" lon="-67.751967">
        <ele>445.70</ele>
        <time>2022-10-26T11:50:36Z</time>
      </trkpt>
      <trkpt lat="10.277566" lon="-67.752009">
        <ele>445.80</ele>
        <time>2022-10-26T11:50:37Z</time>
      </trkpt>
      <trkpt lat="10.277552" lon="-67.752053">
        <ele>445.80</ele>
        <time>2022-10-26T11:50:38Z</time>
      </trkpt>
      <trkpt lat="10.277533" lon="-67.752093">
        <ele>445.90</ele>
        <time>2022-10-26T11:50:39Z</time>
      </trkpt>
      <trkpt lat="10.277514" lon="-67.752131">
        <ele>446.00</ele>
        <time>2022-10-26T11:50:40Z</time>
      </trkpt>
      <trkpt lat="10.277498" lon="-67.752167">
        <ele>446.00</ele>
        <time>2022-10-26T11:50:41Z</time>
      </trkpt>
      <trkpt lat="10.277484" lon="-67.752204">
        <ele>446.10</ele>
        <time>2022-10-26T11:50:42Z</time>
      </trkpt>
      <trkpt lat="10.277470" lon="-67.752241">
        <ele>446.10</ele>
        <time>2022-10-26T11:50:43Z</time>
      </trkpt>
      <trkpt lat="10.277453" lon="-67.752277">
        <ele>446.20</ele>
        <time>2022-10-26T11:50:44Z</time>
      </trkpt>
      <trkpt lat="10.277436" lon="-67.752314">
        <ele>446.20</ele>
        <time>2022-10-26T11:50:45Z</time>
      </trkpt>
      <trkpt lat="10.277419" lon="-67.752352">
        <ele>446.30</ele>
        <time>2022-10-26T11:50:46Z</time>
      </trkpt>
      <trkpt lat="10.277406" lon="-67.752391">
        <ele>446.40</ele>
        <time>2022-10-26T11:50:47Z</time>
      </trkpt>
      <trkpt lat="10.277393" lon="-67.752432">
        <ele>446.40</ele>
        <time>2022-10-26T11:50:48Z</time>
      </trkpt>
      <trkpt lat="10.277380" lon="-67.752475">
        <ele>446.50</ele>
        <time>2022-10-26T11:50:49Z</time>
      </trkpt>
      <trkpt lat="10.277371" lon="-67.752518">
        <ele>446.60</ele>
        <time>2022-10-26T11:50:50Z</time>
      </trkpt>
      <trkpt lat="10.277360" lon="-67.752559">
        <ele>446.70</ele>
        <time>2022-10-26T11:50:51Z</time>
      </trkpt>
      <trkpt lat="10.277350" lon="-67.752599">
        <ele>446.70</ele>
        <time>2022-10-26T11:50:52Z</time>
      </trkpt>
      <trkpt lat="10.277341" lon="-67.752637">
        <ele>446.80</ele>
        <time>2022-10-26T11:50:53Z</time>
      </trkpt>
      <trkpt lat="10.277332" lon="-67.752678">
        <ele>446.80</ele>
        <time>2022-10-26T11:50:54Z</time>
      </trkpt>
      <trkpt lat="10.277322" lon="-67.752720">
        <ele>446.90</ele>
        <time>2022-10-26T11:50:55Z</time>
      </trkpt>
      <trkpt lat="10.277310" lon="-67.752764">
        <ele>447.00</ele>
        <time>2022-10-26T11:50:56Z</time>
      </trkpt>
      <trkpt lat="10.277298" lon="-67.752807">
        <ele>447.00</ele>
        <time>2022-10-26T11:50:57Z</time>
      </trkpt>
      <trkpt lat="10.277286" lon="-67.752850">
        <ele>447.10</ele>
        <time>2022-10-26T11:50:58Z</time>
      </trkpt>
      <trkpt lat="10.277274" lon="-67.752893">
        <ele>447.10</ele>
        <time>2022-10-26T11:50:59Z</time>
      </trkpt>
      <trkpt lat="10.277262" lon="-67.752937">
        <ele>447.20</ele>
        <time>2022-10-26T11:51:00Z</time>
      </trkpt>
      <trkpt lat="10.277249" lon="-67.752979">
        <ele>447.30</ele>
        <time>2022-10-26T11:51:01Z</time>
      </trkpt>
      <trkpt lat="10.277232" lon="-67.753019">
        <ele>447.30</ele>
        <time>2022-10-26T11:51:02Z</time>
      </trkpt>
      <trkpt lat="10.277213" lon="-67.753059">
        <ele>447.40</ele>
        <time>2022-10-26T11:51:03Z</time>
      </trkpt>
      <trkpt lat="10.277197" lon="-67.753102">
        <ele>447.40</ele>
        <time>2022-10-26T11:51:04Z</time>
      </trkpt>
      <trkpt lat="10.277182" lon="-67.753142">
        <ele>447.50</ele>
        <time>2022-10-26T11:51:05Z</time>
      </trkpt>
      <trkpt lat="10.277167" lon="-67.753181">
        <ele>447.50</ele>
        <time>2022-10-26T11:51:06Z</time>
      </trkpt>
      <trkpt lat="10.277153" lon="-67.753220">
        <ele>447.60</ele>
        <time>2022-10-26T11:51:07Z</time>
      </trkpt>
      <trkpt lat="10.277139" lon="-67.753261">
        <ele>447.70</ele>
        <time>2022-10-26T11:51:08Z</time>
      </trkpt>
      <trkpt lat="10.277127" lon="-67.753301">
        <ele>447.70</ele>
        <time>2022-10-26T11:51:09Z</time>
      </trkpt>
      <trkpt lat="10.277115" lon="-67.753340">
        <ele>447.80</ele>
        <time>2022-10-26T11:51:10Z</time>
      </trkpt>
      <trkpt lat="10.277103" lon="-67.753379">
        <ele>447.80</ele>
        <time>2022-10-26T11:51:11Z</time>
      </trkpt>
      <trkpt lat="10.277090" lon="-67.753418">
        <ele>447.90</ele>
        <time>2022-10-26T11:51:12Z</time>
      </trkpt>
      <trkpt lat="10.277074" lon="-67.753458">
        <ele>447.90</ele>
        <time>2022-10-26T11:51:13Z</time>
      </trkpt>
      <trkpt lat="10.277052" lon="-67.753497">
        <ele>447.90</ele>
        <time>2022-10-26T11:51:14Z</time>
      </trkpt>
      <trkpt lat="10.277032" lon="-67.753535">
        <ele>448.00</ele>
        <time>2022-10-26T11:51:15Z</time>
      </trkpt>
      <trkpt lat="10.277009" lon="-67.753577">
        <ele>448.00</ele>
        <time>2022-10-26T11:51:16Z</time>
      </trkpt>
      <trkpt lat="10.276986" lon="-67.753617">
        <ele>448.10</ele>
        <time>2022-10-26T11:51:17Z</time>
      </trkpt>
      <trkpt lat="10.276967" lon="-67.753655">
        <ele>448.20</ele>
        <time>2022-10-26T11:51:18Z</time>
      </trkpt>
      <trkpt lat="10.276951" lon="-67.753691">
        <ele>448.20</ele>
        <time>2022-10-26T11:51:19Z</time>
      </trkpt>
      <trkpt lat="10.276937" lon="-67.753728">
        <ele>448.20</ele>
        <time>2022-10-26T11:51:20Z</time>
      </trkpt>
      <trkpt lat="10.276922" lon="-67.753768">
        <ele>448.30</ele>
        <time>2022-10-26T11:51:21Z</time>
      </trkpt>
      <trkpt lat="10.276907" lon="-67.753810">
        <ele>448.30</ele>
        <time>2022-10-26T11:51:22Z</time>
      </trkpt>
      <trkpt lat="10.276892" lon="-67.753854">
        <ele>448.40</ele>
        <time>2022-10-26T11:51:23Z</time>
      </trkpt>
      <trkpt lat="10.276878" lon="-67.753897">
        <ele>448.40</ele>
        <time>2022-10-26T11:51:24Z</time>
      </trkpt>
      <trkpt lat="10.276861" lon="-67.753941">
        <ele>448.40</ele>
        <time>2022-10-26T11:51:25Z</time>
      </trkpt>
      <trkpt lat="10.276844" lon="-67.753984">
        <ele>448.50</ele>
        <time>2022-10-26T11:51:26Z</time>
      </trkpt>
      <trkpt lat="10.276828" lon="-67.754026">
        <ele>448.50</ele>
        <time>2022-10-26T11:51:27Z</time>
      </trkpt>
      <trkpt lat="10.276816" lon="-67.754070">
        <ele>448.50</ele>
        <time>2022-10-26T11:51:28Z</time>
      </trkpt>
      <trkpt lat="10.276804" lon="-67.754115">
        <ele>448.60</ele>
        <time>2022-10-26T11:51:29Z</time>
      </trkpt>
      <trkpt lat="10.276784" lon="-67.754160">
        <ele>448.60</ele>
        <time>2022-10-26T11:51:30Z</time>
      </trkpt>
      <trkpt lat="10.276768" lon="-67.754202">
        <ele>448.70</ele>
        <time>2022-10-26T11:51:31Z</time>
      </trkpt>
      <trkpt lat="10.276754" lon="-67.754241">
        <ele>448.70</ele>
        <time>2022-10-26T11:51:32Z</time>
      </trkpt>
      <trkpt lat="10.276740" lon="-67.754278">
        <ele>448.70</ele>
        <time>2022-10-26T11:51:33Z</time>
      </trkpt>
      <trkpt lat="10.276722" lon="-67.754322">
        <ele>448.80</ele>
        <time>2022-10-26T11:51:34Z</time>
      </trkpt>
      <trkpt lat="10.276703" lon="-67.754366">
        <ele>448.80</ele>
        <time>2022-10-26T11:51:35Z</time>
      </trkpt>
      <trkpt lat="10.276681" lon="-67.754410">
        <ele>448.80</ele>
        <time>2022-10-26T11:51:36Z</time>
      </trkpt>
      <trkpt lat="10.276661" lon="-67.754455">
        <ele>448.80</ele>
        <time>2022-10-26T11:51:37Z</time>
      </trkpt>
      <trkpt lat="10.276644" lon="-67.754497">
        <ele>448.80</ele>
        <time>2022-10-26T11:51:38Z</time>
      </trkpt>
      <trkpt lat="10.276636" lon="-67.754543">
        <ele>448.90</ele>
        <time>2022-10-26T11:51:39Z</time>
      </trkpt>
      <trkpt lat="10.276626" lon="-67.754585">
        <ele>448.90</ele>
        <time>2022-10-26T11:51:40Z</time>
      </trkpt>
      <trkpt lat="10.276615" lon="-67.754634">
        <ele>448.90</ele>
        <time>2022-10-26T11:51:41Z</time>
      </trkpt>
      <trkpt lat="10.276604" lon="-67.754687">
        <ele>448.90</ele>
        <time>2022-10-26T11:51:42Z</time>
      </trkpt>
      <trkpt lat="10.276593" lon="-67.754740">
        <ele>448.90</ele>
        <time>2022-10-26T11:51:43Z</time>
      </trkpt>
      <trkpt lat="10.276583" lon="-67.754793">
        <ele>448.90</ele>
        <time>2022-10-26T11:51:44Z</time>
      </trkpt>
      <trkpt lat="10.276572" lon="-67.754852">
        <ele>448.90</ele>
        <time>2022-10-26T11:51:45Z</time>
      </trkpt>
      <trkpt lat="10.276560" lon="-67.754912">
        <ele>449.00</ele>
        <time>2022-10-26T11:51:46Z</time>
      </trkpt>
      <trkpt lat="10.276550" lon="-67.754964">
        <ele>449.00</ele>
        <time>2022-10-26T11:51:47Z</time>
      </trkpt>
      <trkpt lat="10.276537" lon="-67.755017">
        <ele>449.00</ele>
        <time>2022-10-26T11:51:48Z</time>
      </trkpt>
      <trkpt lat="10.276526" lon="-67.755063">
        <ele>449.10</ele>
        <time>2022-10-26T11:51:49Z</time>
      </trkpt>
      <trkpt lat="10.276512" lon="-67.755111">
        <ele>449.10</ele>
        <time>2022-10-26T11:51:50Z</time>
      </trkpt>
      <trkpt lat="10.276496" lon="-67.755153">
        <ele>449.10</ele>
        <time>2022-10-26T11:51:51Z</time>
      </trkpt>
      <trkpt lat="10.276476" lon="-67.755199">
        <ele>449.20</ele>
        <time>2022-10-26T11:51:52Z</time>
      </trkpt>
      <trkpt lat="10.276457" lon="-67.755242">
        <ele>449.20</ele>
        <time>2022-10-26T11:51:53Z</time>
      </trkpt>
      <trkpt lat="10.276441" lon="-67.755290">
        <ele>449.20</ele>
        <time>2022-10-26T11:51:54Z</time>
      </trkpt>
      <trkpt lat="10.276425" lon="-67.755338">
        <ele>449.30</ele>
        <time>2022-10-26T11:51:55Z</time>
      </trkpt>
      <trkpt lat="10.276404" lon="-67.755388">
        <ele>449.30</ele>
        <time>2022-10-26T11:51:56Z</time>
      </trkpt>
      <trkpt lat="10.276371" lon="-67.755470">
        <ele>449.40</ele>
        <time>2022-10-26T11:51:58Z</time>
      </trkpt>
      <trkpt lat="10.276358" lon="-67.755510">
        <ele>449.40</ele>
        <time>2022-10-26T11:51:59Z</time>
      </trkpt>
      <trkpt lat="10.276346" lon="-67.755550">
        <ele>449.40</ele>
        <time>2022-10-26T11:52:00Z</time>
      </trkpt>
      <trkpt lat="10.276332" lon="-67.755593">
        <ele>449.40</ele>
        <time>2022-10-26T11:52:01Z</time>
      </trkpt>
      <trkpt lat="10.276318" lon="-67.755637">
        <ele>449.40</ele>
        <time>2022-10-26T11:52:02Z</time>
      </trkpt>
      <trkpt lat="10.276305" lon="-67.755681">
        <ele>449.50</ele>
        <time>2022-10-26T11:52:03Z</time>
      </trkpt>
      <trkpt lat="10.276289" lon="-67.755726">
        <ele>449.50</ele>
        <time>2022-10-26T11:52:04Z</time>
      </trkpt>
      <trkpt lat="10.276274" lon="-67.755770">
        <ele>449.50</ele>
        <time>2022-10-26T11:52:05Z</time>
      </trkpt>
      <trkpt lat="10.276258" lon="-67.755818">
        <ele>449.50</ele>
        <time>2022-10-26T11:52:06Z</time>
      </trkpt>
      <trkpt lat="10.276242" lon="-67.755865">
        <ele>449.50</ele>
        <time>2022-10-26T11:52:07Z</time>
      </trkpt>
      <trkpt lat="10.276225" lon="-67.755915">
        <ele>449.50</ele>
        <time>2022-10-26T11:52:08Z</time>
      </trkpt>
      <trkpt lat="10.276210" lon="-67.755962">
        <ele>449.40</ele>
        <time>2022-10-26T11:52:09Z</time>
      </trkpt>
      <trkpt lat="10.276195" lon="-67.756011">
        <ele>449.40</ele>
        <time>2022-10-26T11:52:10Z</time>
      </trkpt>
      <trkpt lat="10.276175" lon="-67.756060">
        <ele>449.40</ele>
        <time>2022-10-26T11:52:11Z</time>
      </trkpt>
      <trkpt lat="10.276152" lon="-67.756108">
        <ele>449.40</ele>
        <time>2022-10-26T11:52:12Z</time>
      </trkpt>
      <trkpt lat="10.276128" lon="-67.756164">
        <ele>449.40</ele>
        <time>2022-10-26T11:52:13Z</time>
      </trkpt>
      <trkpt lat="10.276104" lon="-67.756216">
        <ele>449.30</ele>
        <time>2022-10-26T11:52:14Z</time>
      </trkpt>
      <trkpt lat="10.276079" lon="-67.756269">
        <ele>449.40</ele>
        <time>2022-10-26T11:52:15Z</time>
      </trkpt>
      <trkpt lat="10.276057" lon="-67.756317">
        <ele>449.40</ele>
        <time>2022-10-26T11:52:16Z</time>
      </trkpt>
      <trkpt lat="10.276040" lon="-67.756365">
        <ele>449.40</ele>
        <time>2022-10-26T11:52:17Z</time>
      </trkpt>
      <trkpt lat="10.276025" lon="-67.756414">
        <ele>449.40</ele>
        <time>2022-10-26T11:52:18Z</time>
      </trkpt>
      <trkpt lat="10.276008" lon="-67.756467">
        <ele>449.40</ele>
        <time>2022-10-26T11:52:19Z</time>
      </trkpt>
      <trkpt lat="10.275991" lon="-67.756516">
        <ele>449.40</ele>
        <time>2022-10-26T11:52:20Z</time>
      </trkpt>
      <trkpt lat="10.275972" lon="-67.756565">
        <ele>449.40</ele>
        <time>2022-10-26T11:52:21Z</time>
      </trkpt>
      <trkpt lat="10.275956" lon="-67.756612">
        <ele>449.40</ele>
        <time>2022-10-26T11:52:22Z</time>
      </trkpt>
      <trkpt lat="10.275938" lon="-67.756661">
        <ele>449.40</ele>
        <time>2022-10-26T11:52:23Z</time>
      </trkpt>
      <trkpt lat="10.275918" lon="-67.756714">
        <ele>449.40</ele>
        <time>2022-10-26T11:52:24Z</time>
      </trkpt>
      <trkpt lat="10.275898" lon="-67.756770">
        <ele>449.30</ele>
        <time>2022-10-26T11:52:25Z</time>
      </trkpt>
      <trkpt lat="10.275885" lon="-67.756822">
        <ele>449.30</ele>
        <time>2022-10-26T11:52:26Z</time>
      </trkpt>
      <trkpt lat="10.275868" lon="-67.756871">
        <ele>449.20</ele>
        <time>2022-10-26T11:52:27Z</time>
      </trkpt>
      <trkpt lat="10.275848" lon="-67.756920">
        <ele>449.20</ele>
        <time>2022-10-26T11:52:28Z</time>
      </trkpt>
      <trkpt lat="10.275829" lon="-67.756967">
        <ele>449.20</ele>
        <time>2022-10-26T11:52:29Z</time>
      </trkpt>
      <trkpt lat="10.275808" lon="-67.757016">
        <ele>449.10</ele>
        <time>2022-10-26T11:52:30Z</time>
      </trkpt>
      <trkpt lat="10.275788" lon="-67.757067">
        <ele>449.10</ele>
        <time>2022-10-26T11:52:31Z</time>
      </trkpt>
      <trkpt lat="10.275766" lon="-67.757116">
        <ele>449.00</ele>
        <time>2022-10-26T11:52:32Z</time>
      </trkpt>
      <trkpt lat="10.275747" lon="-67.757170">
        <ele>449.00</ele>
        <time>2022-10-26T11:52:33Z</time>
      </trkpt>
      <trkpt lat="10.275728" lon="-67.757224">
        <ele>449.00</ele>
        <time>2022-10-26T11:52:34Z</time>
      </trkpt>
      <trkpt lat="10.275710" lon="-67.757282">
        <ele>448.90</ele>
        <time>2022-10-26T11:52:35Z</time>
      </trkpt>
      <trkpt lat="10.275695" lon="-67.757337">
        <ele>448.90</ele>
        <time>2022-10-26T11:52:36Z</time>
      </trkpt>
      <trkpt lat="10.275680" lon="-67.757393">
        <ele>448.90</ele>
        <time>2022-10-26T11:52:37Z</time>
      </trkpt>
      <trkpt lat="10.275665" lon="-67.757445">
        <ele>448.80</ele>
        <time>2022-10-26T11:52:38Z</time>
      </trkpt>
      <trkpt lat="10.275648" lon="-67.757497">
        <ele>448.80</ele>
        <time>2022-10-26T11:52:39Z</time>
      </trkpt>
      <trkpt lat="10.275633" lon="-67.757548">
        <ele>448.80</ele>
        <time>2022-10-26T11:52:40Z</time>
      </trkpt>
      <trkpt lat="10.275616" lon="-67.757601">
        <ele>448.80</ele>
        <time>2022-10-26T11:52:41Z</time>
      </trkpt>
      <trkpt lat="10.275601" lon="-67.757651">
        <ele>448.70</ele>
        <time>2022-10-26T11:52:42Z</time>
      </trkpt>
      <trkpt lat="10.275584" lon="-67.757700">
        <ele>448.70</ele>
        <time>2022-10-26T11:52:43Z</time>
      </trkpt>
      <trkpt lat="10.275569" lon="-67.757748">
        <ele>448.70</ele>
        <time>2022-10-26T11:52:44Z</time>
      </trkpt>
      <trkpt lat="10.275550" lon="-67.757799">
        <ele>448.60</ele>
        <time>2022-10-26T11:52:45Z</time>
      </trkpt>
      <trkpt lat="10.275528" lon="-67.757849">
        <ele>448.60</ele>
        <time>2022-10-26T11:52:46Z</time>
      </trkpt>
      <trkpt lat="10.275508" lon="-67.757901">
        <ele>448.60</ele>
        <time>2022-10-26T11:52:47Z</time>
      </trkpt>
      <trkpt lat="10.275492" lon="-67.757950">
        <ele>448.60</ele>
        <time>2022-10-26T11:52:48Z</time>
      </trkpt>
      <trkpt lat="10.275479" lon="-67.758008">
        <ele>448.50</ele>
        <time>2022-10-26T11:52:49Z</time>
      </trkpt>
      <trkpt lat="10.275464" lon="-67.758065">
        <ele>448.50</ele>
        <time>2022-10-26T11:52:50Z</time>
      </trkpt>
      <trkpt lat="10.275446" lon="-67.758126">
        <ele>448.40</ele>
        <time>2022-10-26T11:52:51Z</time>
      </trkpt>
      <trkpt lat="10.275428" lon="-67.758184">
        <ele>448.40</ele>
        <time>2022-10-26T11:52:52Z</time>
      </trkpt>
      <trkpt lat="10.275407" lon="-67.758244">
        <ele>448.30</ele>
        <time>2022-10-26T11:52:53Z</time>
      </trkpt>
      <trkpt lat="10.275387" lon="-67.758301">
        <ele>448.30</ele>
        <time>2022-10-26T11:52:54Z</time>
      </trkpt>
      <trkpt lat="10.275363" lon="-67.758362">
        <ele>448.20</ele>
        <time>2022-10-26T11:52:55Z</time>
      </trkpt>
      <trkpt lat="10.275342" lon="-67.758420">
        <ele>448.20</ele>
        <time>2022-10-26T11:52:56Z</time>
      </trkpt>
      <trkpt lat="10.275323" lon="-67.758481">
        <ele>448.20</ele>
        <time>2022-10-26T11:52:57Z</time>
      </trkpt>
      <trkpt lat="10.275307" lon="-67.758540">
        <ele>448.10</ele>
        <time>2022-10-26T11:52:58Z</time>
      </trkpt>
      <trkpt lat="10.275288" lon="-67.758602">
        <ele>448.10</ele>
        <time>2022-10-26T11:52:59Z</time>
      </trkpt>
      <trkpt lat="10.275268" lon="-67.758660">
        <ele>448.10</ele>
        <time>2022-10-26T11:53:00Z</time>
      </trkpt>
      <trkpt lat="10.275250" lon="-67.758722">
        <ele>448.00</ele>
        <time>2022-10-26T11:53:01Z</time>
      </trkpt>
      <trkpt lat="10.275234" lon="-67.758774">
        <ele>448.00</ele>
        <time>2022-10-26T11:53:02Z</time>
      </trkpt>
      <trkpt lat="10.275219" lon="-67.758828">
        <ele>448.00</ele>
        <time>2022-10-26T11:53:03Z</time>
      </trkpt>
      <trkpt lat="10.275207" lon="-67.758877">
        <ele>448.00</ele>
        <time>2022-10-26T11:53:04Z</time>
      </trkpt>
      <trkpt lat="10.275195" lon="-67.758931">
        <ele>448.00</ele>
        <time>2022-10-26T11:53:05Z</time>
      </trkpt>
      <trkpt lat="10.275180" lon="-67.758981">
        <ele>447.90</ele>
        <time>2022-10-26T11:53:06Z</time>
      </trkpt>
      <trkpt lat="10.275163" lon="-67.759035">
        <ele>447.90</ele>
        <time>2022-10-26T11:53:07Z</time>
      </trkpt>
      <trkpt lat="10.275145" lon="-67.759086">
        <ele>447.90</ele>
        <time>2022-10-26T11:53:08Z</time>
      </trkpt>
      <trkpt lat="10.275124" lon="-67.759141">
        <ele>447.90</ele>
        <time>2022-10-26T11:53:09Z</time>
      </trkpt>
      <trkpt lat="10.275105" lon="-67.759193">
        <ele>447.90</ele>
        <time>2022-10-26T11:53:10Z</time>
      </trkpt>
      <trkpt lat="10.275087" lon="-67.759246">
        <ele>447.80</ele>
        <time>2022-10-26T11:53:11Z</time>
      </trkpt>
      <trkpt lat="10.275071" lon="-67.759301">
        <ele>447.80</ele>
        <time>2022-10-26T11:53:12Z</time>
      </trkpt>
      <trkpt lat="10.275053" lon="-67.759356">
        <ele>447.80</ele>
        <time>2022-10-26T11:53:13Z</time>
      </trkpt>
      <trkpt lat="10.275035" lon="-67.759409">
        <ele>447.80</ele>
        <time>2022-10-26T11:53:14Z</time>
      </trkpt>
      <trkpt lat="10.275016" lon="-67.759459">
        <ele>447.80</ele>
        <time>2022-10-26T11:53:15Z</time>
      </trkpt>
      <trkpt lat="10.274997" lon="-67.759509">
        <ele>447.80</ele>
        <time>2022-10-26T11:53:16Z</time>
      </trkpt>
      <trkpt lat="10.274980" lon="-67.759560">
        <ele>447.70</ele>
        <time>2022-10-26T11:53:17Z</time>
      </trkpt>
      <trkpt lat="10.274962" lon="-67.759612">
        <ele>447.70</ele>
        <time>2022-10-26T11:53:18Z</time>
      </trkpt>
      <trkpt lat="10.274944" lon="-67.759666">
        <ele>447.60</ele>
        <time>2022-10-26T11:53:19Z</time>
      </trkpt>
      <trkpt lat="10.274922" lon="-67.759722">
        <ele>447.60</ele>
        <time>2022-10-26T11:53:20Z</time>
      </trkpt>
      <trkpt lat="10.274900" lon="-67.759781">
        <ele>447.50</ele>
        <time>2022-10-26T11:53:21Z</time>
      </trkpt>
      <trkpt lat="10.274879" lon="-67.759838">
        <ele>447.40</ele>
        <time>2022-10-26T11:53:22Z</time>
      </trkpt>
      <trkpt lat="10.274857" lon="-67.759896">
        <ele>447.40</ele>
        <time>2022-10-26T11:53:23Z</time>
      </trkpt>
      <trkpt lat="10.274831" lon="-67.759947">
        <ele>447.40</ele>
        <time>2022-10-26T11:53:24Z</time>
      </trkpt>
      <trkpt lat="10.274802" lon="-67.759999">
        <ele>447.30</ele>
        <time>2022-10-26T11:53:25Z</time>
      </trkpt>
      <trkpt lat="10.274774" lon="-67.760044">
        <ele>447.30</ele>
        <time>2022-10-26T11:53:26Z</time>
      </trkpt>
      <trkpt lat="10.274750" lon="-67.760090">
        <ele>447.30</ele>
        <time>2022-10-26T11:53:27Z</time>
      </trkpt>
      <trkpt lat="10.274728" lon="-67.760137">
        <ele>447.30</ele>
        <time>2022-10-26T11:53:28Z</time>
      </trkpt>
      <trkpt lat="10.274709" lon="-67.760184">
        <ele>447.20</ele>
        <time>2022-10-26T11:53:29Z</time>
      </trkpt>
      <trkpt lat="10.274690" lon="-67.760233">
        <ele>447.20</ele>
        <time>2022-10-26T11:53:30Z</time>
      </trkpt>
      <trkpt lat="10.274672" lon="-67.760283">
        <ele>447.20</ele>
        <time>2022-10-26T11:53:31Z</time>
      </trkpt>
      <trkpt lat="10.274655" lon="-67.760338">
        <ele>447.20</ele>
        <time>2022-10-26T11:53:32Z</time>
      </trkpt>
      <trkpt lat="10.274646" lon="-67.760392">
        <ele>447.20</ele>
        <time>2022-10-26T11:53:33Z</time>
      </trkpt>
      <trkpt lat="10.274633" lon="-67.760444">
        <ele>447.20</ele>
        <time>2022-10-26T11:53:34Z</time>
      </trkpt>
      <trkpt lat="10.274619" lon="-67.760493">
        <ele>447.10</ele>
        <time>2022-10-26T11:53:35Z</time>
      </trkpt>
      <trkpt lat="10.274605" lon="-67.760543">
        <ele>447.10</ele>
        <time>2022-10-26T11:53:36Z</time>
      </trkpt>
      <trkpt lat="10.274591" lon="-67.760596">
        <ele>447.10</ele>
        <time>2022-10-26T11:53:37Z</time>
      </trkpt>
      <trkpt lat="10.274575" lon="-67.760652">
        <ele>447.10</ele>
        <time>2022-10-26T11:53:38Z</time>
      </trkpt>
      <trkpt lat="10.274557" lon="-67.760703">
        <ele>447.10</ele>
        <time>2022-10-26T11:53:39Z</time>
      </trkpt>
      <trkpt lat="10.274537" lon="-67.760754">
        <ele>447.10</ele>
        <time>2022-10-26T11:53:40Z</time>
      </trkpt>
      <trkpt lat="10.274518" lon="-67.760804">
        <ele>447.10</ele>
        <time>2022-10-26T11:53:41Z</time>
      </trkpt>
      <trkpt lat="10.274499" lon="-67.760856">
        <ele>447.10</ele>
        <time>2022-10-26T11:53:42Z</time>
      </trkpt>
      <trkpt lat="10.274483" lon="-67.760909">
        <ele>447.10</ele>
        <time>2022-10-26T11:53:43Z</time>
      </trkpt>
      <trkpt lat="10.274466" lon="-67.760961">
        <ele>447.10</ele>
        <time>2022-10-26T11:53:44Z</time>
      </trkpt>
      <trkpt lat="10.274447" lon="-67.761013">
        <ele>447.10</ele>
        <time>2022-10-26T11:53:45Z</time>
      </trkpt>
      <trkpt lat="10.274428" lon="-67.761064">
        <ele>447.10</ele>
        <time>2022-10-26T11:53:46Z</time>
      </trkpt>
      <trkpt lat="10.274410" lon="-67.761114">
        <ele>447.10</ele>
        <time>2022-10-26T11:53:47Z</time>
      </trkpt>
      <trkpt lat="10.274393" lon="-67.761164">
        <ele>447.10</ele>
        <time>2022-10-26T11:53:48Z</time>
      </trkpt>
      <trkpt lat="10.274376" lon="-67.761214">
        <ele>447.10</ele>
        <time>2022-10-26T11:53:49Z</time>
      </trkpt>
      <trkpt lat="10.274360" lon="-67.761264">
        <ele>447.20</ele>
        <time>2022-10-26T11:53:50Z</time>
      </trkpt>
      <trkpt lat="10.274338" lon="-67.761311">
        <ele>447.20</ele>
        <time>2022-10-26T11:53:51Z</time>
      </trkpt>
      <trkpt lat="10.274314" lon="-67.761359">
        <ele>447.20</ele>
        <time>2022-10-26T11:53:52Z</time>
      </trkpt>
      <trkpt lat="10.274291" lon="-67.761406">
        <ele>447.30</ele>
        <time>2022-10-26T11:53:53Z</time>
      </trkpt>
      <trkpt lat="10.274271" lon="-67.761453">
        <ele>447.30</ele>
        <time>2022-10-26T11:53:54Z</time>
      </trkpt>
      <trkpt lat="10.274253" lon="-67.761502">
        <ele>447.30</ele>
        <time>2022-10-26T11:53:55Z</time>
      </trkpt>
      <trkpt lat="10.274236" lon="-67.761551">
        <ele>447.30</ele>
        <time>2022-10-26T11:53:56Z</time>
      </trkpt>
      <trkpt lat="10.274219" lon="-67.761597">
        <ele>447.40</ele>
        <time>2022-10-26T11:53:57Z</time>
      </trkpt>
      <trkpt lat="10.274203" lon="-67.761641">
        <ele>447.40</ele>
        <time>2022-10-26T11:53:58Z</time>
      </trkpt>
      <trkpt lat="10.274187" lon="-67.761686">
        <ele>447.40</ele>
        <time>2022-10-26T11:53:59Z</time>
      </trkpt>
      <trkpt lat="10.274169" lon="-67.761732">
        <ele>447.50</ele>
        <time>2022-10-26T11:54:00Z</time>
      </trkpt>
      <trkpt lat="10.274150" lon="-67.761780">
        <ele>447.50</ele>
        <time>2022-10-26T11:54:01Z</time>
      </trkpt>
      <trkpt lat="10.274130" lon="-67.761831">
        <ele>447.50</ele>
        <time>2022-10-26T11:54:02Z</time>
      </trkpt>
      <trkpt lat="10.274109" lon="-67.761882">
        <ele>447.60</ele>
        <time>2022-10-26T11:54:03Z</time>
      </trkpt>
      <trkpt lat="10.274088" lon="-67.761930">
        <ele>447.60</ele>
        <time>2022-10-26T11:54:04Z</time>
      </trkpt>
      <trkpt lat="10.274067" lon="-67.761978">
        <ele>447.60</ele>
        <time>2022-10-26T11:54:05Z</time>
      </trkpt>
      <trkpt lat="10.274041" lon="-67.762025">
        <ele>447.70</ele>
        <time>2022-10-26T11:54:06Z</time>
      </trkpt>
      <trkpt lat="10.274020" lon="-67.762073">
        <ele>447.70</ele>
        <time>2022-10-26T11:54:07Z</time>
      </trkpt>
      <trkpt lat="10.274002" lon="-67.762123">
        <ele>447.80</ele>
        <time>2022-10-26T11:54:08Z</time>
      </trkpt>
      <trkpt lat="10.273986" lon="-67.762172">
        <ele>447.80</ele>
        <time>2022-10-26T11:54:09Z</time>
      </trkpt>
      <trkpt lat="10.273971" lon="-67.762220">
        <ele>447.80</ele>
        <time>2022-10-26T11:54:10Z</time>
      </trkpt>
      <trkpt lat="10.273957" lon="-67.762268">
        <ele>447.90</ele>
        <time>2022-10-26T11:54:11Z</time>
      </trkpt>
      <trkpt lat="10.273945" lon="-67.762316">
        <ele>447.90</ele>
        <time>2022-10-26T11:54:12Z</time>
      </trkpt>
      <trkpt lat="10.273934" lon="-67.762362">
        <ele>447.90</ele>
        <time>2022-10-26T11:54:13Z</time>
      </trkpt>
      <trkpt lat="10.273921" lon="-67.762409">
        <ele>448.00</ele>
        <time>2022-10-26T11:54:14Z</time>
      </trkpt>
      <trkpt lat="10.273912" lon="-67.762455">
        <ele>448.00</ele>
        <time>2022-10-26T11:54:15Z</time>
      </trkpt>
      <trkpt lat="10.273900" lon="-67.762499">
        <ele>448.00</ele>
        <time>2022-10-26T11:54:16Z</time>
      </trkpt>
      <trkpt lat="10.273887" lon="-67.762543">
        <ele>448.00</ele>
        <time>2022-10-26T11:54:17Z</time>
      </trkpt>
      <trkpt lat="10.273875" lon="-67.762587">
        <ele>448.10</ele>
        <time>2022-10-26T11:54:18Z</time>
      </trkpt>
      <trkpt lat="10.273862" lon="-67.762632">
        <ele>448.10</ele>
        <time>2022-10-26T11:54:19Z</time>
      </trkpt>
      <trkpt lat="10.273847" lon="-67.762678">
        <ele>448.10</ele>
        <time>2022-10-26T11:54:20Z</time>
      </trkpt>
      <trkpt lat="10.273833" lon="-67.762725">
        <ele>448.20</ele>
        <time>2022-10-26T11:54:21Z</time>
      </trkpt>
      <trkpt lat="10.273824" lon="-67.762769">
        <ele>448.20</ele>
        <time>2022-10-26T11:54:22Z</time>
      </trkpt>
      <trkpt lat="10.273815" lon="-67.762815">
        <ele>448.20</ele>
        <time>2022-10-26T11:54:23Z</time>
      </trkpt>
      <trkpt lat="10.273801" lon="-67.762860">
        <ele>448.30</ele>
        <time>2022-10-26T11:54:24Z</time>
      </trkpt>
      <trkpt lat="10.273787" lon="-67.762906">
        <ele>448.30</ele>
        <time>2022-10-26T11:54:25Z</time>
      </trkpt>
      <trkpt lat="10.273771" lon="-67.762951">
        <ele>448.30</ele>
        <time>2022-10-26T11:54:26Z</time>
      </trkpt>
      <trkpt lat="10.273754" lon="-67.762993">
        <ele>448.40</ele>
        <time>2022-10-26T11:54:27Z</time>
      </trkpt>
      <trkpt lat="10.273737" lon="-67.763036">
        <ele>448.40</ele>
        <time>2022-10-26T11:54:28Z</time>
      </trkpt>
      <trkpt lat="10.273722" lon="-67.763078">
        <ele>448.40</ele>
        <time>2022-10-26T11:54:29Z</time>
      </trkpt>
      <trkpt lat="10.273708" lon="-67.763122">
        <ele>448.40</ele>
        <time>2022-10-26T11:54:30Z</time>
      </trkpt>
      <trkpt lat="10.273695" lon="-67.763167">
        <ele>448.50</ele>
        <time>2022-10-26T11:54:31Z</time>
      </trkpt>
      <trkpt lat="10.273680" lon="-67.763209">
        <ele>448.50</ele>
        <time>2022-10-26T11:54:32Z</time>
      </trkpt>
      <trkpt lat="10.273664" lon="-67.763249">
        <ele>448.50</ele>
        <time>2022-10-26T11:54:33Z</time>
      </trkpt>
      <trkpt lat="10.273648" lon="-67.763286">
        <ele>448.60</ele>
        <time>2022-10-26T11:54:34Z</time>
      </trkpt>
      <trkpt lat="10.273633" lon="-67.763323">
        <ele>448.60</ele>
        <time>2022-10-26T11:54:35Z</time>
      </trkpt>
      <trkpt lat="10.273618" lon="-67.763364">
        <ele>448.60</ele>
        <time>2022-10-26T11:54:36Z</time>
      </trkpt>
      <trkpt lat="10.273598" lon="-67.763406">
        <ele>448.70</ele>
        <time>2022-10-26T11:54:37Z</time>
      </trkpt>
      <trkpt lat="10.273579" lon="-67.763445">
        <ele>448.70</ele>
        <time>2022-10-26T11:54:38Z</time>
      </trkpt>
      <trkpt lat="10.273556" lon="-67.763487">
        <ele>448.70</ele>
        <time>2022-10-26T11:54:39Z</time>
      </trkpt>
      <trkpt lat="10.273533" lon="-67.763530">
        <ele>448.80</ele>
        <time>2022-10-26T11:54:40Z</time>
      </trkpt>
      <trkpt lat="10.273515" lon="-67.763574">
        <ele>448.80</ele>
        <time>2022-10-26T11:54:41Z</time>
      </trkpt>
      <trkpt lat="10.273501" lon="-67.763618">
        <ele>448.80</ele>
        <time>2022-10-26T11:54:42Z</time>
      </trkpt>
      <trkpt lat="10.273490" lon="-67.763660">
        <ele>448.80</ele>
        <time>2022-10-26T11:54:43Z</time>
      </trkpt>
      <trkpt lat="10.273479" lon="-67.763699">
        <ele>448.90</ele>
        <time>2022-10-26T11:54:44Z</time>
      </trkpt>
      <trkpt lat="10.273469" lon="-67.763739">
        <ele>448.90</ele>
        <time>2022-10-26T11:54:45Z</time>
      </trkpt>
      <trkpt lat="10.273457" lon="-67.763778">
        <ele>448.90</ele>
        <time>2022-10-26T11:54:46Z</time>
      </trkpt>
      <trkpt lat="10.273440" lon="-67.763820">
        <ele>448.90</ele>
        <time>2022-10-26T11:54:47Z</time>
      </trkpt>
      <trkpt lat="10.273430" lon="-67.763865">
        <ele>449.00</ele>
        <time>2022-10-26T11:54:48Z</time>
      </trkpt>
      <trkpt lat="10.273415" lon="-67.763911">
        <ele>449.00</ele>
        <time>2022-10-26T11:54:49Z</time>
      </trkpt>
      <trkpt lat="10.273395" lon="-67.763957">
        <ele>449.00</ele>
        <time>2022-10-26T11:54:50Z</time>
      </trkpt>
      <trkpt lat="10.273383" lon="-67.764004">
        <ele>449.10</ele>
        <time>2022-10-26T11:54:51Z</time>
      </trkpt>
      <trkpt lat="10.273372" lon="-67.764049">
        <ele>449.10</ele>
        <time>2022-10-26T11:54:52Z</time>
      </trkpt>
      <trkpt lat="10.273361" lon="-67.764092">
        <ele>449.10</ele>
        <time>2022-10-26T11:54:53Z</time>
      </trkpt>
      <trkpt lat="10.273347" lon="-67.764136">
        <ele>449.10</ele>
        <time>2022-10-26T11:54:54Z</time>
      </trkpt>
      <trkpt lat="10.273332" lon="-67.764179">
        <ele>449.20</ele>
        <time>2022-10-26T11:54:55Z</time>
      </trkpt>
      <trkpt lat="10.273318" lon="-67.764220">
        <ele>449.20</ele>
        <time>2022-10-26T11:54:56Z</time>
      </trkpt>
      <trkpt lat="10.273304" lon="-67.764261">
        <ele>449.30</ele>
        <time>2022-10-26T11:54:57Z</time>
      </trkpt>
      <trkpt lat="10.273291" lon="-67.764300">
        <ele>449.30</ele>
        <time>2022-10-26T11:54:58Z</time>
      </trkpt>
      <trkpt lat="10.273277" lon="-67.764339">
        <ele>449.30</ele>
        <time>2022-10-26T11:54:59Z</time>
      </trkpt>
      <trkpt lat="10.273262" lon="-67.764377">
        <ele>449.40</ele>
        <time>2022-10-26T11:55:00Z</time>
      </trkpt>
      <trkpt lat="10.273247" lon="-67.764417">
        <ele>449.40</ele>
        <time>2022-10-26T11:55:01Z</time>
      </trkpt>
      <trkpt lat="10.273232" lon="-67.764454">
        <ele>449.40</ele>
        <time>2022-10-26T11:55:02Z</time>
      </trkpt>
      <trkpt lat="10.273218" lon="-67.764491">
        <ele>449.40</ele>
        <time>2022-10-26T11:55:03Z</time>
      </trkpt>
      <trkpt lat="10.273199" lon="-67.764529">
        <ele>449.40</ele>
        <time>2022-10-26T11:55:04Z</time>
      </trkpt>
      <trkpt lat="10.273181" lon="-67.764565">
        <ele>449.50</ele>
        <time>2022-10-26T11:55:05Z</time>
      </trkpt>
      <trkpt lat="10.273165" lon="-67.764601">
        <ele>449.50</ele>
        <time>2022-10-26T11:55:06Z</time>
      </trkpt>
      <trkpt lat="10.273149" lon="-67.764638">
        <ele>449.50</ele>
        <time>2022-10-26T11:55:07Z</time>
      </trkpt>
      <trkpt lat="10.273132" lon="-67.764680">
        <ele>449.50</ele>
        <time>2022-10-26T11:55:08Z</time>
      </trkpt>
      <trkpt lat="10.273114" lon="-67.764719">
        <ele>449.50</ele>
        <time>2022-10-26T11:55:09Z</time>
      </trkpt>
      <trkpt lat="10.273095" lon="-67.764758">
        <ele>449.60</ele>
        <time>2022-10-26T11:55:10Z</time>
      </trkpt>
      <trkpt lat="10.273078" lon="-67.764794">
        <ele>449.60</ele>
        <time>2022-10-26T11:55:11Z</time>
      </trkpt>
      <trkpt lat="10.273065" lon="-67.764831">
        <ele>449.60</ele>
        <time>2022-10-26T11:55:12Z</time>
      </trkpt>
      <trkpt lat="10.273056" lon="-67.764871">
        <ele>449.60</ele>
        <time>2022-10-26T11:55:13Z</time>
      </trkpt>
      <trkpt lat="10.273044" lon="-67.764913">
        <ele>449.60</ele>
        <time>2022-10-26T11:55:14Z</time>
      </trkpt>
      <trkpt lat="10.273024" lon="-67.764956">
        <ele>449.70</ele>
        <time>2022-10-26T11:55:15Z</time>
      </trkpt>
      <trkpt lat="10.273000" lon="-67.764999">
        <ele>449.70</ele>
        <time>2022-10-26T11:55:16Z</time>
      </trkpt>
      <trkpt lat="10.272979" lon="-67.765044">
        <ele>449.80</ele>
        <time>2022-10-26T11:55:17Z</time>
      </trkpt>
      <trkpt lat="10.272963" lon="-67.765090">
        <ele>449.80</ele>
        <time>2022-10-26T11:55:18Z</time>
      </trkpt>
      <trkpt lat="10.272950" lon="-67.765134">
        <ele>449.80</ele>
        <time>2022-10-26T11:55:19Z</time>
      </trkpt>
      <trkpt lat="10.272938" lon="-67.765182">
        <ele>449.90</ele>
        <time>2022-10-26T11:55:20Z</time>
      </trkpt>
      <trkpt lat="10.272923" lon="-67.765232">
        <ele>449.90</ele>
        <time>2022-10-26T11:55:21Z</time>
      </trkpt>
      <trkpt lat="10.272908" lon="-67.765279">
        <ele>449.90</ele>
        <time>2022-10-26T11:55:22Z</time>
      </trkpt>
      <trkpt lat="10.272897" lon="-67.765324">
        <ele>449.90</ele>
        <time>2022-10-26T11:55:23Z</time>
      </trkpt>
      <trkpt lat="10.272883" lon="-67.765368">
        <ele>449.90</ele>
        <time>2022-10-26T11:55:24Z</time>
      </trkpt>
      <trkpt lat="10.272868" lon="-67.765409">
        <ele>449.90</ele>
        <time>2022-10-26T11:55:25Z</time>
      </trkpt>
      <trkpt lat="10.272854" lon="-67.765455">
        <ele>449.90</ele>
        <time>2022-10-26T11:55:26Z</time>
      </trkpt>
      <trkpt lat="10.272839" lon="-67.765499">
        <ele>450.00</ele>
        <time>2022-10-26T11:55:27Z</time>
      </trkpt>
      <trkpt lat="10.272824" lon="-67.765537">
        <ele>450.00</ele>
        <time>2022-10-26T11:55:28Z</time>
      </trkpt>
      <trkpt lat="10.272811" lon="-67.765577">
        <ele>450.00</ele>
        <time>2022-10-26T11:55:29Z</time>
      </trkpt>
      <trkpt lat="10.272796" lon="-67.765617">
        <ele>450.00</ele>
        <time>2022-10-26T11:55:30Z</time>
      </trkpt>
      <trkpt lat="10.272779" lon="-67.765658">
        <ele>450.00</ele>
        <time>2022-10-26T11:55:31Z</time>
      </trkpt>
      <trkpt lat="10.272759" lon="-67.765705">
        <ele>450.00</ele>
        <time>2022-10-26T11:55:32Z</time>
      </trkpt>
      <trkpt lat="10.272743" lon="-67.765752">
        <ele>450.00</ele>
        <time>2022-10-26T11:55:33Z</time>
      </trkpt>
      <trkpt lat="10.272726" lon="-67.765801">
        <ele>450.00</ele>
        <time>2022-10-26T11:55:34Z</time>
      </trkpt>
      <trkpt lat="10.272710" lon="-67.765845">
        <ele>450.00</ele>
        <time>2022-10-26T11:55:35Z</time>
      </trkpt>
      <trkpt lat="10.272696" lon="-67.765890">
        <ele>450.00</ele>
        <time>2022-10-26T11:55:36Z</time>
      </trkpt>
      <trkpt lat="10.272684" lon="-67.765935">
        <ele>450.00</ele>
        <time>2022-10-26T11:55:37Z</time>
      </trkpt>
      <trkpt lat="10.272671" lon="-67.765982">
        <ele>449.90</ele>
        <time>2022-10-26T11:55:38Z</time>
      </trkpt>
      <trkpt lat="10.272659" lon="-67.766028">
        <ele>449.90</ele>
        <time>2022-10-26T11:55:39Z</time>
      </trkpt>
      <trkpt lat="10.272647" lon="-67.766075">
        <ele>449.90</ele>
        <time>2022-10-26T11:55:40Z</time>
      </trkpt>
      <trkpt lat="10.272635" lon="-67.766122">
        <ele>449.90</ele>
        <time>2022-10-26T11:55:41Z</time>
      </trkpt>
      <trkpt lat="10.272621" lon="-67.766167">
        <ele>449.90</ele>
        <time>2022-10-26T11:55:42Z</time>
      </trkpt>
      <trkpt lat="10.272613" lon="-67.766217">
        <ele>449.90</ele>
        <time>2022-10-26T11:55:43Z</time>
      </trkpt>
      <trkpt lat="10.272594" lon="-67.766265">
        <ele>449.90</ele>
        <time>2022-10-26T11:55:44Z</time>
      </trkpt>
      <trkpt lat="10.272573" lon="-67.766310">
        <ele>449.90</ele>
        <time>2022-10-26T11:55:45Z</time>
      </trkpt>
      <trkpt lat="10.272557" lon="-67.766358">
        <ele>449.90</ele>
        <time>2022-10-26T11:55:46Z</time>
      </trkpt>
      <trkpt lat="10.272546" lon="-67.766405">
        <ele>449.90</ele>
        <time>2022-10-26T11:55:47Z</time>
      </trkpt>
      <trkpt lat="10.272536" lon="-67.766449">
        <ele>449.90</ele>
        <time>2022-10-26T11:55:48Z</time>
      </trkpt>
      <trkpt lat="10.272525" lon="-67.766495">
        <ele>449.80</ele>
        <time>2022-10-26T11:55:49Z</time>
      </trkpt>
      <trkpt lat="10.272512" lon="-67.766541">
        <ele>449.80</ele>
        <time>2022-10-26T11:55:50Z</time>
      </trkpt>
      <trkpt lat="10.272499" lon="-67.766588">
        <ele>449.80</ele>
        <time>2022-10-26T11:55:51Z</time>
      </trkpt>
      <trkpt lat="10.272486" lon="-67.766633">
        <ele>449.80</ele>
        <time>2022-10-26T11:55:52Z</time>
      </trkpt>
      <trkpt lat="10.272474" lon="-67.766677">
        <ele>449.80</ele>
        <time>2022-10-26T11:55:53Z</time>
      </trkpt>
      <trkpt lat="10.272459" lon="-67.766720">
        <ele>449.70</ele>
        <time>2022-10-26T11:55:54Z</time>
      </trkpt>
      <trkpt lat="10.272441" lon="-67.766765">
        <ele>449.70</ele>
        <time>2022-10-26T11:55:55Z</time>
      </trkpt>
      <trkpt lat="10.272425" lon="-67.766811">
        <ele>449.70</ele>
        <time>2022-10-26T11:55:56Z</time>
      </trkpt>
      <trkpt lat="10.272407" lon="-67.766854">
        <ele>449.70</ele>
        <time>2022-10-26T11:55:57Z</time>
      </trkpt>
      <trkpt lat="10.272397" lon="-67.766904">
        <ele>449.60</ele>
        <time>2022-10-26T11:55:58Z</time>
      </trkpt>
      <trkpt lat="10.272390" lon="-67.766958">
        <ele>449.60</ele>
        <time>2022-10-26T11:55:59Z</time>
      </trkpt>
      <trkpt lat="10.272388" lon="-67.767011">
        <ele>449.50</ele>
        <time>2022-10-26T11:56:00Z</time>
      </trkpt>
      <trkpt lat="10.272386" lon="-67.767063">
        <ele>449.50</ele>
        <time>2022-10-26T11:56:01Z</time>
      </trkpt>
      <trkpt lat="10.272369" lon="-67.767114">
        <ele>449.40</ele>
        <time>2022-10-26T11:56:02Z</time>
      </trkpt>
      <trkpt lat="10.272352" lon="-67.767171">
        <ele>449.40</ele>
        <time>2022-10-26T11:56:03Z</time>
      </trkpt>
      <trkpt lat="10.272333" lon="-67.767224">
        <ele>449.30</ele>
        <time>2022-10-26T11:56:04Z</time>
      </trkpt>
      <trkpt lat="10.272317" lon="-67.767276">
        <ele>449.20</ele>
        <time>2022-10-26T11:56:05Z</time>
      </trkpt>
      <trkpt lat="10.272303" lon="-67.767327">
        <ele>449.20</ele>
        <time>2022-10-26T11:56:06Z</time>
      </trkpt>
      <trkpt lat="10.272292" lon="-67.767380">
        <ele>449.10</ele>
        <time>2022-10-26T11:56:07Z</time>
      </trkpt>
      <trkpt lat="10.272284" lon="-67.767434">
        <ele>449.00</ele>
        <time>2022-10-26T11:56:08Z</time>
      </trkpt>
      <trkpt lat="10.272270" lon="-67.767486">
        <ele>449.00</ele>
        <time>2022-10-26T11:56:09Z</time>
      </trkpt>
      <trkpt lat="10.272259" lon="-67.767536">
        <ele>448.90</ele>
        <time>2022-10-26T11:56:10Z</time>
      </trkpt>
      <trkpt lat="10.272249" lon="-67.767586">
        <ele>448.80</ele>
        <time>2022-10-26T11:56:11Z</time>
      </trkpt>
      <trkpt lat="10.272244" lon="-67.767636">
        <ele>448.80</ele>
        <time>2022-10-26T11:56:12Z</time>
      </trkpt>
      <trkpt lat="10.272236" lon="-67.767682">
        <ele>448.70</ele>
        <time>2022-10-26T11:56:13Z</time>
      </trkpt>
      <trkpt lat="10.272226" lon="-67.767727">
        <ele>448.70</ele>
        <time>2022-10-26T11:56:14Z</time>
      </trkpt>
      <trkpt lat="10.272213" lon="-67.767774">
        <ele>448.70</ele>
        <time>2022-10-26T11:56:15Z</time>
      </trkpt>
      <trkpt lat="10.272199" lon="-67.767824">
        <ele>448.70</ele>
        <time>2022-10-26T11:56:16Z</time>
      </trkpt>
      <trkpt lat="10.272186" lon="-67.767875">
        <ele>448.60</ele>
        <time>2022-10-26T11:56:17Z</time>
      </trkpt>
      <trkpt lat="10.272174" lon="-67.767928">
        <ele>448.60</ele>
        <time>2022-10-26T11:56:18Z</time>
      </trkpt>
      <trkpt lat="10.272160" lon="-67.767984">
        <ele>448.50</ele>
        <time>2022-10-26T11:56:19Z</time>
      </trkpt>
      <trkpt lat="10.272145" lon="-67.768042">
        <ele>448.40</ele>
        <time>2022-10-26T11:56:20Z</time>
      </trkpt>
      <trkpt lat="10.272127" lon="-67.768101">
        <ele>448.30</ele>
        <time>2022-10-26T11:56:21Z</time>
      </trkpt>
      <trkpt lat="10.272106" lon="-67.768159">
        <ele>448.20</ele>
        <time>2022-10-26T11:56:22Z</time>
      </trkpt>
      <trkpt lat="10.272085" lon="-67.768214">
        <ele>448.10</ele>
        <time>2022-10-26T11:56:23Z</time>
      </trkpt>
      <trkpt lat="10.272064" lon="-67.768273">
        <ele>448.00</ele>
        <time>2022-10-26T11:56:24Z</time>
      </trkpt>
      <trkpt lat="10.272042" lon="-67.768333">
        <ele>447.90</ele>
        <time>2022-10-26T11:56:25Z</time>
      </trkpt>
      <trkpt lat="10.272025" lon="-67.768396">
        <ele>447.70</ele>
        <time>2022-10-26T11:56:26Z</time>
      </trkpt>
      <trkpt lat="10.272002" lon="-67.768459">
        <ele>447.60</ele>
        <time>2022-10-26T11:56:27Z</time>
      </trkpt>
      <trkpt lat="10.271986" lon="-67.768519">
        <ele>447.50</ele>
        <time>2022-10-26T11:56:28Z</time>
      </trkpt>
      <trkpt lat="10.271973" lon="-67.768572">
        <ele>447.50</ele>
        <time>2022-10-26T11:56:29Z</time>
      </trkpt>
      <trkpt lat="10.271964" lon="-67.768624">
        <ele>447.40</ele>
        <time>2022-10-26T11:56:30Z</time>
      </trkpt>
      <trkpt lat="10.271962" lon="-67.768682">
        <ele>447.30</ele>
        <time>2022-10-26T11:56:31Z</time>
      </trkpt>
      <trkpt lat="10.271946" lon="-67.768745">
        <ele>447.20</ele>
        <time>2022-10-26T11:56:32Z</time>
      </trkpt>
      <trkpt lat="10.271932" lon="-67.768807">
        <ele>447.10</ele>
        <time>2022-10-26T11:56:33Z</time>
      </trkpt>
      <trkpt lat="10.271918" lon="-67.768865">
        <ele>447.00</ele>
        <time>2022-10-26T11:56:34Z</time>
      </trkpt>
      <trkpt lat="10.271903" lon="-67.768922">
        <ele>446.90</ele>
        <time>2022-10-26T11:56:35Z</time>
      </trkpt>
      <trkpt lat="10.271894" lon="-67.768975">
        <ele>446.90</ele>
        <time>2022-10-26T11:56:36Z</time>
      </trkpt>
      <trkpt lat="10.271884" lon="-67.769029">
        <ele>446.80</ele>
        <time>2022-10-26T11:56:37Z</time>
      </trkpt>
      <trkpt lat="10.271872" lon="-67.769086">
        <ele>446.70</ele>
        <time>2022-10-26T11:56:38Z</time>
      </trkpt>
      <trkpt lat="10.271856" lon="-67.769146">
        <ele>446.60</ele>
        <time>2022-10-26T11:56:39Z</time>
      </trkpt>
      <trkpt lat="10.271840" lon="-67.769206">
        <ele>446.60</ele>
        <time>2022-10-26T11:56:40Z</time>
      </trkpt>
      <trkpt lat="10.271828" lon="-67.769267">
        <ele>446.50</ele>
        <time>2022-10-26T11:56:41Z</time>
      </trkpt>
      <trkpt lat="10.271815" lon="-67.769328">
        <ele>446.50</ele>
        <time>2022-10-26T11:56:42Z</time>
      </trkpt>
      <trkpt lat="10.271798" lon="-67.769384">
        <ele>446.40</ele>
        <time>2022-10-26T11:56:43Z</time>
      </trkpt>
      <trkpt lat="10.271779" lon="-67.769439">
        <ele>446.30</ele>
        <time>2022-10-26T11:56:44Z</time>
      </trkpt>
      <trkpt lat="10.271763" lon="-67.769496">
        <ele>446.20</ele>
        <time>2022-10-26T11:56:45Z</time>
      </trkpt>
      <trkpt lat="10.271748" lon="-67.769557">
        <ele>446.20</ele>
        <time>2022-10-26T11:56:46Z</time>
      </trkpt>
      <trkpt lat="10.271733" lon="-67.769614">
        <ele>446.10</ele>
        <time>2022-10-26T11:56:47Z</time>
      </trkpt>
      <trkpt lat="10.271714" lon="-67.769670">
        <ele>446.00</ele>
        <time>2022-10-26T11:56:48Z</time>
      </trkpt>
      <trkpt lat="10.271697" lon="-67.769722">
        <ele>446.00</ele>
        <time>2022-10-26T11:56:49Z</time>
      </trkpt>
      <trkpt lat="10.271681" lon="-67.769772">
        <ele>445.90</ele>
        <time>2022-10-26T11:56:50Z</time>
      </trkpt>
      <trkpt lat="10.271671" lon="-67.769825">
        <ele>445.80</ele>
        <time>2022-10-26T11:56:51Z</time>
      </trkpt>
      <trkpt lat="10.271659" lon="-67.769879">
        <ele>445.80</ele>
        <time>2022-10-26T11:56:52Z</time>
      </trkpt>
      <trkpt lat="10.271646" lon="-67.769936">
        <ele>445.80</ele>
        <time>2022-10-26T11:56:53Z</time>
      </trkpt>
      <trkpt lat="10.271632" lon="-67.769994">
        <ele>445.70</ele>
        <time>2022-10-26T11:56:54Z</time>
      </trkpt>
      <trkpt lat="10.271623" lon="-67.770052">
        <ele>445.70</ele>
        <time>2022-10-26T11:56:55Z</time>
      </trkpt>
      <trkpt lat="10.271618" lon="-67.770111">
        <ele>445.70</ele>
        <time>2022-10-26T11:56:56Z</time>
      </trkpt>
      <trkpt lat="10.271608" lon="-67.770171">
        <ele>445.60</ele>
        <time>2022-10-26T11:56:57Z</time>
      </trkpt>
      <trkpt lat="10.271601" lon="-67.770226">
        <ele>445.60</ele>
        <time>2022-10-26T11:56:58Z</time>
      </trkpt>
      <trkpt lat="10.271586" lon="-67.770278">
        <ele>445.60</ele>
        <time>2022-10-26T11:56:59Z</time>
      </trkpt>
      <trkpt lat="10.271574" lon="-67.770327">
        <ele>445.50</ele>
        <time>2022-10-26T11:57:00Z</time>
      </trkpt>
      <trkpt lat="10.271560" lon="-67.770382">
        <ele>445.50</ele>
        <time>2022-10-26T11:57:01Z</time>
      </trkpt>
      <trkpt lat="10.271554" lon="-67.770441">
        <ele>445.50</ele>
        <time>2022-10-26T11:57:02Z</time>
      </trkpt>
      <trkpt lat="10.271544" lon="-67.770495">
        <ele>445.40</ele>
        <time>2022-10-26T11:57:03Z</time>
      </trkpt>
      <trkpt lat="10.271530" lon="-67.770548">
        <ele>445.40</ele>
        <time>2022-10-26T11:57:04Z</time>
      </trkpt>
      <trkpt lat="10.271516" lon="-67.770603">
        <ele>445.40</ele>
        <time>2022-10-26T11:57:05Z</time>
      </trkpt>
      <trkpt lat="10.271507" lon="-67.770664">
        <ele>445.40</ele>
        <time>2022-10-26T11:57:06Z</time>
      </trkpt>
      <trkpt lat="10.271499" lon="-67.770724">
        <ele>445.40</ele>
        <time>2022-10-26T11:57:07Z</time>
      </trkpt>
      <trkpt lat="10.271498" lon="-67.770789">
        <ele>445.40</ele>
        <time>2022-10-26T11:57:08Z</time>
      </trkpt>
      <trkpt lat="10.271495" lon="-67.770851">
        <ele>445.40</ele>
        <time>2022-10-26T11:57:09Z</time>
      </trkpt>
      <trkpt lat="10.271483" lon="-67.770911">
        <ele>445.40</ele>
        <time>2022-10-26T11:57:10Z</time>
      </trkpt>
      <trkpt lat="10.271460" lon="-67.770969">
        <ele>445.40</ele>
        <time>2022-10-26T11:57:11Z</time>
      </trkpt>
      <trkpt lat="10.271436" lon="-67.771024">
        <ele>445.30</ele>
        <time>2022-10-26T11:57:12Z</time>
      </trkpt>
      <trkpt lat="10.271414" lon="-67.771072">
        <ele>445.30</ele>
        <time>2022-10-26T11:57:13Z</time>
      </trkpt>
      <trkpt lat="10.271392" lon="-67.771120">
        <ele>445.30</ele>
        <time>2022-10-26T11:57:14Z</time>
      </trkpt>
      <trkpt lat="10.271378" lon="-67.771172">
        <ele>445.30</ele>
        <time>2022-10-26T11:57:15Z</time>
      </trkpt>
      <trkpt lat="10.271365" lon="-67.771226">
        <ele>445.30</ele>
        <time>2022-10-26T11:57:16Z</time>
      </trkpt>
      <trkpt lat="10.271353" lon="-67.771279">
        <ele>445.40</ele>
        <time>2022-10-26T11:57:17Z</time>
      </trkpt>
      <trkpt lat="10.271339" lon="-67.771332">
        <ele>445.40</ele>
        <time>2022-10-26T11:57:18Z</time>
      </trkpt>
      <trkpt lat="10.271323" lon="-67.771380">
        <ele>445.40</ele>
        <time>2022-10-26T11:57:19Z</time>
      </trkpt>
      <trkpt lat="10.271304" lon="-67.771427">
        <ele>445.40</ele>
        <time>2022-10-26T11:57:20Z</time>
      </trkpt>
      <trkpt lat="10.271288" lon="-67.771480">
        <ele>445.40</ele>
        <time>2022-10-26T11:57:21Z</time>
      </trkpt>
      <trkpt lat="10.271273" lon="-67.771535">
        <ele>445.40</ele>
        <time>2022-10-26T11:57:22Z</time>
      </trkpt>
      <trkpt lat="10.271260" lon="-67.771587">
        <ele>445.40</ele>
        <time>2022-10-26T11:57:23Z</time>
      </trkpt>
      <trkpt lat="10.271247" lon="-67.771639">
        <ele>445.40</ele>
        <time>2022-10-26T11:57:24Z</time>
      </trkpt>
      <trkpt lat="10.271232" lon="-67.771687">
        <ele>445.40</ele>
        <time>2022-10-26T11:57:25Z</time>
      </trkpt>
      <trkpt lat="10.271217" lon="-67.771737">
        <ele>445.40</ele>
        <time>2022-10-26T11:57:26Z</time>
      </trkpt>
      <trkpt lat="10.271200" lon="-67.771788">
        <ele>445.40</ele>
        <time>2022-10-26T11:57:27Z</time>
      </trkpt>
      <trkpt lat="10.271180" lon="-67.771839">
        <ele>445.40</ele>
        <time>2022-10-26T11:57:28Z</time>
      </trkpt>
      <trkpt lat="10.271163" lon="-67.771890">
        <ele>445.50</ele>
        <time>2022-10-26T11:57:29Z</time>
      </trkpt>
      <trkpt lat="10.271150" lon="-67.771943">
        <ele>445.50</ele>
        <time>2022-10-26T11:57:30Z</time>
      </trkpt>
      <trkpt lat="10.271137" lon="-67.771997">
        <ele>445.50</ele>
        <time>2022-10-26T11:57:31Z</time>
      </trkpt>
      <trkpt lat="10.271123" lon="-67.772049">
        <ele>445.60</ele>
        <time>2022-10-26T11:57:32Z</time>
      </trkpt>
      <trkpt lat="10.271113" lon="-67.772101">
        <ele>445.60</ele>
        <time>2022-10-26T11:57:33Z</time>
      </trkpt>
      <trkpt lat="10.271100" lon="-67.772150">
        <ele>445.60</ele>
        <time>2022-10-26T11:57:34Z</time>
      </trkpt>
      <trkpt lat="10.271087" lon="-67.772202">
        <ele>445.60</ele>
        <time>2022-10-26T11:57:35Z</time>
      </trkpt>
      <trkpt lat="10.271075" lon="-67.772256">
        <ele>445.60</ele>
        <time>2022-10-26T11:57:36Z</time>
      </trkpt>
      <trkpt lat="10.271067" lon="-67.772307">
        <ele>445.60</ele>
        <time>2022-10-26T11:57:37Z</time>
      </trkpt>
      <trkpt lat="10.271055" lon="-67.772353">
        <ele>445.70</ele>
        <time>2022-10-26T11:57:38Z</time>
      </trkpt>
      <trkpt lat="10.271043" lon="-67.772402">
        <ele>445.70</ele>
        <time>2022-10-26T11:57:39Z</time>
      </trkpt>
      <trkpt lat="10.271036" lon="-67.772455">
        <ele>445.70</ele>
        <time>2022-10-26T11:57:40Z</time>
      </trkpt>
      <trkpt lat="10.271023" lon="-67.772509">
        <ele>445.70</ele>
        <time>2022-10-26T11:57:41Z</time>
      </trkpt>
      <trkpt lat="10.271007" lon="-67.772562">
        <ele>445.80</ele>
        <time>2022-10-26T11:57:42Z</time>
      </trkpt>
      <trkpt lat="10.270992" lon="-67.772612">
        <ele>445.80</ele>
        <time>2022-10-26T11:57:43Z</time>
      </trkpt>
      <trkpt lat="10.270973" lon="-67.772662">
        <ele>445.80</ele>
        <time>2022-10-26T11:57:44Z</time>
      </trkpt>
      <trkpt lat="10.270959" lon="-67.772713">
        <ele>445.80</ele>
        <time>2022-10-26T11:57:45Z</time>
      </trkpt>
      <trkpt lat="10.270949" lon="-67.772764">
        <ele>445.80</ele>
        <time>2022-10-26T11:57:46Z</time>
      </trkpt>
      <trkpt lat="10.270936" lon="-67.772815">
        <ele>445.80</ele>
        <time>2022-10-26T11:57:47Z</time>
      </trkpt>
      <trkpt lat="10.270919" lon="-67.772859">
        <ele>445.80</ele>
        <time>2022-10-26T11:57:48Z</time>
      </trkpt>
      <trkpt lat="10.270913" lon="-67.772905">
        <ele>445.90</ele>
        <time>2022-10-26T11:57:49Z</time>
      </trkpt>
      <trkpt lat="10.270910" lon="-67.772954">
        <ele>445.90</ele>
        <time>2022-10-26T11:57:50Z</time>
      </trkpt>
      <trkpt lat="10.270908" lon="-67.773005">
        <ele>445.90</ele>
        <time>2022-10-26T11:57:51Z</time>
      </trkpt>
      <trkpt lat="10.270900" lon="-67.773055">
        <ele>445.90</ele>
        <time>2022-10-26T11:57:52Z</time>
      </trkpt>
      <trkpt lat="10.270897" lon="-67.773105">
        <ele>445.90</ele>
        <time>2022-10-26T11:57:53Z</time>
      </trkpt>
      <trkpt lat="10.270894" lon="-67.773161">
        <ele>445.90</ele>
        <time>2022-10-26T11:57:54Z</time>
      </trkpt>
      <trkpt lat="10.270891" lon="-67.773220">
        <ele>445.90</ele>
        <time>2022-10-26T11:57:55Z</time>
      </trkpt>
      <trkpt lat="10.270880" lon="-67.773271">
        <ele>445.90</ele>
        <time>2022-10-26T11:57:56Z</time>
      </trkpt>
      <trkpt lat="10.270871" lon="-67.773320">
        <ele>445.90</ele>
        <time>2022-10-26T11:57:57Z</time>
      </trkpt>
      <trkpt lat="10.270854" lon="-67.773371">
        <ele>445.90</ele>
        <time>2022-10-26T11:57:58Z</time>
      </trkpt>
      <trkpt lat="10.270836" lon="-67.773422">
        <ele>445.90</ele>
        <time>2022-10-26T11:57:59Z</time>
      </trkpt>
      <trkpt lat="10.270823" lon="-67.773478">
        <ele>445.90</ele>
        <time>2022-10-26T11:58:00Z</time>
      </trkpt>
      <trkpt lat="10.270812" lon="-67.773532">
        <ele>445.90</ele>
        <time>2022-10-26T11:58:01Z</time>
      </trkpt>
      <trkpt lat="10.270800" lon="-67.773585">
        <ele>445.90</ele>
        <time>2022-10-26T11:58:02Z</time>
      </trkpt>
      <trkpt lat="10.270783" lon="-67.773639">
        <ele>445.80</ele>
        <time>2022-10-26T11:58:03Z</time>
      </trkpt>
      <trkpt lat="10.270766" lon="-67.773692">
        <ele>445.80</ele>
        <time>2022-10-26T11:58:04Z</time>
      </trkpt>
      <trkpt lat="10.270752" lon="-67.773745">
        <ele>445.80</ele>
        <time>2022-10-26T11:58:05Z</time>
      </trkpt>
      <trkpt lat="10.270741" lon="-67.773799">
        <ele>445.70</ele>
        <time>2022-10-26T11:58:06Z</time>
      </trkpt>
      <trkpt lat="10.270727" lon="-67.773852">
        <ele>445.70</ele>
        <time>2022-10-26T11:58:07Z</time>
      </trkpt>
      <trkpt lat="10.270711" lon="-67.773902">
        <ele>445.60</ele>
        <time>2022-10-26T11:58:08Z</time>
      </trkpt>
      <trkpt lat="10.270694" lon="-67.773958">
        <ele>445.60</ele>
        <time>2022-10-26T11:58:09Z</time>
      </trkpt>
      <trkpt lat="10.270680" lon="-67.774008">
        <ele>445.50</ele>
        <time>2022-10-26T11:58:10Z</time>
      </trkpt>
      <trkpt lat="10.270665" lon="-67.774058">
        <ele>445.40</ele>
        <time>2022-10-26T11:58:11Z</time>
      </trkpt>
      <trkpt lat="10.270650" lon="-67.774109">
        <ele>445.30</ele>
        <time>2022-10-26T11:58:12Z</time>
      </trkpt>
      <trkpt lat="10.270637" lon="-67.774160">
        <ele>445.20</ele>
        <time>2022-10-26T11:58:13Z</time>
      </trkpt>
      <trkpt lat="10.270621" lon="-67.774211">
        <ele>445.10</ele>
        <time>2022-10-26T11:58:14Z</time>
      </trkpt>
      <trkpt lat="10.270607" lon="-67.774267">
        <ele>445.00</ele>
        <time>2022-10-26T11:58:15Z</time>
      </trkpt>
      <trkpt lat="10.270592" lon="-67.774326">
        <ele>444.90</ele>
        <time>2022-10-26T11:58:16Z</time>
      </trkpt>
      <trkpt lat="10.270579" lon="-67.774386">
        <ele>444.80</ele>
        <time>2022-10-26T11:58:17Z</time>
      </trkpt>
      <trkpt lat="10.270563" lon="-67.774445">
        <ele>444.70</ele>
        <time>2022-10-26T11:58:18Z</time>
      </trkpt>
      <trkpt lat="10.270550" lon="-67.774500">
        <ele>444.60</ele>
        <time>2022-10-26T11:58:19Z</time>
      </trkpt>
      <trkpt lat="10.270537" lon="-67.774558">
        <ele>444.50</ele>
        <time>2022-10-26T11:58:20Z</time>
      </trkpt>
      <trkpt lat="10.270523" lon="-67.774624">
        <ele>444.40</ele>
        <time>2022-10-26T11:58:21Z</time>
      </trkpt>
      <trkpt lat="10.270494" lon="-67.774688">
        <ele>444.30</ele>
        <time>2022-10-26T11:58:22Z</time>
      </trkpt>
      <trkpt lat="10.270465" lon="-67.774748">
        <ele>444.20</ele>
        <time>2022-10-26T11:58:23Z</time>
      </trkpt>
      <trkpt lat="10.270439" lon="-67.774805">
        <ele>444.10</ele>
        <time>2022-10-26T11:58:24Z</time>
      </trkpt>
      <trkpt lat="10.270421" lon="-67.774865">
        <ele>443.90</ele>
        <time>2022-10-26T11:58:25Z</time>
      </trkpt>
      <trkpt lat="10.270403" lon="-67.774929">
        <ele>443.80</ele>
        <time>2022-10-26T11:58:26Z</time>
      </trkpt>
      <trkpt lat="10.270388" lon="-67.774988">
        <ele>443.70</ele>
        <time>2022-10-26T11:58:27Z</time>
      </trkpt>
      <trkpt lat="10.270375" lon="-67.775048">
        <ele>443.50</ele>
        <time>2022-10-26T11:58:28Z</time>
      </trkpt>
      <trkpt lat="10.270359" lon="-67.775108">
        <ele>443.40</ele>
        <time>2022-10-26T11:58:29Z</time>
      </trkpt>
      <trkpt lat="10.270339" lon="-67.775166">
        <ele>443.30</ele>
        <time>2022-10-26T11:58:30Z</time>
      </trkpt>
      <trkpt lat="10.270323" lon="-67.775230">
        <ele>443.20</ele>
        <time>2022-10-26T11:58:31Z</time>
      </trkpt>
      <trkpt lat="10.270310" lon="-67.775292">
        <ele>443.00</ele>
        <time>2022-10-26T11:58:32Z</time>
      </trkpt>
      <trkpt lat="10.270300" lon="-67.775354">
        <ele>442.90</ele>
        <time>2022-10-26T11:58:33Z</time>
      </trkpt>
      <trkpt lat="10.270295" lon="-67.775419">
        <ele>442.80</ele>
        <time>2022-10-26T11:58:34Z</time>
      </trkpt>
      <trkpt lat="10.270286" lon="-67.775482">
        <ele>442.60</ele>
        <time>2022-10-26T11:58:35Z</time>
      </trkpt>
      <trkpt lat="10.270272" lon="-67.775541">
        <ele>442.50</ele>
        <time>2022-10-26T11:58:36Z</time>
      </trkpt>
      <trkpt lat="10.270256" lon="-67.775597">
        <ele>442.40</ele>
        <time>2022-10-26T11:58:37Z</time>
      </trkpt>
      <trkpt lat="10.270241" lon="-67.775656">
        <ele>442.20</ele>
        <time>2022-10-26T11:58:38Z</time>
      </trkpt>
      <trkpt lat="10.270230" lon="-67.775724">
        <ele>442.10</ele>
        <time>2022-10-26T11:58:39Z</time>
      </trkpt>
      <trkpt lat="10.270220" lon="-67.775797">
        <ele>441.90</ele>
        <time>2022-10-26T11:58:40Z</time>
      </trkpt>
      <trkpt lat="10.270206" lon="-67.775869">
        <ele>441.70</ele>
        <time>2022-10-26T11:58:41Z</time>
      </trkpt>
      <trkpt lat="10.270189" lon="-67.775937">
        <ele>441.60</ele>
        <time>2022-10-26T11:58:42Z</time>
      </trkpt>
      <trkpt lat="10.270170" lon="-67.776002">
        <ele>441.40</ele>
        <time>2022-10-26T11:58:43Z</time>
      </trkpt>
      <trkpt lat="10.270153" lon="-67.776067">
        <ele>441.30</ele>
        <time>2022-10-26T11:58:44Z</time>
      </trkpt>
      <trkpt lat="10.270138" lon="-67.776135">
        <ele>441.20</ele>
        <time>2022-10-26T11:58:45Z</time>
      </trkpt>
      <trkpt lat="10.270122" lon="-67.776204">
        <ele>441.00</ele>
        <time>2022-10-26T11:58:46Z</time>
      </trkpt>
      <trkpt lat="10.270104" lon="-67.776273">
        <ele>440.90</ele>
        <time>2022-10-26T11:58:47Z</time>
      </trkpt>
      <trkpt lat="10.270081" lon="-67.776340">
        <ele>440.70</ele>
        <time>2022-10-26T11:58:48Z</time>
      </trkpt>
      <trkpt lat="10.270067" lon="-67.776411">
        <ele>440.60</ele>
        <time>2022-10-26T11:58:49Z</time>
      </trkpt>
      <trkpt lat="10.270056" lon="-67.776482">
        <ele>440.40</ele>
        <time>2022-10-26T11:58:50Z</time>
      </trkpt>
      <trkpt lat="10.270047" lon="-67.776554">
        <ele>440.30</ele>
        <time>2022-10-26T11:58:51Z</time>
      </trkpt>
      <trkpt lat="10.270037" lon="-67.776620">
        <ele>440.10</ele>
        <time>2022-10-26T11:58:52Z</time>
      </trkpt>
      <trkpt lat="10.270020" lon="-67.776684">
        <ele>440.00</ele>
        <time>2022-10-26T11:58:53Z</time>
      </trkpt>
      <trkpt lat="10.270004" lon="-67.776745">
        <ele>439.90</ele>
        <time>2022-10-26T11:58:54Z</time>
      </trkpt>
      <trkpt lat="10.269996" lon="-67.776805">
        <ele>439.80</ele>
        <time>2022-10-26T11:58:55Z</time>
      </trkpt>
      <trkpt lat="10.269978" lon="-67.776872">
        <ele>439.70</ele>
        <time>2022-10-26T11:58:56Z</time>
      </trkpt>
      <trkpt lat="10.269955" lon="-67.776944">
        <ele>439.50</ele>
        <time>2022-10-26T11:58:57Z</time>
      </trkpt>
      <trkpt lat="10.269945" lon="-67.777008">
        <ele>439.40</ele>
        <time>2022-10-26T11:58:58Z</time>
      </trkpt>
      <trkpt lat="10.269928" lon="-67.777075">
        <ele>439.30</ele>
        <time>2022-10-26T11:58:59Z</time>
      </trkpt>
      <trkpt lat="10.269908" lon="-67.777144">
        <ele>439.20</ele>
        <time>2022-10-26T11:59:00Z</time>
      </trkpt>
      <trkpt lat="10.269889" lon="-67.777213">
        <ele>439.10</ele>
        <time>2022-10-26T11:59:01Z</time>
      </trkpt>
      <trkpt lat="10.269875" lon="-67.777279">
        <ele>439.00</ele>
        <time>2022-10-26T11:59:02Z</time>
      </trkpt>
      <trkpt lat="10.269858" lon="-67.777343">
        <ele>438.90</ele>
        <time>2022-10-26T11:59:03Z</time>
      </trkpt>
      <trkpt lat="10.269834" lon="-67.777411">
        <ele>438.80</ele>
        <time>2022-10-26T11:59:04Z</time>
      </trkpt>
      <trkpt lat="10.269813" lon="-67.777479">
        <ele>438.70</ele>
        <time>2022-10-26T11:59:05Z</time>
      </trkpt>
      <trkpt lat="10.269792" lon="-67.777546">
        <ele>438.60</ele>
        <time>2022-10-26T11:59:06Z</time>
      </trkpt>
      <trkpt lat="10.269775" lon="-67.777609">
        <ele>438.50</ele>
        <time>2022-10-26T11:59:07Z</time>
      </trkpt>
      <trkpt lat="10.269758" lon="-67.777672">
        <ele>438.40</ele>
        <time>2022-10-26T11:59:08Z</time>
      </trkpt>
      <trkpt lat="10.269745" lon="-67.777734">
        <ele>438.40</ele>
        <time>2022-10-26T11:59:09Z</time>
      </trkpt>
      <trkpt lat="10.269725" lon="-67.777791">
        <ele>438.30</ele>
        <time>2022-10-26T11:59:10Z</time>
      </trkpt>
      <trkpt lat="10.269702" lon="-67.777847">
        <ele>438.20</ele>
        <time>2022-10-26T11:59:11Z</time>
      </trkpt>
      <trkpt lat="10.269678" lon="-67.777904">
        <ele>438.20</ele>
        <time>2022-10-26T11:59:12Z</time>
      </trkpt>
      <trkpt lat="10.269656" lon="-67.777964">
        <ele>438.10</ele>
        <time>2022-10-26T11:59:13Z</time>
      </trkpt>
      <trkpt lat="10.269633" lon="-67.778026">
        <ele>438.10</ele>
        <time>2022-10-26T11:59:14Z</time>
      </trkpt>
      <trkpt lat="10.269608" lon="-67.778090">
        <ele>438.10</ele>
        <time>2022-10-26T11:59:15Z</time>
      </trkpt>
      <trkpt lat="10.269589" lon="-67.778150">
        <ele>438.00</ele>
        <time>2022-10-26T11:59:16Z</time>
      </trkpt>
      <trkpt lat="10.269569" lon="-67.778204">
        <ele>438.00</ele>
        <time>2022-10-26T11:59:17Z</time>
      </trkpt>
      <trkpt lat="10.269552" lon="-67.778259">
        <ele>437.90</ele>
        <time>2022-10-26T11:59:18Z</time>
      </trkpt>
      <trkpt lat="10.269534" lon="-67.778318">
        <ele>437.90</ele>
        <time>2022-10-26T11:59:19Z</time>
      </trkpt>
      <trkpt lat="10.269515" lon="-67.778376">
        <ele>437.80</ele>
        <time>2022-10-26T11:59:20Z</time>
      </trkpt>
      <trkpt lat="10.269498" lon="-67.778434">
        <ele>437.80</ele>
        <time>2022-10-26T11:59:21Z</time>
      </trkpt>
      <trkpt lat="10.269485" lon="-67.778490">
        <ele>437.70</ele>
        <time>2022-10-26T11:59:22Z</time>
      </trkpt>
      <trkpt lat="10.269472" lon="-67.778545">
        <ele>437.70</ele>
        <time>2022-10-26T11:59:23Z</time>
      </trkpt>
      <trkpt lat="10.269458" lon="-67.778600">
        <ele>437.70</ele>
        <time>2022-10-26T11:59:24Z</time>
      </trkpt>
      <trkpt lat="10.269436" lon="-67.778653">
        <ele>437.60</ele>
        <time>2022-10-26T11:59:25Z</time>
      </trkpt>
      <trkpt lat="10.269413" lon="-67.778712">
        <ele>437.60</ele>
        <time>2022-10-26T11:59:26Z</time>
      </trkpt>
      <trkpt lat="10.269395" lon="-67.778771">
        <ele>437.60</ele>
        <time>2022-10-26T11:59:27Z</time>
      </trkpt>
      <trkpt lat="10.269376" lon="-67.778832">
        <ele>437.50</ele>
        <time>2022-10-26T11:59:28Z</time>
      </trkpt>
      <trkpt lat="10.269354" lon="-67.778895">
        <ele>437.50</ele>
        <time>2022-10-26T11:59:29Z</time>
      </trkpt>
      <trkpt lat="10.269343" lon="-67.778956">
        <ele>437.50</ele>
        <time>2022-10-26T11:59:30Z</time>
      </trkpt>
      <trkpt lat="10.269336" lon="-67.779020">
        <ele>437.40</ele>
        <time>2022-10-26T11:59:31Z</time>
      </trkpt>
      <trkpt lat="10.269329" lon="-67.779082">
        <ele>437.40</ele>
        <time>2022-10-26T11:59:32Z</time>
      </trkpt>
      <trkpt lat="10.269321" lon="-67.779147">
        <ele>437.40</ele>
        <time>2022-10-26T11:59:33Z</time>
      </trkpt>
      <trkpt lat="10.269306" lon="-67.779212">
        <ele>437.30</ele>
        <time>2022-10-26T11:59:34Z</time>
      </trkpt>
      <trkpt lat="10.269284" lon="-67.779274">
        <ele>437.30</ele>
        <time>2022-10-26T11:59:35Z</time>
      </trkpt>
      <trkpt lat="10.269262" lon="-67.779332">
        <ele>437.30</ele>
        <time>2022-10-26T11:59:36Z</time>
      </trkpt>
      <trkpt lat="10.269240" lon="-67.779388">
        <ele>437.30</ele>
        <time>2022-10-26T11:59:37Z</time>
      </trkpt>
      <trkpt lat="10.269219" lon="-67.779440">
        <ele>437.30</ele>
        <time>2022-10-26T11:59:38Z</time>
      </trkpt>
      <trkpt lat="10.269198" lon="-67.779493">
        <ele>437.30</ele>
        <time>2022-10-26T11:59:39Z</time>
      </trkpt>
      <trkpt lat="10.269181" lon="-67.779550">
        <ele>437.40</ele>
        <time>2022-10-26T11:59:40Z</time>
      </trkpt>
      <trkpt lat="10.269164" lon="-67.779612">
        <ele>437.40</ele>
        <time>2022-10-26T11:59:41Z</time>
      </trkpt>
      <trkpt lat="10.269152" lon="-67.779678">
        <ele>437.40</ele>
        <time>2022-10-26T11:59:42Z</time>
      </trkpt>
      <trkpt lat="10.269135" lon="-67.779733">
        <ele>437.30</ele>
        <time>2022-10-26T11:59:43Z</time>
      </trkpt>
      <trkpt lat="10.269114" lon="-67.779788">
        <ele>437.30</ele>
        <time>2022-10-26T11:59:44Z</time>
      </trkpt>
      <trkpt lat="10.269097" lon="-67.779841">
        <ele>437.30</ele>
        <time>2022-10-26T11:59:45Z</time>
      </trkpt>
      <trkpt lat="10.269076" lon="-67.779897">
        <ele>437.30</ele>
        <time>2022-10-26T11:59:46Z</time>
      </trkpt>
      <trkpt lat="10.269056" lon="-67.779952">
        <ele>437.20</ele>
        <time>2022-10-26T11:59:47Z</time>
      </trkpt>
      <trkpt lat="10.269036" lon="-67.780008">
        <ele>437.20</ele>
        <time>2022-10-26T11:59:48Z</time>
      </trkpt>
      <trkpt lat="10.269019" lon="-67.780064">
        <ele>437.20</ele>
        <time>2022-10-26T11:59:49Z</time>
      </trkpt>
      <trkpt lat="10.268999" lon="-67.780119">
        <ele>437.10</ele>
        <time>2022-10-26T11:59:50Z</time>
      </trkpt>
      <trkpt lat="10.268977" lon="-67.780175">
        <ele>437.10</ele>
        <time>2022-10-26T11:59:51Z</time>
      </trkpt>
      <trkpt lat="10.268958" lon="-67.780231">
        <ele>437.10</ele>
        <time>2022-10-26T11:59:52Z</time>
      </trkpt>
      <trkpt lat="10.268940" lon="-67.780294">
        <ele>437.10</ele>
        <time>2022-10-26T11:59:53Z</time>
      </trkpt>
      <trkpt lat="10.268921" lon="-67.780354">
        <ele>437.10</ele>
        <time>2022-10-26T11:59:54Z</time>
      </trkpt>
      <trkpt lat="10.268898" lon="-67.780405">
        <ele>437.10</ele>
        <time>2022-10-26T11:59:55Z</time>
      </trkpt>
      <trkpt lat="10.268874" lon="-67.780455">
        <ele>437.10</ele>
        <time>2022-10-26T11:59:56Z</time>
      </trkpt>
      <trkpt lat="10.268854" lon="-67.780508">
        <ele>437.10</ele>
        <time>2022-10-26T11:59:57Z</time>
      </trkpt>
      <trkpt lat="10.268831" lon="-67.780562">
        <ele>437.10</ele>
        <time>2022-10-26T11:59:58Z</time>
      </trkpt>
      <trkpt lat="10.268807" lon="-67.780613">
        <ele>437.10</ele>
        <time>2022-10-26T11:59:59Z</time>
      </trkpt>
      <trkpt lat="10.268787" lon="-67.780666">
        <ele>437.00</ele>
        <time>2022-10-26T12:00:00Z</time>
      </trkpt>
      <trkpt lat="10.268766" lon="-67.780717">
        <ele>437.00</ele>
        <time>2022-10-26T12:00:01Z</time>
      </trkpt>
      <trkpt lat="10.268738" lon="-67.780766">
        <ele>437.00</ele>
        <time>2022-10-26T12:00:02Z</time>
      </trkpt>
      <trkpt lat="10.268715" lon="-67.780823">
        <ele>437.00</ele>
        <time>2022-10-26T12:00:03Z</time>
      </trkpt>
      <trkpt lat="10.268694" lon="-67.780877">
        <ele>437.00</ele>
        <time>2022-10-26T12:00:04Z</time>
      </trkpt>
      <trkpt lat="10.268670" lon="-67.780931">
        <ele>437.10</ele>
        <time>2022-10-26T12:00:05Z</time>
      </trkpt>
      <trkpt lat="10.268646" lon="-67.780983">
        <ele>437.10</ele>
        <time>2022-10-26T12:00:06Z</time>
      </trkpt>
      <trkpt lat="10.268621" lon="-67.781036">
        <ele>437.10</ele>
        <time>2022-10-26T12:00:07Z</time>
      </trkpt>
      <trkpt lat="10.268608" lon="-67.781093">
        <ele>437.10</ele>
        <time>2022-10-26T12:00:08Z</time>
      </trkpt>
      <trkpt lat="10.268597" lon="-67.781153">
        <ele>437.10</ele>
        <time>2022-10-26T12:00:09Z</time>
      </trkpt>
      <trkpt lat="10.268576" lon="-67.781203">
        <ele>437.10</ele>
        <time>2022-10-26T12:00:10Z</time>
      </trkpt>
      <trkpt lat="10.268553" lon="-67.781247">
        <ele>437.10</ele>
        <time>2022-10-26T12:00:11Z</time>
      </trkpt>
      <trkpt lat="10.268530" lon="-67.781291">
        <ele>437.20</ele>
        <time>2022-10-26T12:00:12Z</time>
      </trkpt>
      <trkpt lat="10.268505" lon="-67.781335">
        <ele>437.20</ele>
        <time>2022-10-26T12:00:13Z</time>
      </trkpt>
      <trkpt lat="10.268476" lon="-67.781380">
        <ele>437.20</ele>
        <time>2022-10-26T12:00:14Z</time>
      </trkpt>
      <trkpt lat="10.268445" lon="-67.781428">
        <ele>437.20</ele>
        <time>2022-10-26T12:00:15Z</time>
      </trkpt>
      <trkpt lat="10.268412" lon="-67.781476">
        <ele>437.20</ele>
        <time>2022-10-26T12:00:16Z</time>
      </trkpt>
      <trkpt lat="10.268382" lon="-67.781531">
        <ele>437.30</ele>
        <time>2022-10-26T12:00:17Z</time>
      </trkpt>
      <trkpt lat="10.268344" lon="-67.781579">
        <ele>437.30</ele>
        <time>2022-10-26T12:00:18Z</time>
      </trkpt>
      <trkpt lat="10.268313" lon="-67.781626">
        <ele>437.30</ele>
        <time>2022-10-26T12:00:19Z</time>
      </trkpt>
      <trkpt lat="10.268278" lon="-67.781670">
        <ele>437.30</ele>
        <time>2022-10-26T12:00:20Z</time>
      </trkpt>
      <trkpt lat="10.268244" lon="-67.781714">
        <ele>437.40</ele>
        <time>2022-10-26T12:00:21Z</time>
      </trkpt>
      <trkpt lat="10.268218" lon="-67.781754">
        <ele>437.40</ele>
        <time>2022-10-26T12:00:22Z</time>
      </trkpt>
      <trkpt lat="10.268187" lon="-67.781795">
        <ele>437.40</ele>
        <time>2022-10-26T12:00:23Z</time>
      </trkpt>
      <trkpt lat="10.268155" lon="-67.781835">
        <ele>437.40</ele>
        <time>2022-10-26T12:00:24Z</time>
      </trkpt>
      <trkpt lat="10.268125" lon="-67.781876">
        <ele>437.40</ele>
        <time>2022-10-26T12:00:25Z</time>
      </trkpt>
      <trkpt lat="10.268096" lon="-67.781921">
        <ele>437.50</ele>
        <time>2022-10-26T12:00:26Z</time>
      </trkpt>
      <trkpt lat="10.268065" lon="-67.781966">
        <ele>437.50</ele>
        <time>2022-10-26T12:00:27Z</time>
      </trkpt>
      <trkpt lat="10.268035" lon="-67.782014">
        <ele>437.50</ele>
        <time>2022-10-26T12:00:28Z</time>
      </trkpt>
      <trkpt lat="10.268008" lon="-67.782055">
        <ele>437.60</ele>
        <time>2022-10-26T12:00:29Z</time>
      </trkpt>
      <trkpt lat="10.267978" lon="-67.782093">
        <ele>437.60</ele>
        <time>2022-10-26T12:00:30Z</time>
      </trkpt>
      <trkpt lat="10.267949" lon="-67.782133">
        <ele>437.60</ele>
        <time>2022-10-26T12:00:31Z</time>
      </trkpt>
      <trkpt lat="10.267921" lon="-67.782175">
        <ele>437.60</ele>
        <time>2022-10-26T12:00:32Z</time>
      </trkpt>
      <trkpt lat="10.267887" lon="-67.782217">
        <ele>437.60</ele>
        <time>2022-10-26T12:00:33Z</time>
      </trkpt>
      <trkpt lat="10.267854" lon="-67.782260">
        <ele>437.60</ele>
        <time>2022-10-26T12:00:34Z</time>
      </trkpt>
      <trkpt lat="10.267820" lon="-67.782306">
        <ele>437.60</ele>
        <time>2022-10-26T12:00:35Z</time>
      </trkpt>
      <trkpt lat="10.267792" lon="-67.782350">
        <ele>437.60</ele>
        <time>2022-10-26T12:00:36Z</time>
      </trkpt>
      <trkpt lat="10.267766" lon="-67.782392">
        <ele>437.70</ele>
        <time>2022-10-26T12:00:37Z</time>
      </trkpt>
      <trkpt lat="10.267738" lon="-67.782433">
        <ele>437.70</ele>
        <time>2022-10-26T12:00:38Z</time>
      </trkpt>
      <trkpt lat="10.267709" lon="-67.782476">
        <ele>437.70</ele>
        <time>2022-10-26T12:00:39Z</time>
      </trkpt>
      <trkpt lat="10.267680" lon="-67.782518">
        <ele>437.70</ele>
        <time>2022-10-26T12:00:40Z</time>
      </trkpt>
      <trkpt lat="10.267651" lon="-67.782566">
        <ele>437.70</ele>
        <time>2022-10-26T12:00:41Z</time>
      </trkpt>
      <trkpt lat="10.267617" lon="-67.782611">
        <ele>437.70</ele>
        <time>2022-10-26T12:00:42Z</time>
      </trkpt>
      <trkpt lat="10.267582" lon="-67.782654">
        <ele>437.80</ele>
        <time>2022-10-26T12:00:43Z</time>
      </trkpt>
      <trkpt lat="10.267549" lon="-67.782695">
        <ele>437.80</ele>
        <time>2022-10-26T12:00:44Z</time>
      </trkpt>
      <trkpt lat="10.267516" lon="-67.782732">
        <ele>437.80</ele>
        <time>2022-10-26T12:00:45Z</time>
      </trkpt>
      <trkpt lat="10.267486" lon="-67.782771">
        <ele>437.80</ele>
        <time>2022-10-26T12:00:46Z</time>
      </trkpt>
      <trkpt lat="10.267421" lon="-67.782855">
        <ele>437.90</ele>
        <time>2022-10-26T12:00:48Z</time>
      </trkpt>
      <trkpt lat="10.267384" lon="-67.782899">
        <ele>437.90</ele>
        <time>2022-10-26T12:00:49Z</time>
      </trkpt>
      <trkpt lat="10.267340" lon="-67.782941">
        <ele>437.90</ele>
        <time>2022-10-26T12:00:50Z</time>
      </trkpt>
      <trkpt lat="10.267298" lon="-67.782982">
        <ele>438.00</ele>
        <time>2022-10-26T12:00:51Z</time>
      </trkpt>
      <trkpt lat="10.267264" lon="-67.783024">
        <ele>438.00</ele>
        <time>2022-10-26T12:00:52Z</time>
      </trkpt>
      <trkpt lat="10.267233" lon="-67.783069">
        <ele>438.00</ele>
        <time>2022-10-26T12:00:53Z</time>
      </trkpt>
      <trkpt lat="10.267203" lon="-67.783112">
        <ele>438.00</ele>
        <time>2022-10-26T12:00:54Z</time>
      </trkpt>
      <trkpt lat="10.267172" lon="-67.783150">
        <ele>438.00</ele>
        <time>2022-10-26T12:00:55Z</time>
      </trkpt>
      <trkpt lat="10.267141" lon="-67.783186">
        <ele>438.10</ele>
        <time>2022-10-26T12:00:56Z</time>
      </trkpt>
      <trkpt lat="10.267111" lon="-67.783222">
        <ele>438.10</ele>
        <time>2022-10-26T12:00:57Z</time>
      </trkpt>
      <trkpt lat="10.267082" lon="-67.783259">
        <ele>438.10</ele>
        <time>2022-10-26T12:00:58Z</time>
      </trkpt>
      <trkpt lat="10.267053" lon="-67.783296">
        <ele>438.20</ele>
        <time>2022-10-26T12:00:59Z</time>
      </trkpt>
      <trkpt lat="10.267026" lon="-67.783335">
        <ele>438.20</ele>
        <time>2022-10-26T12:01:00Z</time>
      </trkpt>
      <trkpt lat="10.267007" lon="-67.783382">
        <ele>438.20</ele>
        <time>2022-10-26T12:01:01Z</time>
      </trkpt>
      <trkpt lat="10.266986" lon="-67.783426">
        <ele>438.30</ele>
        <time>2022-10-26T12:01:02Z</time>
      </trkpt>
      <trkpt lat="10.266963" lon="-67.783465">
        <ele>438.30</ele>
        <time>2022-10-26T12:01:03Z</time>
      </trkpt>
      <trkpt lat="10.266943" lon="-67.783504">
        <ele>438.40</ele>
        <time>2022-10-26T12:01:04Z</time>
      </trkpt>
      <trkpt lat="10.266917" lon="-67.783544">
        <ele>438.40</ele>
        <time>2022-10-26T12:01:05Z</time>
      </trkpt>
      <trkpt lat="10.266885" lon="-67.783578">
        <ele>438.50</ele>
        <time>2022-10-26T12:01:06Z</time>
      </trkpt>
      <trkpt lat="10.266851" lon="-67.783612">
        <ele>438.50</ele>
        <time>2022-10-26T12:01:07Z</time>
      </trkpt>
      <trkpt lat="10.266821" lon="-67.783652">
        <ele>438.60</ele>
        <time>2022-10-26T12:01:08Z</time>
      </trkpt>
      <trkpt lat="10.266793" lon="-67.783693">
        <ele>438.60</ele>
        <time>2022-10-26T12:01:09Z</time>
      </trkpt>
      <trkpt lat="10.266766" lon="-67.783736">
        <ele>438.70</ele>
        <time>2022-10-26T12:01:10Z</time>
      </trkpt>
      <trkpt lat="10.266737" lon="-67.783776">
        <ele>438.70</ele>
        <time>2022-10-26T12:01:11Z</time>
      </trkpt>
      <trkpt lat="10.266712" lon="-67.783815">
        <ele>438.80</ele>
        <time>2022-10-26T12:01:12Z</time>
      </trkpt>
      <trkpt lat="10.266682" lon="-67.783858">
        <ele>438.80</ele>
        <time>2022-10-26T12:01:13Z</time>
      </trkpt>
      <trkpt lat="10.266650" lon="-67.783898">
        <ele>438.80</ele>
        <time>2022-10-26T12:01:14Z</time>
      </trkpt>
      <trkpt lat="10.266624" lon="-67.783941">
        <ele>438.90</ele>
        <time>2022-10-26T12:01:15Z</time>
      </trkpt>
      <trkpt lat="10.266595" lon="-67.783983">
        <ele>438.90</ele>
        <time>2022-10-26T12:01:16Z</time>
      </trkpt>
      <trkpt lat="10.266567" lon="-67.784026">
        <ele>439.00</ele>
        <time>2022-10-26T12:01:17Z</time>
      </trkpt>
      <trkpt lat="10.266540" lon="-67.784070">
        <ele>439.00</ele>
        <time>2022-10-26T12:01:18Z</time>
      </trkpt>
      <trkpt lat="10.266512" lon="-67.784109">
        <ele>439.10</ele>
        <time>2022-10-26T12:01:19Z</time>
      </trkpt>
      <trkpt lat="10.266478" lon="-67.784145">
        <ele>439.10</ele>
        <time>2022-10-26T12:01:20Z</time>
      </trkpt>
      <trkpt lat="10.266443" lon="-67.784181">
        <ele>439.20</ele>
        <time>2022-10-26T12:01:21Z</time>
      </trkpt>
      <trkpt lat="10.266407" lon="-67.784215">
        <ele>439.30</ele>
        <time>2022-10-26T12:01:22Z</time>
      </trkpt>
      <trkpt lat="10.266379" lon="-67.784253">
        <ele>439.30</ele>
        <time>2022-10-26T12:01:23Z</time>
      </trkpt>
      <trkpt lat="10.266355" lon="-67.784295">
        <ele>439.40</ele>
        <time>2022-10-26T12:01:24Z</time>
      </trkpt>
      <trkpt lat="10.266327" lon="-67.784333">
        <ele>439.40</ele>
        <time>2022-10-26T12:01:25Z</time>
      </trkpt>
      <trkpt lat="10.266298" lon="-67.784370">
        <ele>439.50</ele>
        <time>2022-10-26T12:01:26Z</time>
      </trkpt>
      <trkpt lat="10.266271" lon="-67.784406">
        <ele>439.50</ele>
        <time>2022-10-26T12:01:27Z</time>
      </trkpt>
      <trkpt lat="10.266246" lon="-67.784443">
        <ele>439.60</ele>
        <time>2022-10-26T12:01:28Z</time>
      </trkpt>
      <trkpt lat="10.266218" lon="-67.784479">
        <ele>439.60</ele>
        <time>2022-10-26T12:01:29Z</time>
      </trkpt>
      <trkpt lat="10.266189" lon="-67.784514">
        <ele>439.70</ele>
        <time>2022-10-26T12:01:30Z</time>
      </trkpt>
      <trkpt lat="10.266157" lon="-67.784551">
        <ele>439.70</ele>
        <time>2022-10-26T12:01:31Z</time>
      </trkpt>
      <trkpt lat="10.266128" lon="-67.784590">
        <ele>439.80</ele>
        <time>2022-10-26T12:01:32Z</time>
      </trkpt>
      <trkpt lat="10.266097" lon="-67.784627">
        <ele>439.90</ele>
        <time>2022-10-26T12:01:33Z</time>
      </trkpt>
      <trkpt lat="10.266068" lon="-67.784666">
        <ele>439.90</ele>
        <time>2022-10-26T12:01:34Z</time>
      </trkpt>
      <trkpt lat="10.266040" lon="-67.784703">
        <ele>440.00</ele>
        <time>2022-10-26T12:01:35Z</time>
      </trkpt>
      <trkpt lat="10.266013" lon="-67.784741">
        <ele>440.10</ele>
        <time>2022-10-26T12:01:36Z</time>
      </trkpt>
      <trkpt lat="10.265986" lon="-67.784777">
        <ele>440.20</ele>
        <time>2022-10-26T12:01:37Z</time>
      </trkpt>
      <trkpt lat="10.265963" lon="-67.784815">
        <ele>440.20</ele>
        <time>2022-10-26T12:01:38Z</time>
      </trkpt>
      <trkpt lat="10.265939" lon="-67.784851">
        <ele>440.30</ele>
        <time>2022-10-26T12:01:39Z</time>
      </trkpt>
      <trkpt lat="10.265919" lon="-67.784889">
        <ele>440.30</ele>
        <time>2022-10-26T12:01:40Z</time>
      </trkpt>
      <trkpt lat="10.265897" lon="-67.784927">
        <ele>440.40</ele>
        <time>2022-10-26T12:01:41Z</time>
      </trkpt>
      <trkpt lat="10.265878" lon="-67.784969">
        <ele>440.40</ele>
        <time>2022-10-26T12:01:42Z</time>
      </trkpt>
      <trkpt lat="10.265858" lon="-67.785011">
        <ele>440.50</ele>
        <time>2022-10-26T12:01:43Z</time>
      </trkpt>
      <trkpt lat="10.265828" lon="-67.785050">
        <ele>440.50</ele>
        <time>2022-10-26T12:01:44Z</time>
      </trkpt>
      <trkpt lat="10.265804" lon="-67.785092">
        <ele>440.60</ele>
        <time>2022-10-26T12:01:45Z</time>
      </trkpt>
      <trkpt lat="10.265780" lon="-67.785130">
        <ele>440.60</ele>
        <time>2022-10-26T12:01:46Z</time>
      </trkpt>
      <trkpt lat="10.265754" lon="-67.785168">
        <ele>440.60</ele>
        <time>2022-10-26T12:01:47Z</time>
      </trkpt>
      <trkpt lat="10.265732" lon="-67.785201">
        <ele>440.70</ele>
        <time>2022-10-26T12:01:48Z</time>
      </trkpt>
      <trkpt lat="10.265711" lon="-67.785233">
        <ele>440.70</ele>
        <time>2022-10-26T12:01:49Z</time>
      </trkpt>
      <trkpt lat="10.265691" lon="-67.785266">
        <ele>440.80</ele>
        <time>2022-10-26T12:01:50Z</time>
      </trkpt>
      <trkpt lat="10.265673" lon="-67.785295">
        <ele>440.80</ele>
        <time>2022-10-26T12:01:51Z</time>
      </trkpt>
      <trkpt lat="10.265654" lon="-67.785330">
        <ele>440.90</ele>
        <time>2022-10-26T12:01:52Z</time>
      </trkpt>
      <trkpt lat="10.265635" lon="-67.785365">
        <ele>440.90</ele>
        <time>2022-10-26T12:01:53Z</time>
      </trkpt>
      <trkpt lat="10.265616" lon="-67.785399">
        <ele>441.00</ele>
        <time>2022-10-26T12:01:54Z</time>
      </trkpt>
      <trkpt lat="10.265592" lon="-67.785432">
        <ele>441.10</ele>
        <time>2022-10-26T12:01:55Z</time>
      </trkpt>
      <trkpt lat="10.265567" lon="-67.785469">
        <ele>441.10</ele>
        <time>2022-10-26T12:01:56Z</time>
      </trkpt>
      <trkpt lat="10.265550" lon="-67.785504">
        <ele>441.20</ele>
        <time>2022-10-26T12:01:57Z</time>
      </trkpt>
      <trkpt lat="10.265528" lon="-67.785535">
        <ele>441.20</ele>
        <time>2022-10-26T12:01:58Z</time>
      </trkpt>
      <trkpt lat="10.265506" lon="-67.785562">
        <ele>441.30</ele>
        <time>2022-10-26T12:01:59Z</time>
      </trkpt>
      <trkpt lat="10.265484" lon="-67.785594">
        <ele>441.30</ele>
        <time>2022-10-26T12:02:00Z</time>
      </trkpt>
      <trkpt lat="10.265459" lon="-67.785632">
        <ele>441.40</ele>
        <time>2022-10-26T12:02:01Z</time>
      </trkpt>
      <trkpt lat="10.265430" lon="-67.785666">
        <ele>441.40</ele>
        <time>2022-10-26T12:02:02Z</time>
      </trkpt>
      <trkpt lat="10.265397" lon="-67.785703">
        <ele>441.50</ele>
        <time>2022-10-26T12:02:03Z</time>
      </trkpt>
      <trkpt lat="10.265366" lon="-67.785742">
        <ele>441.50</ele>
        <time>2022-10-26T12:02:04Z</time>
      </trkpt>
      <trkpt lat="10.265340" lon="-67.785779">
        <ele>441.50</ele>
        <time>2022-10-26T12:02:05Z</time>
      </trkpt>
      <trkpt lat="10.265310" lon="-67.785808">
        <ele>441.60</ele>
        <time>2022-10-26T12:02:06Z</time>
      </trkpt>
      <trkpt lat="10.265283" lon="-67.785838">
        <ele>441.60</ele>
        <time>2022-10-26T12:02:07Z</time>
      </trkpt>
      <trkpt lat="10.265252" lon="-67.785877">
        <ele>441.60</ele>
        <time>2022-10-26T12:02:08Z</time>
      </trkpt>
      <trkpt lat="10.265223" lon="-67.785915">
        <ele>441.70</ele>
        <time>2022-10-26T12:02:09Z</time>
      </trkpt>
      <trkpt lat="10.265193" lon="-67.785954">
        <ele>441.70</ele>
        <time>2022-10-26T12:02:10Z</time>
      </trkpt>
      <trkpt lat="10.265156" lon="-67.785988">
        <ele>441.70</ele>
        <time>2022-10-26T12:02:11Z</time>
      </trkpt>
      <trkpt lat="10.265118" lon="-67.786019">
        <ele>441.80</ele>
        <time>2022-10-26T12:02:12Z</time>
      </trkpt>
      <trkpt lat="10.265086" lon="-67.786057">
        <ele>441.80</ele>
        <time>2022-10-26T12:02:13Z</time>
      </trkpt>
      <trkpt lat="10.265055" lon="-67.786097">
        <ele>441.90</ele>
        <time>2022-10-26T12:02:14Z</time>
      </trkpt>
      <trkpt lat="10.265026" lon="-67.786139">
        <ele>441.90</ele>
        <time>2022-10-26T12:02:15Z</time>
      </trkpt>
      <trkpt lat="10.264998" lon="-67.786180">
        <ele>441.90</ele>
        <time>2022-10-26T12:02:16Z</time>
      </trkpt>
      <trkpt lat="10.264968" lon="-67.786216">
        <ele>442.00</ele>
        <time>2022-10-26T12:02:17Z</time>
      </trkpt>
      <trkpt lat="10.264943" lon="-67.786255">
        <ele>442.00</ele>
        <time>2022-10-26T12:02:18Z</time>
      </trkpt>
      <trkpt lat="10.264922" lon="-67.786295">
        <ele>442.00</ele>
        <time>2022-10-26T12:02:19Z</time>
      </trkpt>
      <trkpt lat="10.264897" lon="-67.786335">
        <ele>442.00</ele>
        <time>2022-10-26T12:02:20Z</time>
      </trkpt>
      <trkpt lat="10.264878" lon="-67.786375">
        <ele>442.10</ele>
        <time>2022-10-26T12:02:21Z</time>
      </trkpt>
      <trkpt lat="10.264850" lon="-67.786417">
        <ele>442.10</ele>
        <time>2022-10-26T12:02:22Z</time>
      </trkpt>
      <trkpt lat="10.264821" lon="-67.786461">
        <ele>442.20</ele>
        <time>2022-10-26T12:02:23Z</time>
      </trkpt>
      <trkpt lat="10.264792" lon="-67.786503">
        <ele>442.20</ele>
        <time>2022-10-26T12:02:24Z</time>
      </trkpt>
      <trkpt lat="10.264762" lon="-67.786546">
        <ele>442.30</ele>
        <time>2022-10-26T12:02:25Z</time>
      </trkpt>
      <trkpt lat="10.264726" lon="-67.786579">
        <ele>442.30</ele>
        <time>2022-10-26T12:02:26Z</time>
      </trkpt>
      <trkpt lat="10.264670" lon="-67.786618">
        <ele>442.40</ele>
        <time>2022-10-26T12:02:27Z</time>
      </trkpt>
      <trkpt lat="10.264604" lon="-67.786646">
        <ele>442.40</ele>
        <time>2022-10-26T12:02:28Z</time>
      </trkpt>
      <trkpt lat="10.264546" lon="-67.786669">
        <ele>442.50</ele>
        <time>2022-10-26T12:02:29Z</time>
      </trkpt>
      <trkpt lat="10.264498" lon="-67.786694">
        <ele>442.50</ele>
        <time>2022-10-26T12:02:30Z</time>
      </trkpt>
      <trkpt lat="10.264458" lon="-67.786721">
        <ele>442.60</ele>
        <time>2022-10-26T12:02:31Z</time>
      </trkpt>
      <trkpt lat="10.264422" lon="-67.786749">
        <ele>442.60</ele>
        <time>2022-10-26T12:02:32Z</time>
      </trkpt>
      <trkpt lat="10.264390" lon="-67.786781">
        <ele>442.70</ele>
        <time>2022-10-26T12:02:33Z</time>
      </trkpt>
      <trkpt lat="10.264360" lon="-67.786816">
        <ele>442.70</ele>
        <time>2022-10-26T12:02:34Z</time>
      </trkpt>
      <trkpt lat="10.264333" lon="-67.786861">
        <ele>442.80</ele>
        <time>2022-10-26T12:02:35Z</time>
      </trkpt>
      <trkpt lat="10.264314" lon="-67.786914">
        <ele>442.80</ele>
        <time>2022-10-26T12:02:36Z</time>
      </trkpt>
      <trkpt lat="10.264277" lon="-67.786957">
        <ele>442.90</ele>
        <time>2022-10-26T12:02:37Z</time>
      </trkpt>
      <trkpt lat="10.264261" lon="-67.786993">
        <ele>442.90</ele>
        <time>2022-10-26T12:02:38Z</time>
      </trkpt>
      <trkpt lat="10.264245" lon="-67.787026">
        <ele>442.90</ele>
        <time>2022-10-26T12:02:39Z</time>
      </trkpt>
      <trkpt lat="10.264234" lon="-67.787069">
        <ele>443.00</ele>
        <time>2022-10-26T12:02:40Z</time>
      </trkpt>
      <trkpt lat="10.264214" lon="-67.787108">
        <ele>443.00</ele>
        <time>2022-10-26T12:02:41Z</time>
      </trkpt>
      <trkpt lat="10.264192" lon="-67.787145">
        <ele>443.00</ele>
        <time>2022-10-26T12:02:42Z</time>
      </trkpt>
      <trkpt lat="10.264170" lon="-67.787179">
        <ele>443.00</ele>
        <time>2022-10-26T12:02:43Z</time>
      </trkpt>
      <trkpt lat="10.264145" lon="-67.787216">
        <ele>443.10</ele>
        <time>2022-10-26T12:02:44Z</time>
      </trkpt>
      <trkpt lat="10.264116" lon="-67.787256">
        <ele>443.10</ele>
        <time>2022-10-26T12:02:45Z</time>
      </trkpt>
      <trkpt lat="10.264095" lon="-67.787303">
        <ele>443.10</ele>
        <time>2022-10-26T12:02:46Z</time>
      </trkpt>
      <trkpt lat="10.264074" lon="-67.787340">
        <ele>443.10</ele>
        <time>2022-10-26T12:02:47Z</time>
      </trkpt>
      <trkpt lat="10.264045" lon="-67.787380">
        <ele>443.10</ele>
        <time>2022-10-26T12:02:48Z</time>
      </trkpt>
      <trkpt lat="10.264005" lon="-67.787416">
        <ele>443.10</ele>
        <time>2022-10-26T12:02:49Z</time>
      </trkpt>
      <trkpt lat="10.263971" lon="-67.787453">
        <ele>443.20</ele>
        <time>2022-10-26T12:02:50Z</time>
      </trkpt>
      <trkpt lat="10.263945" lon="-67.787496">
        <ele>443.20</ele>
        <time>2022-10-26T12:02:51Z</time>
      </trkpt>
      <trkpt lat="10.263913" lon="-67.787537">
        <ele>443.20</ele>
        <time>2022-10-26T12:02:52Z</time>
      </trkpt>
      <trkpt lat="10.263890" lon="-67.787585">
        <ele>443.20</ele>
        <time>2022-10-26T12:02:53Z</time>
      </trkpt>
      <trkpt lat="10.263869" lon="-67.787634">
        <ele>443.30</ele>
        <time>2022-10-26T12:02:54Z</time>
      </trkpt>
      <trkpt lat="10.263843" lon="-67.787681">
        <ele>443.30</ele>
        <time>2022-10-26T12:02:55Z</time>
      </trkpt>
      <trkpt lat="10.263791" lon="-67.787710">
        <ele>443.30</ele>
        <time>2022-10-26T12:02:56Z</time>
      </trkpt>
      <trkpt lat="10.263755" lon="-67.787747">
        <ele>443.40</ele>
        <time>2022-10-26T12:02:57Z</time>
      </trkpt>
      <trkpt lat="10.263707" lon="-67.787776">
        <ele>443.40</ele>
        <time>2022-10-26T12:02:58Z</time>
      </trkpt>
      <trkpt lat="10.263672" lon="-67.787808">
        <ele>443.40</ele>
        <time>2022-10-26T12:02:59Z</time>
      </trkpt>
      <trkpt lat="10.263646" lon="-67.787845">
        <ele>443.40</ele>
        <time>2022-10-26T12:03:00Z</time>
      </trkpt>
      <trkpt lat="10.263642" lon="-67.787896">
        <ele>443.40</ele>
        <time>2022-10-26T12:03:01Z</time>
      </trkpt>
      <trkpt lat="10.263641" lon="-67.787949">
        <ele>443.40</ele>
        <time>2022-10-26T12:03:02Z</time>
      </trkpt>
      <trkpt lat="10.263621" lon="-67.787995">
        <ele>443.40</ele>
        <time>2022-10-26T12:03:03Z</time>
      </trkpt>
      <trkpt lat="10.263600" lon="-67.788039">
        <ele>443.50</ele>
        <time>2022-10-26T12:03:04Z</time>
      </trkpt>
      <trkpt lat="10.263576" lon="-67.788083">
        <ele>443.50</ele>
        <time>2022-10-26T12:03:05Z</time>
      </trkpt>
      <trkpt lat="10.263549" lon="-67.788122">
        <ele>443.50</ele>
        <time>2022-10-26T12:03:06Z</time>
      </trkpt>
      <trkpt lat="10.263534" lon="-67.788163">
        <ele>443.60</ele>
        <time>2022-10-26T12:03:07Z</time>
      </trkpt>
      <trkpt lat="10.263529" lon="-67.788209">
        <ele>443.60</ele>
        <time>2022-10-26T12:03:08Z</time>
      </trkpt>
      <trkpt lat="10.263515" lon="-67.788249">
        <ele>443.60</ele>
        <time>2022-10-26T12:03:09Z</time>
      </trkpt>
      <trkpt lat="10.263502" lon="-67.788290">
        <ele>443.70</ele>
        <time>2022-10-26T12:03:10Z</time>
      </trkpt>
      <trkpt lat="10.263491" lon="-67.788330">
        <ele>443.70</ele>
        <time>2022-10-26T12:03:11Z</time>
      </trkpt>
      <trkpt lat="10.263480" lon="-67.788371">
        <ele>443.70</ele>
        <time>2022-10-26T12:03:12Z</time>
      </trkpt>
      <trkpt lat="10.263465" lon="-67.788413">
        <ele>443.80</ele>
        <time>2022-10-26T12:03:13Z</time>
      </trkpt>
      <trkpt lat="10.263439" lon="-67.788465">
        <ele>443.80</ele>
        <time>2022-10-26T12:03:14Z</time>
      </trkpt>
      <trkpt lat="10.263413" lon="-67.788506">
        <ele>443.80</ele>
        <time>2022-10-26T12:03:15Z</time>
      </trkpt>
      <trkpt lat="10.263402" lon="-67.788549">
        <ele>443.90</ele>
        <time>2022-10-26T12:03:16Z</time>
      </trkpt>
      <trkpt lat="10.263386" lon="-67.788584">
        <ele>443.90</ele>
        <time>2022-10-26T12:03:17Z</time>
      </trkpt>
      <trkpt lat="10.263359" lon="-67.788619">
        <ele>443.90</ele>
        <time>2022-10-26T12:03:18Z</time>
      </trkpt>
      <trkpt lat="10.263341" lon="-67.788656">
        <ele>443.90</ele>
        <time>2022-10-26T12:03:19Z</time>
      </trkpt>
      <trkpt lat="10.263304" lon="-67.788685">
        <ele>443.90</ele>
        <time>2022-10-26T12:03:20Z</time>
      </trkpt>
      <trkpt lat="10.263276" lon="-67.788723">
        <ele>444.00</ele>
        <time>2022-10-26T12:03:21Z</time>
      </trkpt>
      <trkpt lat="10.263245" lon="-67.788767">
        <ele>444.00</ele>
        <time>2022-10-26T12:03:22Z</time>
      </trkpt>
      <trkpt lat="10.263204" lon="-67.788807">
        <ele>444.00</ele>
        <time>2022-10-26T12:03:23Z</time>
      </trkpt>
      <trkpt lat="10.263171" lon="-67.788841">
        <ele>444.00</ele>
        <time>2022-10-26T12:03:24Z</time>
      </trkpt>
      <trkpt lat="10.263130" lon="-67.788870">
        <ele>444.10</ele>
        <time>2022-10-26T12:03:25Z</time>
      </trkpt>
      <trkpt lat="10.263115" lon="-67.788913">
        <ele>444.10</ele>
        <time>2022-10-26T12:03:26Z</time>
      </trkpt>
      <trkpt lat="10.263096" lon="-67.788952">
        <ele>444.10</ele>
        <time>2022-10-26T12:03:27Z</time>
      </trkpt>
      <trkpt lat="10.263078" lon="-67.788997">
        <ele>444.10</ele>
        <time>2022-10-26T12:03:28Z</time>
      </trkpt>
      <trkpt lat="10.263062" lon="-67.789043">
        <ele>444.20</ele>
        <time>2022-10-26T12:03:29Z</time>
      </trkpt>
      <trkpt lat="10.263047" lon="-67.789092">
        <ele>444.20</ele>
        <time>2022-10-26T12:03:30Z</time>
      </trkpt>
      <trkpt lat="10.263033" lon="-67.789144">
        <ele>444.20</ele>
        <time>2022-10-26T12:03:31Z</time>
      </trkpt>
      <trkpt lat="10.263014" lon="-67.789196">
        <ele>444.20</ele>
        <time>2022-10-26T12:03:32Z</time>
      </trkpt>
      <trkpt lat="10.262949" lon="-67.789338">
        <ele>444.30</ele>
        <time>2022-10-26T12:03:35Z</time>
      </trkpt>
      <trkpt lat="10.262925" lon="-67.789384">
        <ele>444.40</ele>
        <time>2022-10-26T12:03:36Z</time>
      </trkpt>
      <trkpt lat="10.262906" lon="-67.789432">
        <ele>444.40</ele>
        <time>2022-10-26T12:03:37Z</time>
      </trkpt>
      <trkpt lat="10.262987" lon="-67.789496">
        <ele>444.50</ele>
        <time>2022-10-26T12:03:38Z</time>
      </trkpt>
      <trkpt lat="10.263003" lon="-67.789555">
        <ele>444.50</ele>
        <time>2022-10-26T12:03:39Z</time>
      </trkpt>
      <trkpt lat="10.263020" lon="-67.789611">
        <ele>444.60</ele>
        <time>2022-10-26T12:03:40Z</time>
      </trkpt>
      <trkpt lat="10.263022" lon="-67.789665">
        <ele>444.60</ele>
        <time>2022-10-26T12:03:41Z</time>
      </trkpt>
      <trkpt lat="10.263034" lon="-67.789718">
        <ele>444.70</ele>
        <time>2022-10-26T12:03:42Z</time>
      </trkpt>
      <trkpt lat="10.263052" lon="-67.789773">
        <ele>444.70</ele>
        <time>2022-10-26T12:03:43Z</time>
      </trkpt>
      <trkpt lat="10.263061" lon="-67.789826">
        <ele>444.70</ele>
        <time>2022-10-26T12:03:44Z</time>
      </trkpt>
      <trkpt lat="10.262920" lon="-67.789808">
        <ele>444.70</ele>
        <time>2022-10-26T12:03:45Z</time>
      </trkpt>
      <trkpt lat="10.262840" lon="-67.789808">
        <ele>444.80</ele>
        <time>2022-10-26T12:03:46Z</time>
      </trkpt>
      <trkpt lat="10.262781" lon="-67.789812">
        <ele>444.80</ele>
        <time>2022-10-26T12:03:47Z</time>
      </trkpt>
      <trkpt lat="10.262753" lon="-67.789840">
        <ele>444.80</ele>
        <time>2022-10-26T12:03:48Z</time>
      </trkpt>
      <trkpt lat="10.262737" lon="-67.789875">
        <ele>444.90</ele>
        <time>2022-10-26T12:03:49Z</time>
      </trkpt>
      <trkpt lat="10.262728" lon="-67.789914">
        <ele>444.90</ele>
        <time>2022-10-26T12:03:50Z</time>
      </trkpt>
      <trkpt lat="10.262729" lon="-67.789951">
        <ele>444.90</ele>
        <time>2022-10-26T12:03:51Z</time>
      </trkpt>
      <trkpt lat="10.262733" lon="-67.789991">
        <ele>445.00</ele>
        <time>2022-10-26T12:03:52Z</time>
      </trkpt>
      <trkpt lat="10.262737" lon="-67.790032">
        <ele>445.00</ele>
        <time>2022-10-26T12:03:53Z</time>
      </trkpt>
      <trkpt lat="10.262735" lon="-67.790070">
        <ele>445.00</ele>
        <time>2022-10-26T12:03:54Z</time>
      </trkpt>
      <trkpt lat="10.262730" lon="-67.790108">
        <ele>445.00</ele>
        <time>2022-10-26T12:03:55Z</time>
      </trkpt>
      <trkpt lat="10.262730" lon="-67.790159">
        <ele>445.10</ele>
        <time>2022-10-26T12:03:56Z</time>
      </trkpt>
      <trkpt lat="10.262731" lon="-67.790208">
        <ele>445.10</ele>
        <time>2022-10-26T12:03:57Z</time>
      </trkpt>
      <trkpt lat="10.262729" lon="-67.790253">
        <ele>445.10</ele>
        <time>2022-10-26T12:03:58Z</time>
      </trkpt>
      <trkpt lat="10.262724" lon="-67.790299">
        <ele>445.10</ele>
        <time>2022-10-26T12:03:59Z</time>
      </trkpt>
      <trkpt lat="10.262727" lon="-67.790359">
        <ele>445.10</ele>
        <time>2022-10-26T12:04:00Z</time>
      </trkpt>
      <trkpt lat="10.262729" lon="-67.790412">
        <ele>445.20</ele>
        <time>2022-10-26T12:04:01Z</time>
      </trkpt>
      <trkpt lat="10.262728" lon="-67.790460">
        <ele>445.20</ele>
        <time>2022-10-26T12:04:02Z</time>
      </trkpt>
      <trkpt lat="10.262720" lon="-67.790502">
        <ele>445.20</ele>
        <time>2022-10-26T12:04:03Z</time>
      </trkpt>
      <trkpt lat="10.262711" lon="-67.790544">
        <ele>445.20</ele>
        <time>2022-10-26T12:04:04Z</time>
      </trkpt>
      <trkpt lat="10.262705" lon="-67.790586">
        <ele>445.30</ele>
        <time>2022-10-26T12:04:05Z</time>
      </trkpt>
      <trkpt lat="10.262694" lon="-67.790631">
        <ele>445.30</ele>
        <time>2022-10-26T12:04:06Z</time>
      </trkpt>
      <trkpt lat="10.262683" lon="-67.790678">
        <ele>445.30</ele>
        <time>2022-10-26T12:04:07Z</time>
      </trkpt>
      <trkpt lat="10.262671" lon="-67.790726">
        <ele>445.40</ele>
        <time>2022-10-26T12:04:08Z</time>
      </trkpt>
      <trkpt lat="10.262661" lon="-67.790773">
        <ele>445.40</ele>
        <time>2022-10-26T12:04:09Z</time>
      </trkpt>
      <trkpt lat="10.262646" lon="-67.790821">
        <ele>445.50</ele>
        <time>2022-10-26T12:04:10Z</time>
      </trkpt>
      <trkpt lat="10.262641" lon="-67.790872">
        <ele>445.50</ele>
        <time>2022-10-26T12:04:11Z</time>
      </trkpt>
      <trkpt lat="10.262637" lon="-67.790925">
        <ele>445.60</ele>
        <time>2022-10-26T12:04:12Z</time>
      </trkpt>
      <trkpt lat="10.262633" lon="-67.790977">
        <ele>445.60</ele>
        <time>2022-10-26T12:04:13Z</time>
      </trkpt>
      <trkpt lat="10.262625" lon="-67.791021">
        <ele>445.70</ele>
        <time>2022-10-26T12:04:14Z</time>
      </trkpt>
      <trkpt lat="10.262620" lon="-67.791073">
        <ele>445.70</ele>
        <time>2022-10-26T12:04:15Z</time>
      </trkpt>
      <trkpt lat="10.262617" lon="-67.791131">
        <ele>445.70</ele>
        <time>2022-10-26T12:04:16Z</time>
      </trkpt>
      <trkpt lat="10.262607" lon="-67.791186">
        <ele>445.80</ele>
        <time>2022-10-26T12:04:17Z</time>
      </trkpt>
      <trkpt lat="10.262600" lon="-67.791233">
        <ele>445.80</ele>
        <time>2022-10-26T12:04:18Z</time>
      </trkpt>
      <trkpt lat="10.262593" lon="-67.791278">
        <ele>445.80</ele>
        <time>2022-10-26T12:04:19Z</time>
      </trkpt>
      <trkpt lat="10.262584" lon="-67.791325">
        <ele>445.90</ele>
        <time>2022-10-26T12:04:20Z</time>
      </trkpt>
      <trkpt lat="10.262575" lon="-67.791371">
        <ele>445.90</ele>
        <time>2022-10-26T12:04:21Z</time>
      </trkpt>
      <trkpt lat="10.262563" lon="-67.791412">
        <ele>445.90</ele>
        <time>2022-10-26T12:04:22Z</time>
      </trkpt>
      <trkpt lat="10.262552" lon="-67.791453">
        <ele>446.00</ele>
        <time>2022-10-26T12:04:23Z</time>
      </trkpt>
      <trkpt lat="10.262543" lon="-67.791493">
        <ele>446.00</ele>
        <time>2022-10-26T12:04:24Z</time>
      </trkpt>
      <trkpt lat="10.262541" lon="-67.791534">
        <ele>446.00</ele>
        <time>2022-10-26T12:04:25Z</time>
      </trkpt>
      <trkpt lat="10.262537" lon="-67.791574">
        <ele>446.10</ele>
        <time>2022-10-26T12:04:26Z</time>
      </trkpt>
      <trkpt lat="10.262528" lon="-67.791615">
        <ele>446.10</ele>
        <time>2022-10-26T12:04:27Z</time>
      </trkpt>
      <trkpt lat="10.262516" lon="-67.791658">
        <ele>446.10</ele>
        <time>2022-10-26T12:04:28Z</time>
      </trkpt>
      <trkpt lat="10.262504" lon="-67.791702">
        <ele>446.10</ele>
        <time>2022-10-26T12:04:29Z</time>
      </trkpt>
      <trkpt lat="10.262493" lon="-67.791744">
        <ele>446.20</ele>
        <time>2022-10-26T12:04:30Z</time>
      </trkpt>
      <trkpt lat="10.262483" lon="-67.791781">
        <ele>446.20</ele>
        <time>2022-10-26T12:04:31Z</time>
      </trkpt>
      <trkpt lat="10.262470" lon="-67.791815">
        <ele>446.20</ele>
        <time>2022-10-26T12:04:32Z</time>
      </trkpt>
      <trkpt lat="10.262460" lon="-67.791856">
        <ele>446.30</ele>
        <time>2022-10-26T12:04:33Z</time>
      </trkpt>
      <trkpt lat="10.262453" lon="-67.791903">
        <ele>446.30</ele>
        <time>2022-10-26T12:04:34Z</time>
      </trkpt>
      <trkpt lat="10.262443" lon="-67.791959">
        <ele>446.30</ele>
        <time>2022-10-26T12:04:35Z</time>
      </trkpt>
      <trkpt lat="10.262435" lon="-67.792011">
        <ele>446.40</ele>
        <time>2022-10-26T12:04:36Z</time>
      </trkpt>
      <trkpt lat="10.262432" lon="-67.792058">
        <ele>446.40</ele>
        <time>2022-10-26T12:04:37Z</time>
      </trkpt>
      <trkpt lat="10.262430" lon="-67.792103">
        <ele>446.40</ele>
        <time>2022-10-26T12:04:38Z</time>
      </trkpt>
      <trkpt lat="10.262427" lon="-67.792149">
        <ele>446.40</ele>
        <time>2022-10-26T12:04:39Z</time>
      </trkpt>
      <trkpt lat="10.262419" lon="-67.792192">
        <ele>446.50</ele>
        <time>2022-10-26T12:04:40Z</time>
      </trkpt>
      <trkpt lat="10.262406" lon="-67.792234">
        <ele>446.50</ele>
        <time>2022-10-26T12:04:41Z</time>
      </trkpt>
      <trkpt lat="10.262395" lon="-67.792281">
        <ele>446.50</ele>
        <time>2022-10-26T12:04:42Z</time>
      </trkpt>
      <trkpt lat="10.262385" lon="-67.792332">
        <ele>446.50</ele>
        <time>2022-10-26T12:04:43Z</time>
      </trkpt>
      <trkpt lat="10.262372" lon="-67.792384">
        <ele>446.50</ele>
        <time>2022-10-26T12:04:44Z</time>
      </trkpt>
      <trkpt lat="10.262360" lon="-67.792435">
        <ele>446.60</ele>
        <time>2022-10-26T12:04:45Z</time>
      </trkpt>
      <trkpt lat="10.262348" lon="-67.792484">
        <ele>446.60</ele>
        <time>2022-10-26T12:04:46Z</time>
      </trkpt>
      <trkpt lat="10.262340" lon="-67.792536">
        <ele>446.60</ele>
        <time>2022-10-26T12:04:47Z</time>
      </trkpt>
      <trkpt lat="10.262347" lon="-67.792588">
        <ele>446.60</ele>
        <time>2022-10-26T12:04:48Z</time>
      </trkpt>
      <trkpt lat="10.262356" lon="-67.792647">
        <ele>446.60</ele>
        <time>2022-10-26T12:04:49Z</time>
      </trkpt>
      <trkpt lat="10.262362" lon="-67.792700">
        <ele>446.60</ele>
        <time>2022-10-26T12:04:50Z</time>
      </trkpt>
      <trkpt lat="10.262365" lon="-67.792751">
        <ele>446.60</ele>
        <time>2022-10-26T12:04:51Z</time>
      </trkpt>
      <trkpt lat="10.262364" lon="-67.792803">
        <ele>446.60</ele>
        <time>2022-10-26T12:04:52Z</time>
      </trkpt>
      <trkpt lat="10.262355" lon="-67.792854">
        <ele>446.60</ele>
        <time>2022-10-26T12:04:53Z</time>
      </trkpt>
      <trkpt lat="10.262345" lon="-67.792914">
        <ele>446.50</ele>
        <time>2022-10-26T12:04:54Z</time>
      </trkpt>
      <trkpt lat="10.262335" lon="-67.792966">
        <ele>446.50</ele>
        <time>2022-10-26T12:04:55Z</time>
      </trkpt>
      <trkpt lat="10.262320" lon="-67.793010">
        <ele>446.50</ele>
        <time>2022-10-26T12:04:56Z</time>
      </trkpt>
      <trkpt lat="10.262305" lon="-67.793045">
        <ele>446.50</ele>
        <time>2022-10-26T12:04:57Z</time>
      </trkpt>
      <trkpt lat="10.262289" lon="-67.793086">
        <ele>446.50</ele>
        <time>2022-10-26T12:04:58Z</time>
      </trkpt>
      <trkpt lat="10.262278" lon="-67.793135">
        <ele>446.50</ele>
        <time>2022-10-26T12:04:59Z</time>
      </trkpt>
      <trkpt lat="10.262274" lon="-67.793185">
        <ele>446.40</ele>
        <time>2022-10-26T12:05:00Z</time>
      </trkpt>
      <trkpt lat="10.262261" lon="-67.793223">
        <ele>446.40</ele>
        <time>2022-10-26T12:05:01Z</time>
      </trkpt>
      <trkpt lat="10.262247" lon="-67.793268">
        <ele>446.40</ele>
        <time>2022-10-26T12:05:02Z</time>
      </trkpt>
      <trkpt lat="10.262230" lon="-67.793320">
        <ele>446.40</ele>
        <time>2022-10-26T12:05:03Z</time>
      </trkpt>
      <trkpt lat="10.262217" lon="-67.793368">
        <ele>446.40</ele>
        <time>2022-10-26T12:05:04Z</time>
      </trkpt>
      <trkpt lat="10.262214" lon="-67.793419">
        <ele>446.30</ele>
        <time>2022-10-26T12:05:05Z</time>
      </trkpt>
      <trkpt lat="10.262205" lon="-67.793461">
        <ele>446.30</ele>
        <time>2022-10-26T12:05:06Z</time>
      </trkpt>
      <trkpt lat="10.262195" lon="-67.793500">
        <ele>446.30</ele>
        <time>2022-10-26T12:05:07Z</time>
      </trkpt>
      <trkpt lat="10.262186" lon="-67.793537">
        <ele>446.20</ele>
        <time>2022-10-26T12:05:08Z</time>
      </trkpt>
      <trkpt lat="10.262177" lon="-67.793573">
        <ele>446.20</ele>
        <time>2022-10-26T12:05:09Z</time>
      </trkpt>
      <trkpt lat="10.262169" lon="-67.793610">
        <ele>446.20</ele>
        <time>2022-10-26T12:05:10Z</time>
      </trkpt>
      <trkpt lat="10.262164" lon="-67.793650">
        <ele>446.10</ele>
        <time>2022-10-26T12:05:11Z</time>
      </trkpt>
      <trkpt lat="10.262159" lon="-67.793690">
        <ele>446.10</ele>
        <time>2022-10-26T12:05:12Z</time>
      </trkpt>
      <trkpt lat="10.262154" lon="-67.793726">
        <ele>446.00</ele>
        <time>2022-10-26T12:05:13Z</time>
      </trkpt>
      <trkpt lat="10.262153" lon="-67.793763">
        <ele>446.00</ele>
        <time>2022-10-26T12:05:14Z</time>
      </trkpt>
      <trkpt lat="10.262150" lon="-67.793807">
        <ele>445.90</ele>
        <time>2022-10-26T12:05:15Z</time>
      </trkpt>
      <trkpt lat="10.262142" lon="-67.793851">
        <ele>445.80</ele>
        <time>2022-10-26T12:05:16Z</time>
      </trkpt>
      <trkpt lat="10.262132" lon="-67.793895">
        <ele>445.80</ele>
        <time>2022-10-26T12:05:17Z</time>
      </trkpt>
      <trkpt lat="10.262122" lon="-67.793937">
        <ele>445.70</ele>
        <time>2022-10-26T12:05:18Z</time>
      </trkpt>
      <trkpt lat="10.262113" lon="-67.793983">
        <ele>445.60</ele>
        <time>2022-10-26T12:05:19Z</time>
      </trkpt>
      <trkpt lat="10.262104" lon="-67.794031">
        <ele>445.60</ele>
        <time>2022-10-26T12:05:20Z</time>
      </trkpt>
      <trkpt lat="10.262094" lon="-67.794080">
        <ele>445.50</ele>
        <time>2022-10-26T12:05:21Z</time>
      </trkpt>
      <trkpt lat="10.262080" lon="-67.794128">
        <ele>445.50</ele>
        <time>2022-10-26T12:05:22Z</time>
      </trkpt>
      <trkpt lat="10.262070" lon="-67.794178">
        <ele>445.40</ele>
        <time>2022-10-26T12:05:23Z</time>
      </trkpt>
      <trkpt lat="10.262061" lon="-67.794227">
        <ele>445.40</ele>
        <time>2022-10-26T12:05:24Z</time>
      </trkpt>
      <trkpt lat="10.262049" lon="-67.794280">
        <ele>445.30</ele>
        <time>2022-10-26T12:05:25Z</time>
      </trkpt>
      <trkpt lat="10.262036" lon="-67.794332">
        <ele>445.30</ele>
        <time>2022-10-26T12:05:26Z</time>
      </trkpt>
      <trkpt lat="10.262021" lon="-67.794388">
        <ele>445.20</ele>
        <time>2022-10-26T12:05:27Z</time>
      </trkpt>
      <trkpt lat="10.262007" lon="-67.794451">
        <ele>445.20</ele>
        <time>2022-10-26T12:05:28Z</time>
      </trkpt>
      <trkpt lat="10.261994" lon="-67.794515">
        <ele>445.10</ele>
        <time>2022-10-26T12:05:29Z</time>
      </trkpt>
      <trkpt lat="10.261980" lon="-67.794582">
        <ele>445.00</ele>
        <time>2022-10-26T12:05:30Z</time>
      </trkpt>
      <trkpt lat="10.261967" lon="-67.794650">
        <ele>444.90</ele>
        <time>2022-10-26T12:05:31Z</time>
      </trkpt>
      <trkpt lat="10.261954" lon="-67.794717">
        <ele>444.90</ele>
        <time>2022-10-26T12:05:32Z</time>
      </trkpt>
      <trkpt lat="10.261940" lon="-67.794789">
        <ele>444.80</ele>
        <time>2022-10-26T12:05:33Z</time>
      </trkpt>
      <trkpt lat="10.261928" lon="-67.794858">
        <ele>444.70</ele>
        <time>2022-10-26T12:05:34Z</time>
      </trkpt>
      <trkpt lat="10.261913" lon="-67.794931">
        <ele>444.60</ele>
        <time>2022-10-26T12:05:35Z</time>
      </trkpt>
      <trkpt lat="10.261898" lon="-67.795005">
        <ele>444.50</ele>
        <time>2022-10-26T12:05:36Z</time>
      </trkpt>
      <trkpt lat="10.261885" lon="-67.795080">
        <ele>444.40</ele>
        <time>2022-10-26T12:05:37Z</time>
      </trkpt>
      <trkpt lat="10.261873" lon="-67.795153">
        <ele>444.40</ele>
        <time>2022-10-26T12:05:38Z</time>
      </trkpt>
      <trkpt lat="10.261861" lon="-67.795229">
        <ele>444.30</ele>
        <time>2022-10-26T12:05:39Z</time>
      </trkpt>
      <trkpt lat="10.261851" lon="-67.795302">
        <ele>444.20</ele>
        <time>2022-10-26T12:05:40Z</time>
      </trkpt>
      <trkpt lat="10.261841" lon="-67.795376">
        <ele>444.20</ele>
        <time>2022-10-26T12:05:41Z</time>
      </trkpt>
      <trkpt lat="10.261828" lon="-67.795447">
        <ele>444.20</ele>
        <time>2022-10-26T12:05:42Z</time>
      </trkpt>
      <trkpt lat="10.261815" lon="-67.795514">
        <ele>444.10</ele>
        <time>2022-10-26T12:05:43Z</time>
      </trkpt>
      <trkpt lat="10.261802" lon="-67.795571">
        <ele>444.10</ele>
        <time>2022-10-26T12:05:44Z</time>
      </trkpt>
      <trkpt lat="10.261791" lon="-67.795627">
        <ele>444.10</ele>
        <time>2022-10-26T12:05:45Z</time>
      </trkpt>
      <trkpt lat="10.261782" lon="-67.795681">
        <ele>444.10</ele>
        <time>2022-10-26T12:05:46Z</time>
      </trkpt>
      <trkpt lat="10.261774" lon="-67.795733">
        <ele>444.00</ele>
        <time>2022-10-26T12:05:47Z</time>
      </trkpt>
      <trkpt lat="10.261767" lon="-67.795785">
        <ele>444.00</ele>
        <time>2022-10-26T12:05:48Z</time>
      </trkpt>
      <trkpt lat="10.261757" lon="-67.795833">
        <ele>444.00</ele>
        <time>2022-10-26T12:05:49Z</time>
      </trkpt>
      <trkpt lat="10.261745" lon="-67.795877">
        <ele>443.90</ele>
        <time>2022-10-26T12:05:50Z</time>
      </trkpt>
      <trkpt lat="10.261738" lon="-67.795920">
        <ele>443.90</ele>
        <time>2022-10-26T12:05:51Z</time>
      </trkpt>
      <trkpt lat="10.261727" lon="-67.795965">
        <ele>443.90</ele>
        <time>2022-10-26T12:05:52Z</time>
      </trkpt>
      <trkpt lat="10.261717" lon="-67.796013">
        <ele>443.90</ele>
        <time>2022-10-26T12:05:53Z</time>
      </trkpt>
      <trkpt lat="10.261706" lon="-67.796061">
        <ele>443.80</ele>
        <time>2022-10-26T12:05:54Z</time>
      </trkpt>
      <trkpt lat="10.261695" lon="-67.796110">
        <ele>443.80</ele>
        <time>2022-10-26T12:05:55Z</time>
      </trkpt>
      <trkpt lat="10.261688" lon="-67.796157">
        <ele>443.80</ele>
        <time>2022-10-26T12:05:56Z</time>
      </trkpt>
      <trkpt lat="10.261683" lon="-67.796207">
        <ele>443.80</ele>
        <time>2022-10-26T12:05:57Z</time>
      </trkpt>
      <trkpt lat="10.261678" lon="-67.796254">
        <ele>443.80</ele>
        <time>2022-10-26T12:05:58Z</time>
      </trkpt>
      <trkpt lat="10.261665" lon="-67.796307">
        <ele>443.80</ele>
        <time>2022-10-26T12:05:59Z</time>
      </trkpt>
      <trkpt lat="10.261652" lon="-67.796361">
        <ele>443.90</ele>
        <time>2022-10-26T12:06:00Z</time>
      </trkpt>
      <trkpt lat="10.261641" lon="-67.796414">
        <ele>443.90</ele>
        <time>2022-10-26T12:06:01Z</time>
      </trkpt>
      <trkpt lat="10.261629" lon="-67.796466">
        <ele>443.90</ele>
        <time>2022-10-26T12:06:02Z</time>
      </trkpt>
      <trkpt lat="10.261616" lon="-67.796514">
        <ele>443.90</ele>
        <time>2022-10-26T12:06:03Z</time>
      </trkpt>
      <trkpt lat="10.261600" lon="-67.796564">
        <ele>443.90</ele>
        <time>2022-10-26T12:06:04Z</time>
      </trkpt>
      <trkpt lat="10.261585" lon="-67.796614">
        <ele>443.90</ele>
        <time>2022-10-26T12:06:05Z</time>
      </trkpt>
      <trkpt lat="10.261574" lon="-67.796656">
        <ele>444.00</ele>
        <time>2022-10-26T12:06:06Z</time>
      </trkpt>
      <trkpt lat="10.261565" lon="-67.796699">
        <ele>444.00</ele>
        <time>2022-10-26T12:06:07Z</time>
      </trkpt>
      <trkpt lat="10.261557" lon="-67.796743">
        <ele>444.00</ele>
        <time>2022-10-26T12:06:08Z</time>
      </trkpt>
      <trkpt lat="10.261548" lon="-67.796790">
        <ele>444.00</ele>
        <time>2022-10-26T12:06:09Z</time>
      </trkpt>
      <trkpt lat="10.261539" lon="-67.796837">
        <ele>444.10</ele>
        <time>2022-10-26T12:06:10Z</time>
      </trkpt>
      <trkpt lat="10.261529" lon="-67.796884">
        <ele>444.10</ele>
        <time>2022-10-26T12:06:11Z</time>
      </trkpt>
      <trkpt lat="10.261520" lon="-67.796931">
        <ele>444.10</ele>
        <time>2022-10-26T12:06:12Z</time>
      </trkpt>
      <trkpt lat="10.261510" lon="-67.796978">
        <ele>444.10</ele>
        <time>2022-10-26T12:06:13Z</time>
      </trkpt>
      <trkpt lat="10.261499" lon="-67.797023">
        <ele>444.10</ele>
        <time>2022-10-26T12:06:14Z</time>
      </trkpt>
      <trkpt lat="10.261489" lon="-67.797067">
        <ele>444.20</ele>
        <time>2022-10-26T12:06:15Z</time>
      </trkpt>
      <trkpt lat="10.261480" lon="-67.797111">
        <ele>444.20</ele>
        <time>2022-10-26T12:06:16Z</time>
      </trkpt>
      <trkpt lat="10.261472" lon="-67.797153">
        <ele>444.20</ele>
        <time>2022-10-26T12:06:17Z</time>
      </trkpt>
      <trkpt lat="10.261464" lon="-67.797194">
        <ele>444.20</ele>
        <time>2022-10-26T12:06:18Z</time>
      </trkpt>
      <trkpt lat="10.261454" lon="-67.797237">
        <ele>444.20</ele>
        <time>2022-10-26T12:06:19Z</time>
      </trkpt>
      <trkpt lat="10.261445" lon="-67.797280">
        <ele>444.30</ele>
        <time>2022-10-26T12:06:20Z</time>
      </trkpt>
      <trkpt lat="10.261437" lon="-67.797323">
        <ele>444.30</ele>
        <time>2022-10-26T12:06:21Z</time>
      </trkpt>
      <trkpt lat="10.261430" lon="-67.797368">
        <ele>444.30</ele>
        <time>2022-10-26T12:06:22Z</time>
      </trkpt>
      <trkpt lat="10.261421" lon="-67.797413">
        <ele>444.30</ele>
        <time>2022-10-26T12:06:23Z</time>
      </trkpt>
      <trkpt lat="10.261410" lon="-67.797456">
        <ele>444.30</ele>
        <time>2022-10-26T12:06:24Z</time>
      </trkpt>
      <trkpt lat="10.261401" lon="-67.797499">
        <ele>444.40</ele>
        <time>2022-10-26T12:06:25Z</time>
      </trkpt>
      <trkpt lat="10.261394" lon="-67.797546">
        <ele>444.40</ele>
        <time>2022-10-26T12:06:26Z</time>
      </trkpt>
      <trkpt lat="10.261391" lon="-67.797591">
        <ele>444.40</ele>
        <time>2022-10-26T12:06:27Z</time>
      </trkpt>
      <trkpt lat="10.261387" lon="-67.797631">
        <ele>444.40</ele>
        <time>2022-10-26T12:06:28Z</time>
      </trkpt>
      <trkpt lat="10.261381" lon="-67.797670">
        <ele>444.40</ele>
        <time>2022-10-26T12:06:29Z</time>
      </trkpt>
      <trkpt lat="10.261375" lon="-67.797709">
        <ele>444.50</ele>
        <time>2022-10-26T12:06:30Z</time>
      </trkpt>
      <trkpt lat="10.261369" lon="-67.797748">
        <ele>444.50</ele>
        <time>2022-10-26T12:06:31Z</time>
      </trkpt>
      <trkpt lat="10.261358" lon="-67.797786">
        <ele>444.50</ele>
        <time>2022-10-26T12:06:32Z</time>
      </trkpt>
      <trkpt lat="10.261347" lon="-67.797821">
        <ele>444.50</ele>
        <time>2022-10-26T12:06:33Z</time>
      </trkpt>
      <trkpt lat="10.261338" lon="-67.797860">
        <ele>444.50</ele>
        <time>2022-10-26T12:06:34Z</time>
      </trkpt>
      <trkpt lat="10.261331" lon="-67.797902">
        <ele>444.50</ele>
        <time>2022-10-26T12:06:35Z</time>
      </trkpt>
      <trkpt lat="10.261319" lon="-67.797943">
        <ele>444.50</ele>
        <time>2022-10-26T12:06:36Z</time>
      </trkpt>
      <trkpt lat="10.261307" lon="-67.797987">
        <ele>444.60</ele>
        <time>2022-10-26T12:06:37Z</time>
      </trkpt>
      <trkpt lat="10.261299" lon="-67.798026">
        <ele>444.60</ele>
        <time>2022-10-26T12:06:38Z</time>
      </trkpt>
      <trkpt lat="10.261289" lon="-67.798062">
        <ele>444.60</ele>
        <time>2022-10-26T12:06:39Z</time>
      </trkpt>
      <trkpt lat="10.261281" lon="-67.798096">
        <ele>444.60</ele>
        <time>2022-10-26T12:06:40Z</time>
      </trkpt>
      <trkpt lat="10.261278" lon="-67.798104">
        <ele>444.60</ele>
        <time>2022-10-26T12:06:41Z</time>
      </trkpt>
      <trkpt lat="10.261274" lon="-67.798116">
        <ele>444.60</ele>
        <time>2022-10-26T12:06:42Z</time>
      </trkpt>
      <trkpt lat="10.261275" lon="-67.798119">
        <ele>444.60</ele>
        <time>2022-10-26T12:06:43Z</time>
      </trkpt>
      <trkpt lat="10.261275" lon="-67.798123">
        <ele>444.60</ele>
        <time>2022-10-26T12:06:44Z</time>
      </trkpt>
      <trkpt lat="10.261275" lon="-67.798126">
        <ele>444.60</ele>
        <time>2022-10-26T12:06:45Z</time>
      </trkpt>
      <trkpt lat="10.261275" lon="-67.798130">
        <ele>444.60</ele>
        <time>2022-10-26T12:06:46Z</time>
      </trkpt>
      <trkpt lat="10.261275" lon="-67.798133">
        <ele>444.60</ele>
        <time>2022-10-26T12:06:47Z</time>
      </trkpt>
      <trkpt lat="10.261276" lon="-67.798137">
        <ele>444.60</ele>
        <time>2022-10-26T12:06:48Z</time>
      </trkpt>
      <trkpt lat="10.261276" lon="-67.798140">
        <ele>444.60</ele>
        <time>2022-10-26T12:06:49Z</time>
      </trkpt>
      <trkpt lat="10.261276" lon="-67.798144">
        <ele>444.60</ele>
        <time>2022-10-26T12:06:50Z</time>
      </trkpt>
      <trkpt lat="10.261276" lon="-67.798148">
        <ele>444.60</ele>
        <time>2022-10-26T12:06:51Z</time>
      </trkpt>
      <trkpt lat="10.261277" lon="-67.798151">
        <ele>444.60</ele>
        <time>2022-10-26T12:06:52Z</time>
      </trkpt>
      <trkpt lat="10.261277" lon="-67.798155">
        <ele>444.60</ele>
        <time>2022-10-26T12:06:53Z</time>
      </trkpt>
      <trkpt lat="10.261277" lon="-67.798158">
        <ele>444.60</ele>
        <time>2022-10-26T12:06:54Z</time>
      </trkpt>
      <trkpt lat="10.261277" lon="-67.798162">
        <ele>444.60</ele>
        <time>2022-10-26T12:06:55Z</time>
      </trkpt>
      <trkpt lat="10.261278" lon="-67.798165">
        <ele>444.60</ele>
        <time>2022-10-26T12:06:56Z</time>
      </trkpt>
      <trkpt lat="10.261278" lon="-67.798169">
        <ele>444.60</ele>
        <time>2022-10-26T12:06:57Z</time>
      </trkpt>
      <trkpt lat="10.261278" lon="-67.798172">
        <ele>444.60</ele>
        <time>2022-10-26T12:06:58Z</time>
      </trkpt>
      <trkpt lat="10.261278" lon="-67.798176">
        <ele>444.60</ele>
        <time>2022-10-26T12:06:59Z</time>
      </trkpt>
      <trkpt lat="10.261278" lon="-67.798179">
        <ele>444.60</ele>
        <time>2022-10-26T12:07:00Z</time>
      </trkpt>
      <trkpt lat="10.261279" lon="-67.798216">
        <ele>444.60</ele>
        <time>2022-10-26T12:07:01Z</time>
      </trkpt>
      <trkpt lat="10.261275" lon="-67.798251">
        <ele>444.70</ele>
        <time>2022-10-26T12:07:02Z</time>
      </trkpt>
      <trkpt lat="10.261274" lon="-67.798267">
        <ele>444.70</ele>
        <time>2022-10-26T12:07:03Z</time>
      </trkpt>
      <trkpt lat="10.261267" lon="-67.798309">
        <ele>444.70</ele>
        <time>2022-10-26T12:07:04Z</time>
      </trkpt>
      <trkpt lat="10.261258" lon="-67.798356">
        <ele>444.70</ele>
        <time>2022-10-26T12:07:05Z</time>
      </trkpt>
      <trkpt lat="10.261246" lon="-67.798406">
        <ele>444.70</ele>
        <time>2022-10-26T12:07:06Z</time>
      </trkpt>
      <trkpt lat="10.261236" lon="-67.798454">
        <ele>444.80</ele>
        <time>2022-10-26T12:07:07Z</time>
      </trkpt>
      <trkpt lat="10.261228" lon="-67.798502">
        <ele>444.80</ele>
        <time>2022-10-26T12:07:08Z</time>
      </trkpt>
      <trkpt lat="10.261221" lon="-67.798550">
        <ele>444.80</ele>
        <time>2022-10-26T12:07:09Z</time>
      </trkpt>
      <trkpt lat="10.261213" lon="-67.798600">
        <ele>444.90</ele>
        <time>2022-10-26T12:07:10Z</time>
      </trkpt>
      <trkpt lat="10.261204" lon="-67.798645">
        <ele>444.90</ele>
        <time>2022-10-26T12:07:11Z</time>
      </trkpt>
      <trkpt lat="10.261195" lon="-67.798687">
        <ele>445.00</ele>
        <time>2022-10-26T12:07:12Z</time>
      </trkpt>
      <trkpt lat="10.261188" lon="-67.798722">
        <ele>445.00</ele>
        <time>2022-10-26T12:07:13Z</time>
      </trkpt>
      <trkpt lat="10.261181" lon="-67.798760">
        <ele>445.10</ele>
        <time>2022-10-26T12:07:14Z</time>
      </trkpt>
      <trkpt lat="10.261172" lon="-67.798805">
        <ele>445.10</ele>
        <time>2022-10-26T12:07:15Z</time>
      </trkpt>
      <trkpt lat="10.261161" lon="-67.798850">
        <ele>445.10</ele>
        <time>2022-10-26T12:07:16Z</time>
      </trkpt>
      <trkpt lat="10.261150" lon="-67.798894">
        <ele>445.20</ele>
        <time>2022-10-26T12:07:17Z</time>
      </trkpt>
      <trkpt lat="10.261139" lon="-67.798937">
        <ele>445.20</ele>
        <time>2022-10-26T12:07:18Z</time>
      </trkpt>
      <trkpt lat="10.261127" lon="-67.798980">
        <ele>445.20</ele>
        <time>2022-10-26T12:07:19Z</time>
      </trkpt>
      <trkpt lat="10.261119" lon="-67.799024">
        <ele>445.30</ele>
        <time>2022-10-26T12:07:20Z</time>
      </trkpt>
      <trkpt lat="10.261109" lon="-67.799066">
        <ele>445.30</ele>
        <time>2022-10-26T12:07:21Z</time>
      </trkpt>
      <trkpt lat="10.261097" lon="-67.799109">
        <ele>445.30</ele>
        <time>2022-10-26T12:07:22Z</time>
      </trkpt>
      <trkpt lat="10.261083" lon="-67.799150">
        <ele>445.30</ele>
        <time>2022-10-26T12:07:23Z</time>
      </trkpt>
      <trkpt lat="10.261067" lon="-67.799187">
        <ele>445.30</ele>
        <time>2022-10-26T12:07:24Z</time>
      </trkpt>
      <trkpt lat="10.261052" lon="-67.799228">
        <ele>445.30</ele>
        <time>2022-10-26T12:07:25Z</time>
      </trkpt>
      <trkpt lat="10.261042" lon="-67.799273">
        <ele>445.40</ele>
        <time>2022-10-26T12:07:26Z</time>
      </trkpt>
      <trkpt lat="10.261032" lon="-67.799322">
        <ele>445.40</ele>
        <time>2022-10-26T12:07:27Z</time>
      </trkpt>
      <trkpt lat="10.261026" lon="-67.799369">
        <ele>445.40</ele>
        <time>2022-10-26T12:07:28Z</time>
      </trkpt>
      <trkpt lat="10.261020" lon="-67.799419">
        <ele>445.40</ele>
        <time>2022-10-26T12:07:29Z</time>
      </trkpt>
      <trkpt lat="10.261015" lon="-67.799471">
        <ele>445.50</ele>
        <time>2022-10-26T12:07:30Z</time>
      </trkpt>
      <trkpt lat="10.261007" lon="-67.799527">
        <ele>445.50</ele>
        <time>2022-10-26T12:07:31Z</time>
      </trkpt>
      <trkpt lat="10.260997" lon="-67.799587">
        <ele>445.50</ele>
        <time>2022-10-26T12:07:32Z</time>
      </trkpt>
      <trkpt lat="10.260987" lon="-67.799642">
        <ele>445.60</ele>
        <time>2022-10-26T12:07:33Z</time>
      </trkpt>
      <trkpt lat="10.260978" lon="-67.799698">
        <ele>445.60</ele>
        <time>2022-10-26T12:07:34Z</time>
      </trkpt>
      <trkpt lat="10.260968" lon="-67.799753">
        <ele>445.60</ele>
        <time>2022-10-26T12:07:35Z</time>
      </trkpt>
      <trkpt lat="10.260958" lon="-67.799806">
        <ele>445.60</ele>
        <time>2022-10-26T12:07:36Z</time>
      </trkpt>
      <trkpt lat="10.260947" lon="-67.799860">
        <ele>445.70</ele>
        <time>2022-10-26T12:07:37Z</time>
      </trkpt>
      <trkpt lat="10.260937" lon="-67.799912">
        <ele>445.70</ele>
        <time>2022-10-26T12:07:38Z</time>
      </trkpt>
      <trkpt lat="10.260927" lon="-67.799967">
        <ele>445.70</ele>
        <time>2022-10-26T12:07:39Z</time>
      </trkpt>
      <trkpt lat="10.260918" lon="-67.800020">
        <ele>445.70</ele>
        <time>2022-10-26T12:07:40Z</time>
      </trkpt>
      <trkpt lat="10.260907" lon="-67.800077">
        <ele>445.80</ele>
        <time>2022-10-26T12:07:41Z</time>
      </trkpt>
      <trkpt lat="10.260898" lon="-67.800134">
        <ele>445.80</ele>
        <time>2022-10-26T12:07:42Z</time>
      </trkpt>
      <trkpt lat="10.260892" lon="-67.800193">
        <ele>445.80</ele>
        <time>2022-10-26T12:07:43Z</time>
      </trkpt>
      <trkpt lat="10.260884" lon="-67.800251">
        <ele>445.90</ele>
        <time>2022-10-26T12:07:44Z</time>
      </trkpt>
      <trkpt lat="10.260876" lon="-67.800311">
        <ele>445.90</ele>
        <time>2022-10-26T12:07:45Z</time>
      </trkpt>
      <trkpt lat="10.260867" lon="-67.800372">
        <ele>445.90</ele>
        <time>2022-10-26T12:07:46Z</time>
      </trkpt>
      <trkpt lat="10.260857" lon="-67.800433">
        <ele>446.00</ele>
        <time>2022-10-26T12:07:47Z</time>
      </trkpt>
      <trkpt lat="10.260848" lon="-67.800493">
        <ele>446.00</ele>
        <time>2022-10-26T12:07:48Z</time>
      </trkpt>
      <trkpt lat="10.260839" lon="-67.800558">
        <ele>446.00</ele>
        <time>2022-10-26T12:07:49Z</time>
      </trkpt>
      <trkpt lat="10.260829" lon="-67.800621">
        <ele>446.00</ele>
        <time>2022-10-26T12:07:50Z</time>
      </trkpt>
      <trkpt lat="10.260816" lon="-67.800684">
        <ele>446.00</ele>
        <time>2022-10-26T12:07:51Z</time>
      </trkpt>
      <trkpt lat="10.260805" lon="-67.800746">
        <ele>446.00</ele>
        <time>2022-10-26T12:07:52Z</time>
      </trkpt>
      <trkpt lat="10.260794" lon="-67.800809">
        <ele>446.10</ele>
        <time>2022-10-26T12:07:53Z</time>
      </trkpt>
      <trkpt lat="10.260785" lon="-67.800872">
        <ele>446.10</ele>
        <time>2022-10-26T12:07:54Z</time>
      </trkpt>
      <trkpt lat="10.260775" lon="-67.800926">
        <ele>446.10</ele>
        <time>2022-10-26T12:07:55Z</time>
      </trkpt>
      <trkpt lat="10.260759" lon="-67.800979">
        <ele>446.10</ele>
        <time>2022-10-26T12:07:56Z</time>
      </trkpt>
      <trkpt lat="10.260742" lon="-67.801031">
        <ele>446.20</ele>
        <time>2022-10-26T12:07:57Z</time>
      </trkpt>
      <trkpt lat="10.260727" lon="-67.801082">
        <ele>446.20</ele>
        <time>2022-10-26T12:07:58Z</time>
      </trkpt>
      <trkpt lat="10.260715" lon="-67.801131">
        <ele>446.20</ele>
        <time>2022-10-26T12:07:59Z</time>
      </trkpt>
      <trkpt lat="10.260704" lon="-67.801183">
        <ele>446.20</ele>
        <time>2022-10-26T12:08:00Z</time>
      </trkpt>
      <trkpt lat="10.260698" lon="-67.801235">
        <ele>446.30</ele>
        <time>2022-10-26T12:08:01Z</time>
      </trkpt>
      <trkpt lat="10.260690" lon="-67.801291">
        <ele>446.30</ele>
        <time>2022-10-26T12:08:02Z</time>
      </trkpt>
      <trkpt lat="10.260680" lon="-67.801349">
        <ele>446.40</ele>
        <time>2022-10-26T12:08:03Z</time>
      </trkpt>
      <trkpt lat="10.260668" lon="-67.801406">
        <ele>446.40</ele>
        <time>2022-10-26T12:08:04Z</time>
      </trkpt>
      <trkpt lat="10.260657" lon="-67.801462">
        <ele>446.50</ele>
        <time>2022-10-26T12:08:05Z</time>
      </trkpt>
      <trkpt lat="10.260645" lon="-67.801519">
        <ele>446.50</ele>
        <time>2022-10-26T12:08:06Z</time>
      </trkpt>
      <trkpt lat="10.260632" lon="-67.801573">
        <ele>446.60</ele>
        <time>2022-10-26T12:08:07Z</time>
      </trkpt>
      <trkpt lat="10.260619" lon="-67.801630">
        <ele>446.60</ele>
        <time>2022-10-26T12:08:08Z</time>
      </trkpt>
      <trkpt lat="10.260606" lon="-67.801685">
        <ele>446.60</ele>
        <time>2022-10-26T12:08:09Z</time>
      </trkpt>
      <trkpt lat="10.260595" lon="-67.801740">
        <ele>446.60</ele>
        <time>2022-10-26T12:08:10Z</time>
      </trkpt>
      <trkpt lat="10.260587" lon="-67.801794">
        <ele>446.60</ele>
        <time>2022-10-26T12:08:11Z</time>
      </trkpt>
      <trkpt lat="10.260580" lon="-67.801847">
        <ele>446.60</ele>
        <time>2022-10-26T12:08:12Z</time>
      </trkpt>
      <trkpt lat="10.260571" lon="-67.801905">
        <ele>446.60</ele>
        <time>2022-10-26T12:08:13Z</time>
      </trkpt>
      <trkpt lat="10.260562" lon="-67.801962">
        <ele>446.70</ele>
        <time>2022-10-26T12:08:14Z</time>
      </trkpt>
      <trkpt lat="10.260553" lon="-67.802017">
        <ele>446.70</ele>
        <time>2022-10-26T12:08:15Z</time>
      </trkpt>
      <trkpt lat="10.260544" lon="-67.802073">
        <ele>446.70</ele>
        <time>2022-10-26T12:08:16Z</time>
      </trkpt>
      <trkpt lat="10.260536" lon="-67.802129">
        <ele>446.70</ele>
        <time>2022-10-26T12:08:17Z</time>
      </trkpt>
      <trkpt lat="10.260527" lon="-67.802186">
        <ele>446.70</ele>
        <time>2022-10-26T12:08:18Z</time>
      </trkpt>
      <trkpt lat="10.260519" lon="-67.802243">
        <ele>446.70</ele>
        <time>2022-10-26T12:08:19Z</time>
      </trkpt>
      <trkpt lat="10.260512" lon="-67.802301">
        <ele>446.80</ele>
        <time>2022-10-26T12:08:20Z</time>
      </trkpt>
      <trkpt lat="10.260500" lon="-67.802363">
        <ele>446.80</ele>
        <time>2022-10-26T12:08:21Z</time>
      </trkpt>
      <trkpt lat="10.260486" lon="-67.802420">
        <ele>446.80</ele>
        <time>2022-10-26T12:08:22Z</time>
      </trkpt>
      <trkpt lat="10.260471" lon="-67.802478">
        <ele>446.80</ele>
        <time>2022-10-26T12:08:23Z</time>
      </trkpt>
      <trkpt lat="10.260459" lon="-67.802535">
        <ele>446.80</ele>
        <time>2022-10-26T12:08:24Z</time>
      </trkpt>
      <trkpt lat="10.260447" lon="-67.802592">
        <ele>446.80</ele>
        <time>2022-10-26T12:08:25Z</time>
      </trkpt>
      <trkpt lat="10.260435" lon="-67.802652">
        <ele>446.80</ele>
        <time>2022-10-26T12:08:26Z</time>
      </trkpt>
      <trkpt lat="10.260425" lon="-67.802711">
        <ele>446.80</ele>
        <time>2022-10-26T12:08:27Z</time>
      </trkpt>
      <trkpt lat="10.260413" lon="-67.802770">
        <ele>446.90</ele>
        <time>2022-10-26T12:08:28Z</time>
      </trkpt>
      <trkpt lat="10.260401" lon="-67.802829">
        <ele>446.90</ele>
        <time>2022-10-26T12:08:29Z</time>
      </trkpt>
      <trkpt lat="10.260387" lon="-67.802889">
        <ele>446.90</ele>
        <time>2022-10-26T12:08:30Z</time>
      </trkpt>
      <trkpt lat="10.260373" lon="-67.802946">
        <ele>446.90</ele>
        <time>2022-10-26T12:08:31Z</time>
      </trkpt>
      <trkpt lat="10.260358" lon="-67.803004">
        <ele>446.90</ele>
        <time>2022-10-26T12:08:32Z</time>
      </trkpt>
      <trkpt lat="10.260346" lon="-67.803059">
        <ele>446.90</ele>
        <time>2022-10-26T12:08:33Z</time>
      </trkpt>
      <trkpt lat="10.260335" lon="-67.803113">
        <ele>447.00</ele>
        <time>2022-10-26T12:08:34Z</time>
      </trkpt>
      <trkpt lat="10.260325" lon="-67.803164">
        <ele>447.00</ele>
        <time>2022-10-26T12:08:35Z</time>
      </trkpt>
      <trkpt lat="10.260317" lon="-67.803215">
        <ele>447.00</ele>
        <time>2022-10-26T12:08:36Z</time>
      </trkpt>
      <trkpt lat="10.260309" lon="-67.803264">
        <ele>447.00</ele>
        <time>2022-10-26T12:08:37Z</time>
      </trkpt>
      <trkpt lat="10.260297" lon="-67.803312">
        <ele>447.00</ele>
        <time>2022-10-26T12:08:38Z</time>
      </trkpt>
      <trkpt lat="10.260284" lon="-67.803360">
        <ele>447.00</ele>
        <time>2022-10-26T12:08:39Z</time>
      </trkpt>
      <trkpt lat="10.260273" lon="-67.803413">
        <ele>447.00</ele>
        <time>2022-10-26T12:08:40Z</time>
      </trkpt>
      <trkpt lat="10.260262" lon="-67.803465">
        <ele>447.00</ele>
        <time>2022-10-26T12:08:41Z</time>
      </trkpt>
      <trkpt lat="10.260252" lon="-67.803518">
        <ele>447.00</ele>
        <time>2022-10-26T12:08:42Z</time>
      </trkpt>
      <trkpt lat="10.260241" lon="-67.803577">
        <ele>447.00</ele>
        <time>2022-10-26T12:08:43Z</time>
      </trkpt>
      <trkpt lat="10.260232" lon="-67.803638">
        <ele>447.00</ele>
        <time>2022-10-26T12:08:44Z</time>
      </trkpt>
      <trkpt lat="10.260222" lon="-67.803698">
        <ele>447.00</ele>
        <time>2022-10-26T12:08:45Z</time>
      </trkpt>
      <trkpt lat="10.260212" lon="-67.803761">
        <ele>447.00</ele>
        <time>2022-10-26T12:08:46Z</time>
      </trkpt>
      <trkpt lat="10.260203" lon="-67.803827">
        <ele>447.00</ele>
        <time>2022-10-26T12:08:47Z</time>
      </trkpt>
      <trkpt lat="10.260194" lon="-67.803892">
        <ele>447.00</ele>
        <time>2022-10-26T12:08:48Z</time>
      </trkpt>
      <trkpt lat="10.260185" lon="-67.803961">
        <ele>447.00</ele>
        <time>2022-10-26T12:08:49Z</time>
      </trkpt>
      <trkpt lat="10.260174" lon="-67.804029">
        <ele>447.00</ele>
        <time>2022-10-26T12:08:50Z</time>
      </trkpt>
      <trkpt lat="10.260164" lon="-67.804100">
        <ele>447.00</ele>
        <time>2022-10-26T12:08:51Z</time>
      </trkpt>
      <trkpt lat="10.260155" lon="-67.804171">
        <ele>446.90</ele>
        <time>2022-10-26T12:08:52Z</time>
      </trkpt>
      <trkpt lat="10.260143" lon="-67.804242">
        <ele>446.90</ele>
        <time>2022-10-26T12:08:53Z</time>
      </trkpt>
      <trkpt lat="10.260129" lon="-67.804313">
        <ele>446.90</ele>
        <time>2022-10-26T12:08:54Z</time>
      </trkpt>
      <trkpt lat="10.260116" lon="-67.804383">
        <ele>446.90</ele>
        <time>2022-10-26T12:08:55Z</time>
      </trkpt>
      <trkpt lat="10.260104" lon="-67.804453">
        <ele>447.00</ele>
        <time>2022-10-26T12:08:56Z</time>
      </trkpt>
      <trkpt lat="10.260093" lon="-67.804523">
        <ele>447.00</ele>
        <time>2022-10-26T12:08:57Z</time>
      </trkpt>
      <trkpt lat="10.260082" lon="-67.804590">
        <ele>447.00</ele>
        <time>2022-10-26T12:08:58Z</time>
      </trkpt>
      <trkpt lat="10.260071" lon="-67.804656">
        <ele>447.00</ele>
        <time>2022-10-26T12:08:59Z</time>
      </trkpt>
      <trkpt lat="10.260061" lon="-67.804723">
        <ele>447.00</ele>
        <time>2022-10-26T12:09:00Z</time>
      </trkpt>
      <trkpt lat="10.260051" lon="-67.804788">
        <ele>447.00</ele>
        <time>2022-10-26T12:09:01Z</time>
      </trkpt>
      <trkpt lat="10.260040" lon="-67.804849">
        <ele>447.00</ele>
        <time>2022-10-26T12:09:02Z</time>
      </trkpt>
      <trkpt lat="10.260028" lon="-67.804907">
        <ele>447.00</ele>
        <time>2022-10-26T12:09:03Z</time>
      </trkpt>
      <trkpt lat="10.260018" lon="-67.804957">
        <ele>447.00</ele>
        <time>2022-10-26T12:09:04Z</time>
      </trkpt>
      <trkpt lat="10.260006" lon="-67.805006">
        <ele>447.00</ele>
        <time>2022-10-26T12:09:05Z</time>
      </trkpt>
      <trkpt lat="10.259994" lon="-67.805054">
        <ele>447.00</ele>
        <time>2022-10-26T12:09:06Z</time>
      </trkpt>
      <trkpt lat="10.259984" lon="-67.805100">
        <ele>447.00</ele>
        <time>2022-10-26T12:09:07Z</time>
      </trkpt>
      <trkpt lat="10.259977" lon="-67.805147">
        <ele>447.00</ele>
        <time>2022-10-26T12:09:08Z</time>
      </trkpt>
      <trkpt lat="10.259969" lon="-67.805195">
        <ele>447.00</ele>
        <time>2022-10-26T12:09:09Z</time>
      </trkpt>
      <trkpt lat="10.259959" lon="-67.805245">
        <ele>447.00</ele>
        <time>2022-10-26T12:09:10Z</time>
      </trkpt>
      <trkpt lat="10.259951" lon="-67.805295">
        <ele>447.00</ele>
        <time>2022-10-26T12:09:11Z</time>
      </trkpt>
      <trkpt lat="10.259943" lon="-67.805344">
        <ele>447.00</ele>
        <time>2022-10-26T12:09:12Z</time>
      </trkpt>
      <trkpt lat="10.259934" lon="-67.805394">
        <ele>447.00</ele>
        <time>2022-10-26T12:09:13Z</time>
      </trkpt>
      <trkpt lat="10.259924" lon="-67.805444">
        <ele>447.00</ele>
        <time>2022-10-26T12:09:14Z</time>
      </trkpt>
      <trkpt lat="10.259914" lon="-67.805495">
        <ele>447.00</ele>
        <time>2022-10-26T12:09:15Z</time>
      </trkpt>
      <trkpt lat="10.259904" lon="-67.805546">
        <ele>446.90</ele>
        <time>2022-10-26T12:09:16Z</time>
      </trkpt>
      <trkpt lat="10.259891" lon="-67.805595">
        <ele>446.90</ele>
        <time>2022-10-26T12:09:17Z</time>
      </trkpt>
      <trkpt lat="10.259881" lon="-67.805642">
        <ele>446.90</ele>
        <time>2022-10-26T12:09:18Z</time>
      </trkpt>
      <trkpt lat="10.259873" lon="-67.805688">
        <ele>446.90</ele>
        <time>2022-10-26T12:09:19Z</time>
      </trkpt>
      <trkpt lat="10.259867" lon="-67.805731">
        <ele>446.90</ele>
        <time>2022-10-26T12:09:20Z</time>
      </trkpt>
      <trkpt lat="10.259860" lon="-67.805777">
        <ele>446.90</ele>
        <time>2022-10-26T12:09:21Z</time>
      </trkpt>
      <trkpt lat="10.259851" lon="-67.805826">
        <ele>446.90</ele>
        <time>2022-10-26T12:09:22Z</time>
      </trkpt>
      <trkpt lat="10.259840" lon="-67.805879">
        <ele>446.90</ele>
        <time>2022-10-26T12:09:23Z</time>
      </trkpt>
      <trkpt lat="10.259828" lon="-67.805931">
        <ele>446.90</ele>
        <time>2022-10-26T12:09:24Z</time>
      </trkpt>
      <trkpt lat="10.259819" lon="-67.805986">
        <ele>446.90</ele>
        <time>2022-10-26T12:09:25Z</time>
      </trkpt>
      <trkpt lat="10.259813" lon="-67.806042">
        <ele>446.90</ele>
        <time>2022-10-26T12:09:26Z</time>
      </trkpt>
      <trkpt lat="10.259807" lon="-67.806099">
        <ele>446.90</ele>
        <time>2022-10-26T12:09:27Z</time>
      </trkpt>
      <trkpt lat="10.259804" lon="-67.806157">
        <ele>446.90</ele>
        <time>2022-10-26T12:09:28Z</time>
      </trkpt>
      <trkpt lat="10.259797" lon="-67.806214">
        <ele>446.90</ele>
        <time>2022-10-26T12:09:29Z</time>
      </trkpt>
      <trkpt lat="10.259791" lon="-67.806269">
        <ele>446.90</ele>
        <time>2022-10-26T12:09:30Z</time>
      </trkpt>
      <trkpt lat="10.259785" lon="-67.806317">
        <ele>446.90</ele>
        <time>2022-10-26T12:09:31Z</time>
      </trkpt>
      <trkpt lat="10.259773" lon="-67.806370">
        <ele>446.90</ele>
        <time>2022-10-26T12:09:32Z</time>
      </trkpt>
      <trkpt lat="10.259758" lon="-67.806424">
        <ele>446.90</ele>
        <time>2022-10-26T12:09:33Z</time>
      </trkpt>
      <trkpt lat="10.259746" lon="-67.806478">
        <ele>446.90</ele>
        <time>2022-10-26T12:09:34Z</time>
      </trkpt>
      <trkpt lat="10.259736" lon="-67.806528">
        <ele>446.90</ele>
        <time>2022-10-26T12:09:35Z</time>
      </trkpt>
      <trkpt lat="10.259727" lon="-67.806577">
        <ele>446.90</ele>
        <time>2022-10-26T12:09:36Z</time>
      </trkpt>
      <trkpt lat="10.259718" lon="-67.806624">
        <ele>446.90</ele>
        <time>2022-10-26T12:09:37Z</time>
      </trkpt>
      <trkpt lat="10.259709" lon="-67.806671">
        <ele>446.90</ele>
        <time>2022-10-26T12:09:38Z</time>
      </trkpt>
      <trkpt lat="10.259702" lon="-67.806718">
        <ele>446.90</ele>
        <time>2022-10-26T12:09:39Z</time>
      </trkpt>
      <trkpt lat="10.259695" lon="-67.806766">
        <ele>446.90</ele>
        <time>2022-10-26T12:09:40Z</time>
      </trkpt>
      <trkpt lat="10.259686" lon="-67.806812">
        <ele>446.90</ele>
        <time>2022-10-26T12:09:41Z</time>
      </trkpt>
      <trkpt lat="10.259679" lon="-67.806861">
        <ele>446.90</ele>
        <time>2022-10-26T12:09:42Z</time>
      </trkpt>
      <trkpt lat="10.259670" lon="-67.806908">
        <ele>446.90</ele>
        <time>2022-10-26T12:09:43Z</time>
      </trkpt>
      <trkpt lat="10.259660" lon="-67.806956">
        <ele>446.90</ele>
        <time>2022-10-26T12:09:44Z</time>
      </trkpt>
      <trkpt lat="10.259653" lon="-67.807002">
        <ele>446.90</ele>
        <time>2022-10-26T12:09:45Z</time>
      </trkpt>
      <trkpt lat="10.259645" lon="-67.807049">
        <ele>446.90</ele>
        <time>2022-10-26T12:09:46Z</time>
      </trkpt>
      <trkpt lat="10.259636" lon="-67.807095">
        <ele>446.90</ele>
        <time>2022-10-26T12:09:47Z</time>
      </trkpt>
      <trkpt lat="10.259627" lon="-67.807143">
        <ele>446.90</ele>
        <time>2022-10-26T12:09:48Z</time>
      </trkpt>
      <trkpt lat="10.259619" lon="-67.807188">
        <ele>446.90</ele>
        <time>2022-10-26T12:09:49Z</time>
      </trkpt>
      <trkpt lat="10.259612" lon="-67.807231">
        <ele>446.90</ele>
        <time>2022-10-26T12:09:50Z</time>
      </trkpt>
      <trkpt lat="10.259605" lon="-67.807276">
        <ele>446.90</ele>
        <time>2022-10-26T12:09:51Z</time>
      </trkpt>
      <trkpt lat="10.259598" lon="-67.807320">
        <ele>446.90</ele>
        <time>2022-10-26T12:09:52Z</time>
      </trkpt>
      <trkpt lat="10.259592" lon="-67.807365">
        <ele>446.90</ele>
        <time>2022-10-26T12:09:53Z</time>
      </trkpt>
      <trkpt lat="10.259586" lon="-67.807409">
        <ele>446.90</ele>
        <time>2022-10-26T12:09:54Z</time>
      </trkpt>
      <trkpt lat="10.259581" lon="-67.807455">
        <ele>446.90</ele>
        <time>2022-10-26T12:09:55Z</time>
      </trkpt>
      <trkpt lat="10.259576" lon="-67.807501">
        <ele>446.90</ele>
        <time>2022-10-26T12:09:56Z</time>
      </trkpt>
      <trkpt lat="10.259568" lon="-67.807545">
        <ele>446.80</ele>
        <time>2022-10-26T12:09:57Z</time>
      </trkpt>
      <trkpt lat="10.259559" lon="-67.807592">
        <ele>446.80</ele>
        <time>2022-10-26T12:09:58Z</time>
      </trkpt>
      <trkpt lat="10.259554" lon="-67.807638">
        <ele>446.80</ele>
        <time>2022-10-26T12:09:59Z</time>
      </trkpt>
      <trkpt lat="10.259549" lon="-67.807689">
        <ele>446.80</ele>
        <time>2022-10-26T12:10:00Z</time>
      </trkpt>
      <trkpt lat="10.259542" lon="-67.807741">
        <ele>446.80</ele>
        <time>2022-10-26T12:10:01Z</time>
      </trkpt>
      <trkpt lat="10.259534" lon="-67.807797">
        <ele>446.80</ele>
        <time>2022-10-26T12:10:02Z</time>
      </trkpt>
      <trkpt lat="10.259524" lon="-67.807851">
        <ele>446.80</ele>
        <time>2022-10-26T12:10:03Z</time>
      </trkpt>
      <trkpt lat="10.259515" lon="-67.807901">
        <ele>446.80</ele>
        <time>2022-10-26T12:10:04Z</time>
      </trkpt>
      <trkpt lat="10.259505" lon="-67.807952">
        <ele>446.80</ele>
        <time>2022-10-26T12:10:05Z</time>
      </trkpt>
      <trkpt lat="10.259491" lon="-67.808004">
        <ele>446.80</ele>
        <time>2022-10-26T12:10:06Z</time>
      </trkpt>
      <trkpt lat="10.259479" lon="-67.808056">
        <ele>446.80</ele>
        <time>2022-10-26T12:10:07Z</time>
      </trkpt>
      <trkpt lat="10.259469" lon="-67.808103">
        <ele>446.80</ele>
        <time>2022-10-26T12:10:08Z</time>
      </trkpt>
      <trkpt lat="10.259457" lon="-67.808150">
        <ele>446.80</ele>
        <time>2022-10-26T12:10:09Z</time>
      </trkpt>
      <trkpt lat="10.259448" lon="-67.808195">
        <ele>446.80</ele>
        <time>2022-10-26T12:10:10Z</time>
      </trkpt>
      <trkpt lat="10.259438" lon="-67.808242">
        <ele>446.80</ele>
        <time>2022-10-26T12:10:11Z</time>
      </trkpt>
      <trkpt lat="10.259426" lon="-67.808290">
        <ele>446.80</ele>
        <time>2022-10-26T12:10:12Z</time>
      </trkpt>
      <trkpt lat="10.259412" lon="-67.808337">
        <ele>446.80</ele>
        <time>2022-10-26T12:10:13Z</time>
      </trkpt>
      <trkpt lat="10.259400" lon="-67.808381">
        <ele>446.80</ele>
        <time>2022-10-26T12:10:14Z</time>
      </trkpt>
      <trkpt lat="10.259389" lon="-67.808430">
        <ele>446.80</ele>
        <time>2022-10-26T12:10:15Z</time>
      </trkpt>
      <trkpt lat="10.259382" lon="-67.808478">
        <ele>446.80</ele>
        <time>2022-10-26T12:10:16Z</time>
      </trkpt>
      <trkpt lat="10.259375" lon="-67.808528">
        <ele>446.80</ele>
        <time>2022-10-26T12:10:17Z</time>
      </trkpt>
      <trkpt lat="10.259367" lon="-67.808570">
        <ele>446.80</ele>
        <time>2022-10-26T12:10:18Z</time>
      </trkpt>
      <trkpt lat="10.259356" lon="-67.808615">
        <ele>446.80</ele>
        <time>2022-10-26T12:10:19Z</time>
      </trkpt>
      <trkpt lat="10.259343" lon="-67.808663">
        <ele>446.80</ele>
        <time>2022-10-26T12:10:20Z</time>
      </trkpt>
      <trkpt lat="10.259330" lon="-67.808708">
        <ele>446.80</ele>
        <time>2022-10-26T12:10:21Z</time>
      </trkpt>
      <trkpt lat="10.259317" lon="-67.808754">
        <ele>446.80</ele>
        <time>2022-10-26T12:10:22Z</time>
      </trkpt>
      <trkpt lat="10.259302" lon="-67.808802">
        <ele>446.80</ele>
        <time>2022-10-26T12:10:23Z</time>
      </trkpt>
      <trkpt lat="10.259292" lon="-67.808849">
        <ele>446.70</ele>
        <time>2022-10-26T12:10:24Z</time>
      </trkpt>
      <trkpt lat="10.259284" lon="-67.808895">
        <ele>446.70</ele>
        <time>2022-10-26T12:10:25Z</time>
      </trkpt>
      <trkpt lat="10.259275" lon="-67.808944">
        <ele>446.70</ele>
        <time>2022-10-26T12:10:26Z</time>
      </trkpt>
      <trkpt lat="10.259267" lon="-67.808992">
        <ele>446.70</ele>
        <time>2022-10-26T12:10:27Z</time>
      </trkpt>
      <trkpt lat="10.259260" lon="-67.809038">
        <ele>446.70</ele>
        <time>2022-10-26T12:10:28Z</time>
      </trkpt>
      <trkpt lat="10.259252" lon="-67.809085">
        <ele>446.70</ele>
        <time>2022-10-26T12:10:29Z</time>
      </trkpt>
      <trkpt lat="10.259243" lon="-67.809132">
        <ele>446.70</ele>
        <time>2022-10-26T12:10:30Z</time>
      </trkpt>
      <trkpt lat="10.259235" lon="-67.809180">
        <ele>446.70</ele>
        <time>2022-10-26T12:10:31Z</time>
      </trkpt>
      <trkpt lat="10.259228" lon="-67.809226">
        <ele>446.70</ele>
        <time>2022-10-26T12:10:32Z</time>
      </trkpt>
      <trkpt lat="10.259220" lon="-67.809275">
        <ele>446.70</ele>
        <time>2022-10-26T12:10:33Z</time>
      </trkpt>
      <trkpt lat="10.259210" lon="-67.809323">
        <ele>446.70</ele>
        <time>2022-10-26T12:10:34Z</time>
      </trkpt>
      <trkpt lat="10.259199" lon="-67.809373">
        <ele>446.70</ele>
        <time>2022-10-26T12:10:35Z</time>
      </trkpt>
      <trkpt lat="10.259188" lon="-67.809423">
        <ele>446.70</ele>
        <time>2022-10-26T12:10:36Z</time>
      </trkpt>
      <trkpt lat="10.259179" lon="-67.809473">
        <ele>446.70</ele>
        <time>2022-10-26T12:10:37Z</time>
      </trkpt>
      <trkpt lat="10.259169" lon="-67.809521">
        <ele>446.70</ele>
        <time>2022-10-26T12:10:38Z</time>
      </trkpt>
      <trkpt lat="10.259161" lon="-67.809569">
        <ele>446.70</ele>
        <time>2022-10-26T12:10:39Z</time>
      </trkpt>
      <trkpt lat="10.259154" lon="-67.809614">
        <ele>446.70</ele>
        <time>2022-10-26T12:10:40Z</time>
      </trkpt>
      <trkpt lat="10.259148" lon="-67.809659">
        <ele>446.70</ele>
        <time>2022-10-26T12:10:41Z</time>
      </trkpt>
      <trkpt lat="10.259141" lon="-67.809701">
        <ele>446.70</ele>
        <time>2022-10-26T12:10:42Z</time>
      </trkpt>
      <trkpt lat="10.259136" lon="-67.809743">
        <ele>446.70</ele>
        <time>2022-10-26T12:10:43Z</time>
      </trkpt>
      <trkpt lat="10.259131" lon="-67.809784">
        <ele>446.70</ele>
        <time>2022-10-26T12:10:44Z</time>
      </trkpt>
      <trkpt lat="10.259124" lon="-67.809823">
        <ele>446.70</ele>
        <time>2022-10-26T12:10:45Z</time>
      </trkpt>
      <trkpt lat="10.259115" lon="-67.809866">
        <ele>446.70</ele>
        <time>2022-10-26T12:10:46Z</time>
      </trkpt>
      <trkpt lat="10.259104" lon="-67.809914">
        <ele>446.70</ele>
        <time>2022-10-26T12:10:47Z</time>
      </trkpt>
      <trkpt lat="10.259093" lon="-67.809964">
        <ele>446.70</ele>
        <time>2022-10-26T12:10:48Z</time>
      </trkpt>
      <trkpt lat="10.259082" lon="-67.810015">
        <ele>446.70</ele>
        <time>2022-10-26T12:10:49Z</time>
      </trkpt>
      <trkpt lat="10.259072" lon="-67.810067">
        <ele>446.70</ele>
        <time>2022-10-26T12:10:50Z</time>
      </trkpt>
      <trkpt lat="10.259063" lon="-67.810118">
        <ele>446.70</ele>
        <time>2022-10-26T12:10:51Z</time>
      </trkpt>
      <trkpt lat="10.259054" lon="-67.810166">
        <ele>446.70</ele>
        <time>2022-10-26T12:10:52Z</time>
      </trkpt>
      <trkpt lat="10.259045" lon="-67.810214">
        <ele>446.80</ele>
        <time>2022-10-26T12:10:53Z</time>
      </trkpt>
      <trkpt lat="10.259036" lon="-67.810259">
        <ele>446.80</ele>
        <time>2022-10-26T12:10:54Z</time>
      </trkpt>
      <trkpt lat="10.259026" lon="-67.810305">
        <ele>446.80</ele>
        <time>2022-10-26T12:10:55Z</time>
      </trkpt>
      <trkpt lat="10.259021" lon="-67.810353">
        <ele>446.80</ele>
        <time>2022-10-26T12:10:56Z</time>
      </trkpt>
      <trkpt lat="10.259014" lon="-67.810404">
        <ele>446.80</ele>
        <time>2022-10-26T12:10:57Z</time>
      </trkpt>
      <trkpt lat="10.259005" lon="-67.810453">
        <ele>446.80</ele>
        <time>2022-10-26T12:10:58Z</time>
      </trkpt>
      <trkpt lat="10.258999" lon="-67.810500">
        <ele>446.80</ele>
        <time>2022-10-26T12:10:59Z</time>
      </trkpt>
      <trkpt lat="10.258992" lon="-67.810547">
        <ele>446.80</ele>
        <time>2022-10-26T12:11:00Z</time>
      </trkpt>
      <trkpt lat="10.258983" lon="-67.810595">
        <ele>446.80</ele>
        <time>2022-10-26T12:11:01Z</time>
      </trkpt>
      <trkpt lat="10.258973" lon="-67.810641">
        <ele>446.80</ele>
        <time>2022-10-26T12:11:02Z</time>
      </trkpt>
      <trkpt lat="10.258963" lon="-67.810688">
        <ele>446.80</ele>
        <time>2022-10-26T12:11:03Z</time>
      </trkpt>
      <trkpt lat="10.258956" lon="-67.810734">
        <ele>446.90</ele>
        <time>2022-10-26T12:11:04Z</time>
      </trkpt>
      <trkpt lat="10.258950" lon="-67.810783">
        <ele>446.90</ele>
        <time>2022-10-26T12:11:05Z</time>
      </trkpt>
      <trkpt lat="10.258942" lon="-67.810832">
        <ele>446.80</ele>
        <time>2022-10-26T12:11:06Z</time>
      </trkpt>
      <trkpt lat="10.258931" lon="-67.810883">
        <ele>446.80</ele>
        <time>2022-10-26T12:11:07Z</time>
      </trkpt>
      <trkpt lat="10.258922" lon="-67.810933">
        <ele>446.80</ele>
        <time>2022-10-26T12:11:08Z</time>
      </trkpt>
      <trkpt lat="10.258912" lon="-67.810984">
        <ele>446.80</ele>
        <time>2022-10-26T12:11:09Z</time>
      </trkpt>
      <trkpt lat="10.258903" lon="-67.811034">
        <ele>446.80</ele>
        <time>2022-10-26T12:11:10Z</time>
      </trkpt>
      <trkpt lat="10.258892" lon="-67.811082">
        <ele>446.80</ele>
        <time>2022-10-26T12:11:11Z</time>
      </trkpt>
      <trkpt lat="10.258883" lon="-67.811129">
        <ele>446.70</ele>
        <time>2022-10-26T12:11:12Z</time>
      </trkpt>
      <trkpt lat="10.258875" lon="-67.811177">
        <ele>446.70</ele>
        <time>2022-10-26T12:11:13Z</time>
      </trkpt>
      <trkpt lat="10.258868" lon="-67.811226">
        <ele>446.70</ele>
        <time>2022-10-26T12:11:14Z</time>
      </trkpt>
      <trkpt lat="10.258857" lon="-67.811273">
        <ele>446.70</ele>
        <time>2022-10-26T12:11:15Z</time>
      </trkpt>
      <trkpt lat="10.258845" lon="-67.811316">
        <ele>446.70</ele>
        <time>2022-10-26T12:11:16Z</time>
      </trkpt>
      <trkpt lat="10.258833" lon="-67.811361">
        <ele>446.70</ele>
        <time>2022-10-26T12:11:17Z</time>
      </trkpt>
      <trkpt lat="10.258823" lon="-67.811404">
        <ele>446.70</ele>
        <time>2022-10-26T12:11:18Z</time>
      </trkpt>
      <trkpt lat="10.258812" lon="-67.811450">
        <ele>446.70</ele>
        <time>2022-10-26T12:11:19Z</time>
      </trkpt>
      <trkpt lat="10.258801" lon="-67.811496">
        <ele>446.60</ele>
        <time>2022-10-26T12:11:20Z</time>
      </trkpt>
      <trkpt lat="10.258788" lon="-67.811539">
        <ele>446.60</ele>
        <time>2022-10-26T12:11:21Z</time>
      </trkpt>
      <trkpt lat="10.258774" lon="-67.811584">
        <ele>446.60</ele>
        <time>2022-10-26T12:11:22Z</time>
      </trkpt>
      <trkpt lat="10.258766" lon="-67.811632">
        <ele>446.60</ele>
        <time>2022-10-26T12:11:23Z</time>
      </trkpt>
      <trkpt lat="10.258761" lon="-67.811682">
        <ele>446.50</ele>
        <time>2022-10-26T12:11:24Z</time>
      </trkpt>
      <trkpt lat="10.258757" lon="-67.811734">
        <ele>446.50</ele>
        <time>2022-10-26T12:11:25Z</time>
      </trkpt>
      <trkpt lat="10.258747" lon="-67.811788">
        <ele>446.50</ele>
        <time>2022-10-26T12:11:26Z</time>
      </trkpt>
      <trkpt lat="10.258734" lon="-67.811837">
        <ele>446.40</ele>
        <time>2022-10-26T12:11:27Z</time>
      </trkpt>
      <trkpt lat="10.258723" lon="-67.811886">
        <ele>446.40</ele>
        <time>2022-10-26T12:11:28Z</time>
      </trkpt>
      <trkpt lat="10.258711" lon="-67.811932">
        <ele>446.30</ele>
        <time>2022-10-26T12:11:29Z</time>
      </trkpt>
      <trkpt lat="10.258703" lon="-67.811980">
        <ele>446.30</ele>
        <time>2022-10-26T12:11:30Z</time>
      </trkpt>
      <trkpt lat="10.258697" lon="-67.812027">
        <ele>446.30</ele>
        <time>2022-10-26T12:11:31Z</time>
      </trkpt>
      <trkpt lat="10.258692" lon="-67.812073">
        <ele>446.20</ele>
        <time>2022-10-26T12:11:32Z</time>
      </trkpt>
      <trkpt lat="10.258681" lon="-67.812116">
        <ele>446.20</ele>
        <time>2022-10-26T12:11:33Z</time>
      </trkpt>
      <trkpt lat="10.258667" lon="-67.812164">
        <ele>446.20</ele>
        <time>2022-10-26T12:11:34Z</time>
      </trkpt>
      <trkpt lat="10.258654" lon="-67.812212">
        <ele>446.10</ele>
        <time>2022-10-26T12:11:35Z</time>
      </trkpt>
      <trkpt lat="10.258640" lon="-67.812257">
        <ele>446.10</ele>
        <time>2022-10-26T12:11:36Z</time>
      </trkpt>
      <trkpt lat="10.258628" lon="-67.812304">
        <ele>446.10</ele>
        <time>2022-10-26T12:11:37Z</time>
      </trkpt>
      <trkpt lat="10.258614" lon="-67.812351">
        <ele>446.00</ele>
        <time>2022-10-26T12:11:38Z</time>
      </trkpt>
      <trkpt lat="10.258604" lon="-67.812400">
        <ele>446.00</ele>
        <time>2022-10-26T12:11:39Z</time>
      </trkpt>
      <trkpt lat="10.258593" lon="-67.812453">
        <ele>446.00</ele>
        <time>2022-10-26T12:11:40Z</time>
      </trkpt>
      <trkpt lat="10.258580" lon="-67.812505">
        <ele>445.90</ele>
        <time>2022-10-26T12:11:41Z</time>
      </trkpt>
      <trkpt lat="10.258565" lon="-67.812556">
        <ele>445.90</ele>
        <time>2022-10-26T12:11:42Z</time>
      </trkpt>
      <trkpt lat="10.258551" lon="-67.812606">
        <ele>445.90</ele>
        <time>2022-10-26T12:11:43Z</time>
      </trkpt>
      <trkpt lat="10.258537" lon="-67.812654">
        <ele>445.80</ele>
        <time>2022-10-26T12:11:44Z</time>
      </trkpt>
      <trkpt lat="10.258526" lon="-67.812701">
        <ele>445.80</ele>
        <time>2022-10-26T12:11:45Z</time>
      </trkpt>
      <trkpt lat="10.258515" lon="-67.812750">
        <ele>445.80</ele>
        <time>2022-10-26T12:11:46Z</time>
      </trkpt>
      <trkpt lat="10.258504" lon="-67.812798">
        <ele>445.70</ele>
        <time>2022-10-26T12:11:47Z</time>
      </trkpt>
      <trkpt lat="10.258492" lon="-67.812849">
        <ele>445.70</ele>
        <time>2022-10-26T12:11:48Z</time>
      </trkpt>
      <trkpt lat="10.258480" lon="-67.812895">
        <ele>445.60</ele>
        <time>2022-10-26T12:11:49Z</time>
      </trkpt>
      <trkpt lat="10.258468" lon="-67.812942">
        <ele>445.60</ele>
        <time>2022-10-26T12:11:50Z</time>
      </trkpt>
      <trkpt lat="10.258455" lon="-67.812990">
        <ele>445.60</ele>
        <time>2022-10-26T12:11:51Z</time>
      </trkpt>
      <trkpt lat="10.258443" lon="-67.813041">
        <ele>445.50</ele>
        <time>2022-10-26T12:11:52Z</time>
      </trkpt>
      <trkpt lat="10.258431" lon="-67.813090">
        <ele>445.50</ele>
        <time>2022-10-26T12:11:53Z</time>
      </trkpt>
      <trkpt lat="10.258419" lon="-67.813141">
        <ele>445.50</ele>
        <time>2022-10-26T12:11:54Z</time>
      </trkpt>
      <trkpt lat="10.258409" lon="-67.813188">
        <ele>445.40</ele>
        <time>2022-10-26T12:11:55Z</time>
      </trkpt>
      <trkpt lat="10.258396" lon="-67.813236">
        <ele>445.40</ele>
        <time>2022-10-26T12:11:56Z</time>
      </trkpt>
      <trkpt lat="10.258388" lon="-67.813289">
        <ele>445.30</ele>
        <time>2022-10-26T12:11:57Z</time>
      </trkpt>
      <trkpt lat="10.258377" lon="-67.813342">
        <ele>445.30</ele>
        <time>2022-10-26T12:11:58Z</time>
      </trkpt>
      <trkpt lat="10.258365" lon="-67.813395">
        <ele>445.30</ele>
        <time>2022-10-26T12:11:59Z</time>
      </trkpt>
      <trkpt lat="10.258349" lon="-67.813451">
        <ele>445.20</ele>
        <time>2022-10-26T12:12:00Z</time>
      </trkpt>
      <trkpt lat="10.258334" lon="-67.813506">
        <ele>445.10</ele>
        <time>2022-10-26T12:12:01Z</time>
      </trkpt>
      <trkpt lat="10.258322" lon="-67.813562">
        <ele>445.10</ele>
        <time>2022-10-26T12:12:02Z</time>
      </trkpt>
      <trkpt lat="10.258310" lon="-67.813619">
        <ele>445.00</ele>
        <time>2022-10-26T12:12:03Z</time>
      </trkpt>
      <trkpt lat="10.258298" lon="-67.813675">
        <ele>445.00</ele>
        <time>2022-10-26T12:12:04Z</time>
      </trkpt>
      <trkpt lat="10.258291" lon="-67.813730">
        <ele>444.90</ele>
        <time>2022-10-26T12:12:05Z</time>
      </trkpt>
      <trkpt lat="10.258280" lon="-67.813784">
        <ele>444.90</ele>
        <time>2022-10-26T12:12:06Z</time>
      </trkpt>
      <trkpt lat="10.258266" lon="-67.813838">
        <ele>444.80</ele>
        <time>2022-10-26T12:12:07Z</time>
      </trkpt>
      <trkpt lat="10.258249" lon="-67.813891">
        <ele>444.70</ele>
        <time>2022-10-26T12:12:08Z</time>
      </trkpt>
      <trkpt lat="10.258232" lon="-67.813944">
        <ele>444.70</ele>
        <time>2022-10-26T12:12:09Z</time>
      </trkpt>
      <trkpt lat="10.258212" lon="-67.814002">
        <ele>444.60</ele>
        <time>2022-10-26T12:12:10Z</time>
      </trkpt>
      <trkpt lat="10.258200" lon="-67.814054">
        <ele>444.50</ele>
        <time>2022-10-26T12:12:11Z</time>
      </trkpt>
      <trkpt lat="10.258188" lon="-67.814111">
        <ele>444.40</ele>
        <time>2022-10-26T12:12:12Z</time>
      </trkpt>
      <trkpt lat="10.258175" lon="-67.814161">
        <ele>444.40</ele>
        <time>2022-10-26T12:12:13Z</time>
      </trkpt>
      <trkpt lat="10.258160" lon="-67.814213">
        <ele>444.30</ele>
        <time>2022-10-26T12:12:14Z</time>
      </trkpt>
      <trkpt lat="10.258147" lon="-67.814262">
        <ele>444.30</ele>
        <time>2022-10-26T12:12:15Z</time>
      </trkpt>
      <trkpt lat="10.258131" lon="-67.814314">
        <ele>444.20</ele>
        <time>2022-10-26T12:12:16Z</time>
      </trkpt>
      <trkpt lat="10.258115" lon="-67.814363">
        <ele>444.10</ele>
        <time>2022-10-26T12:12:17Z</time>
      </trkpt>
      <trkpt lat="10.258091" lon="-67.814419">
        <ele>444.10</ele>
        <time>2022-10-26T12:12:18Z</time>
      </trkpt>
      <trkpt lat="10.258066" lon="-67.814475">
        <ele>444.00</ele>
        <time>2022-10-26T12:12:19Z</time>
      </trkpt>
      <trkpt lat="10.258040" lon="-67.814535">
        <ele>443.90</ele>
        <time>2022-10-26T12:12:20Z</time>
      </trkpt>
      <trkpt lat="10.258019" lon="-67.814587">
        <ele>443.80</ele>
        <time>2022-10-26T12:12:21Z</time>
      </trkpt>
      <trkpt lat="10.258001" lon="-67.814641">
        <ele>443.80</ele>
        <time>2022-10-26T12:12:22Z</time>
      </trkpt>
      <trkpt lat="10.257986" lon="-67.814697">
        <ele>443.70</ele>
        <time>2022-10-26T12:12:23Z</time>
      </trkpt>
      <trkpt lat="10.257975" lon="-67.814755">
        <ele>443.70</ele>
        <time>2022-10-26T12:12:24Z</time>
      </trkpt>
      <trkpt lat="10.257964" lon="-67.814813">
        <ele>443.60</ele>
        <time>2022-10-26T12:12:25Z</time>
      </trkpt>
      <trkpt lat="10.257950" lon="-67.814873">
        <ele>443.50</ele>
        <time>2022-10-26T12:12:26Z</time>
      </trkpt>
      <trkpt lat="10.257938" lon="-67.814932">
        <ele>443.50</ele>
        <time>2022-10-26T12:12:27Z</time>
      </trkpt>
      <trkpt lat="10.257922" lon="-67.814994">
        <ele>443.40</ele>
        <time>2022-10-26T12:12:28Z</time>
      </trkpt>
      <trkpt lat="10.257905" lon="-67.815057">
        <ele>443.40</ele>
        <time>2022-10-26T12:12:29Z</time>
      </trkpt>
      <trkpt lat="10.257886" lon="-67.815122">
        <ele>443.30</ele>
        <time>2022-10-26T12:12:30Z</time>
      </trkpt>
      <trkpt lat="10.257872" lon="-67.815184">
        <ele>443.30</ele>
        <time>2022-10-26T12:12:31Z</time>
      </trkpt>
      <trkpt lat="10.257856" lon="-67.815247">
        <ele>443.20</ele>
        <time>2022-10-26T12:12:32Z</time>
      </trkpt>
      <trkpt lat="10.257843" lon="-67.815311">
        <ele>443.20</ele>
        <time>2022-10-26T12:12:33Z</time>
      </trkpt>
      <trkpt lat="10.257829" lon="-67.815374">
        <ele>443.10</ele>
        <time>2022-10-26T12:12:34Z</time>
      </trkpt>
      <trkpt lat="10.257813" lon="-67.815434">
        <ele>443.10</ele>
        <time>2022-10-26T12:12:35Z</time>
      </trkpt>
      <trkpt lat="10.257795" lon="-67.815495">
        <ele>443.00</ele>
        <time>2022-10-26T12:12:36Z</time>
      </trkpt>
      <trkpt lat="10.257779" lon="-67.815551">
        <ele>443.00</ele>
        <time>2022-10-26T12:12:37Z</time>
      </trkpt>
      <trkpt lat="10.257762" lon="-67.815608">
        <ele>442.90</ele>
        <time>2022-10-26T12:12:38Z</time>
      </trkpt>
      <trkpt lat="10.257746" lon="-67.815666">
        <ele>442.90</ele>
        <time>2022-10-26T12:12:39Z</time>
      </trkpt>
      <trkpt lat="10.257731" lon="-67.815725">
        <ele>442.90</ele>
        <time>2022-10-26T12:12:40Z</time>
      </trkpt>
      <trkpt lat="10.257715" lon="-67.815782">
        <ele>442.80</ele>
        <time>2022-10-26T12:12:41Z</time>
      </trkpt>
      <trkpt lat="10.257695" lon="-67.815842">
        <ele>442.70</ele>
        <time>2022-10-26T12:12:42Z</time>
      </trkpt>
      <trkpt lat="10.257676" lon="-67.815899">
        <ele>442.70</ele>
        <time>2022-10-26T12:12:43Z</time>
      </trkpt>
      <trkpt lat="10.257656" lon="-67.815953">
        <ele>442.60</ele>
        <time>2022-10-26T12:12:44Z</time>
      </trkpt>
      <trkpt lat="10.257638" lon="-67.816003">
        <ele>442.60</ele>
        <time>2022-10-26T12:12:45Z</time>
      </trkpt>
      <trkpt lat="10.257627" lon="-67.816052">
        <ele>442.50</ele>
        <time>2022-10-26T12:12:46Z</time>
      </trkpt>
      <trkpt lat="10.257618" lon="-67.816101">
        <ele>442.50</ele>
        <time>2022-10-26T12:12:47Z</time>
      </trkpt>
      <trkpt lat="10.257612" lon="-67.816151">
        <ele>442.40</ele>
        <time>2022-10-26T12:12:48Z</time>
      </trkpt>
      <trkpt lat="10.257604" lon="-67.816200">
        <ele>442.40</ele>
        <time>2022-10-26T12:12:49Z</time>
      </trkpt>
      <trkpt lat="10.257592" lon="-67.816253">
        <ele>442.30</ele>
        <time>2022-10-26T12:12:50Z</time>
      </trkpt>
      <trkpt lat="10.257577" lon="-67.816305">
        <ele>442.20</ele>
        <time>2022-10-26T12:12:51Z</time>
      </trkpt>
      <trkpt lat="10.257562" lon="-67.816358">
        <ele>442.20</ele>
        <time>2022-10-26T12:12:52Z</time>
      </trkpt>
      <trkpt lat="10.257547" lon="-67.816411">
        <ele>442.10</ele>
        <time>2022-10-26T12:12:53Z</time>
      </trkpt>
      <trkpt lat="10.257532" lon="-67.816467">
        <ele>442.10</ele>
        <time>2022-10-26T12:12:54Z</time>
      </trkpt>
      <trkpt lat="10.257515" lon="-67.816521">
        <ele>442.00</ele>
        <time>2022-10-26T12:12:55Z</time>
      </trkpt>
      <trkpt lat="10.257499" lon="-67.816578">
        <ele>442.00</ele>
        <time>2022-10-26T12:12:56Z</time>
      </trkpt>
      <trkpt lat="10.257483" lon="-67.816635">
        <ele>441.90</ele>
        <time>2022-10-26T12:12:57Z</time>
      </trkpt>
      <trkpt lat="10.257467" lon="-67.816695">
        <ele>441.90</ele>
        <time>2022-10-26T12:12:58Z</time>
      </trkpt>
      <trkpt lat="10.257453" lon="-67.816750">
        <ele>441.80</ele>
        <time>2022-10-26T12:12:59Z</time>
      </trkpt>
      <trkpt lat="10.257439" lon="-67.816804">
        <ele>441.80</ele>
        <time>2022-10-26T12:13:00Z</time>
      </trkpt>
      <trkpt lat="10.257430" lon="-67.816858">
        <ele>441.70</ele>
        <time>2022-10-26T12:13:01Z</time>
      </trkpt>
      <trkpt lat="10.257415" lon="-67.816915">
        <ele>441.60</ele>
        <time>2022-10-26T12:13:02Z</time>
      </trkpt>
      <trkpt lat="10.257401" lon="-67.816968">
        <ele>441.60</ele>
        <time>2022-10-26T12:13:03Z</time>
      </trkpt>
      <trkpt lat="10.257387" lon="-67.817021">
        <ele>441.50</ele>
        <time>2022-10-26T12:13:04Z</time>
      </trkpt>
      <trkpt lat="10.257372" lon="-67.817075">
        <ele>441.50</ele>
        <time>2022-10-26T12:13:05Z</time>
      </trkpt>
      <trkpt lat="10.257359" lon="-67.817129">
        <ele>441.40</ele>
        <time>2022-10-26T12:13:06Z</time>
      </trkpt>
      <trkpt lat="10.257345" lon="-67.817185">
        <ele>441.40</ele>
        <time>2022-10-26T12:13:07Z</time>
      </trkpt>
      <trkpt lat="10.257331" lon="-67.817240">
        <ele>441.30</ele>
        <time>2022-10-26T12:13:08Z</time>
      </trkpt>
      <trkpt lat="10.257319" lon="-67.817293">
        <ele>441.30</ele>
        <time>2022-10-26T12:13:09Z</time>
      </trkpt>
      <trkpt lat="10.257304" lon="-67.817344">
        <ele>441.20</ele>
        <time>2022-10-26T12:13:10Z</time>
      </trkpt>
      <trkpt lat="10.257290" lon="-67.817393">
        <ele>441.20</ele>
        <time>2022-10-26T12:13:11Z</time>
      </trkpt>
      <trkpt lat="10.257278" lon="-67.817444">
        <ele>441.10</ele>
        <time>2022-10-26T12:13:12Z</time>
      </trkpt>
      <trkpt lat="10.257265" lon="-67.817495">
        <ele>441.10</ele>
        <time>2022-10-26T12:13:13Z</time>
      </trkpt>
      <trkpt lat="10.257249" lon="-67.817548">
        <ele>441.10</ele>
        <time>2022-10-26T12:13:14Z</time>
      </trkpt>
      <trkpt lat="10.257233" lon="-67.817602">
        <ele>441.00</ele>
        <time>2022-10-26T12:13:15Z</time>
      </trkpt>
      <trkpt lat="10.257215" lon="-67.817659">
        <ele>441.00</ele>
        <time>2022-10-26T12:13:16Z</time>
      </trkpt>
      <trkpt lat="10.257198" lon="-67.817716">
        <ele>440.90</ele>
        <time>2022-10-26T12:13:17Z</time>
      </trkpt>
      <trkpt lat="10.257183" lon="-67.817774">
        <ele>440.90</ele>
        <time>2022-10-26T12:13:18Z</time>
      </trkpt>
      <trkpt lat="10.257167" lon="-67.817836">
        <ele>440.80</ele>
        <time>2022-10-26T12:13:19Z</time>
      </trkpt>
      <trkpt lat="10.257153" lon="-67.817896">
        <ele>440.80</ele>
        <time>2022-10-26T12:13:20Z</time>
      </trkpt>
      <trkpt lat="10.257143" lon="-67.817954">
        <ele>440.70</ele>
        <time>2022-10-26T12:13:21Z</time>
      </trkpt>
      <trkpt lat="10.257129" lon="-67.818008">
        <ele>440.70</ele>
        <time>2022-10-26T12:13:22Z</time>
      </trkpt>
      <trkpt lat="10.257116" lon="-67.818061">
        <ele>440.60</ele>
        <time>2022-10-26T12:13:23Z</time>
      </trkpt>
      <trkpt lat="10.257103" lon="-67.818112">
        <ele>440.60</ele>
        <time>2022-10-26T12:13:24Z</time>
      </trkpt>
      <trkpt lat="10.257088" lon="-67.818164">
        <ele>440.50</ele>
        <time>2022-10-26T12:13:25Z</time>
      </trkpt>
      <trkpt lat="10.257075" lon="-67.818213">
        <ele>440.40</ele>
        <time>2022-10-26T12:13:26Z</time>
      </trkpt>
      <trkpt lat="10.257062" lon="-67.818264">
        <ele>440.40</ele>
        <time>2022-10-26T12:13:27Z</time>
      </trkpt>
      <trkpt lat="10.257051" lon="-67.818316">
        <ele>440.30</ele>
        <time>2022-10-26T12:13:28Z</time>
      </trkpt>
      <trkpt lat="10.257038" lon="-67.818371">
        <ele>440.30</ele>
        <time>2022-10-26T12:13:29Z</time>
      </trkpt>
      <trkpt lat="10.257023" lon="-67.818426">
        <ele>440.30</ele>
        <time>2022-10-26T12:13:30Z</time>
      </trkpt>
      <trkpt lat="10.257009" lon="-67.818483">
        <ele>440.20</ele>
        <time>2022-10-26T12:13:31Z</time>
      </trkpt>
      <trkpt lat="10.256996" lon="-67.818539">
        <ele>440.10</ele>
        <time>2022-10-26T12:13:32Z</time>
      </trkpt>
      <trkpt lat="10.256982" lon="-67.818599">
        <ele>440.10</ele>
        <time>2022-10-26T12:13:33Z</time>
      </trkpt>
      <trkpt lat="10.256970" lon="-67.818661">
        <ele>440.00</ele>
        <time>2022-10-26T12:13:34Z</time>
      </trkpt>
      <trkpt lat="10.256956" lon="-67.818717">
        <ele>440.00</ele>
        <time>2022-10-26T12:13:35Z</time>
      </trkpt>
      <trkpt lat="10.256941" lon="-67.818770">
        <ele>439.90</ele>
        <time>2022-10-26T12:13:36Z</time>
      </trkpt>
      <trkpt lat="10.256926" lon="-67.818822">
        <ele>439.90</ele>
        <time>2022-10-26T12:13:37Z</time>
      </trkpt>
      <trkpt lat="10.256912" lon="-67.818873">
        <ele>439.80</ele>
        <time>2022-10-26T12:13:38Z</time>
      </trkpt>
      <trkpt lat="10.256896" lon="-67.818923">
        <ele>439.80</ele>
        <time>2022-10-26T12:13:39Z</time>
      </trkpt>
      <trkpt lat="10.256880" lon="-67.818976">
        <ele>439.70</ele>
        <time>2022-10-26T12:13:40Z</time>
      </trkpt>
      <trkpt lat="10.256860" lon="-67.819033">
        <ele>439.70</ele>
        <time>2022-10-26T12:13:41Z</time>
      </trkpt>
      <trkpt lat="10.256842" lon="-67.819090">
        <ele>439.70</ele>
        <time>2022-10-26T12:13:42Z</time>
      </trkpt>
      <trkpt lat="10.256828" lon="-67.819147">
        <ele>439.60</ele>
        <time>2022-10-26T12:13:43Z</time>
      </trkpt>
      <trkpt lat="10.256815" lon="-67.819202">
        <ele>439.60</ele>
        <time>2022-10-26T12:13:44Z</time>
      </trkpt>
      <trkpt lat="10.256802" lon="-67.819257">
        <ele>439.50</ele>
        <time>2022-10-26T12:13:45Z</time>
      </trkpt>
      <trkpt lat="10.256788" lon="-67.819312">
        <ele>439.40</ele>
        <time>2022-10-26T12:13:46Z</time>
      </trkpt>
      <trkpt lat="10.256778" lon="-67.819367">
        <ele>439.40</ele>
        <time>2022-10-26T12:13:47Z</time>
      </trkpt>
      <trkpt lat="10.256766" lon="-67.819422">
        <ele>439.30</ele>
        <time>2022-10-26T12:13:48Z</time>
      </trkpt>
      <trkpt lat="10.256753" lon="-67.819476">
        <ele>439.30</ele>
        <time>2022-10-26T12:13:49Z</time>
      </trkpt>
      <trkpt lat="10.256739" lon="-67.819531">
        <ele>439.20</ele>
        <time>2022-10-26T12:13:50Z</time>
      </trkpt>
      <trkpt lat="10.256723" lon="-67.819589">
        <ele>439.10</ele>
        <time>2022-10-26T12:13:51Z</time>
      </trkpt>
      <trkpt lat="10.256709" lon="-67.819648">
        <ele>439.00</ele>
        <time>2022-10-26T12:13:52Z</time>
      </trkpt>
      <trkpt lat="10.256695" lon="-67.819706">
        <ele>438.90</ele>
        <time>2022-10-26T12:13:53Z</time>
      </trkpt>
      <trkpt lat="10.256677" lon="-67.819764">
        <ele>438.90</ele>
        <time>2022-10-26T12:13:54Z</time>
      </trkpt>
      <trkpt lat="10.256661" lon="-67.819818">
        <ele>438.80</ele>
        <time>2022-10-26T12:13:55Z</time>
      </trkpt>
      <trkpt lat="10.256644" lon="-67.819871">
        <ele>438.70</ele>
        <time>2022-10-26T12:13:56Z</time>
      </trkpt>
      <trkpt lat="10.256629" lon="-67.819923">
        <ele>438.70</ele>
        <time>2022-10-26T12:13:57Z</time>
      </trkpt>
      <trkpt lat="10.256612" lon="-67.819977">
        <ele>438.60</ele>
        <time>2022-10-26T12:13:58Z</time>
      </trkpt>
      <trkpt lat="10.256592" lon="-67.820033">
        <ele>438.50</ele>
        <time>2022-10-26T12:13:59Z</time>
      </trkpt>
      <trkpt lat="10.256571" lon="-67.820090">
        <ele>438.50</ele>
        <time>2022-10-26T12:14:00Z</time>
      </trkpt>
      <trkpt lat="10.256551" lon="-67.820142">
        <ele>438.40</ele>
        <time>2022-10-26T12:14:01Z</time>
      </trkpt>
      <trkpt lat="10.256533" lon="-67.820199">
        <ele>438.40</ele>
        <time>2022-10-26T12:14:02Z</time>
      </trkpt>
      <trkpt lat="10.256516" lon="-67.820253">
        <ele>438.30</ele>
        <time>2022-10-26T12:14:03Z</time>
      </trkpt>
      <trkpt lat="10.256501" lon="-67.820308">
        <ele>438.30</ele>
        <time>2022-10-26T12:14:04Z</time>
      </trkpt>
      <trkpt lat="10.256487" lon="-67.820362">
        <ele>438.20</ele>
        <time>2022-10-26T12:14:05Z</time>
      </trkpt>
      <trkpt lat="10.256474" lon="-67.820415">
        <ele>438.10</ele>
        <time>2022-10-26T12:14:06Z</time>
      </trkpt>
      <trkpt lat="10.256461" lon="-67.820469">
        <ele>438.10</ele>
        <time>2022-10-26T12:14:07Z</time>
      </trkpt>
      <trkpt lat="10.256448" lon="-67.820522">
        <ele>438.00</ele>
        <time>2022-10-26T12:14:08Z</time>
      </trkpt>
      <trkpt lat="10.256438" lon="-67.820579">
        <ele>437.90</ele>
        <time>2022-10-26T12:14:09Z</time>
      </trkpt>
      <trkpt lat="10.256430" lon="-67.820637">
        <ele>437.80</ele>
        <time>2022-10-26T12:14:10Z</time>
      </trkpt>
      <trkpt lat="10.256421" lon="-67.820694">
        <ele>437.80</ele>
        <time>2022-10-26T12:14:11Z</time>
      </trkpt>
      <trkpt lat="10.256414" lon="-67.820749">
        <ele>437.70</ele>
        <time>2022-10-26T12:14:12Z</time>
      </trkpt>
      <trkpt lat="10.256403" lon="-67.820803">
        <ele>437.70</ele>
        <time>2022-10-26T12:14:13Z</time>
      </trkpt>
      <trkpt lat="10.256389" lon="-67.820854">
        <ele>437.60</ele>
        <time>2022-10-26T12:14:14Z</time>
      </trkpt>
      <trkpt lat="10.256370" lon="-67.820903">
        <ele>437.50</ele>
        <time>2022-10-26T12:14:15Z</time>
      </trkpt>
      <trkpt lat="10.256348" lon="-67.820948">
        <ele>437.50</ele>
        <time>2022-10-26T12:14:16Z</time>
      </trkpt>
      <trkpt lat="10.256335" lon="-67.820997">
        <ele>437.50</ele>
        <time>2022-10-26T12:14:17Z</time>
      </trkpt>
      <trkpt lat="10.256326" lon="-67.821050">
        <ele>437.40</ele>
        <time>2022-10-26T12:14:18Z</time>
      </trkpt>
      <trkpt lat="10.256319" lon="-67.821108">
        <ele>437.40</ele>
        <time>2022-10-26T12:14:19Z</time>
      </trkpt>
      <trkpt lat="10.256311" lon="-67.821164">
        <ele>437.30</ele>
        <time>2022-10-26T12:14:20Z</time>
      </trkpt>
      <trkpt lat="10.256302" lon="-67.821222">
        <ele>437.30</ele>
        <time>2022-10-26T12:14:21Z</time>
      </trkpt>
      <trkpt lat="10.256292" lon="-67.821280">
        <ele>437.20</ele>
        <time>2022-10-26T12:14:22Z</time>
      </trkpt>
      <trkpt lat="10.256283" lon="-67.821340">
        <ele>437.10</ele>
        <time>2022-10-26T12:14:23Z</time>
      </trkpt>
      <trkpt lat="10.256270" lon="-67.821398">
        <ele>437.00</ele>
        <time>2022-10-26T12:14:24Z</time>
      </trkpt>
      <trkpt lat="10.256253" lon="-67.821456">
        <ele>436.90</ele>
        <time>2022-10-26T12:14:25Z</time>
      </trkpt>
      <trkpt lat="10.256235" lon="-67.821510">
        <ele>436.80</ele>
        <time>2022-10-26T12:14:26Z</time>
      </trkpt>
      <trkpt lat="10.256214" lon="-67.821561">
        <ele>436.70</ele>
        <time>2022-10-26T12:14:27Z</time>
      </trkpt>
      <trkpt lat="10.256197" lon="-67.821610">
        <ele>436.60</ele>
        <time>2022-10-26T12:14:28Z</time>
      </trkpt>
      <trkpt lat="10.256179" lon="-67.821659">
        <ele>436.50</ele>
        <time>2022-10-26T12:14:29Z</time>
      </trkpt>
      <trkpt lat="10.256160" lon="-67.821713">
        <ele>436.40</ele>
        <time>2022-10-26T12:14:30Z</time>
      </trkpt>
      <trkpt lat="10.256144" lon="-67.821766">
        <ele>436.30</ele>
        <time>2022-10-26T12:14:31Z</time>
      </trkpt>
      <trkpt lat="10.256131" lon="-67.821820">
        <ele>436.30</ele>
        <time>2022-10-26T12:14:32Z</time>
      </trkpt>
      <trkpt lat="10.256119" lon="-67.821873">
        <ele>436.20</ele>
        <time>2022-10-26T12:14:33Z</time>
      </trkpt>
      <trkpt lat="10.256108" lon="-67.821926">
        <ele>436.10</ele>
        <time>2022-10-26T12:14:34Z</time>
      </trkpt>
      <trkpt lat="10.256098" lon="-67.821979">
        <ele>436.10</ele>
        <time>2022-10-26T12:14:35Z</time>
      </trkpt>
      <trkpt lat="10.256086" lon="-67.822032">
        <ele>436.00</ele>
        <time>2022-10-26T12:14:36Z</time>
      </trkpt>
      <trkpt lat="10.256074" lon="-67.822087">
        <ele>435.90</ele>
        <time>2022-10-26T12:14:37Z</time>
      </trkpt>
      <trkpt lat="10.256063" lon="-67.822145">
        <ele>435.90</ele>
        <time>2022-10-26T12:14:38Z</time>
      </trkpt>
      <trkpt lat="10.256050" lon="-67.822205">
        <ele>435.90</ele>
        <time>2022-10-26T12:14:39Z</time>
      </trkpt>
      <trkpt lat="10.256036" lon="-67.822264">
        <ele>435.90</ele>
        <time>2022-10-26T12:14:40Z</time>
      </trkpt>
      <trkpt lat="10.256022" lon="-67.822321">
        <ele>435.80</ele>
        <time>2022-10-26T12:14:41Z</time>
      </trkpt>
      <trkpt lat="10.256007" lon="-67.822376">
        <ele>435.70</ele>
        <time>2022-10-26T12:14:42Z</time>
      </trkpt>
      <trkpt lat="10.255993" lon="-67.822430">
        <ele>435.60</ele>
        <time>2022-10-26T12:14:43Z</time>
      </trkpt>
      <trkpt lat="10.255976" lon="-67.822486">
        <ele>435.50</ele>
        <time>2022-10-26T12:14:44Z</time>
      </trkpt>
      <trkpt lat="10.255958" lon="-67.822545">
        <ele>435.40</ele>
        <time>2022-10-26T12:14:45Z</time>
      </trkpt>
      <trkpt lat="10.255944" lon="-67.822601">
        <ele>435.30</ele>
        <time>2022-10-26T12:14:46Z</time>
      </trkpt>
      <trkpt lat="10.255927" lon="-67.822657">
        <ele>435.20</ele>
        <time>2022-10-26T12:14:47Z</time>
      </trkpt>
      <trkpt lat="10.255910" lon="-67.822717">
        <ele>435.10</ele>
        <time>2022-10-26T12:14:48Z</time>
      </trkpt>
      <trkpt lat="10.255890" lon="-67.822778">
        <ele>435.00</ele>
        <time>2022-10-26T12:14:49Z</time>
      </trkpt>
      <trkpt lat="10.255874" lon="-67.822839">
        <ele>435.00</ele>
        <time>2022-10-26T12:14:50Z</time>
      </trkpt>
      <trkpt lat="10.255858" lon="-67.822899">
        <ele>434.90</ele>
        <time>2022-10-26T12:14:51Z</time>
      </trkpt>
      <trkpt lat="10.255845" lon="-67.822958">
        <ele>434.80</ele>
        <time>2022-10-26T12:14:52Z</time>
      </trkpt>
      <trkpt lat="10.255833" lon="-67.823015">
        <ele>434.70</ele>
        <time>2022-10-26T12:14:53Z</time>
      </trkpt>
      <trkpt lat="10.255820" lon="-67.823072">
        <ele>434.70</ele>
        <time>2022-10-26T12:14:54Z</time>
      </trkpt>
      <trkpt lat="10.255808" lon="-67.823129">
        <ele>434.60</ele>
        <time>2022-10-26T12:14:55Z</time>
      </trkpt>
      <trkpt lat="10.255792" lon="-67.823183">
        <ele>434.50</ele>
        <time>2022-10-26T12:14:56Z</time>
      </trkpt>
      <trkpt lat="10.255776" lon="-67.823241">
        <ele>434.50</ele>
        <time>2022-10-26T12:14:57Z</time>
      </trkpt>
      <trkpt lat="10.255761" lon="-67.823298">
        <ele>434.40</ele>
        <time>2022-10-26T12:14:58Z</time>
      </trkpt>
      <trkpt lat="10.255751" lon="-67.823354">
        <ele>434.40</ele>
        <time>2022-10-26T12:14:59Z</time>
      </trkpt>
      <trkpt lat="10.255735" lon="-67.823405">
        <ele>434.30</ele>
        <time>2022-10-26T12:15:00Z</time>
      </trkpt>
      <trkpt lat="10.255715" lon="-67.823455">
        <ele>434.30</ele>
        <time>2022-10-26T12:15:01Z</time>
      </trkpt>
      <trkpt lat="10.255695" lon="-67.823508">
        <ele>434.20</ele>
        <time>2022-10-26T12:15:02Z</time>
      </trkpt>
      <trkpt lat="10.255678" lon="-67.823561">
        <ele>434.20</ele>
        <time>2022-10-26T12:15:03Z</time>
      </trkpt>
      <trkpt lat="10.255663" lon="-67.823615">
        <ele>434.20</ele>
        <time>2022-10-26T12:15:04Z</time>
      </trkpt>
      <trkpt lat="10.255649" lon="-67.823670">
        <ele>434.10</ele>
        <time>2022-10-26T12:15:05Z</time>
      </trkpt>
      <trkpt lat="10.255636" lon="-67.823724">
        <ele>434.10</ele>
        <time>2022-10-26T12:15:06Z</time>
      </trkpt>
      <trkpt lat="10.255622" lon="-67.823780">
        <ele>434.10</ele>
        <time>2022-10-26T12:15:07Z</time>
      </trkpt>
      <trkpt lat="10.255608" lon="-67.823835">
        <ele>434.10</ele>
        <time>2022-10-26T12:15:08Z</time>
      </trkpt>
      <trkpt lat="10.255595" lon="-67.823889">
        <ele>434.10</ele>
        <time>2022-10-26T12:15:09Z</time>
      </trkpt>
      <trkpt lat="10.255582" lon="-67.823942">
        <ele>434.10</ele>
        <time>2022-10-26T12:15:10Z</time>
      </trkpt>
      <trkpt lat="10.255568" lon="-67.823994">
        <ele>434.00</ele>
        <time>2022-10-26T12:15:11Z</time>
      </trkpt>
      <trkpt lat="10.255553" lon="-67.824043">
        <ele>434.00</ele>
        <time>2022-10-26T12:15:12Z</time>
      </trkpt>
      <trkpt lat="10.255538" lon="-67.824091">
        <ele>434.00</ele>
        <time>2022-10-26T12:15:13Z</time>
      </trkpt>
      <trkpt lat="10.255523" lon="-67.824141">
        <ele>434.00</ele>
        <time>2022-10-26T12:15:14Z</time>
      </trkpt>
      <trkpt lat="10.255508" lon="-67.824194">
        <ele>434.00</ele>
        <time>2022-10-26T12:15:15Z</time>
      </trkpt>
      <trkpt lat="10.255492" lon="-67.824248">
        <ele>434.00</ele>
        <time>2022-10-26T12:15:16Z</time>
      </trkpt>
      <trkpt lat="10.255473" lon="-67.824305">
        <ele>434.00</ele>
        <time>2022-10-26T12:15:17Z</time>
      </trkpt>
      <trkpt lat="10.255456" lon="-67.824362">
        <ele>434.00</ele>
        <time>2022-10-26T12:15:18Z</time>
      </trkpt>
      <trkpt lat="10.255438" lon="-67.824418">
        <ele>434.00</ele>
        <time>2022-10-26T12:15:19Z</time>
      </trkpt>
      <trkpt lat="10.255425" lon="-67.824473">
        <ele>434.00</ele>
        <time>2022-10-26T12:15:20Z</time>
      </trkpt>
      <trkpt lat="10.255410" lon="-67.824526">
        <ele>434.00</ele>
        <time>2022-10-26T12:15:21Z</time>
      </trkpt>
      <trkpt lat="10.255392" lon="-67.824581">
        <ele>434.00</ele>
        <time>2022-10-26T12:15:22Z</time>
      </trkpt>
      <trkpt lat="10.255377" lon="-67.824630">
        <ele>434.10</ele>
        <time>2022-10-26T12:15:23Z</time>
      </trkpt>
      <trkpt lat="10.255361" lon="-67.824679">
        <ele>434.10</ele>
        <time>2022-10-26T12:15:24Z</time>
      </trkpt>
      <trkpt lat="10.255347" lon="-67.824729">
        <ele>434.10</ele>
        <time>2022-10-26T12:15:25Z</time>
      </trkpt>
      <trkpt lat="10.255335" lon="-67.824781">
        <ele>434.10</ele>
        <time>2022-10-26T12:15:26Z</time>
      </trkpt>
      <trkpt lat="10.255324" lon="-67.824832">
        <ele>434.10</ele>
        <time>2022-10-26T12:15:27Z</time>
      </trkpt>
      <trkpt lat="10.255315" lon="-67.824882">
        <ele>434.10</ele>
        <time>2022-10-26T12:15:28Z</time>
      </trkpt>
      <trkpt lat="10.255304" lon="-67.824929">
        <ele>434.10</ele>
        <time>2022-10-26T12:15:29Z</time>
      </trkpt>
      <trkpt lat="10.255296" lon="-67.824975">
        <ele>434.10</ele>
        <time>2022-10-26T12:15:30Z</time>
      </trkpt>
      <trkpt lat="10.255285" lon="-67.825022">
        <ele>434.10</ele>
        <time>2022-10-26T12:15:31Z</time>
      </trkpt>
      <trkpt lat="10.255272" lon="-67.825069">
        <ele>434.20</ele>
        <time>2022-10-26T12:15:32Z</time>
      </trkpt>
      <trkpt lat="10.255258" lon="-67.825115">
        <ele>434.20</ele>
        <time>2022-10-26T12:15:33Z</time>
      </trkpt>
      <trkpt lat="10.255243" lon="-67.825163">
        <ele>434.20</ele>
        <time>2022-10-26T12:15:34Z</time>
      </trkpt>
      <trkpt lat="10.255228" lon="-67.825212">
        <ele>434.30</ele>
        <time>2022-10-26T12:15:35Z</time>
      </trkpt>
      <trkpt lat="10.255214" lon="-67.825264">
        <ele>434.30</ele>
        <time>2022-10-26T12:15:36Z</time>
      </trkpt>
      <trkpt lat="10.255202" lon="-67.825315">
        <ele>434.30</ele>
        <time>2022-10-26T12:15:37Z</time>
      </trkpt>
      <trkpt lat="10.255193" lon="-67.825366">
        <ele>434.40</ele>
        <time>2022-10-26T12:15:38Z</time>
      </trkpt>
      <trkpt lat="10.255183" lon="-67.825420">
        <ele>434.40</ele>
        <time>2022-10-26T12:15:39Z</time>
      </trkpt>
      <trkpt lat="10.255168" lon="-67.825472">
        <ele>434.50</ele>
        <time>2022-10-26T12:15:40Z</time>
      </trkpt>
      <trkpt lat="10.255154" lon="-67.825525">
        <ele>434.50</ele>
        <time>2022-10-26T12:15:41Z</time>
      </trkpt>
      <trkpt lat="10.255140" lon="-67.825579">
        <ele>434.60</ele>
        <time>2022-10-26T12:15:42Z</time>
      </trkpt>
      <trkpt lat="10.255122" lon="-67.825631">
        <ele>434.70</ele>
        <time>2022-10-26T12:15:43Z</time>
      </trkpt>
      <trkpt lat="10.255104" lon="-67.825680">
        <ele>434.70</ele>
        <time>2022-10-26T12:15:44Z</time>
      </trkpt>
      <trkpt lat="10.255088" lon="-67.825729">
        <ele>434.80</ele>
        <time>2022-10-26T12:15:45Z</time>
      </trkpt>
      <trkpt lat="10.255075" lon="-67.825776">
        <ele>434.80</ele>
        <time>2022-10-26T12:15:46Z</time>
      </trkpt>
      <trkpt lat="10.255064" lon="-67.825820">
        <ele>434.90</ele>
        <time>2022-10-26T12:15:47Z</time>
      </trkpt>
      <trkpt lat="10.255042" lon="-67.825906">
        <ele>435.00</ele>
        <time>2022-10-26T12:15:49Z</time>
      </trkpt>
      <trkpt lat="10.255028" lon="-67.825948">
        <ele>435.10</ele>
        <time>2022-10-26T12:15:50Z</time>
      </trkpt>
      <trkpt lat="10.255011" lon="-67.825993">
        <ele>435.10</ele>
        <time>2022-10-26T12:15:51Z</time>
      </trkpt>
      <trkpt lat="10.254992" lon="-67.826037">
        <ele>435.20</ele>
        <time>2022-10-26T12:15:52Z</time>
      </trkpt>
      <trkpt lat="10.254974" lon="-67.826079">
        <ele>435.20</ele>
        <time>2022-10-26T12:15:53Z</time>
      </trkpt>
      <trkpt lat="10.254955" lon="-67.826124">
        <ele>435.30</ele>
        <time>2022-10-26T12:15:54Z</time>
      </trkpt>
      <trkpt lat="10.254936" lon="-67.826169">
        <ele>435.40</ele>
        <time>2022-10-26T12:15:55Z</time>
      </trkpt>
      <trkpt lat="10.254914" lon="-67.826214">
        <ele>435.40</ele>
        <time>2022-10-26T12:15:56Z</time>
      </trkpt>
      <trkpt lat="10.254894" lon="-67.826260">
        <ele>435.50</ele>
        <time>2022-10-26T12:15:57Z</time>
      </trkpt>
      <trkpt lat="10.254877" lon="-67.826307">
        <ele>435.60</ele>
        <time>2022-10-26T12:15:58Z</time>
      </trkpt>
      <trkpt lat="10.254864" lon="-67.826354">
        <ele>435.70</ele>
        <time>2022-10-26T12:15:59Z</time>
      </trkpt>
      <trkpt lat="10.254852" lon="-67.826402">
        <ele>435.70</ele>
        <time>2022-10-26T12:16:00Z</time>
      </trkpt>
      <trkpt lat="10.254835" lon="-67.826452">
        <ele>435.80</ele>
        <time>2022-10-26T12:16:01Z</time>
      </trkpt>
      <trkpt lat="10.254820" lon="-67.826498">
        <ele>435.90</ele>
        <time>2022-10-26T12:16:02Z</time>
      </trkpt>
      <trkpt lat="10.254805" lon="-67.826541">
        <ele>436.00</ele>
        <time>2022-10-26T12:16:03Z</time>
      </trkpt>
      <trkpt lat="10.254791" lon="-67.826582">
        <ele>436.00</ele>
        <time>2022-10-26T12:16:04Z</time>
      </trkpt>
      <trkpt lat="10.254777" lon="-67.826622">
        <ele>436.10</ele>
        <time>2022-10-26T12:16:05Z</time>
      </trkpt>
      <trkpt lat="10.254762" lon="-67.826661">
        <ele>436.10</ele>
        <time>2022-10-26T12:16:06Z</time>
      </trkpt>
      <trkpt lat="10.254745" lon="-67.826699">
        <ele>436.20</ele>
        <time>2022-10-26T12:16:07Z</time>
      </trkpt>
      <trkpt lat="10.254727" lon="-67.826737">
        <ele>436.30</ele>
        <time>2022-10-26T12:16:08Z</time>
      </trkpt>
      <trkpt lat="10.254712" lon="-67.826775">
        <ele>436.30</ele>
        <time>2022-10-26T12:16:09Z</time>
      </trkpt>
      <trkpt lat="10.254697" lon="-67.826813">
        <ele>436.40</ele>
        <time>2022-10-26T12:16:10Z</time>
      </trkpt>
      <trkpt lat="10.254685" lon="-67.826852">
        <ele>436.50</ele>
        <time>2022-10-26T12:16:11Z</time>
      </trkpt>
      <trkpt lat="10.254672" lon="-67.826894">
        <ele>436.60</ele>
        <time>2022-10-26T12:16:12Z</time>
      </trkpt>
      <trkpt lat="10.254659" lon="-67.826934">
        <ele>436.60</ele>
        <time>2022-10-26T12:16:13Z</time>
      </trkpt>
      <trkpt lat="10.254646" lon="-67.826979">
        <ele>436.70</ele>
        <time>2022-10-26T12:16:14Z</time>
      </trkpt>
      <trkpt lat="10.254632" lon="-67.827020">
        <ele>436.80</ele>
        <time>2022-10-26T12:16:15Z</time>
      </trkpt>
      <trkpt lat="10.254618" lon="-67.827061">
        <ele>436.80</ele>
        <time>2022-10-26T12:16:16Z</time>
      </trkpt>
      <trkpt lat="10.254605" lon="-67.827101">
        <ele>436.90</ele>
        <time>2022-10-26T12:16:17Z</time>
      </trkpt>
      <trkpt lat="10.254590" lon="-67.827143">
        <ele>437.00</ele>
        <time>2022-10-26T12:16:18Z</time>
      </trkpt>
      <trkpt lat="10.254576" lon="-67.827185">
        <ele>437.00</ele>
        <time>2022-10-26T12:16:19Z</time>
      </trkpt>
      <trkpt lat="10.254562" lon="-67.827227">
        <ele>437.10</ele>
        <time>2022-10-26T12:16:20Z</time>
      </trkpt>
      <trkpt lat="10.254551" lon="-67.827271">
        <ele>437.20</ele>
        <time>2022-10-26T12:16:21Z</time>
      </trkpt>
      <trkpt lat="10.254540" lon="-67.827314">
        <ele>437.30</ele>
        <time>2022-10-26T12:16:22Z</time>
      </trkpt>
      <trkpt lat="10.254529" lon="-67.827361">
        <ele>437.40</ele>
        <time>2022-10-26T12:16:23Z</time>
      </trkpt>
      <trkpt lat="10.254519" lon="-67.827406">
        <ele>437.40</ele>
        <time>2022-10-26T12:16:24Z</time>
      </trkpt>
      <trkpt lat="10.254512" lon="-67.827451">
        <ele>437.50</ele>
        <time>2022-10-26T12:16:25Z</time>
      </trkpt>
      <trkpt lat="10.254504" lon="-67.827494">
        <ele>437.60</ele>
        <time>2022-10-26T12:16:26Z</time>
      </trkpt>
      <trkpt lat="10.254495" lon="-67.827535">
        <ele>437.70</ele>
        <time>2022-10-26T12:16:27Z</time>
      </trkpt>
      <trkpt lat="10.254481" lon="-67.827577">
        <ele>437.70</ele>
        <time>2022-10-26T12:16:28Z</time>
      </trkpt>
      <trkpt lat="10.254470" lon="-67.827618">
        <ele>437.80</ele>
        <time>2022-10-26T12:16:29Z</time>
      </trkpt>
      <trkpt lat="10.254459" lon="-67.827656">
        <ele>437.80</ele>
        <time>2022-10-26T12:16:30Z</time>
      </trkpt>
      <trkpt lat="10.254449" lon="-67.827695">
        <ele>437.90</ele>
        <time>2022-10-26T12:16:31Z</time>
      </trkpt>
      <trkpt lat="10.254435" lon="-67.827732">
        <ele>438.00</ele>
        <time>2022-10-26T12:16:32Z</time>
      </trkpt>
      <trkpt lat="10.254423" lon="-67.827773">
        <ele>438.00</ele>
        <time>2022-10-26T12:16:33Z</time>
      </trkpt>
      <trkpt lat="10.254409" lon="-67.827815">
        <ele>438.10</ele>
        <time>2022-10-26T12:16:34Z</time>
      </trkpt>
      <trkpt lat="10.254398" lon="-67.827856">
        <ele>438.10</ele>
        <time>2022-10-26T12:16:35Z</time>
      </trkpt>
      <trkpt lat="10.254387" lon="-67.827895">
        <ele>438.20</ele>
        <time>2022-10-26T12:16:36Z</time>
      </trkpt>
      <trkpt lat="10.254377" lon="-67.827933">
        <ele>438.20</ele>
        <time>2022-10-26T12:16:37Z</time>
      </trkpt>
      <trkpt lat="10.254366" lon="-67.827973">
        <ele>438.30</ele>
        <time>2022-10-26T12:16:38Z</time>
      </trkpt>
      <trkpt lat="10.254357" lon="-67.828017">
        <ele>438.30</ele>
        <time>2022-10-26T12:16:39Z</time>
      </trkpt>
      <trkpt lat="10.254349" lon="-67.828061">
        <ele>438.40</ele>
        <time>2022-10-26T12:16:40Z</time>
      </trkpt>
      <trkpt lat="10.254342" lon="-67.828104">
        <ele>438.40</ele>
        <time>2022-10-26T12:16:41Z</time>
      </trkpt>
      <trkpt lat="10.254330" lon="-67.828143">
        <ele>438.50</ele>
        <time>2022-10-26T12:16:42Z</time>
      </trkpt>
      <trkpt lat="10.254315" lon="-67.828186">
        <ele>438.50</ele>
        <time>2022-10-26T12:16:43Z</time>
      </trkpt>
      <trkpt lat="10.254297" lon="-67.828230">
        <ele>438.50</ele>
        <time>2022-10-26T12:16:44Z</time>
      </trkpt>
      <trkpt lat="10.254277" lon="-67.828275">
        <ele>438.60</ele>
        <time>2022-10-26T12:16:45Z</time>
      </trkpt>
      <trkpt lat="10.254257" lon="-67.828317">
        <ele>438.60</ele>
        <time>2022-10-26T12:16:46Z</time>
      </trkpt>
      <trkpt lat="10.254239" lon="-67.828355">
        <ele>438.70</ele>
        <time>2022-10-26T12:16:47Z</time>
      </trkpt>
      <trkpt lat="10.254222" lon="-67.828392">
        <ele>438.70</ele>
        <time>2022-10-26T12:16:48Z</time>
      </trkpt>
      <trkpt lat="10.254207" lon="-67.828428">
        <ele>438.70</ele>
        <time>2022-10-26T12:16:49Z</time>
      </trkpt>
      <trkpt lat="10.254192" lon="-67.828463">
        <ele>438.80</ele>
        <time>2022-10-26T12:16:50Z</time>
      </trkpt>
      <trkpt lat="10.254181" lon="-67.828502">
        <ele>438.80</ele>
        <time>2022-10-26T12:16:51Z</time>
      </trkpt>
      <trkpt lat="10.254170" lon="-67.828541">
        <ele>438.80</ele>
        <time>2022-10-26T12:16:52Z</time>
      </trkpt>
      <trkpt lat="10.254159" lon="-67.828576">
        <ele>438.80</ele>
        <time>2022-10-26T12:16:53Z</time>
      </trkpt>
      <trkpt lat="10.254149" lon="-67.828611">
        <ele>438.90</ele>
        <time>2022-10-26T12:16:54Z</time>
      </trkpt>
      <trkpt lat="10.254136" lon="-67.828646">
        <ele>438.90</ele>
        <time>2022-10-26T12:16:55Z</time>
      </trkpt>
      <trkpt lat="10.254121" lon="-67.828686">
        <ele>438.90</ele>
        <time>2022-10-26T12:16:56Z</time>
      </trkpt>
      <trkpt lat="10.254105" lon="-67.828725">
        <ele>439.00</ele>
        <time>2022-10-26T12:16:57Z</time>
      </trkpt>
      <trkpt lat="10.254088" lon="-67.828765">
        <ele>439.00</ele>
        <time>2022-10-26T12:16:58Z</time>
      </trkpt>
      <trkpt lat="10.254072" lon="-67.828805">
        <ele>439.00</ele>
        <time>2022-10-26T12:16:59Z</time>
      </trkpt>
      <trkpt lat="10.254058" lon="-67.828846">
        <ele>439.10</ele>
        <time>2022-10-26T12:17:00Z</time>
      </trkpt>
      <trkpt lat="10.254043" lon="-67.828890">
        <ele>439.10</ele>
        <time>2022-10-26T12:17:01Z</time>
      </trkpt>
      <trkpt lat="10.254030" lon="-67.828934">
        <ele>439.10</ele>
        <time>2022-10-26T12:17:02Z</time>
      </trkpt>
      <trkpt lat="10.254018" lon="-67.828976">
        <ele>439.20</ele>
        <time>2022-10-26T12:17:03Z</time>
      </trkpt>
      <trkpt lat="10.254005" lon="-67.829015">
        <ele>439.20</ele>
        <time>2022-10-26T12:17:04Z</time>
      </trkpt>
      <trkpt lat="10.253990" lon="-67.829055">
        <ele>439.30</ele>
        <time>2022-10-26T12:17:05Z</time>
      </trkpt>
      <trkpt lat="10.253976" lon="-67.829097">
        <ele>439.30</ele>
        <time>2022-10-26T12:17:06Z</time>
      </trkpt>
      <trkpt lat="10.253962" lon="-67.829138">
        <ele>439.30</ele>
        <time>2022-10-26T12:17:07Z</time>
      </trkpt>
      <trkpt lat="10.253947" lon="-67.829182">
        <ele>439.30</ele>
        <time>2022-10-26T12:17:08Z</time>
      </trkpt>
      <trkpt lat="10.253934" lon="-67.829226">
        <ele>439.30</ele>
        <time>2022-10-26T12:17:09Z</time>
      </trkpt>
      <trkpt lat="10.253919" lon="-67.829273">
        <ele>439.30</ele>
        <time>2022-10-26T12:17:10Z</time>
      </trkpt>
      <trkpt lat="10.253902" lon="-67.829318">
        <ele>439.40</ele>
        <time>2022-10-26T12:17:11Z</time>
      </trkpt>
      <trkpt lat="10.253885" lon="-67.829365">
        <ele>439.40</ele>
        <time>2022-10-26T12:17:12Z</time>
      </trkpt>
      <trkpt lat="10.253866" lon="-67.829411">
        <ele>439.40</ele>
        <time>2022-10-26T12:17:13Z</time>
      </trkpt>
      <trkpt lat="10.253845" lon="-67.829457">
        <ele>439.40</ele>
        <time>2022-10-26T12:17:14Z</time>
      </trkpt>
      <trkpt lat="10.253826" lon="-67.829501">
        <ele>439.50</ele>
        <time>2022-10-26T12:17:15Z</time>
      </trkpt>
      <trkpt lat="10.253810" lon="-67.829544">
        <ele>439.50</ele>
        <time>2022-10-26T12:17:16Z</time>
      </trkpt>
      <trkpt lat="10.253795" lon="-67.829584">
        <ele>439.50</ele>
        <time>2022-10-26T12:17:17Z</time>
      </trkpt>
      <trkpt lat="10.253781" lon="-67.829625">
        <ele>439.50</ele>
        <time>2022-10-26T12:17:18Z</time>
      </trkpt>
      <trkpt lat="10.253765" lon="-67.829667">
        <ele>439.50</ele>
        <time>2022-10-26T12:17:19Z</time>
      </trkpt>
      <trkpt lat="10.253748" lon="-67.829706">
        <ele>439.50</ele>
        <time>2022-10-26T12:17:20Z</time>
      </trkpt>
      <trkpt lat="10.253732" lon="-67.829747">
        <ele>439.40</ele>
        <time>2022-10-26T12:17:21Z</time>
      </trkpt>
      <trkpt lat="10.253718" lon="-67.829786">
        <ele>439.40</ele>
        <time>2022-10-26T12:17:22Z</time>
      </trkpt>
      <trkpt lat="10.253707" lon="-67.829825">
        <ele>439.40</ele>
        <time>2022-10-26T12:17:23Z</time>
      </trkpt>
      <trkpt lat="10.253695" lon="-67.829865">
        <ele>439.40</ele>
        <time>2022-10-26T12:17:24Z</time>
      </trkpt>
      <trkpt lat="10.253687" lon="-67.829908">
        <ele>439.40</ele>
        <time>2022-10-26T12:17:25Z</time>
      </trkpt>
      <trkpt lat="10.253679" lon="-67.829951">
        <ele>439.40</ele>
        <time>2022-10-26T12:17:26Z</time>
      </trkpt>
      <trkpt lat="10.253671" lon="-67.829990">
        <ele>439.40</ele>
        <time>2022-10-26T12:17:27Z</time>
      </trkpt>
      <trkpt lat="10.253659" lon="-67.830030">
        <ele>439.40</ele>
        <time>2022-10-26T12:17:28Z</time>
      </trkpt>
      <trkpt lat="10.253647" lon="-67.830068">
        <ele>439.40</ele>
        <time>2022-10-26T12:17:29Z</time>
      </trkpt>
      <trkpt lat="10.253633" lon="-67.830109">
        <ele>439.30</ele>
        <time>2022-10-26T12:17:30Z</time>
      </trkpt>
      <trkpt lat="10.253616" lon="-67.830150">
        <ele>439.30</ele>
        <time>2022-10-26T12:17:31Z</time>
      </trkpt>
      <trkpt lat="10.253594" lon="-67.830197">
        <ele>439.30</ele>
        <time>2022-10-26T12:17:32Z</time>
      </trkpt>
      <trkpt lat="10.253574" lon="-67.830242">
        <ele>439.30</ele>
        <time>2022-10-26T12:17:33Z</time>
      </trkpt>
      <trkpt lat="10.253555" lon="-67.830289">
        <ele>439.30</ele>
        <time>2022-10-26T12:17:34Z</time>
      </trkpt>
      <trkpt lat="10.253537" lon="-67.830336">
        <ele>439.30</ele>
        <time>2022-10-26T12:17:35Z</time>
      </trkpt>
      <trkpt lat="10.253520" lon="-67.830379">
        <ele>439.30</ele>
        <time>2022-10-26T12:17:36Z</time>
      </trkpt>
      <trkpt lat="10.253504" lon="-67.830422">
        <ele>439.30</ele>
        <time>2022-10-26T12:17:37Z</time>
      </trkpt>
      <trkpt lat="10.253489" lon="-67.830469">
        <ele>439.30</ele>
        <time>2022-10-26T12:17:38Z</time>
      </trkpt>
      <trkpt lat="10.253472" lon="-67.830516">
        <ele>439.30</ele>
        <time>2022-10-26T12:17:39Z</time>
      </trkpt>
      <trkpt lat="10.253457" lon="-67.830560">
        <ele>439.30</ele>
        <time>2022-10-26T12:17:40Z</time>
      </trkpt>
      <trkpt lat="10.253441" lon="-67.830603">
        <ele>439.30</ele>
        <time>2022-10-26T12:17:41Z</time>
      </trkpt>
      <trkpt lat="10.253425" lon="-67.830646">
        <ele>439.20</ele>
        <time>2022-10-26T12:17:42Z</time>
      </trkpt>
      <trkpt lat="10.253410" lon="-67.830689">
        <ele>439.20</ele>
        <time>2022-10-26T12:17:43Z</time>
      </trkpt>
      <trkpt lat="10.253396" lon="-67.830733">
        <ele>439.20</ele>
        <time>2022-10-26T12:17:44Z</time>
      </trkpt>
      <trkpt lat="10.253378" lon="-67.830775">
        <ele>439.20</ele>
        <time>2022-10-26T12:17:45Z</time>
      </trkpt>
      <trkpt lat="10.253345" lon="-67.830853">
        <ele>439.10</ele>
        <time>2022-10-26T12:17:46Z</time>
      </trkpt>
      <trkpt lat="10.253327" lon="-67.830899">
        <ele>439.10</ele>
        <time>2022-10-26T12:17:47Z</time>
      </trkpt>
      <trkpt lat="10.253312" lon="-67.830942">
        <ele>439.10</ele>
        <time>2022-10-26T12:17:48Z</time>
      </trkpt>
      <trkpt lat="10.253298" lon="-67.830988">
        <ele>439.00</ele>
        <time>2022-10-26T12:17:49Z</time>
      </trkpt>
      <trkpt lat="10.253282" lon="-67.831037">
        <ele>439.00</ele>
        <time>2022-10-26T12:17:50Z</time>
      </trkpt>
      <trkpt lat="10.253267" lon="-67.831081">
        <ele>439.00</ele>
        <time>2022-10-26T12:17:51Z</time>
      </trkpt>
      <trkpt lat="10.253249" lon="-67.831129">
        <ele>439.00</ele>
        <time>2022-10-26T12:17:52Z</time>
      </trkpt>
      <trkpt lat="10.253234" lon="-67.831177">
        <ele>439.00</ele>
        <time>2022-10-26T12:17:53Z</time>
      </trkpt>
      <trkpt lat="10.253216" lon="-67.831225">
        <ele>438.90</ele>
        <time>2022-10-26T12:17:54Z</time>
      </trkpt>
      <trkpt lat="10.253198" lon="-67.831271">
        <ele>438.90</ele>
        <time>2022-10-26T12:17:55Z</time>
      </trkpt>
      <trkpt lat="10.253180" lon="-67.831317">
        <ele>438.90</ele>
        <time>2022-10-26T12:17:56Z</time>
      </trkpt>
      <trkpt lat="10.253161" lon="-67.831362">
        <ele>438.90</ele>
        <time>2022-10-26T12:17:57Z</time>
      </trkpt>
      <trkpt lat="10.253144" lon="-67.831409">
        <ele>438.90</ele>
        <time>2022-10-26T12:17:58Z</time>
      </trkpt>
      <trkpt lat="10.253126" lon="-67.831455">
        <ele>438.80</ele>
        <time>2022-10-26T12:17:59Z</time>
      </trkpt>
      <trkpt lat="10.253107" lon="-67.831498">
        <ele>438.80</ele>
        <time>2022-10-26T12:18:00Z</time>
      </trkpt>
      <trkpt lat="10.253085" lon="-67.831543">
        <ele>438.80</ele>
        <time>2022-10-26T12:18:01Z</time>
      </trkpt>
      <trkpt lat="10.253062" lon="-67.831591">
        <ele>438.80</ele>
        <time>2022-10-26T12:18:02Z</time>
      </trkpt>
      <trkpt lat="10.253042" lon="-67.831641">
        <ele>438.80</ele>
        <time>2022-10-26T12:18:03Z</time>
      </trkpt>
      <trkpt lat="10.253023" lon="-67.831691">
        <ele>438.80</ele>
        <time>2022-10-26T12:18:04Z</time>
      </trkpt>
      <trkpt lat="10.253002" lon="-67.831740">
        <ele>438.80</ele>
        <time>2022-10-26T12:18:05Z</time>
      </trkpt>
      <trkpt lat="10.252978" lon="-67.831789">
        <ele>438.70</ele>
        <time>2022-10-26T12:18:06Z</time>
      </trkpt>
      <trkpt lat="10.252954" lon="-67.831838">
        <ele>438.70</ele>
        <time>2022-10-26T12:18:07Z</time>
      </trkpt>
      <trkpt lat="10.252935" lon="-67.831884">
        <ele>438.70</ele>
        <time>2022-10-26T12:18:08Z</time>
      </trkpt>
      <trkpt lat="10.252919" lon="-67.831935">
        <ele>438.70</ele>
        <time>2022-10-26T12:18:09Z</time>
      </trkpt>
      <trkpt lat="10.252904" lon="-67.831981">
        <ele>438.60</ele>
        <time>2022-10-26T12:18:10Z</time>
      </trkpt>
      <trkpt lat="10.252886" lon="-67.832028">
        <ele>438.60</ele>
        <time>2022-10-26T12:18:11Z</time>
      </trkpt>
      <trkpt lat="10.252870" lon="-67.832076">
        <ele>438.60</ele>
        <time>2022-10-26T12:18:12Z</time>
      </trkpt>
      <trkpt lat="10.252854" lon="-67.832122">
        <ele>438.60</ele>
        <time>2022-10-26T12:18:13Z</time>
      </trkpt>
      <trkpt lat="10.252837" lon="-67.832165">
        <ele>438.60</ele>
        <time>2022-10-26T12:18:14Z</time>
      </trkpt>
      <trkpt lat="10.252818" lon="-67.832206">
        <ele>438.60</ele>
        <time>2022-10-26T12:18:15Z</time>
      </trkpt>
      <trkpt lat="10.252798" lon="-67.832248">
        <ele>438.60</ele>
        <time>2022-10-26T12:18:16Z</time>
      </trkpt>
      <trkpt lat="10.252781" lon="-67.832291">
        <ele>438.60</ele>
        <time>2022-10-26T12:18:17Z</time>
      </trkpt>
      <trkpt lat="10.252760" lon="-67.832333">
        <ele>438.60</ele>
        <time>2022-10-26T12:18:18Z</time>
      </trkpt>
      <trkpt lat="10.252736" lon="-67.832378">
        <ele>438.60</ele>
        <time>2022-10-26T12:18:19Z</time>
      </trkpt>
      <trkpt lat="10.252714" lon="-67.832426">
        <ele>438.50</ele>
        <time>2022-10-26T12:18:20Z</time>
      </trkpt>
      <trkpt lat="10.252692" lon="-67.832479">
        <ele>438.50</ele>
        <time>2022-10-26T12:18:21Z</time>
      </trkpt>
      <trkpt lat="10.252669" lon="-67.832529">
        <ele>438.50</ele>
        <time>2022-10-26T12:18:22Z</time>
      </trkpt>
      <trkpt lat="10.252645" lon="-67.832577">
        <ele>438.50</ele>
        <time>2022-10-26T12:18:23Z</time>
      </trkpt>
      <trkpt lat="10.252620" lon="-67.832624">
        <ele>438.50</ele>
        <time>2022-10-26T12:18:24Z</time>
      </trkpt>
      <trkpt lat="10.252599" lon="-67.832666">
        <ele>438.50</ele>
        <time>2022-10-26T12:18:25Z</time>
      </trkpt>
      <trkpt lat="10.252573" lon="-67.832705">
        <ele>438.50</ele>
        <time>2022-10-26T12:18:26Z</time>
      </trkpt>
      <trkpt lat="10.252545" lon="-67.832747">
        <ele>438.60</ele>
        <time>2022-10-26T12:18:27Z</time>
      </trkpt>
      <trkpt lat="10.252523" lon="-67.832791">
        <ele>438.60</ele>
        <time>2022-10-26T12:18:28Z</time>
      </trkpt>
      <trkpt lat="10.252502" lon="-67.832834">
        <ele>438.60</ele>
        <time>2022-10-26T12:18:29Z</time>
      </trkpt>
      <trkpt lat="10.252482" lon="-67.832877">
        <ele>438.60</ele>
        <time>2022-10-26T12:18:30Z</time>
      </trkpt>
      <trkpt lat="10.252465" lon="-67.832924">
        <ele>438.60</ele>
        <time>2022-10-26T12:18:31Z</time>
      </trkpt>
      <trkpt lat="10.252450" lon="-67.832971">
        <ele>438.60</ele>
        <time>2022-10-26T12:18:32Z</time>
      </trkpt>
      <trkpt lat="10.252430" lon="-67.833018">
        <ele>438.60</ele>
        <time>2022-10-26T12:18:33Z</time>
      </trkpt>
      <trkpt lat="10.252410" lon="-67.833063">
        <ele>438.60</ele>
        <time>2022-10-26T12:18:34Z</time>
      </trkpt>
      <trkpt lat="10.252396" lon="-67.833104">
        <ele>438.70</ele>
        <time>2022-10-26T12:18:35Z</time>
      </trkpt>
      <trkpt lat="10.252382" lon="-67.833145">
        <ele>438.70</ele>
        <time>2022-10-26T12:18:36Z</time>
      </trkpt>
      <trkpt lat="10.252367" lon="-67.833189">
        <ele>438.70</ele>
        <time>2022-10-26T12:18:37Z</time>
      </trkpt>
      <trkpt lat="10.252349" lon="-67.833237">
        <ele>438.70</ele>
        <time>2022-10-26T12:18:38Z</time>
      </trkpt>
      <trkpt lat="10.252331" lon="-67.833289">
        <ele>438.70</ele>
        <time>2022-10-26T12:18:39Z</time>
      </trkpt>
      <trkpt lat="10.252315" lon="-67.833338">
        <ele>438.70</ele>
        <time>2022-10-26T12:18:40Z</time>
      </trkpt>
      <trkpt lat="10.252296" lon="-67.833388">
        <ele>438.70</ele>
        <time>2022-10-26T12:18:41Z</time>
      </trkpt>
      <trkpt lat="10.252277" lon="-67.833436">
        <ele>438.70</ele>
        <time>2022-10-26T12:18:42Z</time>
      </trkpt>
      <trkpt lat="10.252261" lon="-67.833486">
        <ele>438.70</ele>
        <time>2022-10-26T12:18:43Z</time>
      </trkpt>
      <trkpt lat="10.252248" lon="-67.833543">
        <ele>438.70</ele>
        <time>2022-10-26T12:18:44Z</time>
      </trkpt>
      <trkpt lat="10.252222" lon="-67.833644">
        <ele>438.80</ele>
        <time>2022-10-26T12:18:46Z</time>
      </trkpt>
      <trkpt lat="10.252205" lon="-67.833699">
        <ele>438.80</ele>
        <time>2022-10-26T12:18:47Z</time>
      </trkpt>
      <trkpt lat="10.252189" lon="-67.833750">
        <ele>438.80</ele>
        <time>2022-10-26T12:18:48Z</time>
      </trkpt>
      <trkpt lat="10.252172" lon="-67.833801">
        <ele>438.80</ele>
        <time>2022-10-26T12:18:49Z</time>
      </trkpt>
      <trkpt lat="10.252159" lon="-67.833847">
        <ele>438.80</ele>
        <time>2022-10-26T12:18:50Z</time>
      </trkpt>
      <trkpt lat="10.252149" lon="-67.833891">
        <ele>438.90</ele>
        <time>2022-10-26T12:18:51Z</time>
      </trkpt>
      <trkpt lat="10.252138" lon="-67.833935">
        <ele>438.90</ele>
        <time>2022-10-26T12:18:52Z</time>
      </trkpt>
      <trkpt lat="10.252125" lon="-67.833979">
        <ele>438.90</ele>
        <time>2022-10-26T12:18:53Z</time>
      </trkpt>
      <trkpt lat="10.252114" lon="-67.834024">
        <ele>438.90</ele>
        <time>2022-10-26T12:18:54Z</time>
      </trkpt>
      <trkpt lat="10.252101" lon="-67.834070">
        <ele>438.90</ele>
        <time>2022-10-26T12:18:55Z</time>
      </trkpt>
      <trkpt lat="10.252090" lon="-67.834115">
        <ele>438.90</ele>
        <time>2022-10-26T12:18:56Z</time>
      </trkpt>
      <trkpt lat="10.252077" lon="-67.834160">
        <ele>438.90</ele>
        <time>2022-10-26T12:18:57Z</time>
      </trkpt>
      <trkpt lat="10.252063" lon="-67.834203">
        <ele>439.00</ele>
        <time>2022-10-26T12:18:58Z</time>
      </trkpt>
      <trkpt lat="10.252050" lon="-67.834244">
        <ele>439.00</ele>
        <time>2022-10-26T12:18:59Z</time>
      </trkpt>
      <trkpt lat="10.252038" lon="-67.834287">
        <ele>439.00</ele>
        <time>2022-10-26T12:19:00Z</time>
      </trkpt>
      <trkpt lat="10.252025" lon="-67.834328">
        <ele>439.00</ele>
        <time>2022-10-26T12:19:01Z</time>
      </trkpt>
      <trkpt lat="10.252012" lon="-67.834366">
        <ele>439.10</ele>
        <time>2022-10-26T12:19:02Z</time>
      </trkpt>
      <trkpt lat="10.252001" lon="-67.834405">
        <ele>439.10</ele>
        <time>2022-10-26T12:19:03Z</time>
      </trkpt>
      <trkpt lat="10.251991" lon="-67.834445">
        <ele>439.10</ele>
        <time>2022-10-26T12:19:04Z</time>
      </trkpt>
      <trkpt lat="10.251980" lon="-67.834486">
        <ele>439.10</ele>
        <time>2022-10-26T12:19:05Z</time>
      </trkpt>
      <trkpt lat="10.251968" lon="-67.834525">
        <ele>439.20</ele>
        <time>2022-10-26T12:19:06Z</time>
      </trkpt>
      <trkpt lat="10.251955" lon="-67.834566">
        <ele>439.40</ele>
        <time>2022-10-26T12:19:07Z</time>
      </trkpt>
      <trkpt lat="10.251942" lon="-67.834610">
        <ele>439.50</ele>
        <time>2022-10-26T12:19:08Z</time>
      </trkpt>
      <trkpt lat="10.251926" lon="-67.834654">
        <ele>439.60</ele>
        <time>2022-10-26T12:19:09Z</time>
      </trkpt>
      <trkpt lat="10.251912" lon="-67.834699">
        <ele>439.80</ele>
        <time>2022-10-26T12:19:10Z</time>
      </trkpt>
      <trkpt lat="10.251897" lon="-67.834744">
        <ele>439.90</ele>
        <time>2022-10-26T12:19:11Z</time>
      </trkpt>
      <trkpt lat="10.251885" lon="-67.834788">
        <ele>440.10</ele>
        <time>2022-10-26T12:19:13Z</time>
      </trkpt>
      <trkpt lat="10.251873" lon="-67.834834">
        <ele>440.20</ele>
        <time>2022-10-26T12:19:14Z</time>
      </trkpt>
      <trkpt lat="10.251856" lon="-67.834927">
        <ele>440.30</ele>
        <time>2022-10-26T12:19:15Z</time>
      </trkpt>
      <trkpt lat="10.251855" lon="-67.834991">
        <ele>440.20</ele>
        <time>2022-10-26T12:19:16Z</time>
      </trkpt>
      <trkpt lat="10.251846" lon="-67.835049">
        <ele>440.10</ele>
        <time>2022-10-26T12:19:17Z</time>
      </trkpt>
      <trkpt lat="10.251529" lon="-67.835459">
        <ele>439.60</ele>
        <time>2022-10-26T12:19:27Z</time>
      </trkpt>
      <trkpt lat="10.251499" lon="-67.835456">
        <ele>439.60</ele>
        <time>2022-10-26T12:19:28Z</time>
      </trkpt>
      <trkpt lat="10.251492" lon="-67.835459">
        <ele>439.60</ele>
        <time>2022-10-26T12:19:29Z</time>
      </trkpt>
      <trkpt lat="10.251480" lon="-67.835469">
        <ele>439.60</ele>
        <time>2022-10-26T12:19:30Z</time>
      </trkpt>
      <trkpt lat="10.251467" lon="-67.835485">
        <ele>439.60</ele>
        <time>2022-10-26T12:19:31Z</time>
      </trkpt>
      <trkpt lat="10.251453" lon="-67.835510">
        <ele>439.60</ele>
        <time>2022-10-26T12:19:32Z</time>
      </trkpt>
      <trkpt lat="10.251429" lon="-67.835531">
        <ele>439.60</ele>
        <time>2022-10-26T12:19:33Z</time>
      </trkpt>
      <trkpt lat="10.251418" lon="-67.835535">
        <ele>439.60</ele>
        <time>2022-10-26T12:19:34Z</time>
      </trkpt>
      <trkpt lat="10.251406" lon="-67.835540">
        <ele>439.60</ele>
        <time>2022-10-26T12:19:35Z</time>
      </trkpt>
      <trkpt lat="10.251382" lon="-67.835567">
        <ele>439.60</ele>
        <time>2022-10-26T12:19:36Z</time>
      </trkpt>
      <trkpt lat="10.251364" lon="-67.835591">
        <ele>439.60</ele>
        <time>2022-10-26T12:19:37Z</time>
      </trkpt>
      <trkpt lat="10.251361" lon="-67.835608">
        <ele>439.60</ele>
        <time>2022-10-26T12:19:38Z</time>
      </trkpt>
      <trkpt lat="10.251359" lon="-67.835623">
        <ele>439.60</ele>
        <time>2022-10-26T12:19:39Z</time>
      </trkpt>
      <trkpt lat="10.251358" lon="-67.835627">
        <ele>439.60</ele>
        <time>2022-10-26T12:19:40Z</time>
      </trkpt>
      <trkpt lat="10.251359" lon="-67.835629">
        <ele>439.60</ele>
        <time>2022-10-26T12:19:41Z</time>
      </trkpt>
      <trkpt lat="10.251362" lon="-67.835625">
        <ele>439.60</ele>
        <time>2022-10-26T12:19:42Z</time>
      </trkpt>
      <trkpt lat="10.251363" lon="-67.835622">
        <ele>439.60</ele>
        <time>2022-10-26T12:19:43Z</time>
      </trkpt>
      <trkpt lat="10.251364" lon="-67.835621">
        <ele>439.60</ele>
        <time>2022-10-26T12:19:44Z</time>
      </trkpt>
      <trkpt lat="10.251364" lon="-67.835619">
        <ele>439.60</ele>
        <time>2022-10-26T12:19:45Z</time>
      </trkpt>
      <trkpt lat="10.251365" lon="-67.835619">
        <ele>439.60</ele>
        <time>2022-10-26T12:19:46Z</time>
      </trkpt>
      <trkpt lat="10.251365" lon="-67.835618">
        <ele>439.60</ele>
        <time>2022-10-26T12:19:48Z</time>
      </trkpt>
      <trkpt lat="10.251365" lon="-67.835618">
        <ele>439.60</ele>
        <time>2022-10-26T12:19:49Z</time>
      </trkpt>
      <trkpt lat="10.251365" lon="-67.835618">
        <ele>439.60</ele>
        <time>2022-10-26T12:19:50Z</time>
      </trkpt>
      <trkpt lat="10.251365" lon="-67.835618">
        <ele>439.60</ele>
        <time>2022-10-26T12:19:51Z</time>
      </trkpt>
      <trkpt lat="10.251365" lon="-67.835618">
        <ele>439.60</ele>
        <time>2022-10-26T12:19:52Z</time>
      </trkpt>
      <trkpt lat="10.251365" lon="-67.835618">
        <ele>439.60</ele>
        <time>2022-10-26T12:19:53Z</time>
      </trkpt>
      <trkpt lat="10.251365" lon="-67.835618">
        <ele>439.60</ele>
        <time>2022-10-26T12:19:54Z</time>
      </trkpt>
      <trkpt lat="10.251365" lon="-67.835618">
        <ele>439.60</ele>
        <time>2022-10-26T12:19:55Z</time>
      </trkpt>
      <trkpt lat="10.251365" lon="-67.835618">
        <ele>439.60</ele>
        <time>2022-10-26T12:19:56Z</time>
      </trkpt>
      <trkpt lat="10.251365" lon="-67.835618">
        <ele>439.60</ele>
        <time>2022-10-26T12:19:57Z</time>
      </trkpt>
      <trkpt lat="10.251365" lon="-67.835618">
        <ele>439.60</ele>
        <time>2022-10-26T12:19:58Z</time>
      </trkpt>
      <trkpt lat="10.251365" lon="-67.835618">
        <ele>439.60</ele>
        <time>2022-10-26T12:19:59Z</time>
      </trkpt>
      <trkpt lat="10.251365" lon="-67.835618">
        <ele>439.60</ele>
        <time>2022-10-26T12:20:00Z</time>
      </trkpt>
      <trkpt lat="10.251365" lon="-67.835618">
        <ele>439.60</ele>
        <time>2022-10-26T12:20:02Z</time>
      </trkpt>
      <trkpt lat="10.251365" lon="-67.835618">
        <ele>439.60</ele>
        <time>2022-10-26T12:20:03Z</time>
      </trkpt>
      <trkpt lat="10.251365" lon="-67.835618">
        <ele>439.60</ele>
        <time>2022-10-26T12:20:04Z</time>
      </trkpt>
      <trkpt lat="10.251365" lon="-67.835618">
        <ele>439.60</ele>
        <time>2022-10-26T12:20:05Z</time>
      </trkpt>
      <trkpt lat="10.251365" lon="-67.835618">
        <ele>439.60</ele>
        <time>2022-10-26T12:20:06Z</time>
      </trkpt>
      <trkpt lat="10.251365" lon="-67.835618">
        <ele>439.60</ele>
        <time>2022-10-26T12:20:07Z</time>
      </trkpt>
      <trkpt lat="10.251365" lon="-67.835618">
        <ele>439.60</ele>
        <time>2022-10-26T12:20:08Z</time>
      </trkpt>
      <trkpt lat="10.251365" lon="-67.835618">
        <ele>439.60</ele>
        <time>2022-10-26T12:20:09Z</time>
      </trkpt>
      <trkpt lat="10.251365" lon="-67.835618">
        <ele>439.60</ele>
        <time>2022-10-26T12:20:10Z</time>
      </trkpt>
      <trkpt lat="10.251365" lon="-67.835618">
        <ele>439.60</ele>
        <time>2022-10-26T12:20:11Z</time>
      </trkpt>
      <trkpt lat="10.251365" lon="-67.835618">
        <ele>439.60</ele>
        <time>2022-10-26T12:20:12Z</time>
      </trkpt>
      <trkpt lat="10.251365" lon="-67.835618">
        <ele>439.60</ele>
        <time>2022-10-26T12:20:13Z</time>
      </trkpt>
      <trkpt lat="10.251365" lon="-67.835618">
        <ele>439.60</ele>
        <time>2022-10-26T12:20:14Z</time>
      </trkpt>
      <trkpt lat="10.251365" lon="-67.835618">
        <ele>439.60</ele>
        <time>2022-10-26T12:20:15Z</time>
      </trkpt>
      <trkpt lat="10.251365" lon="-67.835618">
        <ele>439.60</ele>
        <time>2022-10-26T12:20:16Z</time>
      </trkpt>
      <trkpt lat="10.251365" lon="-67.835618">
        <ele>439.60</ele>
        <time>2022-10-26T12:20:17Z</time>
      </trkpt>
      <trkpt lat="10.251365" lon="-67.835618">
        <ele>439.60</ele>
        <time>2022-10-26T12:20:18Z</time>
      </trkpt>
      <trkpt lat="10.251365" lon="-67.835618">
        <ele>439.60</ele>
        <time>2022-10-26T12:20:19Z</time>
      </trkpt>
      <trkpt lat="10.251365" lon="-67.835618">
        <ele>439.60</ele>
        <time>2022-10-26T12:20:20Z</time>
      </trkpt>
      <trkpt lat="10.251365" lon="-67.835618">
        <ele>439.60</ele>
        <time>2022-10-26T12:20:21Z</time>
      </trkpt>
      <trkpt lat="10.251365" lon="-67.835618">
        <ele>439.60</ele>
        <time>2022-10-26T12:20:22Z</time>
      </trkpt>
      <trkpt lat="10.251365" lon="-67.835618">
        <ele>439.60</ele>
        <time>2022-10-26T12:20:24Z</time>
      </trkpt>
      <trkpt lat="10.251365" lon="-67.835618">
        <ele>439.60</ele>
        <time>2022-10-26T12:20:25Z</time>
      </trkpt>
      <trkpt lat="10.251365" lon="-67.835618">
        <ele>439.60</ele>
        <time>2022-10-26T12:20:26Z</time>
      </trkpt>
      <trkpt lat="10.251365" lon="-67.835618">
        <ele>439.60</ele>
        <time>2022-10-26T12:20:27Z</time>
      </trkpt>
      <trkpt lat="10.251365" lon="-67.835618">
        <ele>439.60</ele>
        <time>2022-10-26T12:20:28Z</time>
      </trkpt>
      <trkpt lat="10.251365" lon="-67.835618">
        <ele>439.60</ele>
        <time>2022-10-26T12:20:29Z</time>
      </trkpt>
      <trkpt lat="10.251365" lon="-67.835618">
        <ele>439.60</ele>
        <time>2022-10-26T12:20:30Z</time>
      </trkpt>
      <trkpt lat="10.251365" lon="-67.835618">
        <ele>439.60</ele>
        <time>2022-10-26T12:20:31Z</time>
      </trkpt>
      <trkpt lat="10.251365" lon="-67.835618">
        <ele>439.60</ele>
        <time>2022-10-26T12:20:32Z</time>
      </trkpt>
      <trkpt lat="10.251365" lon="-67.835618">
        <ele>439.60</ele>
        <time>2022-10-26T12:20:33Z</time>
      </trkpt>
      <trkpt lat="10.251365" lon="-67.835618">
        <ele>439.60</ele>
        <time>2022-10-26T12:20:34Z</time>
      </trkpt>
      <trkpt lat="10.251365" lon="-67.835618">
        <ele>439.60</ele>
        <time>2022-10-26T12:20:35Z</time>
      </trkpt>
      <trkpt lat="10.251365" lon="-67.835618">
        <ele>439.60</ele>
        <time>2022-10-26T12:20:36Z</time>
      </trkpt>
      <trkpt lat="10.251365" lon="-67.835618">
        <ele>439.60</ele>
        <time>2022-10-26T12:20:37Z</time>
      </trkpt>
      <trkpt lat="10.251365" lon="-67.835618">
        <ele>439.60</ele>
        <time>2022-10-26T12:20:38Z</time>
      </trkpt>
      <trkpt lat="10.251365" lon="-67.835618">
        <ele>439.60</ele>
        <time>2022-10-26T12:20:39Z</time>
      </trkpt>
      <trkpt lat="10.251365" lon="-67.835618">
        <ele>439.60</ele>
        <time>2022-10-26T12:20:40Z</time>
      </trkpt>
      <trkpt lat="10.251365" lon="-67.835618">
        <ele>439.60</ele>
        <time>2022-10-26T12:20:41Z</time>
      </trkpt>
      <trkpt lat="10.251365" lon="-67.835618">
        <ele>439.60</ele>
        <time>2022-10-26T12:20:42Z</time>
      </trkpt>
      <trkpt lat="10.251365" lon="-67.835618">
        <ele>439.60</ele>
        <time>2022-10-26T12:20:43Z</time>
      </trkpt>
      <trkpt lat="10.251365" lon="-67.835618">
        <ele>439.60</ele>
        <time>2022-10-26T12:20:44Z</time>
      </trkpt>
      <trkpt lat="10.251365" lon="-67.835618">
        <ele>439.60</ele>
        <time>2022-10-26T12:20:45Z</time>
      </trkpt>
      <trkpt lat="10.251365" lon="-67.835618">
        <ele>439.60</ele>
        <time>2022-10-26T12:20:46Z</time>
      </trkpt>
      <trkpt lat="10.251365" lon="-67.835618">
        <ele>439.60</ele>
        <time>2022-10-26T12:20:47Z</time>
      </trkpt>
      <trkpt lat="10.251365" lon="-67.835618">
        <ele>439.60</ele>
        <time>2022-10-26T12:20:48Z</time>
      </trkpt>
      <trkpt lat="10.251365" lon="-67.835618">
        <ele>439.60</ele>
        <time>2022-10-26T12:20:50Z</time>
      </trkpt>
      <trkpt lat="10.251365" lon="-67.835618">
        <ele>439.60</ele>
        <time>2022-10-26T12:20:51Z</time>
      </trkpt>
      <trkpt lat="10.251365" lon="-67.835618">
        <ele>439.60</ele>
        <time>2022-10-26T12:20:52Z</time>
      </trkpt>
      <trkpt lat="10.251365" lon="-67.835618">
        <ele>439.60</ele>
        <time>2022-10-26T12:20:53Z</time>
      </trkpt>
      <trkpt lat="10.251365" lon="-67.835618">
        <ele>439.60</ele>
        <time>2022-10-26T12:20:54Z</time>
      </trkpt>
      <trkpt lat="10.251365" lon="-67.835618">
        <ele>439.60</ele>
        <time>2022-10-26T12:20:55Z</time>
      </trkpt>
      <trkpt lat="10.251365" lon="-67.835618">
        <ele>439.60</ele>
        <time>2022-10-26T12:20:56Z</time>
      </trkpt>
      <trkpt lat="10.251365" lon="-67.835618">
        <ele>439.60</ele>
        <time>2022-10-26T12:20:57Z</time>
      </trkpt>
      <trkpt lat="10.251365" lon="-67.835618">
        <ele>439.60</ele>
        <time>2022-10-26T12:20:58Z</time>
      </trkpt>
      <trkpt lat="10.251365" lon="-67.835618">
        <ele>439.60</ele>
        <time>2022-10-26T12:20:59Z</time>
      </trkpt>
      <trkpt lat="10.251365" lon="-67.835618">
        <ele>439.60</ele>
        <time>2022-10-26T12:21:00Z</time>
      </trkpt>
      <trkpt lat="10.251365" lon="-67.835618">
        <ele>439.60</ele>
        <time>2022-10-26T12:21:01Z</time>
      </trkpt>
      <trkpt lat="10.251365" lon="-67.835618">
        <ele>439.60</ele>
        <time>2022-10-26T12:21:02Z</time>
      </trkpt>
      <trkpt lat="10.251365" lon="-67.835618">
        <ele>439.60</ele>
        <time>2022-10-26T12:21:03Z</time>
      </trkpt>
      <trkpt lat="10.251365" lon="-67.835618">
        <ele>439.60</ele>
        <time>2022-10-26T12:21:04Z</time>
      </trkpt>
      <trkpt lat="10.251365" lon="-67.835618">
        <ele>439.60</ele>
        <time>2022-10-26T12:21:05Z</time>
      </trkpt>
      <trkpt lat="10.251365" lon="-67.835618">
        <ele>439.60</ele>
        <time>2022-10-26T12:21:06Z</time>
      </trkpt>
      <trkpt lat="10.251365" lon="-67.835618">
        <ele>439.60</ele>
        <time>2022-10-26T12:21:07Z</time>
      </trkpt>
      <trkpt lat="10.251365" lon="-67.835618">
        <ele>439.60</ele>
        <time>2022-10-26T12:21:08Z</time>
      </trkpt>
      <trkpt lat="10.251365" lon="-67.835618">
        <ele>439.60</ele>
        <time>2022-10-26T12:21:09Z</time>
      </trkpt>
      <trkpt lat="10.251365" lon="-67.835618">
        <ele>439.60</ele>
        <time>2022-10-26T12:21:10Z</time>
      </trkpt>
      <trkpt lat="10.251365" lon="-67.835618">
        <ele>439.60</ele>
        <time>2022-10-26T12:21:11Z</time>
      </trkpt>
      <trkpt lat="10.251365" lon="-67.835618">
        <ele>439.60</ele>
        <time>2022-10-26T12:21:12Z</time>
      </trkpt>
      <trkpt lat="10.251365" lon="-67.835618">
        <ele>439.60</ele>
        <time>2022-10-26T12:21:13Z</time>
      </trkpt>
      <trkpt lat="10.251365" lon="-67.835618">
        <ele>439.60</ele>
        <time>2022-10-26T12:21:14Z</time>
      </trkpt>
      <trkpt lat="10.251365" lon="-67.835618">
        <ele>439.60</ele>
        <time>2022-10-26T12:21:15Z</time>
      </trkpt>
      <trkpt lat="10.251365" lon="-67.835618">
        <ele>439.60</ele>
        <time>2022-10-26T12:21:16Z</time>
      </trkpt>
      <trkpt lat="10.251365" lon="-67.835618">
        <ele>439.60</ele>
        <time>2022-10-26T12:21:17Z</time>
      </trkpt>
      <trkpt lat="10.251365" lon="-67.835618">
        <ele>439.60</ele>
        <time>2022-10-26T12:21:18Z</time>
      </trkpt>
      <trkpt lat="10.251365" lon="-67.835618">
        <ele>439.60</ele>
        <time>2022-10-26T12:21:19Z</time>
      </trkpt>
      <trkpt lat="10.251365" lon="-67.835618">
        <ele>439.60</ele>
        <time>2022-10-26T12:21:20Z</time>
      </trkpt>
      <trkpt lat="10.251365" lon="-67.835618">
        <ele>439.60</ele>
        <time>2022-10-26T12:21:21Z</time>
      </trkpt>
      <trkpt lat="10.251365" lon="-67.835618">
        <ele>439.60</ele>
        <time>2022-10-26T12:21:22Z</time>
      </trkpt>
      <trkpt lat="10.251365" lon="-67.835618">
        <ele>439.60</ele>
        <time>2022-10-26T12:21:23Z</time>
      </trkpt>
      <trkpt lat="10.251365" lon="-67.835618">
        <ele>439.60</ele>
        <time>2022-10-26T12:21:24Z</time>
      </trkpt>
      <trkpt lat="10.251365" lon="-67.835618">
        <ele>439.60</ele>
        <time>2022-10-26T12:21:25Z</time>
      </trkpt>
      <trkpt lat="10.251365" lon="-67.835618">
        <ele>439.60</ele>
        <time>2022-10-26T12:21:26Z</time>
      </trkpt>
      <trkpt lat="10.251365" lon="-67.835618">
        <ele>439.60</ele>
        <time>2022-10-26T12:21:27Z</time>
      </trkpt>
      <trkpt lat="10.251365" lon="-67.835618">
        <ele>439.60</ele>
        <time>2022-10-26T12:21:28Z</time>
      </trkpt>
      <trkpt lat="10.251365" lon="-67.835618">
        <ele>439.60</ele>
        <time>2022-10-26T12:21:29Z</time>
      </trkpt>
      <trkpt lat="10.251365" lon="-67.835618">
        <ele>439.60</ele>
        <time>2022-10-26T12:21:30Z</time>
      </trkpt>
      <trkpt lat="10.251365" lon="-67.835618">
        <ele>439.60</ele>
        <time>2022-10-26T12:21:31Z</time>
      </trkpt>
      <trkpt lat="10.251365" lon="-67.835618">
        <ele>439.60</ele>
        <time>2022-10-26T12:21:32Z</time>
      </trkpt>
      <trkpt lat="10.251365" lon="-67.835618">
        <ele>439.60</ele>
        <time>2022-10-26T12:21:33Z</time>
      </trkpt>
      <trkpt lat="10.251365" lon="-67.835618">
        <ele>439.60</ele>
        <time>2022-10-26T12:21:34Z</time>
      </trkpt>
      <trkpt lat="10.251365" lon="-67.835618">
        <ele>439.60</ele>
        <time>2022-10-26T12:21:35Z</time>
      </trkpt>
      <trkpt lat="10.251365" lon="-67.835618">
        <ele>439.60</ele>
        <time>2022-10-26T12:21:36Z</time>
      </trkpt>
      <trkpt lat="10.251365" lon="-67.835618">
        <ele>439.60</ele>
        <time>2022-10-26T12:21:37Z</time>
      </trkpt>
      <trkpt lat="10.251365" lon="-67.835618">
        <ele>439.60</ele>
        <time>2022-10-26T12:21:38Z</time>
      </trkpt>
      <trkpt lat="10.251365" lon="-67.835618">
        <ele>439.60</ele>
        <time>2022-10-26T12:21:40Z</time>
      </trkpt>
      <trkpt lat="10.251365" lon="-67.835618">
        <ele>439.60</ele>
        <time>2022-10-26T12:21:41Z</time>
      </trkpt>
      <trkpt lat="10.251365" lon="-67.835618">
        <ele>439.60</ele>
        <time>2022-10-26T12:21:42Z</time>
      </trkpt>
      <trkpt lat="10.251365" lon="-67.835618">
        <ele>439.60</ele>
        <time>2022-10-26T12:21:43Z</time>
      </trkpt>
      <trkpt lat="10.251365" lon="-67.835618">
        <ele>439.60</ele>
        <time>2022-10-26T12:21:44Z</time>
      </trkpt>
      <trkpt lat="10.251365" lon="-67.835618">
        <ele>439.60</ele>
        <time>2022-10-26T12:21:45Z</time>
      </trkpt>
      <trkpt lat="10.251365" lon="-67.835618">
        <ele>439.60</ele>
        <time>2022-10-26T12:21:46Z</time>
      </trkpt>
      <trkpt lat="10.251365" lon="-67.835618">
        <ele>439.60</ele>
        <time>2022-10-26T12:21:47Z</time>
      </trkpt>
      <trkpt lat="10.251365" lon="-67.835618">
        <ele>439.60</ele>
        <time>2022-10-26T12:21:48Z</time>
      </trkpt>
      <trkpt lat="10.251365" lon="-67.835618">
        <ele>439.60</ele>
        <time>2022-10-26T12:21:49Z</time>
      </trkpt>
      <trkpt lat="10.251365" lon="-67.835618">
        <ele>439.60</ele>
        <time>2022-10-26T12:21:50Z</time>
      </trkpt>
      <trkpt lat="10.251365" lon="-67.835618">
        <ele>439.60</ele>
        <time>2022-10-26T12:21:51Z</time>
      </trkpt>
      <trkpt lat="10.251365" lon="-67.835618">
        <ele>439.60</ele>
        <time>2022-10-26T12:21:52Z</time>
      </trkpt>
      <trkpt lat="10.251365" lon="-67.835618">
        <ele>439.60</ele>
        <time>2022-10-26T12:21:53Z</time>
      </trkpt>
      <trkpt lat="10.251365" lon="-67.835618">
        <ele>439.60</ele>
        <time>2022-10-26T12:21:54Z</time>
      </trkpt>
      <trkpt lat="10.251365" lon="-67.835618">
        <ele>439.60</ele>
        <time>2022-10-26T12:21:55Z</time>
      </trkpt>
      <trkpt lat="10.251365" lon="-67.835618">
        <ele>439.60</ele>
        <time>2022-10-26T12:21:56Z</time>
      </trkpt>
      <trkpt lat="10.251365" lon="-67.835618">
        <ele>439.60</ele>
        <time>2022-10-26T12:21:57Z</time>
      </trkpt>
      <trkpt lat="10.251365" lon="-67.835618">
        <ele>439.60</ele>
        <time>2022-10-26T12:21:58Z</time>
      </trkpt>
      <trkpt lat="10.251365" lon="-67.835618">
        <ele>439.60</ele>
        <time>2022-10-26T12:21:59Z</time>
      </trkpt>
      <trkpt lat="10.251365" lon="-67.835618">
        <ele>439.60</ele>
        <time>2022-10-26T12:22:00Z</time>
      </trkpt>
      <trkpt lat="10.251365" lon="-67.835618">
        <ele>439.60</ele>
        <time>2022-10-26T12:22:01Z</time>
      </trkpt>
      <trkpt lat="10.251365" lon="-67.835618">
        <ele>439.60</ele>
        <time>2022-10-26T12:22:02Z</time>
      </trkpt>
      <trkpt lat="10.251365" lon="-67.835618">
        <ele>439.60</ele>
        <time>2022-10-26T12:22:03Z</time>
      </trkpt>
      <trkpt lat="10.251365" lon="-67.835618">
        <ele>439.60</ele>
        <time>2022-10-26T12:22:04Z</time>
      </trkpt>
      <trkpt lat="10.251365" lon="-67.835618">
        <ele>439.60</ele>
        <time>2022-10-26T12:22:05Z</time>
      </trkpt>
      <trkpt lat="10.251365" lon="-67.835618">
        <ele>439.60</ele>
        <time>2022-10-26T12:22:06Z</time>
      </trkpt>
      <trkpt lat="10.251365" lon="-67.835618">
        <ele>439.60</ele>
        <time>2022-10-26T12:22:07Z</time>
      </trkpt>
      <trkpt lat="10.251365" lon="-67.835618">
        <ele>439.60</ele>
        <time>2022-10-26T12:22:08Z</time>
      </trkpt>
      <trkpt lat="10.251365" lon="-67.835618">
        <ele>439.60</ele>
        <time>2022-10-26T12:22:09Z</time>
      </trkpt>
      <trkpt lat="10.251365" lon="-67.835618">
        <ele>439.60</ele>
        <time>2022-10-26T12:22:10Z</time>
      </trkpt>
      <trkpt lat="10.251365" lon="-67.835618">
        <ele>439.60</ele>
        <time>2022-10-26T12:22:11Z</time>
      </trkpt>
      <trkpt lat="10.251365" lon="-67.835618">
        <ele>439.60</ele>
        <time>2022-10-26T12:22:12Z</time>
      </trkpt>
      <trkpt lat="10.251365" lon="-67.835618">
        <ele>439.60</ele>
        <time>2022-10-26T12:22:13Z</time>
      </trkpt>
      <trkpt lat="10.251365" lon="-67.835618">
        <ele>439.60</ele>
        <time>2022-10-26T12:22:14Z</time>
      </trkpt>
      <trkpt lat="10.251365" lon="-67.835618">
        <ele>439.60</ele>
        <time>2022-10-26T12:22:15Z</time>
      </trkpt>
      <trkpt lat="10.251365" lon="-67.835618">
        <ele>439.60</ele>
        <time>2022-10-26T12:22:16Z</time>
      </trkpt>
      <trkpt lat="10.251365" lon="-67.835618">
        <ele>439.60</ele>
        <time>2022-10-26T12:22:17Z</time>
      </trkpt>
      <trkpt lat="10.251365" lon="-67.835618">
        <ele>439.60</ele>
        <time>2022-10-26T12:22:19Z</time>
      </trkpt>
      <trkpt lat="10.251365" lon="-67.835618">
        <ele>439.60</ele>
        <time>2022-10-26T12:22:20Z</time>
      </trkpt>
      <trkpt lat="10.251365" lon="-67.835618">
        <ele>439.60</ele>
        <time>2022-10-26T12:22:21Z</time>
      </trkpt>
      <trkpt lat="10.251365" lon="-67.835618">
        <ele>439.60</ele>
        <time>2022-10-26T12:22:22Z</time>
      </trkpt>
      <trkpt lat="10.251365" lon="-67.835618">
        <ele>439.60</ele>
        <time>2022-10-26T12:22:23Z</time>
      </trkpt>
      <trkpt lat="10.251365" lon="-67.835618">
        <ele>439.60</ele>
        <time>2022-10-26T12:22:24Z</time>
      </trkpt>
      <trkpt lat="10.251365" lon="-67.835618">
        <ele>439.60</ele>
        <time>2022-10-26T12:22:25Z</time>
      </trkpt>
      <trkpt lat="10.251365" lon="-67.835618">
        <ele>439.60</ele>
        <time>2022-10-26T12:22:26Z</time>
      </trkpt>
      <trkpt lat="10.251365" lon="-67.835618">
        <ele>439.60</ele>
        <time>2022-10-26T12:22:27Z</time>
      </trkpt>
      <trkpt lat="10.251365" lon="-67.835618">
        <ele>439.60</ele>
        <time>2022-10-26T12:22:28Z</time>
      </trkpt>
      <trkpt lat="10.251349" lon="-67.835687">
        <ele>439.50</ele>
        <time>2022-10-26T12:22:30Z</time>
      </trkpt>
      <trkpt lat="10.251344" lon="-67.835701">
        <ele>439.50</ele>
        <time>2022-10-26T12:22:31Z</time>
      </trkpt>
      <trkpt lat="10.251335" lon="-67.835710">
        <ele>439.50</ele>
        <time>2022-10-26T12:22:32Z</time>
      </trkpt>
      <trkpt lat="10.251331" lon="-67.835714">
        <ele>439.50</ele>
        <time>2022-10-26T12:22:33Z</time>
      </trkpt>
      <trkpt lat="10.251322" lon="-67.835724">
        <ele>439.50</ele>
        <time>2022-10-26T12:22:34Z</time>
      </trkpt>
      <trkpt lat="10.251297" lon="-67.835748">
        <ele>439.40</ele>
        <time>2022-10-26T12:22:35Z</time>
      </trkpt>
      <trkpt lat="10.251287" lon="-67.835758">
        <ele>439.40</ele>
        <time>2022-10-26T12:22:36Z</time>
      </trkpt>
      <trkpt lat="10.251273" lon="-67.835773">
        <ele>439.30</ele>
        <time>2022-10-26T12:22:37Z</time>
      </trkpt>
      <trkpt lat="10.251245" lon="-67.835827">
        <ele>439.20</ele>
        <time>2022-10-26T12:22:39Z</time>
      </trkpt>
      <trkpt lat="10.251230" lon="-67.835859">
        <ele>439.10</ele>
        <time>2022-10-26T12:22:40Z</time>
      </trkpt>
      <trkpt lat="10.251201" lon="-67.835921">
        <ele>439.00</ele>
        <time>2022-10-26T12:22:42Z</time>
      </trkpt>
      <trkpt lat="10.251190" lon="-67.835951">
        <ele>438.90</ele>
        <time>2022-10-26T12:22:43Z</time>
      </trkpt>
      <trkpt lat="10.251178" lon="-67.835981">
        <ele>438.90</ele>
        <time>2022-10-26T12:22:44Z</time>
      </trkpt>
      <trkpt lat="10.251165" lon="-67.836014">
        <ele>438.90</ele>
        <time>2022-10-26T12:22:45Z</time>
      </trkpt>
      <trkpt lat="10.251149" lon="-67.836052">
        <ele>438.80</ele>
        <time>2022-10-26T12:22:46Z</time>
      </trkpt>
      <trkpt lat="10.251130" lon="-67.836092">
        <ele>438.70</ele>
        <time>2022-10-26T12:22:47Z</time>
      </trkpt>
      <trkpt lat="10.251109" lon="-67.836131">
        <ele>438.70</ele>
        <time>2022-10-26T12:22:48Z</time>
      </trkpt>
      <trkpt lat="10.251090" lon="-67.836171">
        <ele>438.70</ele>
        <time>2022-10-26T12:22:49Z</time>
      </trkpt>
      <trkpt lat="10.251052" lon="-67.836250">
        <ele>438.60</ele>
        <time>2022-10-26T12:22:51Z</time>
      </trkpt>
      <trkpt lat="10.251032" lon="-67.836286">
        <ele>438.60</ele>
        <time>2022-10-26T12:22:52Z</time>
      </trkpt>
      <trkpt lat="10.251008" lon="-67.836320">
        <ele>438.60</ele>
        <time>2022-10-26T12:22:53Z</time>
      </trkpt>
      <trkpt lat="10.250984" lon="-67.836350">
        <ele>438.60</ele>
        <time>2022-10-26T12:22:54Z</time>
      </trkpt>
      <trkpt lat="10.250963" lon="-67.836379">
        <ele>438.50</ele>
        <time>2022-10-26T12:22:55Z</time>
      </trkpt>
      <trkpt lat="10.250921" lon="-67.836434">
        <ele>438.50</ele>
        <time>2022-10-26T12:22:57Z</time>
      </trkpt>
      <trkpt lat="10.250904" lon="-67.836458">
        <ele>438.50</ele>
        <time>2022-10-26T12:22:58Z</time>
      </trkpt>
      <trkpt lat="10.250884" lon="-67.836506">
        <ele>438.50</ele>
        <time>2022-10-26T12:23:00Z</time>
      </trkpt>
      <trkpt lat="10.250867" lon="-67.836540">
        <ele>438.40</ele>
        <time>2022-10-26T12:23:01Z</time>
      </trkpt>
      <trkpt lat="10.250862" lon="-67.836551">
        <ele>438.40</ele>
        <time>2022-10-26T12:23:02Z</time>
      </trkpt>
      <trkpt lat="10.250846" lon="-67.836592">
        <ele>438.40</ele>
        <time>2022-10-26T12:23:04Z</time>
      </trkpt>
      <trkpt lat="10.250840" lon="-67.836620">
        <ele>438.40</ele>
        <time>2022-10-26T12:23:05Z</time>
      </trkpt>
      <trkpt lat="10.250838" lon="-67.836629">
        <ele>438.40</ele>
        <time>2022-10-26T12:23:06Z</time>
      </trkpt>
      <trkpt lat="10.250829" lon="-67.836651">
        <ele>438.40</ele>
        <time>2022-10-26T12:23:07Z</time>
      </trkpt>
      <trkpt lat="10.250804" lon="-67.836701">
        <ele>438.40</ele>
        <time>2022-10-26T12:23:09Z</time>
      </trkpt>
      <trkpt lat="10.250791" lon="-67.836728">
        <ele>438.40</ele>
        <time>2022-10-26T12:23:10Z</time>
      </trkpt>
      <trkpt lat="10.250779" lon="-67.836757">
        <ele>438.30</ele>
        <time>2022-10-26T12:23:11Z</time>
      </trkpt>
      <trkpt lat="10.250765" lon="-67.836785">
        <ele>438.30</ele>
        <time>2022-10-26T12:23:12Z</time>
      </trkpt>
      <trkpt lat="10.250751" lon="-67.836814">
        <ele>438.30</ele>
        <time>2022-10-26T12:23:13Z</time>
      </trkpt>
      <trkpt lat="10.250737" lon="-67.836844">
        <ele>438.30</ele>
        <time>2022-10-26T12:23:14Z</time>
      </trkpt>
      <trkpt lat="10.250715" lon="-67.836896">
        <ele>438.30</ele>
        <time>2022-10-26T12:23:16Z</time>
      </trkpt>
      <trkpt lat="10.250705" lon="-67.836920">
        <ele>438.30</ele>
        <time>2022-10-26T12:23:17Z</time>
      </trkpt>
      <trkpt lat="10.250689" lon="-67.836951">
        <ele>438.30</ele>
        <time>2022-10-26T12:23:18Z</time>
      </trkpt>
      <trkpt lat="10.250685" lon="-67.836961">
        <ele>438.30</ele>
        <time>2022-10-26T12:23:19Z</time>
      </trkpt>
      <trkpt lat="10.250665" lon="-67.836990">
        <ele>438.30</ele>
        <time>2022-10-26T12:23:20Z</time>
      </trkpt>
      <trkpt lat="10.250658" lon="-67.837002">
        <ele>438.30</ele>
        <time>2022-10-26T12:23:21Z</time>
      </trkpt>
      <trkpt lat="10.250646" lon="-67.837028">
        <ele>438.30</ele>
        <time>2022-10-26T12:23:22Z</time>
      </trkpt>
      <trkpt lat="10.250622" lon="-67.837089">
        <ele>438.20</ele>
        <time>2022-10-26T12:23:24Z</time>
      </trkpt>
      <trkpt lat="10.250608" lon="-67.837125">
        <ele>438.20</ele>
        <time>2022-10-26T12:23:25Z</time>
      </trkpt>
      <trkpt lat="10.250594" lon="-67.837159">
        <ele>438.20</ele>
        <time>2022-10-26T12:23:26Z</time>
      </trkpt>
      <trkpt lat="10.250578" lon="-67.837195">
        <ele>438.20</ele>
        <time>2022-10-26T12:23:27Z</time>
      </trkpt>
      <trkpt lat="10.250558" lon="-67.837224">
        <ele>438.20</ele>
        <time>2022-10-26T12:23:28Z</time>
      </trkpt>
      <trkpt lat="10.250539" lon="-67.837254">
        <ele>438.10</ele>
        <time>2022-10-26T12:23:29Z</time>
      </trkpt>
      <trkpt lat="10.250503" lon="-67.837313">
        <ele>438.10</ele>
        <time>2022-10-26T12:23:31Z</time>
      </trkpt>
      <trkpt lat="10.250483" lon="-67.837340">
        <ele>438.10</ele>
        <time>2022-10-26T12:23:32Z</time>
      </trkpt>
      <trkpt lat="10.250461" lon="-67.837372">
        <ele>438.10</ele>
        <time>2022-10-26T12:23:33Z</time>
      </trkpt>
      <trkpt lat="10.250456" lon="-67.837383">
        <ele>438.10</ele>
        <time>2022-10-26T12:23:34Z</time>
      </trkpt>
      <trkpt lat="10.250438" lon="-67.837417">
        <ele>438.10</ele>
        <time>2022-10-26T12:23:35Z</time>
      </trkpt>
      <trkpt lat="10.250432" lon="-67.837429">
        <ele>438.10</ele>
        <time>2022-10-26T12:23:36Z</time>
      </trkpt>
      <trkpt lat="10.250420" lon="-67.837458">
        <ele>438.10</ele>
        <time>2022-10-26T12:23:37Z</time>
      </trkpt>
      <trkpt lat="10.250406" lon="-67.837491">
        <ele>438.00</ele>
        <time>2022-10-26T12:23:38Z</time>
      </trkpt>
      <trkpt lat="10.250392" lon="-67.837526">
        <ele>438.00</ele>
        <time>2022-10-26T12:23:39Z</time>
      </trkpt>
      <trkpt lat="10.250374" lon="-67.837563">
        <ele>438.00</ele>
        <time>2022-10-26T12:23:40Z</time>
      </trkpt>
      <trkpt lat="10.250357" lon="-67.837603">
        <ele>438.00</ele>
        <time>2022-10-26T12:23:41Z</time>
      </trkpt>
      <trkpt lat="10.250323" lon="-67.837691">
        <ele>438.00</ele>
        <time>2022-10-26T12:23:43Z</time>
      </trkpt>
      <trkpt lat="10.250307" lon="-67.837737">
        <ele>437.90</ele>
        <time>2022-10-26T12:23:44Z</time>
      </trkpt>
      <trkpt lat="10.250290" lon="-67.837786">
        <ele>437.90</ele>
        <time>2022-10-26T12:23:45Z</time>
      </trkpt>
      <trkpt lat="10.250270" lon="-67.837835">
        <ele>437.90</ele>
        <time>2022-10-26T12:23:46Z</time>
      </trkpt>
      <trkpt lat="10.250247" lon="-67.837884">
        <ele>437.90</ele>
        <time>2022-10-26T12:23:47Z</time>
      </trkpt>
      <trkpt lat="10.250224" lon="-67.837931">
        <ele>437.90</ele>
        <time>2022-10-26T12:23:48Z</time>
      </trkpt>
      <trkpt lat="10.250200" lon="-67.837981">
        <ele>437.90</ele>
        <time>2022-10-26T12:23:49Z</time>
      </trkpt>
      <trkpt lat="10.250148" lon="-67.838082">
        <ele>437.80</ele>
        <time>2022-10-26T12:23:51Z</time>
      </trkpt>
      <trkpt lat="10.250096" lon="-67.838183">
        <ele>437.80</ele>
        <time>2022-10-26T12:23:53Z</time>
      </trkpt>
      <trkpt lat="10.250073" lon="-67.838237">
        <ele>437.80</ele>
        <time>2022-10-26T12:23:54Z</time>
      </trkpt>
      <trkpt lat="10.250049" lon="-67.838294">
        <ele>437.80</ele>
        <time>2022-10-26T12:23:55Z</time>
      </trkpt>
      <trkpt lat="10.250021" lon="-67.838353">
        <ele>437.80</ele>
        <time>2022-10-26T12:23:56Z</time>
      </trkpt>
      <trkpt lat="10.249991" lon="-67.838411">
        <ele>437.80</ele>
        <time>2022-10-26T12:23:57Z</time>
      </trkpt>
      <trkpt lat="10.249959" lon="-67.838471">
        <ele>437.80</ele>
        <time>2022-10-26T12:23:58Z</time>
      </trkpt>
      <trkpt lat="10.249929" lon="-67.838533">
        <ele>437.80</ele>
        <time>2022-10-26T12:23:59Z</time>
      </trkpt>
      <trkpt lat="10.249901" lon="-67.838595">
        <ele>437.80</ele>
        <time>2022-10-26T12:24:00Z</time>
      </trkpt>
      <trkpt lat="10.249872" lon="-67.838659">
        <ele>437.80</ele>
        <time>2022-10-26T12:24:01Z</time>
      </trkpt>
      <trkpt lat="10.249843" lon="-67.838723">
        <ele>437.80</ele>
        <time>2022-10-26T12:24:02Z</time>
      </trkpt>
      <trkpt lat="10.249812" lon="-67.838790">
        <ele>437.80</ele>
        <time>2022-10-26T12:24:03Z</time>
      </trkpt>
      <trkpt lat="10.249744" lon="-67.838921">
        <ele>437.70</ele>
        <time>2022-10-26T12:24:05Z</time>
      </trkpt>
      <trkpt lat="10.249711" lon="-67.838984">
        <ele>437.70</ele>
        <time>2022-10-26T12:24:06Z</time>
      </trkpt>
      <trkpt lat="10.249682" lon="-67.839048">
        <ele>437.70</ele>
        <time>2022-10-26T12:24:07Z</time>
      </trkpt>
      <trkpt lat="10.249648" lon="-67.839112">
        <ele>437.80</ele>
        <time>2022-10-26T12:24:08Z</time>
      </trkpt>
      <trkpt lat="10.249613" lon="-67.839175">
        <ele>437.80</ele>
        <time>2022-10-26T12:24:09Z</time>
      </trkpt>
      <trkpt lat="10.249580" lon="-67.839237">
        <ele>437.80</ele>
        <time>2022-10-26T12:24:10Z</time>
      </trkpt>
      <trkpt lat="10.249544" lon="-67.839298">
        <ele>437.80</ele>
        <time>2022-10-26T12:24:11Z</time>
      </trkpt>
      <trkpt lat="10.249510" lon="-67.839357">
        <ele>437.80</ele>
        <time>2022-10-26T12:24:12Z</time>
      </trkpt>
      <trkpt lat="10.249477" lon="-67.839416">
        <ele>437.80</ele>
        <time>2022-10-26T12:24:13Z</time>
      </trkpt>
      <trkpt lat="10.249445" lon="-67.839476">
        <ele>437.80</ele>
        <time>2022-10-26T12:24:14Z</time>
      </trkpt>
      <trkpt lat="10.249415" lon="-67.839533">
        <ele>437.80</ele>
        <time>2022-10-26T12:24:15Z</time>
      </trkpt>
      <trkpt lat="10.249382" lon="-67.839590">
        <ele>437.90</ele>
        <time>2022-10-26T12:24:16Z</time>
      </trkpt>
      <trkpt lat="10.249346" lon="-67.839647">
        <ele>437.90</ele>
        <time>2022-10-26T12:24:17Z</time>
      </trkpt>
      <trkpt lat="10.249308" lon="-67.839702">
        <ele>437.90</ele>
        <time>2022-10-26T12:24:18Z</time>
      </trkpt>
      <trkpt lat="10.249271" lon="-67.839756">
        <ele>438.00</ele>
        <time>2022-10-26T12:24:19Z</time>
      </trkpt>
      <trkpt lat="10.249234" lon="-67.839813">
        <ele>438.00</ele>
        <time>2022-10-26T12:24:20Z</time>
      </trkpt>
      <trkpt lat="10.249199" lon="-67.839871">
        <ele>438.00</ele>
        <time>2022-10-26T12:24:21Z</time>
      </trkpt>
      <trkpt lat="10.249165" lon="-67.839930">
        <ele>438.00</ele>
        <time>2022-10-26T12:24:22Z</time>
      </trkpt>
      <trkpt lat="10.249132" lon="-67.839990">
        <ele>438.00</ele>
        <time>2022-10-26T12:24:23Z</time>
      </trkpt>
      <trkpt lat="10.249099" lon="-67.840052">
        <ele>438.00</ele>
        <time>2022-10-26T12:24:24Z</time>
      </trkpt>
      <trkpt lat="10.249068" lon="-67.840115">
        <ele>438.00</ele>
        <time>2022-10-26T12:24:25Z</time>
      </trkpt>
      <trkpt lat="10.249035" lon="-67.840180">
        <ele>438.10</ele>
        <time>2022-10-26T12:24:26Z</time>
      </trkpt>
      <trkpt lat="10.249000" lon="-67.840243">
        <ele>438.10</ele>
        <time>2022-10-26T12:24:27Z</time>
      </trkpt>
      <trkpt lat="10.248966" lon="-67.840305">
        <ele>438.10</ele>
        <time>2022-10-26T12:24:28Z</time>
      </trkpt>
      <trkpt lat="10.248931" lon="-67.840364">
        <ele>438.10</ele>
        <time>2022-10-26T12:24:29Z</time>
      </trkpt>
      <trkpt lat="10.248900" lon="-67.840424">
        <ele>438.20</ele>
        <time>2022-10-26T12:24:30Z</time>
      </trkpt>
      <trkpt lat="10.248867" lon="-67.840482">
        <ele>438.20</ele>
        <time>2022-10-26T12:24:31Z</time>
      </trkpt>
      <trkpt lat="10.248833" lon="-67.840539">
        <ele>438.20</ele>
        <time>2022-10-26T12:24:32Z</time>
      </trkpt>
      <trkpt lat="10.248799" lon="-67.840595">
        <ele>438.20</ele>
        <time>2022-10-26T12:24:33Z</time>
      </trkpt>
      <trkpt lat="10.248764" lon="-67.840654">
        <ele>438.30</ele>
        <time>2022-10-26T12:24:34Z</time>
      </trkpt>
      <trkpt lat="10.248727" lon="-67.840714">
        <ele>438.30</ele>
        <time>2022-10-26T12:24:35Z</time>
      </trkpt>
      <trkpt lat="10.248688" lon="-67.840775">
        <ele>438.30</ele>
        <time>2022-10-26T12:24:36Z</time>
      </trkpt>
      <trkpt lat="10.248647" lon="-67.840837">
        <ele>438.40</ele>
        <time>2022-10-26T12:24:37Z</time>
      </trkpt>
      <trkpt lat="10.248609" lon="-67.840903">
        <ele>438.40</ele>
        <time>2022-10-26T12:24:38Z</time>
      </trkpt>
      <trkpt lat="10.248571" lon="-67.840969">
        <ele>438.40</ele>
        <time>2022-10-26T12:24:39Z</time>
      </trkpt>
      <trkpt lat="10.248534" lon="-67.841036">
        <ele>438.40</ele>
        <time>2022-10-26T12:24:40Z</time>
      </trkpt>
      <trkpt lat="10.248499" lon="-67.841102">
        <ele>438.50</ele>
        <time>2022-10-26T12:24:41Z</time>
      </trkpt>
      <trkpt lat="10.248464" lon="-67.841168">
        <ele>438.50</ele>
        <time>2022-10-26T12:24:42Z</time>
      </trkpt>
      <trkpt lat="10.248429" lon="-67.841234">
        <ele>438.50</ele>
        <time>2022-10-26T12:24:43Z</time>
      </trkpt>
      <trkpt lat="10.248396" lon="-67.841301">
        <ele>438.60</ele>
        <time>2022-10-26T12:24:44Z</time>
      </trkpt>
      <trkpt lat="10.248362" lon="-67.841367">
        <ele>438.60</ele>
        <time>2022-10-26T12:24:45Z</time>
      </trkpt>
      <trkpt lat="10.248329" lon="-67.841433">
        <ele>438.60</ele>
        <time>2022-10-26T12:24:46Z</time>
      </trkpt>
      <trkpt lat="10.248297" lon="-67.841497">
        <ele>438.60</ele>
        <time>2022-10-26T12:24:47Z</time>
      </trkpt>
      <trkpt lat="10.248263" lon="-67.841561">
        <ele>438.70</ele>
        <time>2022-10-26T12:24:48Z</time>
      </trkpt>
      <trkpt lat="10.248229" lon="-67.841627">
        <ele>438.70</ele>
        <time>2022-10-26T12:24:49Z</time>
      </trkpt>
      <trkpt lat="10.248193" lon="-67.841694">
        <ele>438.70</ele>
        <time>2022-10-26T12:24:50Z</time>
      </trkpt>
      <trkpt lat="10.248158" lon="-67.841760">
        <ele>438.80</ele>
        <time>2022-10-26T12:24:51Z</time>
      </trkpt>
      <trkpt lat="10.248122" lon="-67.841830">
        <ele>438.80</ele>
        <time>2022-10-26T12:24:52Z</time>
      </trkpt>
      <trkpt lat="10.248083" lon="-67.841900">
        <ele>438.80</ele>
        <time>2022-10-26T12:24:53Z</time>
      </trkpt>
      <trkpt lat="10.248044" lon="-67.841967">
        <ele>438.90</ele>
        <time>2022-10-26T12:24:54Z</time>
      </trkpt>
      <trkpt lat="10.248001" lon="-67.842033">
        <ele>438.90</ele>
        <time>2022-10-26T12:24:55Z</time>
      </trkpt>
      <trkpt lat="10.247958" lon="-67.842095">
        <ele>439.00</ele>
        <time>2022-10-26T12:24:56Z</time>
      </trkpt>
      <trkpt lat="10.247915" lon="-67.842154">
        <ele>439.00</ele>
        <time>2022-10-26T12:24:57Z</time>
      </trkpt>
      <trkpt lat="10.247874" lon="-67.842210">
        <ele>439.10</ele>
        <time>2022-10-26T12:24:58Z</time>
      </trkpt>
      <trkpt lat="10.247838" lon="-67.842267">
        <ele>439.10</ele>
        <time>2022-10-26T12:24:59Z</time>
      </trkpt>
      <trkpt lat="10.247807" lon="-67.842323">
        <ele>439.10</ele>
        <time>2022-10-26T12:25:00Z</time>
      </trkpt>
      <trkpt lat="10.247781" lon="-67.842382">
        <ele>439.20</ele>
        <time>2022-10-26T12:25:01Z</time>
      </trkpt>
      <trkpt lat="10.247753" lon="-67.842440">
        <ele>439.20</ele>
        <time>2022-10-26T12:25:02Z</time>
      </trkpt>
      <trkpt lat="10.247722" lon="-67.842499">
        <ele>439.20</ele>
        <time>2022-10-26T12:25:03Z</time>
      </trkpt>
      <trkpt lat="10.247690" lon="-67.842554">
        <ele>439.20</ele>
        <time>2022-10-26T12:25:04Z</time>
      </trkpt>
      <trkpt lat="10.247658" lon="-67.842611">
        <ele>439.20</ele>
        <time>2022-10-26T12:25:05Z</time>
      </trkpt>
      <trkpt lat="10.247627" lon="-67.842669">
        <ele>439.30</ele>
        <time>2022-10-26T12:25:06Z</time>
      </trkpt>
      <trkpt lat="10.247563" lon="-67.842779">
        <ele>439.30</ele>
        <time>2022-10-26T12:25:08Z</time>
      </trkpt>
      <trkpt lat="10.247532" lon="-67.842832">
        <ele>439.30</ele>
        <time>2022-10-26T12:25:09Z</time>
      </trkpt>
      <trkpt lat="10.247504" lon="-67.842886">
        <ele>439.30</ele>
        <time>2022-10-26T12:25:10Z</time>
      </trkpt>
      <trkpt lat="10.247477" lon="-67.842939">
        <ele>439.30</ele>
        <time>2022-10-26T12:25:11Z</time>
      </trkpt>
      <trkpt lat="10.247447" lon="-67.842991">
        <ele>439.30</ele>
        <time>2022-10-26T12:25:12Z</time>
      </trkpt>
      <trkpt lat="10.247417" lon="-67.843043">
        <ele>439.30</ele>
        <time>2022-10-26T12:25:13Z</time>
      </trkpt>
      <trkpt lat="10.247384" lon="-67.843095">
        <ele>439.30</ele>
        <time>2022-10-26T12:25:14Z</time>
      </trkpt>
      <trkpt lat="10.247351" lon="-67.843147">
        <ele>439.30</ele>
        <time>2022-10-26T12:25:15Z</time>
      </trkpt>
      <trkpt lat="10.247316" lon="-67.843198">
        <ele>439.40</ele>
        <time>2022-10-26T12:25:16Z</time>
      </trkpt>
      <trkpt lat="10.247287" lon="-67.843252">
        <ele>439.40</ele>
        <time>2022-10-26T12:25:17Z</time>
      </trkpt>
      <trkpt lat="10.247226" lon="-67.843358">
        <ele>439.40</ele>
        <time>2022-10-26T12:25:19Z</time>
      </trkpt>
      <trkpt lat="10.247197" lon="-67.843413">
        <ele>439.50</ele>
        <time>2022-10-26T12:25:20Z</time>
      </trkpt>
      <trkpt lat="10.247171" lon="-67.843464">
        <ele>439.50</ele>
        <time>2022-10-26T12:25:21Z</time>
      </trkpt>
      <trkpt lat="10.247143" lon="-67.843513">
        <ele>439.50</ele>
        <time>2022-10-26T12:25:22Z</time>
      </trkpt>
      <trkpt lat="10.247116" lon="-67.843564">
        <ele>439.60</ele>
        <time>2022-10-26T12:25:23Z</time>
      </trkpt>
      <trkpt lat="10.247091" lon="-67.843614">
        <ele>439.60</ele>
        <time>2022-10-26T12:25:24Z</time>
      </trkpt>
      <trkpt lat="10.247065" lon="-67.843664">
        <ele>439.70</ele>
        <time>2022-10-26T12:25:25Z</time>
      </trkpt>
      <trkpt lat="10.247036" lon="-67.843713">
        <ele>439.70</ele>
        <time>2022-10-26T12:25:26Z</time>
      </trkpt>
      <trkpt lat="10.246975" lon="-67.843816">
        <ele>439.80</ele>
        <time>2022-10-26T12:25:28Z</time>
      </trkpt>
      <trkpt lat="10.246942" lon="-67.843870">
        <ele>439.80</ele>
        <time>2022-10-26T12:25:29Z</time>
      </trkpt>
      <trkpt lat="10.246910" lon="-67.843921">
        <ele>439.90</ele>
        <time>2022-10-26T12:25:30Z</time>
      </trkpt>
      <trkpt lat="10.246877" lon="-67.843971">
        <ele>439.90</ele>
        <time>2022-10-26T12:25:31Z</time>
      </trkpt>
      <trkpt lat="10.246842" lon="-67.844017">
        <ele>439.90</ele>
        <time>2022-10-26T12:25:32Z</time>
      </trkpt>
      <trkpt lat="10.246811" lon="-67.844063">
        <ele>439.90</ele>
        <time>2022-10-26T12:25:33Z</time>
      </trkpt>
      <trkpt lat="10.246782" lon="-67.844110">
        <ele>439.90</ele>
        <time>2022-10-26T12:25:34Z</time>
      </trkpt>
      <trkpt lat="10.246724" lon="-67.844204">
        <ele>440.00</ele>
        <time>2022-10-26T12:25:36Z</time>
      </trkpt>
      <trkpt lat="10.246696" lon="-67.844252">
        <ele>440.00</ele>
        <time>2022-10-26T12:25:37Z</time>
      </trkpt>
      <trkpt lat="10.246668" lon="-67.844298">
        <ele>440.00</ele>
        <time>2022-10-26T12:25:38Z</time>
      </trkpt>
      <trkpt lat="10.246638" lon="-67.844348">
        <ele>440.10</ele>
        <time>2022-10-26T12:25:39Z</time>
      </trkpt>
      <trkpt lat="10.246606" lon="-67.844401">
        <ele>440.10</ele>
        <time>2022-10-26T12:25:40Z</time>
      </trkpt>
      <trkpt lat="10.246578" lon="-67.844451">
        <ele>440.10</ele>
        <time>2022-10-26T12:25:41Z</time>
      </trkpt>
      <trkpt lat="10.246551" lon="-67.844502">
        <ele>440.10</ele>
        <time>2022-10-26T12:25:42Z</time>
      </trkpt>
      <trkpt lat="10.246526" lon="-67.844556">
        <ele>440.10</ele>
        <time>2022-10-26T12:25:43Z</time>
      </trkpt>
      <trkpt lat="10.246499" lon="-67.844612">
        <ele>440.20</ele>
        <time>2022-10-26T12:25:44Z</time>
      </trkpt>
      <trkpt lat="10.246473" lon="-67.844665">
        <ele>440.20</ele>
        <time>2022-10-26T12:25:45Z</time>
      </trkpt>
      <trkpt lat="10.246445" lon="-67.844716">
        <ele>440.20</ele>
        <time>2022-10-26T12:25:46Z</time>
      </trkpt>
      <trkpt lat="10.246415" lon="-67.844764">
        <ele>440.20</ele>
        <time>2022-10-26T12:25:47Z</time>
      </trkpt>
      <trkpt lat="10.246379" lon="-67.844812">
        <ele>440.20</ele>
        <time>2022-10-26T12:25:48Z</time>
      </trkpt>
      <trkpt lat="10.246347" lon="-67.844858">
        <ele>440.20</ele>
        <time>2022-10-26T12:25:49Z</time>
      </trkpt>
      <trkpt lat="10.246314" lon="-67.844903">
        <ele>440.20</ele>
        <time>2022-10-26T12:25:50Z</time>
      </trkpt>
      <trkpt lat="10.246281" lon="-67.844949">
        <ele>440.20</ele>
        <time>2022-10-26T12:25:51Z</time>
      </trkpt>
      <trkpt lat="10.246247" lon="-67.844993">
        <ele>440.30</ele>
        <time>2022-10-26T12:25:52Z</time>
      </trkpt>
      <trkpt lat="10.246213" lon="-67.845035">
        <ele>440.30</ele>
        <time>2022-10-26T12:25:53Z</time>
      </trkpt>
      <trkpt lat="10.246181" lon="-67.845080">
        <ele>440.30</ele>
        <time>2022-10-26T12:25:54Z</time>
      </trkpt>
      <trkpt lat="10.246151" lon="-67.845124">
        <ele>440.30</ele>
        <time>2022-10-26T12:25:55Z</time>
      </trkpt>
      <trkpt lat="10.246121" lon="-67.845169">
        <ele>440.30</ele>
        <time>2022-10-26T12:25:56Z</time>
      </trkpt>
      <trkpt lat="10.246094" lon="-67.845212">
        <ele>440.30</ele>
        <time>2022-10-26T12:25:57Z</time>
      </trkpt>
      <trkpt lat="10.246065" lon="-67.845255">
        <ele>440.30</ele>
        <time>2022-10-26T12:25:58Z</time>
      </trkpt>
      <trkpt lat="10.246041" lon="-67.845295">
        <ele>440.40</ele>
        <time>2022-10-26T12:25:59Z</time>
      </trkpt>
      <trkpt lat="10.246015" lon="-67.845338">
        <ele>440.40</ele>
        <time>2022-10-26T12:26:00Z</time>
      </trkpt>
      <trkpt lat="10.245983" lon="-67.845387">
        <ele>440.40</ele>
        <time>2022-10-26T12:26:01Z</time>
      </trkpt>
      <trkpt lat="10.245950" lon="-67.845436">
        <ele>440.40</ele>
        <time>2022-10-26T12:26:02Z</time>
      </trkpt>
      <trkpt lat="10.245913" lon="-67.845486">
        <ele>440.40</ele>
        <time>2022-10-26T12:26:03Z</time>
      </trkpt>
      <trkpt lat="10.245880" lon="-67.845539">
        <ele>440.40</ele>
        <time>2022-10-26T12:26:04Z</time>
      </trkpt>
      <trkpt lat="10.245847" lon="-67.845589">
        <ele>440.40</ele>
        <time>2022-10-26T12:26:05Z</time>
      </trkpt>
      <trkpt lat="10.245812" lon="-67.845638">
        <ele>440.40</ele>
        <time>2022-10-26T12:26:06Z</time>
      </trkpt>
      <trkpt lat="10.245781" lon="-67.845685">
        <ele>440.40</ele>
        <time>2022-10-26T12:26:07Z</time>
      </trkpt>
      <trkpt lat="10.245752" lon="-67.845735">
        <ele>440.40</ele>
        <time>2022-10-26T12:26:08Z</time>
      </trkpt>
      <trkpt lat="10.245723" lon="-67.845787">
        <ele>440.40</ele>
        <time>2022-10-26T12:26:09Z</time>
      </trkpt>
      <trkpt lat="10.245696" lon="-67.845837">
        <ele>440.50</ele>
        <time>2022-10-26T12:26:10Z</time>
      </trkpt>
      <trkpt lat="10.245670" lon="-67.845887">
        <ele>440.50</ele>
        <time>2022-10-26T12:26:11Z</time>
      </trkpt>
      <trkpt lat="10.245640" lon="-67.845937">
        <ele>440.50</ele>
        <time>2022-10-26T12:26:12Z</time>
      </trkpt>
      <trkpt lat="10.245611" lon="-67.845986">
        <ele>440.50</ele>
        <time>2022-10-26T12:26:13Z</time>
      </trkpt>
      <trkpt lat="10.245583" lon="-67.846034">
        <ele>440.60</ele>
        <time>2022-10-26T12:26:14Z</time>
      </trkpt>
      <trkpt lat="10.245556" lon="-67.846077">
        <ele>440.60</ele>
        <time>2022-10-26T12:26:15Z</time>
      </trkpt>
      <trkpt lat="10.245533" lon="-67.846119">
        <ele>440.60</ele>
        <time>2022-10-26T12:26:16Z</time>
      </trkpt>
      <trkpt lat="10.245511" lon="-67.846159">
        <ele>440.60</ele>
        <time>2022-10-26T12:26:17Z</time>
      </trkpt>
      <trkpt lat="10.245489" lon="-67.846200">
        <ele>440.60</ele>
        <time>2022-10-26T12:26:18Z</time>
      </trkpt>
      <trkpt lat="10.245466" lon="-67.846240">
        <ele>440.60</ele>
        <time>2022-10-26T12:26:19Z</time>
      </trkpt>
      <trkpt lat="10.245441" lon="-67.846281">
        <ele>440.60</ele>
        <time>2022-10-26T12:26:20Z</time>
      </trkpt>
      <trkpt lat="10.245418" lon="-67.846323">
        <ele>440.60</ele>
        <time>2022-10-26T12:26:21Z</time>
      </trkpt>
      <trkpt lat="10.245393" lon="-67.846364">
        <ele>440.70</ele>
        <time>2022-10-26T12:26:22Z</time>
      </trkpt>
      <trkpt lat="10.245372" lon="-67.846410">
        <ele>440.70</ele>
        <time>2022-10-26T12:26:23Z</time>
      </trkpt>
      <trkpt lat="10.245347" lon="-67.846455">
        <ele>440.70</ele>
        <time>2022-10-26T12:26:24Z</time>
      </trkpt>
      <trkpt lat="10.245323" lon="-67.846501">
        <ele>440.70</ele>
        <time>2022-10-26T12:26:25Z</time>
      </trkpt>
      <trkpt lat="10.245300" lon="-67.846546">
        <ele>440.70</ele>
        <time>2022-10-26T12:26:26Z</time>
      </trkpt>
      <trkpt lat="10.245276" lon="-67.846594">
        <ele>440.80</ele>
        <time>2022-10-26T12:26:27Z</time>
      </trkpt>
      <trkpt lat="10.245253" lon="-67.846644">
        <ele>440.80</ele>
        <time>2022-10-26T12:26:28Z</time>
      </trkpt>
      <trkpt lat="10.245231" lon="-67.846690">
        <ele>440.80</ele>
        <time>2022-10-26T12:26:29Z</time>
      </trkpt>
      <trkpt lat="10.245208" lon="-67.846737">
        <ele>440.80</ele>
        <time>2022-10-26T12:26:30Z</time>
      </trkpt>
      <trkpt lat="10.245184" lon="-67.846784">
        <ele>440.80</ele>
        <time>2022-10-26T12:26:31Z</time>
      </trkpt>
      <trkpt lat="10.245159" lon="-67.846827">
        <ele>440.80</ele>
        <time>2022-10-26T12:26:32Z</time>
      </trkpt>
      <trkpt lat="10.245131" lon="-67.846870">
        <ele>440.80</ele>
        <time>2022-10-26T12:26:33Z</time>
      </trkpt>
      <trkpt lat="10.245106" lon="-67.846915">
        <ele>440.90</ele>
        <time>2022-10-26T12:26:34Z</time>
      </trkpt>
      <trkpt lat="10.245082" lon="-67.846960">
        <ele>440.90</ele>
        <time>2022-10-26T12:26:35Z</time>
      </trkpt>
      <trkpt lat="10.245058" lon="-67.847002">
        <ele>440.90</ele>
        <time>2022-10-26T12:26:36Z</time>
      </trkpt>
      <trkpt lat="10.245033" lon="-67.847045">
        <ele>440.90</ele>
        <time>2022-10-26T12:26:37Z</time>
      </trkpt>
      <trkpt lat="10.245005" lon="-67.847087">
        <ele>440.90</ele>
        <time>2022-10-26T12:26:38Z</time>
      </trkpt>
      <trkpt lat="10.244976" lon="-67.847128">
        <ele>440.90</ele>
        <time>2022-10-26T12:26:39Z</time>
      </trkpt>
      <trkpt lat="10.244946" lon="-67.847174">
        <ele>440.90</ele>
        <time>2022-10-26T12:26:40Z</time>
      </trkpt>
      <trkpt lat="10.244916" lon="-67.847221">
        <ele>441.00</ele>
        <time>2022-10-26T12:26:41Z</time>
      </trkpt>
      <trkpt lat="10.244884" lon="-67.847265">
        <ele>441.00</ele>
        <time>2022-10-26T12:26:42Z</time>
      </trkpt>
      <trkpt lat="10.244852" lon="-67.847309">
        <ele>441.00</ele>
        <time>2022-10-26T12:26:43Z</time>
      </trkpt>
      <trkpt lat="10.244821" lon="-67.847354">
        <ele>441.00</ele>
        <time>2022-10-26T12:26:44Z</time>
      </trkpt>
      <trkpt lat="10.244793" lon="-67.847398">
        <ele>441.00</ele>
        <time>2022-10-26T12:26:45Z</time>
      </trkpt>
      <trkpt lat="10.244766" lon="-67.847441">
        <ele>441.00</ele>
        <time>2022-10-26T12:26:46Z</time>
      </trkpt>
      <trkpt lat="10.244741" lon="-67.847481">
        <ele>441.00</ele>
        <time>2022-10-26T12:26:47Z</time>
      </trkpt>
      <trkpt lat="10.244718" lon="-67.847521">
        <ele>441.10</ele>
        <time>2022-10-26T12:26:48Z</time>
      </trkpt>
      <trkpt lat="10.244692" lon="-67.847560">
        <ele>441.10</ele>
        <time>2022-10-26T12:26:49Z</time>
      </trkpt>
      <trkpt lat="10.244668" lon="-67.847603">
        <ele>441.10</ele>
        <time>2022-10-26T12:26:50Z</time>
      </trkpt>
      <trkpt lat="10.244642" lon="-67.847646">
        <ele>441.10</ele>
        <time>2022-10-26T12:26:51Z</time>
      </trkpt>
      <trkpt lat="10.244616" lon="-67.847689">
        <ele>441.10</ele>
        <time>2022-10-26T12:26:52Z</time>
      </trkpt>
      <trkpt lat="10.244590" lon="-67.847731">
        <ele>441.10</ele>
        <time>2022-10-26T12:26:53Z</time>
      </trkpt>
      <trkpt lat="10.244564" lon="-67.847775">
        <ele>441.00</ele>
        <time>2022-10-26T12:26:54Z</time>
      </trkpt>
      <trkpt lat="10.244540" lon="-67.847819">
        <ele>441.00</ele>
        <time>2022-10-26T12:26:55Z</time>
      </trkpt>
      <trkpt lat="10.244523" lon="-67.847861">
        <ele>441.00</ele>
        <time>2022-10-26T12:26:56Z</time>
      </trkpt>
      <trkpt lat="10.244485" lon="-67.847945">
        <ele>441.00</ele>
        <time>2022-10-26T12:26:58Z</time>
      </trkpt>
      <trkpt lat="10.244469" lon="-67.847985">
        <ele>441.00</ele>
        <time>2022-10-26T12:26:59Z</time>
      </trkpt>
      <trkpt lat="10.244453" lon="-67.848023">
        <ele>441.10</ele>
        <time>2022-10-26T12:27:00Z</time>
      </trkpt>
      <trkpt lat="10.244438" lon="-67.848061">
        <ele>441.10</ele>
        <time>2022-10-26T12:27:01Z</time>
      </trkpt>
      <trkpt lat="10.244418" lon="-67.848100">
        <ele>441.10</ele>
        <time>2022-10-26T12:27:02Z</time>
      </trkpt>
      <trkpt lat="10.244396" lon="-67.848140">
        <ele>441.10</ele>
        <time>2022-10-26T12:27:03Z</time>
      </trkpt>
      <trkpt lat="10.244373" lon="-67.848177">
        <ele>441.10</ele>
        <time>2022-10-26T12:27:04Z</time>
      </trkpt>
      <trkpt lat="10.244350" lon="-67.848215">
        <ele>441.10</ele>
        <time>2022-10-26T12:27:05Z</time>
      </trkpt>
      <trkpt lat="10.244327" lon="-67.848257">
        <ele>441.10</ele>
        <time>2022-10-26T12:27:06Z</time>
      </trkpt>
      <trkpt lat="10.244306" lon="-67.848300">
        <ele>441.10</ele>
        <time>2022-10-26T12:27:07Z</time>
      </trkpt>
      <trkpt lat="10.244282" lon="-67.848344">
        <ele>441.20</ele>
        <time>2022-10-26T12:27:08Z</time>
      </trkpt>
      <trkpt lat="10.244256" lon="-67.848386">
        <ele>441.20</ele>
        <time>2022-10-26T12:27:09Z</time>
      </trkpt>
      <trkpt lat="10.244230" lon="-67.848427">
        <ele>441.20</ele>
        <time>2022-10-26T12:27:10Z</time>
      </trkpt>
      <trkpt lat="10.244205" lon="-67.848467">
        <ele>441.20</ele>
        <time>2022-10-26T12:27:11Z</time>
      </trkpt>
      <trkpt lat="10.244182" lon="-67.848508">
        <ele>441.20</ele>
        <time>2022-10-26T12:27:12Z</time>
      </trkpt>
      <trkpt lat="10.244158" lon="-67.848551">
        <ele>441.20</ele>
        <time>2022-10-26T12:27:13Z</time>
      </trkpt>
      <trkpt lat="10.244134" lon="-67.848592">
        <ele>441.20</ele>
        <time>2022-10-26T12:27:14Z</time>
      </trkpt>
      <trkpt lat="10.244110" lon="-67.848633">
        <ele>441.20</ele>
        <time>2022-10-26T12:27:15Z</time>
      </trkpt>
      <trkpt lat="10.244086" lon="-67.848676">
        <ele>441.20</ele>
        <time>2022-10-26T12:27:16Z</time>
      </trkpt>
      <trkpt lat="10.244064" lon="-67.848722">
        <ele>441.20</ele>
        <time>2022-10-26T12:27:17Z</time>
      </trkpt>
      <trkpt lat="10.244042" lon="-67.848771">
        <ele>441.20</ele>
        <time>2022-10-26T12:27:18Z</time>
      </trkpt>
      <trkpt lat="10.244018" lon="-67.848819">
        <ele>441.20</ele>
        <time>2022-10-26T12:27:19Z</time>
      </trkpt>
      <trkpt lat="10.243995" lon="-67.848860">
        <ele>441.20</ele>
        <time>2022-10-26T12:27:20Z</time>
      </trkpt>
      <trkpt lat="10.243974" lon="-67.848897">
        <ele>441.30</ele>
        <time>2022-10-26T12:27:21Z</time>
      </trkpt>
      <trkpt lat="10.243958" lon="-67.848929">
        <ele>441.30</ele>
        <time>2022-10-26T12:27:22Z</time>
      </trkpt>
      <trkpt lat="10.243940" lon="-67.848963">
        <ele>441.30</ele>
        <time>2022-10-26T12:27:23Z</time>
      </trkpt>
      <trkpt lat="10.243899" lon="-67.849034">
        <ele>441.30</ele>
        <time>2022-10-26T12:27:25Z</time>
      </trkpt>
      <trkpt lat="10.243873" lon="-67.849071">
        <ele>441.30</ele>
        <time>2022-10-26T12:27:26Z</time>
      </trkpt>
      <trkpt lat="10.243846" lon="-67.849110">
        <ele>441.30</ele>
        <time>2022-10-26T12:27:27Z</time>
      </trkpt>
      <trkpt lat="10.243818" lon="-67.849150">
        <ele>441.40</ele>
        <time>2022-10-26T12:27:28Z</time>
      </trkpt>
      <trkpt lat="10.243791" lon="-67.849191">
        <ele>441.40</ele>
        <time>2022-10-26T12:27:29Z</time>
      </trkpt>
      <trkpt lat="10.243764" lon="-67.849233">
        <ele>441.40</ele>
        <time>2022-10-26T12:27:30Z</time>
      </trkpt>
      <trkpt lat="10.243737" lon="-67.849275">
        <ele>441.40</ele>
        <time>2022-10-26T12:27:31Z</time>
      </trkpt>
      <trkpt lat="10.243711" lon="-67.849317">
        <ele>441.40</ele>
        <time>2022-10-26T12:27:32Z</time>
      </trkpt>
      <trkpt lat="10.243688" lon="-67.849360">
        <ele>441.40</ele>
        <time>2022-10-26T12:27:33Z</time>
      </trkpt>
      <trkpt lat="10.243665" lon="-67.849407">
        <ele>441.40</ele>
        <time>2022-10-26T12:27:34Z</time>
      </trkpt>
      <trkpt lat="10.243642" lon="-67.849454">
        <ele>441.40</ele>
        <time>2022-10-26T12:27:35Z</time>
      </trkpt>
      <trkpt lat="10.243620" lon="-67.849497">
        <ele>441.40</ele>
        <time>2022-10-26T12:27:36Z</time>
      </trkpt>
      <trkpt lat="10.243596" lon="-67.849537">
        <ele>441.40</ele>
        <time>2022-10-26T12:27:37Z</time>
      </trkpt>
      <trkpt lat="10.243572" lon="-67.849577">
        <ele>441.40</ele>
        <time>2022-10-26T12:27:38Z</time>
      </trkpt>
      <trkpt lat="10.243550" lon="-67.849619">
        <ele>441.40</ele>
        <time>2022-10-26T12:27:39Z</time>
      </trkpt>
      <trkpt lat="10.243530" lon="-67.849661">
        <ele>441.40</ele>
        <time>2022-10-26T12:27:40Z</time>
      </trkpt>
      <trkpt lat="10.243514" lon="-67.849704">
        <ele>441.40</ele>
        <time>2022-10-26T12:27:41Z</time>
      </trkpt>
      <trkpt lat="10.243498" lon="-67.849746">
        <ele>441.40</ele>
        <time>2022-10-26T12:27:42Z</time>
      </trkpt>
      <trkpt lat="10.243478" lon="-67.849790">
        <ele>441.40</ele>
        <time>2022-10-26T12:27:43Z</time>
      </trkpt>
      <trkpt lat="10.243455" lon="-67.849832">
        <ele>441.40</ele>
        <time>2022-10-26T12:27:44Z</time>
      </trkpt>
      <trkpt lat="10.243431" lon="-67.849876">
        <ele>441.40</ele>
        <time>2022-10-26T12:27:45Z</time>
      </trkpt>
      <trkpt lat="10.243379" lon="-67.849966">
        <ele>441.40</ele>
        <time>2022-10-26T12:27:47Z</time>
      </trkpt>
      <trkpt lat="10.243354" lon="-67.850010">
        <ele>441.40</ele>
        <time>2022-10-26T12:27:48Z</time>
      </trkpt>
      <trkpt lat="10.243332" lon="-67.850052">
        <ele>441.40</ele>
        <time>2022-10-26T12:27:49Z</time>
      </trkpt>
      <trkpt lat="10.243308" lon="-67.850094">
        <ele>441.30</ele>
        <time>2022-10-26T12:27:50Z</time>
      </trkpt>
      <trkpt lat="10.243284" lon="-67.850134">
        <ele>441.30</ele>
        <time>2022-10-26T12:27:51Z</time>
      </trkpt>
      <trkpt lat="10.243258" lon="-67.850176">
        <ele>441.30</ele>
        <time>2022-10-26T12:27:52Z</time>
      </trkpt>
      <trkpt lat="10.243236" lon="-67.850217">
        <ele>441.30</ele>
        <time>2022-10-26T12:27:53Z</time>
      </trkpt>
      <trkpt lat="10.243215" lon="-67.850257">
        <ele>441.30</ele>
        <time>2022-10-26T12:27:54Z</time>
      </trkpt>
      <trkpt lat="10.243198" lon="-67.850295">
        <ele>441.30</ele>
        <time>2022-10-26T12:27:55Z</time>
      </trkpt>
      <trkpt lat="10.243176" lon="-67.850334">
        <ele>441.30</ele>
        <time>2022-10-26T12:27:56Z</time>
      </trkpt>
      <trkpt lat="10.243136" lon="-67.850416">
        <ele>441.30</ele>
        <time>2022-10-26T12:27:58Z</time>
      </trkpt>
      <trkpt lat="10.243117" lon="-67.850454">
        <ele>441.30</ele>
        <time>2022-10-26T12:27:59Z</time>
      </trkpt>
      <trkpt lat="10.243101" lon="-67.850489">
        <ele>441.30</ele>
        <time>2022-10-26T12:28:00Z</time>
      </trkpt>
      <trkpt lat="10.243085" lon="-67.850527">
        <ele>441.20</ele>
        <time>2022-10-26T12:28:01Z</time>
      </trkpt>
      <trkpt lat="10.243063" lon="-67.850568">
        <ele>441.20</ele>
        <time>2022-10-26T12:28:02Z</time>
      </trkpt>
      <trkpt lat="10.243039" lon="-67.850611">
        <ele>441.20</ele>
        <time>2022-10-26T12:28:03Z</time>
      </trkpt>
      <trkpt lat="10.243014" lon="-67.850656">
        <ele>441.20</ele>
        <time>2022-10-26T12:28:04Z</time>
      </trkpt>
      <trkpt lat="10.242989" lon="-67.850704">
        <ele>441.20</ele>
        <time>2022-10-26T12:28:05Z</time>
      </trkpt>
      <trkpt lat="10.242963" lon="-67.850750">
        <ele>441.20</ele>
        <time>2022-10-26T12:28:06Z</time>
      </trkpt>
      <trkpt lat="10.242939" lon="-67.850797">
        <ele>441.10</ele>
        <time>2022-10-26T12:28:07Z</time>
      </trkpt>
      <trkpt lat="10.242919" lon="-67.850846">
        <ele>441.10</ele>
        <time>2022-10-26T12:28:08Z</time>
      </trkpt>
      <trkpt lat="10.242903" lon="-67.850899">
        <ele>441.10</ele>
        <time>2022-10-26T12:28:09Z</time>
      </trkpt>
      <trkpt lat="10.242885" lon="-67.850952">
        <ele>441.10</ele>
        <time>2022-10-26T12:28:10Z</time>
      </trkpt>
      <trkpt lat="10.242867" lon="-67.851004">
        <ele>441.10</ele>
        <time>2022-10-26T12:28:11Z</time>
      </trkpt>
      <trkpt lat="10.242848" lon="-67.851052">
        <ele>441.10</ele>
        <time>2022-10-26T12:28:12Z</time>
      </trkpt>
      <trkpt lat="10.242829" lon="-67.851099">
        <ele>441.10</ele>
        <time>2022-10-26T12:28:13Z</time>
      </trkpt>
      <trkpt lat="10.242809" lon="-67.851146">
        <ele>441.10</ele>
        <time>2022-10-26T12:28:14Z</time>
      </trkpt>
      <trkpt lat="10.242787" lon="-67.851192">
        <ele>441.10</ele>
        <time>2022-10-26T12:28:15Z</time>
      </trkpt>
      <trkpt lat="10.242767" lon="-67.851236">
        <ele>441.10</ele>
        <time>2022-10-26T12:28:16Z</time>
      </trkpt>
      <trkpt lat="10.242751" lon="-67.851283">
        <ele>441.00</ele>
        <time>2022-10-26T12:28:17Z</time>
      </trkpt>
      <trkpt lat="10.242737" lon="-67.851329">
        <ele>441.00</ele>
        <time>2022-10-26T12:28:18Z</time>
      </trkpt>
      <trkpt lat="10.242723" lon="-67.851373">
        <ele>441.00</ele>
        <time>2022-10-26T12:28:19Z</time>
      </trkpt>
      <trkpt lat="10.242709" lon="-67.851417">
        <ele>441.00</ele>
        <time>2022-10-26T12:28:20Z</time>
      </trkpt>
      <trkpt lat="10.242696" lon="-67.851463">
        <ele>441.00</ele>
        <time>2022-10-26T12:28:21Z</time>
      </trkpt>
      <trkpt lat="10.242679" lon="-67.851513">
        <ele>440.90</ele>
        <time>2022-10-26T12:28:22Z</time>
      </trkpt>
      <trkpt lat="10.242663" lon="-67.851562">
        <ele>440.90</ele>
        <time>2022-10-26T12:28:23Z</time>
      </trkpt>
      <trkpt lat="10.242649" lon="-67.851611">
        <ele>440.90</ele>
        <time>2022-10-26T12:28:24Z</time>
      </trkpt>
      <trkpt lat="10.242613" lon="-67.851706">
        <ele>440.90</ele>
        <time>2022-10-26T12:28:26Z</time>
      </trkpt>
      <trkpt lat="10.242595" lon="-67.851753">
        <ele>440.80</ele>
        <time>2022-10-26T12:28:27Z</time>
      </trkpt>
      <trkpt lat="10.242578" lon="-67.851799">
        <ele>440.80</ele>
        <time>2022-10-26T12:28:28Z</time>
      </trkpt>
      <trkpt lat="10.242560" lon="-67.851847">
        <ele>440.80</ele>
        <time>2022-10-26T12:28:29Z</time>
      </trkpt>
      <trkpt lat="10.242546" lon="-67.851895">
        <ele>440.80</ele>
        <time>2022-10-26T12:28:30Z</time>
      </trkpt>
      <trkpt lat="10.242533" lon="-67.851942">
        <ele>440.70</ele>
        <time>2022-10-26T12:28:31Z</time>
      </trkpt>
      <trkpt lat="10.242520" lon="-67.851989">
        <ele>440.70</ele>
        <time>2022-10-26T12:28:32Z</time>
      </trkpt>
      <trkpt lat="10.242507" lon="-67.852033">
        <ele>440.70</ele>
        <time>2022-10-26T12:28:33Z</time>
      </trkpt>
      <trkpt lat="10.242495" lon="-67.852078">
        <ele>440.70</ele>
        <time>2022-10-26T12:28:34Z</time>
      </trkpt>
      <trkpt lat="10.242486" lon="-67.852126">
        <ele>440.60</ele>
        <time>2022-10-26T12:28:35Z</time>
      </trkpt>
      <trkpt lat="10.242479" lon="-67.852176">
        <ele>440.60</ele>
        <time>2022-10-26T12:28:36Z</time>
      </trkpt>
      <trkpt lat="10.242471" lon="-67.852227">
        <ele>440.60</ele>
        <time>2022-10-26T12:28:37Z</time>
      </trkpt>
      <trkpt lat="10.242463" lon="-67.852276">
        <ele>440.60</ele>
        <time>2022-10-26T12:28:38Z</time>
      </trkpt>
      <trkpt lat="10.242456" lon="-67.852325">
        <ele>440.60</ele>
        <time>2022-10-26T12:28:39Z</time>
      </trkpt>
      <trkpt lat="10.242448" lon="-67.852374">
        <ele>440.50</ele>
        <time>2022-10-26T12:28:40Z</time>
      </trkpt>
      <trkpt lat="10.242436" lon="-67.852420">
        <ele>440.50</ele>
        <time>2022-10-26T12:28:41Z</time>
      </trkpt>
      <trkpt lat="10.242418" lon="-67.852464">
        <ele>440.50</ele>
        <time>2022-10-26T12:28:42Z</time>
      </trkpt>
      <trkpt lat="10.242400" lon="-67.852510">
        <ele>440.50</ele>
        <time>2022-10-26T12:28:43Z</time>
      </trkpt>
      <trkpt lat="10.242381" lon="-67.852556">
        <ele>440.50</ele>
        <time>2022-10-26T12:28:44Z</time>
      </trkpt>
      <trkpt lat="10.242361" lon="-67.852602">
        <ele>440.50</ele>
        <time>2022-10-26T12:28:45Z</time>
      </trkpt>
      <trkpt lat="10.242343" lon="-67.852650">
        <ele>440.40</ele>
        <time>2022-10-26T12:28:46Z</time>
      </trkpt>
      <trkpt lat="10.242329" lon="-67.852699">
        <ele>440.40</ele>
        <time>2022-10-26T12:28:47Z</time>
      </trkpt>
      <trkpt lat="10.242315" lon="-67.852747">
        <ele>440.40</ele>
        <time>2022-10-26T12:28:48Z</time>
      </trkpt>
      <trkpt lat="10.242303" lon="-67.852795">
        <ele>440.40</ele>
        <time>2022-10-26T12:28:49Z</time>
      </trkpt>
      <trkpt lat="10.242290" lon="-67.852845">
        <ele>440.40</ele>
        <time>2022-10-26T12:28:50Z</time>
      </trkpt>
      <trkpt lat="10.242276" lon="-67.852893">
        <ele>440.40</ele>
        <time>2022-10-26T12:28:51Z</time>
      </trkpt>
      <trkpt lat="10.242266" lon="-67.852941">
        <ele>440.40</ele>
        <time>2022-10-26T12:28:52Z</time>
      </trkpt>
      <trkpt lat="10.242253" lon="-67.852992">
        <ele>440.40</ele>
        <time>2022-10-26T12:28:53Z</time>
      </trkpt>
      <trkpt lat="10.242230" lon="-67.853085">
        <ele>440.40</ele>
        <time>2022-10-26T12:28:55Z</time>
      </trkpt>
      <trkpt lat="10.242220" lon="-67.853132">
        <ele>440.40</ele>
        <time>2022-10-26T12:28:56Z</time>
      </trkpt>
      <trkpt lat="10.242211" lon="-67.853174">
        <ele>440.50</ele>
        <time>2022-10-26T12:28:57Z</time>
      </trkpt>
      <trkpt lat="10.242198" lon="-67.853217">
        <ele>440.50</ele>
        <time>2022-10-26T12:28:58Z</time>
      </trkpt>
      <trkpt lat="10.242185" lon="-67.853261">
        <ele>440.50</ele>
        <time>2022-10-26T12:28:59Z</time>
      </trkpt>
      <trkpt lat="10.242176" lon="-67.853307">
        <ele>440.50</ele>
        <time>2022-10-26T12:29:00Z</time>
      </trkpt>
      <trkpt lat="10.242150" lon="-67.853401">
        <ele>440.50</ele>
        <time>2022-10-26T12:29:02Z</time>
      </trkpt>
      <trkpt lat="10.242137" lon="-67.853450">
        <ele>440.50</ele>
        <time>2022-10-26T12:29:03Z</time>
      </trkpt>
      <trkpt lat="10.242124" lon="-67.853505">
        <ele>440.50</ele>
        <time>2022-10-26T12:29:04Z</time>
      </trkpt>
      <trkpt lat="10.242115" lon="-67.853559">
        <ele>440.50</ele>
        <time>2022-10-26T12:29:05Z</time>
      </trkpt>
      <trkpt lat="10.242105" lon="-67.853609">
        <ele>440.50</ele>
        <time>2022-10-26T12:29:06Z</time>
      </trkpt>
      <trkpt lat="10.242092" lon="-67.853652">
        <ele>440.50</ele>
        <time>2022-10-26T12:29:07Z</time>
      </trkpt>
      <trkpt lat="10.242079" lon="-67.853692">
        <ele>440.50</ele>
        <time>2022-10-26T12:29:08Z</time>
      </trkpt>
      <trkpt lat="10.242063" lon="-67.853731">
        <ele>440.50</ele>
        <time>2022-10-26T12:29:09Z</time>
      </trkpt>
      <trkpt lat="10.242052" lon="-67.853769">
        <ele>440.50</ele>
        <time>2022-10-26T12:29:10Z</time>
      </trkpt>
      <trkpt lat="10.242041" lon="-67.853814">
        <ele>440.60</ele>
        <time>2022-10-26T12:29:11Z</time>
      </trkpt>
      <trkpt lat="10.242031" lon="-67.853861">
        <ele>440.60</ele>
        <time>2022-10-26T12:29:12Z</time>
      </trkpt>
      <trkpt lat="10.242023" lon="-67.853908">
        <ele>440.60</ele>
        <time>2022-10-26T12:29:13Z</time>
      </trkpt>
      <trkpt lat="10.242017" lon="-67.853954">
        <ele>440.60</ele>
        <time>2022-10-26T12:29:14Z</time>
      </trkpt>
      <trkpt lat="10.242008" lon="-67.853999">
        <ele>440.60</ele>
        <time>2022-10-26T12:29:15Z</time>
      </trkpt>
      <trkpt lat="10.242003" lon="-67.854042">
        <ele>440.60</ele>
        <time>2022-10-26T12:29:16Z</time>
      </trkpt>
      <trkpt lat="10.241999" lon="-67.854085">
        <ele>440.60</ele>
        <time>2022-10-26T12:29:17Z</time>
      </trkpt>
      <trkpt lat="10.241995" lon="-67.854132">
        <ele>440.60</ele>
        <time>2022-10-26T12:29:18Z</time>
      </trkpt>
      <trkpt lat="10.241993" lon="-67.854178">
        <ele>440.60</ele>
        <time>2022-10-26T12:29:19Z</time>
      </trkpt>
      <trkpt lat="10.241991" lon="-67.854227">
        <ele>440.60</ele>
        <time>2022-10-26T12:29:20Z</time>
      </trkpt>
      <trkpt lat="10.241987" lon="-67.854273">
        <ele>440.70</ele>
        <time>2022-10-26T12:29:21Z</time>
      </trkpt>
      <trkpt lat="10.241979" lon="-67.854321">
        <ele>440.70</ele>
        <time>2022-10-26T12:29:22Z</time>
      </trkpt>
      <trkpt lat="10.241969" lon="-67.854366">
        <ele>440.70</ele>
        <time>2022-10-26T12:29:23Z</time>
      </trkpt>
      <trkpt lat="10.241957" lon="-67.854412">
        <ele>440.70</ele>
        <time>2022-10-26T12:29:24Z</time>
      </trkpt>
      <trkpt lat="10.241946" lon="-67.854458">
        <ele>440.70</ele>
        <time>2022-10-26T12:29:25Z</time>
      </trkpt>
      <trkpt lat="10.241934" lon="-67.854504">
        <ele>440.70</ele>
        <time>2022-10-26T12:29:26Z</time>
      </trkpt>
      <trkpt lat="10.241918" lon="-67.854550">
        <ele>440.70</ele>
        <time>2022-10-26T12:29:27Z</time>
      </trkpt>
      <trkpt lat="10.241900" lon="-67.854600">
        <ele>440.70</ele>
        <time>2022-10-26T12:29:28Z</time>
      </trkpt>
      <trkpt lat="10.241884" lon="-67.854647">
        <ele>440.80</ele>
        <time>2022-10-26T12:29:29Z</time>
      </trkpt>
      <trkpt lat="10.241870" lon="-67.854691">
        <ele>440.80</ele>
        <time>2022-10-26T12:29:30Z</time>
      </trkpt>
      <trkpt lat="10.241857" lon="-67.854732">
        <ele>440.80</ele>
        <time>2022-10-26T12:29:31Z</time>
      </trkpt>
      <trkpt lat="10.241842" lon="-67.854775">
        <ele>440.80</ele>
        <time>2022-10-26T12:29:32Z</time>
      </trkpt>
      <trkpt lat="10.241820" lon="-67.854819">
        <ele>440.80</ele>
        <time>2022-10-26T12:29:33Z</time>
      </trkpt>
      <trkpt lat="10.241808" lon="-67.854868">
        <ele>440.80</ele>
        <time>2022-10-26T12:29:34Z</time>
      </trkpt>
      <trkpt lat="10.241794" lon="-67.854914">
        <ele>440.90</ele>
        <time>2022-10-26T12:29:35Z</time>
      </trkpt>
      <trkpt lat="10.241780" lon="-67.854961">
        <ele>440.90</ele>
        <time>2022-10-26T12:29:36Z</time>
      </trkpt>
      <trkpt lat="10.241769" lon="-67.855008">
        <ele>440.90</ele>
        <time>2022-10-26T12:29:37Z</time>
      </trkpt>
      <trkpt lat="10.241763" lon="-67.855055">
        <ele>440.90</ele>
        <time>2022-10-26T12:29:38Z</time>
      </trkpt>
      <trkpt lat="10.241746" lon="-67.855150">
        <ele>440.90</ele>
        <time>2022-10-26T12:29:40Z</time>
      </trkpt>
      <trkpt lat="10.241733" lon="-67.855195">
        <ele>440.90</ele>
        <time>2022-10-26T12:29:41Z</time>
      </trkpt>
      <trkpt lat="10.241719" lon="-67.855237">
        <ele>440.90</ele>
        <time>2022-10-26T12:29:42Z</time>
      </trkpt>
      <trkpt lat="10.241698" lon="-67.855273">
        <ele>440.90</ele>
        <time>2022-10-26T12:29:43Z</time>
      </trkpt>
      <trkpt lat="10.241675" lon="-67.855309">
        <ele>440.90</ele>
        <time>2022-10-26T12:29:44Z</time>
      </trkpt>
      <trkpt lat="10.241653" lon="-67.855345">
        <ele>440.90</ele>
        <time>2022-10-26T12:29:45Z</time>
      </trkpt>
      <trkpt lat="10.241635" lon="-67.855381">
        <ele>440.90</ele>
        <time>2022-10-26T12:29:46Z</time>
      </trkpt>
      <trkpt lat="10.241621" lon="-67.855420">
        <ele>440.90</ele>
        <time>2022-10-26T12:29:47Z</time>
      </trkpt>
      <trkpt lat="10.241609" lon="-67.855462">
        <ele>440.90</ele>
        <time>2022-10-26T12:29:48Z</time>
      </trkpt>
      <trkpt lat="10.241603" lon="-67.855505">
        <ele>440.90</ele>
        <time>2022-10-26T12:29:49Z</time>
      </trkpt>
      <trkpt lat="10.241595" lon="-67.855548">
        <ele>440.90</ele>
        <time>2022-10-26T12:29:50Z</time>
      </trkpt>
      <trkpt lat="10.241581" lon="-67.855591">
        <ele>440.90</ele>
        <time>2022-10-26T12:29:51Z</time>
      </trkpt>
      <trkpt lat="10.241563" lon="-67.855636">
        <ele>440.90</ele>
        <time>2022-10-26T12:29:52Z</time>
      </trkpt>
      <trkpt lat="10.241549" lon="-67.855675">
        <ele>440.90</ele>
        <time>2022-10-26T12:29:53Z</time>
      </trkpt>
      <trkpt lat="10.241539" lon="-67.855715">
        <ele>440.90</ele>
        <time>2022-10-26T12:29:54Z</time>
      </trkpt>
      <trkpt lat="10.241532" lon="-67.855756">
        <ele>440.90</ele>
        <time>2022-10-26T12:29:55Z</time>
      </trkpt>
      <trkpt lat="10.241520" lon="-67.855799">
        <ele>441.00</ele>
        <time>2022-10-26T12:29:56Z</time>
      </trkpt>
      <trkpt lat="10.241509" lon="-67.855840">
        <ele>441.00</ele>
        <time>2022-10-26T12:29:57Z</time>
      </trkpt>
      <trkpt lat="10.241501" lon="-67.855860">
        <ele>441.00</ele>
        <time>2022-10-26T12:29:57Z</time>
      </trkpt>
      <trkpt lat="10.241489" lon="-67.855910">
        <ele>441.00</ele>
        <time>2022-10-26T12:29:58Z</time>
      </trkpt>
      <trkpt lat="10.241472" lon="-67.855962">
        <ele>441.00</ele>
        <time>2022-10-26T12:29:59Z</time>
      </trkpt>
      <trkpt lat="10.241461" lon="-67.856011">
        <ele>441.00</ele>
        <time>2022-10-26T12:30:00Z</time>
      </trkpt>
      <trkpt lat="10.241453" lon="-67.856062">
        <ele>441.00</ele>
        <time>2022-10-26T12:30:01Z</time>
      </trkpt>
      <trkpt lat="10.241441" lon="-67.856114">
        <ele>441.00</ele>
        <time>2022-10-26T12:30:02Z</time>
      </trkpt>
      <trkpt lat="10.241427" lon="-67.856166">
        <ele>441.00</ele>
        <time>2022-10-26T12:30:03Z</time>
      </trkpt>
      <trkpt lat="10.241411" lon="-67.856219">
        <ele>441.00</ele>
        <time>2022-10-26T12:30:04Z</time>
      </trkpt>
      <trkpt lat="10.241398" lon="-67.856270">
        <ele>441.00</ele>
        <time>2022-10-26T12:30:05Z</time>
      </trkpt>
      <trkpt lat="10.241382" lon="-67.856319">
        <ele>441.00</ele>
        <time>2022-10-26T12:30:06Z</time>
      </trkpt>
      <trkpt lat="10.241364" lon="-67.856366">
        <ele>441.00</ele>
        <time>2022-10-26T12:30:07Z</time>
      </trkpt>
      <trkpt lat="10.241350" lon="-67.856416">
        <ele>441.00</ele>
        <time>2022-10-26T12:30:08Z</time>
      </trkpt>
      <trkpt lat="10.241338" lon="-67.856468">
        <ele>441.00</ele>
        <time>2022-10-26T12:30:09Z</time>
      </trkpt>
      <trkpt lat="10.241327" lon="-67.856515">
        <ele>441.00</ele>
        <time>2022-10-26T12:30:10Z</time>
      </trkpt>
      <trkpt lat="10.241313" lon="-67.856563">
        <ele>441.00</ele>
        <time>2022-10-26T12:30:11Z</time>
      </trkpt>
      <trkpt lat="10.241302" lon="-67.856609">
        <ele>441.00</ele>
        <time>2022-10-26T12:30:12Z</time>
      </trkpt>
      <trkpt lat="10.241286" lon="-67.856662">
        <ele>441.00</ele>
        <time>2022-10-26T12:30:13Z</time>
      </trkpt>
      <trkpt lat="10.241269" lon="-67.856713">
        <ele>441.00</ele>
        <time>2022-10-26T12:30:14Z</time>
      </trkpt>
      <trkpt lat="10.241254" lon="-67.856761">
        <ele>441.00</ele>
        <time>2022-10-26T12:30:15Z</time>
      </trkpt>
      <trkpt lat="10.241243" lon="-67.856809">
        <ele>441.00</ele>
        <time>2022-10-26T12:30:16Z</time>
      </trkpt>
      <trkpt lat="10.241234" lon="-67.856858">
        <ele>441.00</ele>
        <time>2022-10-26T12:30:17Z</time>
      </trkpt>
      <trkpt lat="10.241222" lon="-67.856909">
        <ele>441.00</ele>
        <time>2022-10-26T12:30:18Z</time>
      </trkpt>
      <trkpt lat="10.241211" lon="-67.856956">
        <ele>441.00</ele>
        <time>2022-10-26T12:30:19Z</time>
      </trkpt>
      <trkpt lat="10.241194" lon="-67.857005">
        <ele>441.00</ele>
        <time>2022-10-26T12:30:20Z</time>
      </trkpt>
      <trkpt lat="10.241181" lon="-67.857054">
        <ele>441.00</ele>
        <time>2022-10-26T12:30:21Z</time>
      </trkpt>
      <trkpt lat="10.241170" lon="-67.857101">
        <ele>441.00</ele>
        <time>2022-10-26T12:30:22Z</time>
      </trkpt>
      <trkpt lat="10.241161" lon="-67.857146">
        <ele>441.00</ele>
        <time>2022-10-26T12:30:23Z</time>
      </trkpt>
      <trkpt lat="10.241152" lon="-67.857192">
        <ele>441.00</ele>
        <time>2022-10-26T12:30:24Z</time>
      </trkpt>
      <trkpt lat="10.241145" lon="-67.857240">
        <ele>441.00</ele>
        <time>2022-10-26T12:30:25Z</time>
      </trkpt>
      <trkpt lat="10.241139" lon="-67.857287">
        <ele>441.00</ele>
        <time>2022-10-26T12:30:26Z</time>
      </trkpt>
      <trkpt lat="10.241127" lon="-67.857331">
        <ele>441.10</ele>
        <time>2022-10-26T12:30:27Z</time>
      </trkpt>
      <trkpt lat="10.241123" lon="-67.857369">
        <ele>441.10</ele>
        <time>2022-10-26T12:30:28Z</time>
      </trkpt>
      <trkpt lat="10.241108" lon="-67.857421">
        <ele>441.10</ele>
        <time>2022-10-26T12:30:29Z</time>
      </trkpt>
      <trkpt lat="10.241097" lon="-67.857469">
        <ele>441.10</ele>
        <time>2022-10-26T12:30:30Z</time>
      </trkpt>
      <trkpt lat="10.241090" lon="-67.857514">
        <ele>441.10</ele>
        <time>2022-10-26T12:30:31Z</time>
      </trkpt>
      <trkpt lat="10.241084" lon="-67.857559">
        <ele>441.10</ele>
        <time>2022-10-26T12:30:32Z</time>
      </trkpt>
      <trkpt lat="10.241075" lon="-67.857605">
        <ele>441.10</ele>
        <time>2022-10-26T12:30:33Z</time>
      </trkpt>
      <trkpt lat="10.241058" lon="-67.857643">
        <ele>441.10</ele>
        <time>2022-10-26T12:30:34Z</time>
      </trkpt>
      <trkpt lat="10.241046" lon="-67.857684">
        <ele>441.10</ele>
        <time>2022-10-26T12:30:35Z</time>
      </trkpt>
      <trkpt lat="10.241033" lon="-67.857728">
        <ele>441.20</ele>
        <time>2022-10-26T12:30:36Z</time>
      </trkpt>
      <trkpt lat="10.241027" lon="-67.857774">
        <ele>441.20</ele>
        <time>2022-10-26T12:30:37Z</time>
      </trkpt>
      <trkpt lat="10.241018" lon="-67.857821">
        <ele>441.20</ele>
        <time>2022-10-26T12:30:38Z</time>
      </trkpt>
      <trkpt lat="10.241008" lon="-67.857871">
        <ele>441.20</ele>
        <time>2022-10-26T12:30:39Z</time>
      </trkpt>
      <trkpt lat="10.240999" lon="-67.857915">
        <ele>441.20</ele>
        <time>2022-10-26T12:30:40Z</time>
      </trkpt>
      <trkpt lat="10.240980" lon="-67.857970">
        <ele>441.30</ele>
        <time>2022-10-26T12:30:41Z</time>
      </trkpt>
      <trkpt lat="10.240960" lon="-67.858017">
        <ele>441.30</ele>
        <time>2022-10-26T12:30:42Z</time>
      </trkpt>
      <trkpt lat="10.240942" lon="-67.858068">
        <ele>441.30</ele>
        <time>2022-10-26T12:30:43Z</time>
      </trkpt>
      <trkpt lat="10.240929" lon="-67.858116">
        <ele>441.30</ele>
        <time>2022-10-26T12:30:44Z</time>
      </trkpt>
      <trkpt lat="10.240905" lon="-67.858165">
        <ele>441.30</ele>
        <time>2022-10-26T12:30:45Z</time>
      </trkpt>
      <trkpt lat="10.240891" lon="-67.858211">
        <ele>441.40</ele>
        <time>2022-10-26T12:30:46Z</time>
      </trkpt>
      <trkpt lat="10.240879" lon="-67.858255">
        <ele>441.40</ele>
        <time>2022-10-26T12:30:47Z</time>
      </trkpt>
      <trkpt lat="10.240871" lon="-67.858298">
        <ele>441.40</ele>
        <time>2022-10-26T12:30:48Z</time>
      </trkpt>
      <trkpt lat="10.240861" lon="-67.858343">
        <ele>441.40</ele>
        <time>2022-10-26T12:30:49Z</time>
      </trkpt>
      <trkpt lat="10.240855" lon="-67.858375">
        <ele>441.40</ele>
        <time>2022-10-26T12:30:50Z</time>
      </trkpt>
      <trkpt lat="10.240854" lon="-67.858391">
        <ele>441.40</ele>
        <time>2022-10-26T12:30:51Z</time>
      </trkpt>
      <trkpt lat="10.240851" lon="-67.858403">
        <ele>441.40</ele>
        <time>2022-10-26T12:30:52Z</time>
      </trkpt>
      <trkpt lat="10.240849" lon="-67.858415">
        <ele>441.40</ele>
        <time>2022-10-26T12:30:53Z</time>
      </trkpt>
      <trkpt lat="10.240841" lon="-67.858447">
        <ele>441.40</ele>
        <time>2022-10-26T12:30:54Z</time>
      </trkpt>
      <trkpt lat="10.240839" lon="-67.858460">
        <ele>441.40</ele>
        <time>2022-10-26T12:30:55Z</time>
      </trkpt>
      <trkpt lat="10.240831" lon="-67.858504">
        <ele>441.40</ele>
        <time>2022-10-26T12:30:56Z</time>
      </trkpt>
      <trkpt lat="10.240828" lon="-67.858521">
        <ele>441.40</ele>
        <time>2022-10-26T12:30:57Z</time>
      </trkpt>
      <trkpt lat="10.240814" lon="-67.858589">
        <ele>441.40</ele>
        <time>2022-10-26T12:30:58Z</time>
      </trkpt>
      <trkpt lat="10.240800" lon="-67.858644">
        <ele>441.40</ele>
        <time>2022-10-26T12:30:59Z</time>
      </trkpt>
      <trkpt lat="10.240791" lon="-67.858663">
        <ele>441.40</ele>
        <time>2022-10-26T12:31:00Z</time>
      </trkpt>
      <trkpt lat="10.240778" lon="-67.858734">
        <ele>441.40</ele>
        <time>2022-10-26T12:31:02Z</time>
      </trkpt>
      <trkpt lat="10.240742" lon="-67.858930">
        <ele>441.50</ele>
        <time>2022-10-26T12:31:03Z</time>
      </trkpt>
      <trkpt lat="10.240738" lon="-67.859001">
        <ele>441.50</ele>
        <time>2022-10-26T12:31:04Z</time>
      </trkpt>
      <trkpt lat="10.240739" lon="-67.859056">
        <ele>441.50</ele>
        <time>2022-10-26T12:31:05Z</time>
      </trkpt>
      <trkpt lat="10.240729" lon="-67.859107">
        <ele>441.60</ele>
        <time>2022-10-26T12:31:06Z</time>
      </trkpt>
      <trkpt lat="10.240718" lon="-67.859159">
        <ele>441.70</ele>
        <time>2022-10-26T12:31:07Z</time>
      </trkpt>
      <trkpt lat="10.240709" lon="-67.859210">
        <ele>441.70</ele>
        <time>2022-10-26T12:31:08Z</time>
      </trkpt>
      <trkpt lat="10.240699" lon="-67.859260">
        <ele>441.70</ele>
        <time>2022-10-26T12:31:09Z</time>
      </trkpt>
      <trkpt lat="10.240684" lon="-67.859307">
        <ele>441.70</ele>
        <time>2022-10-26T12:31:10Z</time>
      </trkpt>
      <trkpt lat="10.240675" lon="-67.859348">
        <ele>441.70</ele>
        <time>2022-10-26T12:31:11Z</time>
      </trkpt>
      <trkpt lat="10.240668" lon="-67.859391">
        <ele>441.70</ele>
        <time>2022-10-26T12:31:12Z</time>
      </trkpt>
      <trkpt lat="10.240663" lon="-67.859444">
        <ele>441.60</ele>
        <time>2022-10-26T12:31:13Z</time>
      </trkpt>
      <trkpt lat="10.240658" lon="-67.859474">
        <ele>441.60</ele>
        <time>2022-10-26T12:31:14Z</time>
      </trkpt>
      <trkpt lat="10.240633" lon="-67.859573">
        <ele>441.60</ele>
        <time>2022-10-26T12:31:16Z</time>
      </trkpt>
      <trkpt lat="10.240623" lon="-67.859620">
        <ele>441.60</ele>
        <time>2022-10-26T12:31:17Z</time>
      </trkpt>
      <trkpt lat="10.240621" lon="-67.859663">
        <ele>441.60</ele>
        <time>2022-10-26T12:31:18Z</time>
      </trkpt>
      <trkpt lat="10.240618" lon="-67.859693">
        <ele>441.60</ele>
        <time>2022-10-26T12:31:19Z</time>
      </trkpt>
      <trkpt lat="10.240610" lon="-67.859746">
        <ele>441.60</ele>
        <time>2022-10-26T12:31:20Z</time>
      </trkpt>
      <trkpt lat="10.240594" lon="-67.859796">
        <ele>441.60</ele>
        <time>2022-10-26T12:31:21Z</time>
      </trkpt>
      <trkpt lat="10.240578" lon="-67.859845">
        <ele>441.60</ele>
        <time>2022-10-26T12:31:22Z</time>
      </trkpt>
      <trkpt lat="10.240565" lon="-67.859893">
        <ele>441.60</ele>
        <time>2022-10-26T12:31:23Z</time>
      </trkpt>
      <trkpt lat="10.240555" lon="-67.859938">
        <ele>441.60</ele>
        <time>2022-10-26T12:31:24Z</time>
      </trkpt>
      <trkpt lat="10.240537" lon="-67.859983">
        <ele>441.60</ele>
        <time>2022-10-26T12:31:25Z</time>
      </trkpt>
      <trkpt lat="10.240522" lon="-67.860026">
        <ele>441.60</ele>
        <time>2022-10-26T12:31:26Z</time>
      </trkpt>
      <trkpt lat="10.240514" lon="-67.860070">
        <ele>441.60</ele>
        <time>2022-10-26T12:31:27Z</time>
      </trkpt>
      <trkpt lat="10.240506" lon="-67.860115">
        <ele>441.60</ele>
        <time>2022-10-26T12:31:28Z</time>
      </trkpt>
      <trkpt lat="10.240495" lon="-67.860164">
        <ele>441.60</ele>
        <time>2022-10-26T12:31:29Z</time>
      </trkpt>
      <trkpt lat="10.240489" lon="-67.860214">
        <ele>441.70</ele>
        <time>2022-10-26T12:31:30Z</time>
      </trkpt>
      <trkpt lat="10.240477" lon="-67.860263">
        <ele>441.70</ele>
        <time>2022-10-26T12:31:31Z</time>
      </trkpt>
      <trkpt lat="10.240467" lon="-67.860312">
        <ele>441.70</ele>
        <time>2022-10-26T12:31:32Z</time>
      </trkpt>
      <trkpt lat="10.240459" lon="-67.860362">
        <ele>441.60</ele>
        <time>2022-10-26T12:31:33Z</time>
      </trkpt>
      <trkpt lat="10.240449" lon="-67.860406">
        <ele>441.60</ele>
        <time>2022-10-26T12:31:34Z</time>
      </trkpt>
      <trkpt lat="10.240439" lon="-67.860452">
        <ele>441.60</ele>
        <time>2022-10-26T12:31:35Z</time>
      </trkpt>
      <trkpt lat="10.240423" lon="-67.860502">
        <ele>441.60</ele>
        <time>2022-10-26T12:31:36Z</time>
      </trkpt>
      <trkpt lat="10.240410" lon="-67.860554">
        <ele>441.60</ele>
        <time>2022-10-26T12:31:37Z</time>
      </trkpt>
      <trkpt lat="10.240395" lon="-67.860594">
        <ele>441.60</ele>
        <time>2022-10-26T12:31:38Z</time>
      </trkpt>
      <trkpt lat="10.240387" lon="-67.860643">
        <ele>441.60</ele>
        <time>2022-10-26T12:31:39Z</time>
      </trkpt>
      <trkpt lat="10.240368" lon="-67.860696">
        <ele>441.60</ele>
        <time>2022-10-26T12:31:40Z</time>
      </trkpt>
      <trkpt lat="10.240354" lon="-67.860743">
        <ele>441.60</ele>
        <time>2022-10-26T12:31:41Z</time>
      </trkpt>
      <trkpt lat="10.240345" lon="-67.860788">
        <ele>441.70</ele>
        <time>2022-10-26T12:31:42Z</time>
      </trkpt>
      <trkpt lat="10.240339" lon="-67.860834">
        <ele>441.70</ele>
        <time>2022-10-26T12:31:43Z</time>
      </trkpt>
      <trkpt lat="10.240329" lon="-67.860880">
        <ele>441.70</ele>
        <time>2022-10-26T12:31:44Z</time>
      </trkpt>
      <trkpt lat="10.240316" lon="-67.860930">
        <ele>441.70</ele>
        <time>2022-10-26T12:31:45Z</time>
      </trkpt>
      <trkpt lat="10.240307" lon="-67.860977">
        <ele>441.70</ele>
        <time>2022-10-26T12:31:46Z</time>
      </trkpt>
      <trkpt lat="10.240296" lon="-67.861022">
        <ele>441.70</ele>
        <time>2022-10-26T12:31:47Z</time>
      </trkpt>
      <trkpt lat="10.240284" lon="-67.861070">
        <ele>441.70</ele>
        <time>2022-10-26T12:31:48Z</time>
      </trkpt>
      <trkpt lat="10.240272" lon="-67.861117">
        <ele>441.70</ele>
        <time>2022-10-26T12:31:49Z</time>
      </trkpt>
      <trkpt lat="10.240255" lon="-67.861170">
        <ele>441.70</ele>
        <time>2022-10-26T12:31:50Z</time>
      </trkpt>
      <trkpt lat="10.240243" lon="-67.861221">
        <ele>441.70</ele>
        <time>2022-10-26T12:31:51Z</time>
      </trkpt>
      <trkpt lat="10.240227" lon="-67.861270">
        <ele>441.70</ele>
        <time>2022-10-26T12:31:52Z</time>
      </trkpt>
      <trkpt lat="10.240211" lon="-67.861312">
        <ele>441.70</ele>
        <time>2022-10-26T12:31:53Z</time>
      </trkpt>
      <trkpt lat="10.240201" lon="-67.861355">
        <ele>441.70</ele>
        <time>2022-10-26T12:31:54Z</time>
      </trkpt>
      <trkpt lat="10.240194" lon="-67.861400">
        <ele>441.70</ele>
        <time>2022-10-26T12:31:55Z</time>
      </trkpt>
      <trkpt lat="10.240181" lon="-67.861443">
        <ele>441.70</ele>
        <time>2022-10-26T12:31:56Z</time>
      </trkpt>
      <trkpt lat="10.240169" lon="-67.861487">
        <ele>441.70</ele>
        <time>2022-10-26T12:31:57Z</time>
      </trkpt>
      <trkpt lat="10.240158" lon="-67.861532">
        <ele>441.70</ele>
        <time>2022-10-26T12:31:58Z</time>
      </trkpt>
      <trkpt lat="10.240152" lon="-67.861580">
        <ele>441.70</ele>
        <time>2022-10-26T12:31:59Z</time>
      </trkpt>
      <trkpt lat="10.240137" lon="-67.861629">
        <ele>441.70</ele>
        <time>2022-10-26T12:32:00Z</time>
      </trkpt>
      <trkpt lat="10.240122" lon="-67.861671">
        <ele>441.70</ele>
        <time>2022-10-26T12:32:01Z</time>
      </trkpt>
      <trkpt lat="10.240108" lon="-67.861716">
        <ele>441.70</ele>
        <time>2022-10-26T12:32:02Z</time>
      </trkpt>
      <trkpt lat="10.240101" lon="-67.861764">
        <ele>441.70</ele>
        <time>2022-10-26T12:32:03Z</time>
      </trkpt>
      <trkpt lat="10.240085" lon="-67.861813">
        <ele>441.70</ele>
        <time>2022-10-26T12:32:04Z</time>
      </trkpt>
      <trkpt lat="10.240058" lon="-67.861911">
        <ele>441.70</ele>
        <time>2022-10-26T12:32:06Z</time>
      </trkpt>
      <trkpt lat="10.240047" lon="-67.861960">
        <ele>441.70</ele>
        <time>2022-10-26T12:32:07Z</time>
      </trkpt>
      <trkpt lat="10.240033" lon="-67.862004">
        <ele>441.70</ele>
        <time>2022-10-26T12:32:08Z</time>
      </trkpt>
      <trkpt lat="10.240020" lon="-67.862049">
        <ele>441.70</ele>
        <time>2022-10-26T12:32:09Z</time>
      </trkpt>
      <trkpt lat="10.240012" lon="-67.862098">
        <ele>441.70</ele>
        <time>2022-10-26T12:32:10Z</time>
      </trkpt>
      <trkpt lat="10.239996" lon="-67.862148">
        <ele>441.70</ele>
        <time>2022-10-26T12:32:11Z</time>
      </trkpt>
      <trkpt lat="10.239984" lon="-67.862192">
        <ele>441.70</ele>
        <time>2022-10-26T12:32:12Z</time>
      </trkpt>
      <trkpt lat="10.239976" lon="-67.862241">
        <ele>441.70</ele>
        <time>2022-10-26T12:32:13Z</time>
      </trkpt>
      <trkpt lat="10.239967" lon="-67.862291">
        <ele>441.70</ele>
        <time>2022-10-26T12:32:14Z</time>
      </trkpt>
      <trkpt lat="10.239957" lon="-67.862335">
        <ele>441.70</ele>
        <time>2022-10-26T12:32:15Z</time>
      </trkpt>
      <trkpt lat="10.239935" lon="-67.862380">
        <ele>441.70</ele>
        <time>2022-10-26T12:32:16Z</time>
      </trkpt>
      <trkpt lat="10.239923" lon="-67.862423">
        <ele>441.70</ele>
        <time>2022-10-26T12:32:17Z</time>
      </trkpt>
      <trkpt lat="10.239913" lon="-67.862468">
        <ele>441.80</ele>
        <time>2022-10-26T12:32:18Z</time>
      </trkpt>
      <trkpt lat="10.239907" lon="-67.862503">
        <ele>441.80</ele>
        <time>2022-10-26T12:32:19Z</time>
      </trkpt>
      <trkpt lat="10.239906" lon="-67.862519">
        <ele>441.80</ele>
        <time>2022-10-26T12:32:20Z</time>
      </trkpt>
      <trkpt lat="10.239905" lon="-67.862531">
        <ele>441.80</ele>
        <time>2022-10-26T12:32:21Z</time>
      </trkpt>
      <trkpt lat="10.239903" lon="-67.862542">
        <ele>441.80</ele>
        <time>2022-10-26T12:32:22Z</time>
      </trkpt>
      <trkpt lat="10.239899" lon="-67.862577">
        <ele>441.80</ele>
        <time>2022-10-26T12:32:23Z</time>
      </trkpt>
      <trkpt lat="10.239898" lon="-67.862590">
        <ele>441.80</ele>
        <time>2022-10-26T12:32:24Z</time>
      </trkpt>
      <trkpt lat="10.239891" lon="-67.862624">
        <ele>441.80</ele>
        <time>2022-10-26T12:32:25Z</time>
      </trkpt>
      <trkpt lat="10.239888" lon="-67.862638">
        <ele>441.80</ele>
        <time>2022-10-26T12:32:26Z</time>
      </trkpt>
      <trkpt lat="10.239884" lon="-67.862675">
        <ele>441.80</ele>
        <time>2022-10-26T12:32:27Z</time>
      </trkpt>
      <trkpt lat="10.239868" lon="-67.862719">
        <ele>441.80</ele>
        <time>2022-10-26T12:32:28Z</time>
      </trkpt>
      <trkpt lat="10.239850" lon="-67.862779">
        <ele>441.80</ele>
        <time>2022-10-26T12:32:30Z</time>
      </trkpt>
      <trkpt lat="10.239832" lon="-67.862834">
        <ele>441.80</ele>
        <time>2022-10-26T12:32:31Z</time>
      </trkpt>
      <trkpt lat="10.239805" lon="-67.862939">
        <ele>441.80</ele>
        <time>2022-10-26T12:32:33Z</time>
      </trkpt>
      <trkpt lat="10.239783" lon="-67.863018">
        <ele>441.80</ele>
        <time>2022-10-26T12:32:34Z</time>
      </trkpt>
      <trkpt lat="10.239768" lon="-67.863094">
        <ele>441.80</ele>
        <time>2022-10-26T12:32:35Z</time>
      </trkpt>
      <trkpt lat="10.239752" lon="-67.863176">
        <ele>441.80</ele>
        <time>2022-10-26T12:32:36Z</time>
      </trkpt>
      <trkpt lat="10.239736" lon="-67.863268">
        <ele>441.70</ele>
        <time>2022-10-26T12:32:37Z</time>
      </trkpt>
      <trkpt lat="10.239723" lon="-67.863332">
        <ele>441.70</ele>
        <time>2022-10-26T12:32:38Z</time>
      </trkpt>
      <trkpt lat="10.239713" lon="-67.863389">
        <ele>441.70</ele>
        <time>2022-10-26T12:32:39Z</time>
      </trkpt>
      <trkpt lat="10.239701" lon="-67.863444">
        <ele>441.70</ele>
        <time>2022-10-26T12:32:40Z</time>
      </trkpt>
      <trkpt lat="10.239688" lon="-67.863502">
        <ele>441.70</ele>
        <time>2022-10-26T12:32:41Z</time>
      </trkpt>
      <trkpt lat="10.239675" lon="-67.863559">
        <ele>441.70</ele>
        <time>2022-10-26T12:32:42Z</time>
      </trkpt>
      <trkpt lat="10.239663" lon="-67.863610">
        <ele>441.70</ele>
        <time>2022-10-26T12:32:43Z</time>
      </trkpt>
      <trkpt lat="10.239654" lon="-67.863656">
        <ele>441.60</ele>
        <time>2022-10-26T12:32:44Z</time>
      </trkpt>
      <trkpt lat="10.239646" lon="-67.863698">
        <ele>441.60</ele>
        <time>2022-10-26T12:32:45Z</time>
      </trkpt>
      <trkpt lat="10.239634" lon="-67.863749">
        <ele>441.60</ele>
        <time>2022-10-26T12:32:46Z</time>
      </trkpt>
      <trkpt lat="10.239622" lon="-67.863801">
        <ele>441.60</ele>
        <time>2022-10-26T12:32:47Z</time>
      </trkpt>
      <trkpt lat="10.239612" lon="-67.863849">
        <ele>441.60</ele>
        <time>2022-10-26T12:32:48Z</time>
      </trkpt>
      <trkpt lat="10.239603" lon="-67.863894">
        <ele>441.60</ele>
        <time>2022-10-26T12:32:49Z</time>
      </trkpt>
      <trkpt lat="10.239595" lon="-67.863941">
        <ele>441.70</ele>
        <time>2022-10-26T12:32:50Z</time>
      </trkpt>
      <trkpt lat="10.239587" lon="-67.863990">
        <ele>441.70</ele>
        <time>2022-10-26T12:32:51Z</time>
      </trkpt>
      <trkpt lat="10.239580" lon="-67.864038">
        <ele>441.70</ele>
        <time>2022-10-26T12:32:52Z</time>
      </trkpt>
      <trkpt lat="10.239584" lon="-67.864079">
        <ele>441.70</ele>
        <time>2022-10-26T12:32:53Z</time>
      </trkpt>
      <trkpt lat="10.239568" lon="-67.864129">
        <ele>441.70</ele>
        <time>2022-10-26T12:32:54Z</time>
      </trkpt>
      <trkpt lat="10.239547" lon="-67.864179">
        <ele>441.70</ele>
        <time>2022-10-26T12:32:55Z</time>
      </trkpt>
      <trkpt lat="10.239532" lon="-67.864227">
        <ele>441.70</ele>
        <time>2022-10-26T12:32:56Z</time>
      </trkpt>
      <trkpt lat="10.239518" lon="-67.864274">
        <ele>441.70</ele>
        <time>2022-10-26T12:32:57Z</time>
      </trkpt>
      <trkpt lat="10.239508" lon="-67.864322">
        <ele>441.70</ele>
        <time>2022-10-26T12:32:58Z</time>
      </trkpt>
      <trkpt lat="10.239496" lon="-67.864369">
        <ele>441.70</ele>
        <time>2022-10-26T12:32:59Z</time>
      </trkpt>
      <trkpt lat="10.239484" lon="-67.864413">
        <ele>441.70</ele>
        <time>2022-10-26T12:33:00Z</time>
      </trkpt>
      <trkpt lat="10.239469" lon="-67.864462">
        <ele>441.70</ele>
        <time>2022-10-26T12:33:01Z</time>
      </trkpt>
      <trkpt lat="10.239459" lon="-67.864506">
        <ele>441.70</ele>
        <time>2022-10-26T12:33:02Z</time>
      </trkpt>
      <trkpt lat="10.239451" lon="-67.864553">
        <ele>441.70</ele>
        <time>2022-10-26T12:33:03Z</time>
      </trkpt>
      <trkpt lat="10.239440" lon="-67.864599">
        <ele>441.70</ele>
        <time>2022-10-26T12:33:04Z</time>
      </trkpt>
      <trkpt lat="10.239430" lon="-67.864643">
        <ele>441.70</ele>
        <time>2022-10-26T12:33:05Z</time>
      </trkpt>
      <trkpt lat="10.239424" lon="-67.864675">
        <ele>441.70</ele>
        <time>2022-10-26T12:33:06Z</time>
      </trkpt>
      <trkpt lat="10.239422" lon="-67.864691">
        <ele>441.70</ele>
        <time>2022-10-26T12:33:07Z</time>
      </trkpt>
      <trkpt lat="10.239420" lon="-67.864702">
        <ele>441.70</ele>
        <time>2022-10-26T12:33:08Z</time>
      </trkpt>
      <trkpt lat="10.239418" lon="-67.864713">
        <ele>441.70</ele>
        <time>2022-10-26T12:33:09Z</time>
      </trkpt>
      <trkpt lat="10.239410" lon="-67.864750">
        <ele>441.70</ele>
        <time>2022-10-26T12:33:10Z</time>
      </trkpt>
      <trkpt lat="10.239408" lon="-67.864763">
        <ele>441.70</ele>
        <time>2022-10-26T12:33:11Z</time>
      </trkpt>
      <trkpt lat="10.239400" lon="-67.864794">
        <ele>441.70</ele>
        <time>2022-10-26T12:33:12Z</time>
      </trkpt>
      <trkpt lat="10.239391" lon="-67.864829">
        <ele>441.70</ele>
        <time>2022-10-26T12:33:13Z</time>
      </trkpt>
      <trkpt lat="10.239384" lon="-67.864860">
        <ele>441.80</ele>
        <time>2022-10-26T12:33:14Z</time>
      </trkpt>
      <trkpt lat="10.239371" lon="-67.864910">
        <ele>441.80</ele>
        <time>2022-10-26T12:33:15Z</time>
      </trkpt>
      <trkpt lat="10.239360" lon="-67.864952">
        <ele>441.80</ele>
        <time>2022-10-26T12:33:16Z</time>
      </trkpt>
      <trkpt lat="10.239350" lon="-67.864995">
        <ele>441.80</ele>
        <time>2022-10-26T12:33:17Z</time>
      </trkpt>
      <trkpt lat="10.239333" lon="-67.865072">
        <ele>441.80</ele>
        <time>2022-10-26T12:33:19Z</time>
      </trkpt>
      <trkpt lat="10.239317" lon="-67.865147">
        <ele>441.80</ele>
        <time>2022-10-26T12:33:20Z</time>
      </trkpt>
      <trkpt lat="10.239293" lon="-67.865255">
        <ele>441.80</ele>
        <time>2022-10-26T12:33:22Z</time>
      </trkpt>
      <trkpt lat="10.239262" lon="-67.865372">
        <ele>441.80</ele>
        <time>2022-10-26T12:33:23Z</time>
      </trkpt>
      <trkpt lat="10.239246" lon="-67.865442">
        <ele>441.80</ele>
        <time>2022-10-26T12:33:24Z</time>
      </trkpt>
      <trkpt lat="10.239232" lon="-67.865504">
        <ele>441.80</ele>
        <time>2022-10-26T12:33:25Z</time>
      </trkpt>
      <trkpt lat="10.239219" lon="-67.865566">
        <ele>441.90</ele>
        <time>2022-10-26T12:33:26Z</time>
      </trkpt>
      <trkpt lat="10.239207" lon="-67.865627">
        <ele>441.90</ele>
        <time>2022-10-26T12:33:27Z</time>
      </trkpt>
      <trkpt lat="10.239195" lon="-67.865683">
        <ele>441.90</ele>
        <time>2022-10-26T12:33:28Z</time>
      </trkpt>
      <trkpt lat="10.239185" lon="-67.865736">
        <ele>441.90</ele>
        <time>2022-10-26T12:33:29Z</time>
      </trkpt>
      <trkpt lat="10.239177" lon="-67.865784">
        <ele>441.90</ele>
        <time>2022-10-26T12:33:30Z</time>
      </trkpt>
      <trkpt lat="10.239170" lon="-67.865830">
        <ele>441.90</ele>
        <time>2022-10-26T12:33:31Z</time>
      </trkpt>
      <trkpt lat="10.239162" lon="-67.865876">
        <ele>441.90</ele>
        <time>2022-10-26T12:33:32Z</time>
      </trkpt>
      <trkpt lat="10.239153" lon="-67.865922">
        <ele>441.90</ele>
        <time>2022-10-26T12:33:33Z</time>
      </trkpt>
      <trkpt lat="10.239145" lon="-67.865966">
        <ele>441.90</ele>
        <time>2022-10-26T12:33:34Z</time>
      </trkpt>
      <trkpt lat="10.239137" lon="-67.866016">
        <ele>441.90</ele>
        <time>2022-10-26T12:33:35Z</time>
      </trkpt>
      <trkpt lat="10.239117" lon="-67.866065">
        <ele>441.90</ele>
        <time>2022-10-26T12:33:36Z</time>
      </trkpt>
      <trkpt lat="10.239099" lon="-67.866111">
        <ele>441.90</ele>
        <time>2022-10-26T12:33:37Z</time>
      </trkpt>
      <trkpt lat="10.239085" lon="-67.866157">
        <ele>441.90</ele>
        <time>2022-10-26T12:33:38Z</time>
      </trkpt>
      <trkpt lat="10.239070" lon="-67.866203">
        <ele>442.00</ele>
        <time>2022-10-26T12:33:39Z</time>
      </trkpt>
      <trkpt lat="10.239054" lon="-67.866251">
        <ele>442.00</ele>
        <time>2022-10-26T12:33:40Z</time>
      </trkpt>
      <trkpt lat="10.239044" lon="-67.866298">
        <ele>442.00</ele>
        <time>2022-10-26T12:33:41Z</time>
      </trkpt>
      <trkpt lat="10.239036" lon="-67.866345">
        <ele>442.00</ele>
        <time>2022-10-26T12:33:42Z</time>
      </trkpt>
      <trkpt lat="10.239027" lon="-67.866392">
        <ele>442.00</ele>
        <time>2022-10-26T12:33:43Z</time>
      </trkpt>
      <trkpt lat="10.239019" lon="-67.866437">
        <ele>442.00</ele>
        <time>2022-10-26T12:33:44Z</time>
      </trkpt>
      <trkpt lat="10.239007" lon="-67.866481">
        <ele>442.00</ele>
        <time>2022-10-26T12:33:45Z</time>
      </trkpt>
      <trkpt lat="10.238994" lon="-67.866524">
        <ele>442.00</ele>
        <time>2022-10-26T12:33:46Z</time>
      </trkpt>
      <trkpt lat="10.238979" lon="-67.866571">
        <ele>442.00</ele>
        <time>2022-10-26T12:33:47Z</time>
      </trkpt>
      <trkpt lat="10.238968" lon="-67.866617">
        <ele>442.00</ele>
        <time>2022-10-26T12:33:48Z</time>
      </trkpt>
      <trkpt lat="10.238957" lon="-67.866661">
        <ele>442.00</ele>
        <time>2022-10-26T12:33:49Z</time>
      </trkpt>
      <trkpt lat="10.238945" lon="-67.866705">
        <ele>442.00</ele>
        <time>2022-10-26T12:33:50Z</time>
      </trkpt>
      <trkpt lat="10.238935" lon="-67.866751">
        <ele>442.00</ele>
        <time>2022-10-26T12:33:51Z</time>
      </trkpt>
      <trkpt lat="10.238922" lon="-67.866797">
        <ele>442.00</ele>
        <time>2022-10-26T12:33:52Z</time>
      </trkpt>
      <trkpt lat="10.238908" lon="-67.866841">
        <ele>442.00</ele>
        <time>2022-10-26T12:33:53Z</time>
      </trkpt>
      <trkpt lat="10.238898" lon="-67.866886">
        <ele>442.00</ele>
        <time>2022-10-26T12:33:54Z</time>
      </trkpt>
      <trkpt lat="10.238887" lon="-67.866934">
        <ele>442.00</ele>
        <time>2022-10-26T12:33:55Z</time>
      </trkpt>
      <trkpt lat="10.238877" lon="-67.866979">
        <ele>442.00</ele>
        <time>2022-10-26T12:33:56Z</time>
      </trkpt>
      <trkpt lat="10.238872" lon="-67.867010">
        <ele>442.00</ele>
        <time>2022-10-26T12:33:57Z</time>
      </trkpt>
      <trkpt lat="10.238861" lon="-67.867056">
        <ele>442.00</ele>
        <time>2022-10-26T12:33:58Z</time>
      </trkpt>
      <trkpt lat="10.238848" lon="-67.867102">
        <ele>442.00</ele>
        <time>2022-10-26T12:33:59Z</time>
      </trkpt>
      <trkpt lat="10.238843" lon="-67.867131">
        <ele>442.00</ele>
        <time>2022-10-26T12:34:00Z</time>
      </trkpt>
      <trkpt lat="10.238845" lon="-67.867143">
        <ele>442.10</ele>
        <time>2022-10-26T12:34:01Z</time>
      </trkpt>
      <trkpt lat="10.238850" lon="-67.867146">
        <ele>442.10</ele>
        <time>2022-10-26T12:34:02Z</time>
      </trkpt>
      <trkpt lat="10.238851" lon="-67.867154">
        <ele>442.10</ele>
        <time>2022-10-26T12:34:03Z</time>
      </trkpt>
      <trkpt lat="10.238858" lon="-67.867156">
        <ele>442.10</ele>
        <time>2022-10-26T12:34:04Z</time>
      </trkpt>
      <trkpt lat="10.238855" lon="-67.867187">
        <ele>442.10</ele>
        <time>2022-10-26T12:34:05Z</time>
      </trkpt>
      <trkpt lat="10.238853" lon="-67.867198">
        <ele>442.10</ele>
        <time>2022-10-26T12:34:06Z</time>
      </trkpt>
      <trkpt lat="10.238848" lon="-67.867237">
        <ele>442.10</ele>
        <time>2022-10-26T12:34:07Z</time>
      </trkpt>
      <trkpt lat="10.238845" lon="-67.867263">
        <ele>442.10</ele>
        <time>2022-10-26T12:34:08Z</time>
      </trkpt>
      <trkpt lat="10.238841" lon="-67.867294">
        <ele>442.10</ele>
        <time>2022-10-26T12:34:10Z</time>
      </trkpt>
      <trkpt lat="10.238831" lon="-67.867339">
        <ele>442.10</ele>
        <time>2022-10-26T12:34:11Z</time>
      </trkpt>
      <trkpt lat="10.238819" lon="-67.867377">
        <ele>442.20</ele>
        <time>2022-10-26T12:34:12Z</time>
      </trkpt>
      <trkpt lat="10.238809" lon="-67.867444">
        <ele>442.20</ele>
        <time>2022-10-26T12:34:14Z</time>
      </trkpt>
      <trkpt lat="10.238798" lon="-67.867503">
        <ele>442.20</ele>
        <time>2022-10-26T12:34:15Z</time>
      </trkpt>
      <trkpt lat="10.238787" lon="-67.867552">
        <ele>442.20</ele>
        <time>2022-10-26T12:34:16Z</time>
      </trkpt>
      <trkpt lat="10.238772" lon="-67.867604">
        <ele>442.20</ele>
        <time>2022-10-26T12:34:17Z</time>
      </trkpt>
      <trkpt lat="10.238746" lon="-67.867684">
        <ele>442.30</ele>
        <time>2022-10-26T12:34:18Z</time>
      </trkpt>
      <trkpt lat="10.238723" lon="-67.867769">
        <ele>442.30</ele>
        <time>2022-10-26T12:34:20Z</time>
      </trkpt>
      <trkpt lat="10.238684" lon="-67.867895">
        <ele>442.40</ele>
        <time>2022-10-26T12:34:22Z</time>
      </trkpt>
      <trkpt lat="10.238655" lon="-67.867961">
        <ele>442.40</ele>
        <time>2022-10-26T12:34:23Z</time>
      </trkpt>
      <trkpt lat="10.238622" lon="-67.868039">
        <ele>442.50</ele>
        <time>2022-10-26T12:34:24Z</time>
      </trkpt>
      <trkpt lat="10.238589" lon="-67.868127">
        <ele>442.50</ele>
        <time>2022-10-26T12:34:25Z</time>
      </trkpt>
      <trkpt lat="10.238568" lon="-67.868194">
        <ele>442.60</ele>
        <time>2022-10-26T12:34:26Z</time>
      </trkpt>
      <trkpt lat="10.238550" lon="-67.868253">
        <ele>442.60</ele>
        <time>2022-10-26T12:34:27Z</time>
      </trkpt>
      <trkpt lat="10.238534" lon="-67.868301">
        <ele>442.60</ele>
        <time>2022-10-26T12:34:28Z</time>
      </trkpt>
      <trkpt lat="10.238494" lon="-67.868339">
        <ele>442.70</ele>
        <time>2022-10-26T12:34:29Z</time>
      </trkpt>
      <trkpt lat="10.238478" lon="-67.868391">
        <ele>442.70</ele>
        <time>2022-10-26T12:34:31Z</time>
      </trkpt>
      <trkpt lat="10.238461" lon="-67.868451">
        <ele>442.80</ele>
        <time>2022-10-26T12:34:32Z</time>
      </trkpt>
      <trkpt lat="10.238442" lon="-67.868496">
        <ele>442.80</ele>
        <time>2022-10-26T12:34:33Z</time>
      </trkpt>
      <trkpt lat="10.238425" lon="-67.868536">
        <ele>442.80</ele>
        <time>2022-10-26T12:34:34Z</time>
      </trkpt>
      <trkpt lat="10.238402" lon="-67.868586">
        <ele>442.90</ele>
        <time>2022-10-26T12:34:35Z</time>
      </trkpt>
      <trkpt lat="10.238373" lon="-67.868659">
        <ele>443.00</ele>
        <time>2022-10-26T12:34:36Z</time>
      </trkpt>
      <trkpt lat="10.238354" lon="-67.868701">
        <ele>443.00</ele>
        <time>2022-10-26T12:34:37Z</time>
      </trkpt>
      <trkpt lat="10.238333" lon="-67.868741">
        <ele>443.10</ele>
        <time>2022-10-26T12:34:39Z</time>
      </trkpt>
      <trkpt lat="10.238318" lon="-67.868781">
        <ele>443.10</ele>
        <time>2022-10-26T12:34:40Z</time>
      </trkpt>
      <trkpt lat="10.238299" lon="-67.868834">
        <ele>443.20</ele>
        <time>2022-10-26T12:34:41Z</time>
      </trkpt>
      <trkpt lat="10.238282" lon="-67.868876">
        <ele>443.20</ele>
        <time>2022-10-26T12:34:42Z</time>
      </trkpt>
      <trkpt lat="10.238269" lon="-67.868920">
        <ele>443.30</ele>
        <time>2022-10-26T12:34:43Z</time>
      </trkpt>
      <trkpt lat="10.238257" lon="-67.868957">
        <ele>443.40</ele>
        <time>2022-10-26T12:34:44Z</time>
      </trkpt>
      <trkpt lat="10.238251" lon="-67.868991">
        <ele>443.40</ele>
        <time>2022-10-26T12:34:45Z</time>
      </trkpt>
      <trkpt lat="10.238240" lon="-67.869024">
        <ele>443.50</ele>
        <time>2022-10-26T12:34:46Z</time>
      </trkpt>
      <trkpt lat="10.238207" lon="-67.869086">
        <ele>443.50</ele>
        <time>2022-10-26T12:34:47Z</time>
      </trkpt>
      <trkpt lat="10.238185" lon="-67.869139">
        <ele>443.60</ele>
        <time>2022-10-26T12:34:49Z</time>
      </trkpt>
      <trkpt lat="10.238167" lon="-67.869180">
        <ele>443.70</ele>
        <time>2022-10-26T12:34:50Z</time>
      </trkpt>
      <trkpt lat="10.238153" lon="-67.869216">
        <ele>443.70</ele>
        <time>2022-10-26T12:34:51Z</time>
      </trkpt>
      <trkpt lat="10.238142" lon="-67.869233">
        <ele>443.80</ele>
        <time>2022-10-26T12:34:52Z</time>
      </trkpt>
      <trkpt lat="10.238138" lon="-67.869241">
        <ele>443.80</ele>
        <time>2022-10-26T12:34:53Z</time>
      </trkpt>
      <trkpt lat="10.238134" lon="-67.869250">
        <ele>443.80</ele>
        <time>2022-10-26T12:34:54Z</time>
      </trkpt>
      <trkpt lat="10.238122" lon="-67.869280">
        <ele>443.80</ele>
        <time>2022-10-26T12:34:55Z</time>
      </trkpt>
      <trkpt lat="10.238116" lon="-67.869294">
        <ele>443.90</ele>
        <time>2022-10-26T12:34:56Z</time>
      </trkpt>
      <trkpt lat="10.238097" lon="-67.869340">
        <ele>443.90</ele>
        <time>2022-10-26T12:34:57Z</time>
      </trkpt>
      <trkpt lat="10.238087" lon="-67.869365">
        <ele>444.00</ele>
        <time>2022-10-26T12:34:58Z</time>
      </trkpt>
      <trkpt lat="10.238068" lon="-67.869404">
        <ele>444.00</ele>
        <time>2022-10-26T12:35:00Z</time>
      </trkpt>
      <trkpt lat="10.238046" lon="-67.869460">
        <ele>444.10</ele>
        <time>2022-10-26T12:35:01Z</time>
      </trkpt>
      <trkpt lat="10.238027" lon="-67.869502">
        <ele>444.20</ele>
        <time>2022-10-26T12:35:02Z</time>
      </trkpt>
      <trkpt lat="10.238008" lon="-67.869544">
        <ele>444.30</ele>
        <time>2022-10-26T12:35:03Z</time>
      </trkpt>
      <trkpt lat="10.237981" lon="-67.869604">
        <ele>444.40</ele>
        <time>2022-10-26T12:35:04Z</time>
      </trkpt>
      <trkpt lat="10.237940" lon="-67.869693">
        <ele>444.50</ele>
        <time>2022-10-26T12:35:06Z</time>
      </trkpt>
      <trkpt lat="10.237903" lon="-67.869766">
        <ele>444.60</ele>
        <time>2022-10-26T12:35:07Z</time>
      </trkpt>
      <trkpt lat="10.237872" lon="-67.869820">
        <ele>444.70</ele>
        <time>2022-10-26T12:35:08Z</time>
      </trkpt>
      <trkpt lat="10.237827" lon="-67.869907">
        <ele>444.80</ele>
        <time>2022-10-26T12:35:10Z</time>
      </trkpt>
      <trkpt lat="10.237799" lon="-67.869953">
        <ele>444.90</ele>
        <time>2022-10-26T12:35:11Z</time>
      </trkpt>
      <trkpt lat="10.237775" lon="-67.869999">
        <ele>445.00</ele>
        <time>2022-10-26T12:35:12Z</time>
      </trkpt>
      <trkpt lat="10.237750" lon="-67.870047">
        <ele>445.00</ele>
        <time>2022-10-26T12:35:13Z</time>
      </trkpt>
      <trkpt lat="10.237725" lon="-67.870094">
        <ele>445.10</ele>
        <time>2022-10-26T12:35:14Z</time>
      </trkpt>
      <trkpt lat="10.237703" lon="-67.870141">
        <ele>445.10</ele>
        <time>2022-10-26T12:35:15Z</time>
      </trkpt>
      <trkpt lat="10.237678" lon="-67.870188">
        <ele>445.20</ele>
        <time>2022-10-26T12:35:16Z</time>
      </trkpt>
      <trkpt lat="10.237654" lon="-67.870230">
        <ele>445.30</ele>
        <time>2022-10-26T12:35:17Z</time>
      </trkpt>
      <trkpt lat="10.237632" lon="-67.870266">
        <ele>445.40</ele>
        <time>2022-10-26T12:35:18Z</time>
      </trkpt>
      <trkpt lat="10.237609" lon="-67.870302">
        <ele>445.40</ele>
        <time>2022-10-26T12:35:19Z</time>
      </trkpt>
      <trkpt lat="10.237585" lon="-67.870350">
        <ele>445.50</ele>
        <time>2022-10-26T12:35:20Z</time>
      </trkpt>
      <trkpt lat="10.237550" lon="-67.870413">
        <ele>445.60</ele>
        <time>2022-10-26T12:35:21Z</time>
      </trkpt>
      <trkpt lat="10.237524" lon="-67.870460">
        <ele>445.70</ele>
        <time>2022-10-26T12:35:22Z</time>
      </trkpt>
      <trkpt lat="10.237476" lon="-67.870552">
        <ele>445.80</ele>
        <time>2022-10-26T12:35:24Z</time>
      </trkpt>
      <trkpt lat="10.237452" lon="-67.870597">
        <ele>445.90</ele>
        <time>2022-10-26T12:35:25Z</time>
      </trkpt>
      <trkpt lat="10.237435" lon="-67.870619">
        <ele>445.90</ele>
        <time>2022-10-26T12:35:26Z</time>
      </trkpt>
      <trkpt lat="10.237419" lon="-67.870644">
        <ele>446.00</ele>
        <time>2022-10-26T12:35:27Z</time>
      </trkpt>
      <trkpt lat="10.237400" lon="-67.870687">
        <ele>446.00</ele>
        <time>2022-10-26T12:35:28Z</time>
      </trkpt>
      <trkpt lat="10.237379" lon="-67.870727">
        <ele>446.10</ele>
        <time>2022-10-26T12:35:29Z</time>
      </trkpt>
      <trkpt lat="10.237360" lon="-67.870764">
        <ele>446.10</ele>
        <time>2022-10-26T12:35:30Z</time>
      </trkpt>
      <trkpt lat="10.237340" lon="-67.870802">
        <ele>446.20</ele>
        <time>2022-10-26T12:35:31Z</time>
      </trkpt>
      <trkpt lat="10.237322" lon="-67.870838">
        <ele>446.20</ele>
        <time>2022-10-26T12:35:32Z</time>
      </trkpt>
      <trkpt lat="10.237298" lon="-67.870878">
        <ele>446.30</ele>
        <time>2022-10-26T12:35:33Z</time>
      </trkpt>
      <trkpt lat="10.237271" lon="-67.870918">
        <ele>446.40</ele>
        <time>2022-10-26T12:35:34Z</time>
      </trkpt>
      <trkpt lat="10.237244" lon="-67.870955">
        <ele>446.40</ele>
        <time>2022-10-26T12:35:35Z</time>
      </trkpt>
      <trkpt lat="10.237222" lon="-67.870990">
        <ele>446.50</ele>
        <time>2022-10-26T12:35:36Z</time>
      </trkpt>
      <trkpt lat="10.237199" lon="-67.871028">
        <ele>446.60</ele>
        <time>2022-10-26T12:35:37Z</time>
      </trkpt>
      <trkpt lat="10.237163" lon="-67.871083">
        <ele>446.70</ele>
        <time>2022-10-26T12:35:38Z</time>
      </trkpt>
      <trkpt lat="10.237137" lon="-67.871123">
        <ele>446.70</ele>
        <time>2022-10-26T12:35:40Z</time>
      </trkpt>
      <trkpt lat="10.237112" lon="-67.871162">
        <ele>446.80</ele>
        <time>2022-10-26T12:35:41Z</time>
      </trkpt>
      <trkpt lat="10.237085" lon="-67.871204">
        <ele>446.90</ele>
        <time>2022-10-26T12:35:42Z</time>
      </trkpt>
      <trkpt lat="10.237064" lon="-67.871237">
        <ele>446.90</ele>
        <time>2022-10-26T12:35:43Z</time>
      </trkpt>
      <trkpt lat="10.237043" lon="-67.871274">
        <ele>447.00</ele>
        <time>2022-10-26T12:35:44Z</time>
      </trkpt>
      <trkpt lat="10.237024" lon="-67.871308">
        <ele>447.00</ele>
        <time>2022-10-26T12:35:45Z</time>
      </trkpt>
      <trkpt lat="10.237003" lon="-67.871344">
        <ele>447.10</ele>
        <time>2022-10-26T12:35:46Z</time>
      </trkpt>
      <trkpt lat="10.236979" lon="-67.871381">
        <ele>447.20</ele>
        <time>2022-10-26T12:35:47Z</time>
      </trkpt>
      <trkpt lat="10.236958" lon="-67.871417">
        <ele>447.20</ele>
        <time>2022-10-26T12:35:48Z</time>
      </trkpt>
      <trkpt lat="10.236938" lon="-67.871450">
        <ele>447.30</ele>
        <time>2022-10-26T12:35:49Z</time>
      </trkpt>
      <trkpt lat="10.236917" lon="-67.871483">
        <ele>447.30</ele>
        <time>2022-10-26T12:35:50Z</time>
      </trkpt>
      <trkpt lat="10.236895" lon="-67.871518">
        <ele>447.40</ele>
        <time>2022-10-26T12:35:51Z</time>
      </trkpt>
      <trkpt lat="10.236867" lon="-67.871560">
        <ele>447.50</ele>
        <time>2022-10-26T12:35:52Z</time>
      </trkpt>
      <trkpt lat="10.236829" lon="-67.871617">
        <ele>447.60</ele>
        <time>2022-10-26T12:35:53Z</time>
      </trkpt>
      <trkpt lat="10.236802" lon="-67.871662">
        <ele>447.70</ele>
        <time>2022-10-26T12:35:54Z</time>
      </trkpt>
      <trkpt lat="10.236774" lon="-67.871706">
        <ele>447.80</ele>
        <time>2022-10-26T12:35:55Z</time>
      </trkpt>
      <trkpt lat="10.236752" lon="-67.871736">
        <ele>447.80</ele>
        <time>2022-10-26T12:35:56Z</time>
      </trkpt>
      <trkpt lat="10.236718" lon="-67.871786">
        <ele>447.90</ele>
        <time>2022-10-26T12:35:58Z</time>
      </trkpt>
      <trkpt lat="10.236688" lon="-67.871828">
        <ele>448.00</ele>
        <time>2022-10-26T12:35:59Z</time>
      </trkpt>
      <trkpt lat="10.236651" lon="-67.871881">
        <ele>448.10</ele>
        <time>2022-10-26T12:36:00Z</time>
      </trkpt>
      <trkpt lat="10.236615" lon="-67.871927">
        <ele>448.20</ele>
        <time>2022-10-26T12:36:02Z</time>
      </trkpt>
      <trkpt lat="10.236595" lon="-67.871963">
        <ele>448.20</ele>
        <time>2022-10-26T12:36:03Z</time>
      </trkpt>
      <trkpt lat="10.236571" lon="-67.872007">
        <ele>448.30</ele>
        <time>2022-10-26T12:36:04Z</time>
      </trkpt>
      <trkpt lat="10.236550" lon="-67.872046">
        <ele>448.40</ele>
        <time>2022-10-26T12:36:05Z</time>
      </trkpt>
      <trkpt lat="10.236529" lon="-67.872090">
        <ele>448.50</ele>
        <time>2022-10-26T12:36:06Z</time>
      </trkpt>
      <trkpt lat="10.236509" lon="-67.872126">
        <ele>448.50</ele>
        <time>2022-10-26T12:36:07Z</time>
      </trkpt>
      <trkpt lat="10.236489" lon="-67.872161">
        <ele>448.60</ele>
        <time>2022-10-26T12:36:08Z</time>
      </trkpt>
      <trkpt lat="10.236482" lon="-67.872163">
        <ele>448.60</ele>
        <time>2022-10-26T12:36:09Z</time>
      </trkpt>
      <trkpt lat="10.236484" lon="-67.872168">
        <ele>448.60</ele>
        <time>2022-10-26T12:36:10Z</time>
      </trkpt>
      <trkpt lat="10.236460" lon="-67.872213">
        <ele>448.70</ele>
        <time>2022-10-26T12:36:12Z</time>
      </trkpt>
      <trkpt lat="10.236429" lon="-67.872268">
        <ele>448.80</ele>
        <time>2022-10-26T12:36:13Z</time>
      </trkpt>
      <trkpt lat="10.236400" lon="-67.872315">
        <ele>448.80</ele>
        <time>2022-10-26T12:36:14Z</time>
      </trkpt>
      <trkpt lat="10.236357" lon="-67.872382">
        <ele>448.90</ele>
        <time>2022-10-26T12:36:15Z</time>
      </trkpt>
      <trkpt lat="10.236317" lon="-67.872447">
        <ele>449.00</ele>
        <time>2022-10-26T12:36:17Z</time>
      </trkpt>
      <trkpt lat="10.236283" lon="-67.872501">
        <ele>449.00</ele>
        <time>2022-10-26T12:36:18Z</time>
      </trkpt>
      <trkpt lat="10.236256" lon="-67.872544">
        <ele>449.00</ele>
        <time>2022-10-26T12:36:19Z</time>
      </trkpt>
      <trkpt lat="10.236230" lon="-67.872586">
        <ele>449.10</ele>
        <time>2022-10-26T12:36:20Z</time>
      </trkpt>
      <trkpt lat="10.236203" lon="-67.872633">
        <ele>449.10</ele>
        <time>2022-10-26T12:36:21Z</time>
      </trkpt>
      <trkpt lat="10.236179" lon="-67.872674">
        <ele>449.10</ele>
        <time>2022-10-26T12:36:22Z</time>
      </trkpt>
      <trkpt lat="10.236160" lon="-67.872706">
        <ele>449.20</ele>
        <time>2022-10-26T12:36:23Z</time>
      </trkpt>
      <trkpt lat="10.236143" lon="-67.872739">
        <ele>449.20</ele>
        <time>2022-10-26T12:36:25Z</time>
      </trkpt>
      <trkpt lat="10.236129" lon="-67.872770">
        <ele>449.20</ele>
        <time>2022-10-26T12:36:26Z</time>
      </trkpt>
      <trkpt lat="10.236116" lon="-67.872801">
        <ele>449.20</ele>
        <time>2022-10-26T12:36:27Z</time>
      </trkpt>
      <trkpt lat="10.236032" lon="-67.872941">
        <ele>449.30</ele>
        <time>2022-10-26T12:36:29Z</time>
      </trkpt>
      <trkpt lat="10.236002" lon="-67.872996">
        <ele>449.30</ele>
        <time>2022-10-26T12:36:30Z</time>
      </trkpt>
      <trkpt lat="10.235976" lon="-67.873046">
        <ele>449.30</ele>
        <time>2022-10-26T12:36:31Z</time>
      </trkpt>
      <trkpt lat="10.235950" lon="-67.873093">
        <ele>449.30</ele>
        <time>2022-10-26T12:36:32Z</time>
      </trkpt>
      <trkpt lat="10.235929" lon="-67.873136">
        <ele>449.30</ele>
        <time>2022-10-26T12:36:33Z</time>
      </trkpt>
      <trkpt lat="10.235907" lon="-67.873178">
        <ele>449.30</ele>
        <time>2022-10-26T12:36:34Z</time>
      </trkpt>
      <trkpt lat="10.235885" lon="-67.873220">
        <ele>449.30</ele>
        <time>2022-10-26T12:36:35Z</time>
      </trkpt>
      <trkpt lat="10.235865" lon="-67.873259">
        <ele>449.30</ele>
        <time>2022-10-26T12:36:36Z</time>
      </trkpt>
      <trkpt lat="10.235843" lon="-67.873298">
        <ele>449.30</ele>
        <time>2022-10-26T12:36:37Z</time>
      </trkpt>
      <trkpt lat="10.235844" lon="-67.873337">
        <ele>449.30</ele>
        <time>2022-10-26T12:36:38Z</time>
      </trkpt>
      <trkpt lat="10.235790" lon="-67.873416">
        <ele>449.20</ele>
        <time>2022-10-26T12:36:40Z</time>
      </trkpt>
      <trkpt lat="10.235759" lon="-67.873461">
        <ele>449.20</ele>
        <time>2022-10-26T12:36:41Z</time>
      </trkpt>
      <trkpt lat="10.235730" lon="-67.873506">
        <ele>449.10</ele>
        <time>2022-10-26T12:36:42Z</time>
      </trkpt>
      <trkpt lat="10.235703" lon="-67.873547">
        <ele>449.10</ele>
        <time>2022-10-26T12:36:43Z</time>
      </trkpt>
      <trkpt lat="10.235676" lon="-67.873586">
        <ele>449.10</ele>
        <time>2022-10-26T12:36:44Z</time>
      </trkpt>
      <trkpt lat="10.235648" lon="-67.873625">
        <ele>449.00</ele>
        <time>2022-10-26T12:36:45Z</time>
      </trkpt>
      <trkpt lat="10.235624" lon="-67.873664">
        <ele>449.00</ele>
        <time>2022-10-26T12:36:46Z</time>
      </trkpt>
      <trkpt lat="10.235596" lon="-67.873706">
        <ele>449.00</ele>
        <time>2022-10-26T12:36:47Z</time>
      </trkpt>
      <trkpt lat="10.235567" lon="-67.873748">
        <ele>448.90</ele>
        <time>2022-10-26T12:36:48Z</time>
      </trkpt>
      <trkpt lat="10.235545" lon="-67.873796">
        <ele>448.90</ele>
        <time>2022-10-26T12:36:49Z</time>
      </trkpt>
      <trkpt lat="10.235524" lon="-67.873841">
        <ele>448.90</ele>
        <time>2022-10-26T12:36:50Z</time>
      </trkpt>
      <trkpt lat="10.235494" lon="-67.873882">
        <ele>448.80</ele>
        <time>2022-10-26T12:36:51Z</time>
      </trkpt>
      <trkpt lat="10.235467" lon="-67.873926">
        <ele>448.80</ele>
        <time>2022-10-26T12:36:52Z</time>
      </trkpt>
      <trkpt lat="10.235440" lon="-67.873971">
        <ele>448.70</ele>
        <time>2022-10-26T12:36:53Z</time>
      </trkpt>
      <trkpt lat="10.235418" lon="-67.874013">
        <ele>448.70</ele>
        <time>2022-10-26T12:36:54Z</time>
      </trkpt>
      <trkpt lat="10.235390" lon="-67.874058">
        <ele>448.60</ele>
        <time>2022-10-26T12:36:55Z</time>
      </trkpt>
      <trkpt lat="10.235360" lon="-67.874106">
        <ele>448.60</ele>
        <time>2022-10-26T12:36:56Z</time>
      </trkpt>
      <trkpt lat="10.235321" lon="-67.874151">
        <ele>448.50</ele>
        <time>2022-10-26T12:36:57Z</time>
      </trkpt>
      <trkpt lat="10.235267" lon="-67.874200">
        <ele>448.40</ele>
        <time>2022-10-26T12:36:58Z</time>
      </trkpt>
      <trkpt lat="10.235231" lon="-67.874241">
        <ele>448.40</ele>
        <time>2022-10-26T12:36:59Z</time>
      </trkpt>
      <trkpt lat="10.235212" lon="-67.874286">
        <ele>448.30</ele>
        <time>2022-10-26T12:37:00Z</time>
      </trkpt>
      <trkpt lat="10.235183" lon="-67.874331">
        <ele>448.30</ele>
        <time>2022-10-26T12:37:01Z</time>
      </trkpt>
      <trkpt lat="10.235156" lon="-67.874381">
        <ele>448.30</ele>
        <time>2022-10-26T12:37:02Z</time>
      </trkpt>
      <trkpt lat="10.235128" lon="-67.874432">
        <ele>448.20</ele>
        <time>2022-10-26T12:37:03Z</time>
      </trkpt>
      <trkpt lat="10.235104" lon="-67.874483">
        <ele>448.20</ele>
        <time>2022-10-26T12:37:04Z</time>
      </trkpt>
      <trkpt lat="10.235085" lon="-67.874532">
        <ele>448.10</ele>
        <time>2022-10-26T12:37:05Z</time>
      </trkpt>
      <trkpt lat="10.235062" lon="-67.874583">
        <ele>448.10</ele>
        <time>2022-10-26T12:37:06Z</time>
      </trkpt>
      <trkpt lat="10.235046" lon="-67.874634">
        <ele>448.00</ele>
        <time>2022-10-26T12:37:07Z</time>
      </trkpt>
      <trkpt lat="10.235020" lon="-67.874687">
        <ele>448.00</ele>
        <time>2022-10-26T12:37:08Z</time>
      </trkpt>
      <trkpt lat="10.234990" lon="-67.874738">
        <ele>447.90</ele>
        <time>2022-10-26T12:37:09Z</time>
      </trkpt>
      <trkpt lat="10.234968" lon="-67.874790">
        <ele>447.90</ele>
        <time>2022-10-26T12:37:10Z</time>
      </trkpt>
      <trkpt lat="10.234945" lon="-67.874839">
        <ele>447.90</ele>
        <time>2022-10-26T12:37:11Z</time>
      </trkpt>
      <trkpt lat="10.234913" lon="-67.874886">
        <ele>447.80</ele>
        <time>2022-10-26T12:37:12Z</time>
      </trkpt>
      <trkpt lat="10.234873" lon="-67.874933">
        <ele>447.80</ele>
        <time>2022-10-26T12:37:13Z</time>
      </trkpt>
      <trkpt lat="10.234846" lon="-67.874984">
        <ele>447.70</ele>
        <time>2022-10-26T12:37:14Z</time>
      </trkpt>
      <trkpt lat="10.234820" lon="-67.875035">
        <ele>447.70</ele>
        <time>2022-10-26T12:37:15Z</time>
      </trkpt>
      <trkpt lat="10.234795" lon="-67.875081">
        <ele>447.70</ele>
        <time>2022-10-26T12:37:16Z</time>
      </trkpt>
      <trkpt lat="10.234769" lon="-67.875128">
        <ele>447.60</ele>
        <time>2022-10-26T12:37:17Z</time>
      </trkpt>
      <trkpt lat="10.234744" lon="-67.875176">
        <ele>447.60</ele>
        <time>2022-10-26T12:37:18Z</time>
      </trkpt>
      <trkpt lat="10.234726" lon="-67.875233">
        <ele>447.60</ele>
        <time>2022-10-26T12:37:19Z</time>
      </trkpt>
      <trkpt lat="10.234710" lon="-67.875293">
        <ele>447.60</ele>
        <time>2022-10-26T12:37:20Z</time>
      </trkpt>
      <trkpt lat="10.234684" lon="-67.875344">
        <ele>447.60</ele>
        <time>2022-10-26T12:37:21Z</time>
      </trkpt>
      <trkpt lat="10.234658" lon="-67.875391">
        <ele>447.60</ele>
        <time>2022-10-26T12:37:22Z</time>
      </trkpt>
      <trkpt lat="10.234635" lon="-67.875436">
        <ele>447.60</ele>
        <time>2022-10-26T12:37:23Z</time>
      </trkpt>
      <trkpt lat="10.234612" lon="-67.875484">
        <ele>447.60</ele>
        <time>2022-10-26T12:37:24Z</time>
      </trkpt>
      <trkpt lat="10.234588" lon="-67.875532">
        <ele>447.60</ele>
        <time>2022-10-26T12:37:25Z</time>
      </trkpt>
      <trkpt lat="10.234565" lon="-67.875575">
        <ele>447.60</ele>
        <time>2022-10-26T12:37:26Z</time>
      </trkpt>
      <trkpt lat="10.234545" lon="-67.875623">
        <ele>447.60</ele>
        <time>2022-10-26T12:37:27Z</time>
      </trkpt>
      <trkpt lat="10.234523" lon="-67.875670">
        <ele>447.60</ele>
        <time>2022-10-26T12:37:28Z</time>
      </trkpt>
      <trkpt lat="10.234496" lon="-67.875717">
        <ele>447.60</ele>
        <time>2022-10-26T12:37:29Z</time>
      </trkpt>
      <trkpt lat="10.234460" lon="-67.875766">
        <ele>447.60</ele>
        <time>2022-10-26T12:37:30Z</time>
      </trkpt>
      <trkpt lat="10.234437" lon="-67.875816">
        <ele>447.60</ele>
        <time>2022-10-26T12:37:31Z</time>
      </trkpt>
      <trkpt lat="10.234413" lon="-67.875869">
        <ele>447.60</ele>
        <time>2022-10-26T12:37:32Z</time>
      </trkpt>
      <trkpt lat="10.234396" lon="-67.875923">
        <ele>447.60</ele>
        <time>2022-10-26T12:37:33Z</time>
      </trkpt>
      <trkpt lat="10.234367" lon="-67.875982">
        <ele>447.60</ele>
        <time>2022-10-26T12:37:34Z</time>
      </trkpt>
      <trkpt lat="10.234350" lon="-67.876037">
        <ele>447.60</ele>
        <time>2022-10-26T12:37:35Z</time>
      </trkpt>
      <trkpt lat="10.234336" lon="-67.876089">
        <ele>447.60</ele>
        <time>2022-10-26T12:37:36Z</time>
      </trkpt>
      <trkpt lat="10.234321" lon="-67.876144">
        <ele>447.60</ele>
        <time>2022-10-26T12:37:37Z</time>
      </trkpt>
      <trkpt lat="10.234304" lon="-67.876194">
        <ele>447.60</ele>
        <time>2022-10-26T12:37:38Z</time>
      </trkpt>
      <trkpt lat="10.234291" lon="-67.876245">
        <ele>447.60</ele>
        <time>2022-10-26T12:37:39Z</time>
      </trkpt>
      <trkpt lat="10.234280" lon="-67.876296">
        <ele>447.60</ele>
        <time>2022-10-26T12:37:40Z</time>
      </trkpt>
      <trkpt lat="10.234274" lon="-67.876345">
        <ele>447.70</ele>
        <time>2022-10-26T12:37:41Z</time>
      </trkpt>
      <trkpt lat="10.234264" lon="-67.876396">
        <ele>447.70</ele>
        <time>2022-10-26T12:37:42Z</time>
      </trkpt>
      <trkpt lat="10.234253" lon="-67.876448">
        <ele>447.70</ele>
        <time>2022-10-26T12:37:43Z</time>
      </trkpt>
      <trkpt lat="10.234245" lon="-67.876497">
        <ele>447.70</ele>
        <time>2022-10-26T12:37:44Z</time>
      </trkpt>
      <trkpt lat="10.234234" lon="-67.876547">
        <ele>447.70</ele>
        <time>2022-10-26T12:37:45Z</time>
      </trkpt>
      <trkpt lat="10.234219" lon="-67.876598">
        <ele>447.70</ele>
        <time>2022-10-26T12:37:46Z</time>
      </trkpt>
      <trkpt lat="10.234201" lon="-67.876647">
        <ele>447.70</ele>
        <time>2022-10-26T12:37:47Z</time>
      </trkpt>
      <trkpt lat="10.234188" lon="-67.876702">
        <ele>447.70</ele>
        <time>2022-10-26T12:37:48Z</time>
      </trkpt>
      <trkpt lat="10.234172" lon="-67.876757">
        <ele>447.70</ele>
        <time>2022-10-26T12:37:49Z</time>
      </trkpt>
      <trkpt lat="10.234163" lon="-67.876809">
        <ele>447.70</ele>
        <time>2022-10-26T12:37:50Z</time>
      </trkpt>
      <trkpt lat="10.234158" lon="-67.876856">
        <ele>447.70</ele>
        <time>2022-10-26T12:37:51Z</time>
      </trkpt>
      <trkpt lat="10.234153" lon="-67.876902">
        <ele>447.70</ele>
        <time>2022-10-26T12:37:52Z</time>
      </trkpt>
      <trkpt lat="10.234150" lon="-67.876951">
        <ele>447.70</ele>
        <time>2022-10-26T12:37:53Z</time>
      </trkpt>
      <trkpt lat="10.234136" lon="-67.877005">
        <ele>447.70</ele>
        <time>2022-10-26T12:37:54Z</time>
      </trkpt>
      <trkpt lat="10.234128" lon="-67.877052">
        <ele>447.70</ele>
        <time>2022-10-26T12:37:55Z</time>
      </trkpt>
      <trkpt lat="10.234111" lon="-67.877111">
        <ele>447.70</ele>
        <time>2022-10-26T12:37:56Z</time>
      </trkpt>
      <trkpt lat="10.234102" lon="-67.877168">
        <ele>447.70</ele>
        <time>2022-10-26T12:37:57Z</time>
      </trkpt>
      <trkpt lat="10.234097" lon="-67.877222">
        <ele>447.70</ele>
        <time>2022-10-26T12:37:58Z</time>
      </trkpt>
      <trkpt lat="10.234096" lon="-67.877274">
        <ele>447.70</ele>
        <time>2022-10-26T12:37:59Z</time>
      </trkpt>
      <trkpt lat="10.234094" lon="-67.877330">
        <ele>447.70</ele>
        <time>2022-10-26T12:38:00Z</time>
      </trkpt>
      <trkpt lat="10.234097" lon="-67.877383">
        <ele>447.70</ele>
        <time>2022-10-26T12:38:01Z</time>
      </trkpt>
      <trkpt lat="10.234101" lon="-67.877432">
        <ele>447.70</ele>
        <time>2022-10-26T12:38:02Z</time>
      </trkpt>
      <trkpt lat="10.234109" lon="-67.877477">
        <ele>447.70</ele>
        <time>2022-10-26T12:38:03Z</time>
      </trkpt>
      <trkpt lat="10.234100" lon="-67.877538">
        <ele>447.70</ele>
        <time>2022-10-26T12:38:04Z</time>
      </trkpt>
      <trkpt lat="10.234101" lon="-67.877597">
        <ele>447.70</ele>
        <time>2022-10-26T12:38:05Z</time>
      </trkpt>
      <trkpt lat="10.234105" lon="-67.877652">
        <ele>447.70</ele>
        <time>2022-10-26T12:38:06Z</time>
      </trkpt>
      <trkpt lat="10.234119" lon="-67.877703">
        <ele>447.60</ele>
        <time>2022-10-26T12:38:07Z</time>
      </trkpt>
      <trkpt lat="10.234138" lon="-67.877756">
        <ele>447.60</ele>
        <time>2022-10-26T12:38:08Z</time>
      </trkpt>
      <trkpt lat="10.234153" lon="-67.877817">
        <ele>447.60</ele>
        <time>2022-10-26T12:38:09Z</time>
      </trkpt>
      <trkpt lat="10.234176" lon="-67.877871">
        <ele>447.60</ele>
        <time>2022-10-26T12:38:10Z</time>
      </trkpt>
      <trkpt lat="10.234207" lon="-67.877927">
        <ele>447.60</ele>
        <time>2022-10-26T12:38:11Z</time>
      </trkpt>
      <trkpt lat="10.234237" lon="-67.877980">
        <ele>447.60</ele>
        <time>2022-10-26T12:38:12Z</time>
      </trkpt>
      <trkpt lat="10.234265" lon="-67.878024">
        <ele>447.60</ele>
        <time>2022-10-26T12:38:13Z</time>
      </trkpt>
      <trkpt lat="10.234292" lon="-67.878066">
        <ele>447.60</ele>
        <time>2022-10-26T12:38:14Z</time>
      </trkpt>
      <trkpt lat="10.234317" lon="-67.878106">
        <ele>447.60</ele>
        <time>2022-10-26T12:38:15Z</time>
      </trkpt>
      <trkpt lat="10.234344" lon="-67.878144">
        <ele>447.60</ele>
        <time>2022-10-26T12:38:16Z</time>
      </trkpt>
      <trkpt lat="10.234372" lon="-67.878186">
        <ele>447.50</ele>
        <time>2022-10-26T12:38:17Z</time>
      </trkpt>
      <trkpt lat="10.234398" lon="-67.878232">
        <ele>447.50</ele>
        <time>2022-10-26T12:38:18Z</time>
      </trkpt>
      <trkpt lat="10.234423" lon="-67.878274">
        <ele>447.40</ele>
        <time>2022-10-26T12:38:19Z</time>
      </trkpt>
      <trkpt lat="10.234446" lon="-67.878318">
        <ele>447.30</ele>
        <time>2022-10-26T12:38:20Z</time>
      </trkpt>
      <trkpt lat="10.234465" lon="-67.878362">
        <ele>447.20</ele>
        <time>2022-10-26T12:38:21Z</time>
      </trkpt>
      <trkpt lat="10.234470" lon="-67.878421">
        <ele>447.10</ele>
        <time>2022-10-26T12:38:22Z</time>
      </trkpt>
      <trkpt lat="10.234459" lon="-67.878502">
        <ele>446.90</ele>
        <time>2022-10-26T12:38:23Z</time>
      </trkpt>
      <trkpt lat="10.234460" lon="-67.878557">
        <ele>446.80</ele>
        <time>2022-10-26T12:38:24Z</time>
      </trkpt>
      <trkpt lat="10.234455" lon="-67.878609">
        <ele>446.70</ele>
        <time>2022-10-26T12:38:25Z</time>
      </trkpt>
      <trkpt lat="10.234449" lon="-67.878668">
        <ele>446.60</ele>
        <time>2022-10-26T12:38:26Z</time>
      </trkpt>
      <trkpt lat="10.234446" lon="-67.878716">
        <ele>446.60</ele>
        <time>2022-10-26T12:38:27Z</time>
      </trkpt>
      <trkpt lat="10.234441" lon="-67.878766">
        <ele>446.50</ele>
        <time>2022-10-26T12:38:28Z</time>
      </trkpt>
      <trkpt lat="10.234433" lon="-67.878812">
        <ele>446.40</ele>
        <time>2022-10-26T12:38:29Z</time>
      </trkpt>
      <trkpt lat="10.234417" lon="-67.878857">
        <ele>446.40</ele>
        <time>2022-10-26T12:38:30Z</time>
      </trkpt>
      <trkpt lat="10.234407" lon="-67.878901">
        <ele>446.30</ele>
        <time>2022-10-26T12:38:31Z</time>
      </trkpt>
      <trkpt lat="10.234402" lon="-67.878946">
        <ele>446.20</ele>
        <time>2022-10-26T12:38:32Z</time>
      </trkpt>
      <trkpt lat="10.234400" lon="-67.878991">
        <ele>446.20</ele>
        <time>2022-10-26T12:38:33Z</time>
      </trkpt>
      <trkpt lat="10.234400" lon="-67.879034">
        <ele>446.10</ele>
        <time>2022-10-26T12:38:34Z</time>
      </trkpt>
      <trkpt lat="10.234403" lon="-67.879079">
        <ele>446.10</ele>
        <time>2022-10-26T12:38:35Z</time>
      </trkpt>
      <trkpt lat="10.234399" lon="-67.879118">
        <ele>446.00</ele>
        <time>2022-10-26T12:38:36Z</time>
      </trkpt>
      <trkpt lat="10.234399" lon="-67.879159">
        <ele>446.00</ele>
        <time>2022-10-26T12:38:37Z</time>
      </trkpt>
      <trkpt lat="10.234397" lon="-67.879204">
        <ele>445.90</ele>
        <time>2022-10-26T12:38:38Z</time>
      </trkpt>
      <trkpt lat="10.234395" lon="-67.879253">
        <ele>445.90</ele>
        <time>2022-10-26T12:38:39Z</time>
      </trkpt>
      <trkpt lat="10.234386" lon="-67.879295">
        <ele>445.80</ele>
        <time>2022-10-26T12:38:40Z</time>
      </trkpt>
      <trkpt lat="10.234380" lon="-67.879341">
        <ele>445.70</ele>
        <time>2022-10-26T12:38:41Z</time>
      </trkpt>
      <trkpt lat="10.234380" lon="-67.879383">
        <ele>445.70</ele>
        <time>2022-10-26T12:38:42Z</time>
      </trkpt>
      <trkpt lat="10.234383" lon="-67.879429">
        <ele>445.70</ele>
        <time>2022-10-26T12:38:43Z</time>
      </trkpt>
      <trkpt lat="10.234378" lon="-67.879472">
        <ele>445.60</ele>
        <time>2022-10-26T12:38:44Z</time>
      </trkpt>
      <trkpt lat="10.234372" lon="-67.879514">
        <ele>445.60</ele>
        <time>2022-10-26T12:38:45Z</time>
      </trkpt>
      <trkpt lat="10.234367" lon="-67.879555">
        <ele>445.60</ele>
        <time>2022-10-26T12:38:46Z</time>
      </trkpt>
      <trkpt lat="10.234360" lon="-67.879598">
        <ele>445.60</ele>
        <time>2022-10-26T12:38:47Z</time>
      </trkpt>
      <trkpt lat="10.234361" lon="-67.879632">
        <ele>445.60</ele>
        <time>2022-10-26T12:38:48Z</time>
      </trkpt>
      <trkpt lat="10.234360" lon="-67.879668">
        <ele>445.60</ele>
        <time>2022-10-26T12:38:49Z</time>
      </trkpt>
      <trkpt lat="10.234351" lon="-67.879706">
        <ele>445.60</ele>
        <time>2022-10-26T12:38:50Z</time>
      </trkpt>
      <trkpt lat="10.234343" lon="-67.879746">
        <ele>445.60</ele>
        <time>2022-10-26T12:38:51Z</time>
      </trkpt>
      <trkpt lat="10.234336" lon="-67.879773">
        <ele>445.60</ele>
        <time>2022-10-26T12:38:52Z</time>
      </trkpt>
      <trkpt lat="10.234322" lon="-67.879805">
        <ele>445.70</ele>
        <time>2022-10-26T12:38:53Z</time>
      </trkpt>
      <trkpt lat="10.234307" lon="-67.879830">
        <ele>445.70</ele>
        <time>2022-10-26T12:38:54Z</time>
      </trkpt>
      <trkpt lat="10.234285" lon="-67.879869">
        <ele>445.70</ele>
        <time>2022-10-26T12:38:55Z</time>
      </trkpt>
      <trkpt lat="10.234274" lon="-67.879899">
        <ele>445.80</ele>
        <time>2022-10-26T12:38:56Z</time>
      </trkpt>
      <trkpt lat="10.234249" lon="-67.879953">
        <ele>445.90</ele>
        <time>2022-10-26T12:38:58Z</time>
      </trkpt>
      <trkpt lat="10.234242" lon="-67.879996">
        <ele>446.00</ele>
        <time>2022-10-26T12:38:59Z</time>
      </trkpt>
      <trkpt lat="10.234207" lon="-67.880070">
        <ele>446.20</ele>
        <time>2022-10-26T12:39:01Z</time>
      </trkpt>
      <trkpt lat="10.234190" lon="-67.880103">
        <ele>446.20</ele>
        <time>2022-10-26T12:39:02Z</time>
      </trkpt>
      <trkpt lat="10.234173" lon="-67.880132">
        <ele>446.30</ele>
        <time>2022-10-26T12:39:03Z</time>
      </trkpt>
      <trkpt lat="10.234162" lon="-67.880157">
        <ele>446.30</ele>
        <time>2022-10-26T12:39:04Z</time>
      </trkpt>
      <trkpt lat="10.234139" lon="-67.880178">
        <ele>446.30</ele>
        <time>2022-10-26T12:39:05Z</time>
      </trkpt>
      <trkpt lat="10.234075" lon="-67.880196">
        <ele>446.20</ele>
        <time>2022-10-26T12:39:07Z</time>
      </trkpt>
      <trkpt lat="10.234037" lon="-67.880179">
        <ele>446.10</ele>
        <time>2022-10-26T12:39:08Z</time>
      </trkpt>
      <trkpt lat="10.233998" lon="-67.880148">
        <ele>446.00</ele>
        <time>2022-10-26T12:39:09Z</time>
      </trkpt>
      <trkpt lat="10.233972" lon="-67.880122">
        <ele>446.00</ele>
        <time>2022-10-26T12:39:10Z</time>
      </trkpt>
      <trkpt lat="10.233947" lon="-67.880083">
        <ele>445.90</ele>
        <time>2022-10-26T12:39:11Z</time>
      </trkpt>
      <trkpt lat="10.233909" lon="-67.880027">
        <ele>445.80</ele>
        <time>2022-10-26T12:39:13Z</time>
      </trkpt>
      <trkpt lat="10.233887" lon="-67.879981">
        <ele>445.70</ele>
        <time>2022-10-26T12:39:14Z</time>
      </trkpt>
      <trkpt lat="10.233885" lon="-67.879949">
        <ele>445.70</ele>
        <time>2022-10-26T12:39:15Z</time>
      </trkpt>
      <trkpt lat="10.233900" lon="-67.879910">
        <ele>445.60</ele>
        <time>2022-10-26T12:39:16Z</time>
      </trkpt>
      <trkpt lat="10.233936" lon="-67.879880">
        <ele>445.70</ele>
        <time>2022-10-26T12:39:18Z</time>
      </trkpt>
      <trkpt lat="10.234010" lon="-67.879874">
        <ele>445.80</ele>
        <time>2022-10-26T12:39:19Z</time>
      </trkpt>
      <trkpt lat="10.234065" lon="-67.879871">
        <ele>445.80</ele>
        <time>2022-10-26T12:39:20Z</time>
      </trkpt>
      <trkpt lat="10.234113" lon="-67.879870">
        <ele>445.80</ele>
        <time>2022-10-26T12:39:21Z</time>
      </trkpt>
      <trkpt lat="10.234171" lon="-67.879864">
        <ele>445.80</ele>
        <time>2022-10-26T12:39:22Z</time>
      </trkpt>
      <trkpt lat="10.234230" lon="-67.879836">
        <ele>445.90</ele>
        <time>2022-10-26T12:39:23Z</time>
      </trkpt>
      <trkpt lat="10.234282" lon="-67.879768">
        <ele>445.90</ele>
        <time>2022-10-26T12:39:25Z</time>
      </trkpt>
      <trkpt lat="10.234297" lon="-67.879691">
        <ele>445.90</ele>
        <time>2022-10-26T12:39:26Z</time>
      </trkpt>
      <trkpt lat="10.234299" lon="-67.879640">
        <ele>445.90</ele>
        <time>2022-10-26T12:39:27Z</time>
      </trkpt>
      <trkpt lat="10.234298" lon="-67.879601">
        <ele>445.90</ele>
        <time>2022-10-26T12:39:28Z</time>
      </trkpt>
      <trkpt lat="10.234292" lon="-67.879559">
        <ele>445.90</ele>
        <time>2022-10-26T12:39:29Z</time>
      </trkpt>
      <trkpt lat="10.234288" lon="-67.879531">
        <ele>446.00</ele>
        <time>2022-10-26T12:39:30Z</time>
      </trkpt>
      <trkpt lat="10.234290" lon="-67.879481">
        <ele>446.00</ele>
        <time>2022-10-26T12:39:32Z</time>
      </trkpt>
      <trkpt lat="10.234300" lon="-67.879449">
        <ele>446.00</ele>
        <time>2022-10-26T12:39:33Z</time>
      </trkpt>
      <trkpt lat="10.234304" lon="-67.879439">
        <ele>446.00</ele>
        <time>2022-10-26T12:39:34Z</time>
      </trkpt>
      <trkpt lat="10.234309" lon="-67.879428">
        <ele>446.00</ele>
        <time>2022-10-26T12:39:35Z</time>
      </trkpt>
      <trkpt lat="10.234309" lon="-67.879427">
        <ele>446.00</ele>
        <time>2022-10-26T12:39:36Z</time>
      </trkpt>
      <trkpt lat="10.234308" lon="-67.879409">
        <ele>446.00</ele>
        <time>2022-10-26T12:39:37Z</time>
      </trkpt>
      <trkpt lat="10.234308" lon="-67.879390">
        <ele>446.00</ele>
        <time>2022-10-26T12:39:38Z</time>
      </trkpt>
      <trkpt lat="10.234309" lon="-67.879374">
        <ele>446.00</ele>
        <time>2022-10-26T12:39:39Z</time>
      </trkpt>
      <trkpt lat="10.234305" lon="-67.879361">
        <ele>446.00</ele>
        <time>2022-10-26T12:39:40Z</time>
      </trkpt>
      <trkpt lat="10.234299" lon="-67.879345">
        <ele>446.00</ele>
        <time>2022-10-26T12:39:41Z</time>
      </trkpt>
      <trkpt lat="10.234294" lon="-67.879331">
        <ele>446.00</ele>
        <time>2022-10-26T12:39:42Z</time>
      </trkpt>
      <trkpt lat="10.234289" lon="-67.879336">
        <ele>446.00</ele>
        <time>2022-10-26T12:39:43Z</time>
      </trkpt>
      <trkpt lat="10.234284" lon="-67.879333">
        <ele>446.00</ele>
        <time>2022-10-26T12:39:44Z</time>
      </trkpt>
      <trkpt lat="10.234281" lon="-67.879332">
        <ele>446.00</ele>
        <time>2022-10-26T12:39:45Z</time>
      </trkpt>
      <trkpt lat="10.234280" lon="-67.879340">
        <ele>446.00</ele>
        <time>2022-10-26T12:39:46Z</time>
      </trkpt>
      <trkpt lat="10.234280" lon="-67.879344">
        <ele>446.00</ele>
        <time>2022-10-26T12:39:47Z</time>
      </trkpt>
      <trkpt lat="10.234276" lon="-67.879343">
        <ele>446.00</ele>
        <time>2022-10-26T12:39:49Z</time>
      </trkpt>
      <trkpt lat="10.234275" lon="-67.879343">
        <ele>446.00</ele>
        <time>2022-10-26T12:39:50Z</time>
      </trkpt>
      <trkpt lat="10.234274" lon="-67.879341">
        <ele>446.00</ele>
        <time>2022-10-26T12:39:51Z</time>
      </trkpt>
      <trkpt lat="10.234271" lon="-67.879341">
        <ele>446.00</ele>
        <time>2022-10-26T12:39:52Z</time>
      </trkpt>
      <trkpt lat="10.234267" lon="-67.879340">
        <ele>446.00</ele>
        <time>2022-10-26T12:39:53Z</time>
      </trkpt>
      <trkpt lat="10.234262" lon="-67.879337">
        <ele>446.00</ele>
        <time>2022-10-26T12:39:54Z</time>
      </trkpt>
      <trkpt lat="10.234254" lon="-67.879335">
        <ele>446.00</ele>
        <time>2022-10-26T12:39:56Z</time>
      </trkpt>
      <trkpt lat="10.234248" lon="-67.879332">
        <ele>446.00</ele>
        <time>2022-10-26T12:39:57Z</time>
      </trkpt>
      <trkpt lat="10.234242" lon="-67.879330">
        <ele>446.00</ele>
        <time>2022-10-26T12:39:58Z</time>
      </trkpt>
      <trkpt lat="10.234237" lon="-67.879330">
        <ele>446.00</ele>
        <time>2022-10-26T12:39:59Z</time>
      </trkpt>
      <trkpt lat="10.234233" lon="-67.879331">
        <ele>446.00</ele>
        <time>2022-10-26T12:40:00Z</time>
      </trkpt>
      <trkpt lat="10.234229" lon="-67.879336">
        <ele>446.00</ele>
        <time>2022-10-26T12:40:01Z</time>
      </trkpt>
      <trkpt lat="10.234227" lon="-67.879339">
        <ele>446.00</ele>
        <time>2022-10-26T12:40:02Z</time>
      </trkpt>
      <trkpt lat="10.234225" lon="-67.879343">
        <ele>446.00</ele>
        <time>2022-10-26T12:40:03Z</time>
      </trkpt>
      <trkpt lat="10.234223" lon="-67.879344">
        <ele>446.00</ele>
        <time>2022-10-26T12:40:04Z</time>
      </trkpt>
      <trkpt lat="10.234221" lon="-67.879347">
        <ele>446.00</ele>
        <time>2022-10-26T12:40:05Z</time>
      </trkpt>
      <trkpt lat="10.234218" lon="-67.879353">
        <ele>446.00</ele>
        <time>2022-10-26T12:40:07Z</time>
      </trkpt>
      <trkpt lat="10.234217" lon="-67.879357">
        <ele>446.00</ele>
        <time>2022-10-26T12:40:08Z</time>
      </trkpt>
      <trkpt lat="10.234217" lon="-67.879362">
        <ele>446.00</ele>
        <time>2022-10-26T12:40:09Z</time>
      </trkpt>
      <trkpt lat="10.234216" lon="-67.879366">
        <ele>446.00</ele>
        <time>2022-10-26T12:40:10Z</time>
      </trkpt>
      <trkpt lat="10.234214" lon="-67.879368">
        <ele>446.00</ele>
        <time>2022-10-26T12:40:11Z</time>
      </trkpt>
      <trkpt lat="10.234213" lon="-67.879371">
        <ele>446.00</ele>
        <time>2022-10-26T12:40:12Z</time>
      </trkpt>
      <trkpt lat="10.234212" lon="-67.879373">
        <ele>446.00</ele>
        <time>2022-10-26T12:40:13Z</time>
      </trkpt>
      <trkpt lat="10.234212" lon="-67.879375">
        <ele>446.00</ele>
        <time>2022-10-26T12:40:14Z</time>
      </trkpt>
      <trkpt lat="10.234211" lon="-67.879378">
        <ele>446.00</ele>
        <time>2022-10-26T12:40:15Z</time>
      </trkpt>
      <trkpt lat="10.234211" lon="-67.879380">
        <ele>446.00</ele>
        <time>2022-10-26T12:40:16Z</time>
      </trkpt>
      <trkpt lat="10.234211" lon="-67.879382">
        <ele>446.00</ele>
        <time>2022-10-26T12:40:17Z</time>
      </trkpt>
      <trkpt lat="10.234210" lon="-67.879384">
        <ele>446.00</ele>
        <time>2022-10-26T12:40:18Z</time>
      </trkpt>
      <trkpt lat="10.234210" lon="-67.879385">
        <ele>446.00</ele>
        <time>2022-10-26T12:40:19Z</time>
      </trkpt>
      <trkpt lat="10.234209" lon="-67.879386">
        <ele>446.00</ele>
        <time>2022-10-26T12:40:20Z</time>
      </trkpt>
      <trkpt lat="10.234209" lon="-67.879387">
        <ele>446.00</ele>
        <time>2022-10-26T12:40:21Z</time>
      </trkpt>
      <trkpt lat="10.234208" lon="-67.879388">
        <ele>446.00</ele>
        <time>2022-10-26T12:40:22Z</time>
      </trkpt>
      <trkpt lat="10.234207" lon="-67.879389">
        <ele>446.00</ele>
        <time>2022-10-26T12:40:23Z</time>
      </trkpt>
      <trkpt lat="10.234207" lon="-67.879389">
        <ele>446.00</ele>
        <time>2022-10-26T12:40:24Z</time>
      </trkpt>
      <trkpt lat="10.234207" lon="-67.879390">
        <ele>446.00</ele>
        <time>2022-10-26T12:40:25Z</time>
      </trkpt>
      <trkpt lat="10.234207" lon="-67.879391">
        <ele>446.00</ele>
        <time>2022-10-26T12:40:26Z</time>
      </trkpt>
      <trkpt lat="10.234207" lon="-67.879393">
        <ele>446.00</ele>
        <time>2022-10-26T12:40:27Z</time>
      </trkpt>
      <trkpt lat="10.234210" lon="-67.879397">
        <ele>446.00</ele>
        <time>2022-10-26T12:40:28Z</time>
      </trkpt>
      <trkpt lat="10.234210" lon="-67.879399">
        <ele>446.00</ele>
        <time>2022-10-26T12:40:29Z</time>
      </trkpt>
      <trkpt lat="10.234208" lon="-67.879401">
        <ele>446.00</ele>
        <time>2022-10-26T12:40:30Z</time>
      </trkpt>
      <trkpt lat="10.234206" lon="-67.879401">
        <ele>446.00</ele>
        <time>2022-10-26T12:40:31Z</time>
      </trkpt>
      <trkpt lat="10.234204" lon="-67.879402">
        <ele>446.00</ele>
        <time>2022-10-26T12:40:32Z</time>
      </trkpt>
      <trkpt lat="10.234202" lon="-67.879402">
        <ele>446.00</ele>
        <time>2022-10-26T12:40:33Z</time>
      </trkpt>
      <trkpt lat="10.234204" lon="-67.879401">
        <ele>446.00</ele>
        <time>2022-10-26T12:40:34Z</time>
      </trkpt>
      <trkpt lat="10.234205" lon="-67.879401">
        <ele>446.00</ele>
        <time>2022-10-26T12:40:35Z</time>
      </trkpt>
      <trkpt lat="10.234206" lon="-67.879401">
        <ele>446.00</ele>
        <time>2022-10-26T12:40:36Z</time>
      </trkpt>
      <trkpt lat="10.234207" lon="-67.879402">
        <ele>446.00</ele>
        <time>2022-10-26T12:40:37Z</time>
      </trkpt>
      <trkpt lat="10.234207" lon="-67.879402">
        <ele>446.00</ele>
        <time>2022-10-26T12:40:38Z</time>
      </trkpt>
      <trkpt lat="10.234207" lon="-67.879403">
        <ele>446.00</ele>
        <time>2022-10-26T12:40:39Z</time>
      </trkpt>
      <trkpt lat="10.234207" lon="-67.879404">
        <ele>446.00</ele>
        <time>2022-10-26T12:40:40Z</time>
      </trkpt>
      <trkpt lat="10.234207" lon="-67.879405">
        <ele>446.00</ele>
        <time>2022-10-26T12:40:41Z</time>
      </trkpt>
      <trkpt lat="10.234207" lon="-67.879405">
        <ele>446.00</ele>
        <time>2022-10-26T12:40:42Z</time>
      </trkpt>
      <trkpt lat="10.234207" lon="-67.879405">
        <ele>446.00</ele>
        <time>2022-10-26T12:40:43Z</time>
      </trkpt>
      <trkpt lat="10.234206" lon="-67.879406">
        <ele>446.00</ele>
        <time>2022-10-26T12:40:44Z</time>
      </trkpt>
      <trkpt lat="10.234206" lon="-67.879406">
        <ele>446.00</ele>
        <time>2022-10-26T12:40:45Z</time>
      </trkpt>
      <trkpt lat="10.234206" lon="-67.879402">
        <ele>446.00</ele>
        <time>2022-10-26T12:40:46Z</time>
      </trkpt>
      <trkpt lat="10.234206" lon="-67.879401">
        <ele>446.00</ele>
        <time>2022-10-26T12:40:47Z</time>
      </trkpt>
      <trkpt lat="10.234205" lon="-67.879399">
        <ele>446.00</ele>
        <time>2022-10-26T12:40:48Z</time>
      </trkpt>
      <trkpt lat="10.234205" lon="-67.879397">
        <ele>446.00</ele>
        <time>2022-10-26T12:40:49Z</time>
      </trkpt>
      <trkpt lat="10.234204" lon="-67.879396">
        <ele>446.00</ele>
        <time>2022-10-26T12:40:50Z</time>
      </trkpt>
      <trkpt lat="10.234203" lon="-67.879396">
        <ele>446.00</ele>
        <time>2022-10-26T12:40:51Z</time>
      </trkpt>
      <trkpt lat="10.234204" lon="-67.879399">
        <ele>446.00</ele>
        <time>2022-10-26T12:40:52Z</time>
      </trkpt>
      <trkpt lat="10.234204" lon="-67.879400">
        <ele>446.00</ele>
        <time>2022-10-26T12:40:53Z</time>
      </trkpt>
      <trkpt lat="10.234205" lon="-67.879400">
        <ele>446.00</ele>
        <time>2022-10-26T12:40:54Z</time>
      </trkpt>
      <trkpt lat="10.234205" lon="-67.879400">
        <ele>446.00</ele>
        <time>2022-10-26T12:40:55Z</time>
      </trkpt>
      <trkpt lat="10.234205" lon="-67.879400">
        <ele>446.00</ele>
        <time>2022-10-26T12:40:56Z</time>
      </trkpt>
      <trkpt lat="10.234205" lon="-67.879399">
        <ele>446.00</ele>
        <time>2022-10-26T12:40:57Z</time>
      </trkpt>
      <trkpt lat="10.234201" lon="-67.879401">
        <ele>446.00</ele>
        <time>2022-10-26T12:40:58Z</time>
      </trkpt>
      <trkpt lat="10.234201" lon="-67.879402">
        <ele>446.00</ele>
        <time>2022-10-26T12:40:59Z</time>
      </trkpt>
      <trkpt lat="10.234202" lon="-67.879401">
        <ele>446.00</ele>
        <time>2022-10-26T12:41:00Z</time>
      </trkpt>
      <trkpt lat="10.234203" lon="-67.879400">
        <ele>446.00</ele>
        <time>2022-10-26T12:41:01Z</time>
      </trkpt>
      <trkpt lat="10.234205" lon="-67.879399">
        <ele>446.00</ele>
        <time>2022-10-26T12:41:03Z</time>
      </trkpt>
      <trkpt lat="10.234208" lon="-67.879398">
        <ele>446.00</ele>
        <time>2022-10-26T12:41:04Z</time>
      </trkpt>
      <trkpt lat="10.234208" lon="-67.879399">
        <ele>446.00</ele>
        <time>2022-10-26T12:41:05Z</time>
      </trkpt>
      <trkpt lat="10.234208" lon="-67.879399">
        <ele>446.00</ele>
        <time>2022-10-26T12:41:06Z</time>
      </trkpt>
      <trkpt lat="10.234208" lon="-67.879401">
        <ele>446.00</ele>
        <time>2022-10-26T12:41:07Z</time>
      </trkpt>
      <trkpt lat="10.234207" lon="-67.879403">
        <ele>446.00</ele>
        <time>2022-10-26T12:41:08Z</time>
      </trkpt>
      <trkpt lat="10.234204" lon="-67.879407">
        <ele>446.00</ele>
        <time>2022-10-26T12:41:09Z</time>
      </trkpt>
      <trkpt lat="10.234203" lon="-67.879409">
        <ele>446.00</ele>
        <time>2022-10-26T12:41:10Z</time>
      </trkpt>
      <trkpt lat="10.234203" lon="-67.879410">
        <ele>446.00</ele>
        <time>2022-10-26T12:41:11Z</time>
      </trkpt>
      <trkpt lat="10.234203" lon="-67.879411">
        <ele>446.00</ele>
        <time>2022-10-26T12:41:12Z</time>
      </trkpt>
      <trkpt lat="10.234205" lon="-67.879410">
        <ele>446.00</ele>
        <time>2022-10-26T12:41:13Z</time>
      </trkpt>
      <trkpt lat="10.234207" lon="-67.879410">
        <ele>446.00</ele>
        <time>2022-10-26T12:41:14Z</time>
      </trkpt>
      <trkpt lat="10.234209" lon="-67.879408">
        <ele>446.00</ele>
        <time>2022-10-26T12:41:15Z</time>
      </trkpt>
      <trkpt lat="10.234209" lon="-67.879405">
        <ele>446.00</ele>
        <time>2022-10-26T12:41:16Z</time>
      </trkpt>
      <trkpt lat="10.234210" lon="-67.879403">
        <ele>446.00</ele>
        <time>2022-10-26T12:41:17Z</time>
      </trkpt>
      <trkpt lat="10.234210" lon="-67.879402">
        <ele>446.00</ele>
        <time>2022-10-26T12:41:18Z</time>
      </trkpt>
      <trkpt lat="10.234210" lon="-67.879400">
        <ele>446.00</ele>
        <time>2022-10-26T12:41:19Z</time>
      </trkpt>
      <trkpt lat="10.234207" lon="-67.879401">
        <ele>446.00</ele>
        <time>2022-10-26T12:41:21Z</time>
      </trkpt>
      <trkpt lat="10.234204" lon="-67.879399">
        <ele>446.00</ele>
        <time>2022-10-26T12:41:22Z</time>
      </trkpt>
      <trkpt lat="10.234202" lon="-67.879396">
        <ele>446.00</ele>
        <time>2022-10-26T12:41:23Z</time>
      </trkpt>
      <trkpt lat="10.234204" lon="-67.879395">
        <ele>446.00</ele>
        <time>2022-10-26T12:41:24Z</time>
      </trkpt>
      <trkpt lat="10.234205" lon="-67.879396">
        <ele>446.00</ele>
        <time>2022-10-26T12:41:25Z</time>
      </trkpt>
      <trkpt lat="10.234204" lon="-67.879399">
        <ele>446.00</ele>
        <time>2022-10-26T12:41:26Z</time>
      </trkpt>
      <trkpt lat="10.234202" lon="-67.879400">
        <ele>446.00</ele>
        <time>2022-10-26T12:41:27Z</time>
      </trkpt>
      <trkpt lat="10.234199" lon="-67.879401">
        <ele>446.00</ele>
        <time>2022-10-26T12:41:28Z</time>
      </trkpt>
      <trkpt lat="10.234196" lon="-67.879400">
        <ele>446.00</ele>
        <time>2022-10-26T12:41:29Z</time>
      </trkpt>
      <trkpt lat="10.234194" lon="-67.879400">
        <ele>446.00</ele>
        <time>2022-10-26T12:41:30Z</time>
      </trkpt>
      <trkpt lat="10.234192" lon="-67.879400">
        <ele>446.00</ele>
        <time>2022-10-26T12:41:31Z</time>
      </trkpt>
      <trkpt lat="10.234191" lon="-67.879399">
        <ele>446.00</ele>
        <time>2022-10-26T12:41:32Z</time>
      </trkpt>
      <trkpt lat="10.234190" lon="-67.879398">
        <ele>446.00</ele>
        <time>2022-10-26T12:41:33Z</time>
      </trkpt>
      <trkpt lat="10.234190" lon="-67.879397">
        <ele>446.00</ele>
        <time>2022-10-26T12:41:34Z</time>
      </trkpt>
      <trkpt lat="10.234190" lon="-67.879396">
        <ele>446.00</ele>
        <time>2022-10-26T12:41:35Z</time>
      </trkpt>
      <trkpt lat="10.234192" lon="-67.879395">
        <ele>446.00</ele>
        <time>2022-10-26T12:41:36Z</time>
      </trkpt>
      <trkpt lat="10.234195" lon="-67.879394">
        <ele>446.00</ele>
        <time>2022-10-26T12:41:37Z</time>
      </trkpt>
      <trkpt lat="10.234196" lon="-67.879393">
        <ele>446.00</ele>
        <time>2022-10-26T12:41:38Z</time>
      </trkpt>
      <trkpt lat="10.234198" lon="-67.879393">
        <ele>446.00</ele>
        <time>2022-10-26T12:41:39Z</time>
      </trkpt>
      <trkpt lat="10.234199" lon="-67.879392">
        <ele>446.00</ele>
        <time>2022-10-26T12:41:40Z</time>
      </trkpt>
      <trkpt lat="10.234200" lon="-67.879391">
        <ele>446.00</ele>
        <time>2022-10-26T12:41:41Z</time>
      </trkpt>
      <trkpt lat="10.234201" lon="-67.879390">
        <ele>446.00</ele>
        <time>2022-10-26T12:41:42Z</time>
      </trkpt>
      <trkpt lat="10.234202" lon="-67.879388">
        <ele>446.00</ele>
        <time>2022-10-26T12:41:43Z</time>
      </trkpt>
      <trkpt lat="10.234203" lon="-67.879386">
        <ele>446.00</ele>
        <time>2022-10-26T12:41:44Z</time>
      </trkpt>
      <trkpt lat="10.234204" lon="-67.879384">
        <ele>446.00</ele>
        <time>2022-10-26T12:41:45Z</time>
      </trkpt>
      <trkpt lat="10.234205" lon="-67.879383">
        <ele>446.00</ele>
        <time>2022-10-26T12:41:46Z</time>
      </trkpt>
      <trkpt lat="10.234205" lon="-67.879382">
        <ele>446.00</ele>
        <time>2022-10-26T12:41:47Z</time>
      </trkpt>
      <trkpt lat="10.234205" lon="-67.879380">
        <ele>446.00</ele>
        <time>2022-10-26T12:41:48Z</time>
      </trkpt>
      <trkpt lat="10.234206" lon="-67.879379">
        <ele>446.00</ele>
        <time>2022-10-26T12:41:49Z</time>
      </trkpt>
      <trkpt lat="10.234206" lon="-67.879378">
        <ele>446.00</ele>
        <time>2022-10-26T12:41:50Z</time>
      </trkpt>
      <trkpt lat="10.234207" lon="-67.879376">
        <ele>446.00</ele>
        <time>2022-10-26T12:41:51Z</time>
      </trkpt>
      <trkpt lat="10.234210" lon="-67.879374">
        <ele>446.00</ele>
        <time>2022-10-26T12:41:52Z</time>
      </trkpt>
      <trkpt lat="10.234213" lon="-67.879371">
        <ele>446.00</ele>
        <time>2022-10-26T12:41:53Z</time>
      </trkpt>
      <trkpt lat="10.234215" lon="-67.879369">
        <ele>446.00</ele>
        <time>2022-10-26T12:41:54Z</time>
      </trkpt>
      <trkpt lat="10.234217" lon="-67.879367">
        <ele>446.00</ele>
        <time>2022-10-26T12:41:55Z</time>
      </trkpt>
      <trkpt lat="10.234218" lon="-67.879365">
        <ele>446.00</ele>
        <time>2022-10-26T12:41:56Z</time>
      </trkpt>
      <trkpt lat="10.234218" lon="-67.879364">
        <ele>446.00</ele>
        <time>2022-10-26T12:41:57Z</time>
      </trkpt>
      <trkpt lat="10.234218" lon="-67.879363">
        <ele>446.00</ele>
        <time>2022-10-26T12:41:58Z</time>
      </trkpt>
      <trkpt lat="10.234218" lon="-67.879363">
        <ele>446.00</ele>
        <time>2022-10-26T12:41:59Z</time>
      </trkpt>
      <trkpt lat="10.234218" lon="-67.879364">
        <ele>446.00</ele>
        <time>2022-10-26T12:42:00Z</time>
      </trkpt>
      <trkpt lat="10.234218" lon="-67.879364">
        <ele>446.00</ele>
        <time>2022-10-26T12:42:01Z</time>
      </trkpt>
      <trkpt lat="10.234218" lon="-67.879364">
        <ele>446.00</ele>
        <time>2022-10-26T12:42:02Z</time>
      </trkpt>
      <trkpt lat="10.234218" lon="-67.879364">
        <ele>446.00</ele>
        <time>2022-10-26T12:42:03Z</time>
      </trkpt>
      <trkpt lat="10.234218" lon="-67.879364">
        <ele>446.00</ele>
        <time>2022-10-26T12:42:04Z</time>
      </trkpt>
      <trkpt lat="10.234218" lon="-67.879364">
        <ele>446.00</ele>
        <time>2022-10-26T12:42:05Z</time>
      </trkpt>
      <trkpt lat="10.234218" lon="-67.879364">
        <ele>446.00</ele>
        <time>2022-10-26T12:42:06Z</time>
      </trkpt>
      <trkpt lat="10.234218" lon="-67.879364">
        <ele>446.00</ele>
        <time>2022-10-26T12:42:07Z</time>
      </trkpt>
      <trkpt lat="10.234218" lon="-67.879364">
        <ele>446.00</ele>
        <time>2022-10-26T12:42:08Z</time>
      </trkpt>
      <trkpt lat="10.234218" lon="-67.879364">
        <ele>446.00</ele>
        <time>2022-10-26T12:42:09Z</time>
      </trkpt>
      <trkpt lat="10.234218" lon="-67.879364">
        <ele>446.00</ele>
        <time>2022-10-26T12:42:10Z</time>
      </trkpt>
      <trkpt lat="10.234218" lon="-67.879364">
        <ele>446.00</ele>
        <time>2022-10-26T12:42:11Z</time>
      </trkpt>
      <trkpt lat="10.234218" lon="-67.879364">
        <ele>446.00</ele>
        <time>2022-10-26T12:42:12Z</time>
      </trkpt>
      <trkpt lat="10.234218" lon="-67.879364">
        <ele>446.00</ele>
        <time>2022-10-26T12:42:13Z</time>
      </trkpt>
      <trkpt lat="10.234218" lon="-67.879364">
        <ele>446.00</ele>
        <time>2022-10-26T12:42:14Z</time>
      </trkpt>
      <trkpt lat="10.234218" lon="-67.879364">
        <ele>446.00</ele>
        <time>2022-10-26T12:42:15Z</time>
      </trkpt>
      <trkpt lat="10.234218" lon="-67.879364">
        <ele>446.00</ele>
        <time>2022-10-26T12:42:16Z</time>
      </trkpt>
      <trkpt lat="10.234218" lon="-67.879364">
        <ele>446.00</ele>
        <time>2022-10-26T12:42:17Z</time>
      </trkpt>
      <trkpt lat="10.234216" lon="-67.879364">
        <ele>446.00</ele>
        <time>2022-10-26T12:42:18Z</time>
      </trkpt>
      <trkpt lat="10.234217" lon="-67.879365">
        <ele>446.00</ele>
        <time>2022-10-26T12:42:19Z</time>
      </trkpt>
      <trkpt lat="10.234219" lon="-67.879366">
        <ele>446.00</ele>
        <time>2022-10-26T12:42:20Z</time>
      </trkpt>
      <trkpt lat="10.234221" lon="-67.879368">
        <ele>446.00</ele>
        <time>2022-10-26T12:42:21Z</time>
      </trkpt>
      <trkpt lat="10.234220" lon="-67.879367">
        <ele>446.00</ele>
        <time>2022-10-26T12:42:22Z</time>
      </trkpt>
      <trkpt lat="10.234217" lon="-67.879365">
        <ele>446.00</ele>
        <time>2022-10-26T12:42:23Z</time>
      </trkpt>
      <trkpt lat="10.234215" lon="-67.879364">
        <ele>446.00</ele>
        <time>2022-10-26T12:42:24Z</time>
      </trkpt>
      <trkpt lat="10.234211" lon="-67.879360">
        <ele>446.00</ele>
        <time>2022-10-26T12:42:25Z</time>
      </trkpt>
      <trkpt lat="10.234209" lon="-67.879357">
        <ele>446.00</ele>
        <time>2022-10-26T12:42:26Z</time>
      </trkpt>
      <trkpt lat="10.234207" lon="-67.879356">
        <ele>446.00</ele>
        <time>2022-10-26T12:42:27Z</time>
      </trkpt>
      <trkpt lat="10.234207" lon="-67.879355">
        <ele>446.00</ele>
        <time>2022-10-26T12:42:28Z</time>
      </trkpt>
      <trkpt lat="10.234207" lon="-67.879355">
        <ele>446.00</ele>
        <time>2022-10-26T12:42:29Z</time>
      </trkpt>
      <trkpt lat="10.234207" lon="-67.879355">
        <ele>446.00</ele>
        <time>2022-10-26T12:42:30Z</time>
      </trkpt>
      <trkpt lat="10.234207" lon="-67.879355">
        <ele>446.00</ele>
        <time>2022-10-26T12:42:31Z</time>
      </trkpt>
      <trkpt lat="10.234207" lon="-67.879355">
        <ele>446.00</ele>
        <time>2022-10-26T12:42:32Z</time>
      </trkpt>
      <trkpt lat="10.234207" lon="-67.879355">
        <ele>446.00</ele>
        <time>2022-10-26T12:42:33Z</time>
      </trkpt>
      <trkpt lat="10.234207" lon="-67.879355">
        <ele>446.00</ele>
        <time>2022-10-26T12:42:34Z</time>
      </trkpt>
      <trkpt lat="10.234207" lon="-67.879355">
        <ele>446.00</ele>
        <time>2022-10-26T12:42:35Z</time>
      </trkpt>
      <trkpt lat="10.234207" lon="-67.879355">
        <ele>446.00</ele>
        <time>2022-10-26T12:42:36Z</time>
      </trkpt>
      <trkpt lat="10.234207" lon="-67.879355">
        <ele>446.00</ele>
        <time>2022-10-26T12:42:37Z</time>
      </trkpt>
      <trkpt lat="10.234207" lon="-67.879355">
        <ele>446.00</ele>
        <time>2022-10-26T12:42:38Z</time>
      </trkpt>
      <trkpt lat="10.234207" lon="-67.879355">
        <ele>446.00</ele>
        <time>2022-10-26T12:42:39Z</time>
      </trkpt>
      <trkpt lat="10.234207" lon="-67.879355">
        <ele>446.00</ele>
        <time>2022-10-26T12:42:40Z</time>
      </trkpt>
      <trkpt lat="10.234207" lon="-67.879355">
        <ele>446.00</ele>
        <time>2022-10-26T12:42:41Z</time>
      </trkpt>
      <trkpt lat="10.234207" lon="-67.879355">
        <ele>446.00</ele>
        <time>2022-10-26T12:42:42Z</time>
      </trkpt>
      <trkpt lat="10.234207" lon="-67.879355">
        <ele>446.00</ele>
        <time>2022-10-26T12:42:43Z</time>
      </trkpt>
      <trkpt lat="10.234207" lon="-67.879355">
        <ele>446.00</ele>
        <time>2022-10-26T12:42:44Z</time>
      </trkpt>
      <trkpt lat="10.234207" lon="-67.879355">
        <ele>446.00</ele>
        <time>2022-10-26T12:42:45Z</time>
      </trkpt>
      <trkpt lat="10.234207" lon="-67.879355">
        <ele>446.00</ele>
        <time>2022-10-26T12:42:46Z</time>
      </trkpt>
      <trkpt lat="10.234207" lon="-67.879355">
        <ele>446.00</ele>
        <time>2022-10-26T12:42:47Z</time>
      </trkpt>
      <trkpt lat="10.234207" lon="-67.879353">
        <ele>446.00</ele>
        <time>2022-10-26T12:42:48Z</time>
      </trkpt>
      <trkpt lat="10.234207" lon="-67.879353">
        <ele>446.00</ele>
        <time>2022-10-26T12:42:49Z</time>
      </trkpt>
      <trkpt lat="10.234207" lon="-67.879352">
        <ele>446.00</ele>
        <time>2022-10-26T12:42:50Z</time>
      </trkpt>
      <trkpt lat="10.234207" lon="-67.879352">
        <ele>446.00</ele>
        <time>2022-10-26T12:42:51Z</time>
      </trkpt>
      <trkpt lat="10.234207" lon="-67.879353">
        <ele>446.00</ele>
        <time>2022-10-26T12:42:52Z</time>
      </trkpt>
      <trkpt lat="10.234209" lon="-67.879357">
        <ele>446.00</ele>
        <time>2022-10-26T12:42:53Z</time>
      </trkpt>
      <trkpt lat="10.234208" lon="-67.879354">
        <ele>446.00</ele>
        <time>2022-10-26T12:42:54Z</time>
      </trkpt>
      <trkpt lat="10.234207" lon="-67.879349">
        <ele>446.00</ele>
        <time>2022-10-26T12:42:55Z</time>
      </trkpt>
      <trkpt lat="10.234206" lon="-67.879345">
        <ele>446.00</ele>
        <time>2022-10-26T12:42:56Z</time>
      </trkpt>
      <trkpt lat="10.234203" lon="-67.879340">
        <ele>446.00</ele>
        <time>2022-10-26T12:42:57Z</time>
      </trkpt>
      <trkpt lat="10.234199" lon="-67.879336">
        <ele>446.00</ele>
        <time>2022-10-26T12:42:58Z</time>
      </trkpt>
      <trkpt lat="10.234196" lon="-67.879331">
        <ele>446.10</ele>
        <time>2022-10-26T12:42:59Z</time>
      </trkpt>
      <trkpt lat="10.234194" lon="-67.879327">
        <ele>446.10</ele>
        <time>2022-10-26T12:43:00Z</time>
      </trkpt>
      <trkpt lat="10.234192" lon="-67.879325">
        <ele>446.10</ele>
        <time>2022-10-26T12:43:01Z</time>
      </trkpt>
      <trkpt lat="10.234195" lon="-67.879326">
        <ele>446.10</ele>
        <time>2022-10-26T12:43:02Z</time>
      </trkpt>
      <trkpt lat="10.234200" lon="-67.879326">
        <ele>446.10</ele>
        <time>2022-10-26T12:43:04Z</time>
      </trkpt>
      <trkpt lat="10.234202" lon="-67.879323">
        <ele>446.10</ele>
        <time>2022-10-26T12:43:05Z</time>
      </trkpt>
      <trkpt lat="10.234204" lon="-67.879320">
        <ele>446.10</ele>
        <time>2022-10-26T12:43:06Z</time>
      </trkpt>
      <trkpt lat="10.234208" lon="-67.879317">
        <ele>446.10</ele>
        <time>2022-10-26T12:43:07Z</time>
      </trkpt>
      <trkpt lat="10.234211" lon="-67.879314">
        <ele>446.10</ele>
        <time>2022-10-26T12:43:08Z</time>
      </trkpt>
      <trkpt lat="10.234213" lon="-67.879311">
        <ele>446.10</ele>
        <time>2022-10-26T12:43:09Z</time>
      </trkpt>
      <trkpt lat="10.234213" lon="-67.879309">
        <ele>446.10</ele>
        <time>2022-10-26T12:43:10Z</time>
      </trkpt>
      <trkpt lat="10.234215" lon="-67.879307">
        <ele>446.10</ele>
        <time>2022-10-26T12:43:11Z</time>
      </trkpt>
      <trkpt lat="10.234217" lon="-67.879305">
        <ele>446.10</ele>
        <time>2022-10-26T12:43:12Z</time>
      </trkpt>
      <trkpt lat="10.234222" lon="-67.879302">
        <ele>446.10</ele>
        <time>2022-10-26T12:43:13Z</time>
      </trkpt>
      <trkpt lat="10.234227" lon="-67.879301">
        <ele>446.10</ele>
        <time>2022-10-26T12:43:14Z</time>
      </trkpt>
      <trkpt lat="10.234236" lon="-67.879296">
        <ele>446.10</ele>
        <time>2022-10-26T12:43:16Z</time>
      </trkpt>
      <trkpt lat="10.234239" lon="-67.879288">
        <ele>446.10</ele>
        <time>2022-10-26T12:43:17Z</time>
      </trkpt>
      <trkpt lat="10.234242" lon="-67.879279">
        <ele>446.10</ele>
        <time>2022-10-26T12:43:18Z</time>
      </trkpt>
      <trkpt lat="10.234251" lon="-67.879266">
        <ele>446.10</ele>
        <time>2022-10-26T12:43:19Z</time>
      </trkpt>
      <trkpt lat="10.234259" lon="-67.879255">
        <ele>446.10</ele>
        <time>2022-10-26T12:43:21Z</time>
      </trkpt>
      <trkpt lat="10.234271" lon="-67.879237">
        <ele>446.10</ele>
        <time>2022-10-26T12:43:22Z</time>
      </trkpt>
      <trkpt lat="10.234275" lon="-67.879230">
        <ele>446.10</ele>
        <time>2022-10-26T12:43:23Z</time>
      </trkpt>
      <trkpt lat="10.234279" lon="-67.879224">
        <ele>446.10</ele>
        <time>2022-10-26T12:43:24Z</time>
      </trkpt>
      <trkpt lat="10.234289" lon="-67.879205">
        <ele>446.10</ele>
        <time>2022-10-26T12:43:25Z</time>
      </trkpt>
      <trkpt lat="10.234293" lon="-67.879198">
        <ele>446.10</ele>
        <time>2022-10-26T12:43:26Z</time>
      </trkpt>
      <trkpt lat="10.234297" lon="-67.879191">
        <ele>446.10</ele>
        <time>2022-10-26T12:43:27Z</time>
      </trkpt>
      <trkpt lat="10.234308" lon="-67.879171">
        <ele>446.10</ele>
        <time>2022-10-26T12:43:28Z</time>
      </trkpt>
      <trkpt lat="10.234312" lon="-67.879162">
        <ele>446.10</ele>
        <time>2022-10-26T12:43:29Z</time>
      </trkpt>
      <trkpt lat="10.234317" lon="-67.879154">
        <ele>446.10</ele>
        <time>2022-10-26T12:43:30Z</time>
      </trkpt>
      <trkpt lat="10.234323" lon="-67.879141">
        <ele>446.10</ele>
        <time>2022-10-26T12:43:32Z</time>
      </trkpt>
      <trkpt lat="10.234327" lon="-67.879126">
        <ele>446.10</ele>
        <time>2022-10-26T12:43:33Z</time>
      </trkpt>
      <trkpt lat="10.234329" lon="-67.879116">
        <ele>446.20</ele>
        <time>2022-10-26T12:43:34Z</time>
      </trkpt>
      <trkpt lat="10.234330" lon="-67.879106">
        <ele>446.20</ele>
        <time>2022-10-26T12:43:35Z</time>
      </trkpt>
      <trkpt lat="10.234329" lon="-67.879096">
        <ele>446.20</ele>
        <time>2022-10-26T12:43:36Z</time>
      </trkpt>
      <trkpt lat="10.234329" lon="-67.879089">
        <ele>446.20</ele>
        <time>2022-10-26T12:43:37Z</time>
      </trkpt>
      <trkpt lat="10.234328" lon="-67.879084">
        <ele>446.20</ele>
        <time>2022-10-26T12:43:38Z</time>
      </trkpt>
      <trkpt lat="10.234328" lon="-67.879080">
        <ele>446.20</ele>
        <time>2022-10-26T12:43:39Z</time>
      </trkpt>
      <trkpt lat="10.234328" lon="-67.879079">
        <ele>446.20</ele>
        <time>2022-10-26T12:43:40Z</time>
      </trkpt>
      <trkpt lat="10.234329" lon="-67.879080">
        <ele>446.20</ele>
        <time>2022-10-26T12:43:41Z</time>
      </trkpt>
      <trkpt lat="10.234331" lon="-67.879078">
        <ele>446.20</ele>
        <time>2022-10-26T12:43:42Z</time>
      </trkpt>
      <trkpt lat="10.234331" lon="-67.879075">
        <ele>446.20</ele>
        <time>2022-10-26T12:43:43Z</time>
      </trkpt>
      <trkpt lat="10.234332" lon="-67.879072">
        <ele>446.20</ele>
        <time>2022-10-26T12:43:45Z</time>
      </trkpt>
      <trkpt lat="10.234333" lon="-67.879066">
        <ele>446.20</ele>
        <time>2022-10-26T12:43:46Z</time>
      </trkpt>
      <trkpt lat="10.234334" lon="-67.879061">
        <ele>446.20</ele>
        <time>2022-10-26T12:43:47Z</time>
      </trkpt>
      <trkpt lat="10.234334" lon="-67.879056">
        <ele>446.20</ele>
        <time>2022-10-26T12:43:48Z</time>
      </trkpt>
      <trkpt lat="10.234331" lon="-67.879047">
        <ele>446.20</ele>
        <time>2022-10-26T12:43:50Z</time>
      </trkpt>
      <trkpt lat="10.234326" lon="-67.879042">
        <ele>446.20</ele>
        <time>2022-10-26T12:43:51Z</time>
      </trkpt>
      <trkpt lat="10.234322" lon="-67.879039">
        <ele>446.20</ele>
        <time>2022-10-26T12:43:52Z</time>
      </trkpt>
      <trkpt lat="10.234318" lon="-67.879036">
        <ele>446.20</ele>
        <time>2022-10-26T12:43:53Z</time>
      </trkpt>
      <trkpt lat="10.234313" lon="-67.879035">
        <ele>446.20</ele>
        <time>2022-10-26T12:43:54Z</time>
      </trkpt>
      <trkpt lat="10.234308" lon="-67.879032">
        <ele>446.20</ele>
        <time>2022-10-26T12:43:55Z</time>
      </trkpt>
      <trkpt lat="10.234306" lon="-67.879030">
        <ele>446.20</ele>
        <time>2022-10-26T12:43:56Z</time>
      </trkpt>
      <trkpt lat="10.234305" lon="-67.879029">
        <ele>446.20</ele>
        <time>2022-10-26T12:43:57Z</time>
      </trkpt>
      <trkpt lat="10.234306" lon="-67.879028">
        <ele>446.20</ele>
        <time>2022-10-26T12:43:58Z</time>
      </trkpt>
      <trkpt lat="10.234307" lon="-67.879028">
        <ele>446.20</ele>
        <time>2022-10-26T12:43:59Z</time>
      </trkpt>
      <trkpt lat="10.234309" lon="-67.879027">
        <ele>446.20</ele>
        <time>2022-10-26T12:44:00Z</time>
      </trkpt>
      <trkpt lat="10.234309" lon="-67.879027">
        <ele>446.20</ele>
        <time>2022-10-26T12:44:01Z</time>
      </trkpt>
      <trkpt lat="10.234309" lon="-67.879026">
        <ele>446.20</ele>
        <time>2022-10-26T12:44:02Z</time>
      </trkpt>
      <trkpt lat="10.234309" lon="-67.879026">
        <ele>446.20</ele>
        <time>2022-10-26T12:44:03Z</time>
      </trkpt>
      <trkpt lat="10.234310" lon="-67.879027">
        <ele>446.20</ele>
        <time>2022-10-26T12:44:04Z</time>
      </trkpt>
      <trkpt lat="10.234312" lon="-67.879028">
        <ele>446.20</ele>
        <time>2022-10-26T12:44:05Z</time>
      </trkpt>
      <trkpt lat="10.234314" lon="-67.879032">
        <ele>446.20</ele>
        <time>2022-10-26T12:44:06Z</time>
      </trkpt>
      <trkpt lat="10.234314" lon="-67.879035">
        <ele>446.20</ele>
        <time>2022-10-26T12:44:07Z</time>
      </trkpt>
      <trkpt lat="10.234314" lon="-67.879038">
        <ele>446.20</ele>
        <time>2022-10-26T12:44:08Z</time>
      </trkpt>
      <trkpt lat="10.234312" lon="-67.879043">
        <ele>446.20</ele>
        <time>2022-10-26T12:44:09Z</time>
      </trkpt>
      <trkpt lat="10.234311" lon="-67.879045">
        <ele>446.20</ele>
        <time>2022-10-26T12:44:10Z</time>
      </trkpt>
      <trkpt lat="10.234308" lon="-67.879049">
        <ele>446.20</ele>
        <time>2022-10-26T12:44:11Z</time>
      </trkpt>
      <trkpt lat="10.234307" lon="-67.879052">
        <ele>446.20</ele>
        <time>2022-10-26T12:44:12Z</time>
      </trkpt>
      <trkpt lat="10.234306" lon="-67.879057">
        <ele>446.20</ele>
        <time>2022-10-26T12:44:13Z</time>
      </trkpt>
      <trkpt lat="10.234300" lon="-67.879066">
        <ele>446.20</ele>
        <time>2022-10-26T12:44:14Z</time>
      </trkpt>
      <trkpt lat="10.234294" lon="-67.879075">
        <ele>446.20</ele>
        <time>2022-10-26T12:44:15Z</time>
      </trkpt>
      <trkpt lat="10.234285" lon="-67.879085">
        <ele>446.20</ele>
        <time>2022-10-26T12:44:16Z</time>
      </trkpt>
      <trkpt lat="10.234279" lon="-67.879091">
        <ele>446.20</ele>
        <time>2022-10-26T12:44:17Z</time>
      </trkpt>
      <trkpt lat="10.234278" lon="-67.879094">
        <ele>446.20</ele>
        <time>2022-10-26T12:44:18Z</time>
      </trkpt>
      <trkpt lat="10.234280" lon="-67.879095">
        <ele>446.20</ele>
        <time>2022-10-26T12:44:19Z</time>
      </trkpt>
      <trkpt lat="10.234283" lon="-67.879096">
        <ele>446.20</ele>
        <time>2022-10-26T12:44:20Z</time>
      </trkpt>
      <trkpt lat="10.234287" lon="-67.879096">
        <ele>446.20</ele>
        <time>2022-10-26T12:44:21Z</time>
      </trkpt>
      <trkpt lat="10.234292" lon="-67.879095">
        <ele>446.20</ele>
        <time>2022-10-26T12:44:22Z</time>
      </trkpt>
      <trkpt lat="10.234295" lon="-67.879094">
        <ele>446.20</ele>
        <time>2022-10-26T12:44:23Z</time>
      </trkpt>
      <trkpt lat="10.234298" lon="-67.879094">
        <ele>446.20</ele>
        <time>2022-10-26T12:44:24Z</time>
      </trkpt>
      <trkpt lat="10.234300" lon="-67.879093">
        <ele>446.20</ele>
        <time>2022-10-26T12:44:25Z</time>
      </trkpt>
      <trkpt lat="10.234301" lon="-67.879093">
        <ele>446.20</ele>
        <time>2022-10-26T12:44:26Z</time>
      </trkpt>
      <trkpt lat="10.234302" lon="-67.879092">
        <ele>446.20</ele>
        <time>2022-10-26T12:44:27Z</time>
      </trkpt>
      <trkpt lat="10.234302" lon="-67.879092">
        <ele>446.20</ele>
        <time>2022-10-26T12:44:28Z</time>
      </trkpt>
      <trkpt lat="10.234302" lon="-67.879092">
        <ele>446.20</ele>
        <time>2022-10-26T12:44:29Z</time>
      </trkpt>
      <trkpt lat="10.234302" lon="-67.879092">
        <ele>446.20</ele>
        <time>2022-10-26T12:44:30Z</time>
      </trkpt>
      <trkpt lat="10.234300" lon="-67.879093">
        <ele>446.20</ele>
        <time>2022-10-26T12:44:31Z</time>
      </trkpt>
      <trkpt lat="10.234300" lon="-67.879093">
        <ele>446.20</ele>
        <time>2022-10-26T12:44:32Z</time>
      </trkpt>
      <trkpt lat="10.234300" lon="-67.879094">
        <ele>446.20</ele>
        <time>2022-10-26T12:44:33Z</time>
      </trkpt>
      <trkpt lat="10.234301" lon="-67.879094">
        <ele>446.20</ele>
        <time>2022-10-26T12:44:34Z</time>
      </trkpt>
      <trkpt lat="10.234304" lon="-67.879095">
        <ele>446.20</ele>
        <time>2022-10-26T12:44:35Z</time>
      </trkpt>
      <trkpt lat="10.234307" lon="-67.879096">
        <ele>446.20</ele>
        <time>2022-10-26T12:44:36Z</time>
      </trkpt>
      <trkpt lat="10.234309" lon="-67.879096">
        <ele>446.20</ele>
        <time>2022-10-26T12:44:37Z</time>
      </trkpt>
      <trkpt lat="10.234310" lon="-67.879097">
        <ele>446.20</ele>
        <time>2022-10-26T12:44:38Z</time>
      </trkpt>
      <trkpt lat="10.234312" lon="-67.879097">
        <ele>446.20</ele>
        <time>2022-10-26T12:44:39Z</time>
      </trkpt>
      <trkpt lat="10.234313" lon="-67.879097">
        <ele>446.20</ele>
        <time>2022-10-26T12:44:40Z</time>
      </trkpt>
      <trkpt lat="10.234313" lon="-67.879097">
        <ele>446.20</ele>
        <time>2022-10-26T12:44:41Z</time>
      </trkpt>
      <trkpt lat="10.234313" lon="-67.879096">
        <ele>446.20</ele>
        <time>2022-10-26T12:44:42Z</time>
      </trkpt>
      <trkpt lat="10.234313" lon="-67.879096">
        <ele>446.20</ele>
        <time>2022-10-26T12:44:43Z</time>
      </trkpt>
      <trkpt lat="10.234313" lon="-67.879096">
        <ele>446.20</ele>
        <time>2022-10-26T12:44:44Z</time>
      </trkpt>
      <trkpt lat="10.234313" lon="-67.879096">
        <ele>446.20</ele>
        <time>2022-10-26T12:44:45Z</time>
      </trkpt>
      <trkpt lat="10.234312" lon="-67.879096">
        <ele>446.20</ele>
        <time>2022-10-26T12:44:46Z</time>
      </trkpt>
      <trkpt lat="10.234312" lon="-67.879096">
        <ele>446.20</ele>
        <time>2022-10-26T12:44:47Z</time>
      </trkpt>
      <trkpt lat="10.234312" lon="-67.879096">
        <ele>446.20</ele>
        <time>2022-10-26T12:44:48Z</time>
      </trkpt>
      <trkpt lat="10.234312" lon="-67.879095">
        <ele>446.20</ele>
        <time>2022-10-26T12:44:49Z</time>
      </trkpt>
      <trkpt lat="10.234312" lon="-67.879095">
        <ele>446.20</ele>
        <time>2022-10-26T12:44:50Z</time>
      </trkpt>
      <trkpt lat="10.234313" lon="-67.879095">
        <ele>446.20</ele>
        <time>2022-10-26T12:44:51Z</time>
      </trkpt>
      <trkpt lat="10.234314" lon="-67.879095">
        <ele>446.20</ele>
        <time>2022-10-26T12:44:52Z</time>
      </trkpt>
      <trkpt lat="10.234314" lon="-67.879094">
        <ele>446.20</ele>
        <time>2022-10-26T12:44:53Z</time>
      </trkpt>
      <trkpt lat="10.234314" lon="-67.879094">
        <ele>446.20</ele>
        <time>2022-10-26T12:44:54Z</time>
      </trkpt>
      <trkpt lat="10.234314" lon="-67.879093">
        <ele>446.20</ele>
        <time>2022-10-26T12:44:55Z</time>
      </trkpt>
      <trkpt lat="10.234314" lon="-67.879093">
        <ele>446.20</ele>
        <time>2022-10-26T12:44:56Z</time>
      </trkpt>
      <trkpt lat="10.234313" lon="-67.879093">
        <ele>446.20</ele>
        <time>2022-10-26T12:44:58Z</time>
      </trkpt>
      <trkpt lat="10.234314" lon="-67.879093">
        <ele>446.20</ele>
        <time>2022-10-26T12:44:59Z</time>
      </trkpt>
      <trkpt lat="10.234316" lon="-67.879094">
        <ele>446.20</ele>
        <time>2022-10-26T12:45:00Z</time>
      </trkpt>
      <trkpt lat="10.234317" lon="-67.879095">
        <ele>446.20</ele>
        <time>2022-10-26T12:45:01Z</time>
      </trkpt>
      <trkpt lat="10.234318" lon="-67.879095">
        <ele>446.20</ele>
        <time>2022-10-26T12:45:02Z</time>
      </trkpt>
      <trkpt lat="10.234320" lon="-67.879094">
        <ele>446.20</ele>
        <time>2022-10-26T12:45:03Z</time>
      </trkpt>
      <trkpt lat="10.234322" lon="-67.879095">
        <ele>446.20</ele>
        <time>2022-10-26T12:45:04Z</time>
      </trkpt>
      <trkpt lat="10.234323" lon="-67.879095">
        <ele>446.20</ele>
        <time>2022-10-26T12:45:05Z</time>
      </trkpt>
      <trkpt lat="10.234323" lon="-67.879095">
        <ele>446.20</ele>
        <time>2022-10-26T12:45:06Z</time>
      </trkpt>
      <trkpt lat="10.234323" lon="-67.879095">
        <ele>446.20</ele>
        <time>2022-10-26T12:45:07Z</time>
      </trkpt>
      <trkpt lat="10.234323" lon="-67.879095">
        <ele>446.20</ele>
        <time>2022-10-26T12:45:08Z</time>
      </trkpt>
      <trkpt lat="10.234323" lon="-67.879095">
        <ele>446.20</ele>
        <time>2022-10-26T12:45:09Z</time>
      </trkpt>
      <trkpt lat="10.234323" lon="-67.879095">
        <ele>446.20</ele>
        <time>2022-10-26T12:45:10Z</time>
      </trkpt>
      <trkpt lat="10.234323" lon="-67.879094">
        <ele>446.20</ele>
        <time>2022-10-26T12:45:11Z</time>
      </trkpt>
      <trkpt lat="10.234323" lon="-67.879095">
        <ele>446.20</ele>
        <time>2022-10-26T12:45:12Z</time>
      </trkpt>
      <trkpt lat="10.234323" lon="-67.879095">
        <ele>446.20</ele>
        <time>2022-10-26T12:45:13Z</time>
      </trkpt>
      <trkpt lat="10.234322" lon="-67.879092">
        <ele>446.20</ele>
        <time>2022-10-26T12:45:14Z</time>
      </trkpt>
      <trkpt lat="10.234321" lon="-67.879088">
        <ele>446.20</ele>
        <time>2022-10-26T12:45:15Z</time>
      </trkpt>
      <trkpt lat="10.234319" lon="-67.879085">
        <ele>446.20</ele>
        <time>2022-10-26T12:45:16Z</time>
      </trkpt>
      <trkpt lat="10.234317" lon="-67.879085">
        <ele>446.30</ele>
        <time>2022-10-26T12:45:17Z</time>
      </trkpt>
      <trkpt lat="10.234316" lon="-67.879085">
        <ele>446.30</ele>
        <time>2022-10-26T12:45:18Z</time>
      </trkpt>
      <trkpt lat="10.234316" lon="-67.879086">
        <ele>446.30</ele>
        <time>2022-10-26T12:45:19Z</time>
      </trkpt>
      <trkpt lat="10.234316" lon="-67.879086">
        <ele>446.30</ele>
        <time>2022-10-26T12:45:20Z</time>
      </trkpt>
      <trkpt lat="10.234316" lon="-67.879086">
        <ele>446.30</ele>
        <time>2022-10-26T12:45:22Z</time>
      </trkpt>
      <trkpt lat="10.234316" lon="-67.879086">
        <ele>446.30</ele>
        <time>2022-10-26T12:45:23Z</time>
      </trkpt>
      <trkpt lat="10.234316" lon="-67.879086">
        <ele>446.30</ele>
        <time>2022-10-26T12:45:24Z</time>
      </trkpt>
      <trkpt lat="10.234316" lon="-67.879086">
        <ele>446.30</ele>
        <time>2022-10-26T12:45:25Z</time>
      </trkpt>
      <trkpt lat="10.234316" lon="-67.879086">
        <ele>446.30</ele>
        <time>2022-10-26T12:45:26Z</time>
      </trkpt>
      <trkpt lat="10.234316" lon="-67.879086">
        <ele>446.30</ele>
        <time>2022-10-26T12:45:27Z</time>
      </trkpt>
      <trkpt lat="10.234316" lon="-67.879086">
        <ele>446.30</ele>
        <time>2022-10-26T12:45:28Z</time>
      </trkpt>
      <trkpt lat="10.234316" lon="-67.879085">
        <ele>446.30</ele>
        <time>2022-10-26T12:45:29Z</time>
      </trkpt>
      <trkpt lat="10.234317" lon="-67.879085">
        <ele>446.30</ele>
        <time>2022-10-26T12:45:30Z</time>
      </trkpt>
      <trkpt lat="10.234317" lon="-67.879085">
        <ele>446.30</ele>
        <time>2022-10-26T12:45:31Z</time>
      </trkpt>
      <trkpt lat="10.234318" lon="-67.879084">
        <ele>446.30</ele>
        <time>2022-10-26T12:45:32Z</time>
      </trkpt>
      <trkpt lat="10.234318" lon="-67.879084">
        <ele>446.30</ele>
        <time>2022-10-26T12:45:33Z</time>
      </trkpt>
      <trkpt lat="10.234318" lon="-67.879084">
        <ele>446.30</ele>
        <time>2022-10-26T12:45:34Z</time>
      </trkpt>
      <trkpt lat="10.234319" lon="-67.879082">
        <ele>446.30</ele>
        <time>2022-10-26T12:45:35Z</time>
      </trkpt>
      <trkpt lat="10.234316" lon="-67.879075">
        <ele>446.30</ele>
        <time>2022-10-26T12:45:36Z</time>
      </trkpt>
      <trkpt lat="10.234314" lon="-67.879070">
        <ele>446.30</ele>
        <time>2022-10-26T12:45:37Z</time>
      </trkpt>
      <trkpt lat="10.234312" lon="-67.879065">
        <ele>446.30</ele>
        <time>2022-10-26T12:45:38Z</time>
      </trkpt>
      <trkpt lat="10.234310" lon="-67.879062">
        <ele>446.30</ele>
        <time>2022-10-26T12:45:39Z</time>
      </trkpt>
      <trkpt lat="10.234310" lon="-67.879061">
        <ele>446.30</ele>
        <time>2022-10-26T12:45:40Z</time>
      </trkpt>
      <trkpt lat="10.234309" lon="-67.879061">
        <ele>446.30</ele>
        <time>2022-10-26T12:45:41Z</time>
      </trkpt>
      <trkpt lat="10.234310" lon="-67.879061">
        <ele>446.30</ele>
        <time>2022-10-26T12:45:42Z</time>
      </trkpt>
      <trkpt lat="10.234311" lon="-67.879062">
        <ele>446.30</ele>
        <time>2022-10-26T12:45:43Z</time>
      </trkpt>
      <trkpt lat="10.234311" lon="-67.879063">
        <ele>446.30</ele>
        <time>2022-10-26T12:45:44Z</time>
      </trkpt>
      <trkpt lat="10.234311" lon="-67.879064">
        <ele>446.30</ele>
        <time>2022-10-26T12:45:45Z</time>
      </trkpt>
      <trkpt lat="10.234311" lon="-67.879064">
        <ele>446.30</ele>
        <time>2022-10-26T12:45:47Z</time>
      </trkpt>
      <trkpt lat="10.234311" lon="-67.879064">
        <ele>446.30</ele>
        <time>2022-10-26T12:45:48Z</time>
      </trkpt>
      <trkpt lat="10.234311" lon="-67.879064">
        <ele>446.30</ele>
        <time>2022-10-26T12:45:49Z</time>
      </trkpt>
      <trkpt lat="10.234311" lon="-67.879065">
        <ele>446.30</ele>
        <time>2022-10-26T12:45:50Z</time>
      </trkpt>
      <trkpt lat="10.234311" lon="-67.879065">
        <ele>446.30</ele>
        <time>2022-10-26T12:45:51Z</time>
      </trkpt>
      <trkpt lat="10.234311" lon="-67.879065">
        <ele>446.30</ele>
        <time>2022-10-26T12:45:52Z</time>
      </trkpt>
      <trkpt lat="10.234311" lon="-67.879065">
        <ele>446.30</ele>
        <time>2022-10-26T12:45:53Z</time>
      </trkpt>
      <trkpt lat="10.234312" lon="-67.879064">
        <ele>446.30</ele>
        <time>2022-10-26T12:45:54Z</time>
      </trkpt>
      <trkpt lat="10.234313" lon="-67.879064">
        <ele>446.30</ele>
        <time>2022-10-26T12:45:55Z</time>
      </trkpt>
      <trkpt lat="10.234314" lon="-67.879063">
        <ele>446.30</ele>
        <time>2022-10-26T12:45:56Z</time>
      </trkpt>
      <trkpt lat="10.234314" lon="-67.879063">
        <ele>446.30</ele>
        <time>2022-10-26T12:45:57Z</time>
      </trkpt>
      <trkpt lat="10.234315" lon="-67.879062">
        <ele>446.30</ele>
        <time>2022-10-26T12:45:58Z</time>
      </trkpt>
      <trkpt lat="10.234315" lon="-67.879062">
        <ele>446.30</ele>
        <time>2022-10-26T12:45:59Z</time>
      </trkpt>
      <trkpt lat="10.234315" lon="-67.879062">
        <ele>446.30</ele>
        <time>2022-10-26T12:46:00Z</time>
      </trkpt>
      <trkpt lat="10.234315" lon="-67.879062">
        <ele>446.30</ele>
        <time>2022-10-26T12:46:01Z</time>
      </trkpt>
      <trkpt lat="10.234315" lon="-67.879062">
        <ele>446.30</ele>
        <time>2022-10-26T12:46:02Z</time>
      </trkpt>
      <trkpt lat="10.234315" lon="-67.879062">
        <ele>446.30</ele>
        <time>2022-10-26T12:46:03Z</time>
      </trkpt>
      <trkpt lat="10.234315" lon="-67.879062">
        <ele>446.30</ele>
        <time>2022-10-26T12:46:04Z</time>
      </trkpt>
      <trkpt lat="10.234315" lon="-67.879062">
        <ele>446.30</ele>
        <time>2022-10-26T12:46:05Z</time>
      </trkpt>
      <trkpt lat="10.234315" lon="-67.879062">
        <ele>446.30</ele>
        <time>2022-10-26T12:46:06Z</time>
      </trkpt>
      <trkpt lat="10.234315" lon="-67.879062">
        <ele>446.30</ele>
        <time>2022-10-26T12:46:07Z</time>
      </trkpt>
      <trkpt lat="10.234315" lon="-67.879062">
        <ele>446.30</ele>
        <time>2022-10-26T12:46:08Z</time>
      </trkpt>
      <trkpt lat="10.234314" lon="-67.879064">
        <ele>446.30</ele>
        <time>2022-10-26T12:46:09Z</time>
      </trkpt>
      <trkpt lat="10.234313" lon="-67.879067">
        <ele>446.30</ele>
        <time>2022-10-26T12:46:10Z</time>
      </trkpt>
      <trkpt lat="10.234315" lon="-67.879070">
        <ele>446.30</ele>
        <time>2022-10-26T12:46:11Z</time>
      </trkpt>
      <trkpt lat="10.234317" lon="-67.879073">
        <ele>446.30</ele>
        <time>2022-10-26T12:46:12Z</time>
      </trkpt>
      <trkpt lat="10.234319" lon="-67.879074">
        <ele>446.30</ele>
        <time>2022-10-26T12:46:13Z</time>
      </trkpt>
      <trkpt lat="10.234320" lon="-67.879074">
        <ele>446.30</ele>
        <time>2022-10-26T12:46:14Z</time>
      </trkpt>
      <trkpt lat="10.234320" lon="-67.879074">
        <ele>446.30</ele>
        <time>2022-10-26T12:46:15Z</time>
      </trkpt>
      <trkpt lat="10.234320" lon="-67.879074">
        <ele>446.30</ele>
        <time>2022-10-26T12:46:16Z</time>
      </trkpt>
      <trkpt lat="10.234320" lon="-67.879074">
        <ele>446.30</ele>
        <time>2022-10-26T12:46:17Z</time>
      </trkpt>
      <trkpt lat="10.234320" lon="-67.879074">
        <ele>446.30</ele>
        <time>2022-10-26T12:46:18Z</time>
      </trkpt>
      <trkpt lat="10.234320" lon="-67.879074">
        <ele>446.30</ele>
        <time>2022-10-26T12:46:19Z</time>
      </trkpt>
      <trkpt lat="10.234320" lon="-67.879074">
        <ele>446.30</ele>
        <time>2022-10-26T12:46:20Z</time>
      </trkpt>
      <trkpt lat="10.234320" lon="-67.879074">
        <ele>446.30</ele>
        <time>2022-10-26T12:46:21Z</time>
      </trkpt>
      <trkpt lat="10.234320" lon="-67.879074">
        <ele>446.30</ele>
        <time>2022-10-26T12:46:22Z</time>
      </trkpt>
      <trkpt lat="10.234320" lon="-67.879074">
        <ele>446.30</ele>
        <time>2022-10-26T12:46:23Z</time>
      </trkpt>
      <trkpt lat="10.234320" lon="-67.879074">
        <ele>446.30</ele>
        <time>2022-10-26T12:46:24Z</time>
      </trkpt>
      <trkpt lat="10.234320" lon="-67.879074">
        <ele>446.30</ele>
        <time>2022-10-26T12:46:25Z</time>
      </trkpt>
      <trkpt lat="10.234320" lon="-67.879074">
        <ele>446.30</ele>
        <time>2022-10-26T12:46:26Z</time>
      </trkpt>
      <trkpt lat="10.234320" lon="-67.879074">
        <ele>446.30</ele>
        <time>2022-10-26T12:46:27Z</time>
      </trkpt>
      <trkpt lat="10.234320" lon="-67.879074">
        <ele>446.30</ele>
        <time>2022-10-26T12:46:28Z</time>
      </trkpt>
      <trkpt lat="10.234320" lon="-67.879074">
        <ele>446.30</ele>
        <time>2022-10-26T12:46:29Z</time>
      </trkpt>
      <trkpt lat="10.234321" lon="-67.879074">
        <ele>446.30</ele>
        <time>2022-10-26T12:46:30Z</time>
      </trkpt>
      <trkpt lat="10.234321" lon="-67.879074">
        <ele>446.30</ele>
        <time>2022-10-26T12:46:31Z</time>
      </trkpt>
      <trkpt lat="10.234321" lon="-67.879074">
        <ele>446.30</ele>
        <time>2022-10-26T12:46:32Z</time>
      </trkpt>
      <trkpt lat="10.234321" lon="-67.879074">
        <ele>446.30</ele>
        <time>2022-10-26T12:46:33Z</time>
      </trkpt>
      <trkpt lat="10.234321" lon="-67.879074">
        <ele>446.30</ele>
        <time>2022-10-26T12:46:34Z</time>
      </trkpt>
      <trkpt lat="10.234321" lon="-67.879074">
        <ele>446.30</ele>
        <time>2022-10-26T12:46:35Z</time>
      </trkpt>
      <trkpt lat="10.234321" lon="-67.879074">
        <ele>446.30</ele>
        <time>2022-10-26T12:46:36Z</time>
      </trkpt>
      <trkpt lat="10.234321" lon="-67.879074">
        <ele>446.30</ele>
        <time>2022-10-26T12:46:37Z</time>
      </trkpt>
      <trkpt lat="10.234321" lon="-67.879074">
        <ele>446.30</ele>
        <time>2022-10-26T12:46:38Z</time>
      </trkpt>
      <trkpt lat="10.234321" lon="-67.879074">
        <ele>446.30</ele>
        <time>2022-10-26T12:46:39Z</time>
      </trkpt>
      <trkpt lat="10.234321" lon="-67.879074">
        <ele>446.30</ele>
        <time>2022-10-26T12:46:40Z</time>
      </trkpt>
      <trkpt lat="10.234321" lon="-67.879074">
        <ele>446.30</ele>
        <time>2022-10-26T12:46:41Z</time>
      </trkpt>
      <trkpt lat="10.234321" lon="-67.879074">
        <ele>446.30</ele>
        <time>2022-10-26T12:46:42Z</time>
      </trkpt>
      <trkpt lat="10.234321" lon="-67.879074">
        <ele>446.30</ele>
        <time>2022-10-26T12:46:43Z</time>
      </trkpt>
      <trkpt lat="10.234321" lon="-67.879074">
        <ele>446.30</ele>
        <time>2022-10-26T12:46:44Z</time>
      </trkpt>
      <trkpt lat="10.234321" lon="-67.879074">
        <ele>446.30</ele>
        <time>2022-10-26T12:46:45Z</time>
      </trkpt>
      <trkpt lat="10.234321" lon="-67.879074">
        <ele>446.30</ele>
        <time>2022-10-26T12:46:46Z</time>
      </trkpt>
      <trkpt lat="10.234321" lon="-67.879074">
        <ele>446.30</ele>
        <time>2022-10-26T12:46:47Z</time>
      </trkpt>
      <trkpt lat="10.234321" lon="-67.879074">
        <ele>446.30</ele>
        <time>2022-10-26T12:46:48Z</time>
      </trkpt>
      <trkpt lat="10.234321" lon="-67.879074">
        <ele>446.30</ele>
        <time>2022-10-26T12:46:49Z</time>
      </trkpt>
      <trkpt lat="10.234320" lon="-67.879075">
        <ele>446.30</ele>
        <time>2022-10-26T12:46:50Z</time>
      </trkpt>
      <trkpt lat="10.234319" lon="-67.879072">
        <ele>446.30</ele>
        <time>2022-10-26T12:46:51Z</time>
      </trkpt>
      <trkpt lat="10.234317" lon="-67.879071">
        <ele>446.30</ele>
        <time>2022-10-26T12:46:52Z</time>
      </trkpt>
      <trkpt lat="10.234315" lon="-67.879068">
        <ele>446.30</ele>
        <time>2022-10-26T12:46:53Z</time>
      </trkpt>
      <trkpt lat="10.234310" lon="-67.879066">
        <ele>446.30</ele>
        <time>2022-10-26T12:46:54Z</time>
      </trkpt>
      <trkpt lat="10.234300" lon="-67.879063">
        <ele>446.30</ele>
        <time>2022-10-26T12:46:55Z</time>
      </trkpt>
      <trkpt lat="10.234292" lon="-67.879061">
        <ele>446.30</ele>
        <time>2022-10-26T12:46:56Z</time>
      </trkpt>
      <trkpt lat="10.234288" lon="-67.879060">
        <ele>446.30</ele>
        <time>2022-10-26T12:46:57Z</time>
      </trkpt>
      <trkpt lat="10.234287" lon="-67.879059">
        <ele>446.30</ele>
        <time>2022-10-26T12:46:58Z</time>
      </trkpt>
      <trkpt lat="10.234287" lon="-67.879060">
        <ele>446.30</ele>
        <time>2022-10-26T12:46:59Z</time>
      </trkpt>
      <trkpt lat="10.234287" lon="-67.879060">
        <ele>446.30</ele>
        <time>2022-10-26T12:47:00Z</time>
      </trkpt>
      <trkpt lat="10.234287" lon="-67.879060">
        <ele>446.30</ele>
        <time>2022-10-26T12:47:01Z</time>
      </trkpt>
      <trkpt lat="10.234288" lon="-67.879060">
        <ele>446.30</ele>
        <time>2022-10-26T12:47:02Z</time>
      </trkpt>
      <trkpt lat="10.234288" lon="-67.879060">
        <ele>446.30</ele>
        <time>2022-10-26T12:47:03Z</time>
      </trkpt>
      <trkpt lat="10.234288" lon="-67.879060">
        <ele>446.30</ele>
        <time>2022-10-26T12:47:04Z</time>
      </trkpt>
      <trkpt lat="10.234288" lon="-67.879060">
        <ele>446.30</ele>
        <time>2022-10-26T12:47:05Z</time>
      </trkpt>
      <trkpt lat="10.234288" lon="-67.879060">
        <ele>446.30</ele>
        <time>2022-10-26T12:47:06Z</time>
      </trkpt>
      <trkpt lat="10.234288" lon="-67.879060">
        <ele>446.30</ele>
        <time>2022-10-26T12:47:07Z</time>
      </trkpt>
      <trkpt lat="10.234285" lon="-67.879058">
        <ele>446.30</ele>
        <time>2022-10-26T12:47:09Z</time>
      </trkpt>
      <trkpt lat="10.234285" lon="-67.879058">
        <ele>446.30</ele>
        <time>2022-10-26T12:47:10Z</time>
      </trkpt>
      <trkpt lat="10.234286" lon="-67.879058">
        <ele>446.30</ele>
        <time>2022-10-26T12:47:11Z</time>
      </trkpt>
      <trkpt lat="10.234287" lon="-67.879059">
        <ele>446.30</ele>
        <time>2022-10-26T12:47:12Z</time>
      </trkpt>
      <trkpt lat="10.234287" lon="-67.879059">
        <ele>446.30</ele>
        <time>2022-10-26T12:47:13Z</time>
      </trkpt>
      <trkpt lat="10.234287" lon="-67.879059">
        <ele>446.30</ele>
        <time>2022-10-26T12:47:14Z</time>
      </trkpt>
      <trkpt lat="10.234287" lon="-67.879059">
        <ele>446.30</ele>
        <time>2022-10-26T12:47:15Z</time>
      </trkpt>
      <trkpt lat="10.234287" lon="-67.879059">
        <ele>446.30</ele>
        <time>2022-10-26T12:47:16Z</time>
      </trkpt>
      <trkpt lat="10.234287" lon="-67.879059">
        <ele>446.30</ele>
        <time>2022-10-26T12:47:17Z</time>
      </trkpt>
      <trkpt lat="10.234287" lon="-67.879059">
        <ele>446.30</ele>
        <time>2022-10-26T12:47:18Z</time>
      </trkpt>
      <trkpt lat="10.234288" lon="-67.879059">
        <ele>446.30</ele>
        <time>2022-10-26T12:47:19Z</time>
      </trkpt>
      <trkpt lat="10.234288" lon="-67.879059">
        <ele>446.30</ele>
        <time>2022-10-26T12:47:20Z</time>
      </trkpt>
      <trkpt lat="10.234288" lon="-67.879059">
        <ele>446.30</ele>
        <time>2022-10-26T12:47:21Z</time>
      </trkpt>
      <trkpt lat="10.234288" lon="-67.879059">
        <ele>446.30</ele>
        <time>2022-10-26T12:47:22Z</time>
      </trkpt>
      <trkpt lat="10.234288" lon="-67.879059">
        <ele>446.30</ele>
        <time>2022-10-26T12:47:23Z</time>
      </trkpt>
      <trkpt lat="10.234288" lon="-67.879059">
        <ele>446.30</ele>
        <time>2022-10-26T12:47:24Z</time>
      </trkpt>
      <trkpt lat="10.234288" lon="-67.879059">
        <ele>446.30</ele>
        <time>2022-10-26T12:47:25Z</time>
      </trkpt>
      <trkpt lat="10.234288" lon="-67.879059">
        <ele>446.30</ele>
        <time>2022-10-26T12:47:26Z</time>
      </trkpt>
      <trkpt lat="10.234288" lon="-67.879059">
        <ele>446.30</ele>
        <time>2022-10-26T12:47:27Z</time>
      </trkpt>
      <trkpt lat="10.234288" lon="-67.879059">
        <ele>446.30</ele>
        <time>2022-10-26T12:47:28Z</time>
      </trkpt>
      <trkpt lat="10.234288" lon="-67.879059">
        <ele>446.30</ele>
        <time>2022-10-26T12:47:29Z</time>
      </trkpt>
      <trkpt lat="10.234288" lon="-67.879059">
        <ele>446.30</ele>
        <time>2022-10-26T12:47:30Z</time>
      </trkpt>
      <trkpt lat="10.234288" lon="-67.879059">
        <ele>446.30</ele>
        <time>2022-10-26T12:47:31Z</time>
      </trkpt>
      <trkpt lat="10.234288" lon="-67.879059">
        <ele>446.30</ele>
        <time>2022-10-26T12:47:32Z</time>
      </trkpt>
      <trkpt lat="10.234289" lon="-67.879059">
        <ele>446.30</ele>
        <time>2022-10-26T12:47:33Z</time>
      </trkpt>
      <trkpt lat="10.234289" lon="-67.879059">
        <ele>446.30</ele>
        <time>2022-10-26T12:47:34Z</time>
      </trkpt>
      <trkpt lat="10.234289" lon="-67.879059">
        <ele>446.30</ele>
        <time>2022-10-26T12:47:35Z</time>
      </trkpt>
      <trkpt lat="10.234289" lon="-67.879059">
        <ele>446.30</ele>
        <time>2022-10-26T12:47:36Z</time>
      </trkpt>
      <trkpt lat="10.234289" lon="-67.879059">
        <ele>446.30</ele>
        <time>2022-10-26T12:47:37Z</time>
      </trkpt>
      <trkpt lat="10.234289" lon="-67.879059">
        <ele>446.30</ele>
        <time>2022-10-26T12:47:38Z</time>
      </trkpt>
      <trkpt lat="10.234289" lon="-67.879059">
        <ele>446.30</ele>
        <time>2022-10-26T12:47:39Z</time>
      </trkpt>
      <trkpt lat="10.234289" lon="-67.879059">
        <ele>446.30</ele>
        <time>2022-10-26T12:47:40Z</time>
      </trkpt>
      <trkpt lat="10.234289" lon="-67.879059">
        <ele>446.30</ele>
        <time>2022-10-26T12:47:41Z</time>
      </trkpt>
      <trkpt lat="10.234289" lon="-67.879059">
        <ele>446.30</ele>
        <time>2022-10-26T12:47:42Z</time>
      </trkpt>
      <trkpt lat="10.234289" lon="-67.879059">
        <ele>446.30</ele>
        <time>2022-10-26T12:47:43Z</time>
      </trkpt>
      <trkpt lat="10.234289" lon="-67.879059">
        <ele>446.30</ele>
        <time>2022-10-26T12:47:44Z</time>
      </trkpt>
      <trkpt lat="10.234289" lon="-67.879059">
        <ele>446.30</ele>
        <time>2022-10-26T12:47:45Z</time>
      </trkpt>
      <trkpt lat="10.234289" lon="-67.879059">
        <ele>446.30</ele>
        <time>2022-10-26T12:47:46Z</time>
      </trkpt>
      <trkpt lat="10.234289" lon="-67.879059">
        <ele>446.30</ele>
        <time>2022-10-26T12:47:47Z</time>
      </trkpt>
      <trkpt lat="10.234289" lon="-67.879059">
        <ele>446.30</ele>
        <time>2022-10-26T12:47:48Z</time>
      </trkpt>
      <trkpt lat="10.234290" lon="-67.879059">
        <ele>446.30</ele>
        <time>2022-10-26T12:47:49Z</time>
      </trkpt>
      <trkpt lat="10.234290" lon="-67.879059">
        <ele>446.30</ele>
        <time>2022-10-26T12:47:50Z</time>
      </trkpt>
      <trkpt lat="10.234290" lon="-67.879059">
        <ele>446.30</ele>
        <time>2022-10-26T12:47:51Z</time>
      </trkpt>
      <trkpt lat="10.234290" lon="-67.879059">
        <ele>446.30</ele>
        <time>2022-10-26T12:47:52Z</time>
      </trkpt>
      <trkpt lat="10.234290" lon="-67.879059">
        <ele>446.30</ele>
        <time>2022-10-26T12:47:53Z</time>
      </trkpt>
      <trkpt lat="10.234290" lon="-67.879059">
        <ele>446.30</ele>
        <time>2022-10-26T12:47:54Z</time>
      </trkpt>
      <trkpt lat="10.234290" lon="-67.879059">
        <ele>446.30</ele>
        <time>2022-10-26T12:47:55Z</time>
      </trkpt>
      <trkpt lat="10.234290" lon="-67.879059">
        <ele>446.30</ele>
        <time>2022-10-26T12:47:56Z</time>
      </trkpt>
      <trkpt lat="10.234290" lon="-67.879059">
        <ele>446.30</ele>
        <time>2022-10-26T12:47:57Z</time>
      </trkpt>
      <trkpt lat="10.234290" lon="-67.879059">
        <ele>446.30</ele>
        <time>2022-10-26T12:47:58Z</time>
      </trkpt>
      <trkpt lat="10.234290" lon="-67.879059">
        <ele>446.30</ele>
        <time>2022-10-26T12:47:59Z</time>
      </trkpt>
      <trkpt lat="10.234290" lon="-67.879059">
        <ele>446.30</ele>
        <time>2022-10-26T12:48:00Z</time>
      </trkpt>
      <trkpt lat="10.234290" lon="-67.879059">
        <ele>446.30</ele>
        <time>2022-10-26T12:48:01Z</time>
      </trkpt>
      <trkpt lat="10.234290" lon="-67.879059">
        <ele>446.30</ele>
        <time>2022-10-26T12:48:02Z</time>
      </trkpt>
      <trkpt lat="10.234290" lon="-67.879059">
        <ele>446.30</ele>
        <time>2022-10-26T12:48:03Z</time>
      </trkpt>
      <trkpt lat="10.234290" lon="-67.879059">
        <ele>446.30</ele>
        <time>2022-10-26T12:48:04Z</time>
      </trkpt>
      <trkpt lat="10.234290" lon="-67.879059">
        <ele>446.30</ele>
        <time>2022-10-26T12:48:05Z</time>
      </trkpt>
      <trkpt lat="10.234290" lon="-67.879059">
        <ele>446.30</ele>
        <time>2022-10-26T12:48:06Z</time>
      </trkpt>
      <trkpt lat="10.234290" lon="-67.879059">
        <ele>446.30</ele>
        <time>2022-10-26T12:48:07Z</time>
      </trkpt>
      <trkpt lat="10.234290" lon="-67.879059">
        <ele>446.30</ele>
        <time>2022-10-26T12:48:08Z</time>
      </trkpt>
      <trkpt lat="10.234290" lon="-67.879059">
        <ele>446.30</ele>
        <time>2022-10-26T12:48:09Z</time>
      </trkpt>
      <trkpt lat="10.234290" lon="-67.879059">
        <ele>446.30</ele>
        <time>2022-10-26T12:48:10Z</time>
      </trkpt>
      <trkpt lat="10.234291" lon="-67.879059">
        <ele>446.30</ele>
        <time>2022-10-26T12:48:11Z</time>
      </trkpt>
      <trkpt lat="10.234291" lon="-67.879059">
        <ele>446.30</ele>
        <time>2022-10-26T12:48:12Z</time>
      </trkpt>
      <trkpt lat="10.234291" lon="-67.879059">
        <ele>446.30</ele>
        <time>2022-10-26T12:48:13Z</time>
      </trkpt>
      <trkpt lat="10.234291" lon="-67.879059">
        <ele>446.30</ele>
        <time>2022-10-26T12:48:14Z</time>
      </trkpt>
      <trkpt lat="10.234291" lon="-67.879059">
        <ele>446.30</ele>
        <time>2022-10-26T12:48:15Z</time>
      </trkpt>
      <trkpt lat="10.234291" lon="-67.879059">
        <ele>446.30</ele>
        <time>2022-10-26T12:48:16Z</time>
      </trkpt>
      <trkpt lat="10.234291" lon="-67.879059">
        <ele>446.30</ele>
        <time>2022-10-26T12:48:17Z</time>
      </trkpt>
      <trkpt lat="10.234291" lon="-67.879059">
        <ele>446.30</ele>
        <time>2022-10-26T12:48:18Z</time>
      </trkpt>
      <trkpt lat="10.234291" lon="-67.879059">
        <ele>446.30</ele>
        <time>2022-10-26T12:48:19Z</time>
      </trkpt>
      <trkpt lat="10.234291" lon="-67.879059">
        <ele>446.30</ele>
        <time>2022-10-26T12:48:20Z</time>
      </trkpt>
      <trkpt lat="10.234291" lon="-67.879059">
        <ele>446.30</ele>
        <time>2022-10-26T12:48:21Z</time>
      </trkpt>
      <trkpt lat="10.234291" lon="-67.879059">
        <ele>446.30</ele>
        <time>2022-10-26T12:48:22Z</time>
      </trkpt>
      <trkpt lat="10.234291" lon="-67.879059">
        <ele>446.30</ele>
        <time>2022-10-26T12:48:23Z</time>
      </trkpt>
      <trkpt lat="10.234291" lon="-67.879059">
        <ele>446.30</ele>
        <time>2022-10-26T12:48:24Z</time>
      </trkpt>
      <trkpt lat="10.234291" lon="-67.879059">
        <ele>446.30</ele>
        <time>2022-10-26T12:48:25Z</time>
      </trkpt>
      <trkpt lat="10.234291" lon="-67.879059">
        <ele>446.30</ele>
        <time>2022-10-26T12:48:26Z</time>
      </trkpt>
      <trkpt lat="10.234291" lon="-67.879059">
        <ele>446.30</ele>
        <time>2022-10-26T12:48:27Z</time>
      </trkpt>
      <trkpt lat="10.234291" lon="-67.879059">
        <ele>446.30</ele>
        <time>2022-10-26T12:48:28Z</time>
      </trkpt>
      <trkpt lat="10.234291" lon="-67.879059">
        <ele>446.30</ele>
        <time>2022-10-26T12:48:29Z</time>
      </trkpt>
      <trkpt lat="10.234291" lon="-67.879059">
        <ele>446.30</ele>
        <time>2022-10-26T12:48:30Z</time>
      </trkpt>
      <trkpt lat="10.234291" lon="-67.879059">
        <ele>446.30</ele>
        <time>2022-10-26T12:48:31Z</time>
      </trkpt>
      <trkpt lat="10.234291" lon="-67.879059">
        <ele>446.30</ele>
        <time>2022-10-26T12:48:32Z</time>
      </trkpt>
      <trkpt lat="10.234292" lon="-67.879059">
        <ele>446.30</ele>
        <time>2022-10-26T12:48:33Z</time>
      </trkpt>
      <trkpt lat="10.234292" lon="-67.879059">
        <ele>446.30</ele>
        <time>2022-10-26T12:48:34Z</time>
      </trkpt>
      <trkpt lat="10.234292" lon="-67.879059">
        <ele>446.30</ele>
        <time>2022-10-26T12:48:35Z</time>
      </trkpt>
      <trkpt lat="10.234292" lon="-67.879059">
        <ele>446.30</ele>
        <time>2022-10-26T12:48:36Z</time>
      </trkpt>
      <trkpt lat="10.234292" lon="-67.879059">
        <ele>446.30</ele>
        <time>2022-10-26T12:48:37Z</time>
      </trkpt>
      <trkpt lat="10.234292" lon="-67.879059">
        <ele>446.30</ele>
        <time>2022-10-26T12:48:38Z</time>
      </trkpt>
      <trkpt lat="10.234292" lon="-67.879059">
        <ele>446.30</ele>
        <time>2022-10-26T12:48:39Z</time>
      </trkpt>
      <trkpt lat="10.234292" lon="-67.879059">
        <ele>446.30</ele>
        <time>2022-10-26T12:48:40Z</time>
      </trkpt>
      <trkpt lat="10.234292" lon="-67.879059">
        <ele>446.30</ele>
        <time>2022-10-26T12:48:41Z</time>
      </trkpt>
      <trkpt lat="10.234292" lon="-67.879059">
        <ele>446.30</ele>
        <time>2022-10-26T12:48:42Z</time>
      </trkpt>
      <trkpt lat="10.234292" lon="-67.879059">
        <ele>446.30</ele>
        <time>2022-10-26T12:48:43Z</time>
      </trkpt>
      <trkpt lat="10.234292" lon="-67.879059">
        <ele>446.30</ele>
        <time>2022-10-26T12:48:44Z</time>
      </trkpt>
      <trkpt lat="10.234292" lon="-67.879059">
        <ele>446.30</ele>
        <time>2022-10-26T12:48:45Z</time>
      </trkpt>
      <trkpt lat="10.234292" lon="-67.879059">
        <ele>446.30</ele>
        <time>2022-10-26T12:48:46Z</time>
      </trkpt>
      <trkpt lat="10.234292" lon="-67.879059">
        <ele>446.30</ele>
        <time>2022-10-26T12:48:47Z</time>
      </trkpt>
      <trkpt lat="10.234292" lon="-67.879059">
        <ele>446.30</ele>
        <time>2022-10-26T12:48:48Z</time>
      </trkpt>
      <trkpt lat="10.234292" lon="-67.879059">
        <ele>446.30</ele>
        <time>2022-10-26T12:48:49Z</time>
      </trkpt>
      <trkpt lat="10.234293" lon="-67.879057">
        <ele>446.30</ele>
        <time>2022-10-26T12:48:50Z</time>
      </trkpt>
      <trkpt lat="10.234293" lon="-67.879056">
        <ele>446.30</ele>
        <time>2022-10-26T12:48:51Z</time>
      </trkpt>
      <trkpt lat="10.234293" lon="-67.879055">
        <ele>446.30</ele>
        <time>2022-10-26T12:48:52Z</time>
      </trkpt>
      <trkpt lat="10.234293" lon="-67.879055">
        <ele>446.30</ele>
        <time>2022-10-26T12:48:53Z</time>
      </trkpt>
      <trkpt lat="10.234294" lon="-67.879055">
        <ele>446.30</ele>
        <time>2022-10-26T12:48:54Z</time>
      </trkpt>
      <trkpt lat="10.234294" lon="-67.879055">
        <ele>446.30</ele>
        <time>2022-10-26T12:48:55Z</time>
      </trkpt>
      <trkpt lat="10.234294" lon="-67.879055">
        <ele>446.30</ele>
        <time>2022-10-26T12:48:56Z</time>
      </trkpt>
      <trkpt lat="10.234294" lon="-67.879055">
        <ele>446.30</ele>
        <time>2022-10-26T12:48:57Z</time>
      </trkpt>
      <trkpt lat="10.234294" lon="-67.879055">
        <ele>446.30</ele>
        <time>2022-10-26T12:48:58Z</time>
      </trkpt>
      <trkpt lat="10.234294" lon="-67.879055">
        <ele>446.30</ele>
        <time>2022-10-26T12:48:59Z</time>
      </trkpt>
      <trkpt lat="10.234294" lon="-67.879055">
        <ele>446.30</ele>
        <time>2022-10-26T12:49:00Z</time>
      </trkpt>
      <trkpt lat="10.234294" lon="-67.879055">
        <ele>446.30</ele>
        <time>2022-10-26T12:49:01Z</time>
      </trkpt>
      <trkpt lat="10.234294" lon="-67.879055">
        <ele>446.30</ele>
        <time>2022-10-26T12:49:02Z</time>
      </trkpt>
      <trkpt lat="10.234294" lon="-67.879055">
        <ele>446.30</ele>
        <time>2022-10-26T12:49:03Z</time>
      </trkpt>
      <trkpt lat="10.234294" lon="-67.879055">
        <ele>446.30</ele>
        <time>2022-10-26T12:49:04Z</time>
      </trkpt>
      <trkpt lat="10.234294" lon="-67.879055">
        <ele>446.30</ele>
        <time>2022-10-26T12:49:05Z</time>
      </trkpt>
      <trkpt lat="10.234294" lon="-67.879055">
        <ele>446.30</ele>
        <time>2022-10-26T12:49:06Z</time>
      </trkpt>
      <trkpt lat="10.234294" lon="-67.879055">
        <ele>446.30</ele>
        <time>2022-10-26T12:49:07Z</time>
      </trkpt>
      <trkpt lat="10.234294" lon="-67.879055">
        <ele>446.30</ele>
        <time>2022-10-26T12:49:08Z</time>
      </trkpt>
      <trkpt lat="10.234294" lon="-67.879055">
        <ele>446.30</ele>
        <time>2022-10-26T12:49:09Z</time>
      </trkpt>
      <trkpt lat="10.234294" lon="-67.879055">
        <ele>446.30</ele>
        <time>2022-10-26T12:49:10Z</time>
      </trkpt>
      <trkpt lat="10.234294" lon="-67.879055">
        <ele>446.30</ele>
        <time>2022-10-26T12:49:11Z</time>
      </trkpt>
      <trkpt lat="10.234294" lon="-67.879055">
        <ele>446.30</ele>
        <time>2022-10-26T12:49:12Z</time>
      </trkpt>
      <trkpt lat="10.234294" lon="-67.879055">
        <ele>446.30</ele>
        <time>2022-10-26T12:49:13Z</time>
      </trkpt>
      <trkpt lat="10.234294" lon="-67.879055">
        <ele>446.30</ele>
        <time>2022-10-26T12:49:14Z</time>
      </trkpt>
      <trkpt lat="10.234294" lon="-67.879055">
        <ele>446.30</ele>
        <time>2022-10-26T12:49:15Z</time>
      </trkpt>
      <trkpt lat="10.234294" lon="-67.879055">
        <ele>446.30</ele>
        <time>2022-10-26T12:49:16Z</time>
      </trkpt>
      <trkpt lat="10.234294" lon="-67.879055">
        <ele>446.30</ele>
        <time>2022-10-26T12:49:17Z</time>
      </trkpt>
      <trkpt lat="10.234294" lon="-67.879055">
        <ele>446.30</ele>
        <time>2022-10-26T12:49:18Z</time>
      </trkpt>
      <trkpt lat="10.234294" lon="-67.879055">
        <ele>446.30</ele>
        <time>2022-10-26T12:49:19Z</time>
      </trkpt>
      <trkpt lat="10.234295" lon="-67.879056">
        <ele>446.30</ele>
        <time>2022-10-26T12:49:20Z</time>
      </trkpt>
      <trkpt lat="10.234303" lon="-67.879059">
        <ele>446.30</ele>
        <time>2022-10-26T12:49:21Z</time>
      </trkpt>
      <trkpt lat="10.234309" lon="-67.879061">
        <ele>446.30</ele>
        <time>2022-10-26T12:49:22Z</time>
      </trkpt>
      <trkpt lat="10.234313" lon="-67.879062">
        <ele>446.30</ele>
        <time>2022-10-26T12:49:23Z</time>
      </trkpt>
      <trkpt lat="10.234314" lon="-67.879062">
        <ele>446.30</ele>
        <time>2022-10-26T12:49:24Z</time>
      </trkpt>
      <trkpt lat="10.234315" lon="-67.879062">
        <ele>446.30</ele>
        <time>2022-10-26T12:49:25Z</time>
      </trkpt>
      <trkpt lat="10.234315" lon="-67.879062">
        <ele>446.30</ele>
        <time>2022-10-26T12:49:26Z</time>
      </trkpt>
      <trkpt lat="10.234315" lon="-67.879062">
        <ele>446.30</ele>
        <time>2022-10-26T12:49:27Z</time>
      </trkpt>
      <trkpt lat="10.234315" lon="-67.879062">
        <ele>446.30</ele>
        <time>2022-10-26T12:49:28Z</time>
      </trkpt>
      <trkpt lat="10.234315" lon="-67.879062">
        <ele>446.30</ele>
        <time>2022-10-26T12:49:29Z</time>
      </trkpt>
      <trkpt lat="10.234315" lon="-67.879062">
        <ele>446.30</ele>
        <time>2022-10-26T12:49:30Z</time>
      </trkpt>
      <trkpt lat="10.234315" lon="-67.879062">
        <ele>446.30</ele>
        <time>2022-10-26T12:49:31Z</time>
      </trkpt>
      <trkpt lat="10.234315" lon="-67.879062">
        <ele>446.30</ele>
        <time>2022-10-26T12:49:32Z</time>
      </trkpt>
      <trkpt lat="10.234315" lon="-67.879062">
        <ele>446.30</ele>
        <time>2022-10-26T12:49:33Z</time>
      </trkpt>
      <trkpt lat="10.234315" lon="-67.879062">
        <ele>446.30</ele>
        <time>2022-10-26T12:49:34Z</time>
      </trkpt>
      <trkpt lat="10.234315" lon="-67.879062">
        <ele>446.30</ele>
        <time>2022-10-26T12:49:35Z</time>
      </trkpt>
      <trkpt lat="10.234315" lon="-67.879062">
        <ele>446.30</ele>
        <time>2022-10-26T12:49:36Z</time>
      </trkpt>
      <trkpt lat="10.234315" lon="-67.879062">
        <ele>446.30</ele>
        <time>2022-10-26T12:49:37Z</time>
      </trkpt>
      <trkpt lat="10.234315" lon="-67.879062">
        <ele>446.30</ele>
        <time>2022-10-26T12:49:38Z</time>
      </trkpt>
      <trkpt lat="10.234315" lon="-67.879062">
        <ele>446.30</ele>
        <time>2022-10-26T12:49:39Z</time>
      </trkpt>
      <trkpt lat="10.234315" lon="-67.879062">
        <ele>446.30</ele>
        <time>2022-10-26T12:49:40Z</time>
      </trkpt>
      <trkpt lat="10.234315" lon="-67.879062">
        <ele>446.30</ele>
        <time>2022-10-26T12:49:41Z</time>
      </trkpt>
      <trkpt lat="10.234315" lon="-67.879062">
        <ele>446.30</ele>
        <time>2022-10-26T12:49:42Z</time>
      </trkpt>
      <trkpt lat="10.234315" lon="-67.879062">
        <ele>446.30</ele>
        <time>2022-10-26T12:49:43Z</time>
      </trkpt>
      <trkpt lat="10.234313" lon="-67.879061">
        <ele>446.30</ele>
        <time>2022-10-26T12:49:44Z</time>
      </trkpt>
      <trkpt lat="10.234311" lon="-67.879060">
        <ele>446.30</ele>
        <time>2022-10-26T12:49:45Z</time>
      </trkpt>
      <trkpt lat="10.234309" lon="-67.879060">
        <ele>446.30</ele>
        <time>2022-10-26T12:49:46Z</time>
      </trkpt>
      <trkpt lat="10.234308" lon="-67.879060">
        <ele>446.30</ele>
        <time>2022-10-26T12:49:47Z</time>
      </trkpt>
      <trkpt lat="10.234307" lon="-67.879060">
        <ele>446.30</ele>
        <time>2022-10-26T12:49:48Z</time>
      </trkpt>
      <trkpt lat="10.234307" lon="-67.879060">
        <ele>446.30</ele>
        <time>2022-10-26T12:49:49Z</time>
      </trkpt>
      <trkpt lat="10.234307" lon="-67.879060">
        <ele>446.30</ele>
        <time>2022-10-26T12:49:50Z</time>
      </trkpt>
      <trkpt lat="10.234307" lon="-67.879060">
        <ele>446.30</ele>
        <time>2022-10-26T12:49:51Z</time>
      </trkpt>
      <trkpt lat="10.234307" lon="-67.879060">
        <ele>446.30</ele>
        <time>2022-10-26T12:49:52Z</time>
      </trkpt>
      <trkpt lat="10.234307" lon="-67.879060">
        <ele>446.30</ele>
        <time>2022-10-26T12:49:53Z</time>
      </trkpt>
      <trkpt lat="10.234307" lon="-67.879060">
        <ele>446.30</ele>
        <time>2022-10-26T12:49:54Z</time>
      </trkpt>
      <trkpt lat="10.234307" lon="-67.879060">
        <ele>446.30</ele>
        <time>2022-10-26T12:49:55Z</time>
      </trkpt>
      <trkpt lat="10.234307" lon="-67.879060">
        <ele>446.30</ele>
        <time>2022-10-26T12:49:56Z</time>
      </trkpt>
      <trkpt lat="10.234307" lon="-67.879060">
        <ele>446.30</ele>
        <time>2022-10-26T12:49:57Z</time>
      </trkpt>
      <trkpt lat="10.234307" lon="-67.879060">
        <ele>446.30</ele>
        <time>2022-10-26T12:49:58Z</time>
      </trkpt>
      <trkpt lat="10.234307" lon="-67.879060">
        <ele>446.30</ele>
        <time>2022-10-26T12:49:59Z</time>
      </trkpt>
      <trkpt lat="10.234307" lon="-67.879060">
        <ele>446.30</ele>
        <time>2022-10-26T12:50:00Z</time>
      </trkpt>
      <trkpt lat="10.234307" lon="-67.879060">
        <ele>446.30</ele>
        <time>2022-10-26T12:50:01Z</time>
      </trkpt>
      <trkpt lat="10.234308" lon="-67.879059">
        <ele>446.30</ele>
        <time>2022-10-26T12:50:02Z</time>
      </trkpt>
      <trkpt lat="10.234308" lon="-67.879062">
        <ele>446.30</ele>
        <time>2022-10-26T12:50:03Z</time>
      </trkpt>
      <trkpt lat="10.234308" lon="-67.879066">
        <ele>446.30</ele>
        <time>2022-10-26T12:50:04Z</time>
      </trkpt>
      <trkpt lat="10.234305" lon="-67.879069">
        <ele>446.30</ele>
        <time>2022-10-26T12:50:05Z</time>
      </trkpt>
      <trkpt lat="10.234306" lon="-67.879070">
        <ele>446.30</ele>
        <time>2022-10-26T12:50:06Z</time>
      </trkpt>
      <trkpt lat="10.234308" lon="-67.879070">
        <ele>446.30</ele>
        <time>2022-10-26T12:50:07Z</time>
      </trkpt>
      <trkpt lat="10.234311" lon="-67.879070">
        <ele>446.30</ele>
        <time>2022-10-26T12:50:08Z</time>
      </trkpt>
      <trkpt lat="10.234313" lon="-67.879070">
        <ele>446.30</ele>
        <time>2022-10-26T12:50:09Z</time>
      </trkpt>
      <trkpt lat="10.234313" lon="-67.879070">
        <ele>446.30</ele>
        <time>2022-10-26T12:50:10Z</time>
      </trkpt>
      <trkpt lat="10.234313" lon="-67.879070">
        <ele>446.30</ele>
        <time>2022-10-26T12:50:11Z</time>
      </trkpt>
      <trkpt lat="10.234313" lon="-67.879070">
        <ele>446.30</ele>
        <time>2022-10-26T12:50:12Z</time>
      </trkpt>
      <trkpt lat="10.234313" lon="-67.879070">
        <ele>446.30</ele>
        <time>2022-10-26T12:50:13Z</time>
      </trkpt>
      <trkpt lat="10.234313" lon="-67.879070">
        <ele>446.30</ele>
        <time>2022-10-26T12:50:14Z</time>
      </trkpt>
      <trkpt lat="10.234311" lon="-67.879071">
        <ele>446.30</ele>
        <time>2022-10-26T12:50:15Z</time>
      </trkpt>
      <trkpt lat="10.234310" lon="-67.879071">
        <ele>446.30</ele>
        <time>2022-10-26T12:50:16Z</time>
      </trkpt>
      <trkpt lat="10.234308" lon="-67.879068">
        <ele>446.30</ele>
        <time>2022-10-26T12:50:17Z</time>
      </trkpt>
      <trkpt lat="10.234309" lon="-67.879070">
        <ele>446.30</ele>
        <time>2022-10-26T12:50:18Z</time>
      </trkpt>
      <trkpt lat="10.234310" lon="-67.879069">
        <ele>446.30</ele>
        <time>2022-10-26T12:50:19Z</time>
      </trkpt>
      <trkpt lat="10.234309" lon="-67.879069">
        <ele>446.30</ele>
        <time>2022-10-26T12:50:20Z</time>
      </trkpt>
      <trkpt lat="10.234307" lon="-67.879072">
        <ele>446.30</ele>
        <time>2022-10-26T12:50:21Z</time>
      </trkpt>
      <trkpt lat="10.234308" lon="-67.879076">
        <ele>446.30</ele>
        <time>2022-10-26T12:50:22Z</time>
      </trkpt>
      <trkpt lat="10.234311" lon="-67.879077">
        <ele>446.30</ele>
        <time>2022-10-26T12:50:23Z</time>
      </trkpt>
      <trkpt lat="10.234311" lon="-67.879077">
        <ele>446.30</ele>
        <time>2022-10-26T12:50:24Z</time>
      </trkpt>
      <trkpt lat="10.234313" lon="-67.879078">
        <ele>446.30</ele>
        <time>2022-10-26T12:50:25Z</time>
      </trkpt>
      <trkpt lat="10.234315" lon="-67.879079">
        <ele>446.30</ele>
        <time>2022-10-26T12:50:26Z</time>
      </trkpt>
      <trkpt lat="10.234316" lon="-67.879080">
        <ele>446.30</ele>
        <time>2022-10-26T12:50:27Z</time>
      </trkpt>
      <trkpt lat="10.234317" lon="-67.879081">
        <ele>446.30</ele>
        <time>2022-10-26T12:50:28Z</time>
      </trkpt>
      <trkpt lat="10.234318" lon="-67.879081">
        <ele>446.30</ele>
        <time>2022-10-26T12:50:29Z</time>
      </trkpt>
      <trkpt lat="10.234319" lon="-67.879082">
        <ele>446.30</ele>
        <time>2022-10-26T12:50:30Z</time>
      </trkpt>
      <trkpt lat="10.234320" lon="-67.879082">
        <ele>446.30</ele>
        <time>2022-10-26T12:50:31Z</time>
      </trkpt>
      <trkpt lat="10.234320" lon="-67.879083">
        <ele>446.30</ele>
        <time>2022-10-26T12:50:32Z</time>
      </trkpt>
      <trkpt lat="10.234321" lon="-67.879083">
        <ele>446.30</ele>
        <time>2022-10-26T12:50:33Z</time>
      </trkpt>
      <trkpt lat="10.234322" lon="-67.879084">
        <ele>446.30</ele>
        <time>2022-10-26T12:50:34Z</time>
      </trkpt>
      <trkpt lat="10.234322" lon="-67.879085">
        <ele>446.30</ele>
        <time>2022-10-26T12:50:35Z</time>
      </trkpt>
      <trkpt lat="10.234323" lon="-67.879086">
        <ele>446.30</ele>
        <time>2022-10-26T12:50:36Z</time>
      </trkpt>
      <trkpt lat="10.234323" lon="-67.879086">
        <ele>446.30</ele>
        <time>2022-10-26T12:50:37Z</time>
      </trkpt>
      <trkpt lat="10.234324" lon="-67.879087">
        <ele>446.30</ele>
        <time>2022-10-26T12:50:38Z</time>
      </trkpt>
      <trkpt lat="10.234325" lon="-67.879087">
        <ele>446.30</ele>
        <time>2022-10-26T12:50:39Z</time>
      </trkpt>
      <trkpt lat="10.234326" lon="-67.879087">
        <ele>446.30</ele>
        <time>2022-10-26T12:50:40Z</time>
      </trkpt>
      <trkpt lat="10.234326" lon="-67.879090">
        <ele>446.30</ele>
        <time>2022-10-26T12:50:41Z</time>
      </trkpt>
      <trkpt lat="10.234330" lon="-67.879094">
        <ele>446.30</ele>
        <time>2022-10-26T12:50:42Z</time>
      </trkpt>
      <trkpt lat="10.234331" lon="-67.879097">
        <ele>446.30</ele>
        <time>2022-10-26T12:50:43Z</time>
      </trkpt>
      <trkpt lat="10.234334" lon="-67.879101">
        <ele>446.30</ele>
        <time>2022-10-26T12:50:44Z</time>
      </trkpt>
      <trkpt lat="10.234338" lon="-67.879105">
        <ele>446.30</ele>
        <time>2022-10-26T12:50:45Z</time>
      </trkpt>
      <trkpt lat="10.234341" lon="-67.879108">
        <ele>446.30</ele>
        <time>2022-10-26T12:50:46Z</time>
      </trkpt>
      <trkpt lat="10.234344" lon="-67.879110">
        <ele>446.30</ele>
        <time>2022-10-26T12:50:47Z</time>
      </trkpt>
      <trkpt lat="10.234347" lon="-67.879112">
        <ele>446.30</ele>
        <time>2022-10-26T12:50:48Z</time>
      </trkpt>
      <trkpt lat="10.234348" lon="-67.879113">
        <ele>446.30</ele>
        <time>2022-10-26T12:50:49Z</time>
      </trkpt>
      <trkpt lat="10.234348" lon="-67.879114">
        <ele>446.30</ele>
        <time>2022-10-26T12:50:50Z</time>
      </trkpt>
      <trkpt lat="10.234347" lon="-67.879115">
        <ele>446.30</ele>
        <time>2022-10-26T12:50:51Z</time>
      </trkpt>
      <trkpt lat="10.234345" lon="-67.879115">
        <ele>446.30</ele>
        <time>2022-10-26T12:50:52Z</time>
      </trkpt>
      <trkpt lat="10.234344" lon="-67.879115">
        <ele>446.30</ele>
        <time>2022-10-26T12:50:53Z</time>
      </trkpt>
      <trkpt lat="10.234343" lon="-67.879115">
        <ele>446.30</ele>
        <time>2022-10-26T12:50:54Z</time>
      </trkpt>
      <trkpt lat="10.234342" lon="-67.879115">
        <ele>446.30</ele>
        <time>2022-10-26T12:50:55Z</time>
      </trkpt>
      <trkpt lat="10.234342" lon="-67.879115">
        <ele>446.30</ele>
        <time>2022-10-26T12:50:56Z</time>
      </trkpt>
      <trkpt lat="10.234342" lon="-67.879115">
        <ele>446.30</ele>
        <time>2022-10-26T12:50:57Z</time>
      </trkpt>
      <trkpt lat="10.234343" lon="-67.879114">
        <ele>446.30</ele>
        <time>2022-10-26T12:50:58Z</time>
      </trkpt>
      <trkpt lat="10.234345" lon="-67.879113">
        <ele>446.30</ele>
        <time>2022-10-26T12:50:59Z</time>
      </trkpt>
      <trkpt lat="10.234347" lon="-67.879112">
        <ele>446.30</ele>
        <time>2022-10-26T12:51:00Z</time>
      </trkpt>
      <trkpt lat="10.234348" lon="-67.879112">
        <ele>446.30</ele>
        <time>2022-10-26T12:51:01Z</time>
      </trkpt>
      <trkpt lat="10.234349" lon="-67.879111">
        <ele>446.30</ele>
        <time>2022-10-26T12:51:02Z</time>
      </trkpt>
      <trkpt lat="10.234348" lon="-67.879110">
        <ele>446.30</ele>
        <time>2022-10-26T12:51:03Z</time>
      </trkpt>
      <trkpt lat="10.234347" lon="-67.879109">
        <ele>446.30</ele>
        <time>2022-10-26T12:51:04Z</time>
      </trkpt>
      <trkpt lat="10.234346" lon="-67.879108">
        <ele>446.30</ele>
        <time>2022-10-26T12:51:05Z</time>
      </trkpt>
      <trkpt lat="10.234344" lon="-67.879108">
        <ele>446.30</ele>
        <time>2022-10-26T12:51:06Z</time>
      </trkpt>
      <trkpt lat="10.234342" lon="-67.879108">
        <ele>446.30</ele>
        <time>2022-10-26T12:51:07Z</time>
      </trkpt>
      <trkpt lat="10.234342" lon="-67.879107">
        <ele>446.30</ele>
        <time>2022-10-26T12:51:08Z</time>
      </trkpt>
      <trkpt lat="10.234343" lon="-67.879107">
        <ele>446.30</ele>
        <time>2022-10-26T12:51:09Z</time>
      </trkpt>
      <trkpt lat="10.234344" lon="-67.879106">
        <ele>446.30</ele>
        <time>2022-10-26T12:51:10Z</time>
      </trkpt>
      <trkpt lat="10.234344" lon="-67.879106">
        <ele>446.30</ele>
        <time>2022-10-26T12:51:11Z</time>
      </trkpt>
      <trkpt lat="10.234344" lon="-67.879106">
        <ele>446.30</ele>
        <time>2022-10-26T12:51:12Z</time>
      </trkpt>
      <trkpt lat="10.234344" lon="-67.879106">
        <ele>446.30</ele>
        <time>2022-10-26T12:51:13Z</time>
      </trkpt>
      <trkpt lat="10.234344" lon="-67.879106">
        <ele>446.30</ele>
        <time>2022-10-26T12:51:14Z</time>
      </trkpt>
      <trkpt lat="10.234344" lon="-67.879106">
        <ele>446.30</ele>
        <time>2022-10-26T12:51:15Z</time>
      </trkpt>
      <trkpt lat="10.234344" lon="-67.879106">
        <ele>446.30</ele>
        <time>2022-10-26T12:51:16Z</time>
      </trkpt>
      <trkpt lat="10.234344" lon="-67.879106">
        <ele>446.30</ele>
        <time>2022-10-26T12:51:17Z</time>
      </trkpt>
      <trkpt lat="10.234344" lon="-67.879106">
        <ele>446.30</ele>
        <time>2022-10-26T12:51:18Z</time>
      </trkpt>
      <trkpt lat="10.234344" lon="-67.879106">
        <ele>446.30</ele>
        <time>2022-10-26T12:51:19Z</time>
      </trkpt>
      <trkpt lat="10.234344" lon="-67.879106">
        <ele>446.30</ele>
        <time>2022-10-26T12:51:20Z</time>
      </trkpt>
      <trkpt lat="10.234344" lon="-67.879106">
        <ele>446.30</ele>
        <time>2022-10-26T12:51:21Z</time>
      </trkpt>
      <trkpt lat="10.234344" lon="-67.879106">
        <ele>446.30</ele>
        <time>2022-10-26T12:51:22Z</time>
      </trkpt>
      <trkpt lat="10.234344" lon="-67.879106">
        <ele>446.30</ele>
        <time>2022-10-26T12:51:23Z</time>
      </trkpt>
      <trkpt lat="10.234344" lon="-67.879106">
        <ele>446.30</ele>
        <time>2022-10-26T12:51:24Z</time>
      </trkpt>
      <trkpt lat="10.234344" lon="-67.879106">
        <ele>446.30</ele>
        <time>2022-10-26T12:51:25Z</time>
      </trkpt>
      <trkpt lat="10.234344" lon="-67.879106">
        <ele>446.30</ele>
        <time>2022-10-26T12:51:26Z</time>
      </trkpt>
      <trkpt lat="10.234344" lon="-67.879106">
        <ele>446.30</ele>
        <time>2022-10-26T12:51:27Z</time>
      </trkpt>
      <trkpt lat="10.234344" lon="-67.879106">
        <ele>446.30</ele>
        <time>2022-10-26T12:51:28Z</time>
      </trkpt>
      <trkpt lat="10.234344" lon="-67.879106">
        <ele>446.30</ele>
        <time>2022-10-26T12:51:29Z</time>
      </trkpt>
      <trkpt lat="10.234344" lon="-67.879106">
        <ele>446.30</ele>
        <time>2022-10-26T12:51:30Z</time>
      </trkpt>
      <trkpt lat="10.234344" lon="-67.879106">
        <ele>446.30</ele>
        <time>2022-10-26T12:51:31Z</time>
      </trkpt>
      <trkpt lat="10.234344" lon="-67.879106">
        <ele>446.30</ele>
        <time>2022-10-26T12:51:32Z</time>
      </trkpt>
      <trkpt lat="10.234344" lon="-67.879106">
        <ele>446.30</ele>
        <time>2022-10-26T12:51:33Z</time>
      </trkpt>
      <trkpt lat="10.234344" lon="-67.879106">
        <ele>446.30</ele>
        <time>2022-10-26T12:51:34Z</time>
      </trkpt>
      <trkpt lat="10.234344" lon="-67.879106">
        <ele>446.30</ele>
        <time>2022-10-26T12:51:35Z</time>
      </trkpt>
      <trkpt lat="10.234344" lon="-67.879105">
        <ele>446.30</ele>
        <time>2022-10-26T12:51:36Z</time>
      </trkpt>
      <trkpt lat="10.234345" lon="-67.879105">
        <ele>446.30</ele>
        <time>2022-10-26T12:51:37Z</time>
      </trkpt>
      <trkpt lat="10.234345" lon="-67.879105">
        <ele>446.30</ele>
        <time>2022-10-26T12:51:38Z</time>
      </trkpt>
      <trkpt lat="10.234346" lon="-67.879104">
        <ele>446.30</ele>
        <time>2022-10-26T12:51:39Z</time>
      </trkpt>
      <trkpt lat="10.234346" lon="-67.879104">
        <ele>446.30</ele>
        <time>2022-10-26T12:51:40Z</time>
      </trkpt>
      <trkpt lat="10.234346" lon="-67.879104">
        <ele>446.30</ele>
        <time>2022-10-26T12:51:41Z</time>
      </trkpt>
      <trkpt lat="10.234346" lon="-67.879103">
        <ele>446.30</ele>
        <time>2022-10-26T12:51:42Z</time>
      </trkpt>
      <trkpt lat="10.234345" lon="-67.879101">
        <ele>446.30</ele>
        <time>2022-10-26T12:51:43Z</time>
      </trkpt>
      <trkpt lat="10.234344" lon="-67.879099">
        <ele>446.30</ele>
        <time>2022-10-26T12:51:44Z</time>
      </trkpt>
      <trkpt lat="10.234343" lon="-67.879097">
        <ele>446.30</ele>
        <time>2022-10-26T12:51:45Z</time>
      </trkpt>
      <trkpt lat="10.234342" lon="-67.879093">
        <ele>446.30</ele>
        <time>2022-10-26T12:51:46Z</time>
      </trkpt>
      <trkpt lat="10.234341" lon="-67.879090">
        <ele>446.30</ele>
        <time>2022-10-26T12:51:47Z</time>
      </trkpt>
      <trkpt lat="10.234340" lon="-67.879088">
        <ele>446.30</ele>
        <time>2022-10-26T12:51:48Z</time>
      </trkpt>
      <trkpt lat="10.234341" lon="-67.879087">
        <ele>446.30</ele>
        <time>2022-10-26T12:51:49Z</time>
      </trkpt>
      <trkpt lat="10.234343" lon="-67.879086">
        <ele>446.30</ele>
        <time>2022-10-26T12:51:50Z</time>
      </trkpt>
      <trkpt lat="10.234344" lon="-67.879085">
        <ele>446.30</ele>
        <time>2022-10-26T12:51:51Z</time>
      </trkpt>
      <trkpt lat="10.234345" lon="-67.879085">
        <ele>446.30</ele>
        <time>2022-10-26T12:51:52Z</time>
      </trkpt>
      <trkpt lat="10.234345" lon="-67.879085">
        <ele>446.30</ele>
        <time>2022-10-26T12:51:53Z</time>
      </trkpt>
      <trkpt lat="10.234345" lon="-67.879085">
        <ele>446.30</ele>
        <time>2022-10-26T12:51:54Z</time>
      </trkpt>
      <trkpt lat="10.234345" lon="-67.879085">
        <ele>446.30</ele>
        <time>2022-10-26T12:51:55Z</time>
      </trkpt>
      <trkpt lat="10.234345" lon="-67.879085">
        <ele>446.30</ele>
        <time>2022-10-26T12:51:56Z</time>
      </trkpt>
      <trkpt lat="10.234345" lon="-67.879085">
        <ele>446.30</ele>
        <time>2022-10-26T12:51:57Z</time>
      </trkpt>
      <trkpt lat="10.234345" lon="-67.879085">
        <ele>446.30</ele>
        <time>2022-10-26T12:51:58Z</time>
      </trkpt>
      <trkpt lat="10.234345" lon="-67.879085">
        <ele>446.30</ele>
        <time>2022-10-26T12:51:59Z</time>
      </trkpt>
      <trkpt lat="10.234345" lon="-67.879084">
        <ele>446.30</ele>
        <time>2022-10-26T12:52:00Z</time>
      </trkpt>
      <trkpt lat="10.234345" lon="-67.879084">
        <ele>446.30</ele>
        <time>2022-10-26T12:52:01Z</time>
      </trkpt>
      <trkpt lat="10.234345" lon="-67.879084">
        <ele>446.30</ele>
        <time>2022-10-26T12:52:02Z</time>
      </trkpt>
      <trkpt lat="10.234345" lon="-67.879084">
        <ele>446.30</ele>
        <time>2022-10-26T12:52:03Z</time>
      </trkpt>
      <trkpt lat="10.234345" lon="-67.879084">
        <ele>446.30</ele>
        <time>2022-10-26T12:52:04Z</time>
      </trkpt>
      <trkpt lat="10.234345" lon="-67.879084">
        <ele>446.30</ele>
        <time>2022-10-26T12:52:05Z</time>
      </trkpt>
      <trkpt lat="10.234346" lon="-67.879082">
        <ele>446.30</ele>
        <time>2022-10-26T12:52:06Z</time>
      </trkpt>
      <trkpt lat="10.234347" lon="-67.879079">
        <ele>446.30</ele>
        <time>2022-10-26T12:52:07Z</time>
      </trkpt>
      <trkpt lat="10.234348" lon="-67.879077">
        <ele>446.30</ele>
        <time>2022-10-26T12:52:08Z</time>
      </trkpt>
      <trkpt lat="10.234349" lon="-67.879077">
        <ele>446.30</ele>
        <time>2022-10-26T12:52:09Z</time>
      </trkpt>
      <trkpt lat="10.234349" lon="-67.879077">
        <ele>446.30</ele>
        <time>2022-10-26T12:52:10Z</time>
      </trkpt>
      <trkpt lat="10.234349" lon="-67.879077">
        <ele>446.30</ele>
        <time>2022-10-26T12:52:11Z</time>
      </trkpt>
      <trkpt lat="10.234349" lon="-67.879076">
        <ele>446.30</ele>
        <time>2022-10-26T12:52:12Z</time>
      </trkpt>
      <trkpt lat="10.234347" lon="-67.879075">
        <ele>446.30</ele>
        <time>2022-10-26T12:52:13Z</time>
      </trkpt>
      <trkpt lat="10.234347" lon="-67.879074">
        <ele>446.30</ele>
        <time>2022-10-26T12:52:14Z</time>
      </trkpt>
      <trkpt lat="10.234346" lon="-67.879074">
        <ele>446.30</ele>
        <time>2022-10-26T12:52:15Z</time>
      </trkpt>
      <trkpt lat="10.234346" lon="-67.879074">
        <ele>446.30</ele>
        <time>2022-10-26T12:52:16Z</time>
      </trkpt>
      <trkpt lat="10.234346" lon="-67.879074">
        <ele>446.30</ele>
        <time>2022-10-26T12:52:17Z</time>
      </trkpt>
      <trkpt lat="10.234346" lon="-67.879074">
        <ele>446.30</ele>
        <time>2022-10-26T12:52:18Z</time>
      </trkpt>
      <trkpt lat="10.234346" lon="-67.879074">
        <ele>446.30</ele>
        <time>2022-10-26T12:52:19Z</time>
      </trkpt>
      <trkpt lat="10.234346" lon="-67.879074">
        <ele>446.30</ele>
        <time>2022-10-26T12:52:20Z</time>
      </trkpt>
      <trkpt lat="10.234351" lon="-67.879074">
        <ele>446.30</ele>
        <time>2022-10-26T12:52:21Z</time>
      </trkpt>
      <trkpt lat="10.234356" lon="-67.879076">
        <ele>446.30</ele>
        <time>2022-10-26T12:52:22Z</time>
      </trkpt>
      <trkpt lat="10.234355" lon="-67.879077">
        <ele>446.30</ele>
        <time>2022-10-26T12:52:23Z</time>
      </trkpt>
      <trkpt lat="10.234351" lon="-67.879078">
        <ele>446.30</ele>
        <time>2022-10-26T12:52:24Z</time>
      </trkpt>
      <trkpt lat="10.234345" lon="-67.879078">
        <ele>446.30</ele>
        <time>2022-10-26T12:52:25Z</time>
      </trkpt>
      <trkpt lat="10.234339" lon="-67.879076">
        <ele>446.30</ele>
        <time>2022-10-26T12:52:26Z</time>
      </trkpt>
      <trkpt lat="10.234335" lon="-67.879075">
        <ele>446.30</ele>
        <time>2022-10-26T12:52:27Z</time>
      </trkpt>
      <trkpt lat="10.234334" lon="-67.879075">
        <ele>446.30</ele>
        <time>2022-10-26T12:52:28Z</time>
      </trkpt>
      <trkpt lat="10.234334" lon="-67.879075">
        <ele>446.30</ele>
        <time>2022-10-26T12:52:29Z</time>
      </trkpt>
      <trkpt lat="10.234334" lon="-67.879075">
        <ele>446.30</ele>
        <time>2022-10-26T12:52:30Z</time>
      </trkpt>
      <trkpt lat="10.234335" lon="-67.879075">
        <ele>446.30</ele>
        <time>2022-10-26T12:52:31Z</time>
      </trkpt>
      <trkpt lat="10.234336" lon="-67.879074">
        <ele>446.30</ele>
        <time>2022-10-26T12:52:32Z</time>
      </trkpt>
      <trkpt lat="10.234336" lon="-67.879074">
        <ele>446.30</ele>
        <time>2022-10-26T12:52:33Z</time>
      </trkpt>
      <trkpt lat="10.234336" lon="-67.879074">
        <ele>446.30</ele>
        <time>2022-10-26T12:52:34Z</time>
      </trkpt>
      <trkpt lat="10.234336" lon="-67.879074">
        <ele>446.30</ele>
        <time>2022-10-26T12:52:35Z</time>
      </trkpt>
      <trkpt lat="10.234336" lon="-67.879074">
        <ele>446.30</ele>
        <time>2022-10-26T12:52:36Z</time>
      </trkpt>
      <trkpt lat="10.234336" lon="-67.879075">
        <ele>446.30</ele>
        <time>2022-10-26T12:52:37Z</time>
      </trkpt>
      <trkpt lat="10.234337" lon="-67.879075">
        <ele>446.30</ele>
        <time>2022-10-26T12:52:38Z</time>
      </trkpt>
      <trkpt lat="10.234337" lon="-67.879075">
        <ele>446.30</ele>
        <time>2022-10-26T12:52:39Z</time>
      </trkpt>
      <trkpt lat="10.234337" lon="-67.879075">
        <ele>446.30</ele>
        <time>2022-10-26T12:52:40Z</time>
      </trkpt>
      <trkpt lat="10.234337" lon="-67.879075">
        <ele>446.30</ele>
        <time>2022-10-26T12:52:41Z</time>
      </trkpt>
      <trkpt lat="10.234337" lon="-67.879075">
        <ele>446.30</ele>
        <time>2022-10-26T12:52:42Z</time>
      </trkpt>
      <trkpt lat="10.234337" lon="-67.879075">
        <ele>446.30</ele>
        <time>2022-10-26T12:52:43Z</time>
      </trkpt>
      <trkpt lat="10.234337" lon="-67.879075">
        <ele>446.30</ele>
        <time>2022-10-26T12:52:44Z</time>
      </trkpt>
      <trkpt lat="10.234337" lon="-67.879075">
        <ele>446.30</ele>
        <time>2022-10-26T12:52:45Z</time>
      </trkpt>
      <trkpt lat="10.234337" lon="-67.879075">
        <ele>446.30</ele>
        <time>2022-10-26T12:52:46Z</time>
      </trkpt>
      <trkpt lat="10.234337" lon="-67.879075">
        <ele>446.30</ele>
        <time>2022-10-26T12:52:47Z</time>
      </trkpt>
      <trkpt lat="10.234337" lon="-67.879075">
        <ele>446.30</ele>
        <time>2022-10-26T12:52:48Z</time>
      </trkpt>
      <trkpt lat="10.234337" lon="-67.879075">
        <ele>446.30</ele>
        <time>2022-10-26T12:52:49Z</time>
      </trkpt>
      <trkpt lat="10.234337" lon="-67.879075">
        <ele>446.30</ele>
        <time>2022-10-26T12:52:50Z</time>
      </trkpt>
      <trkpt lat="10.234337" lon="-67.879075">
        <ele>446.30</ele>
        <time>2022-10-26T12:52:51Z</time>
      </trkpt>
      <trkpt lat="10.234337" lon="-67.879075">
        <ele>446.30</ele>
        <time>2022-10-26T12:52:52Z</time>
      </trkpt>
      <trkpt lat="10.234337" lon="-67.879075">
        <ele>446.30</ele>
        <time>2022-10-26T12:52:53Z</time>
      </trkpt>
      <trkpt lat="10.234337" lon="-67.879075">
        <ele>446.30</ele>
        <time>2022-10-26T12:52:54Z</time>
      </trkpt>
      <trkpt lat="10.234337" lon="-67.879075">
        <ele>446.30</ele>
        <time>2022-10-26T12:52:55Z</time>
      </trkpt>
      <trkpt lat="10.234337" lon="-67.879075">
        <ele>446.30</ele>
        <time>2022-10-26T12:52:56Z</time>
      </trkpt>
      <trkpt lat="10.234337" lon="-67.879075">
        <ele>446.30</ele>
        <time>2022-10-26T12:52:57Z</time>
      </trkpt>
      <trkpt lat="10.234337" lon="-67.879075">
        <ele>446.30</ele>
        <time>2022-10-26T12:52:58Z</time>
      </trkpt>
      <trkpt lat="10.234337" lon="-67.879075">
        <ele>446.30</ele>
        <time>2022-10-26T12:52:59Z</time>
      </trkpt>
      <trkpt lat="10.234337" lon="-67.879075">
        <ele>446.30</ele>
        <time>2022-10-26T12:53:00Z</time>
      </trkpt>
      <trkpt lat="10.234337" lon="-67.879075">
        <ele>446.30</ele>
        <time>2022-10-26T12:53:01Z</time>
      </trkpt>
      <trkpt lat="10.234337" lon="-67.879075">
        <ele>446.30</ele>
        <time>2022-10-26T12:53:02Z</time>
      </trkpt>
      <trkpt lat="10.234337" lon="-67.879074">
        <ele>446.30</ele>
        <time>2022-10-26T12:53:03Z</time>
      </trkpt>
      <trkpt lat="10.234337" lon="-67.879074">
        <ele>446.30</ele>
        <time>2022-10-26T12:53:04Z</time>
      </trkpt>
      <trkpt lat="10.234337" lon="-67.879074">
        <ele>446.30</ele>
        <time>2022-10-26T12:53:05Z</time>
      </trkpt>
      <trkpt lat="10.234337" lon="-67.879074">
        <ele>446.30</ele>
        <time>2022-10-26T12:53:06Z</time>
      </trkpt>
      <trkpt lat="10.234337" lon="-67.879074">
        <ele>446.30</ele>
        <time>2022-10-26T12:53:07Z</time>
      </trkpt>
      <trkpt lat="10.234337" lon="-67.879074">
        <ele>446.30</ele>
        <time>2022-10-26T12:53:08Z</time>
      </trkpt>
      <trkpt lat="10.234337" lon="-67.879074">
        <ele>446.30</ele>
        <time>2022-10-26T12:53:09Z</time>
      </trkpt>
      <trkpt lat="10.234337" lon="-67.879074">
        <ele>446.30</ele>
        <time>2022-10-26T12:53:10Z</time>
      </trkpt>
      <trkpt lat="10.234337" lon="-67.879074">
        <ele>446.30</ele>
        <time>2022-10-26T12:53:11Z</time>
      </trkpt>
      <trkpt lat="10.234337" lon="-67.879074">
        <ele>446.30</ele>
        <time>2022-10-26T12:53:12Z</time>
      </trkpt>
      <trkpt lat="10.234337" lon="-67.879074">
        <ele>446.30</ele>
        <time>2022-10-26T12:53:13Z</time>
      </trkpt>
      <trkpt lat="10.234337" lon="-67.879074">
        <ele>446.30</ele>
        <time>2022-10-26T12:53:14Z</time>
      </trkpt>
      <trkpt lat="10.234337" lon="-67.879074">
        <ele>446.30</ele>
        <time>2022-10-26T12:53:15Z</time>
      </trkpt>
      <trkpt lat="10.234337" lon="-67.879074">
        <ele>446.30</ele>
        <time>2022-10-26T12:53:16Z</time>
      </trkpt>
      <trkpt lat="10.234337" lon="-67.879074">
        <ele>446.30</ele>
        <time>2022-10-26T12:53:17Z</time>
      </trkpt>
      <trkpt lat="10.234337" lon="-67.879074">
        <ele>446.30</ele>
        <time>2022-10-26T12:53:18Z</time>
      </trkpt>
      <trkpt lat="10.234337" lon="-67.879074">
        <ele>446.30</ele>
        <time>2022-10-26T12:53:19Z</time>
      </trkpt>
      <trkpt lat="10.234337" lon="-67.879074">
        <ele>446.30</ele>
        <time>2022-10-26T12:53:20Z</time>
      </trkpt>
      <trkpt lat="10.234337" lon="-67.879074">
        <ele>446.30</ele>
        <time>2022-10-26T12:53:21Z</time>
      </trkpt>
      <trkpt lat="10.234337" lon="-67.879074">
        <ele>446.30</ele>
        <time>2022-10-26T12:53:22Z</time>
      </trkpt>
      <trkpt lat="10.234337" lon="-67.879074">
        <ele>446.30</ele>
        <time>2022-10-26T12:53:23Z</time>
      </trkpt>
      <trkpt lat="10.234337" lon="-67.879074">
        <ele>446.30</ele>
        <time>2022-10-26T12:53:24Z</time>
      </trkpt>
      <trkpt lat="10.234338" lon="-67.879074">
        <ele>446.30</ele>
        <time>2022-10-26T12:53:25Z</time>
      </trkpt>
      <trkpt lat="10.234338" lon="-67.879074">
        <ele>446.30</ele>
        <time>2022-10-26T12:53:26Z</time>
      </trkpt>
      <trkpt lat="10.234338" lon="-67.879074">
        <ele>446.30</ele>
        <time>2022-10-26T12:53:27Z</time>
      </trkpt>
      <trkpt lat="10.234338" lon="-67.879074">
        <ele>446.30</ele>
        <time>2022-10-26T12:53:28Z</time>
      </trkpt>
      <trkpt lat="10.234338" lon="-67.879074">
        <ele>446.30</ele>
        <time>2022-10-26T12:53:29Z</time>
      </trkpt>
      <trkpt lat="10.234338" lon="-67.879074">
        <ele>446.30</ele>
        <time>2022-10-26T12:53:30Z</time>
      </trkpt>
      <trkpt lat="10.234338" lon="-67.879074">
        <ele>446.30</ele>
        <time>2022-10-26T12:53:31Z</time>
      </trkpt>
      <trkpt lat="10.234338" lon="-67.879074">
        <ele>446.30</ele>
        <time>2022-10-26T12:53:32Z</time>
      </trkpt>
      <trkpt lat="10.234338" lon="-67.879074">
        <ele>446.30</ele>
        <time>2022-10-26T12:53:33Z</time>
      </trkpt>
      <trkpt lat="10.234338" lon="-67.879074">
        <ele>446.30</ele>
        <time>2022-10-26T12:53:34Z</time>
      </trkpt>
      <trkpt lat="10.234338" lon="-67.879074">
        <ele>446.30</ele>
        <time>2022-10-26T12:53:35Z</time>
      </trkpt>
      <trkpt lat="10.234338" lon="-67.879074">
        <ele>446.30</ele>
        <time>2022-10-26T12:53:36Z</time>
      </trkpt>
      <trkpt lat="10.234338" lon="-67.879074">
        <ele>446.30</ele>
        <time>2022-10-26T12:53:37Z</time>
      </trkpt>
      <trkpt lat="10.234338" lon="-67.879074">
        <ele>446.30</ele>
        <time>2022-10-26T12:53:38Z</time>
      </trkpt>
      <trkpt lat="10.234338" lon="-67.879074">
        <ele>446.30</ele>
        <time>2022-10-26T12:53:39Z</time>
      </trkpt>
      <trkpt lat="10.234337" lon="-67.879074">
        <ele>446.30</ele>
        <time>2022-10-26T12:53:40Z</time>
      </trkpt>
      <trkpt lat="10.234337" lon="-67.879073">
        <ele>446.30</ele>
        <time>2022-10-26T12:53:41Z</time>
      </trkpt>
      <trkpt lat="10.234337" lon="-67.879073">
        <ele>446.30</ele>
        <time>2022-10-26T12:53:42Z</time>
      </trkpt>
      <trkpt lat="10.234336" lon="-67.879073">
        <ele>446.30</ele>
        <time>2022-10-26T12:53:43Z</time>
      </trkpt>
      <trkpt lat="10.234336" lon="-67.879074">
        <ele>446.30</ele>
        <time>2022-10-26T12:53:44Z</time>
      </trkpt>
      <trkpt lat="10.234336" lon="-67.879074">
        <ele>446.30</ele>
        <time>2022-10-26T12:53:45Z</time>
      </trkpt>
      <trkpt lat="10.234336" lon="-67.879074">
        <ele>446.30</ele>
        <time>2022-10-26T12:53:46Z</time>
      </trkpt>
      <trkpt lat="10.234336" lon="-67.879074">
        <ele>446.30</ele>
        <time>2022-10-26T12:53:47Z</time>
      </trkpt>
      <trkpt lat="10.234337" lon="-67.879074">
        <ele>446.30</ele>
        <time>2022-10-26T12:53:48Z</time>
      </trkpt>
      <trkpt lat="10.234337" lon="-67.879075">
        <ele>446.30</ele>
        <time>2022-10-26T12:53:49Z</time>
      </trkpt>
      <trkpt lat="10.234337" lon="-67.879075">
        <ele>446.30</ele>
        <time>2022-10-26T12:53:50Z</time>
      </trkpt>
      <trkpt lat="10.234337" lon="-67.879075">
        <ele>446.30</ele>
        <time>2022-10-26T12:53:51Z</time>
      </trkpt>
      <trkpt lat="10.234337" lon="-67.879075">
        <ele>446.30</ele>
        <time>2022-10-26T12:53:52Z</time>
      </trkpt>
      <trkpt lat="10.234337" lon="-67.879075">
        <ele>446.30</ele>
        <time>2022-10-26T12:53:53Z</time>
      </trkpt>
      <trkpt lat="10.234337" lon="-67.879075">
        <ele>446.30</ele>
        <time>2022-10-26T12:53:54Z</time>
      </trkpt>
      <trkpt lat="10.234338" lon="-67.879075">
        <ele>446.30</ele>
        <time>2022-10-26T12:53:55Z</time>
      </trkpt>
      <trkpt lat="10.234338" lon="-67.879075">
        <ele>446.30</ele>
        <time>2022-10-26T12:53:56Z</time>
      </trkpt>
      <trkpt lat="10.234338" lon="-67.879075">
        <ele>446.30</ele>
        <time>2022-10-26T12:53:57Z</time>
      </trkpt>
      <trkpt lat="10.234338" lon="-67.879075">
        <ele>446.30</ele>
        <time>2022-10-26T12:53:58Z</time>
      </trkpt>
      <trkpt lat="10.234338" lon="-67.879075">
        <ele>446.30</ele>
        <time>2022-10-26T12:53:59Z</time>
      </trkpt>
      <trkpt lat="10.234341" lon="-67.879078">
        <ele>446.30</ele>
        <time>2022-10-26T12:54:00Z</time>
      </trkpt>
      <trkpt lat="10.234341" lon="-67.879079">
        <ele>446.30</ele>
        <time>2022-10-26T12:54:01Z</time>
      </trkpt>
      <trkpt lat="10.234339" lon="-67.879078">
        <ele>446.30</ele>
        <time>2022-10-26T12:54:02Z</time>
      </trkpt>
      <trkpt lat="10.234337" lon="-67.879077">
        <ele>446.30</ele>
        <time>2022-10-26T12:54:03Z</time>
      </trkpt>
      <trkpt lat="10.234337" lon="-67.879074">
        <ele>446.30</ele>
        <time>2022-10-26T12:54:04Z</time>
      </trkpt>
      <trkpt lat="10.234338" lon="-67.879072">
        <ele>446.30</ele>
        <time>2022-10-26T12:54:05Z</time>
      </trkpt>
      <trkpt lat="10.234339" lon="-67.879072">
        <ele>446.30</ele>
        <time>2022-10-26T12:54:06Z</time>
      </trkpt>
      <trkpt lat="10.234340" lon="-67.879071">
        <ele>446.30</ele>
        <time>2022-10-26T12:54:07Z</time>
      </trkpt>
      <trkpt lat="10.234340" lon="-67.879071">
        <ele>446.30</ele>
        <time>2022-10-26T12:54:08Z</time>
      </trkpt>
      <trkpt lat="10.234341" lon="-67.879071">
        <ele>446.30</ele>
        <time>2022-10-26T12:54:09Z</time>
      </trkpt>
      <trkpt lat="10.234342" lon="-67.879071">
        <ele>446.30</ele>
        <time>2022-10-26T12:54:10Z</time>
      </trkpt>
      <trkpt lat="10.234343" lon="-67.879071">
        <ele>446.30</ele>
        <time>2022-10-26T12:54:11Z</time>
      </trkpt>
      <trkpt lat="10.234343" lon="-67.879070">
        <ele>446.30</ele>
        <time>2022-10-26T12:54:12Z</time>
      </trkpt>
      <trkpt lat="10.234344" lon="-67.879071">
        <ele>446.30</ele>
        <time>2022-10-26T12:54:13Z</time>
      </trkpt>
      <trkpt lat="10.234351" lon="-67.879075">
        <ele>446.30</ele>
        <time>2022-10-26T12:54:14Z</time>
      </trkpt>
      <trkpt lat="10.234355" lon="-67.879076">
        <ele>446.30</ele>
        <time>2022-10-26T12:54:15Z</time>
      </trkpt>
      <trkpt lat="10.234354" lon="-67.879074">
        <ele>446.30</ele>
        <time>2022-10-26T12:54:16Z</time>
      </trkpt>
      <trkpt lat="10.234350" lon="-67.879070">
        <ele>446.30</ele>
        <time>2022-10-26T12:54:17Z</time>
      </trkpt>
      <trkpt lat="10.234347" lon="-67.879067">
        <ele>446.30</ele>
        <time>2022-10-26T12:54:18Z</time>
      </trkpt>
      <trkpt lat="10.234345" lon="-67.879066">
        <ele>446.30</ele>
        <time>2022-10-26T12:54:19Z</time>
      </trkpt>
      <trkpt lat="10.234345" lon="-67.879066">
        <ele>446.30</ele>
        <time>2022-10-26T12:54:20Z</time>
      </trkpt>
      <trkpt lat="10.234345" lon="-67.879066">
        <ele>446.30</ele>
        <time>2022-10-26T12:54:21Z</time>
      </trkpt>
      <trkpt lat="10.234345" lon="-67.879066">
        <ele>446.30</ele>
        <time>2022-10-26T12:54:22Z</time>
      </trkpt>
      <trkpt lat="10.234345" lon="-67.879066">
        <ele>446.30</ele>
        <time>2022-10-26T12:54:23Z</time>
      </trkpt>
      <trkpt lat="10.234345" lon="-67.879066">
        <ele>446.30</ele>
        <time>2022-10-26T12:54:24Z</time>
      </trkpt>
      <trkpt lat="10.234345" lon="-67.879066">
        <ele>446.30</ele>
        <time>2022-10-26T12:54:25Z</time>
      </trkpt>
      <trkpt lat="10.234345" lon="-67.879066">
        <ele>446.30</ele>
        <time>2022-10-26T12:54:26Z</time>
      </trkpt>
      <trkpt lat="10.234345" lon="-67.879066">
        <ele>446.30</ele>
        <time>2022-10-26T12:54:27Z</time>
      </trkpt>
      <trkpt lat="10.234345" lon="-67.879066">
        <ele>446.30</ele>
        <time>2022-10-26T12:54:28Z</time>
      </trkpt>
      <trkpt lat="10.234345" lon="-67.879066">
        <ele>446.30</ele>
        <time>2022-10-26T12:54:29Z</time>
      </trkpt>
      <trkpt lat="10.234345" lon="-67.879066">
        <ele>446.30</ele>
        <time>2022-10-26T12:54:30Z</time>
      </trkpt>
      <trkpt lat="10.234345" lon="-67.879066">
        <ele>446.30</ele>
        <time>2022-10-26T12:54:31Z</time>
      </trkpt>
      <trkpt lat="10.234345" lon="-67.879066">
        <ele>446.30</ele>
        <time>2022-10-26T12:54:32Z</time>
      </trkpt>
      <trkpt lat="10.234345" lon="-67.879066">
        <ele>446.30</ele>
        <time>2022-10-26T12:54:33Z</time>
      </trkpt>
      <trkpt lat="10.234345" lon="-67.879066">
        <ele>446.30</ele>
        <time>2022-10-26T12:54:34Z</time>
      </trkpt>
      <trkpt lat="10.234345" lon="-67.879066">
        <ele>446.30</ele>
        <time>2022-10-26T12:54:35Z</time>
      </trkpt>
      <trkpt lat="10.234345" lon="-67.879066">
        <ele>446.30</ele>
        <time>2022-10-26T12:54:36Z</time>
      </trkpt>
      <trkpt lat="10.234345" lon="-67.879066">
        <ele>446.30</ele>
        <time>2022-10-26T12:54:37Z</time>
      </trkpt>
      <trkpt lat="10.234345" lon="-67.879066">
        <ele>446.30</ele>
        <time>2022-10-26T12:54:38Z</time>
      </trkpt>
      <trkpt lat="10.234345" lon="-67.879066">
        <ele>446.30</ele>
        <time>2022-10-26T12:54:39Z</time>
      </trkpt>
      <trkpt lat="10.234345" lon="-67.879066">
        <ele>446.30</ele>
        <time>2022-10-26T12:54:40Z</time>
      </trkpt>
      <trkpt lat="10.234345" lon="-67.879066">
        <ele>446.30</ele>
        <time>2022-10-26T12:54:41Z</time>
      </trkpt>
      <trkpt lat="10.234345" lon="-67.879066">
        <ele>446.30</ele>
        <time>2022-10-26T12:54:42Z</time>
      </trkpt>
      <trkpt lat="10.234345" lon="-67.879066">
        <ele>446.30</ele>
        <time>2022-10-26T12:54:43Z</time>
      </trkpt>
      <trkpt lat="10.234346" lon="-67.879066">
        <ele>446.30</ele>
        <time>2022-10-26T12:54:44Z</time>
      </trkpt>
      <trkpt lat="10.234346" lon="-67.879066">
        <ele>446.30</ele>
        <time>2022-10-26T12:54:45Z</time>
      </trkpt>
      <trkpt lat="10.234346" lon="-67.879066">
        <ele>446.30</ele>
        <time>2022-10-26T12:54:46Z</time>
      </trkpt>
      <trkpt lat="10.234344" lon="-67.879066">
        <ele>446.30</ele>
        <time>2022-10-26T12:54:47Z</time>
      </trkpt>
      <trkpt lat="10.234343" lon="-67.879065">
        <ele>446.30</ele>
        <time>2022-10-26T12:54:48Z</time>
      </trkpt>
      <trkpt lat="10.234343" lon="-67.879065">
        <ele>446.30</ele>
        <time>2022-10-26T12:54:49Z</time>
      </trkpt>
      <trkpt lat="10.234343" lon="-67.879065">
        <ele>446.40</ele>
        <time>2022-10-26T12:54:50Z</time>
      </trkpt>
      <trkpt lat="10.234344" lon="-67.879065">
        <ele>446.40</ele>
        <time>2022-10-26T12:54:51Z</time>
      </trkpt>
      <trkpt lat="10.234344" lon="-67.879066">
        <ele>446.40</ele>
        <time>2022-10-26T12:54:52Z</time>
      </trkpt>
      <trkpt lat="10.234343" lon="-67.879067">
        <ele>446.40</ele>
        <time>2022-10-26T12:54:53Z</time>
      </trkpt>
      <trkpt lat="10.234342" lon="-67.879067">
        <ele>446.40</ele>
        <time>2022-10-26T12:54:54Z</time>
      </trkpt>
      <trkpt lat="10.234342" lon="-67.879069">
        <ele>446.50</ele>
        <time>2022-10-26T12:54:55Z</time>
      </trkpt>
      <trkpt lat="10.234343" lon="-67.879070">
        <ele>446.50</ele>
        <time>2022-10-26T12:54:56Z</time>
      </trkpt>
      <trkpt lat="10.234343" lon="-67.879071">
        <ele>446.50</ele>
        <time>2022-10-26T12:54:57Z</time>
      </trkpt>
      <trkpt lat="10.234342" lon="-67.879071">
        <ele>446.50</ele>
        <time>2022-10-26T12:54:58Z</time>
      </trkpt>
      <trkpt lat="10.234342" lon="-67.879071">
        <ele>446.60</ele>
        <time>2022-10-26T12:54:59Z</time>
      </trkpt>
      <trkpt lat="10.234341" lon="-67.879070">
        <ele>446.60</ele>
        <time>2022-10-26T12:55:00Z</time>
      </trkpt>
      <trkpt lat="10.234341" lon="-67.879070">
        <ele>446.60</ele>
        <time>2022-10-26T12:55:01Z</time>
      </trkpt>
      <trkpt lat="10.234341" lon="-67.879070">
        <ele>446.60</ele>
        <time>2022-10-26T12:55:02Z</time>
      </trkpt>
      <trkpt lat="10.234341" lon="-67.879070">
        <ele>446.60</ele>
        <time>2022-10-26T12:55:03Z</time>
      </trkpt>
      <trkpt lat="10.234341" lon="-67.879070">
        <ele>446.70</ele>
        <time>2022-10-26T12:55:04Z</time>
      </trkpt>
      <trkpt lat="10.234341" lon="-67.879070">
        <ele>446.70</ele>
        <time>2022-10-26T12:55:05Z</time>
      </trkpt>
      <trkpt lat="10.234341" lon="-67.879071">
        <ele>446.70</ele>
        <time>2022-10-26T12:55:06Z</time>
      </trkpt>
      <trkpt lat="10.234341" lon="-67.879071">
        <ele>446.70</ele>
        <time>2022-10-26T12:55:07Z</time>
      </trkpt>
      <trkpt lat="10.234340" lon="-67.879071">
        <ele>446.70</ele>
        <time>2022-10-26T12:55:08Z</time>
      </trkpt>
      <trkpt lat="10.234341" lon="-67.879071">
        <ele>446.80</ele>
        <time>2022-10-26T12:55:09Z</time>
      </trkpt>
      <trkpt lat="10.234341" lon="-67.879071">
        <ele>446.80</ele>
        <time>2022-10-26T12:55:10Z</time>
      </trkpt>
      <trkpt lat="10.234341" lon="-67.879071">
        <ele>446.80</ele>
        <time>2022-10-26T12:55:11Z</time>
      </trkpt>
      <trkpt lat="10.234342" lon="-67.879071">
        <ele>446.80</ele>
        <time>2022-10-26T12:55:12Z</time>
      </trkpt>
      <trkpt lat="10.234342" lon="-67.879073">
        <ele>446.80</ele>
        <time>2022-10-26T12:55:13Z</time>
      </trkpt>
      <trkpt lat="10.234342" lon="-67.879074">
        <ele>446.90</ele>
        <time>2022-10-26T12:55:14Z</time>
      </trkpt>
      <trkpt lat="10.234343" lon="-67.879075">
        <ele>446.90</ele>
        <time>2022-10-26T12:55:15Z</time>
      </trkpt>
      <trkpt lat="10.234343" lon="-67.879076">
        <ele>446.90</ele>
        <time>2022-10-26T12:55:16Z</time>
      </trkpt>
      <trkpt lat="10.234343" lon="-67.879076">
        <ele>446.90</ele>
        <time>2022-10-26T12:55:17Z</time>
      </trkpt>
      <trkpt lat="10.234343" lon="-67.879076">
        <ele>447.00</ele>
        <time>2022-10-26T12:55:18Z</time>
      </trkpt>
      <trkpt lat="10.234343" lon="-67.879076">
        <ele>447.00</ele>
        <time>2022-10-26T12:55:19Z</time>
      </trkpt>
      <trkpt lat="10.234343" lon="-67.879076">
        <ele>447.00</ele>
        <time>2022-10-26T12:55:20Z</time>
      </trkpt>
      <trkpt lat="10.234343" lon="-67.879076">
        <ele>447.00</ele>
        <time>2022-10-26T12:55:21Z</time>
      </trkpt>
      <trkpt lat="10.234343" lon="-67.879076">
        <ele>447.00</ele>
        <time>2022-10-26T12:55:22Z</time>
      </trkpt>
      <trkpt lat="10.234343" lon="-67.879076">
        <ele>447.10</ele>
        <time>2022-10-26T12:55:23Z</time>
      </trkpt>
      <trkpt lat="10.234343" lon="-67.879076">
        <ele>447.10</ele>
        <time>2022-10-26T12:55:24Z</time>
      </trkpt>
      <trkpt lat="10.234343" lon="-67.879076">
        <ele>447.10</ele>
        <time>2022-10-26T12:55:25Z</time>
      </trkpt>
      <trkpt lat="10.234343" lon="-67.879076">
        <ele>447.10</ele>
        <time>2022-10-26T12:55:26Z</time>
      </trkpt>
      <trkpt lat="10.234343" lon="-67.879076">
        <ele>447.10</ele>
        <time>2022-10-26T12:55:27Z</time>
      </trkpt>
      <trkpt lat="10.234343" lon="-67.879076">
        <ele>447.20</ele>
        <time>2022-10-26T12:55:28Z</time>
      </trkpt>
      <trkpt lat="10.234343" lon="-67.879076">
        <ele>447.20</ele>
        <time>2022-10-26T12:55:29Z</time>
      </trkpt>
      <trkpt lat="10.234342" lon="-67.879075">
        <ele>447.20</ele>
        <time>2022-10-26T12:55:30Z</time>
      </trkpt>
      <trkpt lat="10.234341" lon="-67.879075">
        <ele>447.20</ele>
        <time>2022-10-26T12:55:31Z</time>
      </trkpt>
      <trkpt lat="10.234341" lon="-67.879074">
        <ele>447.20</ele>
        <time>2022-10-26T12:55:32Z</time>
      </trkpt>
      <trkpt lat="10.234341" lon="-67.879074">
        <ele>447.30</ele>
        <time>2022-10-26T12:55:33Z</time>
      </trkpt>
      <trkpt lat="10.234341" lon="-67.879074">
        <ele>447.30</ele>
        <time>2022-10-26T12:55:34Z</time>
      </trkpt>
      <trkpt lat="10.234340" lon="-67.879074">
        <ele>447.30</ele>
        <time>2022-10-26T12:55:35Z</time>
      </trkpt>
      <trkpt lat="10.234340" lon="-67.879074">
        <ele>447.30</ele>
        <time>2022-10-26T12:55:36Z</time>
      </trkpt>
      <trkpt lat="10.234341" lon="-67.879074">
        <ele>447.40</ele>
        <time>2022-10-26T12:55:37Z</time>
      </trkpt>
      <trkpt lat="10.234341" lon="-67.879074">
        <ele>447.40</ele>
        <time>2022-10-26T12:55:38Z</time>
      </trkpt>
      <trkpt lat="10.234341" lon="-67.879074">
        <ele>447.40</ele>
        <time>2022-10-26T12:55:39Z</time>
      </trkpt>
      <trkpt lat="10.234341" lon="-67.879074">
        <ele>447.40</ele>
        <time>2022-10-26T12:55:40Z</time>
      </trkpt>
      <trkpt lat="10.234340" lon="-67.879075">
        <ele>447.40</ele>
        <time>2022-10-26T12:55:41Z</time>
      </trkpt>
      <trkpt lat="10.234337" lon="-67.879080">
        <ele>447.50</ele>
        <time>2022-10-26T12:55:42Z</time>
      </trkpt>
      <trkpt lat="10.234335" lon="-67.879083">
        <ele>447.50</ele>
        <time>2022-10-26T12:55:43Z</time>
      </trkpt>
      <trkpt lat="10.234334" lon="-67.879086">
        <ele>447.50</ele>
        <time>2022-10-26T12:55:44Z</time>
      </trkpt>
      <trkpt lat="10.234336" lon="-67.879087">
        <ele>447.50</ele>
        <time>2022-10-26T12:55:45Z</time>
      </trkpt>
      <trkpt lat="10.234339" lon="-67.879088">
        <ele>447.50</ele>
        <time>2022-10-26T12:55:46Z</time>
      </trkpt>
      <trkpt lat="10.234341" lon="-67.879089">
        <ele>447.60</ele>
        <time>2022-10-26T12:55:47Z</time>
      </trkpt>
      <trkpt lat="10.234342" lon="-67.879089">
        <ele>447.60</ele>
        <time>2022-10-26T12:55:48Z</time>
      </trkpt>
      <trkpt lat="10.234343" lon="-67.879089">
        <ele>447.60</ele>
        <time>2022-10-26T12:55:49Z</time>
      </trkpt>
      <trkpt lat="10.234343" lon="-67.879089">
        <ele>447.60</ele>
        <time>2022-10-26T12:55:50Z</time>
      </trkpt>
      <trkpt lat="10.234343" lon="-67.879089">
        <ele>447.60</ele>
        <time>2022-10-26T12:55:51Z</time>
      </trkpt>
      <trkpt lat="10.234343" lon="-67.879089">
        <ele>447.70</ele>
        <time>2022-10-26T12:55:52Z</time>
      </trkpt>
      <trkpt lat="10.234343" lon="-67.879089">
        <ele>447.70</ele>
        <time>2022-10-26T12:55:53Z</time>
      </trkpt>
      <trkpt lat="10.234343" lon="-67.879089">
        <ele>447.70</ele>
        <time>2022-10-26T12:55:54Z</time>
      </trkpt>
      <trkpt lat="10.234343" lon="-67.879089">
        <ele>447.70</ele>
        <time>2022-10-26T12:55:55Z</time>
      </trkpt>
      <trkpt lat="10.234343" lon="-67.879089">
        <ele>447.70</ele>
        <time>2022-10-26T12:55:56Z</time>
      </trkpt>
      <trkpt lat="10.234343" lon="-67.879089">
        <ele>447.80</ele>
        <time>2022-10-26T12:55:57Z</time>
      </trkpt>
      <trkpt lat="10.234343" lon="-67.879089">
        <ele>447.80</ele>
        <time>2022-10-26T12:55:58Z</time>
      </trkpt>
      <trkpt lat="10.234343" lon="-67.879089">
        <ele>447.80</ele>
        <time>2022-10-26T12:55:59Z</time>
      </trkpt>
      <trkpt lat="10.234343" lon="-67.879089">
        <ele>447.80</ele>
        <time>2022-10-26T12:56:00Z</time>
      </trkpt>
      <trkpt lat="10.234343" lon="-67.879089">
        <ele>447.90</ele>
        <time>2022-10-26T12:56:01Z</time>
      </trkpt>
      <trkpt lat="10.234343" lon="-67.879089">
        <ele>447.90</ele>
        <time>2022-10-26T12:56:02Z</time>
      </trkpt>
      <trkpt lat="10.234343" lon="-67.879089">
        <ele>447.90</ele>
        <time>2022-10-26T12:56:03Z</time>
      </trkpt>
      <trkpt lat="10.234343" lon="-67.879089">
        <ele>447.90</ele>
        <time>2022-10-26T12:56:04Z</time>
      </trkpt>
      <trkpt lat="10.234342" lon="-67.879089">
        <ele>447.90</ele>
        <time>2022-10-26T12:56:05Z</time>
      </trkpt>
      <trkpt lat="10.234340" lon="-67.879089">
        <ele>448.00</ele>
        <time>2022-10-26T12:56:06Z</time>
      </trkpt>
      <trkpt lat="10.234339" lon="-67.879088">
        <ele>448.00</ele>
        <time>2022-10-26T12:56:07Z</time>
      </trkpt>
      <trkpt lat="10.234339" lon="-67.879088">
        <ele>448.00</ele>
        <time>2022-10-26T12:56:08Z</time>
      </trkpt>
      <trkpt lat="10.234339" lon="-67.879087">
        <ele>448.00</ele>
        <time>2022-10-26T12:56:09Z</time>
      </trkpt>
      <trkpt lat="10.234341" lon="-67.879084">
        <ele>448.00</ele>
        <time>2022-10-26T12:56:10Z</time>
      </trkpt>
      <trkpt lat="10.234343" lon="-67.879083">
        <ele>448.10</ele>
        <time>2022-10-26T12:56:11Z</time>
      </trkpt>
      <trkpt lat="10.234347" lon="-67.879082">
        <ele>448.10</ele>
        <time>2022-10-26T12:56:12Z</time>
      </trkpt>
      <trkpt lat="10.234351" lon="-67.879082">
        <ele>446.40</ele>
        <time>2022-10-26T12:56:13Z</time>
      </trkpt>
      <trkpt lat="10.234346" lon="-67.879086">
        <ele>448.10</ele>
        <time>2022-10-26T12:56:14Z</time>
      </trkpt>
      <trkpt lat="10.234348" lon="-67.879086">
        <ele>448.10</ele>
        <time>2022-10-26T12:56:16Z</time>
      </trkpt>
      <trkpt lat="10.234349" lon="-67.879087">
        <ele>448.20</ele>
        <time>2022-10-26T12:56:17Z</time>
      </trkpt>
      <trkpt lat="10.234350" lon="-67.879087">
        <ele>446.40</ele>
        <time>2022-10-26T12:56:18Z</time>
      </trkpt>
      <trkpt lat="10.234352" lon="-67.879088">
        <ele>446.40</ele>
        <time>2022-10-26T12:56:19Z</time>
      </trkpt>
      <trkpt lat="10.234353" lon="-67.879088">
        <ele>446.40</ele>
        <time>2022-10-26T12:56:20Z</time>
      </trkpt>
      <trkpt lat="10.234354" lon="-67.879088">
        <ele>446.40</ele>
        <time>2022-10-26T12:56:21Z</time>
      </trkpt>
      <trkpt lat="10.234355" lon="-67.879088">
        <ele>446.40</ele>
        <time>2022-10-26T12:56:22Z</time>
      </trkpt>
      <trkpt lat="10.234355" lon="-67.879090">
        <ele>446.40</ele>
        <time>2022-10-26T12:56:23Z</time>
      </trkpt>
      <trkpt lat="10.234354" lon="-67.879091">
        <ele>446.40</ele>
        <time>2022-10-26T12:56:24Z</time>
      </trkpt>
      <trkpt lat="10.234352" lon="-67.879091">
        <ele>446.40</ele>
        <time>2022-10-26T12:56:25Z</time>
      </trkpt>
      <trkpt lat="10.234349" lon="-67.879092">
        <ele>448.40</ele>
        <time>2022-10-26T12:56:26Z</time>
      </trkpt>
      <trkpt lat="10.234347" lon="-67.879092">
        <ele>448.40</ele>
        <time>2022-10-26T12:56:27Z</time>
      </trkpt>
      <trkpt lat="10.234346" lon="-67.879093">
        <ele>448.40</ele>
        <time>2022-10-26T12:56:29Z</time>
      </trkpt>
      <trkpt lat="10.234343" lon="-67.879092">
        <ele>448.40</ele>
        <time>2022-10-26T12:56:30Z</time>
      </trkpt>
      <trkpt lat="10.234342" lon="-67.879090">
        <ele>448.40</ele>
        <time>2022-10-26T12:56:31Z</time>
      </trkpt>
      <trkpt lat="10.234340" lon="-67.879088">
        <ele>448.40</ele>
        <time>2022-10-26T12:56:32Z</time>
      </trkpt>
      <trkpt lat="10.234338" lon="-67.879086">
        <ele>448.40</ele>
        <time>2022-10-26T12:56:33Z</time>
      </trkpt>
      <trkpt lat="10.234338" lon="-67.879085">
        <ele>448.40</ele>
        <time>2022-10-26T12:56:34Z</time>
      </trkpt>
      <trkpt lat="10.234337" lon="-67.879083">
        <ele>448.40</ele>
        <time>2022-10-26T12:56:35Z</time>
      </trkpt>
      <trkpt lat="10.234336" lon="-67.879082">
        <ele>448.40</ele>
        <time>2022-10-26T12:56:36Z</time>
      </trkpt>
      <trkpt lat="10.234336" lon="-67.879081">
        <ele>448.40</ele>
        <time>2022-10-26T12:56:37Z</time>
      </trkpt>
      <trkpt lat="10.234336" lon="-67.879081">
        <ele>448.40</ele>
        <time>2022-10-26T12:56:38Z</time>
      </trkpt>
      <trkpt lat="10.234336" lon="-67.879081">
        <ele>448.40</ele>
        <time>2022-10-26T12:56:39Z</time>
      </trkpt>
      <trkpt lat="10.234335" lon="-67.879080">
        <ele>448.40</ele>
        <time>2022-10-26T12:56:40Z</time>
      </trkpt>
      <trkpt lat="10.234335" lon="-67.879079">
        <ele>448.40</ele>
        <time>2022-10-26T12:56:41Z</time>
      </trkpt>
      <trkpt lat="10.234334" lon="-67.879078">
        <ele>448.40</ele>
        <time>2022-10-26T12:56:42Z</time>
      </trkpt>
      <trkpt lat="10.234331" lon="-67.879078">
        <ele>448.40</ele>
        <time>2022-10-26T12:56:43Z</time>
      </trkpt>
      <trkpt lat="10.234330" lon="-67.879076">
        <ele>448.40</ele>
        <time>2022-10-26T12:56:44Z</time>
      </trkpt>
      <trkpt lat="10.234329" lon="-67.879074">
        <ele>448.40</ele>
        <time>2022-10-26T12:56:45Z</time>
      </trkpt>
      <trkpt lat="10.234329" lon="-67.879072">
        <ele>448.40</ele>
        <time>2022-10-26T12:56:46Z</time>
      </trkpt>
      <trkpt lat="10.234329" lon="-67.879072">
        <ele>448.40</ele>
        <time>2022-10-26T12:56:47Z</time>
      </trkpt>
      <trkpt lat="10.234328" lon="-67.879071">
        <ele>448.40</ele>
        <time>2022-10-26T12:56:48Z</time>
      </trkpt>
      <trkpt lat="10.234327" lon="-67.879071">
        <ele>448.40</ele>
        <time>2022-10-26T12:56:49Z</time>
      </trkpt>
      <trkpt lat="10.234323" lon="-67.879069">
        <ele>448.40</ele>
        <time>2022-10-26T12:56:50Z</time>
      </trkpt>
      <trkpt lat="10.234317" lon="-67.879068">
        <ele>448.40</ele>
        <time>2022-10-26T12:56:51Z</time>
      </trkpt>
      <trkpt lat="10.234312" lon="-67.879067">
        <ele>448.40</ele>
        <time>2022-10-26T12:56:52Z</time>
      </trkpt>
      <trkpt lat="10.234308" lon="-67.879066">
        <ele>448.40</ele>
        <time>2022-10-26T12:56:53Z</time>
      </trkpt>
      <trkpt lat="10.234308" lon="-67.879064">
        <ele>448.40</ele>
        <time>2022-10-26T12:56:54Z</time>
      </trkpt>
      <trkpt lat="10.234316" lon="-67.879065">
        <ele>448.40</ele>
        <time>2022-10-26T12:56:55Z</time>
      </trkpt>
      <trkpt lat="10.234317" lon="-67.879064">
        <ele>448.40</ele>
        <time>2022-10-26T12:56:56Z</time>
      </trkpt>
      <trkpt lat="10.234317" lon="-67.879064">
        <ele>448.40</ele>
        <time>2022-10-26T12:56:57Z</time>
      </trkpt>
      <trkpt lat="10.234316" lon="-67.879064">
        <ele>448.40</ele>
        <time>2022-10-26T12:56:58Z</time>
      </trkpt>
      <trkpt lat="10.234314" lon="-67.879063">
        <ele>448.40</ele>
        <time>2022-10-26T12:56:59Z</time>
      </trkpt>
      <trkpt lat="10.234312" lon="-67.879062">
        <ele>448.40</ele>
        <time>2022-10-26T12:57:00Z</time>
      </trkpt>
      <trkpt lat="10.234311" lon="-67.879061">
        <ele>448.40</ele>
        <time>2022-10-26T12:57:01Z</time>
      </trkpt>
      <trkpt lat="10.234312" lon="-67.879061">
        <ele>448.40</ele>
        <time>2022-10-26T12:57:02Z</time>
      </trkpt>
      <trkpt lat="10.234314" lon="-67.879061">
        <ele>448.40</ele>
        <time>2022-10-26T12:57:03Z</time>
      </trkpt>
      <trkpt lat="10.234315" lon="-67.879063">
        <ele>448.40</ele>
        <time>2022-10-26T12:57:04Z</time>
      </trkpt>
      <trkpt lat="10.234315" lon="-67.879065">
        <ele>448.40</ele>
        <time>2022-10-26T12:57:05Z</time>
      </trkpt>
      <trkpt lat="10.234315" lon="-67.879066">
        <ele>448.40</ele>
        <time>2022-10-26T12:57:06Z</time>
      </trkpt>
      <trkpt lat="10.234317" lon="-67.879070">
        <ele>448.40</ele>
        <time>2022-10-26T12:57:07Z</time>
      </trkpt>
      <trkpt lat="10.234318" lon="-67.879073">
        <ele>448.40</ele>
        <time>2022-10-26T12:57:08Z</time>
      </trkpt>
      <trkpt lat="10.234319" lon="-67.879075">
        <ele>448.40</ele>
        <time>2022-10-26T12:57:09Z</time>
      </trkpt>
      <trkpt lat="10.234319" lon="-67.879077">
        <ele>448.40</ele>
        <time>2022-10-26T12:57:10Z</time>
      </trkpt>
      <trkpt lat="10.234319" lon="-67.879078">
        <ele>448.40</ele>
        <time>2022-10-26T12:57:11Z</time>
      </trkpt>
      <trkpt lat="10.234319" lon="-67.879078">
        <ele>448.40</ele>
        <time>2022-10-26T12:57:12Z</time>
      </trkpt>
      <trkpt lat="10.234318" lon="-67.879078">
        <ele>448.40</ele>
        <time>2022-10-26T12:57:13Z</time>
      </trkpt>
      <trkpt lat="10.234318" lon="-67.879077">
        <ele>448.40</ele>
        <time>2022-10-26T12:57:14Z</time>
      </trkpt>
      <trkpt lat="10.234318" lon="-67.879077">
        <ele>448.40</ele>
        <time>2022-10-26T12:57:15Z</time>
      </trkpt>
      <trkpt lat="10.234318" lon="-67.879077">
        <ele>448.40</ele>
        <time>2022-10-26T12:57:16Z</time>
      </trkpt>
      <trkpt lat="10.234318" lon="-67.879077">
        <ele>448.40</ele>
        <time>2022-10-26T12:57:17Z</time>
      </trkpt>
      <trkpt lat="10.234318" lon="-67.879077">
        <ele>448.40</ele>
        <time>2022-10-26T12:57:18Z</time>
      </trkpt>
      <trkpt lat="10.234318" lon="-67.879077">
        <ele>448.40</ele>
        <time>2022-10-26T12:57:19Z</time>
      </trkpt>
      <trkpt lat="10.234318" lon="-67.879077">
        <ele>448.40</ele>
        <time>2022-10-26T12:57:20Z</time>
      </trkpt>
      <trkpt lat="10.234318" lon="-67.879077">
        <ele>448.40</ele>
        <time>2022-10-26T12:57:21Z</time>
      </trkpt>
      <trkpt lat="10.234318" lon="-67.879077">
        <ele>448.40</ele>
        <time>2022-10-26T12:57:22Z</time>
      </trkpt>
      <trkpt lat="10.234318" lon="-67.879077">
        <ele>448.40</ele>
        <time>2022-10-26T12:57:23Z</time>
      </trkpt>
      <trkpt lat="10.234318" lon="-67.879077">
        <ele>448.40</ele>
        <time>2022-10-26T12:57:24Z</time>
      </trkpt>
      <trkpt lat="10.234318" lon="-67.879077">
        <ele>448.40</ele>
        <time>2022-10-26T12:57:25Z</time>
      </trkpt>
      <trkpt lat="10.234318" lon="-67.879077">
        <ele>448.40</ele>
        <time>2022-10-26T12:57:26Z</time>
      </trkpt>
      <trkpt lat="10.234314" lon="-67.879080">
        <ele>448.40</ele>
        <time>2022-10-26T12:57:27Z</time>
      </trkpt>
      <trkpt lat="10.234309" lon="-67.879085">
        <ele>448.40</ele>
        <time>2022-10-26T12:57:28Z</time>
      </trkpt>
      <trkpt lat="10.234309" lon="-67.879091">
        <ele>448.40</ele>
        <time>2022-10-26T12:57:29Z</time>
      </trkpt>
      <trkpt lat="10.234308" lon="-67.879096">
        <ele>448.40</ele>
        <time>2022-10-26T12:57:30Z</time>
      </trkpt>
      <trkpt lat="10.234310" lon="-67.879099">
        <ele>448.40</ele>
        <time>2022-10-26T12:57:31Z</time>
      </trkpt>
      <trkpt lat="10.234332" lon="-67.879081">
        <ele>448.40</ele>
        <time>2022-10-26T12:57:32Z</time>
      </trkpt>
      <trkpt lat="10.234339" lon="-67.879073">
        <ele>448.40</ele>
        <time>2022-10-26T12:57:33Z</time>
      </trkpt>
      <trkpt lat="10.234344" lon="-67.879073">
        <ele>448.40</ele>
        <time>2022-10-26T12:57:34Z</time>
      </trkpt>
      <trkpt lat="10.234346" lon="-67.879077">
        <ele>448.40</ele>
        <time>2022-10-26T12:57:35Z</time>
      </trkpt>
      <trkpt lat="10.234349" lon="-67.879082">
        <ele>448.40</ele>
        <time>2022-10-26T12:57:36Z</time>
      </trkpt>
      <trkpt lat="10.234355" lon="-67.879092">
        <ele>446.40</ele>
        <time>2022-10-26T12:57:37Z</time>
      </trkpt>
      <trkpt lat="10.234359" lon="-67.879102">
        <ele>446.40</ele>
        <time>2022-10-26T12:57:39Z</time>
      </trkpt>
      <trkpt lat="10.234359" lon="-67.879115">
        <ele>446.40</ele>
        <time>2022-10-26T12:57:40Z</time>
      </trkpt>
      <trkpt lat="10.234353" lon="-67.879130">
        <ele>446.40</ele>
        <time>2022-10-26T12:57:41Z</time>
      </trkpt>
      <trkpt lat="10.234348" lon="-67.879144">
        <ele>448.40</ele>
        <time>2022-10-26T12:57:42Z</time>
      </trkpt>
      <trkpt lat="10.234343" lon="-67.879157">
        <ele>448.40</ele>
        <time>2022-10-26T12:57:44Z</time>
      </trkpt>
      <trkpt lat="10.234337" lon="-67.879171">
        <ele>448.40</ele>
        <time>2022-10-26T12:57:45Z</time>
      </trkpt>
      <trkpt lat="10.234332" lon="-67.879183">
        <ele>448.40</ele>
        <time>2022-10-26T12:57:46Z</time>
      </trkpt>
      <trkpt lat="10.234327" lon="-67.879193">
        <ele>448.40</ele>
        <time>2022-10-26T12:57:47Z</time>
      </trkpt>
      <trkpt lat="10.234320" lon="-67.879208">
        <ele>447.40</ele>
        <time>2022-10-26T12:57:48Z</time>
      </trkpt>
      <trkpt lat="10.234314" lon="-67.879221">
        <ele>447.40</ele>
        <time>2022-10-26T12:57:50Z</time>
      </trkpt>
      <trkpt lat="10.234304" lon="-67.879239">
        <ele>447.40</ele>
        <time>2022-10-26T12:57:51Z</time>
      </trkpt>
      <trkpt lat="10.234300" lon="-67.879247">
        <ele>447.40</ele>
        <time>2022-10-26T12:57:52Z</time>
      </trkpt>
      <trkpt lat="10.234296" lon="-67.879255">
        <ele>447.40</ele>
        <time>2022-10-26T12:57:53Z</time>
      </trkpt>
      <trkpt lat="10.234293" lon="-67.879267">
        <ele>447.40</ele>
        <time>2022-10-26T12:57:55Z</time>
      </trkpt>
      <trkpt lat="10.234291" lon="-67.879276">
        <ele>447.40</ele>
        <time>2022-10-26T12:57:56Z</time>
      </trkpt>
      <trkpt lat="10.234287" lon="-67.879287">
        <ele>447.40</ele>
        <time>2022-10-26T12:57:57Z</time>
      </trkpt>
      <trkpt lat="10.234285" lon="-67.879296">
        <ele>447.40</ele>
        <time>2022-10-26T12:57:58Z</time>
      </trkpt>
      <trkpt lat="10.234283" lon="-67.879306">
        <ele>447.40</ele>
        <time>2022-10-26T12:57:59Z</time>
      </trkpt>
      <trkpt lat="10.234280" lon="-67.879314">
        <ele>447.40</ele>
        <time>2022-10-26T12:58:00Z</time>
      </trkpt>
      <trkpt lat="10.234276" lon="-67.879320">
        <ele>447.40</ele>
        <time>2022-10-26T12:58:01Z</time>
      </trkpt>
      <trkpt lat="10.234271" lon="-67.879325">
        <ele>447.40</ele>
        <time>2022-10-26T12:58:02Z</time>
      </trkpt>
      <trkpt lat="10.234264" lon="-67.879332">
        <ele>447.40</ele>
        <time>2022-10-26T12:58:04Z</time>
      </trkpt>
      <trkpt lat="10.234264" lon="-67.879332">
        <ele>447.40</ele>
        <time>2022-10-26T12:58:05Z</time>
      </trkpt>
      <trkpt lat="10.234263" lon="-67.879332">
        <ele>447.40</ele>
        <time>2022-10-26T12:58:06Z</time>
      </trkpt>
      <trkpt lat="10.234264" lon="-67.879329">
        <ele>447.40</ele>
        <time>2022-10-26T12:58:08Z</time>
      </trkpt>
      <trkpt lat="10.234263" lon="-67.879328">
        <ele>447.40</ele>
        <time>2022-10-26T12:58:09Z</time>
      </trkpt>
      <trkpt lat="10.234262" lon="-67.879327">
        <ele>447.40</ele>
        <time>2022-10-26T12:58:10Z</time>
      </trkpt>
      <trkpt lat="10.234262" lon="-67.879326">
        <ele>447.40</ele>
        <time>2022-10-26T12:58:11Z</time>
      </trkpt>
      <trkpt lat="10.234260" lon="-67.879325">
        <ele>447.40</ele>
        <time>2022-10-26T12:58:12Z</time>
      </trkpt>
      <trkpt lat="10.234259" lon="-67.879324">
        <ele>447.40</ele>
        <time>2022-10-26T12:58:13Z</time>
      </trkpt>
      <trkpt lat="10.234258" lon="-67.879324">
        <ele>447.40</ele>
        <time>2022-10-26T12:58:14Z</time>
      </trkpt>
      <trkpt lat="10.234256" lon="-67.879323">
        <ele>447.40</ele>
        <time>2022-10-26T12:58:15Z</time>
      </trkpt>
      <trkpt lat="10.234254" lon="-67.879322">
        <ele>447.40</ele>
        <time>2022-10-26T12:58:16Z</time>
      </trkpt>
      <trkpt lat="10.234252" lon="-67.879322">
        <ele>447.40</ele>
        <time>2022-10-26T12:58:17Z</time>
      </trkpt>
      <trkpt lat="10.234252" lon="-67.879322">
        <ele>447.40</ele>
        <time>2022-10-26T12:58:18Z</time>
      </trkpt>
      <trkpt lat="10.234253" lon="-67.879320">
        <ele>447.40</ele>
        <time>2022-10-26T12:58:19Z</time>
      </trkpt>
      <trkpt lat="10.234254" lon="-67.879319">
        <ele>447.40</ele>
        <time>2022-10-26T12:58:20Z</time>
      </trkpt>
      <trkpt lat="10.234254" lon="-67.879317">
        <ele>447.40</ele>
        <time>2022-10-26T12:58:21Z</time>
      </trkpt>
      <trkpt lat="10.234254" lon="-67.879316">
        <ele>447.40</ele>
        <time>2022-10-26T12:58:22Z</time>
      </trkpt>
      <trkpt lat="10.234259" lon="-67.879309">
        <ele>447.40</ele>
        <time>2022-10-26T12:58:23Z</time>
      </trkpt>
      <trkpt lat="10.234259" lon="-67.879310">
        <ele>447.40</ele>
        <time>2022-10-26T12:58:24Z</time>
      </trkpt>
      <trkpt lat="10.234263" lon="-67.879306">
        <ele>447.40</ele>
        <time>2022-10-26T12:58:25Z</time>
      </trkpt>
      <trkpt lat="10.234267" lon="-67.879303">
        <ele>447.40</ele>
        <time>2022-10-26T12:58:26Z</time>
      </trkpt>
      <trkpt lat="10.234271" lon="-67.879299">
        <ele>447.40</ele>
        <time>2022-10-26T12:58:27Z</time>
      </trkpt>
      <trkpt lat="10.234275" lon="-67.879294">
        <ele>447.40</ele>
        <time>2022-10-26T12:58:28Z</time>
      </trkpt>
      <trkpt lat="10.234279" lon="-67.879290">
        <ele>447.40</ele>
        <time>2022-10-26T12:58:29Z</time>
      </trkpt>
      <trkpt lat="10.234282" lon="-67.879286">
        <ele>447.40</ele>
        <time>2022-10-26T12:58:30Z</time>
      </trkpt>
      <trkpt lat="10.234283" lon="-67.879287">
        <ele>447.40</ele>
        <time>2022-10-26T12:58:31Z</time>
      </trkpt>
      <trkpt lat="10.234284" lon="-67.879290">
        <ele>447.40</ele>
        <time>2022-10-26T12:58:32Z</time>
      </trkpt>
      <trkpt lat="10.234278" lon="-67.879299">
        <ele>447.40</ele>
        <time>2022-10-26T12:58:33Z</time>
      </trkpt>
      <trkpt lat="10.234277" lon="-67.879307">
        <ele>447.40</ele>
        <time>2022-10-26T12:58:34Z</time>
      </trkpt>
      <trkpt lat="10.234279" lon="-67.879309">
        <ele>447.40</ele>
        <time>2022-10-26T12:58:35Z</time>
      </trkpt>
      <trkpt lat="10.234283" lon="-67.879313">
        <ele>447.40</ele>
        <time>2022-10-26T12:58:37Z</time>
      </trkpt>
      <trkpt lat="10.234287" lon="-67.879316">
        <ele>447.40</ele>
        <time>2022-10-26T12:58:38Z</time>
      </trkpt>
      <trkpt lat="10.234289" lon="-67.879320">
        <ele>447.40</ele>
        <time>2022-10-26T12:58:39Z</time>
      </trkpt>
      <trkpt lat="10.234289" lon="-67.879327">
        <ele>447.40</ele>
        <time>2022-10-26T12:58:40Z</time>
      </trkpt>
      <trkpt lat="10.234285" lon="-67.879336">
        <ele>447.40</ele>
        <time>2022-10-26T12:58:41Z</time>
      </trkpt>
      <trkpt lat="10.234280" lon="-67.879345">
        <ele>447.40</ele>
        <time>2022-10-26T12:58:42Z</time>
      </trkpt>
      <trkpt lat="10.234279" lon="-67.879355">
        <ele>447.40</ele>
        <time>2022-10-26T12:58:43Z</time>
      </trkpt>
      <trkpt lat="10.234275" lon="-67.879363">
        <ele>447.40</ele>
        <time>2022-10-26T12:58:44Z</time>
      </trkpt>
      <trkpt lat="10.234273" lon="-67.879375">
        <ele>446.40</ele>
        <time>2022-10-26T12:58:45Z</time>
      </trkpt>
      <trkpt lat="10.234268" lon="-67.879387">
        <ele>446.40</ele>
        <time>2022-10-26T12:58:46Z</time>
      </trkpt>
      <trkpt lat="10.234263" lon="-67.879401">
        <ele>446.40</ele>
        <time>2022-10-26T12:58:48Z</time>
      </trkpt>
      <trkpt lat="10.234259" lon="-67.879408">
        <ele>446.40</ele>
        <time>2022-10-26T12:58:49Z</time>
      </trkpt>
      <trkpt lat="10.234257" lon="-67.879414">
        <ele>446.40</ele>
        <time>2022-10-26T12:58:50Z</time>
      </trkpt>
      <trkpt lat="10.234253" lon="-67.879425">
        <ele>446.40</ele>
        <time>2022-10-26T12:58:54Z</time>
      </trkpt>
      <trkpt lat="10.234259" lon="-67.879423">
        <ele>446.40</ele>
        <time>2022-10-26T12:58:55Z</time>
      </trkpt>
      <trkpt lat="10.234262" lon="-67.879423">
        <ele>446.40</ele>
        <time>2022-10-26T12:58:56Z</time>
      </trkpt>
      <trkpt lat="10.234266" lon="-67.879421">
        <ele>446.40</ele>
        <time>2022-10-26T12:58:57Z</time>
      </trkpt>
      <trkpt lat="10.234269" lon="-67.879420">
        <ele>446.40</ele>
        <time>2022-10-26T12:58:58Z</time>
      </trkpt>
      <trkpt lat="10.234271" lon="-67.879419">
        <ele>446.40</ele>
        <time>2022-10-26T12:58:59Z</time>
      </trkpt>
      <trkpt lat="10.234272" lon="-67.879419">
        <ele>446.40</ele>
        <time>2022-10-26T12:59:01Z</time>
      </trkpt>
      <trkpt lat="10.234276" lon="-67.879420">
        <ele>446.40</ele>
        <time>2022-10-26T12:59:02Z</time>
      </trkpt>
      <trkpt lat="10.234277" lon="-67.879420">
        <ele>446.40</ele>
        <time>2022-10-26T12:59:03Z</time>
      </trkpt>
      <trkpt lat="10.234278" lon="-67.879421">
        <ele>446.40</ele>
        <time>2022-10-26T12:59:04Z</time>
      </trkpt>
      <trkpt lat="10.234280" lon="-67.879421">
        <ele>446.40</ele>
        <time>2022-10-26T12:59:05Z</time>
      </trkpt>
      <trkpt lat="10.234281" lon="-67.879421">
        <ele>446.40</ele>
        <time>2022-10-26T12:59:06Z</time>
      </trkpt>
      <trkpt lat="10.234282" lon="-67.879422">
        <ele>446.40</ele>
        <time>2022-10-26T12:59:07Z</time>
      </trkpt>
      <trkpt lat="10.234285" lon="-67.879424">
        <ele>446.40</ele>
        <time>2022-10-26T12:59:08Z</time>
      </trkpt>
      <trkpt lat="10.234288" lon="-67.879425">
        <ele>446.40</ele>
        <time>2022-10-26T12:59:09Z</time>
      </trkpt>
      <trkpt lat="10.234290" lon="-67.879424">
        <ele>446.40</ele>
        <time>2022-10-26T12:59:10Z</time>
      </trkpt>
      <trkpt lat="10.234292" lon="-67.879422">
        <ele>446.40</ele>
        <time>2022-10-26T12:59:11Z</time>
      </trkpt>
      <trkpt lat="10.234294" lon="-67.879422">
        <ele>446.40</ele>
        <time>2022-10-26T12:59:12Z</time>
      </trkpt>
      <trkpt lat="10.234295" lon="-67.879423">
        <ele>446.40</ele>
        <time>2022-10-26T12:59:13Z</time>
      </trkpt>
      <trkpt lat="10.234298" lon="-67.879426">
        <ele>446.40</ele>
        <time>2022-10-26T12:59:15Z</time>
      </trkpt>
      <trkpt lat="10.234301" lon="-67.879427">
        <ele>446.40</ele>
        <time>2022-10-26T12:59:16Z</time>
      </trkpt>
      <trkpt lat="10.234303" lon="-67.879427">
        <ele>446.40</ele>
        <time>2022-10-26T12:59:17Z</time>
      </trkpt>
      <trkpt lat="10.234306" lon="-67.879425">
        <ele>446.40</ele>
        <time>2022-10-26T12:59:19Z</time>
      </trkpt>
      <trkpt lat="10.234302" lon="-67.879427">
        <ele>446.40</ele>
        <time>2022-10-26T12:59:20Z</time>
      </trkpt>
      <trkpt lat="10.234301" lon="-67.879430">
        <ele>446.40</ele>
        <time>2022-10-26T12:59:21Z</time>
      </trkpt>
      <trkpt lat="10.234302" lon="-67.879433">
        <ele>446.40</ele>
        <time>2022-10-26T12:59:22Z</time>
      </trkpt>
      <trkpt lat="10.234303" lon="-67.879434">
        <ele>446.40</ele>
        <time>2022-10-26T12:59:23Z</time>
      </trkpt>
      <trkpt lat="10.234304" lon="-67.879435">
        <ele>446.40</ele>
        <time>2022-10-26T12:59:24Z</time>
      </trkpt>
      <trkpt lat="10.234304" lon="-67.879436">
        <ele>446.40</ele>
        <time>2022-10-26T12:59:25Z</time>
      </trkpt>
      <trkpt lat="10.234304" lon="-67.879437">
        <ele>446.40</ele>
        <time>2022-10-26T12:59:26Z</time>
      </trkpt>
      <trkpt lat="10.234307" lon="-67.879439">
        <ele>446.40</ele>
        <time>2022-10-26T12:59:28Z</time>
      </trkpt>
      <trkpt lat="10.234304" lon="-67.879440">
        <ele>446.40</ele>
        <time>2022-10-26T12:59:29Z</time>
      </trkpt>
      <trkpt lat="10.234301" lon="-67.879442">
        <ele>446.40</ele>
        <time>2022-10-26T12:59:30Z</time>
      </trkpt>
      <trkpt lat="10.234300" lon="-67.879444">
        <ele>446.40</ele>
        <time>2022-10-26T12:59:31Z</time>
      </trkpt>
      <trkpt lat="10.234298" lon="-67.879450">
        <ele>446.40</ele>
        <time>2022-10-26T12:59:32Z</time>
      </trkpt>
      <trkpt lat="10.234295" lon="-67.879454">
        <ele>446.40</ele>
        <time>2022-10-26T12:59:33Z</time>
      </trkpt>
      <trkpt lat="10.234294" lon="-67.879456">
        <ele>446.40</ele>
        <time>2022-10-26T12:59:34Z</time>
      </trkpt>
      <trkpt lat="10.234291" lon="-67.879460">
        <ele>446.40</ele>
        <time>2022-10-26T12:59:35Z</time>
      </trkpt>
      <trkpt lat="10.234287" lon="-67.879465">
        <ele>446.40</ele>
        <time>2022-10-26T12:59:36Z</time>
      </trkpt>
      <trkpt lat="10.234283" lon="-67.879468">
        <ele>446.40</ele>
        <time>2022-10-26T12:59:37Z</time>
      </trkpt>
      <trkpt lat="10.234280" lon="-67.879473">
        <ele>446.40</ele>
        <time>2022-10-26T12:59:38Z</time>
      </trkpt>
      <trkpt lat="10.234274" lon="-67.879478">
        <ele>446.40</ele>
        <time>2022-10-26T12:59:39Z</time>
      </trkpt>
      <trkpt lat="10.234270" lon="-67.879483">
        <ele>446.40</ele>
        <time>2022-10-26T12:59:40Z</time>
      </trkpt>
      <trkpt lat="10.234255" lon="-67.879500">
        <ele>446.40</ele>
        <time>2022-10-26T12:59:42Z</time>
      </trkpt>
      <trkpt lat="10.234246" lon="-67.879508">
        <ele>446.40</ele>
        <time>2022-10-26T12:59:43Z</time>
      </trkpt>
      <trkpt lat="10.234232" lon="-67.879520">
        <ele>446.40</ele>
        <time>2022-10-26T12:59:44Z</time>
      </trkpt>
      <trkpt lat="10.234214" lon="-67.879536">
        <ele>446.40</ele>
        <time>2022-10-26T12:59:45Z</time>
      </trkpt>
      <trkpt lat="10.234181" lon="-67.879563">
        <ele>445.40</ele>
        <time>2022-10-26T12:59:47Z</time>
      </trkpt>
      <trkpt lat="10.234152" lon="-67.879609">
        <ele>445.40</ele>
        <time>2022-10-26T12:59:48Z</time>
      </trkpt>
      <trkpt lat="10.234139" lon="-67.879641">
        <ele>445.40</ele>
        <time>2022-10-26T12:59:49Z</time>
      </trkpt>
      <trkpt lat="10.234123" lon="-67.879681">
        <ele>445.40</ele>
        <time>2022-10-26T12:59:50Z</time>
      </trkpt>
      <trkpt lat="10.234108" lon="-67.879709">
        <ele>445.40</ele>
        <time>2022-10-26T12:59:51Z</time>
      </trkpt>
      <trkpt lat="10.234102" lon="-67.879719">
        <ele>445.40</ele>
        <time>2022-10-26T12:59:52Z</time>
      </trkpt>
      <trkpt lat="10.234088" lon="-67.879744">
        <ele>445.40</ele>
        <time>2022-10-26T12:59:54Z</time>
      </trkpt>
      <trkpt lat="10.234082" lon="-67.879754">
        <ele>445.40</ele>
        <time>2022-10-26T12:59:55Z</time>
      </trkpt>
      <trkpt lat="10.234072" lon="-67.879784">
        <ele>445.40</ele>
        <time>2022-10-26T12:59:56Z</time>
      </trkpt>
      <trkpt lat="10.234070" lon="-67.879795">
        <ele>445.40</ele>
        <time>2022-10-26T12:59:57Z</time>
      </trkpt>
      <trkpt lat="10.234069" lon="-67.879810">
        <ele>445.40</ele>
        <time>2022-10-26T12:59:58Z</time>
      </trkpt>
      <trkpt lat="10.234070" lon="-67.879824">
        <ele>445.40</ele>
        <time>2022-10-26T12:59:59Z</time>
      </trkpt>
      <trkpt lat="10.234069" lon="-67.879836">
        <ele>445.40</ele>
        <time>2022-10-26T13:00:00Z</time>
      </trkpt>
      <trkpt lat="10.234064" lon="-67.879845">
        <ele>445.40</ele>
        <time>2022-10-26T13:00:01Z</time>
      </trkpt>
      <trkpt lat="10.234062" lon="-67.879849">
        <ele>445.40</ele>
        <time>2022-10-26T13:00:02Z</time>
      </trkpt>
      <trkpt lat="10.234060" lon="-67.879857">
        <ele>445.40</ele>
        <time>2022-10-26T13:00:03Z</time>
      </trkpt>
      <trkpt lat="10.234062" lon="-67.879870">
        <ele>445.40</ele>
        <time>2022-10-26T13:00:04Z</time>
      </trkpt>
      <trkpt lat="10.234060" lon="-67.879878">
        <ele>445.40</ele>
        <time>2022-10-26T13:00:05Z</time>
      </trkpt>
      <trkpt lat="10.234059" lon="-67.879886">
        <ele>445.40</ele>
        <time>2022-10-26T13:00:06Z</time>
      </trkpt>
      <trkpt lat="10.234053" lon="-67.879916">
        <ele>446.40</ele>
        <time>2022-10-26T13:00:07Z</time>
      </trkpt>
      <trkpt lat="10.234051" lon="-67.879922">
        <ele>446.40</ele>
        <time>2022-10-26T13:00:08Z</time>
      </trkpt>
      <trkpt lat="10.234032" lon="-67.879957">
        <ele>446.40</ele>
        <time>2022-10-26T13:00:10Z</time>
      </trkpt>
      <trkpt lat="10.234023" lon="-67.879971">
        <ele>446.40</ele>
        <time>2022-10-26T13:00:11Z</time>
      </trkpt>
      <trkpt lat="10.234006" lon="-67.879995">
        <ele>445.40</ele>
        <time>2022-10-26T13:00:12Z</time>
      </trkpt>
      <trkpt lat="10.233981" lon="-67.880014">
        <ele>445.40</ele>
        <time>2022-10-26T13:00:14Z</time>
      </trkpt>
      <trkpt lat="10.233970" lon="-67.880020">
        <ele>445.40</ele>
        <time>2022-10-26T13:00:15Z</time>
      </trkpt>
      <trkpt lat="10.233960" lon="-67.880030">
        <ele>445.40</ele>
        <time>2022-10-26T13:00:16Z</time>
      </trkpt>
      <trkpt lat="10.233952" lon="-67.880034">
        <ele>445.40</ele>
        <time>2022-10-26T13:00:17Z</time>
      </trkpt>
      <trkpt lat="10.233938" lon="-67.880046">
        <ele>445.40</ele>
        <time>2022-10-26T13:00:18Z</time>
      </trkpt>
      <trkpt lat="10.233929" lon="-67.880054">
        <ele>445.40</ele>
        <time>2022-10-26T13:00:19Z</time>
      </trkpt>
      <trkpt lat="10.233907" lon="-67.880081">
        <ele>446.40</ele>
        <time>2022-10-26T13:00:20Z</time>
      </trkpt>
      <trkpt lat="10.233895" lon="-67.880097">
        <ele>446.40</ele>
        <time>2022-10-26T13:00:21Z</time>
      </trkpt>
      <trkpt lat="10.233879" lon="-67.880122">
        <ele>446.40</ele>
        <time>2022-10-26T13:00:22Z</time>
      </trkpt>
      <trkpt lat="10.233851" lon="-67.880186">
        <ele>446.40</ele>
        <time>2022-10-26T13:00:23Z</time>
      </trkpt>
      <trkpt lat="10.233836" lon="-67.880223">
        <ele>447.40</ele>
        <time>2022-10-26T13:00:24Z</time>
      </trkpt>
      <trkpt lat="10.233825" lon="-67.880264">
        <ele>447.40</ele>
        <time>2022-10-26T13:00:26Z</time>
      </trkpt>
      <trkpt lat="10.233820" lon="-67.880298">
        <ele>447.40</ele>
        <time>2022-10-26T13:00:27Z</time>
      </trkpt>
      <trkpt lat="10.233808" lon="-67.880329">
        <ele>447.40</ele>
        <time>2022-10-26T13:00:28Z</time>
      </trkpt>
      <trkpt lat="10.233800" lon="-67.880357">
        <ele>447.50</ele>
        <time>2022-10-26T13:00:29Z</time>
      </trkpt>
      <trkpt lat="10.233796" lon="-67.880370">
        <ele>447.60</ele>
        <time>2022-10-26T13:00:30Z</time>
      </trkpt>
      <trkpt lat="10.233790" lon="-67.880388">
        <ele>447.60</ele>
        <time>2022-10-26T13:00:31Z</time>
      </trkpt>
      <trkpt lat="10.233768" lon="-67.880444">
        <ele>447.80</ele>
        <time>2022-10-26T13:00:32Z</time>
      </trkpt>
      <trkpt lat="10.233756" lon="-67.880475">
        <ele>447.90</ele>
        <time>2022-10-26T13:00:33Z</time>
      </trkpt>
      <trkpt lat="10.233742" lon="-67.880501">
        <ele>448.00</ele>
        <time>2022-10-26T13:00:35Z</time>
      </trkpt>
      <trkpt lat="10.233720" lon="-67.880534">
        <ele>448.00</ele>
        <time>2022-10-26T13:00:36Z</time>
      </trkpt>
      <trkpt lat="10.233701" lon="-67.880566">
        <ele>448.10</ele>
        <time>2022-10-26T13:00:38Z</time>
      </trkpt>
      <trkpt lat="10.233689" lon="-67.880591">
        <ele>448.20</ele>
        <time>2022-10-26T13:00:39Z</time>
      </trkpt>
      <trkpt lat="10.233684" lon="-67.880600">
        <ele>448.30</ele>
        <time>2022-10-26T13:00:40Z</time>
      </trkpt>
      <trkpt lat="10.233672" lon="-67.880635">
        <ele>448.40</ele>
        <time>2022-10-26T13:00:41Z</time>
      </trkpt>
      <trkpt lat="10.233666" lon="-67.880654">
        <ele>448.40</ele>
        <time>2022-10-26T13:00:42Z</time>
      </trkpt>
      <trkpt lat="10.233651" lon="-67.880702">
        <ele>448.60</ele>
        <time>2022-10-26T13:00:43Z</time>
      </trkpt>
      <trkpt lat="10.233637" lon="-67.880741">
        <ele>448.70</ele>
        <time>2022-10-26T13:00:44Z</time>
      </trkpt>
      <trkpt lat="10.233624" lon="-67.880766">
        <ele>448.80</ele>
        <time>2022-10-26T13:00:45Z</time>
      </trkpt>
      <trkpt lat="10.233595" lon="-67.880824">
        <ele>449.10</ele>
        <time>2022-10-26T13:00:46Z</time>
      </trkpt>
      <trkpt lat="10.233572" lon="-67.880879">
        <ele>449.30</ele>
        <time>2022-10-26T13:00:48Z</time>
      </trkpt>
      <trkpt lat="10.233559" lon="-67.880909">
        <ele>449.30</ele>
        <time>2022-10-26T13:00:49Z</time>
      </trkpt>
      <trkpt lat="10.233552" lon="-67.880924">
        <ele>449.40</ele>
        <time>2022-10-26T13:00:50Z</time>
      </trkpt>
      <trkpt lat="10.233545" lon="-67.880939">
        <ele>449.40</ele>
        <time>2022-10-26T13:00:51Z</time>
      </trkpt>
      <trkpt lat="10.233522" lon="-67.880989">
        <ele>449.50</ele>
        <time>2022-10-26T13:00:52Z</time>
      </trkpt>
      <trkpt lat="10.233506" lon="-67.881032">
        <ele>449.50</ele>
        <time>2022-10-26T13:00:53Z</time>
      </trkpt>
      <trkpt lat="10.233456" lon="-67.881134">
        <ele>449.60</ele>
        <time>2022-10-26T13:00:54Z</time>
      </trkpt>
      <trkpt lat="10.233398" lon="-67.881239">
        <ele>449.60</ele>
        <time>2022-10-26T13:00:55Z</time>
      </trkpt>
      <trkpt lat="10.233368" lon="-67.881302">
        <ele>449.70</ele>
        <time>2022-10-26T13:00:56Z</time>
      </trkpt>
      <trkpt lat="10.233340" lon="-67.881360">
        <ele>449.70</ele>
        <time>2022-10-26T13:00:57Z</time>
      </trkpt>
      <trkpt lat="10.233331" lon="-67.881395">
        <ele>449.70</ele>
        <time>2022-10-26T13:00:58Z</time>
      </trkpt>
      <trkpt lat="10.233325" lon="-67.881436">
        <ele>449.70</ele>
        <time>2022-10-26T13:00:59Z</time>
      </trkpt>
      <trkpt lat="10.233317" lon="-67.881479">
        <ele>449.70</ele>
        <time>2022-10-26T13:01:00Z</time>
      </trkpt>
      <trkpt lat="10.233304" lon="-67.881518">
        <ele>449.70</ele>
        <time>2022-10-26T13:01:01Z</time>
      </trkpt>
      <trkpt lat="10.233283" lon="-67.881588">
        <ele>449.60</ele>
        <time>2022-10-26T13:01:02Z</time>
      </trkpt>
      <trkpt lat="10.233260" lon="-67.881646">
        <ele>449.50</ele>
        <time>2022-10-26T13:01:04Z</time>
      </trkpt>
      <trkpt lat="10.233221" lon="-67.881693">
        <ele>449.40</ele>
        <time>2022-10-26T13:01:05Z</time>
      </trkpt>
      <trkpt lat="10.233192" lon="-67.881729">
        <ele>449.30</ele>
        <time>2022-10-26T13:01:06Z</time>
      </trkpt>
      <trkpt lat="10.233167" lon="-67.881775">
        <ele>449.30</ele>
        <time>2022-10-26T13:01:07Z</time>
      </trkpt>
      <trkpt lat="10.233149" lon="-67.881832">
        <ele>449.20</ele>
        <time>2022-10-26T13:01:09Z</time>
      </trkpt>
      <trkpt lat="10.233137" lon="-67.881874">
        <ele>449.20</ele>
        <time>2022-10-26T13:01:10Z</time>
      </trkpt>
      <trkpt lat="10.233124" lon="-67.881925">
        <ele>449.10</ele>
        <time>2022-10-26T13:01:11Z</time>
      </trkpt>
      <trkpt lat="10.233118" lon="-67.881957">
        <ele>449.10</ele>
        <time>2022-10-26T13:01:12Z</time>
      </trkpt>
      <trkpt lat="10.233108" lon="-67.882003">
        <ele>449.10</ele>
        <time>2022-10-26T13:01:13Z</time>
      </trkpt>
      <trkpt lat="10.233104" lon="-67.882070">
        <ele>449.00</ele>
        <time>2022-10-26T13:01:14Z</time>
      </trkpt>
      <trkpt lat="10.233096" lon="-67.882117">
        <ele>449.00</ele>
        <time>2022-10-26T13:01:15Z</time>
      </trkpt>
      <trkpt lat="10.233092" lon="-67.882157">
        <ele>448.90</ele>
        <time>2022-10-26T13:01:16Z</time>
      </trkpt>
      <trkpt lat="10.233079" lon="-67.882208">
        <ele>448.90</ele>
        <time>2022-10-26T13:01:17Z</time>
      </trkpt>
      <trkpt lat="10.233076" lon="-67.882262">
        <ele>448.80</ele>
        <time>2022-10-26T13:01:18Z</time>
      </trkpt>
      <trkpt lat="10.233073" lon="-67.882306">
        <ele>448.70</ele>
        <time>2022-10-26T13:01:19Z</time>
      </trkpt>
      <trkpt lat="10.233054" lon="-67.882330">
        <ele>448.70</ele>
        <time>2022-10-26T13:01:20Z</time>
      </trkpt>
      <trkpt lat="10.233043" lon="-67.882376">
        <ele>448.70</ele>
        <time>2022-10-26T13:01:21Z</time>
      </trkpt>
      <trkpt lat="10.233044" lon="-67.882477">
        <ele>448.60</ele>
        <time>2022-10-26T13:01:23Z</time>
      </trkpt>
      <trkpt lat="10.233046" lon="-67.882533">
        <ele>448.50</ele>
        <time>2022-10-26T13:01:24Z</time>
      </trkpt>
      <trkpt lat="10.233019" lon="-67.882602">
        <ele>448.50</ele>
        <time>2022-10-26T13:01:25Z</time>
      </trkpt>
      <trkpt lat="10.232997" lon="-67.882664">
        <ele>448.40</ele>
        <time>2022-10-26T13:01:26Z</time>
      </trkpt>
      <trkpt lat="10.232973" lon="-67.882728">
        <ele>448.40</ele>
        <time>2022-10-26T13:01:27Z</time>
      </trkpt>
      <trkpt lat="10.232949" lon="-67.882787">
        <ele>448.30</ele>
        <time>2022-10-26T13:01:28Z</time>
      </trkpt>
      <trkpt lat="10.232929" lon="-67.882836">
        <ele>448.20</ele>
        <time>2022-10-26T13:01:29Z</time>
      </trkpt>
      <trkpt lat="10.232919" lon="-67.882845">
        <ele>448.20</ele>
        <time>2022-10-26T13:01:30Z</time>
      </trkpt>
      <trkpt lat="10.232917" lon="-67.882861">
        <ele>448.20</ele>
        <time>2022-10-26T13:01:31Z</time>
      </trkpt>
      <trkpt lat="10.232906" lon="-67.882897">
        <ele>448.20</ele>
        <time>2022-10-26T13:01:32Z</time>
      </trkpt>
      <trkpt lat="10.232905" lon="-67.882909">
        <ele>448.20</ele>
        <time>2022-10-26T13:01:33Z</time>
      </trkpt>
      <trkpt lat="10.232904" lon="-67.882945">
        <ele>448.20</ele>
        <time>2022-10-26T13:01:35Z</time>
      </trkpt>
      <trkpt lat="10.232905" lon="-67.882982">
        <ele>448.10</ele>
        <time>2022-10-26T13:01:36Z</time>
      </trkpt>
      <trkpt lat="10.232901" lon="-67.883014">
        <ele>448.10</ele>
        <time>2022-10-26T13:01:37Z</time>
      </trkpt>
      <trkpt lat="10.232898" lon="-67.883045">
        <ele>448.10</ele>
        <time>2022-10-26T13:01:38Z</time>
      </trkpt>
      <trkpt lat="10.232894" lon="-67.883095">
        <ele>448.00</ele>
        <time>2022-10-26T13:01:39Z</time>
      </trkpt>
      <trkpt lat="10.232889" lon="-67.883137">
        <ele>448.00</ele>
        <time>2022-10-26T13:01:40Z</time>
      </trkpt>
      <trkpt lat="10.232846" lon="-67.883365">
        <ele>447.90</ele>
        <time>2022-10-26T13:01:41Z</time>
      </trkpt>
      <trkpt lat="10.232835" lon="-67.883432">
        <ele>447.80</ele>
        <time>2022-10-26T13:01:42Z</time>
      </trkpt>
      <trkpt lat="10.232818" lon="-67.883538">
        <ele>447.70</ele>
        <time>2022-10-26T13:01:43Z</time>
      </trkpt>
      <trkpt lat="10.232800" lon="-67.883631">
        <ele>447.70</ele>
        <time>2022-10-26T13:01:44Z</time>
      </trkpt>
      <trkpt lat="10.232775" lon="-67.883714">
        <ele>447.60</ele>
        <time>2022-10-26T13:01:45Z</time>
      </trkpt>
      <trkpt lat="10.232744" lon="-67.883782">
        <ele>447.60</ele>
        <time>2022-10-26T13:01:46Z</time>
      </trkpt>
      <trkpt lat="10.232732" lon="-67.883848">
        <ele>447.50</ele>
        <time>2022-10-26T13:01:47Z</time>
      </trkpt>
      <trkpt lat="10.232727" lon="-67.883913">
        <ele>447.40</ele>
        <time>2022-10-26T13:01:48Z</time>
      </trkpt>
      <trkpt lat="10.232718" lon="-67.883969">
        <ele>447.40</ele>
        <time>2022-10-26T13:01:49Z</time>
      </trkpt>
      <trkpt lat="10.232711" lon="-67.884028">
        <ele>447.30</ele>
        <time>2022-10-26T13:01:50Z</time>
      </trkpt>
      <trkpt lat="10.232706" lon="-67.884088">
        <ele>447.30</ele>
        <time>2022-10-26T13:01:51Z</time>
      </trkpt>
      <trkpt lat="10.232706" lon="-67.884150">
        <ele>447.30</ele>
        <time>2022-10-26T13:01:52Z</time>
      </trkpt>
      <trkpt lat="10.232697" lon="-67.884205">
        <ele>447.20</ele>
        <time>2022-10-26T13:01:53Z</time>
      </trkpt>
      <trkpt lat="10.232685" lon="-67.884265">
        <ele>447.10</ele>
        <time>2022-10-26T13:01:54Z</time>
      </trkpt>
      <trkpt lat="10.232675" lon="-67.884325">
        <ele>447.10</ele>
        <time>2022-10-26T13:01:55Z</time>
      </trkpt>
      <trkpt lat="10.232660" lon="-67.884388">
        <ele>447.00</ele>
        <time>2022-10-26T13:01:56Z</time>
      </trkpt>
      <trkpt lat="10.232651" lon="-67.884463">
        <ele>446.90</ele>
        <time>2022-10-26T13:01:57Z</time>
      </trkpt>
      <trkpt lat="10.232640" lon="-67.884533">
        <ele>446.90</ele>
        <time>2022-10-26T13:01:58Z</time>
      </trkpt>
      <trkpt lat="10.232633" lon="-67.884604">
        <ele>446.80</ele>
        <time>2022-10-26T13:01:59Z</time>
      </trkpt>
      <trkpt lat="10.232625" lon="-67.884673">
        <ele>446.80</ele>
        <time>2022-10-26T13:02:00Z</time>
      </trkpt>
      <trkpt lat="10.232606" lon="-67.884746">
        <ele>446.70</ele>
        <time>2022-10-26T13:02:01Z</time>
      </trkpt>
      <trkpt lat="10.232584" lon="-67.884808">
        <ele>446.70</ele>
        <time>2022-10-26T13:02:02Z</time>
      </trkpt>
      <trkpt lat="10.232553" lon="-67.884849">
        <ele>446.70</ele>
        <time>2022-10-26T13:02:03Z</time>
      </trkpt>
      <trkpt lat="10.232529" lon="-67.884888">
        <ele>446.60</ele>
        <time>2022-10-26T13:02:04Z</time>
      </trkpt>
      <trkpt lat="10.232513" lon="-67.884941">
        <ele>446.60</ele>
        <time>2022-10-26T13:02:05Z</time>
      </trkpt>
      <trkpt lat="10.232512" lon="-67.885000">
        <ele>446.60</ele>
        <time>2022-10-26T13:02:06Z</time>
      </trkpt>
      <trkpt lat="10.232513" lon="-67.885067">
        <ele>446.50</ele>
        <time>2022-10-26T13:02:07Z</time>
      </trkpt>
      <trkpt lat="10.232483" lon="-67.885148">
        <ele>446.50</ele>
        <time>2022-10-26T13:02:08Z</time>
      </trkpt>
      <trkpt lat="10.232462" lon="-67.885224">
        <ele>446.40</ele>
        <time>2022-10-26T13:02:09Z</time>
      </trkpt>
      <trkpt lat="10.232438" lon="-67.885297">
        <ele>446.40</ele>
        <time>2022-10-26T13:02:10Z</time>
      </trkpt>
      <trkpt lat="10.232414" lon="-67.885372">
        <ele>446.40</ele>
        <time>2022-10-26T13:02:11Z</time>
      </trkpt>
      <trkpt lat="10.232400" lon="-67.885444">
        <ele>446.30</ele>
        <time>2022-10-26T13:02:12Z</time>
      </trkpt>
      <trkpt lat="10.232392" lon="-67.885506">
        <ele>446.30</ele>
        <time>2022-10-26T13:02:13Z</time>
      </trkpt>
      <trkpt lat="10.232383" lon="-67.885569">
        <ele>446.20</ele>
        <time>2022-10-26T13:02:14Z</time>
      </trkpt>
      <trkpt lat="10.232372" lon="-67.885637">
        <ele>446.20</ele>
        <time>2022-10-26T13:02:15Z</time>
      </trkpt>
      <trkpt lat="10.232352" lon="-67.885705">
        <ele>446.10</ele>
        <time>2022-10-26T13:02:16Z</time>
      </trkpt>
      <trkpt lat="10.232329" lon="-67.885777">
        <ele>446.10</ele>
        <time>2022-10-26T13:02:17Z</time>
      </trkpt>
      <trkpt lat="10.232312" lon="-67.885844">
        <ele>446.10</ele>
        <time>2022-10-26T13:02:18Z</time>
      </trkpt>
      <trkpt lat="10.232299" lon="-67.885910">
        <ele>446.10</ele>
        <time>2022-10-26T13:02:19Z</time>
      </trkpt>
      <trkpt lat="10.232301" lon="-67.885971">
        <ele>446.10</ele>
        <time>2022-10-26T13:02:20Z</time>
      </trkpt>
      <trkpt lat="10.232302" lon="-67.886035">
        <ele>446.10</ele>
        <time>2022-10-26T13:02:21Z</time>
      </trkpt>
      <trkpt lat="10.232298" lon="-67.886102">
        <ele>446.10</ele>
        <time>2022-10-26T13:02:22Z</time>
      </trkpt>
      <trkpt lat="10.232294" lon="-67.886168">
        <ele>446.10</ele>
        <time>2022-10-26T13:02:23Z</time>
      </trkpt>
      <trkpt lat="10.232289" lon="-67.886239">
        <ele>446.10</ele>
        <time>2022-10-26T13:02:24Z</time>
      </trkpt>
      <trkpt lat="10.232284" lon="-67.886311">
        <ele>446.10</ele>
        <time>2022-10-26T13:02:25Z</time>
      </trkpt>
      <trkpt lat="10.232283" lon="-67.886373">
        <ele>446.10</ele>
        <time>2022-10-26T13:02:26Z</time>
      </trkpt>
      <trkpt lat="10.232280" lon="-67.886435">
        <ele>446.10</ele>
        <time>2022-10-26T13:02:27Z</time>
      </trkpt>
      <trkpt lat="10.232264" lon="-67.886499">
        <ele>446.10</ele>
        <time>2022-10-26T13:02:28Z</time>
      </trkpt>
      <trkpt lat="10.232251" lon="-67.886555">
        <ele>446.10</ele>
        <time>2022-10-26T13:02:29Z</time>
      </trkpt>
      <trkpt lat="10.232235" lon="-67.886614">
        <ele>446.10</ele>
        <time>2022-10-26T13:02:30Z</time>
      </trkpt>
      <trkpt lat="10.232217" lon="-67.886668">
        <ele>446.10</ele>
        <time>2022-10-26T13:02:31Z</time>
      </trkpt>
      <trkpt lat="10.232202" lon="-67.886725">
        <ele>446.10</ele>
        <time>2022-10-26T13:02:32Z</time>
      </trkpt>
      <trkpt lat="10.232190" lon="-67.886781">
        <ele>446.10</ele>
        <time>2022-10-26T13:02:33Z</time>
      </trkpt>
      <trkpt lat="10.232179" lon="-67.886846">
        <ele>446.10</ele>
        <time>2022-10-26T13:02:34Z</time>
      </trkpt>
      <trkpt lat="10.232163" lon="-67.886913">
        <ele>446.10</ele>
        <time>2022-10-26T13:02:35Z</time>
      </trkpt>
      <trkpt lat="10.232144" lon="-67.886976">
        <ele>446.10</ele>
        <time>2022-10-26T13:02:36Z</time>
      </trkpt>
      <trkpt lat="10.232129" lon="-67.887038">
        <ele>446.10</ele>
        <time>2022-10-26T13:02:37Z</time>
      </trkpt>
      <trkpt lat="10.232110" lon="-67.887102">
        <ele>446.10</ele>
        <time>2022-10-26T13:02:38Z</time>
      </trkpt>
      <trkpt lat="10.232091" lon="-67.887170">
        <ele>446.10</ele>
        <time>2022-10-26T13:02:39Z</time>
      </trkpt>
      <trkpt lat="10.232075" lon="-67.887240">
        <ele>446.10</ele>
        <time>2022-10-26T13:02:40Z</time>
      </trkpt>
      <trkpt lat="10.232057" lon="-67.887303">
        <ele>446.10</ele>
        <time>2022-10-26T13:02:41Z</time>
      </trkpt>
      <trkpt lat="10.232032" lon="-67.887368">
        <ele>446.10</ele>
        <time>2022-10-26T13:02:42Z</time>
      </trkpt>
      <trkpt lat="10.232016" lon="-67.887432">
        <ele>446.10</ele>
        <time>2022-10-26T13:02:43Z</time>
      </trkpt>
      <trkpt lat="10.232002" lon="-67.887495">
        <ele>446.10</ele>
        <time>2022-10-26T13:02:44Z</time>
      </trkpt>
      <trkpt lat="10.231984" lon="-67.887557">
        <ele>446.10</ele>
        <time>2022-10-26T13:02:45Z</time>
      </trkpt>
      <trkpt lat="10.231963" lon="-67.887619">
        <ele>446.10</ele>
        <time>2022-10-26T13:02:46Z</time>
      </trkpt>
      <trkpt lat="10.231948" lon="-67.887672">
        <ele>446.10</ele>
        <time>2022-10-26T13:02:47Z</time>
      </trkpt>
      <trkpt lat="10.231925" lon="-67.887728">
        <ele>446.10</ele>
        <time>2022-10-26T13:02:48Z</time>
      </trkpt>
      <trkpt lat="10.231904" lon="-67.887782">
        <ele>446.10</ele>
        <time>2022-10-26T13:02:49Z</time>
      </trkpt>
      <trkpt lat="10.231881" lon="-67.887842">
        <ele>446.10</ele>
        <time>2022-10-26T13:02:50Z</time>
      </trkpt>
      <trkpt lat="10.231873" lon="-67.887895">
        <ele>446.10</ele>
        <time>2022-10-26T13:02:51Z</time>
      </trkpt>
      <trkpt lat="10.231868" lon="-67.887946">
        <ele>446.10</ele>
        <time>2022-10-26T13:02:52Z</time>
      </trkpt>
      <trkpt lat="10.231861" lon="-67.888008">
        <ele>446.10</ele>
        <time>2022-10-26T13:02:53Z</time>
      </trkpt>
      <trkpt lat="10.231839" lon="-67.888078">
        <ele>446.10</ele>
        <time>2022-10-26T13:02:54Z</time>
      </trkpt>
      <trkpt lat="10.231818" lon="-67.888141">
        <ele>446.10</ele>
        <time>2022-10-26T13:02:55Z</time>
      </trkpt>
      <trkpt lat="10.231799" lon="-67.888204">
        <ele>446.10</ele>
        <time>2022-10-26T13:02:56Z</time>
      </trkpt>
      <trkpt lat="10.231787" lon="-67.888268">
        <ele>446.10</ele>
        <time>2022-10-26T13:02:57Z</time>
      </trkpt>
      <trkpt lat="10.231779" lon="-67.888322">
        <ele>446.10</ele>
        <time>2022-10-26T13:02:58Z</time>
      </trkpt>
      <trkpt lat="10.231763" lon="-67.888376">
        <ele>446.10</ele>
        <time>2022-10-26T13:02:59Z</time>
      </trkpt>
      <trkpt lat="10.231746" lon="-67.888422">
        <ele>446.10</ele>
        <time>2022-10-26T13:03:00Z</time>
      </trkpt>
      <trkpt lat="10.231727" lon="-67.888470">
        <ele>446.10</ele>
        <time>2022-10-26T13:03:01Z</time>
      </trkpt>
      <trkpt lat="10.231707" lon="-67.888524">
        <ele>446.10</ele>
        <time>2022-10-26T13:03:02Z</time>
      </trkpt>
      <trkpt lat="10.231687" lon="-67.888583">
        <ele>446.10</ele>
        <time>2022-10-26T13:03:03Z</time>
      </trkpt>
      <trkpt lat="10.231672" lon="-67.888640">
        <ele>446.20</ele>
        <time>2022-10-26T13:03:04Z</time>
      </trkpt>
      <trkpt lat="10.231658" lon="-67.888689">
        <ele>446.20</ele>
        <time>2022-10-26T13:03:05Z</time>
      </trkpt>
      <trkpt lat="10.231640" lon="-67.888739">
        <ele>446.20</ele>
        <time>2022-10-26T13:03:06Z</time>
      </trkpt>
      <trkpt lat="10.231620" lon="-67.888791">
        <ele>446.20</ele>
        <time>2022-10-26T13:03:07Z</time>
      </trkpt>
      <trkpt lat="10.231600" lon="-67.888853">
        <ele>446.20</ele>
        <time>2022-10-26T13:03:08Z</time>
      </trkpt>
      <trkpt lat="10.231592" lon="-67.888912">
        <ele>446.20</ele>
        <time>2022-10-26T13:03:09Z</time>
      </trkpt>
      <trkpt lat="10.231584" lon="-67.888972">
        <ele>446.20</ele>
        <time>2022-10-26T13:03:10Z</time>
      </trkpt>
      <trkpt lat="10.231574" lon="-67.889030">
        <ele>446.20</ele>
        <time>2022-10-26T13:03:11Z</time>
      </trkpt>
      <trkpt lat="10.231555" lon="-67.889086">
        <ele>446.20</ele>
        <time>2022-10-26T13:03:12Z</time>
      </trkpt>
      <trkpt lat="10.231538" lon="-67.889138">
        <ele>446.30</ele>
        <time>2022-10-26T13:03:13Z</time>
      </trkpt>
      <trkpt lat="10.231528" lon="-67.889186">
        <ele>446.30</ele>
        <time>2022-10-26T13:03:14Z</time>
      </trkpt>
      <trkpt lat="10.231518" lon="-67.889226">
        <ele>446.30</ele>
        <time>2022-10-26T13:03:15Z</time>
      </trkpt>
      <trkpt lat="10.231518" lon="-67.889228">
        <ele>446.30</ele>
        <time>2022-10-26T13:03:16Z</time>
      </trkpt>
      <trkpt lat="10.231512" lon="-67.889240">
        <ele>446.30</ele>
        <time>2022-10-26T13:03:17Z</time>
      </trkpt>
      <trkpt lat="10.231506" lon="-67.889254">
        <ele>446.30</ele>
        <time>2022-10-26T13:03:18Z</time>
      </trkpt>
      <trkpt lat="10.231495" lon="-67.889281">
        <ele>446.40</ele>
        <time>2022-10-26T13:03:19Z</time>
      </trkpt>
      <trkpt lat="10.231491" lon="-67.889291">
        <ele>446.40</ele>
        <time>2022-10-26T13:03:20Z</time>
      </trkpt>
      <trkpt lat="10.231480" lon="-67.889327">
        <ele>446.40</ele>
        <time>2022-10-26T13:03:21Z</time>
      </trkpt>
      <trkpt lat="10.231477" lon="-67.889341">
        <ele>446.40</ele>
        <time>2022-10-26T13:03:22Z</time>
      </trkpt>
      <trkpt lat="10.231461" lon="-67.889378">
        <ele>446.50</ele>
        <time>2022-10-26T13:03:23Z</time>
      </trkpt>
      <trkpt lat="10.231456" lon="-67.889397">
        <ele>446.50</ele>
        <time>2022-10-26T13:03:24Z</time>
      </trkpt>
      <trkpt lat="10.231452" lon="-67.889432">
        <ele>446.50</ele>
        <time>2022-10-26T13:03:25Z</time>
      </trkpt>
      <trkpt lat="10.231435" lon="-67.889483">
        <ele>446.60</ele>
        <time>2022-10-26T13:03:27Z</time>
      </trkpt>
      <trkpt lat="10.231406" lon="-67.889560">
        <ele>446.70</ele>
        <time>2022-10-26T13:03:29Z</time>
      </trkpt>
      <trkpt lat="10.231391" lon="-67.889614">
        <ele>446.80</ele>
        <time>2022-10-26T13:03:30Z</time>
      </trkpt>
      <trkpt lat="10.231378" lon="-67.889662">
        <ele>446.80</ele>
        <time>2022-10-26T13:03:31Z</time>
      </trkpt>
      <trkpt lat="10.231359" lon="-67.889715">
        <ele>446.90</ele>
        <time>2022-10-26T13:03:32Z</time>
      </trkpt>
      <trkpt lat="10.231338" lon="-67.889764">
        <ele>447.00</ele>
        <time>2022-10-26T13:03:33Z</time>
      </trkpt>
      <trkpt lat="10.231305" lon="-67.889836">
        <ele>447.20</ele>
        <time>2022-10-26T13:03:34Z</time>
      </trkpt>
      <trkpt lat="10.231255" lon="-67.889949">
        <ele>447.30</ele>
        <time>2022-10-26T13:03:35Z</time>
      </trkpt>
      <trkpt lat="10.231220" lon="-67.890027">
        <ele>447.40</ele>
        <time>2022-10-26T13:03:36Z</time>
      </trkpt>
      <trkpt lat="10.231186" lon="-67.890105">
        <ele>447.60</ele>
        <time>2022-10-26T13:03:37Z</time>
      </trkpt>
      <trkpt lat="10.231157" lon="-67.890174">
        <ele>447.70</ele>
        <time>2022-10-26T13:03:38Z</time>
      </trkpt>
      <trkpt lat="10.231133" lon="-67.890236">
        <ele>447.80</ele>
        <time>2022-10-26T13:03:39Z</time>
      </trkpt>
      <trkpt lat="10.231112" lon="-67.890295">
        <ele>447.90</ele>
        <time>2022-10-26T13:03:40Z</time>
      </trkpt>
      <trkpt lat="10.231093" lon="-67.890349">
        <ele>448.00</ele>
        <time>2022-10-26T13:03:41Z</time>
      </trkpt>
      <trkpt lat="10.231071" lon="-67.890400">
        <ele>448.10</ele>
        <time>2022-10-26T13:03:42Z</time>
      </trkpt>
      <trkpt lat="10.231047" lon="-67.890450">
        <ele>448.10</ele>
        <time>2022-10-26T13:03:43Z</time>
      </trkpt>
      <trkpt lat="10.231015" lon="-67.890516">
        <ele>448.30</ele>
        <time>2022-10-26T13:03:44Z</time>
      </trkpt>
      <trkpt lat="10.230992" lon="-67.890570">
        <ele>448.40</ele>
        <time>2022-10-26T13:03:45Z</time>
      </trkpt>
      <trkpt lat="10.230974" lon="-67.890620">
        <ele>448.40</ele>
        <time>2022-10-26T13:03:46Z</time>
      </trkpt>
      <trkpt lat="10.230957" lon="-67.890670">
        <ele>448.50</ele>
        <time>2022-10-26T13:03:47Z</time>
      </trkpt>
      <trkpt lat="10.230936" lon="-67.890717">
        <ele>448.60</ele>
        <time>2022-10-26T13:03:48Z</time>
      </trkpt>
      <trkpt lat="10.230922" lon="-67.890760">
        <ele>448.70</ele>
        <time>2022-10-26T13:03:49Z</time>
      </trkpt>
      <trkpt lat="10.230915" lon="-67.890808">
        <ele>448.80</ele>
        <time>2022-10-26T13:03:50Z</time>
      </trkpt>
      <trkpt lat="10.230912" lon="-67.890845">
        <ele>448.80</ele>
        <time>2022-10-26T13:03:51Z</time>
      </trkpt>
      <trkpt lat="10.230897" lon="-67.890874">
        <ele>448.90</ele>
        <time>2022-10-26T13:03:52Z</time>
      </trkpt>
      <trkpt lat="10.230876" lon="-67.890919">
        <ele>449.00</ele>
        <time>2022-10-26T13:03:53Z</time>
      </trkpt>
      <trkpt lat="10.230858" lon="-67.890961">
        <ele>449.10</ele>
        <time>2022-10-26T13:03:54Z</time>
      </trkpt>
      <trkpt lat="10.230845" lon="-67.891012">
        <ele>449.10</ele>
        <time>2022-10-26T13:03:55Z</time>
      </trkpt>
      <trkpt lat="10.230837" lon="-67.891051">
        <ele>449.20</ele>
        <time>2022-10-26T13:03:56Z</time>
      </trkpt>
      <trkpt lat="10.230828" lon="-67.891082">
        <ele>449.30</ele>
        <time>2022-10-26T13:03:57Z</time>
      </trkpt>
      <trkpt lat="10.230821" lon="-67.891109">
        <ele>449.30</ele>
        <time>2022-10-26T13:03:58Z</time>
      </trkpt>
      <trkpt lat="10.230818" lon="-67.891118">
        <ele>449.30</ele>
        <time>2022-10-26T13:03:59Z</time>
      </trkpt>
      <trkpt lat="10.230809" lon="-67.891152">
        <ele>449.40</ele>
        <time>2022-10-26T13:04:01Z</time>
      </trkpt>
      <trkpt lat="10.230806" lon="-67.891160">
        <ele>449.40</ele>
        <time>2022-10-26T13:04:02Z</time>
      </trkpt>
      <trkpt lat="10.230792" lon="-67.891190">
        <ele>449.50</ele>
        <time>2022-10-26T13:04:03Z</time>
      </trkpt>
      <trkpt lat="10.230787" lon="-67.891202">
        <ele>449.50</ele>
        <time>2022-10-26T13:04:04Z</time>
      </trkpt>
      <trkpt lat="10.230769" lon="-67.891234">
        <ele>449.60</ele>
        <time>2022-10-26T13:04:05Z</time>
      </trkpt>
      <trkpt lat="10.230762" lon="-67.891246">
        <ele>449.60</ele>
        <time>2022-10-26T13:04:06Z</time>
      </trkpt>
      <trkpt lat="10.230748" lon="-67.891270">
        <ele>449.60</ele>
        <time>2022-10-26T13:04:07Z</time>
      </trkpt>
      <trkpt lat="10.230733" lon="-67.891296">
        <ele>449.70</ele>
        <time>2022-10-26T13:04:08Z</time>
      </trkpt>
      <trkpt lat="10.230722" lon="-67.891322">
        <ele>449.70</ele>
        <time>2022-10-26T13:04:09Z</time>
      </trkpt>
      <trkpt lat="10.230709" lon="-67.891357">
        <ele>449.80</ele>
        <time>2022-10-26T13:04:10Z</time>
      </trkpt>
      <trkpt lat="10.230703" lon="-67.891371">
        <ele>449.80</ele>
        <time>2022-10-26T13:04:11Z</time>
      </trkpt>
      <trkpt lat="10.230682" lon="-67.891421">
        <ele>449.90</ele>
        <time>2022-10-26T13:04:12Z</time>
      </trkpt>
      <trkpt lat="10.230657" lon="-67.891481">
        <ele>450.00</ele>
        <time>2022-10-26T13:04:13Z</time>
      </trkpt>
      <trkpt lat="10.230634" lon="-67.891532">
        <ele>450.00</ele>
        <time>2022-10-26T13:04:14Z</time>
      </trkpt>
      <trkpt lat="10.230608" lon="-67.891583">
        <ele>450.00</ele>
        <time>2022-10-26T13:04:16Z</time>
      </trkpt>
      <trkpt lat="10.230516" lon="-67.891733">
        <ele>450.10</ele>
        <time>2022-10-26T13:04:17Z</time>
      </trkpt>
      <trkpt lat="10.230385" lon="-67.891887">
        <ele>450.20</ele>
        <time>2022-10-26T13:04:18Z</time>
      </trkpt>
      <trkpt lat="10.230287" lon="-67.892009">
        <ele>450.30</ele>
        <time>2022-10-26T13:04:19Z</time>
      </trkpt>
      <trkpt lat="10.230227" lon="-67.892098">
        <ele>450.30</ele>
        <time>2022-10-26T13:04:20Z</time>
      </trkpt>
      <trkpt lat="10.230181" lon="-67.892170">
        <ele>450.40</ele>
        <time>2022-10-26T13:04:21Z</time>
      </trkpt>
      <trkpt lat="10.230137" lon="-67.892239">
        <ele>450.40</ele>
        <time>2022-10-26T13:04:22Z</time>
      </trkpt>
      <trkpt lat="10.230102" lon="-67.892306">
        <ele>450.40</ele>
        <time>2022-10-26T13:04:23Z</time>
      </trkpt>
      <trkpt lat="10.230073" lon="-67.892368">
        <ele>450.50</ele>
        <time>2022-10-26T13:04:24Z</time>
      </trkpt>
      <trkpt lat="10.230042" lon="-67.892430">
        <ele>450.50</ele>
        <time>2022-10-26T13:04:25Z</time>
      </trkpt>
      <trkpt lat="10.230018" lon="-67.892489">
        <ele>450.50</ele>
        <time>2022-10-26T13:04:26Z</time>
      </trkpt>
      <trkpt lat="10.229990" lon="-67.892540">
        <ele>450.50</ele>
        <time>2022-10-26T13:04:27Z</time>
      </trkpt>
      <trkpt lat="10.229961" lon="-67.892594">
        <ele>450.50</ele>
        <time>2022-10-26T13:04:28Z</time>
      </trkpt>
      <trkpt lat="10.229930" lon="-67.892646">
        <ele>450.50</ele>
        <time>2022-10-26T13:04:29Z</time>
      </trkpt>
      <trkpt lat="10.229912" lon="-67.892704">
        <ele>450.50</ele>
        <time>2022-10-26T13:04:30Z</time>
      </trkpt>
      <trkpt lat="10.229886" lon="-67.892764">
        <ele>450.60</ele>
        <time>2022-10-26T13:04:31Z</time>
      </trkpt>
      <trkpt lat="10.229852" lon="-67.892824">
        <ele>450.60</ele>
        <time>2022-10-26T13:04:32Z</time>
      </trkpt>
      <trkpt lat="10.229825" lon="-67.892880">
        <ele>450.60</ele>
        <time>2022-10-26T13:04:33Z</time>
      </trkpt>
      <trkpt lat="10.229794" lon="-67.892937">
        <ele>450.50</ele>
        <time>2022-10-26T13:04:34Z</time>
      </trkpt>
      <trkpt lat="10.229759" lon="-67.892996">
        <ele>450.50</ele>
        <time>2022-10-26T13:04:35Z</time>
      </trkpt>
      <trkpt lat="10.229727" lon="-67.893050">
        <ele>450.50</ele>
        <time>2022-10-26T13:04:36Z</time>
      </trkpt>
      <trkpt lat="10.229703" lon="-67.893105">
        <ele>450.50</ele>
        <time>2022-10-26T13:04:37Z</time>
      </trkpt>
      <trkpt lat="10.229676" lon="-67.893165">
        <ele>450.50</ele>
        <time>2022-10-26T13:04:38Z</time>
      </trkpt>
      <trkpt lat="10.229659" lon="-67.893223">
        <ele>450.40</ele>
        <time>2022-10-26T13:04:39Z</time>
      </trkpt>
      <trkpt lat="10.229638" lon="-67.893283">
        <ele>450.40</ele>
        <time>2022-10-26T13:04:40Z</time>
      </trkpt>
      <trkpt lat="10.229608" lon="-67.893343">
        <ele>450.40</ele>
        <time>2022-10-26T13:04:41Z</time>
      </trkpt>
      <trkpt lat="10.229571" lon="-67.893408">
        <ele>450.40</ele>
        <time>2022-10-26T13:04:42Z</time>
      </trkpt>
      <trkpt lat="10.229536" lon="-67.893469">
        <ele>450.30</ele>
        <time>2022-10-26T13:04:43Z</time>
      </trkpt>
      <trkpt lat="10.229505" lon="-67.893533">
        <ele>450.30</ele>
        <time>2022-10-26T13:04:44Z</time>
      </trkpt>
      <trkpt lat="10.229475" lon="-67.893595">
        <ele>450.20</ele>
        <time>2022-10-26T13:04:45Z</time>
      </trkpt>
      <trkpt lat="10.229443" lon="-67.893654">
        <ele>450.10</ele>
        <time>2022-10-26T13:04:46Z</time>
      </trkpt>
      <trkpt lat="10.229413" lon="-67.893719">
        <ele>450.10</ele>
        <time>2022-10-26T13:04:47Z</time>
      </trkpt>
      <trkpt lat="10.229384" lon="-67.893781">
        <ele>450.00</ele>
        <time>2022-10-26T13:04:48Z</time>
      </trkpt>
      <trkpt lat="10.229356" lon="-67.893844">
        <ele>450.00</ele>
        <time>2022-10-26T13:04:49Z</time>
      </trkpt>
      <trkpt lat="10.229325" lon="-67.893908">
        <ele>449.90</ele>
        <time>2022-10-26T13:04:50Z</time>
      </trkpt>
      <trkpt lat="10.229291" lon="-67.893969">
        <ele>449.90</ele>
        <time>2022-10-26T13:04:51Z</time>
      </trkpt>
      <trkpt lat="10.229260" lon="-67.894026">
        <ele>449.90</ele>
        <time>2022-10-26T13:04:52Z</time>
      </trkpt>
      <trkpt lat="10.229229" lon="-67.894090">
        <ele>449.80</ele>
        <time>2022-10-26T13:04:53Z</time>
      </trkpt>
      <trkpt lat="10.229197" lon="-67.894144">
        <ele>449.80</ele>
        <time>2022-10-26T13:04:54Z</time>
      </trkpt>
      <trkpt lat="10.229165" lon="-67.894196">
        <ele>449.80</ele>
        <time>2022-10-26T13:04:55Z</time>
      </trkpt>
      <trkpt lat="10.229133" lon="-67.894252">
        <ele>449.80</ele>
        <time>2022-10-26T13:04:56Z</time>
      </trkpt>
      <trkpt lat="10.229101" lon="-67.894311">
        <ele>449.70</ele>
        <time>2022-10-26T13:04:57Z</time>
      </trkpt>
      <trkpt lat="10.229073" lon="-67.894372">
        <ele>449.70</ele>
        <time>2022-10-26T13:04:58Z</time>
      </trkpt>
      <trkpt lat="10.229042" lon="-67.894437">
        <ele>449.70</ele>
        <time>2022-10-26T13:04:59Z</time>
      </trkpt>
      <trkpt lat="10.229010" lon="-67.894497">
        <ele>449.60</ele>
        <time>2022-10-26T13:05:00Z</time>
      </trkpt>
      <trkpt lat="10.228980" lon="-67.894556">
        <ele>449.60</ele>
        <time>2022-10-26T13:05:01Z</time>
      </trkpt>
      <trkpt lat="10.228961" lon="-67.894619">
        <ele>449.50</ele>
        <time>2022-10-26T13:05:02Z</time>
      </trkpt>
      <trkpt lat="10.228942" lon="-67.894676">
        <ele>449.50</ele>
        <time>2022-10-26T13:05:03Z</time>
      </trkpt>
      <trkpt lat="10.228894" lon="-67.894726">
        <ele>449.40</ele>
        <time>2022-10-26T13:05:04Z</time>
      </trkpt>
      <trkpt lat="10.228855" lon="-67.894785">
        <ele>449.30</ele>
        <time>2022-10-26T13:05:05Z</time>
      </trkpt>
      <trkpt lat="10.228819" lon="-67.894837">
        <ele>449.30</ele>
        <time>2022-10-26T13:05:06Z</time>
      </trkpt>
      <trkpt lat="10.228786" lon="-67.894896">
        <ele>449.20</ele>
        <time>2022-10-26T13:05:07Z</time>
      </trkpt>
      <trkpt lat="10.228751" lon="-67.894956">
        <ele>449.20</ele>
        <time>2022-10-26T13:05:08Z</time>
      </trkpt>
      <trkpt lat="10.228717" lon="-67.895020">
        <ele>449.10</ele>
        <time>2022-10-26T13:05:09Z</time>
      </trkpt>
      <trkpt lat="10.228674" lon="-67.895080">
        <ele>449.00</ele>
        <time>2022-10-26T13:05:10Z</time>
      </trkpt>
      <trkpt lat="10.228637" lon="-67.895148">
        <ele>448.90</ele>
        <time>2022-10-26T13:05:11Z</time>
      </trkpt>
      <trkpt lat="10.228610" lon="-67.895210">
        <ele>448.90</ele>
        <time>2022-10-26T13:05:12Z</time>
      </trkpt>
      <trkpt lat="10.228585" lon="-67.895264">
        <ele>448.90</ele>
        <time>2022-10-26T13:05:13Z</time>
      </trkpt>
      <trkpt lat="10.228558" lon="-67.895314">
        <ele>448.90</ele>
        <time>2022-10-26T13:05:14Z</time>
      </trkpt>
      <trkpt lat="10.228522" lon="-67.895367">
        <ele>448.80</ele>
        <time>2022-10-26T13:05:15Z</time>
      </trkpt>
      <trkpt lat="10.228488" lon="-67.895425">
        <ele>448.80</ele>
        <time>2022-10-26T13:05:16Z</time>
      </trkpt>
      <trkpt lat="10.228454" lon="-67.895480">
        <ele>448.80</ele>
        <time>2022-10-26T13:05:17Z</time>
      </trkpt>
      <trkpt lat="10.228432" lon="-67.895541">
        <ele>448.70</ele>
        <time>2022-10-26T13:05:18Z</time>
      </trkpt>
      <trkpt lat="10.228412" lon="-67.895607">
        <ele>448.70</ele>
        <time>2022-10-26T13:05:19Z</time>
      </trkpt>
      <trkpt lat="10.228395" lon="-67.895673">
        <ele>448.60</ele>
        <time>2022-10-26T13:05:20Z</time>
      </trkpt>
      <trkpt lat="10.228391" lon="-67.895742">
        <ele>448.60</ele>
        <time>2022-10-26T13:05:21Z</time>
      </trkpt>
      <trkpt lat="10.228378" lon="-67.895805">
        <ele>448.50</ele>
        <time>2022-10-26T13:05:22Z</time>
      </trkpt>
      <trkpt lat="10.228346" lon="-67.895855">
        <ele>448.50</ele>
        <time>2022-10-26T13:05:23Z</time>
      </trkpt>
      <trkpt lat="10.228306" lon="-67.895906">
        <ele>448.40</ele>
        <time>2022-10-26T13:05:24Z</time>
      </trkpt>
      <trkpt lat="10.228220" lon="-67.895994">
        <ele>448.20</ele>
        <time>2022-10-26T13:05:25Z</time>
      </trkpt>
      <trkpt lat="10.228162" lon="-67.896075">
        <ele>448.10</ele>
        <time>2022-10-26T13:05:26Z</time>
      </trkpt>
      <trkpt lat="10.228116" lon="-67.896151">
        <ele>448.00</ele>
        <time>2022-10-26T13:05:27Z</time>
      </trkpt>
      <trkpt lat="10.228077" lon="-67.896221">
        <ele>447.90</ele>
        <time>2022-10-26T13:05:28Z</time>
      </trkpt>
      <trkpt lat="10.228041" lon="-67.896291">
        <ele>447.80</ele>
        <time>2022-10-26T13:05:29Z</time>
      </trkpt>
      <trkpt lat="10.228022" lon="-67.896358">
        <ele>447.70</ele>
        <time>2022-10-26T13:05:30Z</time>
      </trkpt>
      <trkpt lat="10.228001" lon="-67.896434">
        <ele>447.70</ele>
        <time>2022-10-26T13:05:31Z</time>
      </trkpt>
      <trkpt lat="10.227975" lon="-67.896508">
        <ele>447.60</ele>
        <time>2022-10-26T13:05:32Z</time>
      </trkpt>
      <trkpt lat="10.227934" lon="-67.896570">
        <ele>447.60</ele>
        <time>2022-10-26T13:05:33Z</time>
      </trkpt>
      <trkpt lat="10.227883" lon="-67.896620">
        <ele>447.50</ele>
        <time>2022-10-26T13:05:34Z</time>
      </trkpt>
      <trkpt lat="10.227851" lon="-67.896683">
        <ele>447.50</ele>
        <time>2022-10-26T13:05:35Z</time>
      </trkpt>
      <trkpt lat="10.227821" lon="-67.896753">
        <ele>447.50</ele>
        <time>2022-10-26T13:05:36Z</time>
      </trkpt>
      <trkpt lat="10.227782" lon="-67.896828">
        <ele>447.40</ele>
        <time>2022-10-26T13:05:37Z</time>
      </trkpt>
      <trkpt lat="10.227747" lon="-67.896902">
        <ele>447.40</ele>
        <time>2022-10-26T13:05:38Z</time>
      </trkpt>
      <trkpt lat="10.227712" lon="-67.896964">
        <ele>447.40</ele>
        <time>2022-10-26T13:05:39Z</time>
      </trkpt>
      <trkpt lat="10.227692" lon="-67.897020">
        <ele>447.40</ele>
        <time>2022-10-26T13:05:40Z</time>
      </trkpt>
      <trkpt lat="10.227680" lon="-67.897074">
        <ele>447.50</ele>
        <time>2022-10-26T13:05:41Z</time>
      </trkpt>
      <trkpt lat="10.227656" lon="-67.897131">
        <ele>447.50</ele>
        <time>2022-10-26T13:05:42Z</time>
      </trkpt>
      <trkpt lat="10.227634" lon="-67.897190">
        <ele>447.50</ele>
        <time>2022-10-26T13:05:43Z</time>
      </trkpt>
      <trkpt lat="10.227607" lon="-67.897247">
        <ele>447.50</ele>
        <time>2022-10-26T13:05:44Z</time>
      </trkpt>
      <trkpt lat="10.227590" lon="-67.897301">
        <ele>447.50</ele>
        <time>2022-10-26T13:05:45Z</time>
      </trkpt>
      <trkpt lat="10.227561" lon="-67.897355">
        <ele>447.50</ele>
        <time>2022-10-26T13:05:46Z</time>
      </trkpt>
      <trkpt lat="10.227531" lon="-67.897413">
        <ele>447.60</ele>
        <time>2022-10-26T13:05:47Z</time>
      </trkpt>
      <trkpt lat="10.227503" lon="-67.897473">
        <ele>447.60</ele>
        <time>2022-10-26T13:05:48Z</time>
      </trkpt>
      <trkpt lat="10.227474" lon="-67.897535">
        <ele>447.60</ele>
        <time>2022-10-26T13:05:49Z</time>
      </trkpt>
      <trkpt lat="10.227433" lon="-67.897599">
        <ele>447.60</ele>
        <time>2022-10-26T13:05:50Z</time>
      </trkpt>
      <trkpt lat="10.227399" lon="-67.897660">
        <ele>447.60</ele>
        <time>2022-10-26T13:05:51Z</time>
      </trkpt>
      <trkpt lat="10.227369" lon="-67.897719">
        <ele>447.50</ele>
        <time>2022-10-26T13:05:52Z</time>
      </trkpt>
      <trkpt lat="10.227349" lon="-67.897777">
        <ele>447.60</ele>
        <time>2022-10-26T13:05:53Z</time>
      </trkpt>
      <trkpt lat="10.227327" lon="-67.897830">
        <ele>447.60</ele>
        <time>2022-10-26T13:05:54Z</time>
      </trkpt>
      <trkpt lat="10.227297" lon="-67.897878">
        <ele>447.60</ele>
        <time>2022-10-26T13:05:55Z</time>
      </trkpt>
      <trkpt lat="10.227288" lon="-67.897918">
        <ele>447.70</ele>
        <time>2022-10-26T13:05:56Z</time>
      </trkpt>
      <trkpt lat="10.227276" lon="-67.897957">
        <ele>447.70</ele>
        <time>2022-10-26T13:05:57Z</time>
      </trkpt>
      <trkpt lat="10.227257" lon="-67.897997">
        <ele>447.70</ele>
        <time>2022-10-26T13:05:58Z</time>
      </trkpt>
      <trkpt lat="10.227059" lon="-67.898190">
        <ele>447.70</ele>
        <time>2022-10-26T13:06:04Z</time>
      </trkpt>
      <trkpt lat="10.227044" lon="-67.898260">
        <ele>447.70</ele>
        <time>2022-10-26T13:06:05Z</time>
      </trkpt>
      <trkpt lat="10.227039" lon="-67.898343">
        <ele>447.60</ele>
        <time>2022-10-26T13:06:06Z</time>
      </trkpt>
      <trkpt lat="10.227022" lon="-67.898415">
        <ele>447.60</ele>
        <time>2022-10-26T13:06:07Z</time>
      </trkpt>
      <trkpt lat="10.226994" lon="-67.898470">
        <ele>447.60</ele>
        <time>2022-10-26T13:06:08Z</time>
      </trkpt>
      <trkpt lat="10.226961" lon="-67.898524">
        <ele>447.60</ele>
        <time>2022-10-26T13:06:09Z</time>
      </trkpt>
      <trkpt lat="10.226924" lon="-67.898578">
        <ele>447.70</ele>
        <time>2022-10-26T13:06:10Z</time>
      </trkpt>
      <trkpt lat="10.226891" lon="-67.898630">
        <ele>447.70</ele>
        <time>2022-10-26T13:06:11Z</time>
      </trkpt>
      <trkpt lat="10.226859" lon="-67.898672">
        <ele>447.70</ele>
        <time>2022-10-26T13:06:12Z</time>
      </trkpt>
      <trkpt lat="10.226825" lon="-67.898711">
        <ele>447.70</ele>
        <time>2022-10-26T13:06:13Z</time>
      </trkpt>
      <trkpt lat="10.226784" lon="-67.898754">
        <ele>447.70</ele>
        <time>2022-10-26T13:06:14Z</time>
      </trkpt>
      <trkpt lat="10.226735" lon="-67.898799">
        <ele>447.70</ele>
        <time>2022-10-26T13:06:15Z</time>
      </trkpt>
      <trkpt lat="10.226682" lon="-67.898857">
        <ele>447.80</ele>
        <time>2022-10-26T13:06:16Z</time>
      </trkpt>
      <trkpt lat="10.226644" lon="-67.898912">
        <ele>447.80</ele>
        <time>2022-10-26T13:06:17Z</time>
      </trkpt>
      <trkpt lat="10.226614" lon="-67.898967">
        <ele>447.80</ele>
        <time>2022-10-26T13:06:18Z</time>
      </trkpt>
      <trkpt lat="10.226590" lon="-67.899019">
        <ele>447.90</ele>
        <time>2022-10-26T13:06:19Z</time>
      </trkpt>
      <trkpt lat="10.226566" lon="-67.899063">
        <ele>447.90</ele>
        <time>2022-10-26T13:06:20Z</time>
      </trkpt>
      <trkpt lat="10.226535" lon="-67.899111">
        <ele>447.90</ele>
        <time>2022-10-26T13:06:21Z</time>
      </trkpt>
      <trkpt lat="10.226515" lon="-67.899166">
        <ele>447.90</ele>
        <time>2022-10-26T13:06:22Z</time>
      </trkpt>
      <trkpt lat="10.226496" lon="-67.899222">
        <ele>447.90</ele>
        <time>2022-10-26T13:06:23Z</time>
      </trkpt>
      <trkpt lat="10.226475" lon="-67.899277">
        <ele>448.00</ele>
        <time>2022-10-26T13:06:24Z</time>
      </trkpt>
      <trkpt lat="10.226452" lon="-67.899329">
        <ele>448.10</ele>
        <time>2022-10-26T13:06:25Z</time>
      </trkpt>
      <trkpt lat="10.226409" lon="-67.899376">
        <ele>448.10</ele>
        <time>2022-10-26T13:06:26Z</time>
      </trkpt>
      <trkpt lat="10.226374" lon="-67.899421">
        <ele>448.10</ele>
        <time>2022-10-26T13:06:27Z</time>
      </trkpt>
      <trkpt lat="10.226354" lon="-67.899466">
        <ele>448.20</ele>
        <time>2022-10-26T13:06:28Z</time>
      </trkpt>
      <trkpt lat="10.226336" lon="-67.899507">
        <ele>448.20</ele>
        <time>2022-10-26T13:06:29Z</time>
      </trkpt>
      <trkpt lat="10.226306" lon="-67.899543">
        <ele>448.20</ele>
        <time>2022-10-26T13:06:30Z</time>
      </trkpt>
      <trkpt lat="10.226280" lon="-67.899575">
        <ele>448.20</ele>
        <time>2022-10-26T13:06:31Z</time>
      </trkpt>
      <trkpt lat="10.226274" lon="-67.899592">
        <ele>448.20</ele>
        <time>2022-10-26T13:06:32Z</time>
      </trkpt>
      <trkpt lat="10.226269" lon="-67.899604">
        <ele>448.20</ele>
        <time>2022-10-26T13:06:33Z</time>
      </trkpt>
      <trkpt lat="10.226264" lon="-67.899615">
        <ele>448.20</ele>
        <time>2022-10-26T13:06:34Z</time>
      </trkpt>
      <trkpt lat="10.226249" lon="-67.899638">
        <ele>448.20</ele>
        <time>2022-10-26T13:06:35Z</time>
      </trkpt>
      <trkpt lat="10.226233" lon="-67.899665">
        <ele>448.20</ele>
        <time>2022-10-26T13:06:36Z</time>
      </trkpt>
      <trkpt lat="10.226212" lon="-67.899696">
        <ele>448.20</ele>
        <time>2022-10-26T13:06:37Z</time>
      </trkpt>
      <trkpt lat="10.226193" lon="-67.899723">
        <ele>448.20</ele>
        <time>2022-10-26T13:06:38Z</time>
      </trkpt>
      <trkpt lat="10.226171" lon="-67.899755">
        <ele>448.20</ele>
        <time>2022-10-26T13:06:39Z</time>
      </trkpt>
      <trkpt lat="10.226150" lon="-67.899780">
        <ele>448.30</ele>
        <time>2022-10-26T13:06:40Z</time>
      </trkpt>
      <trkpt lat="10.226114" lon="-67.899818">
        <ele>448.30</ele>
        <time>2022-10-26T13:06:41Z</time>
      </trkpt>
      <trkpt lat="10.226069" lon="-67.899870">
        <ele>448.40</ele>
        <time>2022-10-26T13:06:42Z</time>
      </trkpt>
      <trkpt lat="10.225859" lon="-67.900076">
        <ele>448.70</ele>
        <time>2022-10-26T13:06:44Z</time>
      </trkpt>
      <trkpt lat="10.225785" lon="-67.900141">
        <ele>448.70</ele>
        <time>2022-10-26T13:06:45Z</time>
      </trkpt>
      <trkpt lat="10.225719" lon="-67.900215">
        <ele>448.80</ele>
        <time>2022-10-26T13:06:46Z</time>
      </trkpt>
      <trkpt lat="10.225676" lon="-67.900281">
        <ele>448.80</ele>
        <time>2022-10-26T13:06:47Z</time>
      </trkpt>
      <trkpt lat="10.225634" lon="-67.900338">
        <ele>448.90</ele>
        <time>2022-10-26T13:06:48Z</time>
      </trkpt>
      <trkpt lat="10.225603" lon="-67.900387">
        <ele>448.90</ele>
        <time>2022-10-26T13:06:49Z</time>
      </trkpt>
      <trkpt lat="10.225572" lon="-67.900431">
        <ele>448.90</ele>
        <time>2022-10-26T13:06:50Z</time>
      </trkpt>
      <trkpt lat="10.225546" lon="-67.900479">
        <ele>449.00</ele>
        <time>2022-10-26T13:06:51Z</time>
      </trkpt>
      <trkpt lat="10.225515" lon="-67.900521">
        <ele>449.00</ele>
        <time>2022-10-26T13:06:52Z</time>
      </trkpt>
      <trkpt lat="10.225480" lon="-67.900566">
        <ele>449.00</ele>
        <time>2022-10-26T13:06:53Z</time>
      </trkpt>
      <trkpt lat="10.225445" lon="-67.900606">
        <ele>449.00</ele>
        <time>2022-10-26T13:06:54Z</time>
      </trkpt>
      <trkpt lat="10.225410" lon="-67.900636">
        <ele>449.00</ele>
        <time>2022-10-26T13:06:55Z</time>
      </trkpt>
      <trkpt lat="10.225369" lon="-67.900670">
        <ele>449.00</ele>
        <time>2022-10-26T13:06:56Z</time>
      </trkpt>
      <trkpt lat="10.225327" lon="-67.900707">
        <ele>449.10</ele>
        <time>2022-10-26T13:06:57Z</time>
      </trkpt>
      <trkpt lat="10.225292" lon="-67.900748">
        <ele>449.10</ele>
        <time>2022-10-26T13:06:58Z</time>
      </trkpt>
      <trkpt lat="10.225255" lon="-67.900792">
        <ele>449.10</ele>
        <time>2022-10-26T13:06:59Z</time>
      </trkpt>
      <trkpt lat="10.225230" lon="-67.900834">
        <ele>449.10</ele>
        <time>2022-10-26T13:07:00Z</time>
      </trkpt>
      <trkpt lat="10.225206" lon="-67.900876">
        <ele>449.10</ele>
        <time>2022-10-26T13:07:01Z</time>
      </trkpt>
      <trkpt lat="10.225168" lon="-67.900909">
        <ele>449.10</ele>
        <time>2022-10-26T13:07:02Z</time>
      </trkpt>
      <trkpt lat="10.225126" lon="-67.900937">
        <ele>449.20</ele>
        <time>2022-10-26T13:07:03Z</time>
      </trkpt>
      <trkpt lat="10.225092" lon="-67.900973">
        <ele>449.20</ele>
        <time>2022-10-26T13:07:04Z</time>
      </trkpt>
      <trkpt lat="10.225055" lon="-67.901010">
        <ele>449.20</ele>
        <time>2022-10-26T13:07:05Z</time>
      </trkpt>
      <trkpt lat="10.225014" lon="-67.901046">
        <ele>449.20</ele>
        <time>2022-10-26T13:07:06Z</time>
      </trkpt>
      <trkpt lat="10.224974" lon="-67.901081">
        <ele>449.20</ele>
        <time>2022-10-26T13:07:07Z</time>
      </trkpt>
      <trkpt lat="10.224936" lon="-67.901123">
        <ele>449.20</ele>
        <time>2022-10-26T13:07:08Z</time>
      </trkpt>
      <trkpt lat="10.224892" lon="-67.901164">
        <ele>449.20</ele>
        <time>2022-10-26T13:07:09Z</time>
      </trkpt>
      <trkpt lat="10.224851" lon="-67.901208">
        <ele>449.20</ele>
        <time>2022-10-26T13:07:10Z</time>
      </trkpt>
      <trkpt lat="10.224823" lon="-67.901251">
        <ele>449.20</ele>
        <time>2022-10-26T13:07:11Z</time>
      </trkpt>
      <trkpt lat="10.224784" lon="-67.901284">
        <ele>449.20</ele>
        <time>2022-10-26T13:07:12Z</time>
      </trkpt>
      <trkpt lat="10.224736" lon="-67.901319">
        <ele>449.20</ele>
        <time>2022-10-26T13:07:13Z</time>
      </trkpt>
      <trkpt lat="10.224685" lon="-67.901353">
        <ele>449.20</ele>
        <time>2022-10-26T13:07:14Z</time>
      </trkpt>
      <trkpt lat="10.224641" lon="-67.901399">
        <ele>449.20</ele>
        <time>2022-10-26T13:07:15Z</time>
      </trkpt>
      <trkpt lat="10.224568" lon="-67.901434">
        <ele>449.20</ele>
        <time>2022-10-26T13:07:16Z</time>
      </trkpt>
      <trkpt lat="10.224492" lon="-67.901479">
        <ele>449.20</ele>
        <time>2022-10-26T13:07:17Z</time>
      </trkpt>
      <trkpt lat="10.224433" lon="-67.901526">
        <ele>449.20</ele>
        <time>2022-10-26T13:07:18Z</time>
      </trkpt>
      <trkpt lat="10.224373" lon="-67.901572">
        <ele>449.30</ele>
        <time>2022-10-26T13:07:19Z</time>
      </trkpt>
      <trkpt lat="10.224313" lon="-67.901618">
        <ele>449.30</ele>
        <time>2022-10-26T13:07:20Z</time>
      </trkpt>
      <trkpt lat="10.224258" lon="-67.901657">
        <ele>449.30</ele>
        <time>2022-10-26T13:07:21Z</time>
      </trkpt>
      <trkpt lat="10.224217" lon="-67.901689">
        <ele>449.30</ele>
        <time>2022-10-26T13:07:22Z</time>
      </trkpt>
      <trkpt lat="10.224204" lon="-67.901710">
        <ele>449.30</ele>
        <time>2022-10-26T13:07:23Z</time>
      </trkpt>
      <trkpt lat="10.224196" lon="-67.901726">
        <ele>449.40</ele>
        <time>2022-10-26T13:07:24Z</time>
      </trkpt>
      <trkpt lat="10.224188" lon="-67.901741">
        <ele>449.40</ele>
        <time>2022-10-26T13:07:25Z</time>
      </trkpt>
      <trkpt lat="10.224168" lon="-67.901780">
        <ele>449.40</ele>
        <time>2022-10-26T13:07:26Z</time>
      </trkpt>
      <trkpt lat="10.224109" lon="-67.901847">
        <ele>449.40</ele>
        <time>2022-10-26T13:07:27Z</time>
      </trkpt>
      <trkpt lat="10.224027" lon="-67.901915">
        <ele>449.30</ele>
        <time>2022-10-26T13:07:28Z</time>
      </trkpt>
      <trkpt lat="10.223967" lon="-67.901986">
        <ele>449.30</ele>
        <time>2022-10-26T13:07:29Z</time>
      </trkpt>
      <trkpt lat="10.223889" lon="-67.902041">
        <ele>449.20</ele>
        <time>2022-10-26T13:07:30Z</time>
      </trkpt>
      <trkpt lat="10.223823" lon="-67.902093">
        <ele>449.10</ele>
        <time>2022-10-26T13:07:31Z</time>
      </trkpt>
      <trkpt lat="10.223752" lon="-67.902128">
        <ele>449.00</ele>
        <time>2022-10-26T13:07:32Z</time>
      </trkpt>
      <trkpt lat="10.223691" lon="-67.902159">
        <ele>448.90</ele>
        <time>2022-10-26T13:07:33Z</time>
      </trkpt>
      <trkpt lat="10.223642" lon="-67.902199">
        <ele>448.80</ele>
        <time>2022-10-26T13:07:34Z</time>
      </trkpt>
      <trkpt lat="10.223593" lon="-67.902249">
        <ele>448.80</ele>
        <time>2022-10-26T13:07:35Z</time>
      </trkpt>
      <trkpt lat="10.223531" lon="-67.902298">
        <ele>448.70</ele>
        <time>2022-10-26T13:07:36Z</time>
      </trkpt>
      <trkpt lat="10.223475" lon="-67.902349">
        <ele>448.60</ele>
        <time>2022-10-26T13:07:37Z</time>
      </trkpt>
      <trkpt lat="10.223423" lon="-67.902398">
        <ele>448.50</ele>
        <time>2022-10-26T13:07:38Z</time>
      </trkpt>
      <trkpt lat="10.223377" lon="-67.902447">
        <ele>448.40</ele>
        <time>2022-10-26T13:07:39Z</time>
      </trkpt>
      <trkpt lat="10.223320" lon="-67.902497">
        <ele>448.30</ele>
        <time>2022-10-26T13:07:40Z</time>
      </trkpt>
      <trkpt lat="10.223268" lon="-67.902543">
        <ele>448.30</ele>
        <time>2022-10-26T13:07:41Z</time>
      </trkpt>
      <trkpt lat="10.223215" lon="-67.902575">
        <ele>448.20</ele>
        <time>2022-10-26T13:07:42Z</time>
      </trkpt>
      <trkpt lat="10.223156" lon="-67.902607">
        <ele>448.10</ele>
        <time>2022-10-26T13:07:43Z</time>
      </trkpt>
      <trkpt lat="10.223103" lon="-67.902639">
        <ele>448.00</ele>
        <time>2022-10-26T13:07:44Z</time>
      </trkpt>
      <trkpt lat="10.223047" lon="-67.902679">
        <ele>448.00</ele>
        <time>2022-10-26T13:07:45Z</time>
      </trkpt>
      <trkpt lat="10.222996" lon="-67.902720">
        <ele>447.90</ele>
        <time>2022-10-26T13:07:46Z</time>
      </trkpt>
      <trkpt lat="10.222957" lon="-67.902785">
        <ele>447.80</ele>
        <time>2022-10-26T13:07:47Z</time>
      </trkpt>
      <trkpt lat="10.222914" lon="-67.902850">
        <ele>447.70</ele>
        <time>2022-10-26T13:07:48Z</time>
      </trkpt>
      <trkpt lat="10.222863" lon="-67.902898">
        <ele>447.60</ele>
        <time>2022-10-26T13:07:49Z</time>
      </trkpt>
      <trkpt lat="10.222810" lon="-67.902940">
        <ele>447.60</ele>
        <time>2022-10-26T13:07:50Z</time>
      </trkpt>
      <trkpt lat="10.222755" lon="-67.902979">
        <ele>447.50</ele>
        <time>2022-10-26T13:07:51Z</time>
      </trkpt>
      <trkpt lat="10.222705" lon="-67.903020">
        <ele>447.40</ele>
        <time>2022-10-26T13:07:52Z</time>
      </trkpt>
      <trkpt lat="10.222655" lon="-67.903064">
        <ele>447.40</ele>
        <time>2022-10-26T13:07:53Z</time>
      </trkpt>
      <trkpt lat="10.222605" lon="-67.903103">
        <ele>447.30</ele>
        <time>2022-10-26T13:07:54Z</time>
      </trkpt>
      <trkpt lat="10.222551" lon="-67.903142">
        <ele>447.30</ele>
        <time>2022-10-26T13:07:55Z</time>
      </trkpt>
      <trkpt lat="10.222492" lon="-67.903184">
        <ele>447.20</ele>
        <time>2022-10-26T13:07:56Z</time>
      </trkpt>
      <trkpt lat="10.222431" lon="-67.903229">
        <ele>447.00</ele>
        <time>2022-10-26T13:07:57Z</time>
      </trkpt>
      <trkpt lat="10.222368" lon="-67.903276">
        <ele>446.80</ele>
        <time>2022-10-26T13:07:58Z</time>
      </trkpt>
      <trkpt lat="10.222313" lon="-67.903323">
        <ele>446.70</ele>
        <time>2022-10-26T13:07:59Z</time>
      </trkpt>
      <trkpt lat="10.222260" lon="-67.903371">
        <ele>446.60</ele>
        <time>2022-10-26T13:08:00Z</time>
      </trkpt>
      <trkpt lat="10.222208" lon="-67.903411">
        <ele>446.60</ele>
        <time>2022-10-26T13:08:01Z</time>
      </trkpt>
      <trkpt lat="10.222154" lon="-67.903446">
        <ele>446.50</ele>
        <time>2022-10-26T13:08:02Z</time>
      </trkpt>
      <trkpt lat="10.222104" lon="-67.903487">
        <ele>446.40</ele>
        <time>2022-10-26T13:08:03Z</time>
      </trkpt>
      <trkpt lat="10.222051" lon="-67.903525">
        <ele>446.30</ele>
        <time>2022-10-26T13:08:04Z</time>
      </trkpt>
      <trkpt lat="10.221990" lon="-67.903569">
        <ele>446.20</ele>
        <time>2022-10-26T13:08:05Z</time>
      </trkpt>
      <trkpt lat="10.221919" lon="-67.903609">
        <ele>446.10</ele>
        <time>2022-10-26T13:08:06Z</time>
      </trkpt>
      <trkpt lat="10.221858" lon="-67.903655">
        <ele>446.10</ele>
        <time>2022-10-26T13:08:07Z</time>
      </trkpt>
      <trkpt lat="10.221802" lon="-67.903703">
        <ele>446.00</ele>
        <time>2022-10-26T13:08:08Z</time>
      </trkpt>
      <trkpt lat="10.221743" lon="-67.903749">
        <ele>445.90</ele>
        <time>2022-10-26T13:08:09Z</time>
      </trkpt>
      <trkpt lat="10.221680" lon="-67.903794">
        <ele>445.80</ele>
        <time>2022-10-26T13:08:10Z</time>
      </trkpt>
      <trkpt lat="10.221626" lon="-67.903841">
        <ele>445.70</ele>
        <time>2022-10-26T13:08:11Z</time>
      </trkpt>
      <trkpt lat="10.221564" lon="-67.903882">
        <ele>445.60</ele>
        <time>2022-10-26T13:08:12Z</time>
      </trkpt>
      <trkpt lat="10.221500" lon="-67.903923">
        <ele>445.60</ele>
        <time>2022-10-26T13:08:13Z</time>
      </trkpt>
      <trkpt lat="10.221434" lon="-67.903966">
        <ele>445.50</ele>
        <time>2022-10-26T13:08:14Z</time>
      </trkpt>
      <trkpt lat="10.221370" lon="-67.904014">
        <ele>445.50</ele>
        <time>2022-10-26T13:08:15Z</time>
      </trkpt>
      <trkpt lat="10.221307" lon="-67.904057">
        <ele>445.40</ele>
        <time>2022-10-26T13:08:16Z</time>
      </trkpt>
      <trkpt lat="10.221241" lon="-67.904096">
        <ele>445.30</ele>
        <time>2022-10-26T13:08:17Z</time>
      </trkpt>
      <trkpt lat="10.221177" lon="-67.904135">
        <ele>445.30</ele>
        <time>2022-10-26T13:08:18Z</time>
      </trkpt>
      <trkpt lat="10.221114" lon="-67.904173">
        <ele>445.20</ele>
        <time>2022-10-26T13:08:19Z</time>
      </trkpt>
      <trkpt lat="10.221052" lon="-67.904225">
        <ele>445.10</ele>
        <time>2022-10-26T13:08:20Z</time>
      </trkpt>
      <trkpt lat="10.220991" lon="-67.904281">
        <ele>445.10</ele>
        <time>2022-10-26T13:08:21Z</time>
      </trkpt>
      <trkpt lat="10.220927" lon="-67.904335">
        <ele>445.00</ele>
        <time>2022-10-26T13:08:22Z</time>
      </trkpt>
      <trkpt lat="10.220849" lon="-67.904383">
        <ele>444.90</ele>
        <time>2022-10-26T13:08:23Z</time>
      </trkpt>
      <trkpt lat="10.220781" lon="-67.904431">
        <ele>444.80</ele>
        <time>2022-10-26T13:08:24Z</time>
      </trkpt>
      <trkpt lat="10.220725" lon="-67.904486">
        <ele>444.70</ele>
        <time>2022-10-26T13:08:25Z</time>
      </trkpt>
      <trkpt lat="10.220674" lon="-67.904539">
        <ele>444.60</ele>
        <time>2022-10-26T13:08:26Z</time>
      </trkpt>
      <trkpt lat="10.220620" lon="-67.904582">
        <ele>444.50</ele>
        <time>2022-10-26T13:08:27Z</time>
      </trkpt>
      <trkpt lat="10.220567" lon="-67.904625">
        <ele>444.50</ele>
        <time>2022-10-26T13:08:28Z</time>
      </trkpt>
      <trkpt lat="10.220509" lon="-67.904671">
        <ele>444.40</ele>
        <time>2022-10-26T13:08:29Z</time>
      </trkpt>
      <trkpt lat="10.220454" lon="-67.904717">
        <ele>444.30</ele>
        <time>2022-10-26T13:08:30Z</time>
      </trkpt>
      <trkpt lat="10.220393" lon="-67.904768">
        <ele>444.30</ele>
        <time>2022-10-26T13:08:31Z</time>
      </trkpt>
      <trkpt lat="10.220333" lon="-67.904820">
        <ele>444.20</ele>
        <time>2022-10-26T13:08:32Z</time>
      </trkpt>
      <trkpt lat="10.220277" lon="-67.904873">
        <ele>444.20</ele>
        <time>2022-10-26T13:08:33Z</time>
      </trkpt>
      <trkpt lat="10.220219" lon="-67.904927">
        <ele>444.10</ele>
        <time>2022-10-26T13:08:34Z</time>
      </trkpt>
      <trkpt lat="10.220161" lon="-67.904980">
        <ele>444.10</ele>
        <time>2022-10-26T13:08:35Z</time>
      </trkpt>
      <trkpt lat="10.220105" lon="-67.905037">
        <ele>444.10</ele>
        <time>2022-10-26T13:08:36Z</time>
      </trkpt>
      <trkpt lat="10.220047" lon="-67.905086">
        <ele>444.00</ele>
        <time>2022-10-26T13:08:37Z</time>
      </trkpt>
      <trkpt lat="10.219991" lon="-67.905138">
        <ele>444.00</ele>
        <time>2022-10-26T13:08:38Z</time>
      </trkpt>
      <trkpt lat="10.219941" lon="-67.905194">
        <ele>443.90</ele>
        <time>2022-10-26T13:08:39Z</time>
      </trkpt>
      <trkpt lat="10.219883" lon="-67.905248">
        <ele>443.90</ele>
        <time>2022-10-26T13:08:40Z</time>
      </trkpt>
      <trkpt lat="10.219826" lon="-67.905300">
        <ele>443.90</ele>
        <time>2022-10-26T13:08:41Z</time>
      </trkpt>
      <trkpt lat="10.219780" lon="-67.905363">
        <ele>443.90</ele>
        <time>2022-10-26T13:08:42Z</time>
      </trkpt>
      <trkpt lat="10.219745" lon="-67.905435">
        <ele>443.80</ele>
        <time>2022-10-26T13:08:43Z</time>
      </trkpt>
      <trkpt lat="10.219696" lon="-67.905487">
        <ele>443.70</ele>
        <time>2022-10-26T13:08:44Z</time>
      </trkpt>
      <trkpt lat="10.219639" lon="-67.905528">
        <ele>443.70</ele>
        <time>2022-10-26T13:08:45Z</time>
      </trkpt>
      <trkpt lat="10.219579" lon="-67.905559">
        <ele>443.60</ele>
        <time>2022-10-26T13:08:46Z</time>
      </trkpt>
      <trkpt lat="10.219519" lon="-67.905606">
        <ele>443.60</ele>
        <time>2022-10-26T13:08:47Z</time>
      </trkpt>
      <trkpt lat="10.219462" lon="-67.905657">
        <ele>443.50</ele>
        <time>2022-10-26T13:08:48Z</time>
      </trkpt>
      <trkpt lat="10.219403" lon="-67.905705">
        <ele>443.50</ele>
        <time>2022-10-26T13:08:49Z</time>
      </trkpt>
      <trkpt lat="10.219347" lon="-67.905749">
        <ele>443.40</ele>
        <time>2022-10-26T13:08:50Z</time>
      </trkpt>
      <trkpt lat="10.219286" lon="-67.905781">
        <ele>443.30</ele>
        <time>2022-10-26T13:08:51Z</time>
      </trkpt>
      <trkpt lat="10.219222" lon="-67.905819">
        <ele>443.20</ele>
        <time>2022-10-26T13:08:52Z</time>
      </trkpt>
      <trkpt lat="10.219152" lon="-67.905856">
        <ele>443.10</ele>
        <time>2022-10-26T13:08:53Z</time>
      </trkpt>
      <trkpt lat="10.219083" lon="-67.905895">
        <ele>443.00</ele>
        <time>2022-10-26T13:08:54Z</time>
      </trkpt>
      <trkpt lat="10.219017" lon="-67.905929">
        <ele>443.00</ele>
        <time>2022-10-26T13:08:55Z</time>
      </trkpt>
      <trkpt lat="10.218947" lon="-67.905964">
        <ele>443.00</ele>
        <time>2022-10-26T13:08:56Z</time>
      </trkpt>
      <trkpt lat="10.218882" lon="-67.906002">
        <ele>443.00</ele>
        <time>2022-10-26T13:08:57Z</time>
      </trkpt>
      <trkpt lat="10.218816" lon="-67.906046">
        <ele>443.00</ele>
        <time>2022-10-26T13:08:58Z</time>
      </trkpt>
      <trkpt lat="10.218765" lon="-67.906092">
        <ele>443.10</ele>
        <time>2022-10-26T13:08:59Z</time>
      </trkpt>
      <trkpt lat="10.218720" lon="-67.906146">
        <ele>443.10</ele>
        <time>2022-10-26T13:09:00Z</time>
      </trkpt>
      <trkpt lat="10.218664" lon="-67.906196">
        <ele>443.10</ele>
        <time>2022-10-26T13:09:01Z</time>
      </trkpt>
      <trkpt lat="10.218610" lon="-67.906237">
        <ele>443.10</ele>
        <time>2022-10-26T13:09:02Z</time>
      </trkpt>
      <trkpt lat="10.218547" lon="-67.906274">
        <ele>443.00</ele>
        <time>2022-10-26T13:09:03Z</time>
      </trkpt>
      <trkpt lat="10.218500" lon="-67.906326">
        <ele>443.00</ele>
        <time>2022-10-26T13:09:04Z</time>
      </trkpt>
      <trkpt lat="10.218464" lon="-67.906391">
        <ele>443.00</ele>
        <time>2022-10-26T13:09:05Z</time>
      </trkpt>
      <trkpt lat="10.218419" lon="-67.906450">
        <ele>443.00</ele>
        <time>2022-10-26T13:09:06Z</time>
      </trkpt>
      <trkpt lat="10.218371" lon="-67.906507">
        <ele>443.00</ele>
        <time>2022-10-26T13:09:07Z</time>
      </trkpt>
      <trkpt lat="10.218318" lon="-67.906563">
        <ele>443.00</ele>
        <time>2022-10-26T13:09:08Z</time>
      </trkpt>
      <trkpt lat="10.218271" lon="-67.906621">
        <ele>443.00</ele>
        <time>2022-10-26T13:09:09Z</time>
      </trkpt>
      <trkpt lat="10.218225" lon="-67.906670">
        <ele>443.00</ele>
        <time>2022-10-26T13:09:10Z</time>
      </trkpt>
      <trkpt lat="10.218172" lon="-67.906710">
        <ele>443.00</ele>
        <time>2022-10-26T13:09:11Z</time>
      </trkpt>
      <trkpt lat="10.218120" lon="-67.906753">
        <ele>443.00</ele>
        <time>2022-10-26T13:09:12Z</time>
      </trkpt>
      <trkpt lat="10.218072" lon="-67.906794">
        <ele>443.00</ele>
        <time>2022-10-26T13:09:13Z</time>
      </trkpt>
      <trkpt lat="10.218021" lon="-67.906834">
        <ele>443.00</ele>
        <time>2022-10-26T13:09:14Z</time>
      </trkpt>
      <trkpt lat="10.217970" lon="-67.906880">
        <ele>443.00</ele>
        <time>2022-10-26T13:09:15Z</time>
      </trkpt>
      <trkpt lat="10.217917" lon="-67.906930">
        <ele>443.00</ele>
        <time>2022-10-26T13:09:16Z</time>
      </trkpt>
      <trkpt lat="10.217858" lon="-67.906973">
        <ele>442.90</ele>
        <time>2022-10-26T13:09:17Z</time>
      </trkpt>
      <trkpt lat="10.217787" lon="-67.907002">
        <ele>442.90</ele>
        <time>2022-10-26T13:09:18Z</time>
      </trkpt>
      <trkpt lat="10.217722" lon="-67.907040">
        <ele>442.90</ele>
        <time>2022-10-26T13:09:19Z</time>
      </trkpt>
      <trkpt lat="10.217656" lon="-67.907084">
        <ele>442.90</ele>
        <time>2022-10-26T13:09:20Z</time>
      </trkpt>
      <trkpt lat="10.217587" lon="-67.907133">
        <ele>442.90</ele>
        <time>2022-10-26T13:09:21Z</time>
      </trkpt>
      <trkpt lat="10.217520" lon="-67.907173">
        <ele>442.90</ele>
        <time>2022-10-26T13:09:22Z</time>
      </trkpt>
      <trkpt lat="10.217449" lon="-67.907211">
        <ele>442.90</ele>
        <time>2022-10-26T13:09:23Z</time>
      </trkpt>
      <trkpt lat="10.217380" lon="-67.907244">
        <ele>442.90</ele>
        <time>2022-10-26T13:09:24Z</time>
      </trkpt>
      <trkpt lat="10.217321" lon="-67.907273">
        <ele>442.90</ele>
        <time>2022-10-26T13:09:25Z</time>
      </trkpt>
      <trkpt lat="10.217260" lon="-67.907306">
        <ele>442.90</ele>
        <time>2022-10-26T13:09:26Z</time>
      </trkpt>
      <trkpt lat="10.217202" lon="-67.907347">
        <ele>442.90</ele>
        <time>2022-10-26T13:09:27Z</time>
      </trkpt>
      <trkpt lat="10.217148" lon="-67.907395">
        <ele>442.90</ele>
        <time>2022-10-26T13:09:28Z</time>
      </trkpt>
      <trkpt lat="10.217098" lon="-67.907445">
        <ele>442.90</ele>
        <time>2022-10-26T13:09:29Z</time>
      </trkpt>
      <trkpt lat="10.217056" lon="-67.907501">
        <ele>442.90</ele>
        <time>2022-10-26T13:09:30Z</time>
      </trkpt>
      <trkpt lat="10.217005" lon="-67.907550">
        <ele>442.90</ele>
        <time>2022-10-26T13:09:31Z</time>
      </trkpt>
      <trkpt lat="10.216954" lon="-67.907598">
        <ele>442.90</ele>
        <time>2022-10-26T13:09:32Z</time>
      </trkpt>
      <trkpt lat="10.216892" lon="-67.907639">
        <ele>442.80</ele>
        <time>2022-10-26T13:09:33Z</time>
      </trkpt>
      <trkpt lat="10.216842" lon="-67.907685">
        <ele>442.80</ele>
        <time>2022-10-26T13:09:34Z</time>
      </trkpt>
      <trkpt lat="10.216788" lon="-67.907732">
        <ele>442.80</ele>
        <time>2022-10-26T13:09:35Z</time>
      </trkpt>
      <trkpt lat="10.216733" lon="-67.907779">
        <ele>442.80</ele>
        <time>2022-10-26T13:09:36Z</time>
      </trkpt>
      <trkpt lat="10.216672" lon="-67.907820">
        <ele>442.80</ele>
        <time>2022-10-26T13:09:37Z</time>
      </trkpt>
      <trkpt lat="10.216605" lon="-67.907859">
        <ele>442.80</ele>
        <time>2022-10-26T13:09:38Z</time>
      </trkpt>
      <trkpt lat="10.216550" lon="-67.907895">
        <ele>442.80</ele>
        <time>2022-10-26T13:09:39Z</time>
      </trkpt>
      <trkpt lat="10.216499" lon="-67.907943">
        <ele>442.80</ele>
        <time>2022-10-26T13:09:40Z</time>
      </trkpt>
      <trkpt lat="10.216447" lon="-67.907991">
        <ele>442.80</ele>
        <time>2022-10-26T13:09:41Z</time>
      </trkpt>
      <trkpt lat="10.216391" lon="-67.908033">
        <ele>442.70</ele>
        <time>2022-10-26T13:09:42Z</time>
      </trkpt>
      <trkpt lat="10.216334" lon="-67.908081">
        <ele>442.70</ele>
        <time>2022-10-26T13:09:43Z</time>
      </trkpt>
      <trkpt lat="10.216288" lon="-67.908139">
        <ele>442.60</ele>
        <time>2022-10-26T13:09:44Z</time>
      </trkpt>
      <trkpt lat="10.216236" lon="-67.908189">
        <ele>442.60</ele>
        <time>2022-10-26T13:09:45Z</time>
      </trkpt>
      <trkpt lat="10.216181" lon="-67.908225">
        <ele>442.60</ele>
        <time>2022-10-26T13:09:46Z</time>
      </trkpt>
      <trkpt lat="10.216130" lon="-67.908259">
        <ele>442.60</ele>
        <time>2022-10-26T13:09:47Z</time>
      </trkpt>
      <trkpt lat="10.216088" lon="-67.908302">
        <ele>442.50</ele>
        <time>2022-10-26T13:09:48Z</time>
      </trkpt>
      <trkpt lat="10.216040" lon="-67.908359">
        <ele>442.50</ele>
        <time>2022-10-26T13:09:49Z</time>
      </trkpt>
      <trkpt lat="10.215993" lon="-67.908421">
        <ele>442.40</ele>
        <time>2022-10-26T13:09:50Z</time>
      </trkpt>
      <trkpt lat="10.215940" lon="-67.908473">
        <ele>442.40</ele>
        <time>2022-10-26T13:09:51Z</time>
      </trkpt>
      <trkpt lat="10.215886" lon="-67.908531">
        <ele>442.40</ele>
        <time>2022-10-26T13:09:52Z</time>
      </trkpt>
      <trkpt lat="10.215828" lon="-67.908586">
        <ele>442.40</ele>
        <time>2022-10-26T13:09:53Z</time>
      </trkpt>
      <trkpt lat="10.215774" lon="-67.908642">
        <ele>442.40</ele>
        <time>2022-10-26T13:09:54Z</time>
      </trkpt>
      <trkpt lat="10.215723" lon="-67.908696">
        <ele>442.50</ele>
        <time>2022-10-26T13:09:55Z</time>
      </trkpt>
      <trkpt lat="10.215665" lon="-67.908750">
        <ele>442.50</ele>
        <time>2022-10-26T13:09:56Z</time>
      </trkpt>
      <trkpt lat="10.215599" lon="-67.908800">
        <ele>442.40</ele>
        <time>2022-10-26T13:09:57Z</time>
      </trkpt>
      <trkpt lat="10.215532" lon="-67.908848">
        <ele>442.40</ele>
        <time>2022-10-26T13:09:58Z</time>
      </trkpt>
      <trkpt lat="10.215481" lon="-67.908904">
        <ele>442.40</ele>
        <time>2022-10-26T13:09:59Z</time>
      </trkpt>
      <trkpt lat="10.215431" lon="-67.908961">
        <ele>442.40</ele>
        <time>2022-10-26T13:10:00Z</time>
      </trkpt>
      <trkpt lat="10.215383" lon="-67.909021">
        <ele>442.30</ele>
        <time>2022-10-26T13:10:01Z</time>
      </trkpt>
      <trkpt lat="10.215336" lon="-67.909081">
        <ele>442.30</ele>
        <time>2022-10-26T13:10:02Z</time>
      </trkpt>
      <trkpt lat="10.215288" lon="-67.909132">
        <ele>442.30</ele>
        <time>2022-10-26T13:10:03Z</time>
      </trkpt>
      <trkpt lat="10.215226" lon="-67.909190">
        <ele>442.20</ele>
        <time>2022-10-26T13:10:04Z</time>
      </trkpt>
      <trkpt lat="10.215168" lon="-67.909249">
        <ele>442.20</ele>
        <time>2022-10-26T13:10:05Z</time>
      </trkpt>
      <trkpt lat="10.215115" lon="-67.909304">
        <ele>442.10</ele>
        <time>2022-10-26T13:10:06Z</time>
      </trkpt>
      <trkpt lat="10.215068" lon="-67.909357">
        <ele>442.10</ele>
        <time>2022-10-26T13:10:07Z</time>
      </trkpt>
      <trkpt lat="10.215018" lon="-67.909405">
        <ele>442.00</ele>
        <time>2022-10-26T13:10:08Z</time>
      </trkpt>
      <trkpt lat="10.214956" lon="-67.909456">
        <ele>442.00</ele>
        <time>2022-10-26T13:10:09Z</time>
      </trkpt>
      <trkpt lat="10.214892" lon="-67.909505">
        <ele>442.00</ele>
        <time>2022-10-26T13:10:10Z</time>
      </trkpt>
      <trkpt lat="10.214833" lon="-67.909545">
        <ele>442.00</ele>
        <time>2022-10-26T13:10:11Z</time>
      </trkpt>
      <trkpt lat="10.214761" lon="-67.909577">
        <ele>442.00</ele>
        <time>2022-10-26T13:10:12Z</time>
      </trkpt>
      <trkpt lat="10.214700" lon="-67.909620">
        <ele>442.00</ele>
        <time>2022-10-26T13:10:13Z</time>
      </trkpt>
      <trkpt lat="10.214662" lon="-67.909689">
        <ele>442.10</ele>
        <time>2022-10-26T13:10:14Z</time>
      </trkpt>
      <trkpt lat="10.214639" lon="-67.909756">
        <ele>442.10</ele>
        <time>2022-10-26T13:10:15Z</time>
      </trkpt>
      <trkpt lat="10.214603" lon="-67.909818">
        <ele>442.10</ele>
        <time>2022-10-26T13:10:16Z</time>
      </trkpt>
      <trkpt lat="10.214556" lon="-67.909876">
        <ele>442.10</ele>
        <time>2022-10-26T13:10:17Z</time>
      </trkpt>
      <trkpt lat="10.214506" lon="-67.909926">
        <ele>442.10</ele>
        <time>2022-10-26T13:10:18Z</time>
      </trkpt>
      <trkpt lat="10.214452" lon="-67.909981">
        <ele>442.10</ele>
        <time>2022-10-26T13:10:19Z</time>
      </trkpt>
      <trkpt lat="10.214391" lon="-67.910030">
        <ele>442.10</ele>
        <time>2022-10-26T13:10:20Z</time>
      </trkpt>
      <trkpt lat="10.214340" lon="-67.910070">
        <ele>442.10</ele>
        <time>2022-10-26T13:10:21Z</time>
      </trkpt>
      <trkpt lat="10.214293" lon="-67.910111">
        <ele>442.00</ele>
        <time>2022-10-26T13:10:22Z</time>
      </trkpt>
      <trkpt lat="10.214232" lon="-67.910153">
        <ele>442.00</ele>
        <time>2022-10-26T13:10:23Z</time>
      </trkpt>
      <trkpt lat="10.214169" lon="-67.910200">
        <ele>442.00</ele>
        <time>2022-10-26T13:10:24Z</time>
      </trkpt>
      <trkpt lat="10.214117" lon="-67.910252">
        <ele>442.00</ele>
        <time>2022-10-26T13:10:25Z</time>
      </trkpt>
      <trkpt lat="10.214056" lon="-67.910291">
        <ele>442.00</ele>
        <time>2022-10-26T13:10:26Z</time>
      </trkpt>
      <trkpt lat="10.214009" lon="-67.910337">
        <ele>441.90</ele>
        <time>2022-10-26T13:10:27Z</time>
      </trkpt>
      <trkpt lat="10.213968" lon="-67.910388">
        <ele>441.90</ele>
        <time>2022-10-26T13:10:28Z</time>
      </trkpt>
      <trkpt lat="10.213924" lon="-67.910443">
        <ele>441.90</ele>
        <time>2022-10-26T13:10:29Z</time>
      </trkpt>
      <trkpt lat="10.213868" lon="-67.910494">
        <ele>441.90</ele>
        <time>2022-10-26T13:10:30Z</time>
      </trkpt>
      <trkpt lat="10.213816" lon="-67.910554">
        <ele>441.90</ele>
        <time>2022-10-26T13:10:31Z</time>
      </trkpt>
      <trkpt lat="10.213771" lon="-67.910611">
        <ele>442.00</ele>
        <time>2022-10-26T13:10:32Z</time>
      </trkpt>
      <trkpt lat="10.213733" lon="-67.910672">
        <ele>442.00</ele>
        <time>2022-10-26T13:10:33Z</time>
      </trkpt>
      <trkpt lat="10.213708" lon="-67.910736">
        <ele>442.00</ele>
        <time>2022-10-26T13:10:34Z</time>
      </trkpt>
      <trkpt lat="10.213690" lon="-67.910798">
        <ele>442.00</ele>
        <time>2022-10-26T13:10:35Z</time>
      </trkpt>
      <trkpt lat="10.213653" lon="-67.910852">
        <ele>442.00</ele>
        <time>2022-10-26T13:10:36Z</time>
      </trkpt>
      <trkpt lat="10.213620" lon="-67.910891">
        <ele>442.00</ele>
        <time>2022-10-26T13:10:37Z</time>
      </trkpt>
      <trkpt lat="10.213611" lon="-67.910895">
        <ele>442.00</ele>
        <time>2022-10-26T13:10:38Z</time>
      </trkpt>
      <trkpt lat="10.213595" lon="-67.910908">
        <ele>442.00</ele>
        <time>2022-10-26T13:10:39Z</time>
      </trkpt>
      <trkpt lat="10.213562" lon="-67.910924">
        <ele>442.00</ele>
        <time>2022-10-26T13:10:40Z</time>
      </trkpt>
      <trkpt lat="10.213548" lon="-67.910931">
        <ele>441.90</ele>
        <time>2022-10-26T13:10:41Z</time>
      </trkpt>
      <trkpt lat="10.213507" lon="-67.910981">
        <ele>441.90</ele>
        <time>2022-10-26T13:10:42Z</time>
      </trkpt>
      <trkpt lat="10.213440" lon="-67.911093">
        <ele>441.90</ele>
        <time>2022-10-26T13:10:43Z</time>
      </trkpt>
      <trkpt lat="10.213378" lon="-67.911206">
        <ele>442.00</ele>
        <time>2022-10-26T13:10:44Z</time>
      </trkpt>
      <trkpt lat="10.213328" lon="-67.911318">
        <ele>441.90</ele>
        <time>2022-10-26T13:10:45Z</time>
      </trkpt>
      <trkpt lat="10.213281" lon="-67.911402">
        <ele>441.90</ele>
        <time>2022-10-26T13:10:46Z</time>
      </trkpt>
      <trkpt lat="10.213226" lon="-67.911463">
        <ele>441.80</ele>
        <time>2022-10-26T13:10:47Z</time>
      </trkpt>
      <trkpt lat="10.213171" lon="-67.911518">
        <ele>441.80</ele>
        <time>2022-10-26T13:10:48Z</time>
      </trkpt>
      <trkpt lat="10.213118" lon="-67.911562">
        <ele>441.80</ele>
        <time>2022-10-26T13:10:49Z</time>
      </trkpt>
      <trkpt lat="10.213077" lon="-67.911614">
        <ele>441.80</ele>
        <time>2022-10-26T13:10:50Z</time>
      </trkpt>
      <trkpt lat="10.213032" lon="-67.911657">
        <ele>441.80</ele>
        <time>2022-10-26T13:10:51Z</time>
      </trkpt>
      <trkpt lat="10.212986" lon="-67.911705">
        <ele>441.80</ele>
        <time>2022-10-26T13:10:52Z</time>
      </trkpt>
      <trkpt lat="10.212953" lon="-67.911764">
        <ele>441.80</ele>
        <time>2022-10-26T13:10:53Z</time>
      </trkpt>
      <trkpt lat="10.212912" lon="-67.911828">
        <ele>441.80</ele>
        <time>2022-10-26T13:10:54Z</time>
      </trkpt>
      <trkpt lat="10.212873" lon="-67.911886">
        <ele>441.80</ele>
        <time>2022-10-26T13:10:55Z</time>
      </trkpt>
      <trkpt lat="10.212828" lon="-67.911939">
        <ele>441.80</ele>
        <time>2022-10-26T13:10:56Z</time>
      </trkpt>
      <trkpt lat="10.212791" lon="-67.911993">
        <ele>441.80</ele>
        <time>2022-10-26T13:10:57Z</time>
      </trkpt>
      <trkpt lat="10.212748" lon="-67.912040">
        <ele>441.90</ele>
        <time>2022-10-26T13:10:58Z</time>
      </trkpt>
      <trkpt lat="10.212688" lon="-67.912090">
        <ele>441.90</ele>
        <time>2022-10-26T13:10:59Z</time>
      </trkpt>
      <trkpt lat="10.212622" lon="-67.912141">
        <ele>441.80</ele>
        <time>2022-10-26T13:11:00Z</time>
      </trkpt>
      <trkpt lat="10.212548" lon="-67.912181">
        <ele>441.80</ele>
        <time>2022-10-26T13:11:01Z</time>
      </trkpt>
      <trkpt lat="10.212472" lon="-67.912209">
        <ele>441.80</ele>
        <time>2022-10-26T13:11:02Z</time>
      </trkpt>
      <trkpt lat="10.212426" lon="-67.912243">
        <ele>441.80</ele>
        <time>2022-10-26T13:11:03Z</time>
      </trkpt>
      <trkpt lat="10.212399" lon="-67.912279">
        <ele>441.80</ele>
        <time>2022-10-26T13:11:04Z</time>
      </trkpt>
      <trkpt lat="10.212396" lon="-67.912299">
        <ele>441.90</ele>
        <time>2022-10-26T13:11:05Z</time>
      </trkpt>
      <trkpt lat="10.212393" lon="-67.912310">
        <ele>441.90</ele>
        <time>2022-10-26T13:11:06Z</time>
      </trkpt>
      <trkpt lat="10.212389" lon="-67.912322">
        <ele>441.90</ele>
        <time>2022-10-26T13:11:07Z</time>
      </trkpt>
      <trkpt lat="10.212366" lon="-67.912350">
        <ele>441.90</ele>
        <time>2022-10-26T13:11:08Z</time>
      </trkpt>
      <trkpt lat="10.212356" lon="-67.912360">
        <ele>441.90</ele>
        <time>2022-10-26T13:11:09Z</time>
      </trkpt>
      <trkpt lat="10.212339" lon="-67.912396">
        <ele>441.90</ele>
        <time>2022-10-26T13:11:10Z</time>
      </trkpt>
      <trkpt lat="10.212282" lon="-67.912483">
        <ele>441.90</ele>
        <time>2022-10-26T13:11:11Z</time>
      </trkpt>
      <trkpt lat="10.212203" lon="-67.912552">
        <ele>441.90</ele>
        <time>2022-10-26T13:11:12Z</time>
      </trkpt>
      <trkpt lat="10.212146" lon="-67.912616">
        <ele>441.90</ele>
        <time>2022-10-26T13:11:13Z</time>
      </trkpt>
      <trkpt lat="10.212069" lon="-67.912702">
        <ele>441.90</ele>
        <time>2022-10-26T13:11:14Z</time>
      </trkpt>
      <trkpt lat="10.211997" lon="-67.912795">
        <ele>441.90</ele>
        <time>2022-10-26T13:11:15Z</time>
      </trkpt>
      <trkpt lat="10.211939" lon="-67.912878">
        <ele>441.80</ele>
        <time>2022-10-26T13:11:16Z</time>
      </trkpt>
      <trkpt lat="10.211883" lon="-67.912952">
        <ele>441.70</ele>
        <time>2022-10-26T13:11:17Z</time>
      </trkpt>
      <trkpt lat="10.211821" lon="-67.913002">
        <ele>441.70</ele>
        <time>2022-10-26T13:11:18Z</time>
      </trkpt>
      <trkpt lat="10.211766" lon="-67.913051">
        <ele>441.70</ele>
        <time>2022-10-26T13:11:19Z</time>
      </trkpt>
      <trkpt lat="10.211733" lon="-67.913109">
        <ele>441.70</ele>
        <time>2022-10-26T13:11:20Z</time>
      </trkpt>
      <trkpt lat="10.211711" lon="-67.913164">
        <ele>441.70</ele>
        <time>2022-10-26T13:11:21Z</time>
      </trkpt>
      <trkpt lat="10.211682" lon="-67.913217">
        <ele>441.70</ele>
        <time>2022-10-26T13:11:22Z</time>
      </trkpt>
      <trkpt lat="10.211650" lon="-67.913270">
        <ele>441.70</ele>
        <time>2022-10-26T13:11:23Z</time>
      </trkpt>
      <trkpt lat="10.211622" lon="-67.913329">
        <ele>441.70</ele>
        <time>2022-10-26T13:11:24Z</time>
      </trkpt>
      <trkpt lat="10.211581" lon="-67.913380">
        <ele>441.70</ele>
        <time>2022-10-26T13:11:25Z</time>
      </trkpt>
      <trkpt lat="10.211537" lon="-67.913425">
        <ele>441.70</ele>
        <time>2022-10-26T13:11:26Z</time>
      </trkpt>
      <trkpt lat="10.211482" lon="-67.913477">
        <ele>441.70</ele>
        <time>2022-10-26T13:11:27Z</time>
      </trkpt>
      <trkpt lat="10.211421" lon="-67.913522">
        <ele>441.70</ele>
        <time>2022-10-26T13:11:28Z</time>
      </trkpt>
      <trkpt lat="10.211384" lon="-67.913579">
        <ele>441.70</ele>
        <time>2022-10-26T13:11:29Z</time>
      </trkpt>
      <trkpt lat="10.211335" lon="-67.913639">
        <ele>441.70</ele>
        <time>2022-10-26T13:11:30Z</time>
      </trkpt>
      <trkpt lat="10.211294" lon="-67.913702">
        <ele>441.60</ele>
        <time>2022-10-26T13:11:31Z</time>
      </trkpt>
      <trkpt lat="10.211258" lon="-67.913755">
        <ele>441.60</ele>
        <time>2022-10-26T13:11:32Z</time>
      </trkpt>
      <trkpt lat="10.211206" lon="-67.913810">
        <ele>441.60</ele>
        <time>2022-10-26T13:11:33Z</time>
      </trkpt>
      <trkpt lat="10.211154" lon="-67.913867">
        <ele>441.60</ele>
        <time>2022-10-26T13:11:34Z</time>
      </trkpt>
      <trkpt lat="10.211084" lon="-67.913916">
        <ele>441.60</ele>
        <time>2022-10-26T13:11:35Z</time>
      </trkpt>
      <trkpt lat="10.211021" lon="-67.913959">
        <ele>441.60</ele>
        <time>2022-10-26T13:11:36Z</time>
      </trkpt>
      <trkpt lat="10.210976" lon="-67.914005">
        <ele>441.60</ele>
        <time>2022-10-26T13:11:37Z</time>
      </trkpt>
      <trkpt lat="10.210949" lon="-67.914053">
        <ele>441.60</ele>
        <time>2022-10-26T13:11:38Z</time>
      </trkpt>
      <trkpt lat="10.210929" lon="-67.914099">
        <ele>441.60</ele>
        <time>2022-10-26T13:11:39Z</time>
      </trkpt>
      <trkpt lat="10.210900" lon="-67.914145">
        <ele>441.60</ele>
        <time>2022-10-26T13:11:40Z</time>
      </trkpt>
      <trkpt lat="10.210879" lon="-67.914195">
        <ele>441.60</ele>
        <time>2022-10-26T13:11:41Z</time>
      </trkpt>
      <trkpt lat="10.210837" lon="-67.914249">
        <ele>441.70</ele>
        <time>2022-10-26T13:11:42Z</time>
      </trkpt>
      <trkpt lat="10.210784" lon="-67.914309">
        <ele>441.70</ele>
        <time>2022-10-26T13:11:43Z</time>
      </trkpt>
      <trkpt lat="10.210709" lon="-67.914393">
        <ele>441.70</ele>
        <time>2022-10-26T13:11:45Z</time>
      </trkpt>
      <trkpt lat="10.210653" lon="-67.914440">
        <ele>441.70</ele>
        <time>2022-10-26T13:11:46Z</time>
      </trkpt>
      <trkpt lat="10.210601" lon="-67.914499">
        <ele>441.70</ele>
        <time>2022-10-26T13:11:47Z</time>
      </trkpt>
      <trkpt lat="10.210548" lon="-67.914554">
        <ele>441.70</ele>
        <time>2022-10-26T13:11:48Z</time>
      </trkpt>
      <trkpt lat="10.210501" lon="-67.914607">
        <ele>441.80</ele>
        <time>2022-10-26T13:11:49Z</time>
      </trkpt>
      <trkpt lat="10.210461" lon="-67.914668">
        <ele>441.80</ele>
        <time>2022-10-26T13:11:50Z</time>
      </trkpt>
      <trkpt lat="10.210416" lon="-67.914729">
        <ele>441.80</ele>
        <time>2022-10-26T13:11:51Z</time>
      </trkpt>
      <trkpt lat="10.210374" lon="-67.914781">
        <ele>441.80</ele>
        <time>2022-10-26T13:11:52Z</time>
      </trkpt>
      <trkpt lat="10.210340" lon="-67.914830">
        <ele>441.80</ele>
        <time>2022-10-26T13:11:53Z</time>
      </trkpt>
      <trkpt lat="10.210316" lon="-67.914872">
        <ele>441.90</ele>
        <time>2022-10-26T13:11:54Z</time>
      </trkpt>
      <trkpt lat="10.210291" lon="-67.914913">
        <ele>441.90</ele>
        <time>2022-10-26T13:11:55Z</time>
      </trkpt>
      <trkpt lat="10.210255" lon="-67.914943">
        <ele>441.90</ele>
        <time>2022-10-26T13:11:56Z</time>
      </trkpt>
      <trkpt lat="10.210212" lon="-67.914965">
        <ele>441.90</ele>
        <time>2022-10-26T13:11:57Z</time>
      </trkpt>
      <trkpt lat="10.210194" lon="-67.914965">
        <ele>441.90</ele>
        <time>2022-10-26T13:11:58Z</time>
      </trkpt>
      <trkpt lat="10.210183" lon="-67.914976">
        <ele>441.90</ele>
        <time>2022-10-26T13:11:59Z</time>
      </trkpt>
      <trkpt lat="10.210168" lon="-67.915000">
        <ele>441.90</ele>
        <time>2022-10-26T13:12:00Z</time>
      </trkpt>
      <trkpt lat="10.210157" lon="-67.915027">
        <ele>441.90</ele>
        <time>2022-10-26T13:12:01Z</time>
      </trkpt>
      <trkpt lat="10.210142" lon="-67.915057">
        <ele>441.90</ele>
        <time>2022-10-26T13:12:02Z</time>
      </trkpt>
      <trkpt lat="10.210124" lon="-67.915103">
        <ele>441.90</ele>
        <time>2022-10-26T13:12:03Z</time>
      </trkpt>
      <trkpt lat="10.210070" lon="-67.915189">
        <ele>441.90</ele>
        <time>2022-10-26T13:12:04Z</time>
      </trkpt>
      <trkpt lat="10.210049" lon="-67.915312">
        <ele>442.00</ele>
        <time>2022-10-26T13:12:05Z</time>
      </trkpt>
      <trkpt lat="10.210000" lon="-67.915401">
        <ele>442.00</ele>
        <time>2022-10-26T13:12:06Z</time>
      </trkpt>
      <trkpt lat="10.209926" lon="-67.915469">
        <ele>442.00</ele>
        <time>2022-10-26T13:12:07Z</time>
      </trkpt>
      <trkpt lat="10.209883" lon="-67.915539">
        <ele>442.00</ele>
        <time>2022-10-26T13:12:08Z</time>
      </trkpt>
      <trkpt lat="10.209827" lon="-67.915598">
        <ele>442.00</ele>
        <time>2022-10-26T13:12:09Z</time>
      </trkpt>
      <trkpt lat="10.209772" lon="-67.915650">
        <ele>442.00</ele>
        <time>2022-10-26T13:12:10Z</time>
      </trkpt>
      <trkpt lat="10.209710" lon="-67.915696">
        <ele>442.10</ele>
        <time>2022-10-26T13:12:11Z</time>
      </trkpt>
      <trkpt lat="10.209650" lon="-67.915734">
        <ele>442.10</ele>
        <time>2022-10-26T13:12:12Z</time>
      </trkpt>
      <trkpt lat="10.209594" lon="-67.915779">
        <ele>442.10</ele>
        <time>2022-10-26T13:12:13Z</time>
      </trkpt>
      <trkpt lat="10.209541" lon="-67.915820">
        <ele>442.10</ele>
        <time>2022-10-26T13:12:14Z</time>
      </trkpt>
      <trkpt lat="10.209496" lon="-67.915867">
        <ele>442.10</ele>
        <time>2022-10-26T13:12:15Z</time>
      </trkpt>
      <trkpt lat="10.209455" lon="-67.915922">
        <ele>442.10</ele>
        <time>2022-10-26T13:12:16Z</time>
      </trkpt>
      <trkpt lat="10.209417" lon="-67.915959">
        <ele>442.10</ele>
        <time>2022-10-26T13:12:17Z</time>
      </trkpt>
      <trkpt lat="10.209400" lon="-67.915972">
        <ele>442.10</ele>
        <time>2022-10-26T13:12:18Z</time>
      </trkpt>
      <trkpt lat="10.209395" lon="-67.915980">
        <ele>442.10</ele>
        <time>2022-10-26T13:12:19Z</time>
      </trkpt>
      <trkpt lat="10.209390" lon="-67.915988">
        <ele>442.10</ele>
        <time>2022-10-26T13:12:20Z</time>
      </trkpt>
      <trkpt lat="10.209376" lon="-67.916028">
        <ele>442.10</ele>
        <time>2022-10-26T13:12:21Z</time>
      </trkpt>
      <trkpt lat="10.209368" lon="-67.916048">
        <ele>442.10</ele>
        <time>2022-10-26T13:12:22Z</time>
      </trkpt>
      <trkpt lat="10.209334" lon="-67.916108">
        <ele>442.10</ele>
        <time>2022-10-26T13:12:23Z</time>
      </trkpt>
      <trkpt lat="10.209311" lon="-67.916146">
        <ele>442.10</ele>
        <time>2022-10-26T13:12:24Z</time>
      </trkpt>
      <trkpt lat="10.209265" lon="-67.916235">
        <ele>442.20</ele>
        <time>2022-10-26T13:12:25Z</time>
      </trkpt>
      <trkpt lat="10.209226" lon="-67.916309">
        <ele>442.20</ele>
        <time>2022-10-26T13:12:26Z</time>
      </trkpt>
      <trkpt lat="10.209183" lon="-67.916381">
        <ele>442.30</ele>
        <time>2022-10-26T13:12:27Z</time>
      </trkpt>
      <trkpt lat="10.209149" lon="-67.916431">
        <ele>442.30</ele>
        <time>2022-10-26T13:12:28Z</time>
      </trkpt>
      <trkpt lat="10.209132" lon="-67.916458">
        <ele>442.40</ele>
        <time>2022-10-26T13:12:29Z</time>
      </trkpt>
      <trkpt lat="10.209136" lon="-67.916460">
        <ele>442.40</ele>
        <time>2022-10-26T13:12:30Z</time>
      </trkpt>
      <trkpt lat="10.209134" lon="-67.916473">
        <ele>442.40</ele>
        <time>2022-10-26T13:12:32Z</time>
      </trkpt>
      <trkpt lat="10.209128" lon="-67.916482">
        <ele>442.40</ele>
        <time>2022-10-26T13:12:33Z</time>
      </trkpt>
      <trkpt lat="10.209120" lon="-67.916491">
        <ele>442.40</ele>
        <time>2022-10-26T13:12:34Z</time>
      </trkpt>
      <trkpt lat="10.209028" lon="-67.916570">
        <ele>442.40</ele>
        <time>2022-10-26T13:12:35Z</time>
      </trkpt>
      <trkpt lat="10.208954" lon="-67.916640">
        <ele>442.50</ele>
        <time>2022-10-26T13:12:36Z</time>
      </trkpt>
      <trkpt lat="10.208880" lon="-67.916711">
        <ele>442.50</ele>
        <time>2022-10-26T13:12:37Z</time>
      </trkpt>
      <trkpt lat="10.208781" lon="-67.916805">
        <ele>442.60</ele>
        <time>2022-10-26T13:12:38Z</time>
      </trkpt>
      <trkpt lat="10.208703" lon="-67.916880">
        <ele>442.60</ele>
        <time>2022-10-26T13:12:39Z</time>
      </trkpt>
      <trkpt lat="10.208636" lon="-67.916959">
        <ele>442.50</ele>
        <time>2022-10-26T13:12:40Z</time>
      </trkpt>
      <trkpt lat="10.208562" lon="-67.917031">
        <ele>442.50</ele>
        <time>2022-10-26T13:12:41Z</time>
      </trkpt>
      <trkpt lat="10.208506" lon="-67.917104">
        <ele>442.50</ele>
        <time>2022-10-26T13:12:42Z</time>
      </trkpt>
      <trkpt lat="10.208455" lon="-67.917165">
        <ele>442.50</ele>
        <time>2022-10-26T13:12:43Z</time>
      </trkpt>
      <trkpt lat="10.208412" lon="-67.917216">
        <ele>442.50</ele>
        <time>2022-10-26T13:12:44Z</time>
      </trkpt>
      <trkpt lat="10.208368" lon="-67.917264">
        <ele>442.50</ele>
        <time>2022-10-26T13:12:45Z</time>
      </trkpt>
      <trkpt lat="10.208331" lon="-67.917317">
        <ele>442.50</ele>
        <time>2022-10-26T13:12:46Z</time>
      </trkpt>
      <trkpt lat="10.208284" lon="-67.917378">
        <ele>442.60</ele>
        <time>2022-10-26T13:12:47Z</time>
      </trkpt>
      <trkpt lat="10.208252" lon="-67.917452">
        <ele>442.60</ele>
        <time>2022-10-26T13:12:48Z</time>
      </trkpt>
      <trkpt lat="10.208220" lon="-67.917517">
        <ele>442.60</ele>
        <time>2022-10-26T13:12:49Z</time>
      </trkpt>
      <trkpt lat="10.208188" lon="-67.917574">
        <ele>442.60</ele>
        <time>2022-10-26T13:12:50Z</time>
      </trkpt>
      <trkpt lat="10.208155" lon="-67.917629">
        <ele>442.60</ele>
        <time>2022-10-26T13:12:51Z</time>
      </trkpt>
      <trkpt lat="10.208099" lon="-67.917668">
        <ele>442.60</ele>
        <time>2022-10-26T13:12:52Z</time>
      </trkpt>
      <trkpt lat="10.208034" lon="-67.917710">
        <ele>442.50</ele>
        <time>2022-10-26T13:12:53Z</time>
      </trkpt>
      <trkpt lat="10.207969" lon="-67.917751">
        <ele>442.50</ele>
        <time>2022-10-26T13:12:54Z</time>
      </trkpt>
      <trkpt lat="10.207906" lon="-67.917800">
        <ele>442.50</ele>
        <time>2022-10-26T13:12:55Z</time>
      </trkpt>
      <trkpt lat="10.207847" lon="-67.917846">
        <ele>442.50</ele>
        <time>2022-10-26T13:12:56Z</time>
      </trkpt>
      <trkpt lat="10.207788" lon="-67.917890">
        <ele>442.50</ele>
        <time>2022-10-26T13:12:57Z</time>
      </trkpt>
      <trkpt lat="10.207754" lon="-67.917952">
        <ele>442.40</ele>
        <time>2022-10-26T13:12:58Z</time>
      </trkpt>
      <trkpt lat="10.207715" lon="-67.918008">
        <ele>442.40</ele>
        <time>2022-10-26T13:12:59Z</time>
      </trkpt>
      <trkpt lat="10.207680" lon="-67.918072">
        <ele>442.40</ele>
        <time>2022-10-26T13:13:00Z</time>
      </trkpt>
      <trkpt lat="10.207649" lon="-67.918137">
        <ele>442.40</ele>
        <time>2022-10-26T13:13:01Z</time>
      </trkpt>
      <trkpt lat="10.207602" lon="-67.918191">
        <ele>442.40</ele>
        <time>2022-10-26T13:13:02Z</time>
      </trkpt>
      <trkpt lat="10.207568" lon="-67.918259">
        <ele>442.30</ele>
        <time>2022-10-26T13:13:03Z</time>
      </trkpt>
      <trkpt lat="10.207529" lon="-67.918319">
        <ele>442.30</ele>
        <time>2022-10-26T13:13:04Z</time>
      </trkpt>
      <trkpt lat="10.207487" lon="-67.918377">
        <ele>442.30</ele>
        <time>2022-10-26T13:13:05Z</time>
      </trkpt>
      <trkpt lat="10.207440" lon="-67.918430">
        <ele>442.20</ele>
        <time>2022-10-26T13:13:06Z</time>
      </trkpt>
      <trkpt lat="10.207395" lon="-67.918481">
        <ele>442.20</ele>
        <time>2022-10-26T13:13:07Z</time>
      </trkpt>
      <trkpt lat="10.207346" lon="-67.918521">
        <ele>442.20</ele>
        <time>2022-10-26T13:13:08Z</time>
      </trkpt>
      <trkpt lat="10.207294" lon="-67.918556">
        <ele>442.20</ele>
        <time>2022-10-26T13:13:09Z</time>
      </trkpt>
      <trkpt lat="10.207253" lon="-67.918599">
        <ele>442.20</ele>
        <time>2022-10-26T13:13:10Z</time>
      </trkpt>
      <trkpt lat="10.207221" lon="-67.918652">
        <ele>442.20</ele>
        <time>2022-10-26T13:13:11Z</time>
      </trkpt>
      <trkpt lat="10.207183" lon="-67.918703">
        <ele>442.20</ele>
        <time>2022-10-26T13:13:12Z</time>
      </trkpt>
      <trkpt lat="10.207152" lon="-67.918767">
        <ele>442.20</ele>
        <time>2022-10-26T13:13:13Z</time>
      </trkpt>
      <trkpt lat="10.207112" lon="-67.918831">
        <ele>442.20</ele>
        <time>2022-10-26T13:13:14Z</time>
      </trkpt>
      <trkpt lat="10.207073" lon="-67.918890">
        <ele>442.20</ele>
        <time>2022-10-26T13:13:15Z</time>
      </trkpt>
      <trkpt lat="10.207002" lon="-67.918940">
        <ele>442.20</ele>
        <time>2022-10-26T13:13:16Z</time>
      </trkpt>
      <trkpt lat="10.206921" lon="-67.918996">
        <ele>442.20</ele>
        <time>2022-10-26T13:13:17Z</time>
      </trkpt>
      <trkpt lat="10.206865" lon="-67.919060">
        <ele>442.20</ele>
        <time>2022-10-26T13:13:18Z</time>
      </trkpt>
      <trkpt lat="10.206821" lon="-67.919111">
        <ele>442.20</ele>
        <time>2022-10-26T13:13:19Z</time>
      </trkpt>
      <trkpt lat="10.206784" lon="-67.919163">
        <ele>442.20</ele>
        <time>2022-10-26T13:13:20Z</time>
      </trkpt>
      <trkpt lat="10.206726" lon="-67.919207">
        <ele>442.20</ele>
        <time>2022-10-26T13:13:21Z</time>
      </trkpt>
      <trkpt lat="10.206675" lon="-67.919255">
        <ele>442.20</ele>
        <time>2022-10-26T13:13:22Z</time>
      </trkpt>
      <trkpt lat="10.206632" lon="-67.919308">
        <ele>442.10</ele>
        <time>2022-10-26T13:13:23Z</time>
      </trkpt>
      <trkpt lat="10.206597" lon="-67.919370">
        <ele>442.10</ele>
        <time>2022-10-26T13:13:24Z</time>
      </trkpt>
      <trkpt lat="10.206568" lon="-67.919435">
        <ele>442.10</ele>
        <time>2022-10-26T13:13:25Z</time>
      </trkpt>
      <trkpt lat="10.206518" lon="-67.919494">
        <ele>442.00</ele>
        <time>2022-10-26T13:13:26Z</time>
      </trkpt>
      <trkpt lat="10.206473" lon="-67.919549">
        <ele>442.00</ele>
        <time>2022-10-26T13:13:27Z</time>
      </trkpt>
      <trkpt lat="10.206438" lon="-67.919601">
        <ele>441.90</ele>
        <time>2022-10-26T13:13:28Z</time>
      </trkpt>
      <trkpt lat="10.206388" lon="-67.919657">
        <ele>441.90</ele>
        <time>2022-10-26T13:13:29Z</time>
      </trkpt>
      <trkpt lat="10.206350" lon="-67.919722">
        <ele>441.90</ele>
        <time>2022-10-26T13:13:30Z</time>
      </trkpt>
      <trkpt lat="10.206304" lon="-67.919788">
        <ele>441.90</ele>
        <time>2022-10-26T13:13:31Z</time>
      </trkpt>
      <trkpt lat="10.206254" lon="-67.919855">
        <ele>441.80</ele>
        <time>2022-10-26T13:13:32Z</time>
      </trkpt>
      <trkpt lat="10.206232" lon="-67.919936">
        <ele>441.80</ele>
        <time>2022-10-26T13:13:33Z</time>
      </trkpt>
      <trkpt lat="10.206222" lon="-67.920016">
        <ele>441.80</ele>
        <time>2022-10-26T13:13:34Z</time>
      </trkpt>
      <trkpt lat="10.206245" lon="-67.920103">
        <ele>441.80</ele>
        <time>2022-10-26T13:13:35Z</time>
      </trkpt>
      <trkpt lat="10.206230" lon="-67.920178">
        <ele>441.80</ele>
        <time>2022-10-26T13:13:36Z</time>
      </trkpt>
      <trkpt lat="10.206203" lon="-67.920239">
        <ele>441.80</ele>
        <time>2022-10-26T13:13:37Z</time>
      </trkpt>
      <trkpt lat="10.206165" lon="-67.920292">
        <ele>441.80</ele>
        <time>2022-10-26T13:13:38Z</time>
      </trkpt>
      <trkpt lat="10.206117" lon="-67.920330">
        <ele>441.80</ele>
        <time>2022-10-26T13:13:39Z</time>
      </trkpt>
      <trkpt lat="10.206079" lon="-67.920374">
        <ele>441.70</ele>
        <time>2022-10-26T13:13:40Z</time>
      </trkpt>
      <trkpt lat="10.206043" lon="-67.920420">
        <ele>441.70</ele>
        <time>2022-10-26T13:13:41Z</time>
      </trkpt>
      <trkpt lat="10.205959" lon="-67.920461">
        <ele>441.70</ele>
        <time>2022-10-26T13:13:42Z</time>
      </trkpt>
      <trkpt lat="10.205879" lon="-67.920498">
        <ele>441.60</ele>
        <time>2022-10-26T13:13:43Z</time>
      </trkpt>
      <trkpt lat="10.205805" lon="-67.920523">
        <ele>441.60</ele>
        <time>2022-10-26T13:13:44Z</time>
      </trkpt>
      <trkpt lat="10.205745" lon="-67.920561">
        <ele>441.60</ele>
        <time>2022-10-26T13:13:45Z</time>
      </trkpt>
      <trkpt lat="10.205683" lon="-67.920602">
        <ele>441.60</ele>
        <time>2022-10-26T13:13:46Z</time>
      </trkpt>
      <trkpt lat="10.205622" lon="-67.920638">
        <ele>441.60</ele>
        <time>2022-10-26T13:13:47Z</time>
      </trkpt>
      <trkpt lat="10.205574" lon="-67.920683">
        <ele>441.60</ele>
        <time>2022-10-26T13:13:48Z</time>
      </trkpt>
      <trkpt lat="10.205517" lon="-67.920723">
        <ele>441.60</ele>
        <time>2022-10-26T13:13:49Z</time>
      </trkpt>
      <trkpt lat="10.205460" lon="-67.920755">
        <ele>441.60</ele>
        <time>2022-10-26T13:13:50Z</time>
      </trkpt>
      <trkpt lat="10.205407" lon="-67.920788">
        <ele>441.50</ele>
        <time>2022-10-26T13:13:51Z</time>
      </trkpt>
      <trkpt lat="10.205373" lon="-67.920841">
        <ele>441.50</ele>
        <time>2022-10-26T13:13:52Z</time>
      </trkpt>
      <trkpt lat="10.205343" lon="-67.920896">
        <ele>441.50</ele>
        <time>2022-10-26T13:13:53Z</time>
      </trkpt>
      <trkpt lat="10.205326" lon="-67.920945">
        <ele>441.50</ele>
        <time>2022-10-26T13:13:54Z</time>
      </trkpt>
      <trkpt lat="10.205316" lon="-67.921006">
        <ele>441.50</ele>
        <time>2022-10-26T13:13:55Z</time>
      </trkpt>
      <trkpt lat="10.205290" lon="-67.921060">
        <ele>441.40</ele>
        <time>2022-10-26T13:13:56Z</time>
      </trkpt>
      <trkpt lat="10.205254" lon="-67.921116">
        <ele>441.40</ele>
        <time>2022-10-26T13:13:57Z</time>
      </trkpt>
      <trkpt lat="10.205211" lon="-67.921175">
        <ele>441.40</ele>
        <time>2022-10-26T13:13:58Z</time>
      </trkpt>
      <trkpt lat="10.205164" lon="-67.921226">
        <ele>441.40</ele>
        <time>2022-10-26T13:13:59Z</time>
      </trkpt>
      <trkpt lat="10.205124" lon="-67.921276">
        <ele>441.30</ele>
        <time>2022-10-26T13:14:00Z</time>
      </trkpt>
      <trkpt lat="10.205061" lon="-67.921316">
        <ele>441.30</ele>
        <time>2022-10-26T13:14:01Z</time>
      </trkpt>
      <trkpt lat="10.205009" lon="-67.921364">
        <ele>441.20</ele>
        <time>2022-10-26T13:14:02Z</time>
      </trkpt>
      <trkpt lat="10.204954" lon="-67.921412">
        <ele>441.20</ele>
        <time>2022-10-26T13:14:03Z</time>
      </trkpt>
      <trkpt lat="10.204902" lon="-67.921460">
        <ele>441.20</ele>
        <time>2022-10-26T13:14:04Z</time>
      </trkpt>
      <trkpt lat="10.204869" lon="-67.921505">
        <ele>441.10</ele>
        <time>2022-10-26T13:14:05Z</time>
      </trkpt>
      <trkpt lat="10.204808" lon="-67.921561">
        <ele>441.10</ele>
        <time>2022-10-26T13:14:06Z</time>
      </trkpt>
      <trkpt lat="10.204748" lon="-67.921619">
        <ele>441.10</ele>
        <time>2022-10-26T13:14:07Z</time>
      </trkpt>
      <trkpt lat="10.204682" lon="-67.921674">
        <ele>441.00</ele>
        <time>2022-10-26T13:14:08Z</time>
      </trkpt>
      <trkpt lat="10.204638" lon="-67.921730">
        <ele>441.00</ele>
        <time>2022-10-26T13:14:09Z</time>
      </trkpt>
      <trkpt lat="10.204600" lon="-67.921778">
        <ele>441.00</ele>
        <time>2022-10-26T13:14:10Z</time>
      </trkpt>
      <trkpt lat="10.204566" lon="-67.921835">
        <ele>441.00</ele>
        <time>2022-10-26T13:14:11Z</time>
      </trkpt>
      <trkpt lat="10.204543" lon="-67.921896">
        <ele>441.00</ele>
        <time>2022-10-26T13:14:12Z</time>
      </trkpt>
      <trkpt lat="10.204525" lon="-67.921959">
        <ele>441.00</ele>
        <time>2022-10-26T13:14:13Z</time>
      </trkpt>
      <trkpt lat="10.204509" lon="-67.922020">
        <ele>441.00</ele>
        <time>2022-10-26T13:14:14Z</time>
      </trkpt>
      <trkpt lat="10.204505" lon="-67.922091">
        <ele>441.00</ele>
        <time>2022-10-26T13:14:15Z</time>
      </trkpt>
      <trkpt lat="10.204492" lon="-67.922159">
        <ele>441.00</ele>
        <time>2022-10-26T13:14:16Z</time>
      </trkpt>
      <trkpt lat="10.204472" lon="-67.922219">
        <ele>441.00</ele>
        <time>2022-10-26T13:14:17Z</time>
      </trkpt>
      <trkpt lat="10.204428" lon="-67.922269">
        <ele>441.00</ele>
        <time>2022-10-26T13:14:18Z</time>
      </trkpt>
      <trkpt lat="10.204370" lon="-67.922315">
        <ele>441.00</ele>
        <time>2022-10-26T13:14:19Z</time>
      </trkpt>
      <trkpt lat="10.204325" lon="-67.922366">
        <ele>441.10</ele>
        <time>2022-10-26T13:14:20Z</time>
      </trkpt>
      <trkpt lat="10.204281" lon="-67.922414">
        <ele>441.10</ele>
        <time>2022-10-26T13:14:21Z</time>
      </trkpt>
      <trkpt lat="10.204232" lon="-67.922465">
        <ele>441.10</ele>
        <time>2022-10-26T13:14:22Z</time>
      </trkpt>
      <trkpt lat="10.204182" lon="-67.922516">
        <ele>441.10</ele>
        <time>2022-10-26T13:14:23Z</time>
      </trkpt>
      <trkpt lat="10.204146" lon="-67.922572">
        <ele>441.10</ele>
        <time>2022-10-26T13:14:24Z</time>
      </trkpt>
      <trkpt lat="10.204109" lon="-67.922624">
        <ele>441.10</ele>
        <time>2022-10-26T13:14:25Z</time>
      </trkpt>
      <trkpt lat="10.204073" lon="-67.922679">
        <ele>441.10</ele>
        <time>2022-10-26T13:14:26Z</time>
      </trkpt>
      <trkpt lat="10.204028" lon="-67.922732">
        <ele>441.10</ele>
        <time>2022-10-26T13:14:27Z</time>
      </trkpt>
      <trkpt lat="10.203988" lon="-67.922785">
        <ele>441.10</ele>
        <time>2022-10-26T13:14:28Z</time>
      </trkpt>
      <trkpt lat="10.203942" lon="-67.922835">
        <ele>441.00</ele>
        <time>2022-10-26T13:14:29Z</time>
      </trkpt>
      <trkpt lat="10.203892" lon="-67.922885">
        <ele>441.00</ele>
        <time>2022-10-26T13:14:30Z</time>
      </trkpt>
      <trkpt lat="10.203866" lon="-67.922952">
        <ele>441.00</ele>
        <time>2022-10-26T13:14:31Z</time>
      </trkpt>
      <trkpt lat="10.203829" lon="-67.923015">
        <ele>441.00</ele>
        <time>2022-10-26T13:14:32Z</time>
      </trkpt>
      <trkpt lat="10.203796" lon="-67.923081">
        <ele>441.10</ele>
        <time>2022-10-26T13:14:33Z</time>
      </trkpt>
      <trkpt lat="10.203758" lon="-67.923151">
        <ele>441.10</ele>
        <time>2022-10-26T13:14:34Z</time>
      </trkpt>
      <trkpt lat="10.203720" lon="-67.923212">
        <ele>441.10</ele>
        <time>2022-10-26T13:14:35Z</time>
      </trkpt>
      <trkpt lat="10.203679" lon="-67.923273">
        <ele>441.10</ele>
        <time>2022-10-26T13:14:36Z</time>
      </trkpt>
      <trkpt lat="10.203629" lon="-67.923329">
        <ele>441.20</ele>
        <time>2022-10-26T13:14:37Z</time>
      </trkpt>
      <trkpt lat="10.203583" lon="-67.923373">
        <ele>441.20</ele>
        <time>2022-10-26T13:14:38Z</time>
      </trkpt>
      <trkpt lat="10.203550" lon="-67.923420">
        <ele>441.30</ele>
        <time>2022-10-26T13:14:39Z</time>
      </trkpt>
      <trkpt lat="10.203526" lon="-67.923476">
        <ele>441.30</ele>
        <time>2022-10-26T13:14:40Z</time>
      </trkpt>
      <trkpt lat="10.203489" lon="-67.923533">
        <ele>441.30</ele>
        <time>2022-10-26T13:14:41Z</time>
      </trkpt>
      <trkpt lat="10.203446" lon="-67.923583">
        <ele>441.30</ele>
        <time>2022-10-26T13:14:42Z</time>
      </trkpt>
      <trkpt lat="10.203408" lon="-67.923639">
        <ele>441.40</ele>
        <time>2022-10-26T13:14:43Z</time>
      </trkpt>
      <trkpt lat="10.203396" lon="-67.923705">
        <ele>441.40</ele>
        <time>2022-10-26T13:14:44Z</time>
      </trkpt>
      <trkpt lat="10.203374" lon="-67.923768">
        <ele>441.40</ele>
        <time>2022-10-26T13:14:45Z</time>
      </trkpt>
      <trkpt lat="10.203355" lon="-67.923837">
        <ele>441.40</ele>
        <time>2022-10-26T13:14:46Z</time>
      </trkpt>
      <trkpt lat="10.203312" lon="-67.923895">
        <ele>441.40</ele>
        <time>2022-10-26T13:14:47Z</time>
      </trkpt>
      <trkpt lat="10.203250" lon="-67.923939">
        <ele>441.50</ele>
        <time>2022-10-26T13:14:48Z</time>
      </trkpt>
      <trkpt lat="10.203191" lon="-67.923983">
        <ele>441.50</ele>
        <time>2022-10-26T13:14:49Z</time>
      </trkpt>
      <trkpt lat="10.203133" lon="-67.924030">
        <ele>441.50</ele>
        <time>2022-10-26T13:14:50Z</time>
      </trkpt>
      <trkpt lat="10.203067" lon="-67.924088">
        <ele>441.50</ele>
        <time>2022-10-26T13:14:51Z</time>
      </trkpt>
      <trkpt lat="10.203002" lon="-67.924136">
        <ele>441.60</ele>
        <time>2022-10-26T13:14:52Z</time>
      </trkpt>
      <trkpt lat="10.202939" lon="-67.924171">
        <ele>441.70</ele>
        <time>2022-10-26T13:14:53Z</time>
      </trkpt>
      <trkpt lat="10.202884" lon="-67.924209">
        <ele>441.80</ele>
        <time>2022-10-26T13:14:54Z</time>
      </trkpt>
      <trkpt lat="10.202834" lon="-67.924244">
        <ele>441.80</ele>
        <time>2022-10-26T13:14:55Z</time>
      </trkpt>
      <trkpt lat="10.202792" lon="-67.924290">
        <ele>441.90</ele>
        <time>2022-10-26T13:14:56Z</time>
      </trkpt>
      <trkpt lat="10.202761" lon="-67.924335">
        <ele>441.90</ele>
        <time>2022-10-26T13:14:57Z</time>
      </trkpt>
      <trkpt lat="10.202727" lon="-67.924382">
        <ele>441.90</ele>
        <time>2022-10-26T13:14:58Z</time>
      </trkpt>
      <trkpt lat="10.202674" lon="-67.924430">
        <ele>441.90</ele>
        <time>2022-10-26T13:14:59Z</time>
      </trkpt>
      <trkpt lat="10.202616" lon="-67.924478">
        <ele>442.00</ele>
        <time>2022-10-26T13:15:00Z</time>
      </trkpt>
      <trkpt lat="10.202576" lon="-67.924525">
        <ele>442.00</ele>
        <time>2022-10-26T13:15:01Z</time>
      </trkpt>
      <trkpt lat="10.202530" lon="-67.924578">
        <ele>442.00</ele>
        <time>2022-10-26T13:15:02Z</time>
      </trkpt>
      <trkpt lat="10.202489" lon="-67.924622">
        <ele>442.10</ele>
        <time>2022-10-26T13:15:03Z</time>
      </trkpt>
      <trkpt lat="10.202438" lon="-67.924655">
        <ele>442.10</ele>
        <time>2022-10-26T13:15:04Z</time>
      </trkpt>
      <trkpt lat="10.202400" lon="-67.924685">
        <ele>442.20</ele>
        <time>2022-10-26T13:15:05Z</time>
      </trkpt>
      <trkpt lat="10.202392" lon="-67.924692">
        <ele>442.20</ele>
        <time>2022-10-26T13:15:06Z</time>
      </trkpt>
      <trkpt lat="10.202384" lon="-67.924712">
        <ele>442.20</ele>
        <time>2022-10-26T13:15:07Z</time>
      </trkpt>
      <trkpt lat="10.202370" lon="-67.924745">
        <ele>442.20</ele>
        <time>2022-10-26T13:15:08Z</time>
      </trkpt>
      <trkpt lat="10.202364" lon="-67.924757">
        <ele>442.20</ele>
        <time>2022-10-26T13:15:09Z</time>
      </trkpt>
      <trkpt lat="10.202347" lon="-67.924785">
        <ele>442.20</ele>
        <time>2022-10-26T13:15:10Z</time>
      </trkpt>
      <trkpt lat="10.202326" lon="-67.924830">
        <ele>442.30</ele>
        <time>2022-10-26T13:15:11Z</time>
      </trkpt>
      <trkpt lat="10.202253" lon="-67.924923">
        <ele>442.40</ele>
        <time>2022-10-26T13:15:12Z</time>
      </trkpt>
      <trkpt lat="10.202143" lon="-67.925023">
        <ele>442.40</ele>
        <time>2022-10-26T13:15:13Z</time>
      </trkpt>
      <trkpt lat="10.202065" lon="-67.925094">
        <ele>442.50</ele>
        <time>2022-10-26T13:15:14Z</time>
      </trkpt>
      <trkpt lat="10.202005" lon="-67.925162">
        <ele>442.60</ele>
        <time>2022-10-26T13:15:15Z</time>
      </trkpt>
      <trkpt lat="10.201945" lon="-67.925231">
        <ele>442.70</ele>
        <time>2022-10-26T13:15:16Z</time>
      </trkpt>
      <trkpt lat="10.201869" lon="-67.925337">
        <ele>442.80</ele>
        <time>2022-10-26T13:15:18Z</time>
      </trkpt>
      <trkpt lat="10.201829" lon="-67.925383">
        <ele>442.80</ele>
        <time>2022-10-26T13:15:19Z</time>
      </trkpt>
      <trkpt lat="10.201816" lon="-67.925439">
        <ele>442.90</ele>
        <time>2022-10-26T13:15:20Z</time>
      </trkpt>
      <trkpt lat="10.201799" lon="-67.925496">
        <ele>442.90</ele>
        <time>2022-10-26T13:15:21Z</time>
      </trkpt>
      <trkpt lat="10.201776" lon="-67.925532">
        <ele>443.00</ele>
        <time>2022-10-26T13:15:22Z</time>
      </trkpt>
      <trkpt lat="10.201785" lon="-67.925504">
        <ele>443.00</ele>
        <time>2022-10-26T13:15:23Z</time>
      </trkpt>
      <trkpt lat="10.201796" lon="-67.925490">
        <ele>443.00</ele>
        <time>2022-10-26T13:15:24Z</time>
      </trkpt>
      <trkpt lat="10.201788" lon="-67.925513">
        <ele>443.00</ele>
        <time>2022-10-26T13:15:25Z</time>
      </trkpt>
      <trkpt lat="10.201769" lon="-67.925564">
        <ele>443.10</ele>
        <time>2022-10-26T13:15:27Z</time>
      </trkpt>
      <trkpt lat="10.201729" lon="-67.925617">
        <ele>443.10</ele>
        <time>2022-10-26T13:15:28Z</time>
      </trkpt>
      <trkpt lat="10.201690" lon="-67.925655">
        <ele>443.20</ele>
        <time>2022-10-26T13:15:29Z</time>
      </trkpt>
      <trkpt lat="10.201546" lon="-67.925833">
        <ele>443.40</ele>
        <time>2022-10-26T13:15:30Z</time>
      </trkpt>
      <trkpt lat="10.201509" lon="-67.925886">
        <ele>443.40</ele>
        <time>2022-10-26T13:15:31Z</time>
      </trkpt>
      <trkpt lat="10.201442" lon="-67.925978">
        <ele>443.50</ele>
        <time>2022-10-26T13:15:32Z</time>
      </trkpt>
      <trkpt lat="10.201393" lon="-67.926065">
        <ele>443.70</ele>
        <time>2022-10-26T13:15:33Z</time>
      </trkpt>
      <trkpt lat="10.201364" lon="-67.926151">
        <ele>443.80</ele>
        <time>2022-10-26T13:15:34Z</time>
      </trkpt>
      <trkpt lat="10.201317" lon="-67.926214">
        <ele>443.80</ele>
        <time>2022-10-26T13:15:35Z</time>
      </trkpt>
      <trkpt lat="10.201256" lon="-67.926252">
        <ele>443.90</ele>
        <time>2022-10-26T13:15:36Z</time>
      </trkpt>
      <trkpt lat="10.201201" lon="-67.926296">
        <ele>444.00</ele>
        <time>2022-10-26T13:15:37Z</time>
      </trkpt>
      <trkpt lat="10.201150" lon="-67.926337">
        <ele>444.10</ele>
        <time>2022-10-26T13:15:38Z</time>
      </trkpt>
      <trkpt lat="10.201110" lon="-67.926382">
        <ele>444.20</ele>
        <time>2022-10-26T13:15:39Z</time>
      </trkpt>
      <trkpt lat="10.201075" lon="-67.926426">
        <ele>444.20</ele>
        <time>2022-10-26T13:15:40Z</time>
      </trkpt>
      <trkpt lat="10.201053" lon="-67.926442">
        <ele>444.30</ele>
        <time>2022-10-26T13:15:41Z</time>
      </trkpt>
      <trkpt lat="10.201040" lon="-67.926450">
        <ele>444.30</ele>
        <time>2022-10-26T13:15:42Z</time>
      </trkpt>
      <trkpt lat="10.201027" lon="-67.926458">
        <ele>444.30</ele>
        <time>2022-10-26T13:15:43Z</time>
      </trkpt>
      <trkpt lat="10.201003" lon="-67.926474">
        <ele>444.40</ele>
        <time>2022-10-26T13:15:44Z</time>
      </trkpt>
      <trkpt lat="10.200973" lon="-67.926492">
        <ele>444.40</ele>
        <time>2022-10-26T13:15:46Z</time>
      </trkpt>
      <trkpt lat="10.200962" lon="-67.926499">
        <ele>444.40</ele>
        <time>2022-10-26T13:15:47Z</time>
      </trkpt>
      <trkpt lat="10.200936" lon="-67.926520">
        <ele>444.50</ele>
        <time>2022-10-26T13:15:48Z</time>
      </trkpt>
      <trkpt lat="10.200906" lon="-67.926546">
        <ele>444.50</ele>
        <time>2022-10-26T13:15:49Z</time>
      </trkpt>
      <trkpt lat="10.200881" lon="-67.926569">
        <ele>444.50</ele>
        <time>2022-10-26T13:15:50Z</time>
      </trkpt>
      <trkpt lat="10.200873" lon="-67.926575">
        <ele>444.50</ele>
        <time>2022-10-26T13:15:51Z</time>
      </trkpt>
      <trkpt lat="10.200825" lon="-67.926622">
        <ele>444.60</ele>
        <time>2022-10-26T13:15:52Z</time>
      </trkpt>
      <trkpt lat="10.200790" lon="-67.926661">
        <ele>444.70</ele>
        <time>2022-10-26T13:15:53Z</time>
      </trkpt>
      <trkpt lat="10.200594" lon="-67.926970">
        <ele>444.90</ele>
        <time>2022-10-26T13:15:55Z</time>
      </trkpt>
      <trkpt lat="10.200509" lon="-67.927086">
        <ele>445.00</ele>
        <time>2022-10-26T13:15:56Z</time>
      </trkpt>
      <trkpt lat="10.200442" lon="-67.927174">
        <ele>445.10</ele>
        <time>2022-10-26T13:15:57Z</time>
      </trkpt>
      <trkpt lat="10.200384" lon="-67.927252">
        <ele>445.20</ele>
        <time>2022-10-26T13:15:58Z</time>
      </trkpt>
      <trkpt lat="10.200334" lon="-67.927325">
        <ele>445.20</ele>
        <time>2022-10-26T13:15:59Z</time>
      </trkpt>
      <trkpt lat="10.200275" lon="-67.927380">
        <ele>445.30</ele>
        <time>2022-10-26T13:16:00Z</time>
      </trkpt>
      <trkpt lat="10.200221" lon="-67.927438">
        <ele>445.40</ele>
        <time>2022-10-26T13:16:01Z</time>
      </trkpt>
      <trkpt lat="10.200187" lon="-67.927497">
        <ele>445.40</ele>
        <time>2022-10-26T13:16:02Z</time>
      </trkpt>
      <trkpt lat="10.200139" lon="-67.927547">
        <ele>445.50</ele>
        <time>2022-10-26T13:16:03Z</time>
      </trkpt>
      <trkpt lat="10.200093" lon="-67.927598">
        <ele>445.50</ele>
        <time>2022-10-26T13:16:04Z</time>
      </trkpt>
      <trkpt lat="10.200052" lon="-67.927650">
        <ele>445.60</ele>
        <time>2022-10-26T13:16:05Z</time>
      </trkpt>
      <trkpt lat="10.200015" lon="-67.927702">
        <ele>445.70</ele>
        <time>2022-10-26T13:16:06Z</time>
      </trkpt>
      <trkpt lat="10.199966" lon="-67.927749">
        <ele>445.70</ele>
        <time>2022-10-26T13:16:07Z</time>
      </trkpt>
      <trkpt lat="10.199914" lon="-67.927794">
        <ele>445.80</ele>
        <time>2022-10-26T13:16:08Z</time>
      </trkpt>
      <trkpt lat="10.199864" lon="-67.927847">
        <ele>445.90</ele>
        <time>2022-10-26T13:16:09Z</time>
      </trkpt>
      <trkpt lat="10.199825" lon="-67.927895">
        <ele>445.90</ele>
        <time>2022-10-26T13:16:10Z</time>
      </trkpt>
      <trkpt lat="10.199783" lon="-67.927938">
        <ele>446.00</ele>
        <time>2022-10-26T13:16:11Z</time>
      </trkpt>
      <trkpt lat="10.199730" lon="-67.927975">
        <ele>446.00</ele>
        <time>2022-10-26T13:16:12Z</time>
      </trkpt>
      <trkpt lat="10.199673" lon="-67.928015">
        <ele>446.10</ele>
        <time>2022-10-26T13:16:13Z</time>
      </trkpt>
      <trkpt lat="10.199635" lon="-67.928065">
        <ele>446.20</ele>
        <time>2022-10-26T13:16:14Z</time>
      </trkpt>
      <trkpt lat="10.199604" lon="-67.928121">
        <ele>446.20</ele>
        <time>2022-10-26T13:16:15Z</time>
      </trkpt>
      <trkpt lat="10.199568" lon="-67.928170">
        <ele>446.30</ele>
        <time>2022-10-26T13:16:16Z</time>
      </trkpt>
      <trkpt lat="10.199530" lon="-67.928217">
        <ele>446.40</ele>
        <time>2022-10-26T13:16:17Z</time>
      </trkpt>
      <trkpt lat="10.199504" lon="-67.928262">
        <ele>446.40</ele>
        <time>2022-10-26T13:16:18Z</time>
      </trkpt>
      <trkpt lat="10.199480" lon="-67.928308">
        <ele>446.50</ele>
        <time>2022-10-26T13:16:19Z</time>
      </trkpt>
      <trkpt lat="10.199453" lon="-67.928352">
        <ele>446.60</ele>
        <time>2022-10-26T13:16:20Z</time>
      </trkpt>
      <trkpt lat="10.199416" lon="-67.928389">
        <ele>446.60</ele>
        <time>2022-10-26T13:16:21Z</time>
      </trkpt>
      <trkpt lat="10.199372" lon="-67.928412">
        <ele>446.70</ele>
        <time>2022-10-26T13:16:22Z</time>
      </trkpt>
      <trkpt lat="10.199325" lon="-67.928439">
        <ele>446.80</ele>
        <time>2022-10-26T13:16:23Z</time>
      </trkpt>
      <trkpt lat="10.199284" lon="-67.928464">
        <ele>446.90</ele>
        <time>2022-10-26T13:16:24Z</time>
      </trkpt>
      <trkpt lat="10.199244" lon="-67.928503">
        <ele>446.90</ele>
        <time>2022-10-26T13:16:25Z</time>
      </trkpt>
      <trkpt lat="10.199201" lon="-67.928543">
        <ele>447.00</ele>
        <time>2022-10-26T13:16:26Z</time>
      </trkpt>
      <trkpt lat="10.199163" lon="-67.928587">
        <ele>447.00</ele>
        <time>2022-10-26T13:16:27Z</time>
      </trkpt>
      <trkpt lat="10.199119" lon="-67.928629">
        <ele>447.10</ele>
        <time>2022-10-26T13:16:28Z</time>
      </trkpt>
      <trkpt lat="10.199078" lon="-67.928681">
        <ele>447.20</ele>
        <time>2022-10-26T13:16:29Z</time>
      </trkpt>
      <trkpt lat="10.199043" lon="-67.928732">
        <ele>447.20</ele>
        <time>2022-10-26T13:16:30Z</time>
      </trkpt>
      <trkpt lat="10.199002" lon="-67.928777">
        <ele>447.30</ele>
        <time>2022-10-26T13:16:31Z</time>
      </trkpt>
      <trkpt lat="10.198963" lon="-67.928826">
        <ele>447.30</ele>
        <time>2022-10-26T13:16:32Z</time>
      </trkpt>
      <trkpt lat="10.198933" lon="-67.928891">
        <ele>447.40</ele>
        <time>2022-10-26T13:16:33Z</time>
      </trkpt>
      <trkpt lat="10.198901" lon="-67.928950">
        <ele>447.50</ele>
        <time>2022-10-26T13:16:34Z</time>
      </trkpt>
      <trkpt lat="10.198876" lon="-67.928995">
        <ele>447.50</ele>
        <time>2022-10-26T13:16:35Z</time>
      </trkpt>
      <trkpt lat="10.198876" lon="-67.929008">
        <ele>447.50</ele>
        <time>2022-10-26T13:16:36Z</time>
      </trkpt>
      <trkpt lat="10.198865" lon="-67.929027">
        <ele>447.60</ele>
        <time>2022-10-26T13:16:37Z</time>
      </trkpt>
      <trkpt lat="10.198847" lon="-67.929051">
        <ele>447.60</ele>
        <time>2022-10-26T13:16:38Z</time>
      </trkpt>
      <trkpt lat="10.198827" lon="-67.929075">
        <ele>447.60</ele>
        <time>2022-10-26T13:16:39Z</time>
      </trkpt>
      <trkpt lat="10.198804" lon="-67.929102">
        <ele>447.60</ele>
        <time>2022-10-26T13:16:40Z</time>
      </trkpt>
      <trkpt lat="10.198771" lon="-67.929141">
        <ele>447.70</ele>
        <time>2022-10-26T13:16:41Z</time>
      </trkpt>
      <trkpt lat="10.198716" lon="-67.929227">
        <ele>447.80</ele>
        <time>2022-10-26T13:16:42Z</time>
      </trkpt>
      <trkpt lat="10.198655" lon="-67.929326">
        <ele>447.90</ele>
        <time>2022-10-26T13:16:43Z</time>
      </trkpt>
      <trkpt lat="10.198579" lon="-67.929428">
        <ele>448.00</ele>
        <time>2022-10-26T13:16:44Z</time>
      </trkpt>
      <trkpt lat="10.198514" lon="-67.929513">
        <ele>448.10</ele>
        <time>2022-10-26T13:16:45Z</time>
      </trkpt>
      <trkpt lat="10.198460" lon="-67.929585">
        <ele>448.10</ele>
        <time>2022-10-26T13:16:46Z</time>
      </trkpt>
      <trkpt lat="10.198414" lon="-67.929644">
        <ele>448.10</ele>
        <time>2022-10-26T13:16:47Z</time>
      </trkpt>
      <trkpt lat="10.198375" lon="-67.929702">
        <ele>448.10</ele>
        <time>2022-10-26T13:16:48Z</time>
      </trkpt>
      <trkpt lat="10.198331" lon="-67.929752">
        <ele>448.10</ele>
        <time>2022-10-26T13:16:49Z</time>
      </trkpt>
      <trkpt lat="10.198284" lon="-67.929796">
        <ele>448.00</ele>
        <time>2022-10-26T13:16:50Z</time>
      </trkpt>
      <trkpt lat="10.198247" lon="-67.929848">
        <ele>448.00</ele>
        <time>2022-10-26T13:16:51Z</time>
      </trkpt>
      <trkpt lat="10.198221" lon="-67.929909">
        <ele>447.90</ele>
        <time>2022-10-26T13:16:52Z</time>
      </trkpt>
      <trkpt lat="10.198186" lon="-67.929962">
        <ele>447.90</ele>
        <time>2022-10-26T13:16:53Z</time>
      </trkpt>
      <trkpt lat="10.198132" lon="-67.930011">
        <ele>447.80</ele>
        <time>2022-10-26T13:16:54Z</time>
      </trkpt>
      <trkpt lat="10.198097" lon="-67.930070">
        <ele>447.80</ele>
        <time>2022-10-26T13:16:55Z</time>
      </trkpt>
      <trkpt lat="10.198062" lon="-67.930129">
        <ele>447.70</ele>
        <time>2022-10-26T13:16:56Z</time>
      </trkpt>
      <trkpt lat="10.198025" lon="-67.930185">
        <ele>447.60</ele>
        <time>2022-10-26T13:16:57Z</time>
      </trkpt>
      <trkpt lat="10.197991" lon="-67.930236">
        <ele>447.60</ele>
        <time>2022-10-26T13:16:58Z</time>
      </trkpt>
      <trkpt lat="10.197947" lon="-67.930286">
        <ele>447.50</ele>
        <time>2022-10-26T13:16:59Z</time>
      </trkpt>
      <trkpt lat="10.197916" lon="-67.930344">
        <ele>447.40</ele>
        <time>2022-10-26T13:17:00Z</time>
      </trkpt>
      <trkpt lat="10.197907" lon="-67.930402">
        <ele>447.40</ele>
        <time>2022-10-26T13:17:01Z</time>
      </trkpt>
      <trkpt lat="10.197886" lon="-67.930462">
        <ele>447.30</ele>
        <time>2022-10-26T13:17:02Z</time>
      </trkpt>
      <trkpt lat="10.197861" lon="-67.930536">
        <ele>447.30</ele>
        <time>2022-10-26T13:17:03Z</time>
      </trkpt>
      <trkpt lat="10.197841" lon="-67.930607">
        <ele>447.20</ele>
        <time>2022-10-26T13:17:04Z</time>
      </trkpt>
      <trkpt lat="10.197819" lon="-67.930671">
        <ele>447.20</ele>
        <time>2022-10-26T13:17:05Z</time>
      </trkpt>
      <trkpt lat="10.197808" lon="-67.930735">
        <ele>447.10</ele>
        <time>2022-10-26T13:17:06Z</time>
      </trkpt>
      <trkpt lat="10.197784" lon="-67.930786">
        <ele>447.10</ele>
        <time>2022-10-26T13:17:07Z</time>
      </trkpt>
      <trkpt lat="10.197768" lon="-67.930851">
        <ele>447.00</ele>
        <time>2022-10-26T13:17:08Z</time>
      </trkpt>
      <trkpt lat="10.197742" lon="-67.930916">
        <ele>447.00</ele>
        <time>2022-10-26T13:17:09Z</time>
      </trkpt>
      <trkpt lat="10.197711" lon="-67.930973">
        <ele>446.90</ele>
        <time>2022-10-26T13:17:10Z</time>
      </trkpt>
      <trkpt lat="10.197675" lon="-67.931028">
        <ele>446.80</ele>
        <time>2022-10-26T13:17:11Z</time>
      </trkpt>
      <trkpt lat="10.197635" lon="-67.931085">
        <ele>446.70</ele>
        <time>2022-10-26T13:17:12Z</time>
      </trkpt>
      <trkpt lat="10.197615" lon="-67.931148">
        <ele>446.70</ele>
        <time>2022-10-26T13:17:13Z</time>
      </trkpt>
      <trkpt lat="10.197604" lon="-67.931219">
        <ele>446.60</ele>
        <time>2022-10-26T13:17:14Z</time>
      </trkpt>
      <trkpt lat="10.197590" lon="-67.931285">
        <ele>446.60</ele>
        <time>2022-10-26T13:17:15Z</time>
      </trkpt>
      <trkpt lat="10.197575" lon="-67.931347">
        <ele>446.50</ele>
        <time>2022-10-26T13:17:16Z</time>
      </trkpt>
      <trkpt lat="10.197552" lon="-67.931399">
        <ele>446.50</ele>
        <time>2022-10-26T13:17:17Z</time>
      </trkpt>
      <trkpt lat="10.197530" lon="-67.931456">
        <ele>446.40</ele>
        <time>2022-10-26T13:17:18Z</time>
      </trkpt>
      <trkpt lat="10.197514" lon="-67.931515">
        <ele>446.40</ele>
        <time>2022-10-26T13:17:19Z</time>
      </trkpt>
      <trkpt lat="10.197496" lon="-67.931575">
        <ele>446.30</ele>
        <time>2022-10-26T13:17:20Z</time>
      </trkpt>
      <trkpt lat="10.197472" lon="-67.931631">
        <ele>446.30</ele>
        <time>2022-10-26T13:17:21Z</time>
      </trkpt>
      <trkpt lat="10.197453" lon="-67.931698">
        <ele>446.30</ele>
        <time>2022-10-26T13:17:22Z</time>
      </trkpt>
      <trkpt lat="10.197434" lon="-67.931772">
        <ele>446.20</ele>
        <time>2022-10-26T13:17:23Z</time>
      </trkpt>
      <trkpt lat="10.197405" lon="-67.931833">
        <ele>446.20</ele>
        <time>2022-10-26T13:17:24Z</time>
      </trkpt>
      <trkpt lat="10.197389" lon="-67.931900">
        <ele>446.10</ele>
        <time>2022-10-26T13:17:25Z</time>
      </trkpt>
      <trkpt lat="10.197374" lon="-67.931968">
        <ele>446.10</ele>
        <time>2022-10-26T13:17:26Z</time>
      </trkpt>
      <trkpt lat="10.197355" lon="-67.932030">
        <ele>446.00</ele>
        <time>2022-10-26T13:17:27Z</time>
      </trkpt>
      <trkpt lat="10.197313" lon="-67.932081">
        <ele>445.90</ele>
        <time>2022-10-26T13:17:28Z</time>
      </trkpt>
      <trkpt lat="10.197273" lon="-67.932132">
        <ele>445.90</ele>
        <time>2022-10-26T13:17:29Z</time>
      </trkpt>
      <trkpt lat="10.197236" lon="-67.932179">
        <ele>445.80</ele>
        <time>2022-10-26T13:17:30Z</time>
      </trkpt>
      <trkpt lat="10.197207" lon="-67.932238">
        <ele>445.70</ele>
        <time>2022-10-26T13:17:31Z</time>
      </trkpt>
      <trkpt lat="10.197182" lon="-67.932313">
        <ele>445.70</ele>
        <time>2022-10-26T13:17:32Z</time>
      </trkpt>
      <trkpt lat="10.197153" lon="-67.932384">
        <ele>445.60</ele>
        <time>2022-10-26T13:17:33Z</time>
      </trkpt>
      <trkpt lat="10.197129" lon="-67.932446">
        <ele>445.50</ele>
        <time>2022-10-26T13:17:34Z</time>
      </trkpt>
      <trkpt lat="10.197100" lon="-67.932505">
        <ele>445.50</ele>
        <time>2022-10-26T13:17:35Z</time>
      </trkpt>
      <trkpt lat="10.197070" lon="-67.932563">
        <ele>445.40</ele>
        <time>2022-10-26T13:17:36Z</time>
      </trkpt>
      <trkpt lat="10.197022" lon="-67.932613">
        <ele>445.40</ele>
        <time>2022-10-26T13:17:37Z</time>
      </trkpt>
      <trkpt lat="10.196972" lon="-67.932671">
        <ele>445.30</ele>
        <time>2022-10-26T13:17:38Z</time>
      </trkpt>
      <trkpt lat="10.196923" lon="-67.932732">
        <ele>445.20</ele>
        <time>2022-10-26T13:17:39Z</time>
      </trkpt>
      <trkpt lat="10.196872" lon="-67.932865">
        <ele>445.10</ele>
        <time>2022-10-26T13:17:41Z</time>
      </trkpt>
      <trkpt lat="10.196843" lon="-67.932927">
        <ele>445.00</ele>
        <time>2022-10-26T13:17:42Z</time>
      </trkpt>
      <trkpt lat="10.196823" lon="-67.932988">
        <ele>444.90</ele>
        <time>2022-10-26T13:17:43Z</time>
      </trkpt>
      <trkpt lat="10.196797" lon="-67.933053">
        <ele>444.80</ele>
        <time>2022-10-26T13:17:44Z</time>
      </trkpt>
      <trkpt lat="10.196773" lon="-67.933121">
        <ele>444.70</ele>
        <time>2022-10-26T13:17:45Z</time>
      </trkpt>
      <trkpt lat="10.196745" lon="-67.933192">
        <ele>444.60</ele>
        <time>2022-10-26T13:17:46Z</time>
      </trkpt>
      <trkpt lat="10.196717" lon="-67.933267">
        <ele>444.50</ele>
        <time>2022-10-26T13:17:47Z</time>
      </trkpt>
      <trkpt lat="10.196690" lon="-67.933337">
        <ele>444.40</ele>
        <time>2022-10-26T13:17:48Z</time>
      </trkpt>
      <trkpt lat="10.196670" lon="-67.933415">
        <ele>444.30</ele>
        <time>2022-10-26T13:17:49Z</time>
      </trkpt>
      <trkpt lat="10.196639" lon="-67.933492">
        <ele>444.20</ele>
        <time>2022-10-26T13:17:50Z</time>
      </trkpt>
      <trkpt lat="10.196601" lon="-67.933565">
        <ele>444.10</ele>
        <time>2022-10-26T13:17:51Z</time>
      </trkpt>
      <trkpt lat="10.196563" lon="-67.933634">
        <ele>444.00</ele>
        <time>2022-10-26T13:17:52Z</time>
      </trkpt>
      <trkpt lat="10.196531" lon="-67.933693">
        <ele>444.00</ele>
        <time>2022-10-26T13:17:53Z</time>
      </trkpt>
      <trkpt lat="10.196499" lon="-67.933749">
        <ele>443.90</ele>
        <time>2022-10-26T13:17:54Z</time>
      </trkpt>
      <trkpt lat="10.196468" lon="-67.933803">
        <ele>443.80</ele>
        <time>2022-10-26T13:17:55Z</time>
      </trkpt>
      <trkpt lat="10.196439" lon="-67.933870">
        <ele>443.70</ele>
        <time>2022-10-26T13:17:56Z</time>
      </trkpt>
      <trkpt lat="10.196408" lon="-67.933945">
        <ele>443.60</ele>
        <time>2022-10-26T13:17:57Z</time>
      </trkpt>
      <trkpt lat="10.196375" lon="-67.934029">
        <ele>443.60</ele>
        <time>2022-10-26T13:17:58Z</time>
      </trkpt>
      <trkpt lat="10.196353" lon="-67.934106">
        <ele>443.50</ele>
        <time>2022-10-26T13:17:59Z</time>
      </trkpt>
      <trkpt lat="10.196315" lon="-67.934183">
        <ele>443.40</ele>
        <time>2022-10-26T13:18:00Z</time>
      </trkpt>
      <trkpt lat="10.196276" lon="-67.934253">
        <ele>443.40</ele>
        <time>2022-10-26T13:18:01Z</time>
      </trkpt>
      <trkpt lat="10.196231" lon="-67.934324">
        <ele>443.30</ele>
        <time>2022-10-26T13:18:02Z</time>
      </trkpt>
      <trkpt lat="10.196177" lon="-67.934390">
        <ele>443.30</ele>
        <time>2022-10-26T13:18:03Z</time>
      </trkpt>
      <trkpt lat="10.196109" lon="-67.934429">
        <ele>443.30</ele>
        <time>2022-10-26T13:18:04Z</time>
      </trkpt>
      <trkpt lat="10.196066" lon="-67.934477">
        <ele>443.40</ele>
        <time>2022-10-26T13:18:05Z</time>
      </trkpt>
      <trkpt lat="10.196032" lon="-67.934532">
        <ele>443.50</ele>
        <time>2022-10-26T13:18:06Z</time>
      </trkpt>
      <trkpt lat="10.196011" lon="-67.934593">
        <ele>443.50</ele>
        <time>2022-10-26T13:18:07Z</time>
      </trkpt>
      <trkpt lat="10.195984" lon="-67.934642">
        <ele>443.50</ele>
        <time>2022-10-26T13:18:08Z</time>
      </trkpt>
      <trkpt lat="10.195955" lon="-67.934686">
        <ele>443.60</ele>
        <time>2022-10-26T13:18:09Z</time>
      </trkpt>
      <trkpt lat="10.195925" lon="-67.934731">
        <ele>443.60</ele>
        <time>2022-10-26T13:18:10Z</time>
      </trkpt>
      <trkpt lat="10.195895" lon="-67.934777">
        <ele>443.60</ele>
        <time>2022-10-26T13:18:11Z</time>
      </trkpt>
      <trkpt lat="10.195859" lon="-67.934826">
        <ele>443.70</ele>
        <time>2022-10-26T13:18:12Z</time>
      </trkpt>
      <trkpt lat="10.195833" lon="-67.934885">
        <ele>443.70</ele>
        <time>2022-10-26T13:18:13Z</time>
      </trkpt>
      <trkpt lat="10.195796" lon="-67.934952">
        <ele>443.80</ele>
        <time>2022-10-26T13:18:14Z</time>
      </trkpt>
      <trkpt lat="10.195724" lon="-67.934993">
        <ele>443.80</ele>
        <time>2022-10-26T13:18:15Z</time>
      </trkpt>
      <trkpt lat="10.195660" lon="-67.935045">
        <ele>443.90</ele>
        <time>2022-10-26T13:18:16Z</time>
      </trkpt>
      <trkpt lat="10.195619" lon="-67.935108">
        <ele>444.00</ele>
        <time>2022-10-26T13:18:17Z</time>
      </trkpt>
      <trkpt lat="10.195575" lon="-67.935163">
        <ele>444.00</ele>
        <time>2022-10-26T13:18:18Z</time>
      </trkpt>
      <trkpt lat="10.195526" lon="-67.935211">
        <ele>444.10</ele>
        <time>2022-10-26T13:18:19Z</time>
      </trkpt>
      <trkpt lat="10.195480" lon="-67.935264">
        <ele>444.20</ele>
        <time>2022-10-26T13:18:20Z</time>
      </trkpt>
      <trkpt lat="10.195442" lon="-67.935322">
        <ele>444.40</ele>
        <time>2022-10-26T13:18:21Z</time>
      </trkpt>
      <trkpt lat="10.195395" lon="-67.935365">
        <ele>444.50</ele>
        <time>2022-10-26T13:18:22Z</time>
      </trkpt>
      <trkpt lat="10.195354" lon="-67.935409">
        <ele>444.60</ele>
        <time>2022-10-26T13:18:23Z</time>
      </trkpt>
      <trkpt lat="10.195332" lon="-67.935458">
        <ele>444.70</ele>
        <time>2022-10-26T13:18:24Z</time>
      </trkpt>
      <trkpt lat="10.195299" lon="-67.935508">
        <ele>444.70</ele>
        <time>2022-10-26T13:18:25Z</time>
      </trkpt>
      <trkpt lat="10.195267" lon="-67.935562">
        <ele>444.80</ele>
        <time>2022-10-26T13:18:26Z</time>
      </trkpt>
      <trkpt lat="10.195241" lon="-67.935617">
        <ele>444.90</ele>
        <time>2022-10-26T13:18:27Z</time>
      </trkpt>
      <trkpt lat="10.195204" lon="-67.935670">
        <ele>445.00</ele>
        <time>2022-10-26T13:18:28Z</time>
      </trkpt>
      <trkpt lat="10.195165" lon="-67.935721">
        <ele>445.00</ele>
        <time>2022-10-26T13:18:29Z</time>
      </trkpt>
      <trkpt lat="10.195129" lon="-67.935774">
        <ele>445.00</ele>
        <time>2022-10-26T13:18:30Z</time>
      </trkpt>
      <trkpt lat="10.195087" lon="-67.935828">
        <ele>445.10</ele>
        <time>2022-10-26T13:18:31Z</time>
      </trkpt>
      <trkpt lat="10.195054" lon="-67.935878">
        <ele>445.10</ele>
        <time>2022-10-26T13:18:32Z</time>
      </trkpt>
      <trkpt lat="10.195027" lon="-67.935930">
        <ele>445.10</ele>
        <time>2022-10-26T13:18:33Z</time>
      </trkpt>
      <trkpt lat="10.194994" lon="-67.935991">
        <ele>445.10</ele>
        <time>2022-10-26T13:18:34Z</time>
      </trkpt>
      <trkpt lat="10.194962" lon="-67.936044">
        <ele>445.10</ele>
        <time>2022-10-26T13:18:35Z</time>
      </trkpt>
      <trkpt lat="10.194906" lon="-67.936089">
        <ele>445.20</ele>
        <time>2022-10-26T13:18:36Z</time>
      </trkpt>
      <trkpt lat="10.194859" lon="-67.936130">
        <ele>445.20</ele>
        <time>2022-10-26T13:18:37Z</time>
      </trkpt>
      <trkpt lat="10.194815" lon="-67.936175">
        <ele>445.20</ele>
        <time>2022-10-26T13:18:38Z</time>
      </trkpt>
      <trkpt lat="10.194777" lon="-67.936227">
        <ele>445.30</ele>
        <time>2022-10-26T13:18:39Z</time>
      </trkpt>
      <trkpt lat="10.194733" lon="-67.936279">
        <ele>445.30</ele>
        <time>2022-10-26T13:18:40Z</time>
      </trkpt>
      <trkpt lat="10.194694" lon="-67.936330">
        <ele>445.30</ele>
        <time>2022-10-26T13:18:41Z</time>
      </trkpt>
      <trkpt lat="10.194671" lon="-67.936387">
        <ele>445.40</ele>
        <time>2022-10-26T13:18:42Z</time>
      </trkpt>
      <trkpt lat="10.194647" lon="-67.936444">
        <ele>445.40</ele>
        <time>2022-10-26T13:18:43Z</time>
      </trkpt>
      <trkpt lat="10.194618" lon="-67.936490">
        <ele>445.40</ele>
        <time>2022-10-26T13:18:44Z</time>
      </trkpt>
      <trkpt lat="10.194586" lon="-67.936541">
        <ele>445.50</ele>
        <time>2022-10-26T13:18:45Z</time>
      </trkpt>
      <trkpt lat="10.194559" lon="-67.936593">
        <ele>445.50</ele>
        <time>2022-10-26T13:18:46Z</time>
      </trkpt>
      <trkpt lat="10.194537" lon="-67.936642">
        <ele>445.50</ele>
        <time>2022-10-26T13:18:47Z</time>
      </trkpt>
      <trkpt lat="10.194508" lon="-67.936689">
        <ele>445.60</ele>
        <time>2022-10-26T13:18:48Z</time>
      </trkpt>
      <trkpt lat="10.194481" lon="-67.936748">
        <ele>445.60</ele>
        <time>2022-10-26T13:18:49Z</time>
      </trkpt>
      <trkpt lat="10.194473" lon="-67.936812">
        <ele>445.70</ele>
        <time>2022-10-26T13:18:50Z</time>
      </trkpt>
      <trkpt lat="10.194452" lon="-67.936870">
        <ele>445.80</ele>
        <time>2022-10-26T13:18:51Z</time>
      </trkpt>
      <trkpt lat="10.194429" lon="-67.936922">
        <ele>445.80</ele>
        <time>2022-10-26T13:18:52Z</time>
      </trkpt>
      <trkpt lat="10.194397" lon="-67.936980">
        <ele>445.90</ele>
        <time>2022-10-26T13:18:53Z</time>
      </trkpt>
      <trkpt lat="10.194360" lon="-67.937037">
        <ele>445.90</ele>
        <time>2022-10-26T13:18:54Z</time>
      </trkpt>
      <trkpt lat="10.194325" lon="-67.937090">
        <ele>446.00</ele>
        <time>2022-10-26T13:18:55Z</time>
      </trkpt>
      <trkpt lat="10.194293" lon="-67.937141">
        <ele>446.00</ele>
        <time>2022-10-26T13:18:56Z</time>
      </trkpt>
      <trkpt lat="10.194237" lon="-67.937171">
        <ele>446.10</ele>
        <time>2022-10-26T13:18:57Z</time>
      </trkpt>
      <trkpt lat="10.194195" lon="-67.937215">
        <ele>446.20</ele>
        <time>2022-10-26T13:18:58Z</time>
      </trkpt>
      <trkpt lat="10.194158" lon="-67.937265">
        <ele>446.20</ele>
        <time>2022-10-26T13:18:59Z</time>
      </trkpt>
      <trkpt lat="10.194126" lon="-67.937321">
        <ele>446.30</ele>
        <time>2022-10-26T13:19:00Z</time>
      </trkpt>
      <trkpt lat="10.194092" lon="-67.937372">
        <ele>446.40</ele>
        <time>2022-10-26T13:19:01Z</time>
      </trkpt>
      <trkpt lat="10.194058" lon="-67.937425">
        <ele>446.40</ele>
        <time>2022-10-26T13:19:02Z</time>
      </trkpt>
      <trkpt lat="10.194029" lon="-67.937474">
        <ele>446.50</ele>
        <time>2022-10-26T13:19:03Z</time>
      </trkpt>
      <trkpt lat="10.194002" lon="-67.937523">
        <ele>446.60</ele>
        <time>2022-10-26T13:19:04Z</time>
      </trkpt>
      <trkpt lat="10.193968" lon="-67.937572">
        <ele>446.70</ele>
        <time>2022-10-26T13:19:05Z</time>
      </trkpt>
      <trkpt lat="10.193932" lon="-67.937618">
        <ele>446.80</ele>
        <time>2022-10-26T13:19:06Z</time>
      </trkpt>
      <trkpt lat="10.193896" lon="-67.937662">
        <ele>446.80</ele>
        <time>2022-10-26T13:19:07Z</time>
      </trkpt>
      <trkpt lat="10.193864" lon="-67.937708">
        <ele>446.90</ele>
        <time>2022-10-26T13:19:08Z</time>
      </trkpt>
      <trkpt lat="10.193829" lon="-67.937758">
        <ele>446.90</ele>
        <time>2022-10-26T13:19:09Z</time>
      </trkpt>
      <trkpt lat="10.193795" lon="-67.937812">
        <ele>447.00</ele>
        <time>2022-10-26T13:19:10Z</time>
      </trkpt>
      <trkpt lat="10.193770" lon="-67.937871">
        <ele>447.00</ele>
        <time>2022-10-26T13:19:11Z</time>
      </trkpt>
      <trkpt lat="10.193749" lon="-67.937935">
        <ele>447.00</ele>
        <time>2022-10-26T13:19:12Z</time>
      </trkpt>
      <trkpt lat="10.193725" lon="-67.937995">
        <ele>447.10</ele>
        <time>2022-10-26T13:19:13Z</time>
      </trkpt>
      <trkpt lat="10.193699" lon="-67.938046">
        <ele>447.10</ele>
        <time>2022-10-26T13:19:14Z</time>
      </trkpt>
      <trkpt lat="10.193676" lon="-67.938098">
        <ele>447.20</ele>
        <time>2022-10-26T13:19:15Z</time>
      </trkpt>
      <trkpt lat="10.193646" lon="-67.938149">
        <ele>447.20</ele>
        <time>2022-10-26T13:19:16Z</time>
      </trkpt>
      <trkpt lat="10.193609" lon="-67.938198">
        <ele>447.30</ele>
        <time>2022-10-26T13:19:17Z</time>
      </trkpt>
      <trkpt lat="10.193574" lon="-67.938243">
        <ele>447.30</ele>
        <time>2022-10-26T13:19:18Z</time>
      </trkpt>
      <trkpt lat="10.193538" lon="-67.938295">
        <ele>447.40</ele>
        <time>2022-10-26T13:19:19Z</time>
      </trkpt>
      <trkpt lat="10.193509" lon="-67.938346">
        <ele>447.50</ele>
        <time>2022-10-26T13:19:20Z</time>
      </trkpt>
      <trkpt lat="10.193486" lon="-67.938399">
        <ele>447.50</ele>
        <time>2022-10-26T13:19:21Z</time>
      </trkpt>
      <trkpt lat="10.193455" lon="-67.938448">
        <ele>447.60</ele>
        <time>2022-10-26T13:19:22Z</time>
      </trkpt>
      <trkpt lat="10.193423" lon="-67.938495">
        <ele>447.60</ele>
        <time>2022-10-26T13:19:23Z</time>
      </trkpt>
      <trkpt lat="10.193385" lon="-67.938545">
        <ele>447.70</ele>
        <time>2022-10-26T13:19:24Z</time>
      </trkpt>
      <trkpt lat="10.193356" lon="-67.938606">
        <ele>447.70</ele>
        <time>2022-10-26T13:19:25Z</time>
      </trkpt>
      <trkpt lat="10.193332" lon="-67.938665">
        <ele>447.80</ele>
        <time>2022-10-26T13:19:26Z</time>
      </trkpt>
      <trkpt lat="10.193299" lon="-67.938720">
        <ele>447.80</ele>
        <time>2022-10-26T13:19:27Z</time>
      </trkpt>
      <trkpt lat="10.193272" lon="-67.938776">
        <ele>447.90</ele>
        <time>2022-10-26T13:19:28Z</time>
      </trkpt>
      <trkpt lat="10.193240" lon="-67.938829">
        <ele>447.90</ele>
        <time>2022-10-26T13:19:29Z</time>
      </trkpt>
      <trkpt lat="10.193211" lon="-67.938883">
        <ele>448.00</ele>
        <time>2022-10-26T13:19:30Z</time>
      </trkpt>
      <trkpt lat="10.193183" lon="-67.938933">
        <ele>448.00</ele>
        <time>2022-10-26T13:19:31Z</time>
      </trkpt>
      <trkpt lat="10.193144" lon="-67.938982">
        <ele>448.00</ele>
        <time>2022-10-26T13:19:32Z</time>
      </trkpt>
      <trkpt lat="10.193106" lon="-67.939029">
        <ele>448.00</ele>
        <time>2022-10-26T13:19:33Z</time>
      </trkpt>
      <trkpt lat="10.193076" lon="-67.939082">
        <ele>448.10</ele>
        <time>2022-10-26T13:19:34Z</time>
      </trkpt>
      <trkpt lat="10.193031" lon="-67.939126">
        <ele>448.10</ele>
        <time>2022-10-26T13:19:35Z</time>
      </trkpt>
      <trkpt lat="10.192987" lon="-67.939171">
        <ele>448.10</ele>
        <time>2022-10-26T13:19:36Z</time>
      </trkpt>
      <trkpt lat="10.192946" lon="-67.939214">
        <ele>448.20</ele>
        <time>2022-10-26T13:19:37Z</time>
      </trkpt>
      <trkpt lat="10.192898" lon="-67.939249">
        <ele>448.20</ele>
        <time>2022-10-26T13:19:38Z</time>
      </trkpt>
      <trkpt lat="10.192860" lon="-67.939279">
        <ele>448.20</ele>
        <time>2022-10-26T13:19:39Z</time>
      </trkpt>
      <trkpt lat="10.192837" lon="-67.939288">
        <ele>448.30</ele>
        <time>2022-10-26T13:19:40Z</time>
      </trkpt>
      <trkpt lat="10.192826" lon="-67.939297">
        <ele>448.30</ele>
        <time>2022-10-26T13:19:41Z</time>
      </trkpt>
      <trkpt lat="10.192815" lon="-67.939307">
        <ele>448.30</ele>
        <time>2022-10-26T13:19:42Z</time>
      </trkpt>
      <trkpt lat="10.192789" lon="-67.939338">
        <ele>448.30</ele>
        <time>2022-10-26T13:19:43Z</time>
      </trkpt>
      <trkpt lat="10.192768" lon="-67.939368">
        <ele>448.30</ele>
        <time>2022-10-26T13:19:44Z</time>
      </trkpt>
      <trkpt lat="10.192759" lon="-67.939381">
        <ele>448.30</ele>
        <time>2022-10-26T13:19:45Z</time>
      </trkpt>
      <trkpt lat="10.192717" lon="-67.939452">
        <ele>448.40</ele>
        <time>2022-10-26T13:19:46Z</time>
      </trkpt>
      <trkpt lat="10.192631" lon="-67.939570">
        <ele>448.50</ele>
        <time>2022-10-26T13:19:47Z</time>
      </trkpt>
      <trkpt lat="10.192562" lon="-67.939672">
        <ele>448.50</ele>
        <time>2022-10-26T13:19:48Z</time>
      </trkpt>
      <trkpt lat="10.192519" lon="-67.939745">
        <ele>448.60</ele>
        <time>2022-10-26T13:19:49Z</time>
      </trkpt>
      <trkpt lat="10.192498" lon="-67.939802">
        <ele>448.60</ele>
        <time>2022-10-26T13:19:50Z</time>
      </trkpt>
      <trkpt lat="10.192480" lon="-67.939877">
        <ele>448.60</ele>
        <time>2022-10-26T13:19:51Z</time>
      </trkpt>
      <trkpt lat="10.192463" lon="-67.939950">
        <ele>448.50</ele>
        <time>2022-10-26T13:19:52Z</time>
      </trkpt>
      <trkpt lat="10.192432" lon="-67.940015">
        <ele>448.50</ele>
        <time>2022-10-26T13:19:53Z</time>
      </trkpt>
      <trkpt lat="10.192400" lon="-67.940064">
        <ele>448.50</ele>
        <time>2022-10-26T13:19:54Z</time>
      </trkpt>
      <trkpt lat="10.192370" lon="-67.940114">
        <ele>448.50</ele>
        <time>2022-10-26T13:19:55Z</time>
      </trkpt>
      <trkpt lat="10.192339" lon="-67.940171">
        <ele>448.50</ele>
        <time>2022-10-26T13:19:56Z</time>
      </trkpt>
      <trkpt lat="10.192308" lon="-67.940235">
        <ele>448.40</ele>
        <time>2022-10-26T13:19:57Z</time>
      </trkpt>
      <trkpt lat="10.192283" lon="-67.940299">
        <ele>448.40</ele>
        <time>2022-10-26T13:19:58Z</time>
      </trkpt>
      <trkpt lat="10.192256" lon="-67.940363">
        <ele>448.40</ele>
        <time>2022-10-26T13:19:59Z</time>
      </trkpt>
      <trkpt lat="10.192215" lon="-67.940423">
        <ele>448.40</ele>
        <time>2022-10-26T13:20:00Z</time>
      </trkpt>
      <trkpt lat="10.192173" lon="-67.940475">
        <ele>448.40</ele>
        <time>2022-10-26T13:20:01Z</time>
      </trkpt>
      <trkpt lat="10.192139" lon="-67.940518">
        <ele>448.30</ele>
        <time>2022-10-26T13:20:02Z</time>
      </trkpt>
      <trkpt lat="10.192106" lon="-67.940559">
        <ele>448.30</ele>
        <time>2022-10-26T13:20:03Z</time>
      </trkpt>
      <trkpt lat="10.192074" lon="-67.940602">
        <ele>448.30</ele>
        <time>2022-10-26T13:20:04Z</time>
      </trkpt>
      <trkpt lat="10.192042" lon="-67.940653">
        <ele>448.30</ele>
        <time>2022-10-26T13:20:05Z</time>
      </trkpt>
      <trkpt lat="10.192009" lon="-67.940710">
        <ele>448.20</ele>
        <time>2022-10-26T13:20:06Z</time>
      </trkpt>
      <trkpt lat="10.191973" lon="-67.940769">
        <ele>448.20</ele>
        <time>2022-10-26T13:20:07Z</time>
      </trkpt>
      <trkpt lat="10.191921" lon="-67.940816">
        <ele>448.10</ele>
        <time>2022-10-26T13:20:08Z</time>
      </trkpt>
      <trkpt lat="10.191878" lon="-67.940874">
        <ele>448.10</ele>
        <time>2022-10-26T13:20:09Z</time>
      </trkpt>
      <trkpt lat="10.191837" lon="-67.940939">
        <ele>448.10</ele>
        <time>2022-10-26T13:20:10Z</time>
      </trkpt>
      <trkpt lat="10.191794" lon="-67.940998">
        <ele>448.10</ele>
        <time>2022-10-26T13:20:11Z</time>
      </trkpt>
      <trkpt lat="10.191754" lon="-67.941054">
        <ele>448.00</ele>
        <time>2022-10-26T13:20:12Z</time>
      </trkpt>
      <trkpt lat="10.191712" lon="-67.941112">
        <ele>448.00</ele>
        <time>2022-10-26T13:20:13Z</time>
      </trkpt>
      <trkpt lat="10.191672" lon="-67.941169">
        <ele>447.90</ele>
        <time>2022-10-26T13:20:14Z</time>
      </trkpt>
      <trkpt lat="10.191632" lon="-67.941223">
        <ele>447.90</ele>
        <time>2022-10-26T13:20:15Z</time>
      </trkpt>
      <trkpt lat="10.191596" lon="-67.941282">
        <ele>447.80</ele>
        <time>2022-10-26T13:20:16Z</time>
      </trkpt>
      <trkpt lat="10.191564" lon="-67.941345">
        <ele>447.70</ele>
        <time>2022-10-26T13:20:17Z</time>
      </trkpt>
      <trkpt lat="10.191531" lon="-67.941407">
        <ele>447.60</ele>
        <time>2022-10-26T13:20:18Z</time>
      </trkpt>
      <trkpt lat="10.191497" lon="-67.941475">
        <ele>447.50</ele>
        <time>2022-10-26T13:20:19Z</time>
      </trkpt>
      <trkpt lat="10.191453" lon="-67.941538">
        <ele>447.40</ele>
        <time>2022-10-26T13:20:20Z</time>
      </trkpt>
      <trkpt lat="10.191414" lon="-67.941597">
        <ele>447.40</ele>
        <time>2022-10-26T13:20:21Z</time>
      </trkpt>
      <trkpt lat="10.191372" lon="-67.941659">
        <ele>447.30</ele>
        <time>2022-10-26T13:20:22Z</time>
      </trkpt>
      <trkpt lat="10.191336" lon="-67.941713">
        <ele>447.30</ele>
        <time>2022-10-26T13:20:23Z</time>
      </trkpt>
      <trkpt lat="10.191299" lon="-67.941763">
        <ele>447.30</ele>
        <time>2022-10-26T13:20:24Z</time>
      </trkpt>
      <trkpt lat="10.191264" lon="-67.941812">
        <ele>447.40</ele>
        <time>2022-10-26T13:20:25Z</time>
      </trkpt>
      <trkpt lat="10.191230" lon="-67.941867">
        <ele>447.50</ele>
        <time>2022-10-26T13:20:26Z</time>
      </trkpt>
      <trkpt lat="10.191185" lon="-67.941925">
        <ele>447.60</ele>
        <time>2022-10-26T13:20:27Z</time>
      </trkpt>
      <trkpt lat="10.191139" lon="-67.941983">
        <ele>447.60</ele>
        <time>2022-10-26T13:20:28Z</time>
      </trkpt>
      <trkpt lat="10.191089" lon="-67.942038">
        <ele>447.60</ele>
        <time>2022-10-26T13:20:29Z</time>
      </trkpt>
      <trkpt lat="10.191036" lon="-67.942091">
        <ele>447.50</ele>
        <time>2022-10-26T13:20:30Z</time>
      </trkpt>
      <trkpt lat="10.190984" lon="-67.942141">
        <ele>447.50</ele>
        <time>2022-10-26T13:20:31Z</time>
      </trkpt>
      <trkpt lat="10.190945" lon="-67.942195">
        <ele>447.40</ele>
        <time>2022-10-26T13:20:32Z</time>
      </trkpt>
      <trkpt lat="10.190914" lon="-67.942251">
        <ele>447.40</ele>
        <time>2022-10-26T13:20:33Z</time>
      </trkpt>
      <trkpt lat="10.190890" lon="-67.942314">
        <ele>447.40</ele>
        <time>2022-10-26T13:20:34Z</time>
      </trkpt>
      <trkpt lat="10.190867" lon="-67.942376">
        <ele>447.30</ele>
        <time>2022-10-26T13:20:35Z</time>
      </trkpt>
      <trkpt lat="10.190844" lon="-67.942434">
        <ele>447.30</ele>
        <time>2022-10-26T13:20:36Z</time>
      </trkpt>
      <trkpt lat="10.190813" lon="-67.942482">
        <ele>447.20</ele>
        <time>2022-10-26T13:20:37Z</time>
      </trkpt>
      <trkpt lat="10.190779" lon="-67.942536">
        <ele>447.20</ele>
        <time>2022-10-26T13:20:38Z</time>
      </trkpt>
      <trkpt lat="10.190742" lon="-67.942597">
        <ele>447.20</ele>
        <time>2022-10-26T13:20:39Z</time>
      </trkpt>
      <trkpt lat="10.190709" lon="-67.942658">
        <ele>447.10</ele>
        <time>2022-10-26T13:20:40Z</time>
      </trkpt>
      <trkpt lat="10.190685" lon="-67.942723">
        <ele>447.10</ele>
        <time>2022-10-26T13:20:41Z</time>
      </trkpt>
      <trkpt lat="10.190664" lon="-67.942792">
        <ele>447.00</ele>
        <time>2022-10-26T13:20:42Z</time>
      </trkpt>
      <trkpt lat="10.190641" lon="-67.942859">
        <ele>447.00</ele>
        <time>2022-10-26T13:20:43Z</time>
      </trkpt>
      <trkpt lat="10.190615" lon="-67.942931">
        <ele>446.90</ele>
        <time>2022-10-26T13:20:44Z</time>
      </trkpt>
      <trkpt lat="10.190588" lon="-67.943009">
        <ele>446.80</ele>
        <time>2022-10-26T13:20:45Z</time>
      </trkpt>
      <trkpt lat="10.190560" lon="-67.943087">
        <ele>446.80</ele>
        <time>2022-10-26T13:20:46Z</time>
      </trkpt>
      <trkpt lat="10.190527" lon="-67.943157">
        <ele>446.70</ele>
        <time>2022-10-26T13:20:47Z</time>
      </trkpt>
      <trkpt lat="10.190491" lon="-67.943226">
        <ele>446.60</ele>
        <time>2022-10-26T13:20:48Z</time>
      </trkpt>
      <trkpt lat="10.190456" lon="-67.943296">
        <ele>446.60</ele>
        <time>2022-10-26T13:20:49Z</time>
      </trkpt>
      <trkpt lat="10.190428" lon="-67.943368">
        <ele>446.50</ele>
        <time>2022-10-26T13:20:50Z</time>
      </trkpt>
      <trkpt lat="10.190399" lon="-67.943444">
        <ele>446.50</ele>
        <time>2022-10-26T13:20:51Z</time>
      </trkpt>
      <trkpt lat="10.190377" lon="-67.943524">
        <ele>446.40</ele>
        <time>2022-10-26T13:20:52Z</time>
      </trkpt>
      <trkpt lat="10.190351" lon="-67.943604">
        <ele>446.40</ele>
        <time>2022-10-26T13:20:53Z</time>
      </trkpt>
      <trkpt lat="10.190309" lon="-67.943672">
        <ele>446.40</ele>
        <time>2022-10-26T13:20:54Z</time>
      </trkpt>
      <trkpt lat="10.190264" lon="-67.943743">
        <ele>446.50</ele>
        <time>2022-10-26T13:20:55Z</time>
      </trkpt>
      <trkpt lat="10.190220" lon="-67.943815">
        <ele>446.40</ele>
        <time>2022-10-26T13:20:56Z</time>
      </trkpt>
      <trkpt lat="10.190186" lon="-67.943894">
        <ele>446.20</ele>
        <time>2022-10-26T13:20:57Z</time>
      </trkpt>
      <trkpt lat="10.190158" lon="-67.943976">
        <ele>446.10</ele>
        <time>2022-10-26T13:20:58Z</time>
      </trkpt>
      <trkpt lat="10.190116" lon="-67.944057">
        <ele>445.90</ele>
        <time>2022-10-26T13:20:59Z</time>
      </trkpt>
      <trkpt lat="10.190072" lon="-67.944131">
        <ele>445.70</ele>
        <time>2022-10-26T13:21:00Z</time>
      </trkpt>
      <trkpt lat="10.190034" lon="-67.944208">
        <ele>445.70</ele>
        <time>2022-10-26T13:21:01Z</time>
      </trkpt>
      <trkpt lat="10.189996" lon="-67.944275">
        <ele>445.60</ele>
        <time>2022-10-26T13:21:02Z</time>
      </trkpt>
      <trkpt lat="10.189959" lon="-67.944343">
        <ele>445.50</ele>
        <time>2022-10-26T13:21:03Z</time>
      </trkpt>
      <trkpt lat="10.189918" lon="-67.944412">
        <ele>445.40</ele>
        <time>2022-10-26T13:21:04Z</time>
      </trkpt>
      <trkpt lat="10.189878" lon="-67.944487">
        <ele>445.40</ele>
        <time>2022-10-26T13:21:05Z</time>
      </trkpt>
      <trkpt lat="10.189841" lon="-67.944567">
        <ele>445.30</ele>
        <time>2022-10-26T13:21:06Z</time>
      </trkpt>
      <trkpt lat="10.189796" lon="-67.944642">
        <ele>445.20</ele>
        <time>2022-10-26T13:21:07Z</time>
      </trkpt>
      <trkpt lat="10.189756" lon="-67.944717">
        <ele>445.10</ele>
        <time>2022-10-26T13:21:08Z</time>
      </trkpt>
      <trkpt lat="10.189719" lon="-67.944797">
        <ele>445.00</ele>
        <time>2022-10-26T13:21:09Z</time>
      </trkpt>
      <trkpt lat="10.189678" lon="-67.944879">
        <ele>444.90</ele>
        <time>2022-10-26T13:21:10Z</time>
      </trkpt>
      <trkpt lat="10.189641" lon="-67.944958">
        <ele>444.80</ele>
        <time>2022-10-26T13:21:11Z</time>
      </trkpt>
      <trkpt lat="10.189607" lon="-67.945032">
        <ele>444.70</ele>
        <time>2022-10-26T13:21:12Z</time>
      </trkpt>
      <trkpt lat="10.189566" lon="-67.945111">
        <ele>444.70</ele>
        <time>2022-10-26T13:21:13Z</time>
      </trkpt>
      <trkpt lat="10.189536" lon="-67.945196">
        <ele>444.60</ele>
        <time>2022-10-26T13:21:14Z</time>
      </trkpt>
      <trkpt lat="10.189499" lon="-67.945280">
        <ele>444.60</ele>
        <time>2022-10-26T13:21:15Z</time>
      </trkpt>
      <trkpt lat="10.189463" lon="-67.945361">
        <ele>444.50</ele>
        <time>2022-10-26T13:21:16Z</time>
      </trkpt>
      <trkpt lat="10.189424" lon="-67.945436">
        <ele>444.50</ele>
        <time>2022-10-26T13:21:17Z</time>
      </trkpt>
      <trkpt lat="10.189383" lon="-67.945511">
        <ele>444.50</ele>
        <time>2022-10-26T13:21:18Z</time>
      </trkpt>
      <trkpt lat="10.189346" lon="-67.945584">
        <ele>444.40</ele>
        <time>2022-10-26T13:21:19Z</time>
      </trkpt>
      <trkpt lat="10.189314" lon="-67.945663">
        <ele>444.40</ele>
        <time>2022-10-26T13:21:20Z</time>
      </trkpt>
      <trkpt lat="10.189279" lon="-67.945741">
        <ele>444.30</ele>
        <time>2022-10-26T13:21:21Z</time>
      </trkpt>
      <trkpt lat="10.189251" lon="-67.945819">
        <ele>444.30</ele>
        <time>2022-10-26T13:21:22Z</time>
      </trkpt>
      <trkpt lat="10.189222" lon="-67.945896">
        <ele>444.30</ele>
        <time>2022-10-26T13:21:23Z</time>
      </trkpt>
      <trkpt lat="10.189193" lon="-67.945973">
        <ele>444.40</ele>
        <time>2022-10-26T13:21:24Z</time>
      </trkpt>
      <trkpt lat="10.189162" lon="-67.946054">
        <ele>444.40</ele>
        <time>2022-10-26T13:21:25Z</time>
      </trkpt>
      <trkpt lat="10.189126" lon="-67.946127">
        <ele>444.40</ele>
        <time>2022-10-26T13:21:26Z</time>
      </trkpt>
      <trkpt lat="10.189088" lon="-67.946199">
        <ele>444.40</ele>
        <time>2022-10-26T13:21:27Z</time>
      </trkpt>
      <trkpt lat="10.189044" lon="-67.946266">
        <ele>444.40</ele>
        <time>2022-10-26T13:21:28Z</time>
      </trkpt>
      <trkpt lat="10.188998" lon="-67.946335">
        <ele>444.50</ele>
        <time>2022-10-26T13:21:29Z</time>
      </trkpt>
      <trkpt lat="10.188956" lon="-67.946402">
        <ele>444.50</ele>
        <time>2022-10-26T13:21:30Z</time>
      </trkpt>
      <trkpt lat="10.188925" lon="-67.946471">
        <ele>444.60</ele>
        <time>2022-10-26T13:21:31Z</time>
      </trkpt>
      <trkpt lat="10.188905" lon="-67.946546">
        <ele>444.70</ele>
        <time>2022-10-26T13:21:32Z</time>
      </trkpt>
      <trkpt lat="10.188875" lon="-67.946618">
        <ele>444.80</ele>
        <time>2022-10-26T13:21:33Z</time>
      </trkpt>
      <trkpt lat="10.188836" lon="-67.946692">
        <ele>444.90</ele>
        <time>2022-10-26T13:21:34Z</time>
      </trkpt>
      <trkpt lat="10.188803" lon="-67.946764">
        <ele>444.90</ele>
        <time>2022-10-26T13:21:35Z</time>
      </trkpt>
      <trkpt lat="10.188783" lon="-67.946836">
        <ele>444.90</ele>
        <time>2022-10-26T13:21:36Z</time>
      </trkpt>
      <trkpt lat="10.188761" lon="-67.946904">
        <ele>444.90</ele>
        <time>2022-10-26T13:21:37Z</time>
      </trkpt>
      <trkpt lat="10.188731" lon="-67.946969">
        <ele>445.00</ele>
        <time>2022-10-26T13:21:38Z</time>
      </trkpt>
      <trkpt lat="10.188711" lon="-67.947033">
        <ele>445.00</ele>
        <time>2022-10-26T13:21:39Z</time>
      </trkpt>
      <trkpt lat="10.188685" lon="-67.947093">
        <ele>445.00</ele>
        <time>2022-10-26T13:21:40Z</time>
      </trkpt>
      <trkpt lat="10.188654" lon="-67.947153">
        <ele>445.00</ele>
        <time>2022-10-26T13:21:41Z</time>
      </trkpt>
      <trkpt lat="10.188621" lon="-67.947209">
        <ele>445.00</ele>
        <time>2022-10-26T13:21:42Z</time>
      </trkpt>
      <trkpt lat="10.188588" lon="-67.947260">
        <ele>445.10</ele>
        <time>2022-10-26T13:21:43Z</time>
      </trkpt>
      <trkpt lat="10.188559" lon="-67.947328">
        <ele>445.20</ele>
        <time>2022-10-26T13:21:44Z</time>
      </trkpt>
      <trkpt lat="10.188531" lon="-67.947403">
        <ele>445.20</ele>
        <time>2022-10-26T13:21:45Z</time>
      </trkpt>
      <trkpt lat="10.188502" lon="-67.947484">
        <ele>445.30</ele>
        <time>2022-10-26T13:21:46Z</time>
      </trkpt>
      <trkpt lat="10.188464" lon="-67.947547">
        <ele>445.30</ele>
        <time>2022-10-26T13:21:47Z</time>
      </trkpt>
      <trkpt lat="10.188436" lon="-67.947610">
        <ele>445.30</ele>
        <time>2022-10-26T13:21:48Z</time>
      </trkpt>
      <trkpt lat="10.188409" lon="-67.947681">
        <ele>445.30</ele>
        <time>2022-10-26T13:21:49Z</time>
      </trkpt>
      <trkpt lat="10.188381" lon="-67.947749">
        <ele>445.30</ele>
        <time>2022-10-26T13:21:50Z</time>
      </trkpt>
      <trkpt lat="10.188343" lon="-67.947824">
        <ele>445.30</ele>
        <time>2022-10-26T13:21:51Z</time>
      </trkpt>
      <trkpt lat="10.188314" lon="-67.947904">
        <ele>445.30</ele>
        <time>2022-10-26T13:21:52Z</time>
      </trkpt>
      <trkpt lat="10.188283" lon="-67.947986">
        <ele>445.30</ele>
        <time>2022-10-26T13:21:53Z</time>
      </trkpt>
      <trkpt lat="10.188257" lon="-67.948062">
        <ele>445.30</ele>
        <time>2022-10-26T13:21:54Z</time>
      </trkpt>
      <trkpt lat="10.188224" lon="-67.948135">
        <ele>445.30</ele>
        <time>2022-10-26T13:21:55Z</time>
      </trkpt>
      <trkpt lat="10.188187" lon="-67.948199">
        <ele>445.30</ele>
        <time>2022-10-26T13:21:56Z</time>
      </trkpt>
      <trkpt lat="10.188154" lon="-67.948263">
        <ele>445.30</ele>
        <time>2022-10-26T13:21:57Z</time>
      </trkpt>
      <trkpt lat="10.188119" lon="-67.948329">
        <ele>445.30</ele>
        <time>2022-10-26T13:21:58Z</time>
      </trkpt>
      <trkpt lat="10.188072" lon="-67.948397">
        <ele>445.40</ele>
        <time>2022-10-26T13:21:59Z</time>
      </trkpt>
      <trkpt lat="10.188030" lon="-67.948465">
        <ele>445.40</ele>
        <time>2022-10-26T13:22:00Z</time>
      </trkpt>
      <trkpt lat="10.188000" lon="-67.948540">
        <ele>445.40</ele>
        <time>2022-10-26T13:22:01Z</time>
      </trkpt>
      <trkpt lat="10.187969" lon="-67.948618">
        <ele>445.50</ele>
        <time>2022-10-26T13:22:02Z</time>
      </trkpt>
      <trkpt lat="10.187938" lon="-67.948696">
        <ele>445.50</ele>
        <time>2022-10-26T13:22:03Z</time>
      </trkpt>
      <trkpt lat="10.187908" lon="-67.948772">
        <ele>445.60</ele>
        <time>2022-10-26T13:22:04Z</time>
      </trkpt>
      <trkpt lat="10.187871" lon="-67.948843">
        <ele>445.70</ele>
        <time>2022-10-26T13:22:05Z</time>
      </trkpt>
      <trkpt lat="10.187842" lon="-67.948910">
        <ele>445.80</ele>
        <time>2022-10-26T13:22:06Z</time>
      </trkpt>
      <trkpt lat="10.187807" lon="-67.948986">
        <ele>445.80</ele>
        <time>2022-10-26T13:22:07Z</time>
      </trkpt>
      <trkpt lat="10.187777" lon="-67.949061">
        <ele>445.90</ele>
        <time>2022-10-26T13:22:08Z</time>
      </trkpt>
      <trkpt lat="10.187752" lon="-67.949134">
        <ele>446.00</ele>
        <time>2022-10-26T13:22:09Z</time>
      </trkpt>
      <trkpt lat="10.187717" lon="-67.949201">
        <ele>446.00</ele>
        <time>2022-10-26T13:22:10Z</time>
      </trkpt>
      <trkpt lat="10.187679" lon="-67.949266">
        <ele>446.00</ele>
        <time>2022-10-26T13:22:11Z</time>
      </trkpt>
      <trkpt lat="10.187644" lon="-67.949338">
        <ele>446.10</ele>
        <time>2022-10-26T13:22:12Z</time>
      </trkpt>
      <trkpt lat="10.187609" lon="-67.949411">
        <ele>446.10</ele>
        <time>2022-10-26T13:22:13Z</time>
      </trkpt>
      <trkpt lat="10.187573" lon="-67.949483">
        <ele>446.10</ele>
        <time>2022-10-26T13:22:14Z</time>
      </trkpt>
      <trkpt lat="10.187541" lon="-67.949559">
        <ele>446.20</ele>
        <time>2022-10-26T13:22:15Z</time>
      </trkpt>
      <trkpt lat="10.187516" lon="-67.949634">
        <ele>446.20</ele>
        <time>2022-10-26T13:22:16Z</time>
      </trkpt>
      <trkpt lat="10.187480" lon="-67.949708">
        <ele>446.20</ele>
        <time>2022-10-26T13:22:17Z</time>
      </trkpt>
      <trkpt lat="10.187456" lon="-67.949785">
        <ele>446.20</ele>
        <time>2022-10-26T13:22:18Z</time>
      </trkpt>
      <trkpt lat="10.187441" lon="-67.949864">
        <ele>446.10</ele>
        <time>2022-10-26T13:22:19Z</time>
      </trkpt>
      <trkpt lat="10.187433" lon="-67.949942">
        <ele>446.10</ele>
        <time>2022-10-26T13:22:20Z</time>
      </trkpt>
      <trkpt lat="10.187419" lon="-67.950015">
        <ele>446.10</ele>
        <time>2022-10-26T13:22:21Z</time>
      </trkpt>
      <trkpt lat="10.187392" lon="-67.950085">
        <ele>446.10</ele>
        <time>2022-10-26T13:22:22Z</time>
      </trkpt>
      <trkpt lat="10.187371" lon="-67.950155">
        <ele>446.10</ele>
        <time>2022-10-26T13:22:23Z</time>
      </trkpt>
      <trkpt lat="10.187353" lon="-67.950220">
        <ele>446.00</ele>
        <time>2022-10-26T13:22:24Z</time>
      </trkpt>
      <trkpt lat="10.187338" lon="-67.950290">
        <ele>446.00</ele>
        <time>2022-10-26T13:22:25Z</time>
      </trkpt>
      <trkpt lat="10.187316" lon="-67.950364">
        <ele>446.00</ele>
        <time>2022-10-26T13:22:26Z</time>
      </trkpt>
      <trkpt lat="10.187282" lon="-67.950437">
        <ele>446.10</ele>
        <time>2022-10-26T13:22:27Z</time>
      </trkpt>
      <trkpt lat="10.187249" lon="-67.950506">
        <ele>446.10</ele>
        <time>2022-10-26T13:22:28Z</time>
      </trkpt>
      <trkpt lat="10.187217" lon="-67.950576">
        <ele>446.20</ele>
        <time>2022-10-26T13:22:29Z</time>
      </trkpt>
      <trkpt lat="10.187200" lon="-67.950641">
        <ele>446.20</ele>
        <time>2022-10-26T13:22:30Z</time>
      </trkpt>
      <trkpt lat="10.187180" lon="-67.950709">
        <ele>446.20</ele>
        <time>2022-10-26T13:22:31Z</time>
      </trkpt>
      <trkpt lat="10.187157" lon="-67.950781">
        <ele>446.30</ele>
        <time>2022-10-26T13:22:32Z</time>
      </trkpt>
      <trkpt lat="10.187139" lon="-67.950856">
        <ele>446.30</ele>
        <time>2022-10-26T13:22:33Z</time>
      </trkpt>
      <trkpt lat="10.187131" lon="-67.950925">
        <ele>446.30</ele>
        <time>2022-10-26T13:22:34Z</time>
      </trkpt>
      <trkpt lat="10.187120" lon="-67.950999">
        <ele>446.30</ele>
        <time>2022-10-26T13:22:35Z</time>
      </trkpt>
      <trkpt lat="10.187104" lon="-67.951065">
        <ele>446.30</ele>
        <time>2022-10-26T13:22:36Z</time>
      </trkpt>
      <trkpt lat="10.187092" lon="-67.951136">
        <ele>446.40</ele>
        <time>2022-10-26T13:22:37Z</time>
      </trkpt>
      <trkpt lat="10.187083" lon="-67.951203">
        <ele>446.40</ele>
        <time>2022-10-26T13:22:38Z</time>
      </trkpt>
      <trkpt lat="10.187078" lon="-67.951272">
        <ele>446.40</ele>
        <time>2022-10-26T13:22:39Z</time>
      </trkpt>
      <trkpt lat="10.187065" lon="-67.951341">
        <ele>446.40</ele>
        <time>2022-10-26T13:22:40Z</time>
      </trkpt>
      <trkpt lat="10.187045" lon="-67.951414">
        <ele>446.40</ele>
        <time>2022-10-26T13:22:41Z</time>
      </trkpt>
      <trkpt lat="10.187025" lon="-67.951483">
        <ele>446.40</ele>
        <time>2022-10-26T13:22:42Z</time>
      </trkpt>
      <trkpt lat="10.187008" lon="-67.951548">
        <ele>446.40</ele>
        <time>2022-10-26T13:22:43Z</time>
      </trkpt>
      <trkpt lat="10.186993" lon="-67.951629">
        <ele>446.40</ele>
        <time>2022-10-26T13:22:44Z</time>
      </trkpt>
      <trkpt lat="10.186972" lon="-67.951704">
        <ele>446.30</ele>
        <time>2022-10-26T13:22:45Z</time>
      </trkpt>
      <trkpt lat="10.186952" lon="-67.951773">
        <ele>446.30</ele>
        <time>2022-10-26T13:22:46Z</time>
      </trkpt>
      <trkpt lat="10.186929" lon="-67.951842">
        <ele>446.30</ele>
        <time>2022-10-26T13:22:47Z</time>
      </trkpt>
      <trkpt lat="10.186915" lon="-67.951913">
        <ele>446.40</ele>
        <time>2022-10-26T13:22:48Z</time>
      </trkpt>
      <trkpt lat="10.186911" lon="-67.951987">
        <ele>446.40</ele>
        <time>2022-10-26T13:22:49Z</time>
      </trkpt>
      <trkpt lat="10.186906" lon="-67.952059">
        <ele>446.40</ele>
        <time>2022-10-26T13:22:50Z</time>
      </trkpt>
      <trkpt lat="10.186896" lon="-67.952124">
        <ele>446.50</ele>
        <time>2022-10-26T13:22:51Z</time>
      </trkpt>
      <trkpt lat="10.186879" lon="-67.952182">
        <ele>446.50</ele>
        <time>2022-10-26T13:22:52Z</time>
      </trkpt>
      <trkpt lat="10.186870" lon="-67.952242">
        <ele>446.50</ele>
        <time>2022-10-26T13:22:53Z</time>
      </trkpt>
      <trkpt lat="10.186860" lon="-67.952302">
        <ele>446.60</ele>
        <time>2022-10-26T13:22:54Z</time>
      </trkpt>
      <trkpt lat="10.186854" lon="-67.952377">
        <ele>446.60</ele>
        <time>2022-10-26T13:22:55Z</time>
      </trkpt>
      <trkpt lat="10.186850" lon="-67.952452">
        <ele>446.70</ele>
        <time>2022-10-26T13:22:56Z</time>
      </trkpt>
      <trkpt lat="10.186850" lon="-67.952520">
        <ele>446.70</ele>
        <time>2022-10-26T13:22:57Z</time>
      </trkpt>
      <trkpt lat="10.186839" lon="-67.952654">
        <ele>446.80</ele>
        <time>2022-10-26T13:22:59Z</time>
      </trkpt>
      <trkpt lat="10.186842" lon="-67.952734">
        <ele>446.80</ele>
        <time>2022-10-26T13:23:00Z</time>
      </trkpt>
      <trkpt lat="10.186843" lon="-67.952818">
        <ele>446.80</ele>
        <time>2022-10-26T13:23:01Z</time>
      </trkpt>
      <trkpt lat="10.186835" lon="-67.952887">
        <ele>446.80</ele>
        <time>2022-10-26T13:23:02Z</time>
      </trkpt>
      <trkpt lat="10.186830" lon="-67.952949">
        <ele>446.70</ele>
        <time>2022-10-26T13:23:03Z</time>
      </trkpt>
      <trkpt lat="10.186822" lon="-67.953006">
        <ele>446.80</ele>
        <time>2022-10-26T13:23:04Z</time>
      </trkpt>
      <trkpt lat="10.186806" lon="-67.953058">
        <ele>446.80</ele>
        <time>2022-10-26T13:23:05Z</time>
      </trkpt>
      <trkpt lat="10.186808" lon="-67.953122">
        <ele>446.80</ele>
        <time>2022-10-26T13:23:06Z</time>
      </trkpt>
      <trkpt lat="10.186799" lon="-67.953196">
        <ele>446.80</ele>
        <time>2022-10-26T13:23:07Z</time>
      </trkpt>
      <trkpt lat="10.186794" lon="-67.953267">
        <ele>446.80</ele>
        <time>2022-10-26T13:23:08Z</time>
      </trkpt>
      <trkpt lat="10.186801" lon="-67.953346">
        <ele>446.80</ele>
        <time>2022-10-26T13:23:09Z</time>
      </trkpt>
      <trkpt lat="10.186789" lon="-67.953423">
        <ele>446.80</ele>
        <time>2022-10-26T13:23:10Z</time>
      </trkpt>
      <trkpt lat="10.186763" lon="-67.953500">
        <ele>446.80</ele>
        <time>2022-10-26T13:23:11Z</time>
      </trkpt>
      <trkpt lat="10.186732" lon="-67.953578">
        <ele>446.90</ele>
        <time>2022-10-26T13:23:12Z</time>
      </trkpt>
      <trkpt lat="10.186712" lon="-67.953657">
        <ele>446.90</ele>
        <time>2022-10-26T13:23:13Z</time>
      </trkpt>
      <trkpt lat="10.186701" lon="-67.953728">
        <ele>446.90</ele>
        <time>2022-10-26T13:23:14Z</time>
      </trkpt>
      <trkpt lat="10.186693" lon="-67.953794">
        <ele>447.00</ele>
        <time>2022-10-26T13:23:15Z</time>
      </trkpt>
      <trkpt lat="10.186696" lon="-67.953863">
        <ele>447.00</ele>
        <time>2022-10-26T13:23:16Z</time>
      </trkpt>
      <trkpt lat="10.186695" lon="-67.953930">
        <ele>447.00</ele>
        <time>2022-10-26T13:23:17Z</time>
      </trkpt>
      <trkpt lat="10.186690" lon="-67.953991">
        <ele>447.00</ele>
        <time>2022-10-26T13:23:18Z</time>
      </trkpt>
      <trkpt lat="10.186673" lon="-67.954058">
        <ele>447.10</ele>
        <time>2022-10-26T13:23:19Z</time>
      </trkpt>
      <trkpt lat="10.186659" lon="-67.954124">
        <ele>447.10</ele>
        <time>2022-10-26T13:23:20Z</time>
      </trkpt>
      <trkpt lat="10.186640" lon="-67.954192">
        <ele>447.10</ele>
        <time>2022-10-26T13:23:21Z</time>
      </trkpt>
      <trkpt lat="10.186617" lon="-67.954264">
        <ele>447.10</ele>
        <time>2022-10-26T13:23:22Z</time>
      </trkpt>
      <trkpt lat="10.186595" lon="-67.954330">
        <ele>447.20</ele>
        <time>2022-10-26T13:23:23Z</time>
      </trkpt>
      <trkpt lat="10.186582" lon="-67.954402">
        <ele>447.20</ele>
        <time>2022-10-26T13:23:24Z</time>
      </trkpt>
      <trkpt lat="10.186566" lon="-67.954475">
        <ele>447.10</ele>
        <time>2022-10-26T13:23:25Z</time>
      </trkpt>
      <trkpt lat="10.186546" lon="-67.954548">
        <ele>447.10</ele>
        <time>2022-10-26T13:23:26Z</time>
      </trkpt>
      <trkpt lat="10.186525" lon="-67.954624">
        <ele>447.10</ele>
        <time>2022-10-26T13:23:27Z</time>
      </trkpt>
      <trkpt lat="10.186507" lon="-67.954701">
        <ele>447.00</ele>
        <time>2022-10-26T13:23:28Z</time>
      </trkpt>
      <trkpt lat="10.186489" lon="-67.954772">
        <ele>447.00</ele>
        <time>2022-10-26T13:23:29Z</time>
      </trkpt>
      <trkpt lat="10.186468" lon="-67.954844">
        <ele>447.10</ele>
        <time>2022-10-26T13:23:30Z</time>
      </trkpt>
      <trkpt lat="10.186448" lon="-67.954917">
        <ele>447.10</ele>
        <time>2022-10-26T13:23:31Z</time>
      </trkpt>
      <trkpt lat="10.186430" lon="-67.954987">
        <ele>447.10</ele>
        <time>2022-10-26T13:23:32Z</time>
      </trkpt>
      <trkpt lat="10.186417" lon="-67.955061">
        <ele>447.10</ele>
        <time>2022-10-26T13:23:33Z</time>
      </trkpt>
      <trkpt lat="10.186407" lon="-67.955135">
        <ele>447.20</ele>
        <time>2022-10-26T13:23:34Z</time>
      </trkpt>
      <trkpt lat="10.186395" lon="-67.955215">
        <ele>447.30</ele>
        <time>2022-10-26T13:23:35Z</time>
      </trkpt>
      <trkpt lat="10.186384" lon="-67.955293">
        <ele>447.30</ele>
        <time>2022-10-26T13:23:36Z</time>
      </trkpt>
      <trkpt lat="10.186365" lon="-67.955370">
        <ele>447.30</ele>
        <time>2022-10-26T13:23:37Z</time>
      </trkpt>
      <trkpt lat="10.186348" lon="-67.955443">
        <ele>447.30</ele>
        <time>2022-10-26T13:23:38Z</time>
      </trkpt>
      <trkpt lat="10.186337" lon="-67.955514">
        <ele>447.40</ele>
        <time>2022-10-26T13:23:39Z</time>
      </trkpt>
      <trkpt lat="10.186328" lon="-67.955585">
        <ele>447.40</ele>
        <time>2022-10-26T13:23:40Z</time>
      </trkpt>
      <trkpt lat="10.186323" lon="-67.955651">
        <ele>447.40</ele>
        <time>2022-10-26T13:23:41Z</time>
      </trkpt>
      <trkpt lat="10.186314" lon="-67.955718">
        <ele>447.30</ele>
        <time>2022-10-26T13:23:42Z</time>
      </trkpt>
      <trkpt lat="10.186301" lon="-67.955790">
        <ele>447.30</ele>
        <time>2022-10-26T13:23:43Z</time>
      </trkpt>
      <trkpt lat="10.186287" lon="-67.955862">
        <ele>447.30</ele>
        <time>2022-10-26T13:23:44Z</time>
      </trkpt>
      <trkpt lat="10.186276" lon="-67.955936">
        <ele>447.30</ele>
        <time>2022-10-26T13:23:45Z</time>
      </trkpt>
      <trkpt lat="10.186266" lon="-67.956011">
        <ele>447.20</ele>
        <time>2022-10-26T13:23:46Z</time>
      </trkpt>
      <trkpt lat="10.186265" lon="-67.956086">
        <ele>447.20</ele>
        <time>2022-10-26T13:23:47Z</time>
      </trkpt>
      <trkpt lat="10.186253" lon="-67.956163">
        <ele>447.10</ele>
        <time>2022-10-26T13:23:48Z</time>
      </trkpt>
      <trkpt lat="10.186246" lon="-67.956239">
        <ele>447.10</ele>
        <time>2022-10-26T13:23:49Z</time>
      </trkpt>
      <trkpt lat="10.186235" lon="-67.956306">
        <ele>447.00</ele>
        <time>2022-10-26T13:23:50Z</time>
      </trkpt>
      <trkpt lat="10.186225" lon="-67.956376">
        <ele>446.90</ele>
        <time>2022-10-26T13:23:51Z</time>
      </trkpt>
      <trkpt lat="10.186212" lon="-67.956452">
        <ele>446.80</ele>
        <time>2022-10-26T13:23:52Z</time>
      </trkpt>
      <trkpt lat="10.186194" lon="-67.956526">
        <ele>446.80</ele>
        <time>2022-10-26T13:23:53Z</time>
      </trkpt>
      <trkpt lat="10.186179" lon="-67.956601">
        <ele>446.80</ele>
        <time>2022-10-26T13:23:54Z</time>
      </trkpt>
      <trkpt lat="10.186158" lon="-67.956675">
        <ele>446.80</ele>
        <time>2022-10-26T13:23:55Z</time>
      </trkpt>
      <trkpt lat="10.186132" lon="-67.956747">
        <ele>446.80</ele>
        <time>2022-10-26T13:23:56Z</time>
      </trkpt>
      <trkpt lat="10.186117" lon="-67.956819">
        <ele>446.80</ele>
        <time>2022-10-26T13:23:57Z</time>
      </trkpt>
      <trkpt lat="10.186105" lon="-67.956892">
        <ele>446.80</ele>
        <time>2022-10-26T13:23:58Z</time>
      </trkpt>
      <trkpt lat="10.186098" lon="-67.956965">
        <ele>446.80</ele>
        <time>2022-10-26T13:23:59Z</time>
      </trkpt>
      <trkpt lat="10.186092" lon="-67.957037">
        <ele>446.80</ele>
        <time>2022-10-26T13:24:00Z</time>
      </trkpt>
      <trkpt lat="10.186086" lon="-67.957110">
        <ele>446.70</ele>
        <time>2022-10-26T13:24:01Z</time>
      </trkpt>
      <trkpt lat="10.186069" lon="-67.957185">
        <ele>446.60</ele>
        <time>2022-10-26T13:24:02Z</time>
      </trkpt>
      <trkpt lat="10.186051" lon="-67.957265">
        <ele>446.60</ele>
        <time>2022-10-26T13:24:03Z</time>
      </trkpt>
      <trkpt lat="10.186047" lon="-67.957349">
        <ele>446.50</ele>
        <time>2022-10-26T13:24:04Z</time>
      </trkpt>
      <trkpt lat="10.186042" lon="-67.957432">
        <ele>446.50</ele>
        <time>2022-10-26T13:24:05Z</time>
      </trkpt>
      <trkpt lat="10.186039" lon="-67.957508">
        <ele>446.50</ele>
        <time>2022-10-26T13:24:06Z</time>
      </trkpt>
      <trkpt lat="10.186034" lon="-67.957585">
        <ele>446.50</ele>
        <time>2022-10-26T13:24:07Z</time>
      </trkpt>
      <trkpt lat="10.186024" lon="-67.957660">
        <ele>446.50</ele>
        <time>2022-10-26T13:24:08Z</time>
      </trkpt>
      <trkpt lat="10.186014" lon="-67.957740">
        <ele>446.50</ele>
        <time>2022-10-26T13:24:09Z</time>
      </trkpt>
      <trkpt lat="10.186006" lon="-67.957821">
        <ele>446.50</ele>
        <time>2022-10-26T13:24:10Z</time>
      </trkpt>
      <trkpt lat="10.185989" lon="-67.957900">
        <ele>446.50</ele>
        <time>2022-10-26T13:24:11Z</time>
      </trkpt>
      <trkpt lat="10.185975" lon="-67.957986">
        <ele>446.40</ele>
        <time>2022-10-26T13:24:12Z</time>
      </trkpt>
      <trkpt lat="10.185964" lon="-67.958064">
        <ele>446.40</ele>
        <time>2022-10-26T13:24:13Z</time>
      </trkpt>
      <trkpt lat="10.185944" lon="-67.958143">
        <ele>446.40</ele>
        <time>2022-10-26T13:24:14Z</time>
      </trkpt>
      <trkpt lat="10.185930" lon="-67.958220">
        <ele>446.40</ele>
        <time>2022-10-26T13:24:15Z</time>
      </trkpt>
      <trkpt lat="10.185920" lon="-67.958294">
        <ele>446.40</ele>
        <time>2022-10-26T13:24:16Z</time>
      </trkpt>
      <trkpt lat="10.185909" lon="-67.958365">
        <ele>446.40</ele>
        <time>2022-10-26T13:24:17Z</time>
      </trkpt>
      <trkpt lat="10.185898" lon="-67.958437">
        <ele>446.50</ele>
        <time>2022-10-26T13:24:18Z</time>
      </trkpt>
      <trkpt lat="10.185888" lon="-67.958515">
        <ele>446.50</ele>
        <time>2022-10-26T13:24:19Z</time>
      </trkpt>
      <trkpt lat="10.185882" lon="-67.958590">
        <ele>446.60</ele>
        <time>2022-10-26T13:24:20Z</time>
      </trkpt>
      <trkpt lat="10.185867" lon="-67.958667">
        <ele>446.60</ele>
        <time>2022-10-26T13:24:21Z</time>
      </trkpt>
      <trkpt lat="10.185850" lon="-67.958749">
        <ele>446.70</ele>
        <time>2022-10-26T13:24:22Z</time>
      </trkpt>
      <trkpt lat="10.185838" lon="-67.958829">
        <ele>446.80</ele>
        <time>2022-10-26T13:24:23Z</time>
      </trkpt>
      <trkpt lat="10.185825" lon="-67.958906">
        <ele>446.80</ele>
        <time>2022-10-26T13:24:24Z</time>
      </trkpt>
      <trkpt lat="10.185813" lon="-67.958981">
        <ele>446.80</ele>
        <time>2022-10-26T13:24:25Z</time>
      </trkpt>
      <trkpt lat="10.185792" lon="-67.959063">
        <ele>446.90</ele>
        <time>2022-10-26T13:24:26Z</time>
      </trkpt>
      <trkpt lat="10.185773" lon="-67.959144">
        <ele>446.90</ele>
        <time>2022-10-26T13:24:27Z</time>
      </trkpt>
      <trkpt lat="10.185760" lon="-67.959225">
        <ele>447.00</ele>
        <time>2022-10-26T13:24:28Z</time>
      </trkpt>
      <trkpt lat="10.185752" lon="-67.959299">
        <ele>447.00</ele>
        <time>2022-10-26T13:24:29Z</time>
      </trkpt>
      <trkpt lat="10.185743" lon="-67.959367">
        <ele>447.00</ele>
        <time>2022-10-26T13:24:30Z</time>
      </trkpt>
      <trkpt lat="10.185726" lon="-67.959445">
        <ele>447.10</ele>
        <time>2022-10-26T13:24:31Z</time>
      </trkpt>
      <trkpt lat="10.185709" lon="-67.959525">
        <ele>447.10</ele>
        <time>2022-10-26T13:24:32Z</time>
      </trkpt>
      <trkpt lat="10.185692" lon="-67.959597">
        <ele>447.20</ele>
        <time>2022-10-26T13:24:33Z</time>
      </trkpt>
      <trkpt lat="10.185685" lon="-67.959669">
        <ele>447.20</ele>
        <time>2022-10-26T13:24:34Z</time>
      </trkpt>
      <trkpt lat="10.185675" lon="-67.959739">
        <ele>447.30</ele>
        <time>2022-10-26T13:24:35Z</time>
      </trkpt>
      <trkpt lat="10.185662" lon="-67.959815">
        <ele>447.30</ele>
        <time>2022-10-26T13:24:36Z</time>
      </trkpt>
      <trkpt lat="10.185653" lon="-67.959893">
        <ele>447.30</ele>
        <time>2022-10-26T13:24:37Z</time>
      </trkpt>
      <trkpt lat="10.185643" lon="-67.959972">
        <ele>447.30</ele>
        <time>2022-10-26T13:24:38Z</time>
      </trkpt>
      <trkpt lat="10.185632" lon="-67.960047">
        <ele>447.30</ele>
        <time>2022-10-26T13:24:39Z</time>
      </trkpt>
      <trkpt lat="10.185620" lon="-67.960119">
        <ele>447.40</ele>
        <time>2022-10-26T13:24:40Z</time>
      </trkpt>
      <trkpt lat="10.185601" lon="-67.960189">
        <ele>447.50</ele>
        <time>2022-10-26T13:24:41Z</time>
      </trkpt>
      <trkpt lat="10.185583" lon="-67.960264">
        <ele>447.60</ele>
        <time>2022-10-26T13:24:42Z</time>
      </trkpt>
      <trkpt lat="10.185574" lon="-67.960335">
        <ele>447.60</ele>
        <time>2022-10-26T13:24:43Z</time>
      </trkpt>
      <trkpt lat="10.185566" lon="-67.960406">
        <ele>447.70</ele>
        <time>2022-10-26T13:24:44Z</time>
      </trkpt>
      <trkpt lat="10.185556" lon="-67.960478">
        <ele>447.70</ele>
        <time>2022-10-26T13:24:45Z</time>
      </trkpt>
      <trkpt lat="10.185538" lon="-67.960551">
        <ele>447.80</ele>
        <time>2022-10-26T13:24:46Z</time>
      </trkpt>
      <trkpt lat="10.185533" lon="-67.960622">
        <ele>447.80</ele>
        <time>2022-10-26T13:24:47Z</time>
      </trkpt>
      <trkpt lat="10.185537" lon="-67.960696">
        <ele>447.90</ele>
        <time>2022-10-26T13:24:48Z</time>
      </trkpt>
      <trkpt lat="10.185537" lon="-67.960769">
        <ele>447.90</ele>
        <time>2022-10-26T13:24:49Z</time>
      </trkpt>
      <trkpt lat="10.185534" lon="-67.960845">
        <ele>447.90</ele>
        <time>2022-10-26T13:24:50Z</time>
      </trkpt>
      <trkpt lat="10.185526" lon="-67.960923">
        <ele>448.00</ele>
        <time>2022-10-26T13:24:51Z</time>
      </trkpt>
      <trkpt lat="10.185520" lon="-67.961001">
        <ele>448.00</ele>
        <time>2022-10-26T13:24:52Z</time>
      </trkpt>
      <trkpt lat="10.185518" lon="-67.961076">
        <ele>448.00</ele>
        <time>2022-10-26T13:24:53Z</time>
      </trkpt>
      <trkpt lat="10.185513" lon="-67.961155">
        <ele>448.10</ele>
        <time>2022-10-26T13:24:54Z</time>
      </trkpt>
      <trkpt lat="10.185505" lon="-67.961237">
        <ele>448.10</ele>
        <time>2022-10-26T13:24:55Z</time>
      </trkpt>
      <trkpt lat="10.185493" lon="-67.961320">
        <ele>448.10</ele>
        <time>2022-10-26T13:24:56Z</time>
      </trkpt>
      <trkpt lat="10.185479" lon="-67.961397">
        <ele>448.20</ele>
        <time>2022-10-26T13:24:57Z</time>
      </trkpt>
      <trkpt lat="10.185471" lon="-67.961471">
        <ele>448.20</ele>
        <time>2022-10-26T13:24:58Z</time>
      </trkpt>
      <trkpt lat="10.185471" lon="-67.961544">
        <ele>448.20</ele>
        <time>2022-10-26T13:24:59Z</time>
      </trkpt>
      <trkpt lat="10.185471" lon="-67.961620">
        <ele>448.20</ele>
        <time>2022-10-26T13:25:00Z</time>
      </trkpt>
      <trkpt lat="10.185462" lon="-67.961696">
        <ele>448.20</ele>
        <time>2022-10-26T13:25:01Z</time>
      </trkpt>
      <trkpt lat="10.185451" lon="-67.961771">
        <ele>448.20</ele>
        <time>2022-10-26T13:25:02Z</time>
      </trkpt>
      <trkpt lat="10.185446" lon="-67.961846">
        <ele>448.20</ele>
        <time>2022-10-26T13:25:03Z</time>
      </trkpt>
      <trkpt lat="10.185449" lon="-67.961922">
        <ele>448.30</ele>
        <time>2022-10-26T13:25:04Z</time>
      </trkpt>
      <trkpt lat="10.185443" lon="-67.962002">
        <ele>448.30</ele>
        <time>2022-10-26T13:25:05Z</time>
      </trkpt>
      <trkpt lat="10.185431" lon="-67.962085">
        <ele>448.30</ele>
        <time>2022-10-26T13:25:06Z</time>
      </trkpt>
      <trkpt lat="10.185414" lon="-67.962168">
        <ele>448.30</ele>
        <time>2022-10-26T13:25:07Z</time>
      </trkpt>
      <trkpt lat="10.185403" lon="-67.962251">
        <ele>448.30</ele>
        <time>2022-10-26T13:25:08Z</time>
      </trkpt>
      <trkpt lat="10.185401" lon="-67.962330">
        <ele>448.30</ele>
        <time>2022-10-26T13:25:09Z</time>
      </trkpt>
      <trkpt lat="10.185397" lon="-67.962403">
        <ele>448.30</ele>
        <time>2022-10-26T13:25:10Z</time>
      </trkpt>
      <trkpt lat="10.185392" lon="-67.962478">
        <ele>448.30</ele>
        <time>2022-10-26T13:25:11Z</time>
      </trkpt>
      <trkpt lat="10.185385" lon="-67.962558">
        <ele>448.40</ele>
        <time>2022-10-26T13:25:12Z</time>
      </trkpt>
      <trkpt lat="10.185378" lon="-67.962638">
        <ele>448.40</ele>
        <time>2022-10-26T13:25:13Z</time>
      </trkpt>
      <trkpt lat="10.185371" lon="-67.962716">
        <ele>448.40</ele>
        <time>2022-10-26T13:25:14Z</time>
      </trkpt>
      <trkpt lat="10.185363" lon="-67.962790">
        <ele>448.50</ele>
        <time>2022-10-26T13:25:15Z</time>
      </trkpt>
      <trkpt lat="10.185360" lon="-67.962861">
        <ele>448.50</ele>
        <time>2022-10-26T13:25:16Z</time>
      </trkpt>
      <trkpt lat="10.185355" lon="-67.962929">
        <ele>448.50</ele>
        <time>2022-10-26T13:25:17Z</time>
      </trkpt>
      <trkpt lat="10.185355" lon="-67.963000">
        <ele>448.60</ele>
        <time>2022-10-26T13:25:18Z</time>
      </trkpt>
      <trkpt lat="10.185357" lon="-67.963068">
        <ele>448.60</ele>
        <time>2022-10-26T13:25:19Z</time>
      </trkpt>
      <trkpt lat="10.185355" lon="-67.963138">
        <ele>448.70</ele>
        <time>2022-10-26T13:25:20Z</time>
      </trkpt>
      <trkpt lat="10.185355" lon="-67.963208">
        <ele>448.70</ele>
        <time>2022-10-26T13:25:21Z</time>
      </trkpt>
      <trkpt lat="10.185359" lon="-67.963272">
        <ele>448.80</ele>
        <time>2022-10-26T13:25:22Z</time>
      </trkpt>
      <trkpt lat="10.185363" lon="-67.963332">
        <ele>448.80</ele>
        <time>2022-10-26T13:25:23Z</time>
      </trkpt>
      <trkpt lat="10.185360" lon="-67.963394">
        <ele>448.80</ele>
        <time>2022-10-26T13:25:24Z</time>
      </trkpt>
      <trkpt lat="10.185358" lon="-67.963455">
        <ele>448.90</ele>
        <time>2022-10-26T13:25:25Z</time>
      </trkpt>
      <trkpt lat="10.185356" lon="-67.963517">
        <ele>448.90</ele>
        <time>2022-10-26T13:25:26Z</time>
      </trkpt>
      <trkpt lat="10.185358" lon="-67.963578">
        <ele>448.90</ele>
        <time>2022-10-26T13:25:27Z</time>
      </trkpt>
      <trkpt lat="10.185356" lon="-67.963638">
        <ele>449.00</ele>
        <time>2022-10-26T13:25:28Z</time>
      </trkpt>
      <trkpt lat="10.185352" lon="-67.963697">
        <ele>449.00</ele>
        <time>2022-10-26T13:25:29Z</time>
      </trkpt>
      <trkpt lat="10.185349" lon="-67.963759">
        <ele>449.00</ele>
        <time>2022-10-26T13:25:30Z</time>
      </trkpt>
      <trkpt lat="10.185346" lon="-67.963818">
        <ele>449.00</ele>
        <time>2022-10-26T13:25:31Z</time>
      </trkpt>
      <trkpt lat="10.185342" lon="-67.963877">
        <ele>449.00</ele>
        <time>2022-10-26T13:25:32Z</time>
      </trkpt>
      <trkpt lat="10.185333" lon="-67.963935">
        <ele>449.10</ele>
        <time>2022-10-26T13:25:33Z</time>
      </trkpt>
      <trkpt lat="10.185318" lon="-67.963997">
        <ele>449.20</ele>
        <time>2022-10-26T13:25:34Z</time>
      </trkpt>
      <trkpt lat="10.185303" lon="-67.964056">
        <ele>449.20</ele>
        <time>2022-10-26T13:25:35Z</time>
      </trkpt>
      <trkpt lat="10.185284" lon="-67.964112">
        <ele>449.30</ele>
        <time>2022-10-26T13:25:36Z</time>
      </trkpt>
      <trkpt lat="10.185262" lon="-67.964170">
        <ele>449.40</ele>
        <time>2022-10-26T13:25:37Z</time>
      </trkpt>
      <trkpt lat="10.185244" lon="-67.964224">
        <ele>449.50</ele>
        <time>2022-10-26T13:25:38Z</time>
      </trkpt>
      <trkpt lat="10.185232" lon="-67.964281">
        <ele>449.50</ele>
        <time>2022-10-26T13:25:39Z</time>
      </trkpt>
      <trkpt lat="10.185220" lon="-67.964346">
        <ele>449.60</ele>
        <time>2022-10-26T13:25:40Z</time>
      </trkpt>
      <trkpt lat="10.185208" lon="-67.964405">
        <ele>449.70</ele>
        <time>2022-10-26T13:25:41Z</time>
      </trkpt>
      <trkpt lat="10.185192" lon="-67.964469">
        <ele>449.80</ele>
        <time>2022-10-26T13:25:42Z</time>
      </trkpt>
      <trkpt lat="10.185170" lon="-67.964528">
        <ele>449.90</ele>
        <time>2022-10-26T13:25:43Z</time>
      </trkpt>
      <trkpt lat="10.185151" lon="-67.964582">
        <ele>450.00</ele>
        <time>2022-10-26T13:25:44Z</time>
      </trkpt>
      <trkpt lat="10.185132" lon="-67.964634">
        <ele>450.10</ele>
        <time>2022-10-26T13:25:45Z</time>
      </trkpt>
      <trkpt lat="10.185114" lon="-67.964689">
        <ele>450.20</ele>
        <time>2022-10-26T13:25:46Z</time>
      </trkpt>
      <trkpt lat="10.185090" lon="-67.964749">
        <ele>450.30</ele>
        <time>2022-10-26T13:25:47Z</time>
      </trkpt>
      <trkpt lat="10.185070" lon="-67.964807">
        <ele>450.40</ele>
        <time>2022-10-26T13:25:48Z</time>
      </trkpt>
      <trkpt lat="10.185055" lon="-67.964864">
        <ele>450.50</ele>
        <time>2022-10-26T13:25:49Z</time>
      </trkpt>
      <trkpt lat="10.185039" lon="-67.964919">
        <ele>450.60</ele>
        <time>2022-10-26T13:25:50Z</time>
      </trkpt>
      <trkpt lat="10.185026" lon="-67.964972">
        <ele>450.70</ele>
        <time>2022-10-26T13:25:51Z</time>
      </trkpt>
      <trkpt lat="10.184995" lon="-67.965023">
        <ele>450.80</ele>
        <time>2022-10-26T13:25:52Z</time>
      </trkpt>
      <trkpt lat="10.184980" lon="-67.965078">
        <ele>450.90</ele>
        <time>2022-10-26T13:25:53Z</time>
      </trkpt>
      <trkpt lat="10.184966" lon="-67.965137">
        <ele>451.00</ele>
        <time>2022-10-26T13:25:54Z</time>
      </trkpt>
      <trkpt lat="10.184954" lon="-67.965199">
        <ele>451.10</ele>
        <time>2022-10-26T13:25:55Z</time>
      </trkpt>
      <trkpt lat="10.184930" lon="-67.965269">
        <ele>451.20</ele>
        <time>2022-10-26T13:25:56Z</time>
      </trkpt>
      <trkpt lat="10.184910" lon="-67.965335">
        <ele>451.30</ele>
        <time>2022-10-26T13:25:57Z</time>
      </trkpt>
      <trkpt lat="10.184892" lon="-67.965391">
        <ele>451.40</ele>
        <time>2022-10-26T13:25:58Z</time>
      </trkpt>
      <trkpt lat="10.184871" lon="-67.965451">
        <ele>451.50</ele>
        <time>2022-10-26T13:25:59Z</time>
      </trkpt>
      <trkpt lat="10.184853" lon="-67.965512">
        <ele>451.60</ele>
        <time>2022-10-26T13:26:00Z</time>
      </trkpt>
      <trkpt lat="10.184840" lon="-67.965579">
        <ele>451.70</ele>
        <time>2022-10-26T13:26:01Z</time>
      </trkpt>
      <trkpt lat="10.184826" lon="-67.965645">
        <ele>451.80</ele>
        <time>2022-10-26T13:26:02Z</time>
      </trkpt>
      <trkpt lat="10.184814" lon="-67.965709">
        <ele>451.90</ele>
        <time>2022-10-26T13:26:03Z</time>
      </trkpt>
      <trkpt lat="10.184798" lon="-67.965779">
        <ele>452.00</ele>
        <time>2022-10-26T13:26:04Z</time>
      </trkpt>
      <trkpt lat="10.184780" lon="-67.965842">
        <ele>452.10</ele>
        <time>2022-10-26T13:26:05Z</time>
      </trkpt>
      <trkpt lat="10.184769" lon="-67.965904">
        <ele>452.20</ele>
        <time>2022-10-26T13:26:06Z</time>
      </trkpt>
      <trkpt lat="10.184758" lon="-67.965958">
        <ele>452.30</ele>
        <time>2022-10-26T13:26:07Z</time>
      </trkpt>
      <trkpt lat="10.184748" lon="-67.966013">
        <ele>452.40</ele>
        <time>2022-10-26T13:26:08Z</time>
      </trkpt>
      <trkpt lat="10.184735" lon="-67.966065">
        <ele>452.50</ele>
        <time>2022-10-26T13:26:09Z</time>
      </trkpt>
      <trkpt lat="10.184723" lon="-67.966122">
        <ele>452.50</ele>
        <time>2022-10-26T13:26:10Z</time>
      </trkpt>
      <trkpt lat="10.184713" lon="-67.966182">
        <ele>452.60</ele>
        <time>2022-10-26T13:26:11Z</time>
      </trkpt>
      <trkpt lat="10.184698" lon="-67.966237">
        <ele>452.80</ele>
        <time>2022-10-26T13:26:12Z</time>
      </trkpt>
      <trkpt lat="10.184686" lon="-67.966292">
        <ele>452.90</ele>
        <time>2022-10-26T13:26:13Z</time>
      </trkpt>
      <trkpt lat="10.184679" lon="-67.966355">
        <ele>453.00</ele>
        <time>2022-10-26T13:26:14Z</time>
      </trkpt>
      <trkpt lat="10.184670" lon="-67.966419">
        <ele>453.10</ele>
        <time>2022-10-26T13:26:15Z</time>
      </trkpt>
      <trkpt lat="10.184660" lon="-67.966483">
        <ele>453.30</ele>
        <time>2022-10-26T13:26:16Z</time>
      </trkpt>
      <trkpt lat="10.184654" lon="-67.966545">
        <ele>453.40</ele>
        <time>2022-10-26T13:26:17Z</time>
      </trkpt>
      <trkpt lat="10.184642" lon="-67.966602">
        <ele>453.50</ele>
        <time>2022-10-26T13:26:18Z</time>
      </trkpt>
      <trkpt lat="10.184630" lon="-67.966658">
        <ele>453.60</ele>
        <time>2022-10-26T13:26:19Z</time>
      </trkpt>
      <trkpt lat="10.184623" lon="-67.966708">
        <ele>453.70</ele>
        <time>2022-10-26T13:26:20Z</time>
      </trkpt>
      <trkpt lat="10.184612" lon="-67.966763">
        <ele>453.80</ele>
        <time>2022-10-26T13:26:21Z</time>
      </trkpt>
      <trkpt lat="10.184596" lon="-67.966812">
        <ele>453.80</ele>
        <time>2022-10-26T13:26:22Z</time>
      </trkpt>
      <trkpt lat="10.184594" lon="-67.966854">
        <ele>453.90</ele>
        <time>2022-10-26T13:26:23Z</time>
      </trkpt>
      <trkpt lat="10.184590" lon="-67.966894">
        <ele>454.00</ele>
        <time>2022-10-26T13:26:24Z</time>
      </trkpt>
      <trkpt lat="10.184581" lon="-67.966935">
        <ele>454.10</ele>
        <time>2022-10-26T13:26:25Z</time>
      </trkpt>
      <trkpt lat="10.184575" lon="-67.966957">
        <ele>454.10</ele>
        <time>2022-10-26T13:26:26Z</time>
      </trkpt>
      <trkpt lat="10.184570" lon="-67.966997">
        <ele>454.20</ele>
        <time>2022-10-26T13:26:27Z</time>
      </trkpt>
      <trkpt lat="10.184571" lon="-67.967026">
        <ele>454.20</ele>
        <time>2022-10-26T13:26:28Z</time>
      </trkpt>
      <trkpt lat="10.184569" lon="-67.967057">
        <ele>454.30</ele>
        <time>2022-10-26T13:26:29Z</time>
      </trkpt>
      <trkpt lat="10.184564" lon="-67.967094">
        <ele>454.30</ele>
        <time>2022-10-26T13:26:30Z</time>
      </trkpt>
      <trkpt lat="10.184558" lon="-67.967131">
        <ele>454.40</ele>
        <time>2022-10-26T13:26:31Z</time>
      </trkpt>
      <trkpt lat="10.184552" lon="-67.967141">
        <ele>454.40</ele>
        <time>2022-10-26T13:26:32Z</time>
      </trkpt>
      <trkpt lat="10.184543" lon="-67.967162">
        <ele>454.50</ele>
        <time>2022-10-26T13:26:33Z</time>
      </trkpt>
      <trkpt lat="10.184535" lon="-67.967183">
        <ele>454.50</ele>
        <time>2022-10-26T13:26:34Z</time>
      </trkpt>
      <trkpt lat="10.184510" lon="-67.967220">
        <ele>454.60</ele>
        <time>2022-10-26T13:26:35Z</time>
      </trkpt>
      <trkpt lat="10.184476" lon="-67.967292">
        <ele>454.70</ele>
        <time>2022-10-26T13:26:37Z</time>
      </trkpt>
      <trkpt lat="10.184458" lon="-67.967348">
        <ele>454.80</ele>
        <time>2022-10-26T13:26:38Z</time>
      </trkpt>
      <trkpt lat="10.184444" lon="-67.967390">
        <ele>454.90</ele>
        <time>2022-10-26T13:26:39Z</time>
      </trkpt>
      <trkpt lat="10.184435" lon="-67.967430">
        <ele>455.00</ele>
        <time>2022-10-26T13:26:40Z</time>
      </trkpt>
      <trkpt lat="10.184432" lon="-67.967467">
        <ele>455.10</ele>
        <time>2022-10-26T13:26:41Z</time>
      </trkpt>
      <trkpt lat="10.184430" lon="-67.967480">
        <ele>455.10</ele>
        <time>2022-10-26T13:26:42Z</time>
      </trkpt>
      <trkpt lat="10.184421" lon="-67.967522">
        <ele>455.20</ele>
        <time>2022-10-26T13:26:44Z</time>
      </trkpt>
      <trkpt lat="10.184418" lon="-67.967541">
        <ele>455.20</ele>
        <time>2022-10-26T13:26:45Z</time>
      </trkpt>
      <trkpt lat="10.184412" lon="-67.967572">
        <ele>455.30</ele>
        <time>2022-10-26T13:26:46Z</time>
      </trkpt>
      <trkpt lat="10.184410" lon="-67.967605">
        <ele>455.40</ele>
        <time>2022-10-26T13:26:47Z</time>
      </trkpt>
      <trkpt lat="10.184408" lon="-67.967639">
        <ele>455.40</ele>
        <time>2022-10-26T13:26:48Z</time>
      </trkpt>
      <trkpt lat="10.184409" lon="-67.967669">
        <ele>455.50</ele>
        <time>2022-10-26T13:26:49Z</time>
      </trkpt>
      <trkpt lat="10.184410" lon="-67.967706">
        <ele>455.50</ele>
        <time>2022-10-26T13:26:50Z</time>
      </trkpt>
      <trkpt lat="10.184411" lon="-67.967721">
        <ele>455.60</ele>
        <time>2022-10-26T13:26:51Z</time>
      </trkpt>
      <trkpt lat="10.184406" lon="-67.967753">
        <ele>455.60</ele>
        <time>2022-10-26T13:26:52Z</time>
      </trkpt>
      <trkpt lat="10.184405" lon="-67.967782">
        <ele>455.60</ele>
        <time>2022-10-26T13:26:53Z</time>
      </trkpt>
      <trkpt lat="10.184404" lon="-67.967828">
        <ele>455.70</ele>
        <time>2022-10-26T13:26:54Z</time>
      </trkpt>
      <trkpt lat="10.184404" lon="-67.967847">
        <ele>455.70</ele>
        <time>2022-10-26T13:26:55Z</time>
      </trkpt>
      <trkpt lat="10.184402" lon="-67.967889">
        <ele>455.80</ele>
        <time>2022-10-26T13:26:56Z</time>
      </trkpt>
      <trkpt lat="10.184399" lon="-67.967919">
        <ele>455.80</ele>
        <time>2022-10-26T13:26:57Z</time>
      </trkpt>
      <trkpt lat="10.184392" lon="-67.967961">
        <ele>455.90</ele>
        <time>2022-10-26T13:26:59Z</time>
      </trkpt>
      <trkpt lat="10.184382" lon="-67.967994">
        <ele>455.90</ele>
        <time>2022-10-26T13:27:00Z</time>
      </trkpt>
      <trkpt lat="10.184379" lon="-67.968005">
        <ele>456.00</ele>
        <time>2022-10-26T13:27:01Z</time>
      </trkpt>
      <trkpt lat="10.184370" lon="-67.968040">
        <ele>456.00</ele>
        <time>2022-10-26T13:27:02Z</time>
      </trkpt>
      <trkpt lat="10.184363" lon="-67.968072">
        <ele>456.10</ele>
        <time>2022-10-26T13:27:03Z</time>
      </trkpt>
      <trkpt lat="10.184263" lon="-67.968520">
        <ele>456.80</ele>
        <time>2022-10-26T13:27:05Z</time>
      </trkpt>
      <trkpt lat="10.184243" lon="-67.968617">
        <ele>456.90</ele>
        <time>2022-10-26T13:27:06Z</time>
      </trkpt>
      <trkpt lat="10.184219" lon="-67.968763">
        <ele>457.00</ele>
        <time>2022-10-26T13:27:07Z</time>
      </trkpt>
      <trkpt lat="10.184192" lon="-67.968876">
        <ele>457.20</ele>
        <time>2022-10-26T13:27:08Z</time>
      </trkpt>
      <trkpt lat="10.184174" lon="-67.968976">
        <ele>457.30</ele>
        <time>2022-10-26T13:27:09Z</time>
      </trkpt>
      <trkpt lat="10.184163" lon="-67.969064">
        <ele>457.50</ele>
        <time>2022-10-26T13:27:10Z</time>
      </trkpt>
      <trkpt lat="10.184145" lon="-67.969152">
        <ele>457.60</ele>
        <time>2022-10-26T13:27:11Z</time>
      </trkpt>
      <trkpt lat="10.184136" lon="-67.969235">
        <ele>457.80</ele>
        <time>2022-10-26T13:27:12Z</time>
      </trkpt>
      <trkpt lat="10.184122" lon="-67.969311">
        <ele>457.90</ele>
        <time>2022-10-26T13:27:13Z</time>
      </trkpt>
      <trkpt lat="10.184093" lon="-67.969393">
        <ele>458.00</ele>
        <time>2022-10-26T13:27:14Z</time>
      </trkpt>
      <trkpt lat="10.184073" lon="-67.969469">
        <ele>458.00</ele>
        <time>2022-10-26T13:27:15Z</time>
      </trkpt>
      <trkpt lat="10.184057" lon="-67.969540">
        <ele>458.10</ele>
        <time>2022-10-26T13:27:16Z</time>
      </trkpt>
      <trkpt lat="10.184024" lon="-67.969614">
        <ele>458.10</ele>
        <time>2022-10-26T13:27:17Z</time>
      </trkpt>
      <trkpt lat="10.184001" lon="-67.969683">
        <ele>458.20</ele>
        <time>2022-10-26T13:27:18Z</time>
      </trkpt>
      <trkpt lat="10.183985" lon="-67.969743">
        <ele>458.20</ele>
        <time>2022-10-26T13:27:19Z</time>
      </trkpt>
      <trkpt lat="10.183976" lon="-67.969799">
        <ele>458.30</ele>
        <time>2022-10-26T13:27:20Z</time>
      </trkpt>
      <trkpt lat="10.183971" lon="-67.969853">
        <ele>458.30</ele>
        <time>2022-10-26T13:27:21Z</time>
      </trkpt>
      <trkpt lat="10.183961" lon="-67.969911">
        <ele>458.30</ele>
        <time>2022-10-26T13:27:22Z</time>
      </trkpt>
      <trkpt lat="10.183933" lon="-67.969975">
        <ele>458.40</ele>
        <time>2022-10-26T13:27:23Z</time>
      </trkpt>
      <trkpt lat="10.183918" lon="-67.970033">
        <ele>458.40</ele>
        <time>2022-10-26T13:27:24Z</time>
      </trkpt>
      <trkpt lat="10.183904" lon="-67.970091">
        <ele>458.40</ele>
        <time>2022-10-26T13:27:25Z</time>
      </trkpt>
      <trkpt lat="10.183902" lon="-67.970147">
        <ele>458.50</ele>
        <time>2022-10-26T13:27:26Z</time>
      </trkpt>
      <trkpt lat="10.183913" lon="-67.970198">
        <ele>458.50</ele>
        <time>2022-10-26T13:27:27Z</time>
      </trkpt>
      <trkpt lat="10.183919" lon="-67.970252">
        <ele>458.50</ele>
        <time>2022-10-26T13:27:28Z</time>
      </trkpt>
      <trkpt lat="10.183923" lon="-67.970304">
        <ele>458.60</ele>
        <time>2022-10-26T13:27:29Z</time>
      </trkpt>
      <trkpt lat="10.183925" lon="-67.970358">
        <ele>458.60</ele>
        <time>2022-10-26T13:27:30Z</time>
      </trkpt>
      <trkpt lat="10.183913" lon="-67.970410">
        <ele>458.60</ele>
        <time>2022-10-26T13:27:31Z</time>
      </trkpt>
      <trkpt lat="10.183896" lon="-67.970460">
        <ele>458.60</ele>
        <time>2022-10-26T13:27:32Z</time>
      </trkpt>
      <trkpt lat="10.183887" lon="-67.970512">
        <ele>458.70</ele>
        <time>2022-10-26T13:27:33Z</time>
      </trkpt>
      <trkpt lat="10.183883" lon="-67.970567">
        <ele>458.70</ele>
        <time>2022-10-26T13:27:34Z</time>
      </trkpt>
      <trkpt lat="10.183866" lon="-67.970612">
        <ele>458.70</ele>
        <time>2022-10-26T13:27:35Z</time>
      </trkpt>
      <trkpt lat="10.183863" lon="-67.970653">
        <ele>458.70</ele>
        <time>2022-10-26T13:27:36Z</time>
      </trkpt>
      <trkpt lat="10.183867" lon="-67.970683">
        <ele>458.70</ele>
        <time>2022-10-26T13:27:37Z</time>
      </trkpt>
      <trkpt lat="10.183864" lon="-67.970727">
        <ele>458.70</ele>
        <time>2022-10-26T13:27:38Z</time>
      </trkpt>
      <trkpt lat="10.183863" lon="-67.970766">
        <ele>458.80</ele>
        <time>2022-10-26T13:27:39Z</time>
      </trkpt>
      <trkpt lat="10.183859" lon="-67.970801">
        <ele>458.80</ele>
        <time>2022-10-26T13:27:40Z</time>
      </trkpt>
      <trkpt lat="10.183845" lon="-67.970833">
        <ele>458.80</ele>
        <time>2022-10-26T13:27:41Z</time>
      </trkpt>
      <trkpt lat="10.183827" lon="-67.970863">
        <ele>458.80</ele>
        <time>2022-10-26T13:27:42Z</time>
      </trkpt>
      <trkpt lat="10.183797" lon="-67.970938">
        <ele>458.80</ele>
        <time>2022-10-26T13:27:43Z</time>
      </trkpt>
      <trkpt lat="10.183787" lon="-67.970994">
        <ele>458.80</ele>
        <time>2022-10-26T13:27:44Z</time>
      </trkpt>
      <trkpt lat="10.183777" lon="-67.971047">
        <ele>458.80</ele>
        <time>2022-10-26T13:27:45Z</time>
      </trkpt>
      <trkpt lat="10.183771" lon="-67.971099">
        <ele>458.80</ele>
        <time>2022-10-26T13:27:46Z</time>
      </trkpt>
      <trkpt lat="10.183770" lon="-67.971154">
        <ele>458.80</ele>
        <time>2022-10-26T13:27:47Z</time>
      </trkpt>
      <trkpt lat="10.183779" lon="-67.971211">
        <ele>458.70</ele>
        <time>2022-10-26T13:27:48Z</time>
      </trkpt>
      <trkpt lat="10.183783" lon="-67.971267">
        <ele>458.70</ele>
        <time>2022-10-26T13:27:49Z</time>
      </trkpt>
      <trkpt lat="10.183772" lon="-67.971313">
        <ele>458.70</ele>
        <time>2022-10-26T13:27:50Z</time>
      </trkpt>
      <trkpt lat="10.183751" lon="-67.971355">
        <ele>458.70</ele>
        <time>2022-10-26T13:27:51Z</time>
      </trkpt>
      <trkpt lat="10.183725" lon="-67.971402">
        <ele>458.70</ele>
        <time>2022-10-26T13:27:52Z</time>
      </trkpt>
      <trkpt lat="10.183708" lon="-67.971460">
        <ele>458.80</ele>
        <time>2022-10-26T13:27:53Z</time>
      </trkpt>
      <trkpt lat="10.183705" lon="-67.971518">
        <ele>458.80</ele>
        <time>2022-10-26T13:27:54Z</time>
      </trkpt>
      <trkpt lat="10.183703" lon="-67.971576">
        <ele>458.80</ele>
        <time>2022-10-26T13:27:55Z</time>
      </trkpt>
      <trkpt lat="10.183696" lon="-67.971630">
        <ele>458.80</ele>
        <time>2022-10-26T13:27:56Z</time>
      </trkpt>
      <trkpt lat="10.183681" lon="-67.971679">
        <ele>458.80</ele>
        <time>2022-10-26T13:27:57Z</time>
      </trkpt>
      <trkpt lat="10.183668" lon="-67.971733">
        <ele>458.80</ele>
        <time>2022-10-26T13:27:58Z</time>
      </trkpt>
      <trkpt lat="10.183664" lon="-67.971781">
        <ele>458.80</ele>
        <time>2022-10-26T13:27:59Z</time>
      </trkpt>
      <trkpt lat="10.183668" lon="-67.971834">
        <ele>458.70</ele>
        <time>2022-10-26T13:28:00Z</time>
      </trkpt>
      <trkpt lat="10.183664" lon="-67.971894">
        <ele>458.70</ele>
        <time>2022-10-26T13:28:01Z</time>
      </trkpt>
      <trkpt lat="10.183659" lon="-67.971955">
        <ele>458.70</ele>
        <time>2022-10-26T13:28:02Z</time>
      </trkpt>
      <trkpt lat="10.183660" lon="-67.972006">
        <ele>458.60</ele>
        <time>2022-10-26T13:28:03Z</time>
      </trkpt>
      <trkpt lat="10.183665" lon="-67.972055">
        <ele>458.60</ele>
        <time>2022-10-26T13:28:04Z</time>
      </trkpt>
      <trkpt lat="10.183667" lon="-67.972110">
        <ele>458.60</ele>
        <time>2022-10-26T13:28:05Z</time>
      </trkpt>
      <trkpt lat="10.183660" lon="-67.972164">
        <ele>458.60</ele>
        <time>2022-10-26T13:28:06Z</time>
      </trkpt>
      <trkpt lat="10.183657" lon="-67.972216">
        <ele>458.60</ele>
        <time>2022-10-26T13:28:07Z</time>
      </trkpt>
      <trkpt lat="10.183649" lon="-67.972269">
        <ele>458.60</ele>
        <time>2022-10-26T13:28:08Z</time>
      </trkpt>
      <trkpt lat="10.183647" lon="-67.972314">
        <ele>458.50</ele>
        <time>2022-10-26T13:28:09Z</time>
      </trkpt>
      <trkpt lat="10.183647" lon="-67.972355">
        <ele>458.50</ele>
        <time>2022-10-26T13:28:10Z</time>
      </trkpt>
      <trkpt lat="10.183645" lon="-67.972389">
        <ele>458.50</ele>
        <time>2022-10-26T13:28:11Z</time>
      </trkpt>
      <trkpt lat="10.183641" lon="-67.972429">
        <ele>458.50</ele>
        <time>2022-10-26T13:28:12Z</time>
      </trkpt>
      <trkpt lat="10.183638" lon="-67.972443">
        <ele>458.50</ele>
        <time>2022-10-26T13:28:13Z</time>
      </trkpt>
      <trkpt lat="10.183636" lon="-67.972474">
        <ele>458.40</ele>
        <time>2022-10-26T13:28:14Z</time>
      </trkpt>
      <trkpt lat="10.183637" lon="-67.972521">
        <ele>458.40</ele>
        <time>2022-10-26T13:28:15Z</time>
      </trkpt>
      <trkpt lat="10.183644" lon="-67.972558">
        <ele>458.40</ele>
        <time>2022-10-26T13:28:16Z</time>
      </trkpt>
      <trkpt lat="10.183640" lon="-67.972593">
        <ele>458.30</ele>
        <time>2022-10-26T13:28:17Z</time>
      </trkpt>
      <trkpt lat="10.183611" lon="-67.972616">
        <ele>458.30</ele>
        <time>2022-10-26T13:28:18Z</time>
      </trkpt>
      <trkpt lat="10.183613" lon="-67.972646">
        <ele>458.20</ele>
        <time>2022-10-26T13:28:19Z</time>
      </trkpt>
      <trkpt lat="10.183613" lon="-67.972741">
        <ele>458.10</ele>
        <time>2022-10-26T13:28:21Z</time>
      </trkpt>
      <trkpt lat="10.183607" lon="-67.972796">
        <ele>458.10</ele>
        <time>2022-10-26T13:28:22Z</time>
      </trkpt>
      <trkpt lat="10.183601" lon="-67.972851">
        <ele>458.00</ele>
        <time>2022-10-26T13:28:23Z</time>
      </trkpt>
      <trkpt lat="10.183586" lon="-67.972905">
        <ele>457.90</ele>
        <time>2022-10-26T13:28:24Z</time>
      </trkpt>
      <trkpt lat="10.183573" lon="-67.972955">
        <ele>457.90</ele>
        <time>2022-10-26T13:28:25Z</time>
      </trkpt>
      <trkpt lat="10.183565" lon="-67.973002">
        <ele>457.80</ele>
        <time>2022-10-26T13:28:26Z</time>
      </trkpt>
      <trkpt lat="10.183563" lon="-67.973050">
        <ele>457.70</ele>
        <time>2022-10-26T13:28:27Z</time>
      </trkpt>
      <trkpt lat="10.183564" lon="-67.973094">
        <ele>457.70</ele>
        <time>2022-10-26T13:28:28Z</time>
      </trkpt>
      <trkpt lat="10.183567" lon="-67.973129">
        <ele>457.60</ele>
        <time>2022-10-26T13:28:29Z</time>
      </trkpt>
      <trkpt lat="10.183560" lon="-67.973178">
        <ele>457.50</ele>
        <time>2022-10-26T13:28:30Z</time>
      </trkpt>
      <trkpt lat="10.183553" lon="-67.973232">
        <ele>457.40</ele>
        <time>2022-10-26T13:28:31Z</time>
      </trkpt>
      <trkpt lat="10.183538" lon="-67.973300">
        <ele>457.40</ele>
        <time>2022-10-26T13:28:32Z</time>
      </trkpt>
      <trkpt lat="10.183529" lon="-67.973364">
        <ele>457.30</ele>
        <time>2022-10-26T13:28:33Z</time>
      </trkpt>
      <trkpt lat="10.183525" lon="-67.973429">
        <ele>457.30</ele>
        <time>2022-10-26T13:28:34Z</time>
      </trkpt>
      <trkpt lat="10.183516" lon="-67.973483">
        <ele>457.20</ele>
        <time>2022-10-26T13:28:35Z</time>
      </trkpt>
      <trkpt lat="10.183509" lon="-67.973536">
        <ele>457.20</ele>
        <time>2022-10-26T13:28:36Z</time>
      </trkpt>
      <trkpt lat="10.183502" lon="-67.973590">
        <ele>457.10</ele>
        <time>2022-10-26T13:28:37Z</time>
      </trkpt>
      <trkpt lat="10.183496" lon="-67.973643">
        <ele>457.10</ele>
        <time>2022-10-26T13:28:38Z</time>
      </trkpt>
      <trkpt lat="10.183487" lon="-67.973697">
        <ele>457.00</ele>
        <time>2022-10-26T13:28:39Z</time>
      </trkpt>
      <trkpt lat="10.183474" lon="-67.973752">
        <ele>457.00</ele>
        <time>2022-10-26T13:28:40Z</time>
      </trkpt>
      <trkpt lat="10.183467" lon="-67.973815">
        <ele>457.10</ele>
        <time>2022-10-26T13:28:41Z</time>
      </trkpt>
      <trkpt lat="10.183457" lon="-67.973878">
        <ele>457.10</ele>
        <time>2022-10-26T13:28:42Z</time>
      </trkpt>
      <trkpt lat="10.183446" lon="-67.973935">
        <ele>457.20</ele>
        <time>2022-10-26T13:28:43Z</time>
      </trkpt>
      <trkpt lat="10.183437" lon="-67.973994">
        <ele>457.20</ele>
        <time>2022-10-26T13:28:44Z</time>
      </trkpt>
      <trkpt lat="10.183429" lon="-67.974051">
        <ele>457.10</ele>
        <time>2022-10-26T13:28:45Z</time>
      </trkpt>
      <trkpt lat="10.183423" lon="-67.974109">
        <ele>457.10</ele>
        <time>2022-10-26T13:28:46Z</time>
      </trkpt>
      <trkpt lat="10.183429" lon="-67.974162">
        <ele>457.00</ele>
        <time>2022-10-26T13:28:47Z</time>
      </trkpt>
      <trkpt lat="10.183439" lon="-67.974216">
        <ele>456.90</ele>
        <time>2022-10-26T13:28:48Z</time>
      </trkpt>
      <trkpt lat="10.183438" lon="-67.974281">
        <ele>456.80</ele>
        <time>2022-10-26T13:28:49Z</time>
      </trkpt>
      <trkpt lat="10.183432" lon="-67.974353">
        <ele>456.80</ele>
        <time>2022-10-26T13:28:50Z</time>
      </trkpt>
      <trkpt lat="10.183426" lon="-67.974422">
        <ele>456.80</ele>
        <time>2022-10-26T13:28:51Z</time>
      </trkpt>
      <trkpt lat="10.183417" lon="-67.974486">
        <ele>456.80</ele>
        <time>2022-10-26T13:28:52Z</time>
      </trkpt>
      <trkpt lat="10.183417" lon="-67.974558">
        <ele>456.80</ele>
        <time>2022-10-26T13:28:53Z</time>
      </trkpt>
      <trkpt lat="10.183410" lon="-67.974631">
        <ele>456.70</ele>
        <time>2022-10-26T13:28:54Z</time>
      </trkpt>
      <trkpt lat="10.183404" lon="-67.974702">
        <ele>456.60</ele>
        <time>2022-10-26T13:28:55Z</time>
      </trkpt>
      <trkpt lat="10.183393" lon="-67.974769">
        <ele>456.40</ele>
        <time>2022-10-26T13:28:56Z</time>
      </trkpt>
      <trkpt lat="10.183382" lon="-67.974839">
        <ele>456.30</ele>
        <time>2022-10-26T13:28:57Z</time>
      </trkpt>
      <trkpt lat="10.183370" lon="-67.974903">
        <ele>456.20</ele>
        <time>2022-10-26T13:28:58Z</time>
      </trkpt>
      <trkpt lat="10.183361" lon="-67.974966">
        <ele>456.10</ele>
        <time>2022-10-26T13:28:59Z</time>
      </trkpt>
      <trkpt lat="10.183350" lon="-67.975031">
        <ele>456.10</ele>
        <time>2022-10-26T13:29:00Z</time>
      </trkpt>
      <trkpt lat="10.183337" lon="-67.975099">
        <ele>456.10</ele>
        <time>2022-10-26T13:29:01Z</time>
      </trkpt>
      <trkpt lat="10.183330" lon="-67.975171">
        <ele>456.10</ele>
        <time>2022-10-26T13:29:02Z</time>
      </trkpt>
      <trkpt lat="10.183320" lon="-67.975245">
        <ele>456.00</ele>
        <time>2022-10-26T13:29:03Z</time>
      </trkpt>
      <trkpt lat="10.183310" lon="-67.975321">
        <ele>456.00</ele>
        <time>2022-10-26T13:29:04Z</time>
      </trkpt>
      <trkpt lat="10.183303" lon="-67.975388">
        <ele>455.90</ele>
        <time>2022-10-26T13:29:05Z</time>
      </trkpt>
      <trkpt lat="10.183296" lon="-67.975454">
        <ele>455.80</ele>
        <time>2022-10-26T13:29:06Z</time>
      </trkpt>
      <trkpt lat="10.183289" lon="-67.975522">
        <ele>455.80</ele>
        <time>2022-10-26T13:29:07Z</time>
      </trkpt>
      <trkpt lat="10.183282" lon="-67.975593">
        <ele>455.70</ele>
        <time>2022-10-26T13:29:08Z</time>
      </trkpt>
      <trkpt lat="10.183277" lon="-67.975661">
        <ele>455.70</ele>
        <time>2022-10-26T13:29:09Z</time>
      </trkpt>
      <trkpt lat="10.183272" lon="-67.975727">
        <ele>455.70</ele>
        <time>2022-10-26T13:29:10Z</time>
      </trkpt>
      <trkpt lat="10.183266" lon="-67.975798">
        <ele>455.60</ele>
        <time>2022-10-26T13:29:11Z</time>
      </trkpt>
      <trkpt lat="10.183260" lon="-67.975860">
        <ele>455.60</ele>
        <time>2022-10-26T13:29:12Z</time>
      </trkpt>
      <trkpt lat="10.183252" lon="-67.975919">
        <ele>455.60</ele>
        <time>2022-10-26T13:29:13Z</time>
      </trkpt>
      <trkpt lat="10.183244" lon="-67.975979">
        <ele>455.70</ele>
        <time>2022-10-26T13:29:14Z</time>
      </trkpt>
      <trkpt lat="10.183230" lon="-67.976041">
        <ele>455.70</ele>
        <time>2022-10-26T13:29:15Z</time>
      </trkpt>
      <trkpt lat="10.183220" lon="-67.976097">
        <ele>455.80</ele>
        <time>2022-10-26T13:29:16Z</time>
      </trkpt>
      <trkpt lat="10.183214" lon="-67.976152">
        <ele>455.80</ele>
        <time>2022-10-26T13:29:17Z</time>
      </trkpt>
      <trkpt lat="10.183211" lon="-67.976201">
        <ele>455.80</ele>
        <time>2022-10-26T13:29:18Z</time>
      </trkpt>
      <trkpt lat="10.183207" lon="-67.976254">
        <ele>455.90</ele>
        <time>2022-10-26T13:29:19Z</time>
      </trkpt>
      <trkpt lat="10.183210" lon="-67.976305">
        <ele>455.90</ele>
        <time>2022-10-26T13:29:20Z</time>
      </trkpt>
      <trkpt lat="10.183209" lon="-67.976351">
        <ele>456.00</ele>
        <time>2022-10-26T13:29:21Z</time>
      </trkpt>
      <trkpt lat="10.183203" lon="-67.976400">
        <ele>456.00</ele>
        <time>2022-10-26T13:29:22Z</time>
      </trkpt>
      <trkpt lat="10.183196" lon="-67.976448">
        <ele>456.10</ele>
        <time>2022-10-26T13:29:23Z</time>
      </trkpt>
      <trkpt lat="10.183182" lon="-67.976495">
        <ele>456.20</ele>
        <time>2022-10-26T13:29:24Z</time>
      </trkpt>
      <trkpt lat="10.183166" lon="-67.976542">
        <ele>456.20</ele>
        <time>2022-10-26T13:29:25Z</time>
      </trkpt>
      <trkpt lat="10.183152" lon="-67.976590">
        <ele>456.30</ele>
        <time>2022-10-26T13:29:26Z</time>
      </trkpt>
      <trkpt lat="10.183135" lon="-67.976647">
        <ele>456.40</ele>
        <time>2022-10-26T13:29:27Z</time>
      </trkpt>
      <trkpt lat="10.183128" lon="-67.976693">
        <ele>456.50</ele>
        <time>2022-10-26T13:29:28Z</time>
      </trkpt>
      <trkpt lat="10.183126" lon="-67.976730">
        <ele>456.60</ele>
        <time>2022-10-26T13:29:29Z</time>
      </trkpt>
      <trkpt lat="10.183124" lon="-67.976774">
        <ele>456.60</ele>
        <time>2022-10-26T13:29:30Z</time>
      </trkpt>
      <trkpt lat="10.183121" lon="-67.976814">
        <ele>456.60</ele>
        <time>2022-10-26T13:29:31Z</time>
      </trkpt>
      <trkpt lat="10.183104" lon="-67.976866">
        <ele>456.70</ele>
        <time>2022-10-26T13:29:32Z</time>
      </trkpt>
      <trkpt lat="10.183091" lon="-67.976921">
        <ele>456.70</ele>
        <time>2022-10-26T13:29:33Z</time>
      </trkpt>
      <trkpt lat="10.183075" lon="-67.976975">
        <ele>456.80</ele>
        <time>2022-10-26T13:29:34Z</time>
      </trkpt>
      <trkpt lat="10.183068" lon="-67.977028">
        <ele>456.80</ele>
        <time>2022-10-26T13:29:35Z</time>
      </trkpt>
      <trkpt lat="10.183074" lon="-67.977075">
        <ele>456.90</ele>
        <time>2022-10-26T13:29:36Z</time>
      </trkpt>
      <trkpt lat="10.183068" lon="-67.977117">
        <ele>456.90</ele>
        <time>2022-10-26T13:29:37Z</time>
      </trkpt>
      <trkpt lat="10.183035" lon="-67.977158">
        <ele>457.00</ele>
        <time>2022-10-26T13:29:38Z</time>
      </trkpt>
      <trkpt lat="10.183030" lon="-67.977222">
        <ele>457.10</ele>
        <time>2022-10-26T13:29:39Z</time>
      </trkpt>
      <trkpt lat="10.183027" lon="-67.977289">
        <ele>457.10</ele>
        <time>2022-10-26T13:29:40Z</time>
      </trkpt>
      <trkpt lat="10.183022" lon="-67.977351">
        <ele>457.20</ele>
        <time>2022-10-26T13:29:41Z</time>
      </trkpt>
      <trkpt lat="10.183011" lon="-67.977406">
        <ele>457.30</ele>
        <time>2022-10-26T13:29:42Z</time>
      </trkpt>
      <trkpt lat="10.182998" lon="-67.977459">
        <ele>457.30</ele>
        <time>2022-10-26T13:29:43Z</time>
      </trkpt>
      <trkpt lat="10.182985" lon="-67.977510">
        <ele>457.40</ele>
        <time>2022-10-26T13:29:44Z</time>
      </trkpt>
      <trkpt lat="10.182980" lon="-67.977565">
        <ele>457.40</ele>
        <time>2022-10-26T13:29:45Z</time>
      </trkpt>
      <trkpt lat="10.182964" lon="-67.977627">
        <ele>457.50</ele>
        <time>2022-10-26T13:29:46Z</time>
      </trkpt>
      <trkpt lat="10.182948" lon="-67.977694">
        <ele>457.50</ele>
        <time>2022-10-26T13:29:47Z</time>
      </trkpt>
      <trkpt lat="10.182941" lon="-67.977758">
        <ele>457.60</ele>
        <time>2022-10-26T13:29:48Z</time>
      </trkpt>
      <trkpt lat="10.182930" lon="-67.977821">
        <ele>457.70</ele>
        <time>2022-10-26T13:29:49Z</time>
      </trkpt>
      <trkpt lat="10.182918" lon="-67.977884">
        <ele>457.90</ele>
        <time>2022-10-26T13:29:50Z</time>
      </trkpt>
      <trkpt lat="10.182910" lon="-67.977942">
        <ele>458.00</ele>
        <time>2022-10-26T13:29:51Z</time>
      </trkpt>
      <trkpt lat="10.182897" lon="-67.978005">
        <ele>458.10</ele>
        <time>2022-10-26T13:29:52Z</time>
      </trkpt>
      <trkpt lat="10.182883" lon="-67.978062">
        <ele>458.20</ele>
        <time>2022-10-26T13:29:53Z</time>
      </trkpt>
      <trkpt lat="10.182872" lon="-67.978109">
        <ele>458.30</ele>
        <time>2022-10-26T13:29:54Z</time>
      </trkpt>
      <trkpt lat="10.182864" lon="-67.978161">
        <ele>458.40</ele>
        <time>2022-10-26T13:29:55Z</time>
      </trkpt>
      <trkpt lat="10.182860" lon="-67.978214">
        <ele>458.50</ele>
        <time>2022-10-26T13:29:56Z</time>
      </trkpt>
      <trkpt lat="10.182860" lon="-67.978266">
        <ele>458.60</ele>
        <time>2022-10-26T13:29:57Z</time>
      </trkpt>
      <trkpt lat="10.182854" lon="-67.978318">
        <ele>458.70</ele>
        <time>2022-10-26T13:29:58Z</time>
      </trkpt>
      <trkpt lat="10.182840" lon="-67.978377">
        <ele>458.90</ele>
        <time>2022-10-26T13:29:59Z</time>
      </trkpt>
      <trkpt lat="10.182821" lon="-67.978439">
        <ele>459.00</ele>
        <time>2022-10-26T13:30:00Z</time>
      </trkpt>
      <trkpt lat="10.182809" lon="-67.978503">
        <ele>459.20</ele>
        <time>2022-10-26T13:30:01Z</time>
      </trkpt>
      <trkpt lat="10.182796" lon="-67.978619">
        <ele>459.40</ele>
        <time>2022-10-26T13:30:03Z</time>
      </trkpt>
      <trkpt lat="10.182793" lon="-67.978681">
        <ele>459.50</ele>
        <time>2022-10-26T13:30:04Z</time>
      </trkpt>
      <trkpt lat="10.182787" lon="-67.978736">
        <ele>459.60</ele>
        <time>2022-10-26T13:30:05Z</time>
      </trkpt>
      <trkpt lat="10.182776" lon="-67.978789">
        <ele>459.70</ele>
        <time>2022-10-26T13:30:06Z</time>
      </trkpt>
      <trkpt lat="10.182762" lon="-67.978844">
        <ele>459.80</ele>
        <time>2022-10-26T13:30:07Z</time>
      </trkpt>
      <trkpt lat="10.182752" lon="-67.978896">
        <ele>459.90</ele>
        <time>2022-10-26T13:30:08Z</time>
      </trkpt>
      <trkpt lat="10.182746" lon="-67.978947">
        <ele>460.00</ele>
        <time>2022-10-26T13:30:09Z</time>
      </trkpt>
      <trkpt lat="10.182742" lon="-67.978995">
        <ele>460.20</ele>
        <time>2022-10-26T13:30:10Z</time>
      </trkpt>
      <trkpt lat="10.182744" lon="-67.979051">
        <ele>460.30</ele>
        <time>2022-10-26T13:30:11Z</time>
      </trkpt>
      <trkpt lat="10.182746" lon="-67.979100">
        <ele>460.40</ele>
        <time>2022-10-26T13:30:12Z</time>
      </trkpt>
      <trkpt lat="10.182728" lon="-67.979144">
        <ele>460.50</ele>
        <time>2022-10-26T13:30:13Z</time>
      </trkpt>
      <trkpt lat="10.182707" lon="-67.979191">
        <ele>460.60</ele>
        <time>2022-10-26T13:30:14Z</time>
      </trkpt>
      <trkpt lat="10.182692" lon="-67.979241">
        <ele>460.80</ele>
        <time>2022-10-26T13:30:15Z</time>
      </trkpt>
      <trkpt lat="10.182682" lon="-67.979288">
        <ele>460.90</ele>
        <time>2022-10-26T13:30:16Z</time>
      </trkpt>
      <trkpt lat="10.182650" lon="-67.979362">
        <ele>461.10</ele>
        <time>2022-10-26T13:30:17Z</time>
      </trkpt>
      <trkpt lat="10.182630" lon="-67.979413">
        <ele>461.20</ele>
        <time>2022-10-26T13:30:18Z</time>
      </trkpt>
      <trkpt lat="10.182615" lon="-67.979445">
        <ele>461.30</ele>
        <time>2022-10-26T13:30:19Z</time>
      </trkpt>
      <trkpt lat="10.182609" lon="-67.979460">
        <ele>461.30</ele>
        <time>2022-10-26T13:30:20Z</time>
      </trkpt>
      <trkpt lat="10.182599" lon="-67.979488">
        <ele>461.30</ele>
        <time>2022-10-26T13:30:21Z</time>
      </trkpt>
      <trkpt lat="10.182591" lon="-67.979516">
        <ele>461.40</ele>
        <time>2022-10-26T13:30:22Z</time>
      </trkpt>
      <trkpt lat="10.182583" lon="-67.979545">
        <ele>461.40</ele>
        <time>2022-10-26T13:30:23Z</time>
      </trkpt>
      <trkpt lat="10.182577" lon="-67.979577">
        <ele>461.50</ele>
        <time>2022-10-26T13:30:24Z</time>
      </trkpt>
      <trkpt lat="10.182574" lon="-67.979596">
        <ele>461.50</ele>
        <time>2022-10-26T13:30:25Z</time>
      </trkpt>
      <trkpt lat="10.182584" lon="-67.979604">
        <ele>461.50</ele>
        <time>2022-10-26T13:30:26Z</time>
      </trkpt>
      <trkpt lat="10.182577" lon="-67.979634">
        <ele>461.60</ele>
        <time>2022-10-26T13:30:27Z</time>
      </trkpt>
      <trkpt lat="10.182570" lon="-67.979667">
        <ele>461.60</ele>
        <time>2022-10-26T13:30:28Z</time>
      </trkpt>
      <trkpt lat="10.182562" lon="-67.979718">
        <ele>461.70</ele>
        <time>2022-10-26T13:30:30Z</time>
      </trkpt>
      <trkpt lat="10.182560" lon="-67.979759">
        <ele>461.80</ele>
        <time>2022-10-26T13:30:31Z</time>
      </trkpt>
      <trkpt lat="10.182559" lon="-67.979797">
        <ele>461.90</ele>
        <time>2022-10-26T13:30:32Z</time>
      </trkpt>
      <trkpt lat="10.182560" lon="-67.979848">
        <ele>462.00</ele>
        <time>2022-10-26T13:30:33Z</time>
      </trkpt>
      <trkpt lat="10.182530" lon="-67.980127">
        <ele>462.20</ele>
        <time>2022-10-26T13:30:34Z</time>
      </trkpt>
      <trkpt lat="10.182518" lon="-67.980211">
        <ele>462.20</ele>
        <time>2022-10-26T13:30:35Z</time>
      </trkpt>
      <trkpt lat="10.182499" lon="-67.980352">
        <ele>462.20</ele>
        <time>2022-10-26T13:30:36Z</time>
      </trkpt>
      <trkpt lat="10.182478" lon="-67.980463">
        <ele>462.30</ele>
        <time>2022-10-26T13:30:37Z</time>
      </trkpt>
      <trkpt lat="10.182452" lon="-67.980546">
        <ele>462.30</ele>
        <time>2022-10-26T13:30:38Z</time>
      </trkpt>
      <trkpt lat="10.182429" lon="-67.980612">
        <ele>462.30</ele>
        <time>2022-10-26T13:30:39Z</time>
      </trkpt>
      <trkpt lat="10.182410" lon="-67.980686">
        <ele>462.30</ele>
        <time>2022-10-26T13:30:40Z</time>
      </trkpt>
      <trkpt lat="10.182404" lon="-67.980751">
        <ele>462.30</ele>
        <time>2022-10-26T13:30:41Z</time>
      </trkpt>
      <trkpt lat="10.182395" lon="-67.980812">
        <ele>462.30</ele>
        <time>2022-10-26T13:30:42Z</time>
      </trkpt>
      <trkpt lat="10.182366" lon="-67.980872">
        <ele>462.40</ele>
        <time>2022-10-26T13:30:43Z</time>
      </trkpt>
      <trkpt lat="10.182345" lon="-67.980936">
        <ele>462.40</ele>
        <time>2022-10-26T13:30:44Z</time>
      </trkpt>
      <trkpt lat="10.182315" lon="-67.981010">
        <ele>462.40</ele>
        <time>2022-10-26T13:30:45Z</time>
      </trkpt>
      <trkpt lat="10.182281" lon="-67.981070">
        <ele>462.40</ele>
        <time>2022-10-26T13:30:46Z</time>
      </trkpt>
      <trkpt lat="10.182230" lon="-67.981127">
        <ele>462.50</ele>
        <time>2022-10-26T13:30:47Z</time>
      </trkpt>
      <trkpt lat="10.182205" lon="-67.981182">
        <ele>462.50</ele>
        <time>2022-10-26T13:30:48Z</time>
      </trkpt>
      <trkpt lat="10.182190" lon="-67.981250">
        <ele>462.50</ele>
        <time>2022-10-26T13:30:49Z</time>
      </trkpt>
      <trkpt lat="10.182171" lon="-67.981311">
        <ele>462.50</ele>
        <time>2022-10-26T13:30:50Z</time>
      </trkpt>
      <trkpt lat="10.182153" lon="-67.981372">
        <ele>462.50</ele>
        <time>2022-10-26T13:30:51Z</time>
      </trkpt>
      <trkpt lat="10.182132" lon="-67.981429">
        <ele>462.50</ele>
        <time>2022-10-26T13:30:52Z</time>
      </trkpt>
      <trkpt lat="10.182115" lon="-67.981478">
        <ele>462.50</ele>
        <time>2022-10-26T13:30:53Z</time>
      </trkpt>
      <trkpt lat="10.182099" lon="-67.981525">
        <ele>462.50</ele>
        <time>2022-10-26T13:30:54Z</time>
      </trkpt>
      <trkpt lat="10.182087" lon="-67.981579">
        <ele>462.50</ele>
        <time>2022-10-26T13:30:55Z</time>
      </trkpt>
      <trkpt lat="10.182078" lon="-67.981629">
        <ele>462.50</ele>
        <time>2022-10-26T13:30:56Z</time>
      </trkpt>
      <trkpt lat="10.182055" lon="-67.981683">
        <ele>462.50</ele>
        <time>2022-10-26T13:30:57Z</time>
      </trkpt>
      <trkpt lat="10.182032" lon="-67.981745">
        <ele>462.50</ele>
        <time>2022-10-26T13:30:58Z</time>
      </trkpt>
      <trkpt lat="10.182019" lon="-67.981802">
        <ele>462.50</ele>
        <time>2022-10-26T13:30:59Z</time>
      </trkpt>
      <trkpt lat="10.181998" lon="-67.981849">
        <ele>462.50</ele>
        <time>2022-10-26T13:31:00Z</time>
      </trkpt>
      <trkpt lat="10.181977" lon="-67.981893">
        <ele>462.50</ele>
        <time>2022-10-26T13:31:01Z</time>
      </trkpt>
      <trkpt lat="10.181955" lon="-67.981938">
        <ele>462.50</ele>
        <time>2022-10-26T13:31:02Z</time>
      </trkpt>
      <trkpt lat="10.181928" lon="-67.981991">
        <ele>462.60</ele>
        <time>2022-10-26T13:31:03Z</time>
      </trkpt>
      <trkpt lat="10.181908" lon="-67.982039">
        <ele>462.60</ele>
        <time>2022-10-26T13:31:04Z</time>
      </trkpt>
      <trkpt lat="10.181881" lon="-67.982087">
        <ele>462.60</ele>
        <time>2022-10-26T13:31:05Z</time>
      </trkpt>
      <trkpt lat="10.181858" lon="-67.982140">
        <ele>462.60</ele>
        <time>2022-10-26T13:31:06Z</time>
      </trkpt>
      <trkpt lat="10.181840" lon="-67.982191">
        <ele>462.60</ele>
        <time>2022-10-26T13:31:07Z</time>
      </trkpt>
      <trkpt lat="10.181817" lon="-67.982244">
        <ele>462.60</ele>
        <time>2022-10-26T13:31:08Z</time>
      </trkpt>
      <trkpt lat="10.181793" lon="-67.982298">
        <ele>462.70</ele>
        <time>2022-10-26T13:31:09Z</time>
      </trkpt>
      <trkpt lat="10.181765" lon="-67.982353">
        <ele>462.70</ele>
        <time>2022-10-26T13:31:10Z</time>
      </trkpt>
      <trkpt lat="10.181731" lon="-67.982392">
        <ele>462.70</ele>
        <time>2022-10-26T13:31:11Z</time>
      </trkpt>
      <trkpt lat="10.181695" lon="-67.982438">
        <ele>462.70</ele>
        <time>2022-10-26T13:31:12Z</time>
      </trkpt>
      <trkpt lat="10.181663" lon="-67.982492">
        <ele>462.70</ele>
        <time>2022-10-26T13:31:13Z</time>
      </trkpt>
      <trkpt lat="10.181632" lon="-67.982549">
        <ele>462.70</ele>
        <time>2022-10-26T13:31:14Z</time>
      </trkpt>
      <trkpt lat="10.181600" lon="-67.982606">
        <ele>462.70</ele>
        <time>2022-10-26T13:31:15Z</time>
      </trkpt>
      <trkpt lat="10.181572" lon="-67.982658">
        <ele>462.70</ele>
        <time>2022-10-26T13:31:16Z</time>
      </trkpt>
      <trkpt lat="10.181548" lon="-67.982710">
        <ele>462.70</ele>
        <time>2022-10-26T13:31:17Z</time>
      </trkpt>
      <trkpt lat="10.181526" lon="-67.982760">
        <ele>462.70</ele>
        <time>2022-10-26T13:31:18Z</time>
      </trkpt>
      <trkpt lat="10.181507" lon="-67.982817">
        <ele>462.70</ele>
        <time>2022-10-26T13:31:19Z</time>
      </trkpt>
      <trkpt lat="10.181480" lon="-67.982876">
        <ele>462.70</ele>
        <time>2022-10-26T13:31:20Z</time>
      </trkpt>
      <trkpt lat="10.181457" lon="-67.982933">
        <ele>462.80</ele>
        <time>2022-10-26T13:31:21Z</time>
      </trkpt>
      <trkpt lat="10.181431" lon="-67.982989">
        <ele>462.80</ele>
        <time>2022-10-26T13:31:22Z</time>
      </trkpt>
      <trkpt lat="10.181412" lon="-67.983042">
        <ele>462.80</ele>
        <time>2022-10-26T13:31:23Z</time>
      </trkpt>
      <trkpt lat="10.181398" lon="-67.983101">
        <ele>462.80</ele>
        <time>2022-10-26T13:31:24Z</time>
      </trkpt>
      <trkpt lat="10.181376" lon="-67.983158">
        <ele>462.90</ele>
        <time>2022-10-26T13:31:25Z</time>
      </trkpt>
      <trkpt lat="10.181363" lon="-67.983215">
        <ele>462.90</ele>
        <time>2022-10-26T13:31:26Z</time>
      </trkpt>
      <trkpt lat="10.181353" lon="-67.983276">
        <ele>462.90</ele>
        <time>2022-10-26T13:31:27Z</time>
      </trkpt>
      <trkpt lat="10.181340" lon="-67.983333">
        <ele>462.90</ele>
        <time>2022-10-26T13:31:28Z</time>
      </trkpt>
      <trkpt lat="10.181317" lon="-67.983385">
        <ele>462.90</ele>
        <time>2022-10-26T13:31:29Z</time>
      </trkpt>
      <trkpt lat="10.181291" lon="-67.983443">
        <ele>462.90</ele>
        <time>2022-10-26T13:31:30Z</time>
      </trkpt>
      <trkpt lat="10.181268" lon="-67.983492">
        <ele>462.90</ele>
        <time>2022-10-26T13:31:31Z</time>
      </trkpt>
      <trkpt lat="10.181241" lon="-67.983534">
        <ele>463.00</ele>
        <time>2022-10-26T13:31:32Z</time>
      </trkpt>
      <trkpt lat="10.181222" lon="-67.983586">
        <ele>463.00</ele>
        <time>2022-10-26T13:31:33Z</time>
      </trkpt>
      <trkpt lat="10.181204" lon="-67.983644">
        <ele>463.10</ele>
        <time>2022-10-26T13:31:34Z</time>
      </trkpt>
      <trkpt lat="10.181179" lon="-67.983704">
        <ele>463.10</ele>
        <time>2022-10-26T13:31:35Z</time>
      </trkpt>
      <trkpt lat="10.181141" lon="-67.983759">
        <ele>463.10</ele>
        <time>2022-10-26T13:31:36Z</time>
      </trkpt>
      <trkpt lat="10.181114" lon="-67.983819">
        <ele>463.20</ele>
        <time>2022-10-26T13:31:37Z</time>
      </trkpt>
      <trkpt lat="10.181081" lon="-67.983878">
        <ele>463.20</ele>
        <time>2022-10-26T13:31:38Z</time>
      </trkpt>
      <trkpt lat="10.181053" lon="-67.983934">
        <ele>463.20</ele>
        <time>2022-10-26T13:31:39Z</time>
      </trkpt>
      <trkpt lat="10.181034" lon="-67.983992">
        <ele>463.20</ele>
        <time>2022-10-26T13:31:40Z</time>
      </trkpt>
      <trkpt lat="10.181017" lon="-67.984046">
        <ele>463.20</ele>
        <time>2022-10-26T13:31:41Z</time>
      </trkpt>
      <trkpt lat="10.180989" lon="-67.984097">
        <ele>463.20</ele>
        <time>2022-10-26T13:31:42Z</time>
      </trkpt>
      <trkpt lat="10.180965" lon="-67.984154">
        <ele>463.20</ele>
        <time>2022-10-26T13:31:43Z</time>
      </trkpt>
      <trkpt lat="10.180943" lon="-67.984205">
        <ele>463.20</ele>
        <time>2022-10-26T13:31:44Z</time>
      </trkpt>
      <trkpt lat="10.180922" lon="-67.984253">
        <ele>463.30</ele>
        <time>2022-10-26T13:31:45Z</time>
      </trkpt>
      <trkpt lat="10.180902" lon="-67.984300">
        <ele>463.30</ele>
        <time>2022-10-26T13:31:46Z</time>
      </trkpt>
      <trkpt lat="10.180885" lon="-67.984343">
        <ele>463.30</ele>
        <time>2022-10-26T13:31:47Z</time>
      </trkpt>
      <trkpt lat="10.180871" lon="-67.984382">
        <ele>463.40</ele>
        <time>2022-10-26T13:31:48Z</time>
      </trkpt>
      <trkpt lat="10.180850" lon="-67.984428">
        <ele>463.40</ele>
        <time>2022-10-26T13:31:49Z</time>
      </trkpt>
      <trkpt lat="10.180824" lon="-67.984482">
        <ele>463.50</ele>
        <time>2022-10-26T13:31:50Z</time>
      </trkpt>
      <trkpt lat="10.180793" lon="-67.984531">
        <ele>463.50</ele>
        <time>2022-10-26T13:31:51Z</time>
      </trkpt>
      <trkpt lat="10.180760" lon="-67.984593">
        <ele>463.60</ele>
        <time>2022-10-26T13:31:52Z</time>
      </trkpt>
      <trkpt lat="10.180724" lon="-67.984651">
        <ele>463.60</ele>
        <time>2022-10-26T13:31:53Z</time>
      </trkpt>
      <trkpt lat="10.180710" lon="-67.984715">
        <ele>463.70</ele>
        <time>2022-10-26T13:31:54Z</time>
      </trkpt>
      <trkpt lat="10.180709" lon="-67.984781">
        <ele>463.70</ele>
        <time>2022-10-26T13:31:55Z</time>
      </trkpt>
      <trkpt lat="10.180706" lon="-67.984847">
        <ele>463.80</ele>
        <time>2022-10-26T13:31:56Z</time>
      </trkpt>
      <trkpt lat="10.180695" lon="-67.984910">
        <ele>463.80</ele>
        <time>2022-10-26T13:31:57Z</time>
      </trkpt>
      <trkpt lat="10.180681" lon="-67.984970">
        <ele>463.80</ele>
        <time>2022-10-26T13:31:58Z</time>
      </trkpt>
      <trkpt lat="10.180678" lon="-67.985024">
        <ele>463.80</ele>
        <time>2022-10-26T13:31:59Z</time>
      </trkpt>
      <trkpt lat="10.180694" lon="-67.985079">
        <ele>463.80</ele>
        <time>2022-10-26T13:32:00Z</time>
      </trkpt>
      <trkpt lat="10.180724" lon="-67.985092">
        <ele>463.80</ele>
        <time>2022-10-26T13:32:01Z</time>
      </trkpt>
      <trkpt lat="10.180758" lon="-67.985064">
        <ele>463.80</ele>
        <time>2022-10-26T13:32:02Z</time>
      </trkpt>
      <trkpt lat="10.180775" lon="-67.985052">
        <ele>463.80</ele>
        <time>2022-10-26T13:32:03Z</time>
      </trkpt>
      <trkpt lat="10.180784" lon="-67.985054">
        <ele>463.80</ele>
        <time>2022-10-26T13:32:04Z</time>
      </trkpt>
      <trkpt lat="10.180780" lon="-67.985077">
        <ele>463.80</ele>
        <time>2022-10-26T13:32:05Z</time>
      </trkpt>
      <trkpt lat="10.180774" lon="-67.985099">
        <ele>463.80</ele>
        <time>2022-10-26T13:32:06Z</time>
      </trkpt>
      <trkpt lat="10.180768" lon="-67.985121">
        <ele>463.80</ele>
        <time>2022-10-26T13:32:07Z</time>
      </trkpt>
      <trkpt lat="10.180749" lon="-67.985250">
        <ele>463.80</ele>
        <time>2022-10-26T13:32:08Z</time>
      </trkpt>
      <trkpt lat="10.180737" lon="-67.985414">
        <ele>463.80</ele>
        <time>2022-10-26T13:32:09Z</time>
      </trkpt>
      <trkpt lat="10.180725" lon="-67.985549">
        <ele>463.80</ele>
        <time>2022-10-26T13:32:10Z</time>
      </trkpt>
      <trkpt lat="10.180723" lon="-67.985609">
        <ele>463.80</ele>
        <time>2022-10-26T13:32:11Z</time>
      </trkpt>
      <trkpt lat="10.180677" lon="-67.985751">
        <ele>463.80</ele>
        <time>2022-10-26T13:32:12Z</time>
      </trkpt>
      <trkpt lat="10.180655" lon="-67.985849">
        <ele>463.80</ele>
        <time>2022-10-26T13:32:13Z</time>
      </trkpt>
      <trkpt lat="10.180639" lon="-67.985937">
        <ele>463.70</ele>
        <time>2022-10-26T13:32:14Z</time>
      </trkpt>
      <trkpt lat="10.180625" lon="-67.986018">
        <ele>463.70</ele>
        <time>2022-10-26T13:32:15Z</time>
      </trkpt>
      <trkpt lat="10.180606" lon="-67.986097">
        <ele>463.60</ele>
        <time>2022-10-26T13:32:16Z</time>
      </trkpt>
      <trkpt lat="10.180602" lon="-67.986169">
        <ele>463.60</ele>
        <time>2022-10-26T13:32:17Z</time>
      </trkpt>
      <trkpt lat="10.180606" lon="-67.986228">
        <ele>463.50</ele>
        <time>2022-10-26T13:32:18Z</time>
      </trkpt>
      <trkpt lat="10.180602" lon="-67.986289">
        <ele>463.40</ele>
        <time>2022-10-26T13:32:19Z</time>
      </trkpt>
      <trkpt lat="10.180591" lon="-67.986355">
        <ele>463.30</ele>
        <time>2022-10-26T13:32:20Z</time>
      </trkpt>
      <trkpt lat="10.180579" lon="-67.986423">
        <ele>463.20</ele>
        <time>2022-10-26T13:32:21Z</time>
      </trkpt>
      <trkpt lat="10.180573" lon="-67.986476">
        <ele>463.20</ele>
        <time>2022-10-26T13:32:22Z</time>
      </trkpt>
      <trkpt lat="10.180553" lon="-67.986542">
        <ele>463.20</ele>
        <time>2022-10-26T13:32:23Z</time>
      </trkpt>
      <trkpt lat="10.180531" lon="-67.986605">
        <ele>463.20</ele>
        <time>2022-10-26T13:32:24Z</time>
      </trkpt>
      <trkpt lat="10.180512" lon="-67.986670">
        <ele>463.20</ele>
        <time>2022-10-26T13:32:25Z</time>
      </trkpt>
      <trkpt lat="10.180504" lon="-67.986738">
        <ele>463.20</ele>
        <time>2022-10-26T13:32:26Z</time>
      </trkpt>
      <trkpt lat="10.180508" lon="-67.986818">
        <ele>463.30</ele>
        <time>2022-10-26T13:32:27Z</time>
      </trkpt>
      <trkpt lat="10.180512" lon="-67.986903">
        <ele>463.50</ele>
        <time>2022-10-26T13:32:28Z</time>
      </trkpt>
      <trkpt lat="10.180504" lon="-67.987050">
        <ele>463.80</ele>
        <time>2022-10-26T13:32:30Z</time>
      </trkpt>
      <trkpt lat="10.180498" lon="-67.987122">
        <ele>463.90</ele>
        <time>2022-10-26T13:32:31Z</time>
      </trkpt>
      <trkpt lat="10.180503" lon="-67.987184">
        <ele>464.00</ele>
        <time>2022-10-26T13:32:32Z</time>
      </trkpt>
      <trkpt lat="10.180483" lon="-67.987237">
        <ele>464.10</ele>
        <time>2022-10-26T13:32:33Z</time>
      </trkpt>
      <trkpt lat="10.180462" lon="-67.987284">
        <ele>464.10</ele>
        <time>2022-10-26T13:32:34Z</time>
      </trkpt>
      <trkpt lat="10.180440" lon="-67.987332">
        <ele>464.20</ele>
        <time>2022-10-26T13:32:35Z</time>
      </trkpt>
      <trkpt lat="10.180430" lon="-67.987383">
        <ele>464.20</ele>
        <time>2022-10-26T13:32:36Z</time>
      </trkpt>
      <trkpt lat="10.180407" lon="-67.987425">
        <ele>464.30</ele>
        <time>2022-10-26T13:32:37Z</time>
      </trkpt>
      <trkpt lat="10.180385" lon="-67.987481">
        <ele>464.30</ele>
        <time>2022-10-26T13:32:38Z</time>
      </trkpt>
      <trkpt lat="10.180372" lon="-67.987548">
        <ele>464.70</ele>
        <time>2022-10-26T13:32:39Z</time>
      </trkpt>
      <trkpt lat="10.180359" lon="-67.987611">
        <ele>465.00</ele>
        <time>2022-10-26T13:32:40Z</time>
      </trkpt>
      <trkpt lat="10.180346" lon="-67.987669">
        <ele>465.20</ele>
        <time>2022-10-26T13:32:41Z</time>
      </trkpt>
      <trkpt lat="10.180329" lon="-67.987728">
        <ele>465.40</ele>
        <time>2022-10-26T13:32:42Z</time>
      </trkpt>
      <trkpt lat="10.180311" lon="-67.987795">
        <ele>465.50</ele>
        <time>2022-10-26T13:32:43Z</time>
      </trkpt>
      <trkpt lat="10.180301" lon="-67.987867">
        <ele>465.70</ele>
        <time>2022-10-26T13:32:44Z</time>
      </trkpt>
      <trkpt lat="10.180280" lon="-67.987942">
        <ele>465.50</ele>
        <time>2022-10-26T13:32:45Z</time>
      </trkpt>
      <trkpt lat="10.180255" lon="-67.988013">
        <ele>465.20</ele>
        <time>2022-10-26T13:32:46Z</time>
      </trkpt>
      <trkpt lat="10.180226" lon="-67.988092">
        <ele>464.80</ele>
        <time>2022-10-26T13:32:47Z</time>
      </trkpt>
      <trkpt lat="10.180191" lon="-67.988162">
        <ele>464.40</ele>
        <time>2022-10-26T13:32:48Z</time>
      </trkpt>
      <trkpt lat="10.180169" lon="-67.988242">
        <ele>463.90</ele>
        <time>2022-10-26T13:32:49Z</time>
      </trkpt>
      <trkpt lat="10.180153" lon="-67.988334">
        <ele>463.50</ele>
        <time>2022-10-26T13:32:50Z</time>
      </trkpt>
      <trkpt lat="10.180140" lon="-67.988432">
        <ele>463.10</ele>
        <time>2022-10-26T13:32:51Z</time>
      </trkpt>
      <trkpt lat="10.180131" lon="-67.988510">
        <ele>463.00</ele>
        <time>2022-10-26T13:32:52Z</time>
      </trkpt>
      <trkpt lat="10.180125" lon="-67.988592">
        <ele>463.00</ele>
        <time>2022-10-26T13:32:53Z</time>
      </trkpt>
      <trkpt lat="10.180117" lon="-67.988673">
        <ele>463.10</ele>
        <time>2022-10-26T13:32:54Z</time>
      </trkpt>
      <trkpt lat="10.180110" lon="-67.988744">
        <ele>463.30</ele>
        <time>2022-10-26T13:32:55Z</time>
      </trkpt>
      <trkpt lat="10.180100" lon="-67.988813">
        <ele>463.60</ele>
        <time>2022-10-26T13:32:56Z</time>
      </trkpt>
      <trkpt lat="10.180090" lon="-67.988891">
        <ele>463.90</ele>
        <time>2022-10-26T13:32:57Z</time>
      </trkpt>
      <trkpt lat="10.180086" lon="-67.988975">
        <ele>464.20</ele>
        <time>2022-10-26T13:32:58Z</time>
      </trkpt>
      <trkpt lat="10.180082" lon="-67.989053">
        <ele>464.40</ele>
        <time>2022-10-26T13:32:59Z</time>
      </trkpt>
      <trkpt lat="10.180078" lon="-67.989125">
        <ele>464.60</ele>
        <time>2022-10-26T13:33:00Z</time>
      </trkpt>
      <trkpt lat="10.180075" lon="-67.989203">
        <ele>464.20</ele>
        <time>2022-10-26T13:33:01Z</time>
      </trkpt>
      <trkpt lat="10.180071" lon="-67.989277">
        <ele>463.40</ele>
        <time>2022-10-26T13:33:02Z</time>
      </trkpt>
      <trkpt lat="10.180061" lon="-67.989351">
        <ele>463.20</ele>
        <time>2022-10-26T13:33:03Z</time>
      </trkpt>
      <trkpt lat="10.180052" lon="-67.989424">
        <ele>463.10</ele>
        <time>2022-10-26T13:33:04Z</time>
      </trkpt>
      <trkpt lat="10.180041" lon="-67.989501">
        <ele>463.10</ele>
        <time>2022-10-26T13:33:05Z</time>
      </trkpt>
      <trkpt lat="10.180032" lon="-67.989567">
        <ele>463.10</ele>
        <time>2022-10-26T13:33:06Z</time>
      </trkpt>
      <trkpt lat="10.180023" lon="-67.989634">
        <ele>463.10</ele>
        <time>2022-10-26T13:33:07Z</time>
      </trkpt>
      <trkpt lat="10.180012" lon="-67.989706">
        <ele>463.00</ele>
        <time>2022-10-26T13:33:08Z</time>
      </trkpt>
      <trkpt lat="10.180009" lon="-67.989764">
        <ele>463.00</ele>
        <time>2022-10-26T13:33:09Z</time>
      </trkpt>
      <trkpt lat="10.180004" lon="-67.989825">
        <ele>463.00</ele>
        <time>2022-10-26T13:33:10Z</time>
      </trkpt>
      <trkpt lat="10.179999" lon="-67.989884">
        <ele>463.10</ele>
        <time>2022-10-26T13:33:11Z</time>
      </trkpt>
      <trkpt lat="10.179995" lon="-67.989945">
        <ele>463.00</ele>
        <time>2022-10-26T13:33:12Z</time>
      </trkpt>
      <trkpt lat="10.179991" lon="-67.990010">
        <ele>463.00</ele>
        <time>2022-10-26T13:33:13Z</time>
      </trkpt>
      <trkpt lat="10.179987" lon="-67.990074">
        <ele>463.00</ele>
        <time>2022-10-26T13:33:14Z</time>
      </trkpt>
      <trkpt lat="10.179980" lon="-67.990136">
        <ele>463.00</ele>
        <time>2022-10-26T13:33:15Z</time>
      </trkpt>
      <trkpt lat="10.179968" lon="-67.990197">
        <ele>462.90</ele>
        <time>2022-10-26T13:33:16Z</time>
      </trkpt>
      <trkpt lat="10.179955" lon="-67.990260">
        <ele>462.90</ele>
        <time>2022-10-26T13:33:17Z</time>
      </trkpt>
      <trkpt lat="10.179937" lon="-67.990320">
        <ele>462.80</ele>
        <time>2022-10-26T13:33:18Z</time>
      </trkpt>
      <trkpt lat="10.179918" lon="-67.990376">
        <ele>462.80</ele>
        <time>2022-10-26T13:33:19Z</time>
      </trkpt>
      <trkpt lat="10.179901" lon="-67.990436">
        <ele>462.80</ele>
        <time>2022-10-26T13:33:20Z</time>
      </trkpt>
      <trkpt lat="10.179883" lon="-67.990498">
        <ele>462.70</ele>
        <time>2022-10-26T13:33:21Z</time>
      </trkpt>
      <trkpt lat="10.179864" lon="-67.990559">
        <ele>462.70</ele>
        <time>2022-10-26T13:33:22Z</time>
      </trkpt>
      <trkpt lat="10.179843" lon="-67.990622">
        <ele>462.60</ele>
        <time>2022-10-26T13:33:23Z</time>
      </trkpt>
      <trkpt lat="10.179816" lon="-67.990685">
        <ele>462.60</ele>
        <time>2022-10-26T13:33:24Z</time>
      </trkpt>
      <trkpt lat="10.179783" lon="-67.990741">
        <ele>462.50</ele>
        <time>2022-10-26T13:33:25Z</time>
      </trkpt>
      <trkpt lat="10.179748" lon="-67.990802">
        <ele>462.50</ele>
        <time>2022-10-26T13:33:26Z</time>
      </trkpt>
      <trkpt lat="10.179759" lon="-67.990856">
        <ele>462.50</ele>
        <time>2022-10-26T13:33:27Z</time>
      </trkpt>
      <trkpt lat="10.179775" lon="-67.990886">
        <ele>462.50</ele>
        <time>2022-10-26T13:33:28Z</time>
      </trkpt>
      <trkpt lat="10.179777" lon="-67.990908">
        <ele>462.50</ele>
        <time>2022-10-26T13:33:29Z</time>
      </trkpt>
      <trkpt lat="10.179769" lon="-67.990950">
        <ele>462.50</ele>
        <time>2022-10-26T13:33:31Z</time>
      </trkpt>
      <trkpt lat="10.179767" lon="-67.990974">
        <ele>462.50</ele>
        <time>2022-10-26T13:33:32Z</time>
      </trkpt>
      <trkpt lat="10.179771" lon="-67.990981">
        <ele>462.50</ele>
        <time>2022-10-26T13:33:33Z</time>
      </trkpt>
      <trkpt lat="10.179775" lon="-67.990987">
        <ele>462.50</ele>
        <time>2022-10-26T13:33:34Z</time>
      </trkpt>
      <trkpt lat="10.179796" lon="-67.990986">
        <ele>462.50</ele>
        <time>2022-10-26T13:33:35Z</time>
      </trkpt>
      <trkpt lat="10.179807" lon="-67.990988">
        <ele>462.50</ele>
        <time>2022-10-26T13:33:36Z</time>
      </trkpt>
      <trkpt lat="10.179818" lon="-67.990989">
        <ele>462.50</ele>
        <time>2022-10-26T13:33:37Z</time>
      </trkpt>
      <trkpt lat="10.179829" lon="-67.990991">
        <ele>462.50</ele>
        <time>2022-10-26T13:33:38Z</time>
      </trkpt>
      <trkpt lat="10.179852" lon="-67.991002">
        <ele>462.50</ele>
        <time>2022-10-26T13:33:40Z</time>
      </trkpt>
      <trkpt lat="10.179854" lon="-67.991003">
        <ele>462.50</ele>
        <time>2022-10-26T13:33:41Z</time>
      </trkpt>
      <trkpt lat="10.179861" lon="-67.991004">
        <ele>462.50</ele>
        <time>2022-10-26T13:33:42Z</time>
      </trkpt>
      <trkpt lat="10.179874" lon="-67.991007">
        <ele>462.50</ele>
        <time>2022-10-26T13:33:43Z</time>
      </trkpt>
      <trkpt lat="10.179886" lon="-67.991010">
        <ele>462.50</ele>
        <time>2022-10-26T13:33:44Z</time>
      </trkpt>
      <trkpt lat="10.179895" lon="-67.991026">
        <ele>462.50</ele>
        <time>2022-10-26T13:33:45Z</time>
      </trkpt>
      <trkpt lat="10.179900" lon="-67.991036">
        <ele>462.50</ele>
        <time>2022-10-26T13:33:46Z</time>
      </trkpt>
      <trkpt lat="10.179904" lon="-67.991046">
        <ele>462.50</ele>
        <time>2022-10-26T13:33:47Z</time>
      </trkpt>
      <trkpt lat="10.179910" lon="-67.991053">
        <ele>462.50</ele>
        <time>2022-10-26T13:33:48Z</time>
      </trkpt>
      <trkpt lat="10.179915" lon="-67.991058">
        <ele>462.50</ele>
        <time>2022-10-26T13:33:49Z</time>
      </trkpt>
      <trkpt lat="10.179919" lon="-67.991067">
        <ele>462.50</ele>
        <time>2022-10-26T13:33:50Z</time>
      </trkpt>
      <trkpt lat="10.179921" lon="-67.991084">
        <ele>462.60</ele>
        <time>2022-10-26T13:33:52Z</time>
      </trkpt>
      <trkpt lat="10.179924" lon="-67.991098">
        <ele>462.60</ele>
        <time>2022-10-26T13:33:53Z</time>
      </trkpt>
      <trkpt lat="10.179922" lon="-67.991114">
        <ele>462.60</ele>
        <time>2022-10-26T13:33:54Z</time>
      </trkpt>
      <trkpt lat="10.179919" lon="-67.991142">
        <ele>462.60</ele>
        <time>2022-10-26T13:33:55Z</time>
      </trkpt>
      <trkpt lat="10.179918" lon="-67.991153">
        <ele>462.60</ele>
        <time>2022-10-26T13:33:56Z</time>
      </trkpt>
      <trkpt lat="10.179915" lon="-67.991186">
        <ele>462.60</ele>
        <time>2022-10-26T13:33:57Z</time>
      </trkpt>
      <trkpt lat="10.179914" lon="-67.991195">
        <ele>462.60</ele>
        <time>2022-10-26T13:33:58Z</time>
      </trkpt>
      <trkpt lat="10.179911" lon="-67.991247">
        <ele>462.60</ele>
        <time>2022-10-26T13:33:59Z</time>
      </trkpt>
      <trkpt lat="10.179910" lon="-67.991278">
        <ele>462.70</ele>
        <time>2022-10-26T13:34:00Z</time>
      </trkpt>
      <trkpt lat="10.179912" lon="-67.991295">
        <ele>462.70</ele>
        <time>2022-10-26T13:34:01Z</time>
      </trkpt>
      <trkpt lat="10.179914" lon="-67.991310">
        <ele>462.70</ele>
        <time>2022-10-26T13:34:02Z</time>
      </trkpt>
      <trkpt lat="10.179915" lon="-67.991326">
        <ele>462.70</ele>
        <time>2022-10-26T13:34:03Z</time>
      </trkpt>
      <trkpt lat="10.179929" lon="-67.991428">
        <ele>462.80</ele>
        <time>2022-10-26T13:34:04Z</time>
      </trkpt>
      <trkpt lat="10.179947" lon="-67.991591">
        <ele>462.90</ele>
        <time>2022-10-26T13:34:06Z</time>
      </trkpt>
      <trkpt lat="10.179954" lon="-67.991703">
        <ele>463.00</ele>
        <time>2022-10-26T13:34:07Z</time>
      </trkpt>
      <trkpt lat="10.179957" lon="-67.991761">
        <ele>463.10</ele>
        <time>2022-10-26T13:34:08Z</time>
      </trkpt>
      <trkpt lat="10.179952" lon="-67.991836">
        <ele>463.20</ele>
        <time>2022-10-26T13:34:09Z</time>
      </trkpt>
      <trkpt lat="10.179946" lon="-67.991882">
        <ele>463.30</ele>
        <time>2022-10-26T13:34:11Z</time>
      </trkpt>
      <trkpt lat="10.179939" lon="-67.991914">
        <ele>463.30</ele>
        <time>2022-10-26T13:34:12Z</time>
      </trkpt>
      <trkpt lat="10.179933" lon="-67.991943">
        <ele>463.40</ele>
        <time>2022-10-26T13:34:13Z</time>
      </trkpt>
      <trkpt lat="10.179923" lon="-67.991986">
        <ele>463.40</ele>
        <time>2022-10-26T13:34:14Z</time>
      </trkpt>
      <trkpt lat="10.179899" lon="-67.992078">
        <ele>463.60</ele>
        <time>2022-10-26T13:34:15Z</time>
      </trkpt>
      <trkpt lat="10.179889" lon="-67.992104">
        <ele>463.60</ele>
        <time>2022-10-26T13:34:16Z</time>
      </trkpt>
      <trkpt lat="10.179858" lon="-67.992180">
        <ele>463.70</ele>
        <time>2022-10-26T13:34:18Z</time>
      </trkpt>
      <trkpt lat="10.179831" lon="-67.992270">
        <ele>463.80</ele>
        <time>2022-10-26T13:34:19Z</time>
      </trkpt>
      <trkpt lat="10.179800" lon="-67.992482">
        <ele>463.90</ele>
        <time>2022-10-26T13:34:20Z</time>
      </trkpt>
      <trkpt lat="10.179779" lon="-67.992567">
        <ele>464.00</ele>
        <time>2022-10-26T13:34:22Z</time>
      </trkpt>
      <trkpt lat="10.179751" lon="-67.992640">
        <ele>464.00</ele>
        <time>2022-10-26T13:34:23Z</time>
      </trkpt>
      <trkpt lat="10.179733" lon="-67.992681">
        <ele>464.00</ele>
        <time>2022-10-26T13:34:24Z</time>
      </trkpt>
      <trkpt lat="10.179714" lon="-67.992711">
        <ele>464.00</ele>
        <time>2022-10-26T13:34:25Z</time>
      </trkpt>
      <trkpt lat="10.179694" lon="-67.992753">
        <ele>464.00</ele>
        <time>2022-10-26T13:34:26Z</time>
      </trkpt>
      <trkpt lat="10.179678" lon="-67.992793">
        <ele>464.00</ele>
        <time>2022-10-26T13:34:27Z</time>
      </trkpt>
      <trkpt lat="10.179664" lon="-67.992834">
        <ele>464.00</ele>
        <time>2022-10-26T13:34:28Z</time>
      </trkpt>
      <trkpt lat="10.179656" lon="-67.992878">
        <ele>464.00</ele>
        <time>2022-10-26T13:34:29Z</time>
      </trkpt>
      <trkpt lat="10.179650" lon="-67.992921">
        <ele>464.00</ele>
        <time>2022-10-26T13:34:30Z</time>
      </trkpt>
      <trkpt lat="10.179645" lon="-67.992959">
        <ele>464.10</ele>
        <time>2022-10-26T13:34:31Z</time>
      </trkpt>
      <trkpt lat="10.179638" lon="-67.992997">
        <ele>464.20</ele>
        <time>2022-10-26T13:34:33Z</time>
      </trkpt>
      <trkpt lat="10.179635" lon="-67.993013">
        <ele>464.20</ele>
        <time>2022-10-26T13:34:34Z</time>
      </trkpt>
      <trkpt lat="10.179630" lon="-67.993043">
        <ele>464.30</ele>
        <time>2022-10-26T13:34:35Z</time>
      </trkpt>
      <trkpt lat="10.179622" lon="-67.993082">
        <ele>464.30</ele>
        <time>2022-10-26T13:34:36Z</time>
      </trkpt>
      <trkpt lat="10.179620" lon="-67.993095">
        <ele>464.40</ele>
        <time>2022-10-26T13:34:37Z</time>
      </trkpt>
      <trkpt lat="10.179615" lon="-67.993144">
        <ele>464.50</ele>
        <time>2022-10-26T13:34:38Z</time>
      </trkpt>
      <trkpt lat="10.179651" lon="-67.993283">
        <ele>464.80</ele>
        <time>2022-10-26T13:34:39Z</time>
      </trkpt>
      <trkpt lat="10.179649" lon="-67.993368">
        <ele>465.00</ele>
        <time>2022-10-26T13:34:40Z</time>
      </trkpt>
      <trkpt lat="10.179648" lon="-67.993462">
        <ele>465.20</ele>
        <time>2022-10-26T13:34:41Z</time>
      </trkpt>
      <trkpt lat="10.179648" lon="-67.993555">
        <ele>465.40</ele>
        <time>2022-10-26T13:34:42Z</time>
      </trkpt>
      <trkpt lat="10.179646" lon="-67.993587">
        <ele>465.50</ele>
        <time>2022-10-26T13:34:43Z</time>
      </trkpt>
      <trkpt lat="10.179643" lon="-67.993645">
        <ele>465.70</ele>
        <time>2022-10-26T13:34:44Z</time>
      </trkpt>
      <trkpt lat="10.179638" lon="-67.993722">
        <ele>465.90</ele>
        <time>2022-10-26T13:34:45Z</time>
      </trkpt>
      <trkpt lat="10.179628" lon="-67.993819">
        <ele>466.00</ele>
        <time>2022-10-26T13:34:46Z</time>
      </trkpt>
      <trkpt lat="10.179620" lon="-67.993906">
        <ele>466.10</ele>
        <time>2022-10-26T13:34:47Z</time>
      </trkpt>
      <trkpt lat="10.179616" lon="-67.993982">
        <ele>466.10</ele>
        <time>2022-10-26T13:34:48Z</time>
      </trkpt>
      <trkpt lat="10.179612" lon="-67.994057">
        <ele>466.10</ele>
        <time>2022-10-26T13:34:49Z</time>
      </trkpt>
      <trkpt lat="10.179593" lon="-67.994137">
        <ele>466.10</ele>
        <time>2022-10-26T13:34:50Z</time>
      </trkpt>
      <trkpt lat="10.179571" lon="-67.994209">
        <ele>466.10</ele>
        <time>2022-10-26T13:34:51Z</time>
      </trkpt>
      <trkpt lat="10.179548" lon="-67.994276">
        <ele>466.10</ele>
        <time>2022-10-26T13:34:52Z</time>
      </trkpt>
      <trkpt lat="10.179534" lon="-67.994331">
        <ele>466.20</ele>
        <time>2022-10-26T13:34:53Z</time>
      </trkpt>
      <trkpt lat="10.179524" lon="-67.994389">
        <ele>466.20</ele>
        <time>2022-10-26T13:34:54Z</time>
      </trkpt>
      <trkpt lat="10.179511" lon="-67.994441">
        <ele>466.20</ele>
        <time>2022-10-26T13:34:55Z</time>
      </trkpt>
      <trkpt lat="10.179474" lon="-67.994473">
        <ele>466.20</ele>
        <time>2022-10-26T13:34:56Z</time>
      </trkpt>
      <trkpt lat="10.179446" lon="-67.994490">
        <ele>466.20</ele>
        <time>2022-10-26T13:34:57Z</time>
      </trkpt>
      <trkpt lat="10.179454" lon="-67.994534">
        <ele>466.20</ele>
        <time>2022-10-26T13:34:58Z</time>
      </trkpt>
      <trkpt lat="10.179459" lon="-67.994591">
        <ele>466.20</ele>
        <time>2022-10-26T13:34:59Z</time>
      </trkpt>
      <trkpt lat="10.179457" lon="-67.994638">
        <ele>466.20</ele>
        <time>2022-10-26T13:35:00Z</time>
      </trkpt>
      <trkpt lat="10.179445" lon="-67.994677">
        <ele>466.30</ele>
        <time>2022-10-26T13:35:01Z</time>
      </trkpt>
      <trkpt lat="10.179429" lon="-67.994701">
        <ele>466.30</ele>
        <time>2022-10-26T13:35:02Z</time>
      </trkpt>
      <trkpt lat="10.179435" lon="-67.994712">
        <ele>466.30</ele>
        <time>2022-10-26T13:35:03Z</time>
      </trkpt>
      <trkpt lat="10.179436" lon="-67.994726">
        <ele>466.30</ele>
        <time>2022-10-26T13:35:04Z</time>
      </trkpt>
      <trkpt lat="10.179436" lon="-67.994740">
        <ele>466.30</ele>
        <time>2022-10-26T13:35:05Z</time>
      </trkpt>
      <trkpt lat="10.179415" lon="-67.994789">
        <ele>466.30</ele>
        <time>2022-10-26T13:35:07Z</time>
      </trkpt>
      <trkpt lat="10.179393" lon="-67.994894">
        <ele>466.20</ele>
        <time>2022-10-26T13:35:08Z</time>
      </trkpt>
      <trkpt lat="10.179382" lon="-67.994973">
        <ele>466.20</ele>
        <time>2022-10-26T13:35:10Z</time>
      </trkpt>
      <trkpt lat="10.179373" lon="-67.995036">
        <ele>466.20</ele>
        <time>2022-10-26T13:35:11Z</time>
      </trkpt>
      <trkpt lat="10.179377" lon="-67.995195">
        <ele>466.10</ele>
        <time>2022-10-26T13:35:12Z</time>
      </trkpt>
      <trkpt lat="10.179376" lon="-67.995246">
        <ele>466.10</ele>
        <time>2022-10-26T13:35:13Z</time>
      </trkpt>
      <trkpt lat="10.179347" lon="-67.995324">
        <ele>466.10</ele>
        <time>2022-10-26T13:35:15Z</time>
      </trkpt>
      <trkpt lat="10.179344" lon="-67.995390">
        <ele>466.10</ele>
        <time>2022-10-26T13:35:16Z</time>
      </trkpt>
      <trkpt lat="10.179341" lon="-67.995434">
        <ele>466.10</ele>
        <time>2022-10-26T13:35:17Z</time>
      </trkpt>
      <trkpt lat="10.179342" lon="-67.995537">
        <ele>466.10</ele>
        <time>2022-10-26T13:35:18Z</time>
      </trkpt>
      <trkpt lat="10.179341" lon="-67.995621">
        <ele>466.10</ele>
        <time>2022-10-26T13:35:19Z</time>
      </trkpt>
      <trkpt lat="10.179342" lon="-67.995688">
        <ele>466.10</ele>
        <time>2022-10-26T13:35:20Z</time>
      </trkpt>
      <trkpt lat="10.179337" lon="-67.995737">
        <ele>466.10</ele>
        <time>2022-10-26T13:35:21Z</time>
      </trkpt>
      <trkpt lat="10.179338" lon="-67.995757">
        <ele>466.00</ele>
        <time>2022-10-26T13:35:22Z</time>
      </trkpt>
      <trkpt lat="10.179339" lon="-67.995767">
        <ele>466.00</ele>
        <time>2022-10-26T13:35:23Z</time>
      </trkpt>
      <trkpt lat="10.179334" lon="-67.995799">
        <ele>466.00</ele>
        <time>2022-10-26T13:35:24Z</time>
      </trkpt>
      <trkpt lat="10.179329" lon="-67.995817">
        <ele>466.00</ele>
        <time>2022-10-26T13:35:26Z</time>
      </trkpt>
      <trkpt lat="10.179324" lon="-67.995834">
        <ele>466.00</ele>
        <time>2022-10-26T13:35:27Z</time>
      </trkpt>
      <trkpt lat="10.179320" lon="-67.995852">
        <ele>466.00</ele>
        <time>2022-10-26T13:35:28Z</time>
      </trkpt>
      <trkpt lat="10.179315" lon="-67.995870">
        <ele>466.00</ele>
        <time>2022-10-26T13:35:29Z</time>
      </trkpt>
      <trkpt lat="10.179313" lon="-67.995901">
        <ele>466.00</ele>
        <time>2022-10-26T13:35:30Z</time>
      </trkpt>
      <trkpt lat="10.179312" lon="-67.995914">
        <ele>466.00</ele>
        <time>2022-10-26T13:35:31Z</time>
      </trkpt>
      <trkpt lat="10.179309" lon="-67.995941">
        <ele>466.10</ele>
        <time>2022-10-26T13:35:32Z</time>
      </trkpt>
      <trkpt lat="10.179305" lon="-67.995971">
        <ele>466.10</ele>
        <time>2022-10-26T13:35:33Z</time>
      </trkpt>
      <trkpt lat="10.179300" lon="-67.996004">
        <ele>466.20</ele>
        <time>2022-10-26T13:35:34Z</time>
      </trkpt>
      <trkpt lat="10.179297" lon="-67.996039">
        <ele>466.20</ele>
        <time>2022-10-26T13:35:35Z</time>
      </trkpt>
      <trkpt lat="10.179298" lon="-67.996053">
        <ele>466.30</ele>
        <time>2022-10-26T13:35:36Z</time>
      </trkpt>
      <trkpt lat="10.179294" lon="-67.996095">
        <ele>466.40</ele>
        <time>2022-10-26T13:35:38Z</time>
      </trkpt>
      <trkpt lat="10.179285" lon="-67.996144">
        <ele>466.40</ele>
        <time>2022-10-26T13:35:39Z</time>
      </trkpt>
      <trkpt lat="10.179283" lon="-67.996190">
        <ele>466.50</ele>
        <time>2022-10-26T13:35:40Z</time>
      </trkpt>
      <trkpt lat="10.179288" lon="-67.996233">
        <ele>466.60</ele>
        <time>2022-10-26T13:35:41Z</time>
      </trkpt>
      <trkpt lat="10.179298" lon="-67.996285">
        <ele>466.60</ele>
        <time>2022-10-26T13:35:43Z</time>
      </trkpt>
      <trkpt lat="10.179304" lon="-67.996382">
        <ele>466.80</ele>
        <time>2022-10-26T13:35:44Z</time>
      </trkpt>
      <trkpt lat="10.179228" lon="-67.996913">
        <ele>467.30</ele>
        <time>2022-10-26T13:35:45Z</time>
      </trkpt>
      <trkpt lat="10.179219" lon="-67.997030">
        <ele>467.50</ele>
        <time>2022-10-26T13:35:46Z</time>
      </trkpt>
      <trkpt lat="10.179210" lon="-67.997146">
        <ele>467.60</ele>
        <time>2022-10-26T13:35:47Z</time>
      </trkpt>
      <trkpt lat="10.179211" lon="-67.997255">
        <ele>467.70</ele>
        <time>2022-10-26T13:35:48Z</time>
      </trkpt>
      <trkpt lat="10.179216" lon="-67.997335">
        <ele>467.60</ele>
        <time>2022-10-26T13:35:49Z</time>
      </trkpt>
      <trkpt lat="10.179212" lon="-67.997414">
        <ele>467.60</ele>
        <time>2022-10-26T13:35:50Z</time>
      </trkpt>
      <trkpt lat="10.179200" lon="-67.997494">
        <ele>467.60</ele>
        <time>2022-10-26T13:35:51Z</time>
      </trkpt>
      <trkpt lat="10.179198" lon="-67.997565">
        <ele>467.60</ele>
        <time>2022-10-26T13:35:52Z</time>
      </trkpt>
      <trkpt lat="10.179189" lon="-67.997625">
        <ele>467.70</ele>
        <time>2022-10-26T13:35:53Z</time>
      </trkpt>
      <trkpt lat="10.179203" lon="-67.997659">
        <ele>467.80</ele>
        <time>2022-10-26T13:35:54Z</time>
      </trkpt>
      <trkpt lat="10.179214" lon="-67.997704">
        <ele>467.80</ele>
        <time>2022-10-26T13:35:55Z</time>
      </trkpt>
      <trkpt lat="10.179220" lon="-67.997754">
        <ele>467.90</ele>
        <time>2022-10-26T13:35:56Z</time>
      </trkpt>
      <trkpt lat="10.179225" lon="-67.997804">
        <ele>467.80</ele>
        <time>2022-10-26T13:35:57Z</time>
      </trkpt>
      <trkpt lat="10.179218" lon="-67.997860">
        <ele>467.70</ele>
        <time>2022-10-26T13:35:58Z</time>
      </trkpt>
      <trkpt lat="10.179206" lon="-67.997920">
        <ele>467.70</ele>
        <time>2022-10-26T13:35:59Z</time>
      </trkpt>
      <trkpt lat="10.179198" lon="-67.997977">
        <ele>467.60</ele>
        <time>2022-10-26T13:36:00Z</time>
      </trkpt>
      <trkpt lat="10.179192" lon="-67.998035">
        <ele>467.60</ele>
        <time>2022-10-26T13:36:01Z</time>
      </trkpt>
      <trkpt lat="10.179195" lon="-67.998087">
        <ele>467.50</ele>
        <time>2022-10-26T13:36:02Z</time>
      </trkpt>
      <trkpt lat="10.179184" lon="-67.998131">
        <ele>467.50</ele>
        <time>2022-10-26T13:36:03Z</time>
      </trkpt>
      <trkpt lat="10.179169" lon="-67.998175">
        <ele>467.40</ele>
        <time>2022-10-26T13:36:04Z</time>
      </trkpt>
      <trkpt lat="10.179164" lon="-67.998224">
        <ele>467.30</ele>
        <time>2022-10-26T13:36:05Z</time>
      </trkpt>
      <trkpt lat="10.179154" lon="-67.998271">
        <ele>467.20</ele>
        <time>2022-10-26T13:36:06Z</time>
      </trkpt>
      <trkpt lat="10.179149" lon="-67.998310">
        <ele>467.10</ele>
        <time>2022-10-26T13:36:07Z</time>
      </trkpt>
      <trkpt lat="10.179144" lon="-67.998353">
        <ele>467.00</ele>
        <time>2022-10-26T13:36:08Z</time>
      </trkpt>
      <trkpt lat="10.179146" lon="-67.998394">
        <ele>466.90</ele>
        <time>2022-10-26T13:36:09Z</time>
      </trkpt>
      <trkpt lat="10.179153" lon="-67.998446">
        <ele>466.80</ele>
        <time>2022-10-26T13:36:10Z</time>
      </trkpt>
      <trkpt lat="10.179171" lon="-67.998490">
        <ele>466.60</ele>
        <time>2022-10-26T13:36:11Z</time>
      </trkpt>
      <trkpt lat="10.179202" lon="-67.998525">
        <ele>466.40</ele>
        <time>2022-10-26T13:36:12Z</time>
      </trkpt>
      <trkpt lat="10.179238" lon="-67.998549">
        <ele>466.30</ele>
        <time>2022-10-26T13:36:13Z</time>
      </trkpt>
      <trkpt lat="10.179277" lon="-67.998562">
        <ele>466.30</ele>
        <time>2022-10-26T13:36:14Z</time>
      </trkpt>
      <trkpt lat="10.179317" lon="-67.998556">
        <ele>466.30</ele>
        <time>2022-10-26T13:36:15Z</time>
      </trkpt>
      <trkpt lat="10.179348" lon="-67.998570">
        <ele>466.30</ele>
        <time>2022-10-26T13:36:16Z</time>
      </trkpt>
      <trkpt lat="10.179358" lon="-67.998576">
        <ele>466.30</ele>
        <time>2022-10-26T13:36:17Z</time>
      </trkpt>
      <trkpt lat="10.179393" lon="-67.998577">
        <ele>466.20</ele>
        <time>2022-10-26T13:36:19Z</time>
      </trkpt>
      <trkpt lat="10.179401" lon="-67.998569">
        <ele>466.20</ele>
        <time>2022-10-26T13:36:20Z</time>
      </trkpt>
      <trkpt lat="10.179404" lon="-67.998559">
        <ele>466.20</ele>
        <time>2022-10-26T13:36:21Z</time>
      </trkpt>
      <trkpt lat="10.179408" lon="-67.998556">
        <ele>466.20</ele>
        <time>2022-10-26T13:36:22Z</time>
      </trkpt>
      <trkpt lat="10.179413" lon="-67.998554">
        <ele>466.20</ele>
        <time>2022-10-26T13:36:23Z</time>
      </trkpt>
      <trkpt lat="10.179448" lon="-67.998542">
        <ele>466.10</ele>
        <time>2022-10-26T13:36:24Z</time>
      </trkpt>
      <trkpt lat="10.179459" lon="-67.998539">
        <ele>466.10</ele>
        <time>2022-10-26T13:36:25Z</time>
      </trkpt>
      <trkpt lat="10.179491" lon="-67.998524">
        <ele>466.10</ele>
        <time>2022-10-26T13:36:26Z</time>
      </trkpt>
      <trkpt lat="10.179514" lon="-67.998509">
        <ele>466.10</ele>
        <time>2022-10-26T13:36:27Z</time>
      </trkpt>
      <trkpt lat="10.179535" lon="-67.998483">
        <ele>466.00</ele>
        <time>2022-10-26T13:36:28Z</time>
      </trkpt>
      <trkpt lat="10.179552" lon="-67.998462">
        <ele>466.00</ele>
        <time>2022-10-26T13:36:29Z</time>
      </trkpt>
      <trkpt lat="10.179575" lon="-67.998439">
        <ele>466.00</ele>
        <time>2022-10-26T13:36:31Z</time>
      </trkpt>
      <trkpt lat="10.179602" lon="-67.998425">
        <ele>465.90</ele>
        <time>2022-10-26T13:36:32Z</time>
      </trkpt>
      <trkpt lat="10.179611" lon="-67.998423">
        <ele>465.90</ele>
        <time>2022-10-26T13:36:33Z</time>
      </trkpt>
      <trkpt lat="10.179649" lon="-67.998408">
        <ele>465.70</ele>
        <time>2022-10-26T13:36:35Z</time>
      </trkpt>
      <trkpt lat="10.179657" lon="-67.998402">
        <ele>465.70</ele>
        <time>2022-10-26T13:36:36Z</time>
      </trkpt>
      <trkpt lat="10.179674" lon="-67.998392">
        <ele>465.60</ele>
        <time>2022-10-26T13:36:37Z</time>
      </trkpt>
      <trkpt lat="10.179698" lon="-67.998379">
        <ele>465.50</ele>
        <time>2022-10-26T13:36:38Z</time>
      </trkpt>
      <trkpt lat="10.179706" lon="-67.998375">
        <ele>465.50</ele>
        <time>2022-10-26T13:36:39Z</time>
      </trkpt>
      <trkpt lat="10.179734" lon="-67.998359">
        <ele>465.40</ele>
        <time>2022-10-26T13:36:40Z</time>
      </trkpt>
      <trkpt lat="10.179745" lon="-67.998353">
        <ele>465.40</ele>
        <time>2022-10-26T13:36:41Z</time>
      </trkpt>
      <trkpt lat="10.179784" lon="-67.998336">
        <ele>465.20</ele>
        <time>2022-10-26T13:36:42Z</time>
      </trkpt>
      <trkpt lat="10.179803" lon="-67.998328">
        <ele>465.20</ele>
        <time>2022-10-26T13:36:43Z</time>
      </trkpt>
      <trkpt lat="10.179828" lon="-67.998317">
        <ele>465.10</ele>
        <time>2022-10-26T13:36:44Z</time>
      </trkpt>
      <trkpt lat="10.179884" lon="-67.998292">
        <ele>464.90</ele>
        <time>2022-10-26T13:36:45Z</time>
      </trkpt>
      <trkpt lat="10.179895" lon="-67.998288">
        <ele>464.80</ele>
        <time>2022-10-26T13:36:46Z</time>
      </trkpt>
      <trkpt lat="10.179917" lon="-67.998279">
        <ele>464.70</ele>
        <time>2022-10-26T13:36:47Z</time>
      </trkpt>
      <trkpt lat="10.179962" lon="-67.998260">
        <ele>464.50</ele>
        <time>2022-10-26T13:36:48Z</time>
      </trkpt>
      <trkpt lat="10.180007" lon="-67.998239">
        <ele>464.40</ele>
        <time>2022-10-26T13:36:50Z</time>
      </trkpt>
      <trkpt lat="10.180294" lon="-67.998116">
        <ele>463.70</ele>
        <time>2022-10-26T13:36:51Z</time>
      </trkpt>
      <trkpt lat="10.180389" lon="-67.998076">
        <ele>463.90</ele>
        <time>2022-10-26T13:36:52Z</time>
      </trkpt>
      <trkpt lat="10.180529" lon="-67.998026">
        <ele>464.20</ele>
        <time>2022-10-26T13:36:53Z</time>
      </trkpt>
      <trkpt lat="10.180727" lon="-67.997967">
        <ele>464.70</ele>
        <time>2022-10-26T13:36:55Z</time>
      </trkpt>
      <trkpt lat="10.180767" lon="-67.997943">
        <ele>464.80</ele>
        <time>2022-10-26T13:36:56Z</time>
      </trkpt>
      <trkpt lat="10.180802" lon="-67.997927">
        <ele>464.90</ele>
        <time>2022-10-26T13:36:57Z</time>
      </trkpt>
      <trkpt lat="10.180852" lon="-67.997918">
        <ele>465.10</ele>
        <time>2022-10-26T13:36:58Z</time>
      </trkpt>
      <trkpt lat="10.180898" lon="-67.997914">
        <ele>465.20</ele>
        <time>2022-10-26T13:36:59Z</time>
      </trkpt>
      <trkpt lat="10.180932" lon="-67.997913">
        <ele>465.30</ele>
        <time>2022-10-26T13:37:00Z</time>
      </trkpt>
      <trkpt lat="10.180977" lon="-67.997887">
        <ele>465.40</ele>
        <time>2022-10-26T13:37:01Z</time>
      </trkpt>
      <trkpt lat="10.181025" lon="-67.997872">
        <ele>465.50</ele>
        <time>2022-10-26T13:37:02Z</time>
      </trkpt>
      <trkpt lat="10.181070" lon="-67.997866">
        <ele>465.60</ele>
        <time>2022-10-26T13:37:04Z</time>
      </trkpt>
      <trkpt lat="10.181093" lon="-67.997851">
        <ele>465.70</ele>
        <time>2022-10-26T13:37:05Z</time>
      </trkpt>
      <trkpt lat="10.181103" lon="-67.997837">
        <ele>465.70</ele>
        <time>2022-10-26T13:37:06Z</time>
      </trkpt>
      <trkpt lat="10.181111" lon="-67.997828">
        <ele>465.70</ele>
        <time>2022-10-26T13:37:07Z</time>
      </trkpt>
      <trkpt lat="10.181122" lon="-67.997790">
        <ele>465.80</ele>
        <time>2022-10-26T13:37:09Z</time>
      </trkpt>
      <trkpt lat="10.181123" lon="-67.997777">
        <ele>465.80</ele>
        <time>2022-10-26T13:37:10Z</time>
      </trkpt>
      <trkpt lat="10.181128" lon="-67.997757">
        <ele>465.90</ele>
        <time>2022-10-26T13:37:11Z</time>
      </trkpt>
      <trkpt lat="10.181131" lon="-67.997748">
        <ele>465.90</ele>
        <time>2022-10-26T13:37:12Z</time>
      </trkpt>
      <trkpt lat="10.181135" lon="-67.997738">
        <ele>465.90</ele>
        <time>2022-10-26T13:37:13Z</time>
      </trkpt>
      <trkpt lat="10.181139" lon="-67.997724">
        <ele>465.90</ele>
        <time>2022-10-26T13:37:14Z</time>
      </trkpt>
      <trkpt lat="10.181146" lon="-67.997712">
        <ele>465.90</ele>
        <time>2022-10-26T13:37:15Z</time>
      </trkpt>
      <trkpt lat="10.181161" lon="-67.997698">
        <ele>466.00</ele>
        <time>2022-10-26T13:37:16Z</time>
      </trkpt>
      <trkpt lat="10.181167" lon="-67.997690">
        <ele>466.00</ele>
        <time>2022-10-26T13:37:17Z</time>
      </trkpt>
      <trkpt lat="10.181174" lon="-67.997683">
        <ele>466.00</ele>
        <time>2022-10-26T13:37:18Z</time>
      </trkpt>
      <trkpt lat="10.181196" lon="-67.997665">
        <ele>466.10</ele>
        <time>2022-10-26T13:37:19Z</time>
      </trkpt>
      <trkpt lat="10.181248" lon="-67.997628">
        <ele>466.10</ele>
        <time>2022-10-26T13:37:20Z</time>
      </trkpt>
      <trkpt lat="10.181296" lon="-67.997602">
        <ele>466.20</ele>
        <time>2022-10-26T13:37:21Z</time>
      </trkpt>
      <trkpt lat="10.181325" lon="-67.997587">
        <ele>466.20</ele>
        <time>2022-10-26T13:37:22Z</time>
      </trkpt>
      <trkpt lat="10.181381" lon="-67.997559">
        <ele>466.20</ele>
        <time>2022-10-26T13:37:23Z</time>
      </trkpt>
      <trkpt lat="10.181455" lon="-67.997533">
        <ele>466.30</ele>
        <time>2022-10-26T13:37:24Z</time>
      </trkpt>
      <trkpt lat="10.181520" lon="-67.997511">
        <ele>466.30</ele>
        <time>2022-10-26T13:37:25Z</time>
      </trkpt>
      <trkpt lat="10.181562" lon="-67.997493">
        <ele>466.30</ele>
        <time>2022-10-26T13:37:26Z</time>
      </trkpt>
      <trkpt lat="10.181602" lon="-67.997475">
        <ele>466.40</ele>
        <time>2022-10-26T13:37:27Z</time>
      </trkpt>
      <trkpt lat="10.181642" lon="-67.997457">
        <ele>466.40</ele>
        <time>2022-10-26T13:37:28Z</time>
      </trkpt>
      <trkpt lat="10.181679" lon="-67.997442">
        <ele>466.40</ele>
        <time>2022-10-26T13:37:29Z</time>
      </trkpt>
      <trkpt lat="10.181715" lon="-67.997429">
        <ele>466.50</ele>
        <time>2022-10-26T13:37:30Z</time>
      </trkpt>
      <trkpt lat="10.181743" lon="-67.997420">
        <ele>466.50</ele>
        <time>2022-10-26T13:37:31Z</time>
      </trkpt>
      <trkpt lat="10.181776" lon="-67.997411">
        <ele>466.50</ele>
        <time>2022-10-26T13:37:32Z</time>
      </trkpt>
      <trkpt lat="10.181811" lon="-67.997400">
        <ele>466.50</ele>
        <time>2022-10-26T13:37:33Z</time>
      </trkpt>
      <trkpt lat="10.181963" lon="-67.997316">
        <ele>466.60</ele>
        <time>2022-10-26T13:37:34Z</time>
      </trkpt>
      <trkpt lat="10.181981" lon="-67.997308">
        <ele>466.70</ele>
        <time>2022-10-26T13:37:35Z</time>
      </trkpt>
      <trkpt lat="10.182034" lon="-67.997272">
        <ele>466.70</ele>
        <time>2022-10-26T13:37:36Z</time>
      </trkpt>
      <trkpt lat="10.182092" lon="-67.997234">
        <ele>466.70</ele>
        <time>2022-10-26T13:37:37Z</time>
      </trkpt>
      <trkpt lat="10.182127" lon="-67.997217">
        <ele>466.80</ele>
        <time>2022-10-26T13:37:38Z</time>
      </trkpt>
      <trkpt lat="10.182152" lon="-67.997188">
        <ele>466.80</ele>
        <time>2022-10-26T13:37:39Z</time>
      </trkpt>
      <trkpt lat="10.182252" lon="-67.997126">
        <ele>466.80</ele>
        <time>2022-10-26T13:37:41Z</time>
      </trkpt>
      <trkpt lat="10.182275" lon="-67.997109">
        <ele>466.80</ele>
        <time>2022-10-26T13:37:42Z</time>
      </trkpt>
      <trkpt lat="10.182303" lon="-67.997099">
        <ele>466.80</ele>
        <time>2022-10-26T13:37:43Z</time>
      </trkpt>
      <trkpt lat="10.182330" lon="-67.997090">
        <ele>466.80</ele>
        <time>2022-10-26T13:37:44Z</time>
      </trkpt>
      <trkpt lat="10.182360" lon="-67.997082">
        <ele>466.90</ele>
        <time>2022-10-26T13:37:45Z</time>
      </trkpt>
      <trkpt lat="10.182507" lon="-67.997055">
        <ele>466.90</ele>
        <time>2022-10-26T13:37:47Z</time>
      </trkpt>
      <trkpt lat="10.182600" lon="-67.997045">
        <ele>466.90</ele>
        <time>2022-10-26T13:37:48Z</time>
      </trkpt>
      <trkpt lat="10.182693" lon="-67.997050">
        <ele>467.00</ele>
        <time>2022-10-26T13:37:49Z</time>
      </trkpt>
      <trkpt lat="10.182765" lon="-67.997055">
        <ele>467.00</ele>
        <time>2022-10-26T13:37:50Z</time>
      </trkpt>
      <trkpt lat="10.182836" lon="-67.997044">
        <ele>467.00</ele>
        <time>2022-10-26T13:37:51Z</time>
      </trkpt>
      <trkpt lat="10.182892" lon="-67.997042">
        <ele>467.10</ele>
        <time>2022-10-26T13:37:52Z</time>
      </trkpt>
      <trkpt lat="10.182964" lon="-67.997045">
        <ele>467.10</ele>
        <time>2022-10-26T13:37:53Z</time>
      </trkpt>
      <trkpt lat="10.183026" lon="-67.997045">
        <ele>467.20</ele>
        <time>2022-10-26T13:37:54Z</time>
      </trkpt>
      <trkpt lat="10.183107" lon="-67.997045">
        <ele>467.20</ele>
        <time>2022-10-26T13:37:55Z</time>
      </trkpt>
      <trkpt lat="10.183159" lon="-67.997046">
        <ele>467.20</ele>
        <time>2022-10-26T13:37:56Z</time>
      </trkpt>
      <trkpt lat="10.183236" lon="-67.997071">
        <ele>467.30</ele>
        <time>2022-10-26T13:37:58Z</time>
      </trkpt>
      <trkpt lat="10.183298" lon="-67.997085">
        <ele>467.20</ele>
        <time>2022-10-26T13:37:59Z</time>
      </trkpt>
      <trkpt lat="10.183358" lon="-67.997102">
        <ele>467.20</ele>
        <time>2022-10-26T13:38:01Z</time>
      </trkpt>
      <trkpt lat="10.183402" lon="-67.997115">
        <ele>467.20</ele>
        <time>2022-10-26T13:38:02Z</time>
      </trkpt>
      <trkpt lat="10.183493" lon="-67.997138">
        <ele>467.10</ele>
        <time>2022-10-26T13:38:03Z</time>
      </trkpt>
      <trkpt lat="10.183554" lon="-67.997145">
        <ele>467.10</ele>
        <time>2022-10-26T13:38:04Z</time>
      </trkpt>
      <trkpt lat="10.183607" lon="-67.997147">
        <ele>467.10</ele>
        <time>2022-10-26T13:38:05Z</time>
      </trkpt>
      <trkpt lat="10.183662" lon="-67.997149">
        <ele>467.10</ele>
        <time>2022-10-26T13:38:06Z</time>
      </trkpt>
      <trkpt lat="10.183711" lon="-67.997165">
        <ele>467.10</ele>
        <time>2022-10-26T13:38:07Z</time>
      </trkpt>
      <trkpt lat="10.183763" lon="-67.997187">
        <ele>467.10</ele>
        <time>2022-10-26T13:38:08Z</time>
      </trkpt>
      <trkpt lat="10.183821" lon="-67.997204">
        <ele>467.10</ele>
        <time>2022-10-26T13:38:09Z</time>
      </trkpt>
      <trkpt lat="10.183879" lon="-67.997213">
        <ele>467.10</ele>
        <time>2022-10-26T13:38:10Z</time>
      </trkpt>
      <trkpt lat="10.183941" lon="-67.997219">
        <ele>467.20</ele>
        <time>2022-10-26T13:38:11Z</time>
      </trkpt>
      <trkpt lat="10.183999" lon="-67.997222">
        <ele>467.20</ele>
        <time>2022-10-26T13:38:12Z</time>
      </trkpt>
      <trkpt lat="10.184057" lon="-67.997229">
        <ele>467.20</ele>
        <time>2022-10-26T13:38:13Z</time>
      </trkpt>
      <trkpt lat="10.184116" lon="-67.997242">
        <ele>467.20</ele>
        <time>2022-10-26T13:38:14Z</time>
      </trkpt>
      <trkpt lat="10.184168" lon="-67.997253">
        <ele>467.20</ele>
        <time>2022-10-26T13:38:15Z</time>
      </trkpt>
      <trkpt lat="10.184219" lon="-67.997261">
        <ele>467.30</ele>
        <time>2022-10-26T13:38:16Z</time>
      </trkpt>
      <trkpt lat="10.184267" lon="-67.997273">
        <ele>467.30</ele>
        <time>2022-10-26T13:38:17Z</time>
      </trkpt>
      <trkpt lat="10.184318" lon="-67.997281">
        <ele>467.30</ele>
        <time>2022-10-26T13:38:18Z</time>
      </trkpt>
      <trkpt lat="10.184379" lon="-67.997272">
        <ele>467.30</ele>
        <time>2022-10-26T13:38:19Z</time>
      </trkpt>
      <trkpt lat="10.184441" lon="-67.997255">
        <ele>467.30</ele>
        <time>2022-10-26T13:38:20Z</time>
      </trkpt>
      <trkpt lat="10.184494" lon="-67.997245">
        <ele>467.30</ele>
        <time>2022-10-26T13:38:21Z</time>
      </trkpt>
      <trkpt lat="10.184546" lon="-67.997236">
        <ele>467.40</ele>
        <time>2022-10-26T13:38:22Z</time>
      </trkpt>
      <trkpt lat="10.184603" lon="-67.997239">
        <ele>467.40</ele>
        <time>2022-10-26T13:38:23Z</time>
      </trkpt>
      <trkpt lat="10.184660" lon="-67.997245">
        <ele>467.40</ele>
        <time>2022-10-26T13:38:24Z</time>
      </trkpt>
      <trkpt lat="10.184721" lon="-67.997249">
        <ele>467.40</ele>
        <time>2022-10-26T13:38:25Z</time>
      </trkpt>
      <trkpt lat="10.184773" lon="-67.997245">
        <ele>467.40</ele>
        <time>2022-10-26T13:38:26Z</time>
      </trkpt>
      <trkpt lat="10.184810" lon="-67.997251">
        <ele>467.50</ele>
        <time>2022-10-26T13:38:27Z</time>
      </trkpt>
      <trkpt lat="10.184839" lon="-67.997259">
        <ele>467.50</ele>
        <time>2022-10-26T13:38:28Z</time>
      </trkpt>
      <trkpt lat="10.184875" lon="-67.997266">
        <ele>467.50</ele>
        <time>2022-10-26T13:38:29Z</time>
      </trkpt>
      <trkpt lat="10.184922" lon="-67.997279">
        <ele>467.50</ele>
        <time>2022-10-26T13:38:30Z</time>
      </trkpt>
      <trkpt lat="10.184961" lon="-67.997290">
        <ele>467.50</ele>
        <time>2022-10-26T13:38:31Z</time>
      </trkpt>
      <trkpt lat="10.185002" lon="-67.997290">
        <ele>467.50</ele>
        <time>2022-10-26T13:38:32Z</time>
      </trkpt>
      <trkpt lat="10.185046" lon="-67.997280">
        <ele>467.60</ele>
        <time>2022-10-26T13:38:33Z</time>
      </trkpt>
      <trkpt lat="10.185076" lon="-67.997261">
        <ele>467.60</ele>
        <time>2022-10-26T13:38:34Z</time>
      </trkpt>
      <trkpt lat="10.185097" lon="-67.997219">
        <ele>467.60</ele>
        <time>2022-10-26T13:38:35Z</time>
      </trkpt>
      <trkpt lat="10.185138" lon="-67.997172">
        <ele>467.60</ele>
        <time>2022-10-26T13:38:36Z</time>
      </trkpt>
      <trkpt lat="10.185211" lon="-67.997179">
        <ele>467.70</ele>
        <time>2022-10-26T13:38:38Z</time>
      </trkpt>
      <trkpt lat="10.185276" lon="-67.997179">
        <ele>467.70</ele>
        <time>2022-10-26T13:38:39Z</time>
      </trkpt>
      <trkpt lat="10.185328" lon="-67.997182">
        <ele>467.70</ele>
        <time>2022-10-26T13:38:40Z</time>
      </trkpt>
      <trkpt lat="10.185388" lon="-67.997206">
        <ele>467.70</ele>
        <time>2022-10-26T13:38:41Z</time>
      </trkpt>
      <trkpt lat="10.185443" lon="-67.997232">
        <ele>467.70</ele>
        <time>2022-10-26T13:38:42Z</time>
      </trkpt>
      <trkpt lat="10.185499" lon="-67.997257">
        <ele>467.80</ele>
        <time>2022-10-26T13:38:43Z</time>
      </trkpt>
      <trkpt lat="10.185558" lon="-67.997279">
        <ele>467.80</ele>
        <time>2022-10-26T13:38:44Z</time>
      </trkpt>
      <trkpt lat="10.185615" lon="-67.997298">
        <ele>467.80</ele>
        <time>2022-10-26T13:38:45Z</time>
      </trkpt>
      <trkpt lat="10.185671" lon="-67.997322">
        <ele>467.80</ele>
        <time>2022-10-26T13:38:46Z</time>
      </trkpt>
      <trkpt lat="10.185727" lon="-67.997346">
        <ele>467.90</ele>
        <time>2022-10-26T13:38:47Z</time>
      </trkpt>
      <trkpt lat="10.185788" lon="-67.997367">
        <ele>467.90</ele>
        <time>2022-10-26T13:38:48Z</time>
      </trkpt>
      <trkpt lat="10.185838" lon="-67.997372">
        <ele>467.90</ele>
        <time>2022-10-26T13:38:49Z</time>
      </trkpt>
      <trkpt lat="10.185879" lon="-67.997375">
        <ele>467.90</ele>
        <time>2022-10-26T13:38:50Z</time>
      </trkpt>
      <trkpt lat="10.185922" lon="-67.997380">
        <ele>468.00</ele>
        <time>2022-10-26T13:38:51Z</time>
      </trkpt>
      <trkpt lat="10.185962" lon="-67.997392">
        <ele>468.00</ele>
        <time>2022-10-26T13:38:52Z</time>
      </trkpt>
      <trkpt lat="10.186011" lon="-67.997401">
        <ele>468.10</ele>
        <time>2022-10-26T13:38:53Z</time>
      </trkpt>
      <trkpt lat="10.186035" lon="-67.997409">
        <ele>468.10</ele>
        <time>2022-10-26T13:38:54Z</time>
      </trkpt>
      <trkpt lat="10.186094" lon="-67.997421">
        <ele>468.10</ele>
        <time>2022-10-26T13:38:55Z</time>
      </trkpt>
      <trkpt lat="10.186148" lon="-67.997430">
        <ele>468.20</ele>
        <time>2022-10-26T13:38:56Z</time>
      </trkpt>
      <trkpt lat="10.186198" lon="-67.997444">
        <ele>468.20</ele>
        <time>2022-10-26T13:38:57Z</time>
      </trkpt>
      <trkpt lat="10.186246" lon="-67.997463">
        <ele>468.20</ele>
        <time>2022-10-26T13:38:58Z</time>
      </trkpt>
      <trkpt lat="10.186290" lon="-67.997487">
        <ele>468.30</ele>
        <time>2022-10-26T13:38:59Z</time>
      </trkpt>
      <trkpt lat="10.186335" lon="-67.997504">
        <ele>468.30</ele>
        <time>2022-10-26T13:39:00Z</time>
      </trkpt>
      <trkpt lat="10.186390" lon="-67.997522">
        <ele>468.30</ele>
        <time>2022-10-26T13:39:01Z</time>
      </trkpt>
      <trkpt lat="10.186431" lon="-67.997535">
        <ele>468.30</ele>
        <time>2022-10-26T13:39:02Z</time>
      </trkpt>
      <trkpt lat="10.186478" lon="-67.997550">
        <ele>468.40</ele>
        <time>2022-10-26T13:39:03Z</time>
      </trkpt>
      <trkpt lat="10.186527" lon="-67.997563">
        <ele>468.40</ele>
        <time>2022-10-26T13:39:04Z</time>
      </trkpt>
      <trkpt lat="10.186579" lon="-67.997576">
        <ele>468.40</ele>
        <time>2022-10-26T13:39:05Z</time>
      </trkpt>
      <trkpt lat="10.186627" lon="-67.997588">
        <ele>468.40</ele>
        <time>2022-10-26T13:39:06Z</time>
      </trkpt>
      <trkpt lat="10.186677" lon="-67.997601">
        <ele>468.50</ele>
        <time>2022-10-26T13:39:07Z</time>
      </trkpt>
      <trkpt lat="10.186722" lon="-67.997610">
        <ele>468.50</ele>
        <time>2022-10-26T13:39:08Z</time>
      </trkpt>
      <trkpt lat="10.186769" lon="-67.997618">
        <ele>468.50</ele>
        <time>2022-10-26T13:39:09Z</time>
      </trkpt>
      <trkpt lat="10.186817" lon="-67.997626">
        <ele>468.50</ele>
        <time>2022-10-26T13:39:10Z</time>
      </trkpt>
      <trkpt lat="10.186858" lon="-67.997636">
        <ele>468.50</ele>
        <time>2022-10-26T13:39:11Z</time>
      </trkpt>
      <trkpt lat="10.186883" lon="-67.997648">
        <ele>468.50</ele>
        <time>2022-10-26T13:39:12Z</time>
      </trkpt>
      <trkpt lat="10.186922" lon="-67.997660">
        <ele>468.50</ele>
        <time>2022-10-26T13:39:13Z</time>
      </trkpt>
      <trkpt lat="10.186972" lon="-67.997664">
        <ele>468.50</ele>
        <time>2022-10-26T13:39:14Z</time>
      </trkpt>
      <trkpt lat="10.187026" lon="-67.997680">
        <ele>468.50</ele>
        <time>2022-10-26T13:39:15Z</time>
      </trkpt>
      <trkpt lat="10.187073" lon="-67.997697">
        <ele>468.50</ele>
        <time>2022-10-26T13:39:16Z</time>
      </trkpt>
      <trkpt lat="10.187119" lon="-67.997713">
        <ele>468.50</ele>
        <time>2022-10-26T13:39:17Z</time>
      </trkpt>
      <trkpt lat="10.187164" lon="-67.997728">
        <ele>468.60</ele>
        <time>2022-10-26T13:39:18Z</time>
      </trkpt>
      <trkpt lat="10.187211" lon="-67.997748">
        <ele>468.50</ele>
        <time>2022-10-26T13:39:19Z</time>
      </trkpt>
      <trkpt lat="10.187257" lon="-67.997767">
        <ele>468.50</ele>
        <time>2022-10-26T13:39:20Z</time>
      </trkpt>
      <trkpt lat="10.187301" lon="-67.997798">
        <ele>468.50</ele>
        <time>2022-10-26T13:39:21Z</time>
      </trkpt>
      <trkpt lat="10.187354" lon="-67.997872">
        <ele>468.50</ele>
        <time>2022-10-26T13:39:22Z</time>
      </trkpt>
      <trkpt lat="10.187400" lon="-67.997914">
        <ele>468.40</ele>
        <time>2022-10-26T13:39:23Z</time>
      </trkpt>
      <trkpt lat="10.187464" lon="-67.997947">
        <ele>468.40</ele>
        <time>2022-10-26T13:39:24Z</time>
      </trkpt>
      <trkpt lat="10.187535" lon="-67.997966">
        <ele>468.40</ele>
        <time>2022-10-26T13:39:25Z</time>
      </trkpt>
      <trkpt lat="10.187598" lon="-67.997972">
        <ele>468.40</ele>
        <time>2022-10-26T13:39:26Z</time>
      </trkpt>
      <trkpt lat="10.187653" lon="-67.997977">
        <ele>468.40</ele>
        <time>2022-10-26T13:39:27Z</time>
      </trkpt>
      <trkpt lat="10.187705" lon="-67.997985">
        <ele>468.40</ele>
        <time>2022-10-26T13:39:28Z</time>
      </trkpt>
      <trkpt lat="10.187749" lon="-67.998007">
        <ele>468.40</ele>
        <time>2022-10-26T13:39:29Z</time>
      </trkpt>
      <trkpt lat="10.187787" lon="-67.998028">
        <ele>468.40</ele>
        <time>2022-10-26T13:39:30Z</time>
      </trkpt>
      <trkpt lat="10.187825" lon="-67.998049">
        <ele>468.40</ele>
        <time>2022-10-26T13:39:31Z</time>
      </trkpt>
      <trkpt lat="10.187864" lon="-67.998070">
        <ele>468.40</ele>
        <time>2022-10-26T13:39:32Z</time>
      </trkpt>
      <trkpt lat="10.187905" lon="-67.998092">
        <ele>468.50</ele>
        <time>2022-10-26T13:39:33Z</time>
      </trkpt>
      <trkpt lat="10.187947" lon="-67.998095">
        <ele>468.50</ele>
        <time>2022-10-26T13:39:34Z</time>
      </trkpt>
      <trkpt lat="10.187985" lon="-67.998089">
        <ele>468.50</ele>
        <time>2022-10-26T13:39:35Z</time>
      </trkpt>
      <trkpt lat="10.188004" lon="-67.998062">
        <ele>468.50</ele>
        <time>2022-10-26T13:39:36Z</time>
      </trkpt>
      <trkpt lat="10.187993" lon="-67.998025">
        <ele>468.50</ele>
        <time>2022-10-26T13:39:37Z</time>
      </trkpt>
      <trkpt lat="10.187979" lon="-67.997992">
        <ele>468.60</ele>
        <time>2022-10-26T13:39:38Z</time>
      </trkpt>
      <trkpt lat="10.187975" lon="-67.997985">
        <ele>468.60</ele>
        <time>2022-10-26T13:39:39Z</time>
      </trkpt>
      <trkpt lat="10.187993" lon="-67.997953">
        <ele>468.60</ele>
        <time>2022-10-26T13:39:40Z</time>
      </trkpt>
      <trkpt lat="10.187999" lon="-67.997945">
        <ele>468.60</ele>
        <time>2022-10-26T13:39:41Z</time>
      </trkpt>
      <trkpt lat="10.188007" lon="-67.997936">
        <ele>468.60</ele>
        <time>2022-10-26T13:39:42Z</time>
      </trkpt>
      <trkpt lat="10.188021" lon="-67.997927">
        <ele>468.60</ele>
        <time>2022-10-26T13:39:44Z</time>
      </trkpt>
      <trkpt lat="10.188034" lon="-67.997924">
        <ele>468.60</ele>
        <time>2022-10-26T13:39:45Z</time>
      </trkpt>
      <trkpt lat="10.188045" lon="-67.997922">
        <ele>468.70</ele>
        <time>2022-10-26T13:39:46Z</time>
      </trkpt>
      <trkpt lat="10.188056" lon="-67.997921">
        <ele>468.70</ele>
        <time>2022-10-26T13:39:47Z</time>
      </trkpt>
      <trkpt lat="10.188138" lon="-67.997935">
        <ele>468.70</ele>
        <time>2022-10-26T13:39:49Z</time>
      </trkpt>
      <trkpt lat="10.188211" lon="-67.997952">
        <ele>468.70</ele>
        <time>2022-10-26T13:39:50Z</time>
      </trkpt>
      <trkpt lat="10.188279" lon="-67.997976">
        <ele>468.70</ele>
        <time>2022-10-26T13:39:51Z</time>
      </trkpt>
      <trkpt lat="10.188323" lon="-67.997986">
        <ele>468.70</ele>
        <time>2022-10-26T13:39:52Z</time>
      </trkpt>
      <trkpt lat="10.188400" lon="-67.997993">
        <ele>468.70</ele>
        <time>2022-10-26T13:39:53Z</time>
      </trkpt>
      <trkpt lat="10.188498" lon="-67.998004">
        <ele>468.60</ele>
        <time>2022-10-26T13:39:54Z</time>
      </trkpt>
      <trkpt lat="10.188610" lon="-67.998026">
        <ele>468.50</ele>
        <time>2022-10-26T13:39:55Z</time>
      </trkpt>
      <trkpt lat="10.188718" lon="-67.998046">
        <ele>468.50</ele>
        <time>2022-10-26T13:39:56Z</time>
      </trkpt>
      <trkpt lat="10.188815" lon="-67.998064">
        <ele>468.40</ele>
        <time>2022-10-26T13:39:57Z</time>
      </trkpt>
      <trkpt lat="10.188890" lon="-67.998077">
        <ele>468.40</ele>
        <time>2022-10-26T13:39:58Z</time>
      </trkpt>
      <trkpt lat="10.188958" lon="-67.998079">
        <ele>468.40</ele>
        <time>2022-10-26T13:39:59Z</time>
      </trkpt>
      <trkpt lat="10.189011" lon="-67.998062">
        <ele>468.40</ele>
        <time>2022-10-26T13:40:00Z</time>
      </trkpt>
      <trkpt lat="10.189054" lon="-67.998073">
        <ele>468.40</ele>
        <time>2022-10-26T13:40:01Z</time>
      </trkpt>
      <trkpt lat="10.189105" lon="-67.998078">
        <ele>468.40</ele>
        <time>2022-10-26T13:40:02Z</time>
      </trkpt>
      <trkpt lat="10.189154" lon="-67.998090">
        <ele>468.50</ele>
        <time>2022-10-26T13:40:03Z</time>
      </trkpt>
      <trkpt lat="10.189202" lon="-67.998099">
        <ele>468.50</ele>
        <time>2022-10-26T13:40:04Z</time>
      </trkpt>
      <trkpt lat="10.189258" lon="-67.998114">
        <ele>468.50</ele>
        <time>2022-10-26T13:40:05Z</time>
      </trkpt>
      <trkpt lat="10.189317" lon="-67.998128">
        <ele>468.60</ele>
        <time>2022-10-26T13:40:06Z</time>
      </trkpt>
      <trkpt lat="10.189360" lon="-67.998129">
        <ele>468.60</ele>
        <time>2022-10-26T13:40:07Z</time>
      </trkpt>
      <trkpt lat="10.189395" lon="-67.998122">
        <ele>468.60</ele>
        <time>2022-10-26T13:40:08Z</time>
      </trkpt>
      <trkpt lat="10.189442" lon="-67.998118">
        <ele>468.60</ele>
        <time>2022-10-26T13:40:09Z</time>
      </trkpt>
      <trkpt lat="10.189490" lon="-67.998135">
        <ele>468.60</ele>
        <time>2022-10-26T13:40:10Z</time>
      </trkpt>
      <trkpt lat="10.189547" lon="-67.998145">
        <ele>468.60</ele>
        <time>2022-10-26T13:40:11Z</time>
      </trkpt>
      <trkpt lat="10.189592" lon="-67.998161">
        <ele>468.60</ele>
        <time>2022-10-26T13:40:12Z</time>
      </trkpt>
      <trkpt lat="10.189639" lon="-67.998177">
        <ele>468.60</ele>
        <time>2022-10-26T13:40:13Z</time>
      </trkpt>
      <trkpt lat="10.189686" lon="-67.998186">
        <ele>468.60</ele>
        <time>2022-10-26T13:40:14Z</time>
      </trkpt>
      <trkpt lat="10.189738" lon="-67.998205">
        <ele>468.60</ele>
        <time>2022-10-26T13:40:15Z</time>
      </trkpt>
      <trkpt lat="10.189788" lon="-67.998223">
        <ele>468.60</ele>
        <time>2022-10-26T13:40:16Z</time>
      </trkpt>
      <trkpt lat="10.189835" lon="-67.998239">
        <ele>468.60</ele>
        <time>2022-10-26T13:40:17Z</time>
      </trkpt>
      <trkpt lat="10.189883" lon="-67.998257">
        <ele>468.70</ele>
        <time>2022-10-26T13:40:18Z</time>
      </trkpt>
      <trkpt lat="10.189934" lon="-67.998265">
        <ele>468.70</ele>
        <time>2022-10-26T13:40:19Z</time>
      </trkpt>
      <trkpt lat="10.189992" lon="-67.998292">
        <ele>468.70</ele>
        <time>2022-10-26T13:40:20Z</time>
      </trkpt>
      <trkpt lat="10.190042" lon="-67.998326">
        <ele>468.70</ele>
        <time>2022-10-26T13:40:21Z</time>
      </trkpt>
      <trkpt lat="10.190084" lon="-67.998364">
        <ele>468.70</ele>
        <time>2022-10-26T13:40:22Z</time>
      </trkpt>
      <trkpt lat="10.190125" lon="-67.998408">
        <ele>468.70</ele>
        <time>2022-10-26T13:40:23Z</time>
      </trkpt>
      <trkpt lat="10.190160" lon="-67.998457">
        <ele>468.70</ele>
        <time>2022-10-26T13:40:24Z</time>
      </trkpt>
      <trkpt lat="10.190196" lon="-67.998514">
        <ele>468.80</ele>
        <time>2022-10-26T13:40:25Z</time>
      </trkpt>
      <trkpt lat="10.190226" lon="-67.998554">
        <ele>468.80</ele>
        <time>2022-10-26T13:40:26Z</time>
      </trkpt>
      <trkpt lat="10.190243" lon="-67.998590">
        <ele>468.90</ele>
        <time>2022-10-26T13:40:27Z</time>
      </trkpt>
      <trkpt lat="10.190269" lon="-67.998640">
        <ele>468.90</ele>
        <time>2022-10-26T13:40:28Z</time>
      </trkpt>
      <trkpt lat="10.190294" lon="-67.998693">
        <ele>469.00</ele>
        <time>2022-10-26T13:40:29Z</time>
      </trkpt>
      <trkpt lat="10.190319" lon="-67.998733">
        <ele>469.00</ele>
        <time>2022-10-26T13:40:30Z</time>
      </trkpt>
      <trkpt lat="10.190343" lon="-67.998771">
        <ele>469.00</ele>
        <time>2022-10-26T13:40:31Z</time>
      </trkpt>
      <trkpt lat="10.190357" lon="-67.998809">
        <ele>469.00</ele>
        <time>2022-10-26T13:40:32Z</time>
      </trkpt>
      <trkpt lat="10.190378" lon="-67.998864">
        <ele>469.10</ele>
        <time>2022-10-26T13:40:33Z</time>
      </trkpt>
      <trkpt lat="10.190395" lon="-67.998909">
        <ele>469.10</ele>
        <time>2022-10-26T13:40:34Z</time>
      </trkpt>
      <trkpt lat="10.190403" lon="-67.998951">
        <ele>469.10</ele>
        <time>2022-10-26T13:40:35Z</time>
      </trkpt>
      <trkpt lat="10.190415" lon="-67.998975">
        <ele>469.20</ele>
        <time>2022-10-26T13:40:36Z</time>
      </trkpt>
      <trkpt lat="10.190440" lon="-67.998979">
        <ele>469.20</ele>
        <time>2022-10-26T13:40:37Z</time>
      </trkpt>
      <trkpt lat="10.190454" lon="-67.998992">
        <ele>469.20</ele>
        <time>2022-10-26T13:40:38Z</time>
      </trkpt>
      <trkpt lat="10.190447" lon="-67.999089">
        <ele>469.30</ele>
        <time>2022-10-26T13:40:39Z</time>
      </trkpt>
      <trkpt lat="10.190439" lon="-67.999163">
        <ele>469.30</ele>
        <time>2022-10-26T13:40:40Z</time>
      </trkpt>
      <trkpt lat="10.190429" lon="-67.999229">
        <ele>469.40</ele>
        <time>2022-10-26T13:40:41Z</time>
      </trkpt>
      <trkpt lat="10.190428" lon="-67.999279">
        <ele>469.40</ele>
        <time>2022-10-26T13:40:42Z</time>
      </trkpt>
      <trkpt lat="10.190421" lon="-67.999318">
        <ele>469.40</ele>
        <time>2022-10-26T13:40:43Z</time>
      </trkpt>
      <trkpt lat="10.190408" lon="-67.999350">
        <ele>469.40</ele>
        <time>2022-10-26T13:40:44Z</time>
      </trkpt>
      <trkpt lat="10.190413" lon="-67.999389">
        <ele>469.50</ele>
        <time>2022-10-26T13:40:45Z</time>
      </trkpt>
      <trkpt lat="10.190417" lon="-67.999431">
        <ele>469.50</ele>
        <time>2022-10-26T13:40:46Z</time>
      </trkpt>
      <trkpt lat="10.190415" lon="-67.999466">
        <ele>469.50</ele>
        <time>2022-10-26T13:40:47Z</time>
      </trkpt>
      <trkpt lat="10.190412" lon="-67.999501">
        <ele>469.50</ele>
        <time>2022-10-26T13:40:48Z</time>
      </trkpt>
      <trkpt lat="10.190421" lon="-67.999555">
        <ele>469.60</ele>
        <time>2022-10-26T13:40:50Z</time>
      </trkpt>
      <trkpt lat="10.190421" lon="-67.999577">
        <ele>469.60</ele>
        <time>2022-10-26T13:40:51Z</time>
      </trkpt>
      <trkpt lat="10.190420" lon="-67.999600">
        <ele>469.60</ele>
        <time>2022-10-26T13:40:52Z</time>
      </trkpt>
      <trkpt lat="10.190428" lon="-67.999631">
        <ele>469.60</ele>
        <time>2022-10-26T13:40:53Z</time>
      </trkpt>
      <trkpt lat="10.190436" lon="-67.999652">
        <ele>469.60</ele>
        <time>2022-10-26T13:40:54Z</time>
      </trkpt>
      <trkpt lat="10.190446" lon="-67.999689">
        <ele>469.60</ele>
        <time>2022-10-26T13:40:56Z</time>
      </trkpt>
      <trkpt lat="10.190465" lon="-67.999743">
        <ele>469.70</ele>
        <time>2022-10-26T13:40:57Z</time>
      </trkpt>
      <trkpt lat="10.190473" lon="-67.999812">
        <ele>469.70</ele>
        <time>2022-10-26T13:40:58Z</time>
      </trkpt>
      <trkpt lat="10.190471" lon="-67.999872">
        <ele>469.60</ele>
        <time>2022-10-26T13:40:59Z</time>
      </trkpt>
      <trkpt lat="10.190470" lon="-67.999952">
        <ele>469.60</ele>
        <time>2022-10-26T13:41:00Z</time>
      </trkpt>
      <trkpt lat="10.190472" lon="-68.000017">
        <ele>469.60</ele>
        <time>2022-10-26T13:41:01Z</time>
      </trkpt>
      <trkpt lat="10.190475" lon="-68.000063">
        <ele>469.60</ele>
        <time>2022-10-26T13:41:02Z</time>
      </trkpt>
      <trkpt lat="10.190477" lon="-68.000096">
        <ele>469.60</ele>
        <time>2022-10-26T13:41:03Z</time>
      </trkpt>
      <trkpt lat="10.190486" lon="-68.000135">
        <ele>469.50</ele>
        <time>2022-10-26T13:41:04Z</time>
      </trkpt>
      <trkpt lat="10.190490" lon="-68.000148">
        <ele>469.50</ele>
        <time>2022-10-26T13:41:05Z</time>
      </trkpt>
      <trkpt lat="10.190501" lon="-68.000190">
        <ele>469.50</ele>
        <time>2022-10-26T13:41:07Z</time>
      </trkpt>
      <trkpt lat="10.190515" lon="-68.000239">
        <ele>469.50</ele>
        <time>2022-10-26T13:41:08Z</time>
      </trkpt>
      <trkpt lat="10.190532" lon="-68.000297">
        <ele>469.50</ele>
        <time>2022-10-26T13:41:09Z</time>
      </trkpt>
      <trkpt lat="10.190552" lon="-68.000355">
        <ele>469.40</ele>
        <time>2022-10-26T13:41:10Z</time>
      </trkpt>
      <trkpt lat="10.190578" lon="-68.000421">
        <ele>469.40</ele>
        <time>2022-10-26T13:41:11Z</time>
      </trkpt>
      <trkpt lat="10.190608" lon="-68.000487">
        <ele>469.40</ele>
        <time>2022-10-26T13:41:12Z</time>
      </trkpt>
      <trkpt lat="10.190643" lon="-68.000555">
        <ele>469.30</ele>
        <time>2022-10-26T13:41:13Z</time>
      </trkpt>
      <trkpt lat="10.190688" lon="-68.000623">
        <ele>469.30</ele>
        <time>2022-10-26T13:41:15Z</time>
      </trkpt>
      <trkpt lat="10.190720" lon="-68.000653">
        <ele>469.30</ele>
        <time>2022-10-26T13:41:16Z</time>
      </trkpt>
      <trkpt lat="10.190745" lon="-68.000675">
        <ele>469.30</ele>
        <time>2022-10-26T13:41:17Z</time>
      </trkpt>
      <trkpt lat="10.190771" lon="-68.000695">
        <ele>469.30</ele>
        <time>2022-10-26T13:41:18Z</time>
      </trkpt>
      <trkpt lat="10.190797" lon="-68.000712">
        <ele>469.30</ele>
        <time>2022-10-26T13:41:19Z</time>
      </trkpt>
      <trkpt lat="10.190821" lon="-68.000726">
        <ele>469.30</ele>
        <time>2022-10-26T13:41:20Z</time>
      </trkpt>
      <trkpt lat="10.190851" lon="-68.000738">
        <ele>469.30</ele>
        <time>2022-10-26T13:41:21Z</time>
      </trkpt>
      <trkpt lat="10.190862" lon="-68.000741">
        <ele>469.30</ele>
        <time>2022-10-26T13:41:22Z</time>
      </trkpt>
      <trkpt lat="10.190891" lon="-68.000751">
        <ele>469.30</ele>
        <time>2022-10-26T13:41:23Z</time>
      </trkpt>
      <trkpt lat="10.190900" lon="-68.000754">
        <ele>469.30</ele>
        <time>2022-10-26T13:41:24Z</time>
      </trkpt>
      <trkpt lat="10.190914" lon="-68.000759">
        <ele>469.40</ele>
        <time>2022-10-26T13:41:25Z</time>
      </trkpt>
      <trkpt lat="10.190925" lon="-68.000765">
        <ele>469.40</ele>
        <time>2022-10-26T13:41:26Z</time>
      </trkpt>
      <trkpt lat="10.190940" lon="-68.000783">
        <ele>469.40</ele>
        <time>2022-10-26T13:41:27Z</time>
      </trkpt>
      <trkpt lat="10.190945" lon="-68.000787">
        <ele>469.40</ele>
        <time>2022-10-26T13:41:28Z</time>
      </trkpt>
      <trkpt lat="10.190950" lon="-68.000792">
        <ele>469.40</ele>
        <time>2022-10-26T13:41:29Z</time>
      </trkpt>
      <trkpt lat="10.190963" lon="-68.000803">
        <ele>469.40</ele>
        <time>2022-10-26T13:41:31Z</time>
      </trkpt>
      <trkpt lat="10.190976" lon="-68.000815">
        <ele>469.40</ele>
        <time>2022-10-26T13:41:32Z</time>
      </trkpt>
      <trkpt lat="10.190995" lon="-68.000838">
        <ele>469.50</ele>
        <time>2022-10-26T13:41:33Z</time>
      </trkpt>
      <trkpt lat="10.191001" lon="-68.000846">
        <ele>469.50</ele>
        <time>2022-10-26T13:41:34Z</time>
      </trkpt>
      <trkpt lat="10.191018" lon="-68.000877">
        <ele>469.50</ele>
        <time>2022-10-26T13:41:35Z</time>
      </trkpt>
      <trkpt lat="10.191040" lon="-68.000919">
        <ele>469.50</ele>
        <time>2022-10-26T13:41:36Z</time>
      </trkpt>
      <trkpt lat="10.191069" lon="-68.000959">
        <ele>469.60</ele>
        <time>2022-10-26T13:41:38Z</time>
      </trkpt>
      <trkpt lat="10.191089" lon="-68.000988">
        <ele>469.60</ele>
        <time>2022-10-26T13:41:39Z</time>
      </trkpt>
      <trkpt lat="10.191417" lon="-68.001219">
        <ele>470.00</ele>
        <time>2022-10-26T13:41:40Z</time>
      </trkpt>
      <trkpt lat="10.191535" lon="-68.001304">
        <ele>470.10</ele>
        <time>2022-10-26T13:41:41Z</time>
      </trkpt>
      <trkpt lat="10.191653" lon="-68.001390">
        <ele>470.20</ele>
        <time>2022-10-26T13:41:42Z</time>
      </trkpt>
      <trkpt lat="10.191744" lon="-68.001457">
        <ele>470.30</ele>
        <time>2022-10-26T13:41:43Z</time>
      </trkpt>
      <trkpt lat="10.191777" lon="-68.001488">
        <ele>470.40</ele>
        <time>2022-10-26T13:41:44Z</time>
      </trkpt>
      <trkpt lat="10.191861" lon="-68.001608">
        <ele>470.50</ele>
        <time>2022-10-26T13:41:45Z</time>
      </trkpt>
      <trkpt lat="10.191910" lon="-68.001689">
        <ele>470.60</ele>
        <time>2022-10-26T13:41:46Z</time>
      </trkpt>
      <trkpt lat="10.191950" lon="-68.001759">
        <ele>470.60</ele>
        <time>2022-10-26T13:41:47Z</time>
      </trkpt>
      <trkpt lat="10.191985" lon="-68.001822">
        <ele>470.70</ele>
        <time>2022-10-26T13:41:48Z</time>
      </trkpt>
      <trkpt lat="10.192020" lon="-68.001866">
        <ele>470.70</ele>
        <time>2022-10-26T13:41:49Z</time>
      </trkpt>
      <trkpt lat="10.192055" lon="-68.001912">
        <ele>470.70</ele>
        <time>2022-10-26T13:41:50Z</time>
      </trkpt>
      <trkpt lat="10.192097" lon="-68.001944">
        <ele>470.80</ele>
        <time>2022-10-26T13:41:51Z</time>
      </trkpt>
      <trkpt lat="10.192124" lon="-68.001960">
        <ele>470.80</ele>
        <time>2022-10-26T13:41:52Z</time>
      </trkpt>
      <trkpt lat="10.192152" lon="-68.001976">
        <ele>470.80</ele>
        <time>2022-10-26T13:41:53Z</time>
      </trkpt>
      <trkpt lat="10.192207" lon="-68.002028">
        <ele>470.80</ele>
        <time>2022-10-26T13:41:54Z</time>
      </trkpt>
      <trkpt lat="10.192242" lon="-68.002067">
        <ele>470.90</ele>
        <time>2022-10-26T13:41:55Z</time>
      </trkpt>
      <trkpt lat="10.192267" lon="-68.002077">
        <ele>470.90</ele>
        <time>2022-10-26T13:41:57Z</time>
      </trkpt>
      <trkpt lat="10.192278" lon="-68.002080">
        <ele>470.90</ele>
        <time>2022-10-26T13:41:58Z</time>
      </trkpt>
      <trkpt lat="10.192291" lon="-68.002086">
        <ele>470.90</ele>
        <time>2022-10-26T13:41:59Z</time>
      </trkpt>
      <trkpt lat="10.192300" lon="-68.002094">
        <ele>470.90</ele>
        <time>2022-10-26T13:42:00Z</time>
      </trkpt>
      <trkpt lat="10.192305" lon="-68.002102">
        <ele>470.90</ele>
        <time>2022-10-26T13:42:01Z</time>
      </trkpt>
      <trkpt lat="10.192316" lon="-68.002121">
        <ele>471.00</ele>
        <time>2022-10-26T13:42:02Z</time>
      </trkpt>
      <trkpt lat="10.192320" lon="-68.002129">
        <ele>471.00</ele>
        <time>2022-10-26T13:42:04Z</time>
      </trkpt>
      <trkpt lat="10.192328" lon="-68.002142">
        <ele>471.00</ele>
        <time>2022-10-26T13:42:05Z</time>
      </trkpt>
      <trkpt lat="10.192339" lon="-68.002158">
        <ele>471.00</ele>
        <time>2022-10-26T13:42:06Z</time>
      </trkpt>
      <trkpt lat="10.192376" lon="-68.002202">
        <ele>471.00</ele>
        <time>2022-10-26T13:42:07Z</time>
      </trkpt>
      <trkpt lat="10.192469" lon="-68.002291">
        <ele>471.10</ele>
        <time>2022-10-26T13:42:08Z</time>
      </trkpt>
      <trkpt lat="10.192584" lon="-68.002387">
        <ele>471.20</ele>
        <time>2022-10-26T13:42:09Z</time>
      </trkpt>
      <trkpt lat="10.192702" lon="-68.002478">
        <ele>471.20</ele>
        <time>2022-10-26T13:42:10Z</time>
      </trkpt>
      <trkpt lat="10.192793" lon="-68.002529">
        <ele>471.10</ele>
        <time>2022-10-26T13:42:11Z</time>
      </trkpt>
      <trkpt lat="10.192844" lon="-68.002557">
        <ele>471.10</ele>
        <time>2022-10-26T13:42:12Z</time>
      </trkpt>
      <trkpt lat="10.192873" lon="-68.002562">
        <ele>471.10</ele>
        <time>2022-10-26T13:42:13Z</time>
      </trkpt>
      <trkpt lat="10.192925" lon="-68.002574">
        <ele>471.00</ele>
        <time>2022-10-26T13:42:14Z</time>
      </trkpt>
      <trkpt lat="10.192990" lon="-68.002599">
        <ele>471.00</ele>
        <time>2022-10-26T13:42:15Z</time>
      </trkpt>
      <trkpt lat="10.193041" lon="-68.002616">
        <ele>471.00</ele>
        <time>2022-10-26T13:42:16Z</time>
      </trkpt>
      <trkpt lat="10.193096" lon="-68.002609">
        <ele>470.90</ele>
        <time>2022-10-26T13:42:17Z</time>
      </trkpt>
      <trkpt lat="10.193150" lon="-68.002618">
        <ele>470.90</ele>
        <time>2022-10-26T13:42:18Z</time>
      </trkpt>
      <trkpt lat="10.193198" lon="-68.002635">
        <ele>470.90</ele>
        <time>2022-10-26T13:42:20Z</time>
      </trkpt>
      <trkpt lat="10.193287" lon="-68.002633">
        <ele>470.80</ele>
        <time>2022-10-26T13:42:21Z</time>
      </trkpt>
      <trkpt lat="10.193344" lon="-68.002633">
        <ele>470.80</ele>
        <time>2022-10-26T13:42:22Z</time>
      </trkpt>
      <trkpt lat="10.193414" lon="-68.002627">
        <ele>470.70</ele>
        <time>2022-10-26T13:42:23Z</time>
      </trkpt>
      <trkpt lat="10.193464" lon="-68.002615">
        <ele>470.60</ele>
        <time>2022-10-26T13:42:24Z</time>
      </trkpt>
      <trkpt lat="10.193509" lon="-68.002602">
        <ele>470.60</ele>
        <time>2022-10-26T13:42:25Z</time>
      </trkpt>
      <trkpt lat="10.193534" lon="-68.002590">
        <ele>470.60</ele>
        <time>2022-10-26T13:42:26Z</time>
      </trkpt>
      <trkpt lat="10.193571" lon="-68.002575">
        <ele>470.50</ele>
        <time>2022-10-26T13:42:27Z</time>
      </trkpt>
      <trkpt lat="10.193624" lon="-68.002581">
        <ele>470.50</ele>
        <time>2022-10-26T13:42:28Z</time>
      </trkpt>
      <trkpt lat="10.193694" lon="-68.002593">
        <ele>470.40</ele>
        <time>2022-10-26T13:42:29Z</time>
      </trkpt>
      <trkpt lat="10.193758" lon="-68.002594">
        <ele>470.40</ele>
        <time>2022-10-26T13:42:30Z</time>
      </trkpt>
      <trkpt lat="10.193782" lon="-68.002595">
        <ele>470.40</ele>
        <time>2022-10-26T13:42:31Z</time>
      </trkpt>
      <trkpt lat="10.193760" lon="-68.002604">
        <ele>470.40</ele>
        <time>2022-10-26T13:42:32Z</time>
      </trkpt>
      <trkpt lat="10.193744" lon="-68.002612">
        <ele>470.40</ele>
        <time>2022-10-26T13:42:33Z</time>
      </trkpt>
      <trkpt lat="10.193751" lon="-68.002622">
        <ele>470.40</ele>
        <time>2022-10-26T13:42:34Z</time>
      </trkpt>
      <trkpt lat="10.193778" lon="-68.002635">
        <ele>470.40</ele>
        <time>2022-10-26T13:42:35Z</time>
      </trkpt>
      <trkpt lat="10.193790" lon="-68.002640">
        <ele>470.40</ele>
        <time>2022-10-26T13:42:36Z</time>
      </trkpt>
      <trkpt lat="10.194005" lon="-68.002625">
        <ele>470.50</ele>
        <time>2022-10-26T13:42:37Z</time>
      </trkpt>
      <trkpt lat="10.194076" lon="-68.002614">
        <ele>470.60</ele>
        <time>2022-10-26T13:42:38Z</time>
      </trkpt>
      <trkpt lat="10.194129" lon="-68.002604">
        <ele>470.60</ele>
        <time>2022-10-26T13:42:39Z</time>
      </trkpt>
      <trkpt lat="10.194156" lon="-68.002590">
        <ele>470.60</ele>
        <time>2022-10-26T13:42:40Z</time>
      </trkpt>
      <trkpt lat="10.194169" lon="-68.002583">
        <ele>470.60</ele>
        <time>2022-10-26T13:42:41Z</time>
      </trkpt>
      <trkpt lat="10.194155" lon="-68.002571">
        <ele>470.60</ele>
        <time>2022-10-26T13:42:42Z</time>
      </trkpt>
      <trkpt lat="10.194145" lon="-68.002572">
        <ele>470.70</ele>
        <time>2022-10-26T13:42:43Z</time>
      </trkpt>
      <trkpt lat="10.194142" lon="-68.002574">
        <ele>470.70</ele>
        <time>2022-10-26T13:42:44Z</time>
      </trkpt>
      <trkpt lat="10.194137" lon="-68.002577">
        <ele>470.70</ele>
        <time>2022-10-26T13:42:45Z</time>
      </trkpt>
      <trkpt lat="10.194135" lon="-68.002579">
        <ele>470.70</ele>
        <time>2022-10-26T13:42:47Z</time>
      </trkpt>
      <trkpt lat="10.194134" lon="-68.002581">
        <ele>470.70</ele>
        <time>2022-10-26T13:42:48Z</time>
      </trkpt>
      <trkpt lat="10.194133" lon="-68.002582">
        <ele>470.70</ele>
        <time>2022-10-26T13:42:49Z</time>
      </trkpt>
      <trkpt lat="10.194132" lon="-68.002584">
        <ele>470.70</ele>
        <time>2022-10-26T13:42:50Z</time>
      </trkpt>
      <trkpt lat="10.194132" lon="-68.002585">
        <ele>470.70</ele>
        <time>2022-10-26T13:42:52Z</time>
      </trkpt>
      <trkpt lat="10.194130" lon="-68.002586">
        <ele>470.70</ele>
        <time>2022-10-26T13:42:53Z</time>
      </trkpt>
      <trkpt lat="10.194127" lon="-68.002587">
        <ele>470.70</ele>
        <time>2022-10-26T13:42:54Z</time>
      </trkpt>
      <trkpt lat="10.194156" lon="-68.002626">
        <ele>470.70</ele>
        <time>2022-10-26T13:42:56Z</time>
      </trkpt>
      <trkpt lat="10.194187" lon="-68.002664">
        <ele>470.70</ele>
        <time>2022-10-26T13:42:57Z</time>
      </trkpt>
      <trkpt lat="10.194219" lon="-68.002703">
        <ele>470.80</ele>
        <time>2022-10-26T13:42:58Z</time>
      </trkpt>
      <trkpt lat="10.194251" lon="-68.002742">
        <ele>470.60</ele>
        <time>2022-10-26T13:42:59Z</time>
      </trkpt>
      <trkpt lat="10.194283" lon="-68.002781">
        <ele>470.50</ele>
        <time>2022-10-26T13:43:00Z</time>
      </trkpt>
      <trkpt lat="10.194315" lon="-68.002819">
        <ele>472.40</ele>
        <time>2022-10-26T13:43:02Z</time>
      </trkpt>
      <trkpt lat="10.194346" lon="-68.002858">
        <ele>472.30</ele>
        <time>2022-10-26T13:43:03Z</time>
      </trkpt>
      <trkpt lat="10.194378" lon="-68.002897">
        <ele>472.10</ele>
        <time>2022-10-26T13:43:05Z</time>
      </trkpt>
      <trkpt lat="10.194410" lon="-68.002935">
        <ele>472.00</ele>
        <time>2022-10-26T13:43:06Z</time>
      </trkpt>
      <trkpt lat="10.194442" lon="-68.002974">
        <ele>472.90</ele>
        <time>2022-10-26T13:43:07Z</time>
      </trkpt>
      <trkpt lat="10.194512" lon="-68.003097">
        <ele>472.80</ele>
        <time>2022-10-26T13:43:08Z</time>
      </trkpt>
      <trkpt lat="10.194570" lon="-68.003159">
        <ele>473.60</ele>
        <time>2022-10-26T13:43:09Z</time>
      </trkpt>
      <trkpt lat="10.194622" lon="-68.003210">
        <ele>473.50</ele>
        <time>2022-10-26T13:43:10Z</time>
      </trkpt>
      <trkpt lat="10.194645" lon="-68.003243">
        <ele>473.40</ele>
        <time>2022-10-26T13:43:12Z</time>
      </trkpt>
      <trkpt lat="10.194652" lon="-68.003264">
        <ele>473.30</ele>
        <time>2022-10-26T13:43:13Z</time>
      </trkpt>
      <trkpt lat="10.194656" lon="-68.003275">
        <ele>473.10</ele>
        <time>2022-10-26T13:43:14Z</time>
      </trkpt>
      <trkpt lat="10.194677" lon="-68.003312">
        <ele>473.00</ele>
        <time>2022-10-26T13:43:16Z</time>
      </trkpt>
      <trkpt lat="10.194693" lon="-68.003344">
        <ele>472.90</ele>
        <time>2022-10-26T13:43:17Z</time>
      </trkpt>
      <trkpt lat="10.194708" lon="-68.003382">
        <ele>472.70</ele>
        <time>2022-10-26T13:43:18Z</time>
      </trkpt>
      <trkpt lat="10.194708" lon="-68.003397">
        <ele>472.60</ele>
        <time>2022-10-26T13:43:19Z</time>
      </trkpt>
      <trkpt lat="10.194700" lon="-68.003441">
        <ele>472.50</ele>
        <time>2022-10-26T13:43:21Z</time>
      </trkpt>
      <trkpt lat="10.194687" lon="-68.003473">
        <ele>472.40</ele>
        <time>2022-10-26T13:43:22Z</time>
      </trkpt>
      <trkpt lat="10.194677" lon="-68.003501">
        <ele>473.20</ele>
        <time>2022-10-26T13:43:23Z</time>
      </trkpt>
      <trkpt lat="10.194665" lon="-68.003540">
        <ele>473.10</ele>
        <time>2022-10-26T13:43:24Z</time>
      </trkpt>
      <trkpt lat="10.194658" lon="-68.003582">
        <ele>473.00</ele>
        <time>2022-10-26T13:43:25Z</time>
      </trkpt>
      <trkpt lat="10.194657" lon="-68.003599">
        <ele>472.90</ele>
        <time>2022-10-26T13:43:26Z</time>
      </trkpt>
      <trkpt lat="10.194670" lon="-68.003623">
        <ele>472.70</ele>
        <time>2022-10-26T13:43:27Z</time>
      </trkpt>
      <trkpt lat="10.194675" lon="-68.003632">
        <ele>472.60</ele>
        <time>2022-10-26T13:43:28Z</time>
      </trkpt>
      <trkpt lat="10.194696" lon="-68.003656">
        <ele>473.50</ele>
        <time>2022-10-26T13:43:29Z</time>
      </trkpt>
      <trkpt lat="10.194717" lon="-68.003677">
        <ele>473.30</ele>
        <time>2022-10-26T13:43:30Z</time>
      </trkpt>
      <trkpt lat="10.194745" lon="-68.003707">
        <ele>473.20</ele>
        <time>2022-10-26T13:43:31Z</time>
      </trkpt>
      <trkpt lat="10.194765" lon="-68.003738">
        <ele>473.10</ele>
        <time>2022-10-26T13:43:33Z</time>
      </trkpt>
      <trkpt lat="10.194771" lon="-68.003748">
        <ele>473.00</ele>
        <time>2022-10-26T13:43:34Z</time>
      </trkpt>
      <trkpt lat="10.194784" lon="-68.003776">
        <ele>472.80</ele>
        <time>2022-10-26T13:43:35Z</time>
      </trkpt>
      <trkpt lat="10.194788" lon="-68.003785">
        <ele>472.70</ele>
        <time>2022-10-26T13:43:36Z</time>
      </trkpt>
      <trkpt lat="10.194796" lon="-68.003802">
        <ele>472.60</ele>
        <time>2022-10-26T13:43:37Z</time>
      </trkpt>
      <trkpt lat="10.194799" lon="-68.003813">
        <ele>472.50</ele>
        <time>2022-10-26T13:43:38Z</time>
      </trkpt>
      <trkpt lat="10.194803" lon="-68.003823">
        <ele>472.30</ele>
        <time>2022-10-26T13:43:40Z</time>
      </trkpt>
      <trkpt lat="10.194807" lon="-68.003834">
        <ele>473.20</ele>
        <time>2022-10-26T13:43:41Z</time>
      </trkpt>
      <trkpt lat="10.194810" lon="-68.003845">
        <ele>473.10</ele>
        <time>2022-10-26T13:43:42Z</time>
      </trkpt>
      <trkpt lat="10.194814" lon="-68.003856">
        <ele>473.00</ele>
        <time>2022-10-26T13:43:43Z</time>
      </trkpt>
      <trkpt lat="10.194819" lon="-68.003902">
        <ele>472.80</ele>
        <time>2022-10-26T13:43:44Z</time>
      </trkpt>
      <trkpt lat="10.194819" lon="-68.004007">
        <ele>473.70</ele>
        <time>2022-10-26T13:43:45Z</time>
      </trkpt>
      <trkpt lat="10.194817" lon="-68.004168">
        <ele>474.40</ele>
        <time>2022-10-26T13:43:46Z</time>
      </trkpt>
      <trkpt lat="10.194809" lon="-68.004277">
        <ele>474.90</ele>
        <time>2022-10-26T13:43:47Z</time>
      </trkpt>
      <trkpt lat="10.194798" lon="-68.004396">
        <ele>475.40</ele>
        <time>2022-10-26T13:43:48Z</time>
      </trkpt>
      <trkpt lat="10.194803" lon="-68.004454">
        <ele>475.60</ele>
        <time>2022-10-26T13:43:49Z</time>
      </trkpt>
      <trkpt lat="10.194815" lon="-68.004509">
        <ele>475.80</ele>
        <time>2022-10-26T13:43:50Z</time>
      </trkpt>
      <trkpt lat="10.194847" lon="-68.004556">
        <ele>476.10</ele>
        <time>2022-10-26T13:43:52Z</time>
      </trkpt>
      <trkpt lat="10.194865" lon="-68.004579">
        <ele>476.20</ele>
        <time>2022-10-26T13:43:53Z</time>
      </trkpt>
      <trkpt lat="10.194855" lon="-68.004631">
        <ele>476.60</ele>
        <time>2022-10-26T13:43:54Z</time>
      </trkpt>
      <trkpt lat="10.194835" lon="-68.004661">
        <ele>476.80</ele>
        <time>2022-10-26T13:43:55Z</time>
      </trkpt>
      <trkpt lat="10.194775" lon="-68.004757">
        <ele>477.50</ele>
        <time>2022-10-26T13:43:56Z</time>
      </trkpt>
      <trkpt lat="10.194773" lon="-68.004795">
        <ele>477.80</ele>
        <time>2022-10-26T13:43:57Z</time>
      </trkpt>
      <trkpt lat="10.194778" lon="-68.004830">
        <ele>478.00</ele>
        <time>2022-10-26T13:43:58Z</time>
      </trkpt>
      <trkpt lat="10.194786" lon="-68.004866">
        <ele>478.30</ele>
        <time>2022-10-26T13:43:59Z</time>
      </trkpt>
      <trkpt lat="10.194795" lon="-68.004918">
        <ele>478.70</ele>
        <time>2022-10-26T13:44:00Z</time>
      </trkpt>
      <trkpt lat="10.194814" lon="-68.004953">
        <ele>479.00</ele>
        <time>2022-10-26T13:44:01Z</time>
      </trkpt>
      <trkpt lat="10.194833" lon="-68.004993">
        <ele>479.40</ele>
        <time>2022-10-26T13:44:02Z</time>
      </trkpt>
      <trkpt lat="10.194854" lon="-68.005045">
        <ele>479.80</ele>
        <time>2022-10-26T13:44:03Z</time>
      </trkpt>
      <trkpt lat="10.194878" lon="-68.005102">
        <ele>480.70</ele>
        <time>2022-10-26T13:44:04Z</time>
      </trkpt>
      <trkpt lat="10.194954" lon="-68.005215">
        <ele>480.30</ele>
        <time>2022-10-26T13:44:06Z</time>
      </trkpt>
      <trkpt lat="10.195253" lon="-68.005250">
        <ele>479.50</ele>
        <time>2022-10-26T13:44:07Z</time>
      </trkpt>
      <trkpt lat="10.195367" lon="-68.005232">
        <ele>479.20</ele>
        <time>2022-10-26T13:44:08Z</time>
      </trkpt>
      <trkpt lat="10.195454" lon="-68.005223">
        <ele>478.80</ele>
        <time>2022-10-26T13:44:09Z</time>
      </trkpt>
      <trkpt lat="10.195511" lon="-68.005217">
        <ele>478.60</ele>
        <time>2022-10-26T13:44:10Z</time>
      </trkpt>
      <trkpt lat="10.195560" lon="-68.005215">
        <ele>478.50</ele>
        <time>2022-10-26T13:44:11Z</time>
      </trkpt>
      <trkpt lat="10.195603" lon="-68.005214">
        <ele>478.50</ele>
        <time>2022-10-26T13:44:12Z</time>
      </trkpt>
      <trkpt lat="10.195644" lon="-68.005213">
        <ele>478.50</ele>
        <time>2022-10-26T13:44:13Z</time>
      </trkpt>
      <trkpt lat="10.195684" lon="-68.005205">
        <ele>478.60</ele>
        <time>2022-10-26T13:44:14Z</time>
      </trkpt>
      <trkpt lat="10.195708" lon="-68.005201">
        <ele>478.60</ele>
        <time>2022-10-26T13:44:15Z</time>
      </trkpt>
      <trkpt lat="10.195768" lon="-68.005192">
        <ele>478.70</ele>
        <time>2022-10-26T13:44:17Z</time>
      </trkpt>
      <trkpt lat="10.195801" lon="-68.005190">
        <ele>478.70</ele>
        <time>2022-10-26T13:44:18Z</time>
      </trkpt>
      <trkpt lat="10.195851" lon="-68.005198">
        <ele>478.70</ele>
        <time>2022-10-26T13:44:19Z</time>
      </trkpt>
      <trkpt lat="10.195885" lon="-68.005217">
        <ele>478.80</ele>
        <time>2022-10-26T13:44:20Z</time>
      </trkpt>
      <trkpt lat="10.195917" lon="-68.005223">
        <ele>478.80</ele>
        <time>2022-10-26T13:44:21Z</time>
      </trkpt>
      <trkpt lat="10.195956" lon="-68.005220">
        <ele>478.80</ele>
        <time>2022-10-26T13:44:22Z</time>
      </trkpt>
      <trkpt lat="10.195993" lon="-68.005215">
        <ele>478.90</ele>
        <time>2022-10-26T13:44:23Z</time>
      </trkpt>
      <trkpt lat="10.196033" lon="-68.005208">
        <ele>478.80</ele>
        <time>2022-10-26T13:44:24Z</time>
      </trkpt>
      <trkpt lat="10.196064" lon="-68.005198">
        <ele>478.70</ele>
        <time>2022-10-26T13:44:25Z</time>
      </trkpt>
      <trkpt lat="10.196097" lon="-68.005188">
        <ele>478.70</ele>
        <time>2022-10-26T13:44:26Z</time>
      </trkpt>
      <trkpt lat="10.196108" lon="-68.005185">
        <ele>478.60</ele>
        <time>2022-10-26T13:44:27Z</time>
      </trkpt>
      <trkpt lat="10.196148" lon="-68.005176">
        <ele>478.50</ele>
        <time>2022-10-26T13:44:29Z</time>
      </trkpt>
      <trkpt lat="10.196180" lon="-68.005174">
        <ele>478.50</ele>
        <time>2022-10-26T13:44:30Z</time>
      </trkpt>
      <trkpt lat="10.196225" lon="-68.005178">
        <ele>478.40</ele>
        <time>2022-10-26T13:44:32Z</time>
      </trkpt>
      <trkpt lat="10.196263" lon="-68.005191">
        <ele>478.30</ele>
        <time>2022-10-26T13:44:33Z</time>
      </trkpt>
      <trkpt lat="10.196290" lon="-68.005196">
        <ele>478.20</ele>
        <time>2022-10-26T13:44:34Z</time>
      </trkpt>
      <trkpt lat="10.196320" lon="-68.005210">
        <ele>478.10</ele>
        <time>2022-10-26T13:44:35Z</time>
      </trkpt>
      <trkpt lat="10.196379" lon="-68.005286">
        <ele>477.90</ele>
        <time>2022-10-26T13:44:37Z</time>
      </trkpt>
      <trkpt lat="10.196432" lon="-68.005334">
        <ele>477.80</ele>
        <time>2022-10-26T13:44:38Z</time>
      </trkpt>
      <trkpt lat="10.196482" lon="-68.005354">
        <ele>477.60</ele>
        <time>2022-10-26T13:44:39Z</time>
      </trkpt>
      <trkpt lat="10.196531" lon="-68.005358">
        <ele>477.50</ele>
        <time>2022-10-26T13:44:40Z</time>
      </trkpt>
      <trkpt lat="10.196574" lon="-68.005358">
        <ele>477.40</ele>
        <time>2022-10-26T13:44:41Z</time>
      </trkpt>
      <trkpt lat="10.196613" lon="-68.005358">
        <ele>477.30</ele>
        <time>2022-10-26T13:44:42Z</time>
      </trkpt>
      <trkpt lat="10.196680" lon="-68.005354">
        <ele>477.20</ele>
        <time>2022-10-26T13:44:44Z</time>
      </trkpt>
      <trkpt lat="10.196723" lon="-68.005355">
        <ele>477.10</ele>
        <time>2022-10-26T13:44:45Z</time>
      </trkpt>
      <trkpt lat="10.196769" lon="-68.005352">
        <ele>477.10</ele>
        <time>2022-10-26T13:44:46Z</time>
      </trkpt>
      <trkpt lat="10.196818" lon="-68.005351">
        <ele>477.10</ele>
        <time>2022-10-26T13:44:47Z</time>
      </trkpt>
      <trkpt lat="10.196856" lon="-68.005360">
        <ele>477.10</ele>
        <time>2022-10-26T13:44:48Z</time>
      </trkpt>
      <trkpt lat="10.196884" lon="-68.005370">
        <ele>477.10</ele>
        <time>2022-10-26T13:44:49Z</time>
      </trkpt>
      <trkpt lat="10.196910" lon="-68.005388">
        <ele>477.10</ele>
        <time>2022-10-26T13:44:50Z</time>
      </trkpt>
      <trkpt lat="10.196916" lon="-68.005396">
        <ele>477.30</ele>
        <time>2022-10-26T13:44:51Z</time>
      </trkpt>
      <trkpt lat="10.196910" lon="-68.005425">
        <ele>477.40</ele>
        <time>2022-10-26T13:44:52Z</time>
      </trkpt>
      <trkpt lat="10.196900" lon="-68.005455">
        <ele>477.60</ele>
        <time>2022-10-26T13:44:53Z</time>
      </trkpt>
      <trkpt lat="10.196889" lon="-68.005485">
        <ele>477.70</ele>
        <time>2022-10-26T13:44:54Z</time>
      </trkpt>
      <trkpt lat="10.196885" lon="-68.005514">
        <ele>477.80</ele>
        <time>2022-10-26T13:44:55Z</time>
      </trkpt>
      <trkpt lat="10.196887" lon="-68.005544">
        <ele>477.90</ele>
        <time>2022-10-26T13:44:56Z</time>
      </trkpt>
      <trkpt lat="10.196891" lon="-68.005577">
        <ele>478.00</ele>
        <time>2022-10-26T13:44:57Z</time>
      </trkpt>
      <trkpt lat="10.196893" lon="-68.005620">
        <ele>478.10</ele>
        <time>2022-10-26T13:44:59Z</time>
      </trkpt>
      <trkpt lat="10.196904" lon="-68.005667">
        <ele>478.30</ele>
        <time>2022-10-26T13:45:00Z</time>
      </trkpt>
      <trkpt lat="10.196925" lon="-68.005699">
        <ele>479.30</ele>
        <time>2022-10-26T13:45:01Z</time>
      </trkpt>
      <trkpt lat="10.196957" lon="-68.005724">
        <ele>479.40</ele>
        <time>2022-10-26T13:45:03Z</time>
      </trkpt>
      <trkpt lat="10.197006" lon="-68.005735">
        <ele>479.40</ele>
        <time>2022-10-26T13:45:04Z</time>
      </trkpt>
      <trkpt lat="10.197050" lon="-68.005743">
        <ele>479.40</ele>
        <time>2022-10-26T13:45:05Z</time>
      </trkpt>
      <trkpt lat="10.197086" lon="-68.005751">
        <ele>479.50</ele>
        <time>2022-10-26T13:45:06Z</time>
      </trkpt>
      <trkpt lat="10.197127" lon="-68.005764">
        <ele>479.50</ele>
        <time>2022-10-26T13:45:07Z</time>
      </trkpt>
      <trkpt lat="10.197161" lon="-68.005770">
        <ele>479.50</ele>
        <time>2022-10-26T13:45:08Z</time>
      </trkpt>
      <trkpt lat="10.197194" lon="-68.005780">
        <ele>479.50</ele>
        <time>2022-10-26T13:45:09Z</time>
      </trkpt>
      <trkpt lat="10.197233" lon="-68.005797">
        <ele>479.50</ele>
        <time>2022-10-26T13:45:10Z</time>
      </trkpt>
      <trkpt lat="10.197264" lon="-68.005809">
        <ele>479.50</ele>
        <time>2022-10-26T13:45:11Z</time>
      </trkpt>
      <trkpt lat="10.197294" lon="-68.005821">
        <ele>479.50</ele>
        <time>2022-10-26T13:45:12Z</time>
      </trkpt>
      <trkpt lat="10.197322" lon="-68.005832">
        <ele>479.50</ele>
        <time>2022-10-26T13:45:13Z</time>
      </trkpt>
      <trkpt lat="10.197354" lon="-68.005841">
        <ele>479.50</ele>
        <time>2022-10-26T13:45:14Z</time>
      </trkpt>
      <trkpt lat="10.197384" lon="-68.005849">
        <ele>479.50</ele>
        <time>2022-10-26T13:45:15Z</time>
      </trkpt>
      <trkpt lat="10.197418" lon="-68.005857">
        <ele>479.50</ele>
        <time>2022-10-26T13:45:16Z</time>
      </trkpt>
      <trkpt lat="10.197469" lon="-68.005867">
        <ele>479.50</ele>
        <time>2022-10-26T13:45:17Z</time>
      </trkpt>
      <trkpt lat="10.197522" lon="-68.005877">
        <ele>479.50</ele>
        <time>2022-10-26T13:45:19Z</time>
      </trkpt>
      <trkpt lat="10.197578" lon="-68.005888">
        <ele>479.60</ele>
        <time>2022-10-26T13:45:20Z</time>
      </trkpt>
      <trkpt lat="10.197624" lon="-68.005899">
        <ele>479.60</ele>
        <time>2022-10-26T13:45:21Z</time>
      </trkpt>
      <trkpt lat="10.197663" lon="-68.005909">
        <ele>479.60</ele>
        <time>2022-10-26T13:45:22Z</time>
      </trkpt>
      <trkpt lat="10.197700" lon="-68.005920">
        <ele>479.70</ele>
        <time>2022-10-26T13:45:23Z</time>
      </trkpt>
      <trkpt lat="10.197737" lon="-68.005933">
        <ele>479.70</ele>
        <time>2022-10-26T13:45:24Z</time>
      </trkpt>
      <trkpt lat="10.197774" lon="-68.005949">
        <ele>479.80</ele>
        <time>2022-10-26T13:45:25Z</time>
      </trkpt>
      <trkpt lat="10.197812" lon="-68.005981">
        <ele>479.80</ele>
        <time>2022-10-26T13:45:26Z</time>
      </trkpt>
      <trkpt lat="10.197853" lon="-68.006018">
        <ele>479.90</ele>
        <time>2022-10-26T13:45:27Z</time>
      </trkpt>
      <trkpt lat="10.197878" lon="-68.006041">
        <ele>479.90</ele>
        <time>2022-10-26T13:45:28Z</time>
      </trkpt>
      <trkpt lat="10.197906" lon="-68.006060">
        <ele>479.90</ele>
        <time>2022-10-26T13:45:29Z</time>
      </trkpt>
      <trkpt lat="10.197944" lon="-68.006083">
        <ele>480.00</ele>
        <time>2022-10-26T13:45:31Z</time>
      </trkpt>
      <trkpt lat="10.197990" lon="-68.006088">
        <ele>480.00</ele>
        <time>2022-10-26T13:45:33Z</time>
      </trkpt>
      <trkpt lat="10.198028" lon="-68.006078">
        <ele>480.10</ele>
        <time>2022-10-26T13:45:35Z</time>
      </trkpt>
      <trkpt lat="10.198044" lon="-68.006051">
        <ele>480.10</ele>
        <time>2022-10-26T13:45:36Z</time>
      </trkpt>
      <trkpt lat="10.198065" lon="-68.006028">
        <ele>480.20</ele>
        <time>2022-10-26T13:45:37Z</time>
      </trkpt>
      <trkpt lat="10.198072" lon="-68.006017">
        <ele>480.20</ele>
        <time>2022-10-26T13:45:38Z</time>
      </trkpt>
      <trkpt lat="10.198095" lon="-68.005997">
        <ele>480.20</ele>
        <time>2022-10-26T13:45:39Z</time>
      </trkpt>
      <trkpt lat="10.198129" lon="-68.005979">
        <ele>480.30</ele>
        <time>2022-10-26T13:45:40Z</time>
      </trkpt>
      <trkpt lat="10.198141" lon="-68.005971">
        <ele>480.30</ele>
        <time>2022-10-26T13:45:41Z</time>
      </trkpt>
      <trkpt lat="10.198156" lon="-68.005968">
        <ele>480.30</ele>
        <time>2022-10-26T13:45:42Z</time>
      </trkpt>
      <trkpt lat="10.198167" lon="-68.005970">
        <ele>480.30</ele>
        <time>2022-10-26T13:45:43Z</time>
      </trkpt>
      <trkpt lat="10.198176" lon="-68.005966">
        <ele>480.30</ele>
        <time>2022-10-26T13:45:44Z</time>
      </trkpt>
      <trkpt lat="10.198188" lon="-68.005961">
        <ele>480.30</ele>
        <time>2022-10-26T13:45:45Z</time>
      </trkpt>
      <trkpt lat="10.198200" lon="-68.005958">
        <ele>480.30</ele>
        <time>2022-10-26T13:45:46Z</time>
      </trkpt>
      <trkpt lat="10.198241" lon="-68.005953">
        <ele>480.40</ele>
        <time>2022-10-26T13:45:48Z</time>
      </trkpt>
      <trkpt lat="10.198292" lon="-68.005956">
        <ele>480.40</ele>
        <time>2022-10-26T13:45:49Z</time>
      </trkpt>
      <trkpt lat="10.198317" lon="-68.005957">
        <ele>480.40</ele>
        <time>2022-10-26T13:45:50Z</time>
      </trkpt>
      <trkpt lat="10.198418" lon="-68.005985">
        <ele>480.50</ele>
        <time>2022-10-26T13:45:51Z</time>
      </trkpt>
      <trkpt lat="10.198568" lon="-68.006025">
        <ele>480.50</ele>
        <time>2022-10-26T13:45:52Z</time>
      </trkpt>
      <trkpt lat="10.198691" lon="-68.006059">
        <ele>480.50</ele>
        <time>2022-10-26T13:45:53Z</time>
      </trkpt>
      <trkpt lat="10.198789" lon="-68.006080">
        <ele>480.40</ele>
        <time>2022-10-26T13:45:54Z</time>
      </trkpt>
      <trkpt lat="10.198871" lon="-68.006087">
        <ele>480.30</ele>
        <time>2022-10-26T13:45:55Z</time>
      </trkpt>
      <trkpt lat="10.198938" lon="-68.006090">
        <ele>480.30</ele>
        <time>2022-10-26T13:45:56Z</time>
      </trkpt>
      <trkpt lat="10.198996" lon="-68.006093">
        <ele>480.20</ele>
        <time>2022-10-26T13:45:57Z</time>
      </trkpt>
      <trkpt lat="10.199050" lon="-68.006106">
        <ele>480.10</ele>
        <time>2022-10-26T13:45:58Z</time>
      </trkpt>
      <trkpt lat="10.199112" lon="-68.006109">
        <ele>480.10</ele>
        <time>2022-10-26T13:45:59Z</time>
      </trkpt>
      <trkpt lat="10.199168" lon="-68.006110">
        <ele>480.00</ele>
        <time>2022-10-26T13:46:00Z</time>
      </trkpt>
      <trkpt lat="10.199236" lon="-68.006108">
        <ele>480.00</ele>
        <time>2022-10-26T13:46:01Z</time>
      </trkpt>
      <trkpt lat="10.199276" lon="-68.006105">
        <ele>479.90</ele>
        <time>2022-10-26T13:46:02Z</time>
      </trkpt>
      <trkpt lat="10.199313" lon="-68.006113">
        <ele>479.90</ele>
        <time>2022-10-26T13:46:03Z</time>
      </trkpt>
      <trkpt lat="10.199351" lon="-68.006115">
        <ele>479.90</ele>
        <time>2022-10-26T13:46:04Z</time>
      </trkpt>
      <trkpt lat="10.199411" lon="-68.006120">
        <ele>479.90</ele>
        <time>2022-10-26T13:46:05Z</time>
      </trkpt>
      <trkpt lat="10.199465" lon="-68.006127">
        <ele>479.90</ele>
        <time>2022-10-26T13:46:06Z</time>
      </trkpt>
      <trkpt lat="10.199527" lon="-68.006123">
        <ele>479.90</ele>
        <time>2022-10-26T13:46:07Z</time>
      </trkpt>
      <trkpt lat="10.199584" lon="-68.006112">
        <ele>479.90</ele>
        <time>2022-10-26T13:46:08Z</time>
      </trkpt>
      <trkpt lat="10.199630" lon="-68.006105">
        <ele>479.90</ele>
        <time>2022-10-26T13:46:09Z</time>
      </trkpt>
      <trkpt lat="10.199659" lon="-68.006091">
        <ele>479.90</ele>
        <time>2022-10-26T13:46:10Z</time>
      </trkpt>
      <trkpt lat="10.199665" lon="-68.006109">
        <ele>479.90</ele>
        <time>2022-10-26T13:46:11Z</time>
      </trkpt>
      <trkpt lat="10.199691" lon="-68.006123">
        <ele>479.90</ele>
        <time>2022-10-26T13:46:12Z</time>
      </trkpt>
      <trkpt lat="10.199756" lon="-68.006139">
        <ele>479.90</ele>
        <time>2022-10-26T13:46:14Z</time>
      </trkpt>
      <trkpt lat="10.199812" lon="-68.006158">
        <ele>479.90</ele>
        <time>2022-10-26T13:46:15Z</time>
      </trkpt>
      <trkpt lat="10.199854" lon="-68.006178">
        <ele>480.00</ele>
        <time>2022-10-26T13:46:16Z</time>
      </trkpt>
      <trkpt lat="10.199891" lon="-68.006191">
        <ele>480.00</ele>
        <time>2022-10-26T13:46:17Z</time>
      </trkpt>
      <trkpt lat="10.199942" lon="-68.006191">
        <ele>480.00</ele>
        <time>2022-10-26T13:46:18Z</time>
      </trkpt>
      <trkpt lat="10.199973" lon="-68.006186">
        <ele>480.00</ele>
        <time>2022-10-26T13:46:19Z</time>
      </trkpt>
      <trkpt lat="10.200003" lon="-68.006189">
        <ele>480.00</ele>
        <time>2022-10-26T13:46:21Z</time>
      </trkpt>
      <trkpt lat="10.200039" lon="-68.006205">
        <ele>480.10</ele>
        <time>2022-10-26T13:46:22Z</time>
      </trkpt>
      <trkpt lat="10.200078" lon="-68.006224">
        <ele>480.10</ele>
        <time>2022-10-26T13:46:23Z</time>
      </trkpt>
      <trkpt lat="10.200131" lon="-68.006246">
        <ele>480.10</ele>
        <time>2022-10-26T13:46:24Z</time>
      </trkpt>
      <trkpt lat="10.200186" lon="-68.006268">
        <ele>480.20</ele>
        <time>2022-10-26T13:46:25Z</time>
      </trkpt>
      <trkpt lat="10.200260" lon="-68.006296">
        <ele>480.20</ele>
        <time>2022-10-26T13:46:27Z</time>
      </trkpt>
      <trkpt lat="10.200326" lon="-68.006324">
        <ele>480.30</ele>
        <time>2022-10-26T13:46:28Z</time>
      </trkpt>
      <trkpt lat="10.200388" lon="-68.006342">
        <ele>480.30</ele>
        <time>2022-10-26T13:46:30Z</time>
      </trkpt>
      <trkpt lat="10.200453" lon="-68.006332">
        <ele>480.40</ele>
        <time>2022-10-26T13:46:31Z</time>
      </trkpt>
      <trkpt lat="10.200508" lon="-68.006328">
        <ele>480.50</ele>
        <time>2022-10-26T13:46:32Z</time>
      </trkpt>
      <trkpt lat="10.200556" lon="-68.006334">
        <ele>480.50</ele>
        <time>2022-10-26T13:46:33Z</time>
      </trkpt>
      <trkpt lat="10.200618" lon="-68.006343">
        <ele>480.50</ele>
        <time>2022-10-26T13:46:34Z</time>
      </trkpt>
      <trkpt lat="10.200680" lon="-68.006347">
        <ele>480.60</ele>
        <time>2022-10-26T13:46:36Z</time>
      </trkpt>
      <trkpt lat="10.200767" lon="-68.006373">
        <ele>480.60</ele>
        <time>2022-10-26T13:46:37Z</time>
      </trkpt>
      <trkpt lat="10.200818" lon="-68.006381">
        <ele>480.70</ele>
        <time>2022-10-26T13:46:38Z</time>
      </trkpt>
      <trkpt lat="10.200857" lon="-68.006390">
        <ele>480.70</ele>
        <time>2022-10-26T13:46:39Z</time>
      </trkpt>
      <trkpt lat="10.200901" lon="-68.006393">
        <ele>480.70</ele>
        <time>2022-10-26T13:46:40Z</time>
      </trkpt>
      <trkpt lat="10.200957" lon="-68.006412">
        <ele>480.80</ele>
        <time>2022-10-26T13:46:41Z</time>
      </trkpt>
      <trkpt lat="10.201002" lon="-68.006428">
        <ele>480.80</ele>
        <time>2022-10-26T13:46:42Z</time>
      </trkpt>
      <trkpt lat="10.201030" lon="-68.006439">
        <ele>480.90</ele>
        <time>2022-10-26T13:46:43Z</time>
      </trkpt>
      <trkpt lat="10.201096" lon="-68.006450">
        <ele>480.90</ele>
        <time>2022-10-26T13:46:44Z</time>
      </trkpt>
      <trkpt lat="10.201147" lon="-68.006456">
        <ele>481.00</ele>
        <time>2022-10-26T13:46:45Z</time>
      </trkpt>
      <trkpt lat="10.201199" lon="-68.006462">
        <ele>481.00</ele>
        <time>2022-10-26T13:46:46Z</time>
      </trkpt>
      <trkpt lat="10.201218" lon="-68.006466">
        <ele>481.00</ele>
        <time>2022-10-26T13:46:47Z</time>
      </trkpt>
      <trkpt lat="10.201237" lon="-68.006470">
        <ele>481.10</ele>
        <time>2022-10-26T13:46:49Z</time>
      </trkpt>
      <trkpt lat="10.201267" lon="-68.006473">
        <ele>481.10</ele>
        <time>2022-10-26T13:46:50Z</time>
      </trkpt>
      <trkpt lat="10.201302" lon="-68.006481">
        <ele>481.10</ele>
        <time>2022-10-26T13:46:51Z</time>
      </trkpt>
      <trkpt lat="10.201370" lon="-68.006495">
        <ele>481.20</ele>
        <time>2022-10-26T13:46:52Z</time>
      </trkpt>
      <trkpt lat="10.201463" lon="-68.006523">
        <ele>481.30</ele>
        <time>2022-10-26T13:46:54Z</time>
      </trkpt>
      <trkpt lat="10.201529" lon="-68.006543">
        <ele>481.30</ele>
        <time>2022-10-26T13:46:55Z</time>
      </trkpt>
      <trkpt lat="10.201557" lon="-68.006555">
        <ele>481.30</ele>
        <time>2022-10-26T13:46:56Z</time>
      </trkpt>
      <trkpt lat="10.201563" lon="-68.006558">
        <ele>481.30</ele>
        <time>2022-10-26T13:46:57Z</time>
      </trkpt>
      <trkpt lat="10.201577" lon="-68.006564">
        <ele>481.30</ele>
        <time>2022-10-26T13:46:58Z</time>
      </trkpt>
      <trkpt lat="10.201587" lon="-68.006567">
        <ele>481.30</ele>
        <time>2022-10-26T13:46:59Z</time>
      </trkpt>
      <trkpt lat="10.201597" lon="-68.006569">
        <ele>481.40</ele>
        <time>2022-10-26T13:47:00Z</time>
      </trkpt>
      <trkpt lat="10.201608" lon="-68.006572">
        <ele>481.40</ele>
        <time>2022-10-26T13:47:01Z</time>
      </trkpt>
      <trkpt lat="10.201671" lon="-68.006587">
        <ele>481.40</ele>
        <time>2022-10-26T13:47:02Z</time>
      </trkpt>
      <trkpt lat="10.201752" lon="-68.006602">
        <ele>481.50</ele>
        <time>2022-10-26T13:47:03Z</time>
      </trkpt>
      <trkpt lat="10.201848" lon="-68.006601">
        <ele>481.50</ele>
        <time>2022-10-26T13:47:04Z</time>
      </trkpt>
      <trkpt lat="10.202006" lon="-68.006587">
        <ele>481.60</ele>
        <time>2022-10-26T13:47:06Z</time>
      </trkpt>
      <trkpt lat="10.202072" lon="-68.006606">
        <ele>481.70</ele>
        <time>2022-10-26T13:47:07Z</time>
      </trkpt>
      <trkpt lat="10.202142" lon="-68.006639">
        <ele>481.70</ele>
        <time>2022-10-26T13:47:08Z</time>
      </trkpt>
      <trkpt lat="10.202203" lon="-68.006661">
        <ele>481.70</ele>
        <time>2022-10-26T13:47:09Z</time>
      </trkpt>
      <trkpt lat="10.202256" lon="-68.006665">
        <ele>481.70</ele>
        <time>2022-10-26T13:47:10Z</time>
      </trkpt>
      <trkpt lat="10.202323" lon="-68.006668">
        <ele>481.70</ele>
        <time>2022-10-26T13:47:11Z</time>
      </trkpt>
      <trkpt lat="10.202409" lon="-68.006713">
        <ele>481.70</ele>
        <time>2022-10-26T13:47:12Z</time>
      </trkpt>
      <trkpt lat="10.202475" lon="-68.006765">
        <ele>481.70</ele>
        <time>2022-10-26T13:47:13Z</time>
      </trkpt>
      <trkpt lat="10.202521" lon="-68.006804">
        <ele>481.60</ele>
        <time>2022-10-26T13:47:14Z</time>
      </trkpt>
      <trkpt lat="10.202554" lon="-68.006815">
        <ele>481.60</ele>
        <time>2022-10-26T13:47:15Z</time>
      </trkpt>
      <trkpt lat="10.202588" lon="-68.006811">
        <ele>481.60</ele>
        <time>2022-10-26T13:47:16Z</time>
      </trkpt>
      <trkpt lat="10.202596" lon="-68.006807">
        <ele>481.60</ele>
        <time>2022-10-26T13:47:17Z</time>
      </trkpt>
      <trkpt lat="10.202644" lon="-68.006810">
        <ele>481.60</ele>
        <time>2022-10-26T13:47:18Z</time>
      </trkpt>
      <trkpt lat="10.202677" lon="-68.006814">
        <ele>481.60</ele>
        <time>2022-10-26T13:47:20Z</time>
      </trkpt>
      <trkpt lat="10.202716" lon="-68.006808">
        <ele>481.50</ele>
        <time>2022-10-26T13:47:21Z</time>
      </trkpt>
      <trkpt lat="10.202760" lon="-68.006807">
        <ele>481.50</ele>
        <time>2022-10-26T13:47:22Z</time>
      </trkpt>
      <trkpt lat="10.202829" lon="-68.006805">
        <ele>481.60</ele>
        <time>2022-10-26T13:47:24Z</time>
      </trkpt>
      <trkpt lat="10.202864" lon="-68.006803">
        <ele>481.60</ele>
        <time>2022-10-26T13:47:25Z</time>
      </trkpt>
      <trkpt lat="10.202916" lon="-68.006800">
        <ele>481.60</ele>
        <time>2022-10-26T13:47:26Z</time>
      </trkpt>
      <trkpt lat="10.202946" lon="-68.006798">
        <ele>481.60</ele>
        <time>2022-10-26T13:47:27Z</time>
      </trkpt>
      <trkpt lat="10.202977" lon="-68.006795">
        <ele>481.60</ele>
        <time>2022-10-26T13:47:28Z</time>
      </trkpt>
      <trkpt lat="10.203009" lon="-68.006792">
        <ele>481.60</ele>
        <time>2022-10-26T13:47:29Z</time>
      </trkpt>
      <trkpt lat="10.203053" lon="-68.006786">
        <ele>481.60</ele>
        <time>2022-10-26T13:47:30Z</time>
      </trkpt>
      <trkpt lat="10.203107" lon="-68.006783">
        <ele>481.70</ele>
        <time>2022-10-26T13:47:31Z</time>
      </trkpt>
      <trkpt lat="10.203173" lon="-68.006785">
        <ele>481.70</ele>
        <time>2022-10-26T13:47:33Z</time>
      </trkpt>
      <trkpt lat="10.203222" lon="-68.006790">
        <ele>481.70</ele>
        <time>2022-10-26T13:47:34Z</time>
      </trkpt>
      <trkpt lat="10.203263" lon="-68.006797">
        <ele>481.70</ele>
        <time>2022-10-26T13:47:35Z</time>
      </trkpt>
      <trkpt lat="10.203331" lon="-68.006812">
        <ele>481.80</ele>
        <time>2022-10-26T13:47:36Z</time>
      </trkpt>
      <trkpt lat="10.203423" lon="-68.006828">
        <ele>481.80</ele>
        <time>2022-10-26T13:47:38Z</time>
      </trkpt>
      <trkpt lat="10.203520" lon="-68.006848">
        <ele>481.90</ele>
        <time>2022-10-26T13:47:39Z</time>
      </trkpt>
      <trkpt lat="10.203570" lon="-68.006861">
        <ele>482.00</ele>
        <time>2022-10-26T13:47:40Z</time>
      </trkpt>
      <trkpt lat="10.203620" lon="-68.006874">
        <ele>482.00</ele>
        <time>2022-10-26T13:47:41Z</time>
      </trkpt>
      <trkpt lat="10.203718" lon="-68.006847">
        <ele>482.10</ele>
        <time>2022-10-26T13:47:43Z</time>
      </trkpt>
      <trkpt lat="10.203782" lon="-68.006830">
        <ele>482.20</ele>
        <time>2022-10-26T13:47:44Z</time>
      </trkpt>
      <trkpt lat="10.203831" lon="-68.006821">
        <ele>482.20</ele>
        <time>2022-10-26T13:47:46Z</time>
      </trkpt>
      <trkpt lat="10.203920" lon="-68.006806">
        <ele>482.40</ele>
        <time>2022-10-26T13:47:47Z</time>
      </trkpt>
      <trkpt lat="10.203971" lon="-68.006866">
        <ele>482.50</ele>
        <time>2022-10-26T13:47:48Z</time>
      </trkpt>
      <trkpt lat="10.204025" lon="-68.006914">
        <ele>482.60</ele>
        <time>2022-10-26T13:47:49Z</time>
      </trkpt>
      <trkpt lat="10.204066" lon="-68.006951">
        <ele>482.60</ele>
        <time>2022-10-26T13:47:50Z</time>
      </trkpt>
      <trkpt lat="10.204086" lon="-68.006923">
        <ele>482.70</ele>
        <time>2022-10-26T13:47:51Z</time>
      </trkpt>
      <trkpt lat="10.204088" lon="-68.006906">
        <ele>482.70</ele>
        <time>2022-10-26T13:47:52Z</time>
      </trkpt>
      <trkpt lat="10.204125" lon="-68.006901">
        <ele>482.70</ele>
        <time>2022-10-26T13:47:54Z</time>
      </trkpt>
      <trkpt lat="10.204179" lon="-68.006917">
        <ele>482.80</ele>
        <time>2022-10-26T13:47:55Z</time>
      </trkpt>
      <trkpt lat="10.204218" lon="-68.006930">
        <ele>482.80</ele>
        <time>2022-10-26T13:47:56Z</time>
      </trkpt>
      <trkpt lat="10.204299" lon="-68.006932">
        <ele>482.80</ele>
        <time>2022-10-26T13:47:58Z</time>
      </trkpt>
      <trkpt lat="10.204340" lon="-68.006923">
        <ele>482.80</ele>
        <time>2022-10-26T13:47:59Z</time>
      </trkpt>
      <trkpt lat="10.204406" lon="-68.006920">
        <ele>482.80</ele>
        <time>2022-10-26T13:48:00Z</time>
      </trkpt>
      <trkpt lat="10.204460" lon="-68.006926">
        <ele>482.80</ele>
        <time>2022-10-26T13:48:02Z</time>
      </trkpt>
      <trkpt lat="10.204509" lon="-68.006926">
        <ele>482.80</ele>
        <time>2022-10-26T13:48:03Z</time>
      </trkpt>
      <trkpt lat="10.204535" lon="-68.006922">
        <ele>482.80</ele>
        <time>2022-10-26T13:48:04Z</time>
      </trkpt>
      <trkpt lat="10.204575" lon="-68.006919">
        <ele>482.80</ele>
        <time>2022-10-26T13:48:05Z</time>
      </trkpt>
      <trkpt lat="10.204588" lon="-68.006920">
        <ele>482.80</ele>
        <time>2022-10-26T13:48:06Z</time>
      </trkpt>
      <trkpt lat="10.204638" lon="-68.006936">
        <ele>482.80</ele>
        <time>2022-10-26T13:48:08Z</time>
      </trkpt>
      <trkpt lat="10.204678" lon="-68.006957">
        <ele>482.80</ele>
        <time>2022-10-26T13:48:09Z</time>
      </trkpt>
      <trkpt lat="10.204708" lon="-68.006957">
        <ele>482.80</ele>
        <time>2022-10-26T13:48:10Z</time>
      </trkpt>
      <trkpt lat="10.204744" lon="-68.006957">
        <ele>482.80</ele>
        <time>2022-10-26T13:48:11Z</time>
      </trkpt>
      <trkpt lat="10.204758" lon="-68.006963">
        <ele>482.80</ele>
        <time>2022-10-26T13:48:12Z</time>
      </trkpt>
      <trkpt lat="10.204788" lon="-68.006974">
        <ele>482.80</ele>
        <time>2022-10-26T13:48:13Z</time>
      </trkpt>
      <trkpt lat="10.204818" lon="-68.006980">
        <ele>482.70</ele>
        <time>2022-10-26T13:48:14Z</time>
      </trkpt>
      <trkpt lat="10.204855" lon="-68.006988">
        <ele>482.70</ele>
        <time>2022-10-26T13:48:16Z</time>
      </trkpt>
      <trkpt lat="10.204918" lon="-68.007014">
        <ele>482.70</ele>
        <time>2022-10-26T13:48:18Z</time>
      </trkpt>
      <trkpt lat="10.204929" lon="-68.007019">
        <ele>482.70</ele>
        <time>2022-10-26T13:48:19Z</time>
      </trkpt>
      <trkpt lat="10.204959" lon="-68.007032">
        <ele>482.60</ele>
        <time>2022-10-26T13:48:20Z</time>
      </trkpt>
      <trkpt lat="10.204991" lon="-68.007043">
        <ele>482.60</ele>
        <time>2022-10-26T13:48:22Z</time>
      </trkpt>
      <trkpt lat="10.205040" lon="-68.007064">
        <ele>482.60</ele>
        <time>2022-10-26T13:48:24Z</time>
      </trkpt>
      <trkpt lat="10.205056" lon="-68.007067">
        <ele>482.60</ele>
        <time>2022-10-26T13:48:25Z</time>
      </trkpt>
      <trkpt lat="10.205073" lon="-68.007064">
        <ele>482.60</ele>
        <time>2022-10-26T13:48:26Z</time>
      </trkpt>
      <trkpt lat="10.205092" lon="-68.007067">
        <ele>482.50</ele>
        <time>2022-10-26T13:48:27Z</time>
      </trkpt>
      <trkpt lat="10.205110" lon="-68.007070">
        <ele>482.50</ele>
        <time>2022-10-26T13:48:28Z</time>
      </trkpt>
      <trkpt lat="10.205127" lon="-68.007074">
        <ele>482.50</ele>
        <time>2022-10-26T13:48:29Z</time>
      </trkpt>
      <trkpt lat="10.205142" lon="-68.007079">
        <ele>482.50</ele>
        <time>2022-10-26T13:48:30Z</time>
      </trkpt>
      <trkpt lat="10.205157" lon="-68.007084">
        <ele>482.50</ele>
        <time>2022-10-26T13:48:31Z</time>
      </trkpt>
      <trkpt lat="10.205175" lon="-68.007090">
        <ele>482.50</ele>
        <time>2022-10-26T13:48:32Z</time>
      </trkpt>
      <trkpt lat="10.205189" lon="-68.007096">
        <ele>482.50</ele>
        <time>2022-10-26T13:48:33Z</time>
      </trkpt>
      <trkpt lat="10.205200" lon="-68.007100">
        <ele>482.50</ele>
        <time>2022-10-26T13:48:34Z</time>
      </trkpt>
      <trkpt lat="10.205223" lon="-68.007110">
        <ele>482.40</ele>
        <time>2022-10-26T13:48:36Z</time>
      </trkpt>
      <trkpt lat="10.205254" lon="-68.007113">
        <ele>482.30</ele>
        <time>2022-10-26T13:48:37Z</time>
      </trkpt>
      <trkpt lat="10.205263" lon="-68.007113">
        <ele>482.30</ele>
        <time>2022-10-26T13:48:38Z</time>
      </trkpt>
      <trkpt lat="10.205287" lon="-68.007033">
        <ele>482.40</ele>
        <time>2022-10-26T13:48:38Z</time>
      </trkpt>
      <trkpt lat="10.205420" lon="-68.007057">
        <ele>482.30</ele>
        <time>2022-10-26T13:48:40Z</time>
      </trkpt>
      <trkpt lat="10.205545" lon="-68.007083">
        <ele>482.20</ele>
        <time>2022-10-26T13:48:42Z</time>
      </trkpt>
      <trkpt lat="10.205682" lon="-68.007105">
        <ele>482.20</ele>
        <time>2022-10-26T13:48:44Z</time>
      </trkpt>
      <trkpt lat="10.205817" lon="-68.007117">
        <ele>482.10</ele>
        <time>2022-10-26T13:48:46Z</time>
      </trkpt>
      <trkpt lat="10.205942" lon="-68.007133">
        <ele>482.10</ele>
        <time>2022-10-26T13:48:48Z</time>
      </trkpt>
      <trkpt lat="10.206058" lon="-68.007153">
        <ele>482.10</ele>
        <time>2022-10-26T13:48:50Z</time>
      </trkpt>
      <trkpt lat="10.206173" lon="-68.007170">
        <ele>482.10</ele>
        <time>2022-10-26T13:48:52Z</time>
      </trkpt>
      <trkpt lat="10.206287" lon="-68.007190">
        <ele>482.10</ele>
        <time>2022-10-26T13:48:54Z</time>
      </trkpt>
      <trkpt lat="10.206390" lon="-68.007208">
        <ele>482.10</ele>
        <time>2022-10-26T13:48:56Z</time>
      </trkpt>
      <trkpt lat="10.206498" lon="-68.007232">
        <ele>482.10</ele>
        <time>2022-10-26T13:48:58Z</time>
      </trkpt>
      <trkpt lat="10.206612" lon="-68.007233">
        <ele>482.10</ele>
        <time>2022-10-26T13:49:00Z</time>
      </trkpt>
      <trkpt lat="10.206727" lon="-68.007228">
        <ele>482.00</ele>
        <time>2022-10-26T13:49:02Z</time>
      </trkpt>
      <trkpt lat="10.206837" lon="-68.007230">
        <ele>481.90</ele>
        <time>2022-10-26T13:49:04Z</time>
      </trkpt>
      <trkpt lat="10.206953" lon="-68.007252">
        <ele>482.00</ele>
        <time>2022-10-26T13:49:06Z</time>
      </trkpt>
      <trkpt lat="10.207065" lon="-68.007270">
        <ele>482.00</ele>
        <time>2022-10-26T13:49:08Z</time>
      </trkpt>
      <trkpt lat="10.207175" lon="-68.007290">
        <ele>482.00</ele>
        <time>2022-10-26T13:49:10Z</time>
      </trkpt>
      <trkpt lat="10.207285" lon="-68.007313">
        <ele>482.00</ele>
        <time>2022-10-26T13:49:12Z</time>
      </trkpt>
      <trkpt lat="10.207395" lon="-68.007325">
        <ele>482.00</ele>
        <time>2022-10-26T13:49:14Z</time>
      </trkpt>
      <trkpt lat="10.207498" lon="-68.007338">
        <ele>482.00</ele>
        <time>2022-10-26T13:49:16Z</time>
      </trkpt>
      <trkpt lat="10.207603" lon="-68.007353">
        <ele>482.00</ele>
        <time>2022-10-26T13:49:18Z</time>
      </trkpt>
      <trkpt lat="10.207715" lon="-68.007368">
        <ele>482.00</ele>
        <time>2022-10-26T13:49:20Z</time>
      </trkpt>
      <trkpt lat="10.207812" lon="-68.007402">
        <ele>482.00</ele>
        <time>2022-10-26T13:49:22Z</time>
      </trkpt>
      <trkpt lat="10.207918" lon="-68.007443">
        <ele>482.10</ele>
        <time>2022-10-26T13:49:24Z</time>
      </trkpt>
      <trkpt lat="10.208007" lon="-68.007473">
        <ele>482.20</ele>
        <time>2022-10-26T13:49:26Z</time>
      </trkpt>
      <trkpt lat="10.208100" lon="-68.007492">
        <ele>482.30</ele>
        <time>2022-10-26T13:49:28Z</time>
      </trkpt>
      <trkpt lat="10.208198" lon="-68.007502">
        <ele>482.50</ele>
        <time>2022-10-26T13:49:30Z</time>
      </trkpt>
      <trkpt lat="10.208297" lon="-68.007517">
        <ele>482.60</ele>
        <time>2022-10-26T13:49:32Z</time>
      </trkpt>
      <trkpt lat="10.208418" lon="-68.007520">
        <ele>482.70</ele>
        <time>2022-10-26T13:49:35Z</time>
      </trkpt>
      <trkpt lat="10.208528" lon="-68.007517">
        <ele>482.80</ele>
        <time>2022-10-26T13:49:37Z</time>
      </trkpt>
      <trkpt lat="10.208635" lon="-68.007547">
        <ele>482.90</ele>
        <time>2022-10-26T13:49:39Z</time>
      </trkpt>
      <trkpt lat="10.208755" lon="-68.007552">
        <ele>483.00</ele>
        <time>2022-10-26T13:49:41Z</time>
      </trkpt>
      <trkpt lat="10.208853" lon="-68.007580">
        <ele>483.00</ele>
        <time>2022-10-26T13:49:43Z</time>
      </trkpt>
      <trkpt lat="10.208957" lon="-68.007612">
        <ele>483.00</ele>
        <time>2022-10-26T13:49:45Z</time>
      </trkpt>
      <trkpt lat="10.209055" lon="-68.007630">
        <ele>483.00</ele>
        <time>2022-10-26T13:49:47Z</time>
      </trkpt>
      <trkpt lat="10.209168" lon="-68.007678">
        <ele>482.90</ele>
        <time>2022-10-26T13:49:49Z</time>
      </trkpt>
      <trkpt lat="10.209287" lon="-68.007710">
        <ele>483.00</ele>
        <time>2022-10-26T13:49:51Z</time>
      </trkpt>
      <trkpt lat="10.209400" lon="-68.007728">
        <ele>483.00</ele>
        <time>2022-10-26T13:49:53Z</time>
      </trkpt>
      <trkpt lat="10.209530" lon="-68.007733">
        <ele>483.00</ele>
        <time>2022-10-26T13:49:55Z</time>
      </trkpt>
      <trkpt lat="10.209645" lon="-68.007743">
        <ele>483.00</ele>
        <time>2022-10-26T13:49:57Z</time>
      </trkpt>
      <trkpt lat="10.209750" lon="-68.007762">
        <ele>483.00</ele>
        <time>2022-10-26T13:49:59Z</time>
      </trkpt>
      <trkpt lat="10.209837" lon="-68.007798">
        <ele>483.00</ele>
        <time>2022-10-26T13:50:01Z</time>
      </trkpt>
      <trkpt lat="10.209940" lon="-68.007832">
        <ele>483.00</ele>
        <time>2022-10-26T13:50:03Z</time>
      </trkpt>
      <trkpt lat="10.210042" lon="-68.007855">
        <ele>483.00</ele>
        <time>2022-10-26T13:50:05Z</time>
      </trkpt>
      <trkpt lat="10.210147" lon="-68.007873">
        <ele>483.00</ele>
        <time>2022-10-26T13:50:07Z</time>
      </trkpt>
      <trkpt lat="10.210252" lon="-68.007890">
        <ele>483.00</ele>
        <time>2022-10-26T13:50:09Z</time>
      </trkpt>
      <trkpt lat="10.210350" lon="-68.007888">
        <ele>482.90</ele>
        <time>2022-10-26T13:50:11Z</time>
      </trkpt>
      <trkpt lat="10.210443" lon="-68.007875">
        <ele>482.90</ele>
        <time>2022-10-26T13:50:13Z</time>
      </trkpt>
      <trkpt lat="10.210535" lon="-68.007890">
        <ele>482.90</ele>
        <time>2022-10-26T13:50:16Z</time>
      </trkpt>
      <trkpt lat="10.210655" lon="-68.007915">
        <ele>482.90</ele>
        <time>2022-10-26T13:50:19Z</time>
      </trkpt>
      <trkpt lat="10.210752" lon="-68.007933">
        <ele>482.80</ele>
        <time>2022-10-26T13:50:21Z</time>
      </trkpt>
      <trkpt lat="10.210858" lon="-68.007953">
        <ele>482.80</ele>
        <time>2022-10-26T13:50:23Z</time>
      </trkpt>
      <trkpt lat="10.210965" lon="-68.007963">
        <ele>482.80</ele>
        <time>2022-10-26T13:50:25Z</time>
      </trkpt>
      <trkpt lat="10.211058" lon="-68.007973">
        <ele>482.80</ele>
        <time>2022-10-26T13:50:27Z</time>
      </trkpt>
      <trkpt lat="10.211158" lon="-68.007990">
        <ele>482.90</ele>
        <time>2022-10-26T13:50:29Z</time>
      </trkpt>
      <trkpt lat="10.211280" lon="-68.007988">
        <ele>482.90</ele>
        <time>2022-10-26T13:50:31Z</time>
      </trkpt>
      <trkpt lat="10.211412" lon="-68.007990">
        <ele>483.00</ele>
        <time>2022-10-26T13:50:33Z</time>
      </trkpt>
      <trkpt lat="10.211540" lon="-68.008008">
        <ele>483.00</ele>
        <time>2022-10-26T13:50:35Z</time>
      </trkpt>
      <trkpt lat="10.211667" lon="-68.008037">
        <ele>483.00</ele>
        <time>2022-10-26T13:50:37Z</time>
      </trkpt>
      <trkpt lat="10.211792" lon="-68.008068">
        <ele>483.10</ele>
        <time>2022-10-26T13:50:39Z</time>
      </trkpt>
      <trkpt lat="10.211923" lon="-68.008098">
        <ele>483.20</ele>
        <time>2022-10-26T13:50:41Z</time>
      </trkpt>
      <trkpt lat="10.212027" lon="-68.008128">
        <ele>483.20</ele>
        <time>2022-10-26T13:50:43Z</time>
      </trkpt>
      <trkpt lat="10.212143" lon="-68.008145">
        <ele>483.30</ele>
        <time>2022-10-26T13:50:45Z</time>
      </trkpt>
      <trkpt lat="10.212257" lon="-68.008182">
        <ele>483.20</ele>
        <time>2022-10-26T13:50:48Z</time>
      </trkpt>
      <trkpt lat="10.212352" lon="-68.008192">
        <ele>483.10</ele>
        <time>2022-10-26T13:50:50Z</time>
      </trkpt>
      <trkpt lat="10.212458" lon="-68.008192">
        <ele>483.00</ele>
        <time>2022-10-26T13:50:52Z</time>
      </trkpt>
      <trkpt lat="10.212570" lon="-68.008207">
        <ele>483.00</ele>
        <time>2022-10-26T13:50:54Z</time>
      </trkpt>
      <trkpt lat="10.212687" lon="-68.008213">
        <ele>483.10</ele>
        <time>2022-10-26T13:50:56Z</time>
      </trkpt>
      <trkpt lat="10.212808" lon="-68.008228">
        <ele>483.20</ele>
        <time>2022-10-26T13:50:58Z</time>
      </trkpt>
      <trkpt lat="10.212933" lon="-68.008245">
        <ele>483.30</ele>
        <time>2022-10-26T13:51:00Z</time>
      </trkpt>
      <trkpt lat="10.213060" lon="-68.008260">
        <ele>483.40</ele>
        <time>2022-10-26T13:51:02Z</time>
      </trkpt>
      <trkpt lat="10.213163" lon="-68.008277">
        <ele>483.40</ele>
        <time>2022-10-26T13:51:04Z</time>
      </trkpt>
      <trkpt lat="10.213257" lon="-68.008298">
        <ele>483.50</ele>
        <time>2022-10-26T13:51:06Z</time>
      </trkpt>
      <trkpt lat="10.213348" lon="-68.008325">
        <ele>483.50</ele>
        <time>2022-10-26T13:51:08Z</time>
      </trkpt>
      <trkpt lat="10.213450" lon="-68.008352">
        <ele>483.50</ele>
        <time>2022-10-26T13:51:10Z</time>
      </trkpt>
      <trkpt lat="10.213562" lon="-68.008368">
        <ele>483.50</ele>
        <time>2022-10-26T13:51:12Z</time>
      </trkpt>
      <trkpt lat="10.213693" lon="-68.008390">
        <ele>483.50</ele>
        <time>2022-10-26T13:51:14Z</time>
      </trkpt>
      <trkpt lat="10.213817" lon="-68.008407">
        <ele>483.60</ele>
        <time>2022-10-26T13:51:16Z</time>
      </trkpt>
      <trkpt lat="10.213932" lon="-68.008427">
        <ele>483.60</ele>
        <time>2022-10-26T13:51:18Z</time>
      </trkpt>
      <trkpt lat="10.214052" lon="-68.008465">
        <ele>483.60</ele>
        <time>2022-10-26T13:51:20Z</time>
      </trkpt>
      <trkpt lat="10.214158" lon="-68.008445">
        <ele>483.60</ele>
        <time>2022-10-26T13:51:22Z</time>
      </trkpt>
      <trkpt lat="10.214263" lon="-68.008455">
        <ele>483.60</ele>
        <time>2022-10-26T13:51:24Z</time>
      </trkpt>
      <trkpt lat="10.214378" lon="-68.008465">
        <ele>483.60</ele>
        <time>2022-10-26T13:51:26Z</time>
      </trkpt>
      <trkpt lat="10.214480" lon="-68.008478">
        <ele>483.60</ele>
        <time>2022-10-26T13:51:28Z</time>
      </trkpt>
      <trkpt lat="10.214575" lon="-68.008508">
        <ele>483.70</ele>
        <time>2022-10-26T13:51:30Z</time>
      </trkpt>
      <trkpt lat="10.214670" lon="-68.008543">
        <ele>483.80</ele>
        <time>2022-10-26T13:51:32Z</time>
      </trkpt>
      <trkpt lat="10.214787" lon="-68.008575">
        <ele>483.90</ele>
        <time>2022-10-26T13:51:34Z</time>
      </trkpt>
      <trkpt lat="10.214892" lon="-68.008605">
        <ele>484.00</ele>
        <time>2022-10-26T13:51:36Z</time>
      </trkpt>
      <trkpt lat="10.215000" lon="-68.008625">
        <ele>484.00</ele>
        <time>2022-10-26T13:51:38Z</time>
      </trkpt>
      <trkpt lat="10.215107" lon="-68.008642">
        <ele>484.10</ele>
        <time>2022-10-26T13:51:40Z</time>
      </trkpt>
      <trkpt lat="10.215223" lon="-68.008658">
        <ele>484.20</ele>
        <time>2022-10-26T13:51:42Z</time>
      </trkpt>
      <trkpt lat="10.215348" lon="-68.008678">
        <ele>484.30</ele>
        <time>2022-10-26T13:51:44Z</time>
      </trkpt>
      <trkpt lat="10.215477" lon="-68.008700">
        <ele>484.30</ele>
        <time>2022-10-26T13:51:46Z</time>
      </trkpt>
      <trkpt lat="10.215605" lon="-68.008730">
        <ele>484.30</ele>
        <time>2022-10-26T13:51:48Z</time>
      </trkpt>
      <trkpt lat="10.215740" lon="-68.008753">
        <ele>484.30</ele>
        <time>2022-10-26T13:51:50Z</time>
      </trkpt>
      <trkpt lat="10.215858" lon="-68.008767">
        <ele>484.30</ele>
        <time>2022-10-26T13:51:52Z</time>
      </trkpt>
      <trkpt lat="10.215978" lon="-68.008777">
        <ele>484.30</ele>
        <time>2022-10-26T13:51:54Z</time>
      </trkpt>
      <trkpt lat="10.216093" lon="-68.008795">
        <ele>484.20</ele>
        <time>2022-10-26T13:51:56Z</time>
      </trkpt>
      <trkpt lat="10.216208" lon="-68.008813">
        <ele>484.20</ele>
        <time>2022-10-26T13:51:58Z</time>
      </trkpt>
      <trkpt lat="10.216327" lon="-68.008822">
        <ele>484.10</ele>
        <time>2022-10-26T13:52:00Z</time>
      </trkpt>
      <trkpt lat="10.216465" lon="-68.008837">
        <ele>484.00</ele>
        <time>2022-10-26T13:52:02Z</time>
      </trkpt>
      <trkpt lat="10.216598" lon="-68.008852">
        <ele>484.00</ele>
        <time>2022-10-26T13:52:04Z</time>
      </trkpt>
      <trkpt lat="10.216725" lon="-68.008868">
        <ele>484.00</ele>
        <time>2022-10-26T13:52:06Z</time>
      </trkpt>
      <trkpt lat="10.216847" lon="-68.008883">
        <ele>484.00</ele>
        <time>2022-10-26T13:52:08Z</time>
      </trkpt>
      <trkpt lat="10.216957" lon="-68.008910">
        <ele>484.00</ele>
        <time>2022-10-26T13:52:10Z</time>
      </trkpt>
      <trkpt lat="10.217078" lon="-68.008922">
        <ele>484.00</ele>
        <time>2022-10-26T13:52:12Z</time>
      </trkpt>
      <trkpt lat="10.217192" lon="-68.008933">
        <ele>483.90</ele>
        <time>2022-10-26T13:52:14Z</time>
      </trkpt>
      <trkpt lat="10.217312" lon="-68.008950">
        <ele>483.90</ele>
        <time>2022-10-26T13:52:16Z</time>
      </trkpt>
      <trkpt lat="10.217425" lon="-68.008963">
        <ele>483.90</ele>
        <time>2022-10-26T13:52:18Z</time>
      </trkpt>
      <trkpt lat="10.217545" lon="-68.008965">
        <ele>483.90</ele>
        <time>2022-10-26T13:52:20Z</time>
      </trkpt>
      <trkpt lat="10.217665" lon="-68.009003">
        <ele>483.90</ele>
        <time>2022-10-26T13:52:22Z</time>
      </trkpt>
      <trkpt lat="10.217785" lon="-68.009033">
        <ele>483.80</ele>
        <time>2022-10-26T13:52:24Z</time>
      </trkpt>
      <trkpt lat="10.217905" lon="-68.009055">
        <ele>483.80</ele>
        <time>2022-10-26T13:52:26Z</time>
      </trkpt>
      <trkpt lat="10.218022" lon="-68.009077">
        <ele>483.80</ele>
        <time>2022-10-26T13:52:28Z</time>
      </trkpt>
      <trkpt lat="10.218140" lon="-68.009088">
        <ele>483.70</ele>
        <time>2022-10-26T13:52:30Z</time>
      </trkpt>
      <trkpt lat="10.218272" lon="-68.009103">
        <ele>483.70</ele>
        <time>2022-10-26T13:52:32Z</time>
      </trkpt>
      <trkpt lat="10.218410" lon="-68.009117">
        <ele>483.70</ele>
        <time>2022-10-26T13:52:34Z</time>
      </trkpt>
      <trkpt lat="10.218548" lon="-68.009133">
        <ele>483.70</ele>
        <time>2022-10-26T13:52:36Z</time>
      </trkpt>
      <trkpt lat="10.218690" lon="-68.009150">
        <ele>483.70</ele>
        <time>2022-10-26T13:52:38Z</time>
      </trkpt>
      <trkpt lat="10.218828" lon="-68.009173">
        <ele>483.60</ele>
        <time>2022-10-26T13:52:40Z</time>
      </trkpt>
      <trkpt lat="10.218963" lon="-68.009188">
        <ele>483.60</ele>
        <time>2022-10-26T13:52:42Z</time>
      </trkpt>
      <trkpt lat="10.219077" lon="-68.009200">
        <ele>483.50</ele>
        <time>2022-10-26T13:52:44Z</time>
      </trkpt>
      <trkpt lat="10.219185" lon="-68.009212">
        <ele>483.50</ele>
        <time>2022-10-26T13:52:46Z</time>
      </trkpt>
      <trkpt lat="10.219302" lon="-68.009235">
        <ele>483.50</ele>
        <time>2022-10-26T13:52:48Z</time>
      </trkpt>
      <trkpt lat="10.219422" lon="-68.009252">
        <ele>483.50</ele>
        <time>2022-10-26T13:52:50Z</time>
      </trkpt>
      <trkpt lat="10.219538" lon="-68.009273">
        <ele>483.50</ele>
        <time>2022-10-26T13:52:52Z</time>
      </trkpt>
      <trkpt lat="10.219647" lon="-68.009298">
        <ele>483.50</ele>
        <time>2022-10-26T13:52:54Z</time>
      </trkpt>
      <trkpt lat="10.219755" lon="-68.009332">
        <ele>483.50</ele>
        <time>2022-10-26T13:52:56Z</time>
      </trkpt>
      <trkpt lat="10.219868" lon="-68.009338">
        <ele>483.40</ele>
        <time>2022-10-26T13:52:58Z</time>
      </trkpt>
      <trkpt lat="10.219970" lon="-68.009347">
        <ele>483.40</ele>
        <time>2022-10-26T13:53:00Z</time>
      </trkpt>
      <trkpt lat="10.220078" lon="-68.009360">
        <ele>483.30</ele>
        <time>2022-10-26T13:53:02Z</time>
      </trkpt>
      <trkpt lat="10.220187" lon="-68.009377">
        <ele>483.30</ele>
        <time>2022-10-26T13:53:04Z</time>
      </trkpt>
      <trkpt lat="10.220295" lon="-68.009383">
        <ele>483.30</ele>
        <time>2022-10-26T13:53:06Z</time>
      </trkpt>
      <trkpt lat="10.220407" lon="-68.009410">
        <ele>483.30</ele>
        <time>2022-10-26T13:53:08Z</time>
      </trkpt>
      <trkpt lat="10.220512" lon="-68.009442">
        <ele>483.30</ele>
        <time>2022-10-26T13:53:10Z</time>
      </trkpt>
      <trkpt lat="10.220640" lon="-68.009460">
        <ele>483.20</ele>
        <time>2022-10-26T13:53:13Z</time>
      </trkpt>
      <trkpt lat="10.220743" lon="-68.009463">
        <ele>483.20</ele>
        <time>2022-10-26T13:53:15Z</time>
      </trkpt>
      <trkpt lat="10.220858" lon="-68.009485">
        <ele>483.20</ele>
        <time>2022-10-26T13:53:17Z</time>
      </trkpt>
      <trkpt lat="10.220977" lon="-68.009492">
        <ele>483.20</ele>
        <time>2022-10-26T13:53:19Z</time>
      </trkpt>
      <trkpt lat="10.221092" lon="-68.009515">
        <ele>483.10</ele>
        <time>2022-10-26T13:53:21Z</time>
      </trkpt>
      <trkpt lat="10.221210" lon="-68.009528">
        <ele>483.10</ele>
        <time>2022-10-26T13:53:23Z</time>
      </trkpt>
      <trkpt lat="10.221322" lon="-68.009552">
        <ele>483.10</ele>
        <time>2022-10-26T13:53:25Z</time>
      </trkpt>
      <trkpt lat="10.221433" lon="-68.009570">
        <ele>483.20</ele>
        <time>2022-10-26T13:53:27Z</time>
      </trkpt>
      <trkpt lat="10.221537" lon="-68.009592">
        <ele>483.20</ele>
        <time>2022-10-26T13:53:29Z</time>
      </trkpt>
      <trkpt lat="10.221638" lon="-68.009608">
        <ele>483.20</ele>
        <time>2022-10-26T13:53:31Z</time>
      </trkpt>
      <trkpt lat="10.221730" lon="-68.009630">
        <ele>483.30</ele>
        <time>2022-10-26T13:53:33Z</time>
      </trkpt>
      <trkpt lat="10.221823" lon="-68.009657">
        <ele>483.30</ele>
        <time>2022-10-26T13:53:35Z</time>
      </trkpt>
      <trkpt lat="10.221950" lon="-68.009693">
        <ele>483.30</ele>
        <time>2022-10-26T13:53:38Z</time>
      </trkpt>
      <trkpt lat="10.222068" lon="-68.009718">
        <ele>483.40</ele>
        <time>2022-10-26T13:53:41Z</time>
      </trkpt>
      <trkpt lat="10.222195" lon="-68.009712">
        <ele>483.40</ele>
        <time>2022-10-26T13:53:44Z</time>
      </trkpt>
      <trkpt lat="10.222328" lon="-68.009730">
        <ele>483.40</ele>
        <time>2022-10-26T13:53:47Z</time>
      </trkpt>
      <trkpt lat="10.222428" lon="-68.009715">
        <ele>483.40</ele>
        <time>2022-10-26T13:53:49Z</time>
      </trkpt>
      <trkpt lat="10.222532" lon="-68.009710">
        <ele>483.40</ele>
        <time>2022-10-26T13:53:51Z</time>
      </trkpt>
      <trkpt lat="10.222642" lon="-68.009710">
        <ele>483.40</ele>
        <time>2022-10-26T13:53:53Z</time>
      </trkpt>
      <trkpt lat="10.222753" lon="-68.009722">
        <ele>483.50</ele>
        <time>2022-10-26T13:53:55Z</time>
      </trkpt>
      <trkpt lat="10.222883" lon="-68.009740">
        <ele>483.50</ele>
        <time>2022-10-26T13:53:57Z</time>
      </trkpt>
      <trkpt lat="10.223008" lon="-68.009757">
        <ele>483.50</ele>
        <time>2022-10-26T13:53:59Z</time>
      </trkpt>
      <trkpt lat="10.223115" lon="-68.009787">
        <ele>483.60</ele>
        <time>2022-10-26T13:54:01Z</time>
      </trkpt>
      <trkpt lat="10.223212" lon="-68.009812">
        <ele>483.60</ele>
        <time>2022-10-26T13:54:03Z</time>
      </trkpt>
      <trkpt lat="10.223302" lon="-68.009830">
        <ele>483.60</ele>
        <time>2022-10-26T13:54:05Z</time>
      </trkpt>
      <trkpt lat="10.223392" lon="-68.009845">
        <ele>483.60</ele>
        <time>2022-10-26T13:54:07Z</time>
      </trkpt>
      <trkpt lat="10.223482" lon="-68.009862">
        <ele>483.60</ele>
        <time>2022-10-26T13:54:09Z</time>
      </trkpt>
      <trkpt lat="10.223610" lon="-68.009890">
        <ele>483.70</ele>
        <time>2022-10-26T13:54:12Z</time>
      </trkpt>
      <trkpt lat="10.223732" lon="-68.009912">
        <ele>483.80</ele>
        <time>2022-10-26T13:54:15Z</time>
      </trkpt>
      <trkpt lat="10.223833" lon="-68.009947">
        <ele>483.80</ele>
        <time>2022-10-26T13:54:18Z</time>
      </trkpt>
      <trkpt lat="10.223915" lon="-68.009988">
        <ele>483.90</ele>
        <time>2022-10-26T13:54:21Z</time>
      </trkpt>
      <trkpt lat="10.224008" lon="-68.010008">
        <ele>483.90</ele>
        <time>2022-10-26T13:54:24Z</time>
      </trkpt>
      <trkpt lat="10.224113" lon="-68.010040">
        <ele>484.00</ele>
        <time>2022-10-26T13:54:28Z</time>
      </trkpt>
      <trkpt lat="10.224203" lon="-68.010015">
        <ele>484.00</ele>
        <time>2022-10-26T13:54:32Z</time>
      </trkpt>
      <trkpt lat="10.224293" lon="-68.010027">
        <ele>484.10</ele>
        <time>2022-10-26T13:54:36Z</time>
      </trkpt>
      <trkpt lat="10.224427" lon="-68.010033">
        <ele>484.10</ele>
        <time>2022-10-26T13:54:40Z</time>
      </trkpt>
      <trkpt lat="10.224563" lon="-68.010047">
        <ele>484.20</ele>
        <time>2022-10-26T13:54:43Z</time>
      </trkpt>
      <trkpt lat="10.224657" lon="-68.010065">
        <ele>484.20</ele>
        <time>2022-10-26T13:54:45Z</time>
      </trkpt>
      <trkpt lat="10.224760" lon="-68.010080">
        <ele>484.30</ele>
        <time>2022-10-26T13:54:47Z</time>
      </trkpt>
      <trkpt lat="10.224862" lon="-68.010095">
        <ele>484.30</ele>
        <time>2022-10-26T13:54:49Z</time>
      </trkpt>
      <trkpt lat="10.224958" lon="-68.010118">
        <ele>484.30</ele>
        <time>2022-10-26T13:54:51Z</time>
      </trkpt>
      <trkpt lat="10.225065" lon="-68.010147">
        <ele>484.40</ele>
        <time>2022-10-26T13:54:53Z</time>
      </trkpt>
      <trkpt lat="10.225170" lon="-68.010173">
        <ele>484.50</ele>
        <time>2022-10-26T13:54:55Z</time>
      </trkpt>
      <trkpt lat="10.225275" lon="-68.010193">
        <ele>484.60</ele>
        <time>2022-10-26T13:54:57Z</time>
      </trkpt>
      <trkpt lat="10.225377" lon="-68.010207">
        <ele>484.70</ele>
        <time>2022-10-26T13:54:59Z</time>
      </trkpt>
      <trkpt lat="10.225487" lon="-68.010222">
        <ele>484.80</ele>
        <time>2022-10-26T13:55:01Z</time>
      </trkpt>
      <trkpt lat="10.225592" lon="-68.010240">
        <ele>484.80</ele>
        <time>2022-10-26T13:55:03Z</time>
      </trkpt>
      <trkpt lat="10.225695" lon="-68.010255">
        <ele>484.90</ele>
        <time>2022-10-26T13:55:05Z</time>
      </trkpt>
      <trkpt lat="10.225792" lon="-68.010277">
        <ele>485.00</ele>
        <time>2022-10-26T13:55:07Z</time>
      </trkpt>
      <trkpt lat="10.225902" lon="-68.010287">
        <ele>485.10</ele>
        <time>2022-10-26T13:55:09Z</time>
      </trkpt>
      <trkpt lat="10.226003" lon="-68.010308">
        <ele>485.20</ele>
        <time>2022-10-26T13:55:11Z</time>
      </trkpt>
      <trkpt lat="10.226103" lon="-68.010328">
        <ele>485.30</ele>
        <time>2022-10-26T13:55:13Z</time>
      </trkpt>
      <trkpt lat="10.226213" lon="-68.010328">
        <ele>485.30</ele>
        <time>2022-10-26T13:55:15Z</time>
      </trkpt>
      <trkpt lat="10.226315" lon="-68.010330">
        <ele>485.50</ele>
        <time>2022-10-26T13:55:17Z</time>
      </trkpt>
      <trkpt lat="10.226427" lon="-68.010338">
        <ele>485.60</ele>
        <time>2022-10-26T13:55:19Z</time>
      </trkpt>
      <trkpt lat="10.226535" lon="-68.010355">
        <ele>485.70</ele>
        <time>2022-10-26T13:55:21Z</time>
      </trkpt>
      <trkpt lat="10.226640" lon="-68.010372">
        <ele>485.80</ele>
        <time>2022-10-26T13:55:23Z</time>
      </trkpt>
      <trkpt lat="10.226753" lon="-68.010392">
        <ele>485.90</ele>
        <time>2022-10-26T13:55:25Z</time>
      </trkpt>
      <trkpt lat="10.226858" lon="-68.010403">
        <ele>486.00</ele>
        <time>2022-10-26T13:55:27Z</time>
      </trkpt>
      <trkpt lat="10.226960" lon="-68.010407">
        <ele>486.10</ele>
        <time>2022-10-26T13:55:29Z</time>
      </trkpt>
      <trkpt lat="10.227065" lon="-68.010422">
        <ele>486.20</ele>
        <time>2022-10-26T13:55:31Z</time>
      </trkpt>
      <trkpt lat="10.227160" lon="-68.010450">
        <ele>486.20</ele>
        <time>2022-10-26T13:55:33Z</time>
      </trkpt>
      <trkpt lat="10.227262" lon="-68.010468">
        <ele>486.30</ele>
        <time>2022-10-26T13:55:35Z</time>
      </trkpt>
      <trkpt lat="10.227363" lon="-68.010490">
        <ele>486.40</ele>
        <time>2022-10-26T13:55:37Z</time>
      </trkpt>
      <trkpt lat="10.227475" lon="-68.010505">
        <ele>486.50</ele>
        <time>2022-10-26T13:55:39Z</time>
      </trkpt>
      <trkpt lat="10.227592" lon="-68.010522">
        <ele>486.70</ele>
        <time>2022-10-26T13:55:41Z</time>
      </trkpt>
      <trkpt lat="10.227702" lon="-68.010542">
        <ele>486.80</ele>
        <time>2022-10-26T13:55:43Z</time>
      </trkpt>
      <trkpt lat="10.227808" lon="-68.010560">
        <ele>487.00</ele>
        <time>2022-10-26T13:55:45Z</time>
      </trkpt>
      <trkpt lat="10.227913" lon="-68.010578">
        <ele>487.10</ele>
        <time>2022-10-26T13:55:47Z</time>
      </trkpt>
      <trkpt lat="10.228022" lon="-68.010592">
        <ele>487.30</ele>
        <time>2022-10-26T13:55:49Z</time>
      </trkpt>
      <trkpt lat="10.228127" lon="-68.010613">
        <ele>487.40</ele>
        <time>2022-10-26T13:55:51Z</time>
      </trkpt>
      <trkpt lat="10.228223" lon="-68.010633">
        <ele>487.50</ele>
        <time>2022-10-26T13:55:53Z</time>
      </trkpt>
      <trkpt lat="10.228315" lon="-68.010645">
        <ele>487.60</ele>
        <time>2022-10-26T13:55:55Z</time>
      </trkpt>
      <trkpt lat="10.228445" lon="-68.010670">
        <ele>487.80</ele>
        <time>2022-10-26T13:55:58Z</time>
      </trkpt>
      <trkpt lat="10.228572" lon="-68.010693">
        <ele>488.00</ele>
        <time>2022-10-26T13:56:01Z</time>
      </trkpt>
      <trkpt lat="10.228703" lon="-68.010718">
        <ele>488.20</ele>
        <time>2022-10-26T13:56:04Z</time>
      </trkpt>
      <trkpt lat="10.228798" lon="-68.010735">
        <ele>488.40</ele>
        <time>2022-10-26T13:56:06Z</time>
      </trkpt>
      <trkpt lat="10.228888" lon="-68.010747">
        <ele>488.50</ele>
        <time>2022-10-26T13:56:08Z</time>
      </trkpt>
      <trkpt lat="10.229000" lon="-68.010755">
        <ele>488.80</ele>
        <time>2022-10-26T13:56:11Z</time>
      </trkpt>
      <trkpt lat="10.229093" lon="-68.010730">
        <ele>489.00</ele>
        <time>2022-10-26T13:56:14Z</time>
      </trkpt>
      <trkpt lat="10.229182" lon="-68.010697">
        <ele>489.10</ele>
        <time>2022-10-26T13:56:17Z</time>
      </trkpt>
      <trkpt lat="10.229268" lon="-68.010657">
        <ele>489.20</ele>
        <time>2022-10-26T13:56:20Z</time>
      </trkpt>
      <trkpt lat="10.229365" lon="-68.010615">
        <ele>489.50</ele>
        <time>2022-10-26T13:56:23Z</time>
      </trkpt>
      <trkpt lat="10.229480" lon="-68.010580">
        <ele>489.60</ele>
        <time>2022-10-26T13:56:26Z</time>
      </trkpt>
      <trkpt lat="10.229603" lon="-68.010553">
        <ele>489.70</ele>
        <time>2022-10-26T13:56:29Z</time>
      </trkpt>
      <trkpt lat="10.229702" lon="-68.010535">
        <ele>489.70</ele>
        <time>2022-10-26T13:56:31Z</time>
      </trkpt>
      <trkpt lat="10.229805" lon="-68.010528">
        <ele>489.70</ele>
        <time>2022-10-26T13:56:33Z</time>
      </trkpt>
      <trkpt lat="10.229745" lon="-68.010528">
        <ele>489.80</ele>
        <time>2022-10-26T13:56:46Z</time>
      </trkpt>
      <trkpt lat="10.229831" lon="-68.010521">
        <ele>489.80</ele>
        <time>2022-10-26T13:56:48Z</time>
      </trkpt>
      <trkpt lat="10.229871" lon="-68.010521">
        <ele>489.80</ele>
        <time>2022-10-26T13:56:49Z</time>
      </trkpt>
      <trkpt lat="10.229956" lon="-68.010528">
        <ele>489.90</ele>
        <time>2022-10-26T13:56:51Z</time>
      </trkpt>
      <trkpt lat="10.230000" lon="-68.010534">
        <ele>489.90</ele>
        <time>2022-10-26T13:56:52Z</time>
      </trkpt>
      <trkpt lat="10.230084" lon="-68.010548">
        <ele>489.90</ele>
        <time>2022-10-26T13:56:54Z</time>
      </trkpt>
      <trkpt lat="10.230159" lon="-68.010561">
        <ele>490.00</ele>
        <time>2022-10-26T13:56:56Z</time>
      </trkpt>
      <trkpt lat="10.230196" lon="-68.010574">
        <ele>490.00</ele>
        <time>2022-10-26T13:56:57Z</time>
      </trkpt>
      <trkpt lat="10.230227" lon="-68.010590">
        <ele>490.00</ele>
        <time>2022-10-26T13:56:58Z</time>
      </trkpt>
      <trkpt lat="10.230283" lon="-68.010635">
        <ele>490.10</ele>
        <time>2022-10-26T13:57:00Z</time>
      </trkpt>
      <trkpt lat="10.230328" lon="-68.010697">
        <ele>490.10</ele>
        <time>2022-10-26T13:57:02Z</time>
      </trkpt>
      <trkpt lat="10.230372" lon="-68.010753">
        <ele>490.20</ele>
        <time>2022-10-26T13:57:04Z</time>
      </trkpt>
      <trkpt lat="10.230404" lon="-68.010796">
        <ele>490.20</ele>
        <time>2022-10-26T13:57:06Z</time>
      </trkpt>
      <trkpt lat="10.230421" lon="-68.010800">
        <ele>490.30</ele>
        <time>2022-10-26T13:57:08Z</time>
      </trkpt>
      <trkpt lat="10.230423" lon="-68.010797">
        <ele>490.30</ele>
        <time>2022-10-26T13:57:09Z</time>
      </trkpt>
      <trkpt lat="10.230424" lon="-68.010795">
        <ele>490.30</ele>
        <time>2022-10-26T13:57:10Z</time>
      </trkpt>
      <trkpt lat="10.230424" lon="-68.010794">
        <ele>490.30</ele>
        <time>2022-10-26T13:57:11Z</time>
      </trkpt>
      <trkpt lat="10.230425" lon="-68.010794">
        <ele>490.30</ele>
        <time>2022-10-26T13:57:12Z</time>
      </trkpt>
      <trkpt lat="10.230425" lon="-68.010793">
        <ele>490.30</ele>
        <time>2022-10-26T13:57:14Z</time>
      </trkpt>
      <trkpt lat="10.230499" lon="-68.010789">
        <ele>489.30</ele>
        <time>2022-10-26T13:57:16Z</time>
      </trkpt>
      <trkpt lat="10.230592" lon="-68.010819">
        <ele>489.40</ele>
        <time>2022-10-26T13:57:18Z</time>
      </trkpt>
      <trkpt lat="10.230639" lon="-68.010837">
        <ele>489.50</ele>
        <time>2022-10-26T13:57:19Z</time>
      </trkpt>
      <trkpt lat="10.230722" lon="-68.010855">
        <ele>489.60</ele>
        <time>2022-10-26T13:57:21Z</time>
      </trkpt>
      <trkpt lat="10.230760" lon="-68.010864">
        <ele>489.60</ele>
        <time>2022-10-26T13:57:22Z</time>
      </trkpt>
      <trkpt lat="10.230841" lon="-68.010878">
        <ele>489.80</ele>
        <time>2022-10-26T13:57:24Z</time>
      </trkpt>
      <trkpt lat="10.230914" lon="-68.010894">
        <ele>489.90</ele>
        <time>2022-10-26T13:57:26Z</time>
      </trkpt>
      <trkpt lat="10.230947" lon="-68.010902">
        <ele>489.90</ele>
        <time>2022-10-26T13:57:27Z</time>
      </trkpt>
      <trkpt lat="10.230975" lon="-68.010910">
        <ele>489.90</ele>
        <time>2022-10-26T13:57:28Z</time>
      </trkpt>
      <trkpt lat="10.231025" lon="-68.010932">
        <ele>490.00</ele>
        <time>2022-10-26T13:57:30Z</time>
      </trkpt>
      <trkpt lat="10.231087" lon="-68.010960">
        <ele>490.10</ele>
        <time>2022-10-26T13:57:32Z</time>
      </trkpt>
      <trkpt lat="10.231125" lon="-68.010971">
        <ele>490.20</ele>
        <time>2022-10-26T13:57:33Z</time>
      </trkpt>
      <trkpt lat="10.231162" lon="-68.010980">
        <ele>490.20</ele>
        <time>2022-10-26T13:57:34Z</time>
      </trkpt>
      <trkpt lat="10.231231" lon="-68.010999">
        <ele>490.30</ele>
        <time>2022-10-26T13:57:36Z</time>
      </trkpt>
      <trkpt lat="10.231298" lon="-68.011030">
        <ele>490.30</ele>
        <time>2022-10-26T13:57:38Z</time>
      </trkpt>
      <trkpt lat="10.231334" lon="-68.011045">
        <ele>490.40</ele>
        <time>2022-10-26T13:57:39Z</time>
      </trkpt>
      <trkpt lat="10.231371" lon="-68.011052">
        <ele>490.40</ele>
        <time>2022-10-26T13:57:40Z</time>
      </trkpt>
      <trkpt lat="10.231443" lon="-68.011052">
        <ele>490.40</ele>
        <time>2022-10-26T13:57:42Z</time>
      </trkpt>
      <trkpt lat="10.231512" lon="-68.011055">
        <ele>490.50</ele>
        <time>2022-10-26T13:57:44Z</time>
      </trkpt>
      <trkpt lat="10.231556" lon="-68.011060">
        <ele>490.50</ele>
        <time>2022-10-26T13:57:45Z</time>
      </trkpt>
      <trkpt lat="10.231674" lon="-68.011063">
        <ele>490.60</ele>
        <time>2022-10-26T13:57:47Z</time>
      </trkpt>
      <trkpt lat="10.231725" lon="-68.011070">
        <ele>490.70</ele>
        <time>2022-10-26T13:57:48Z</time>
      </trkpt>
      <trkpt lat="10.231770" lon="-68.011082">
        <ele>490.70</ele>
        <time>2022-10-26T13:57:49Z</time>
      </trkpt>
      <trkpt lat="10.231809" lon="-68.011096">
        <ele>490.70</ele>
        <time>2022-10-26T13:57:50Z</time>
      </trkpt>
      <trkpt lat="10.231846" lon="-68.011111">
        <ele>490.80</ele>
        <time>2022-10-26T13:57:51Z</time>
      </trkpt>
      <trkpt lat="10.231931" lon="-68.011138">
        <ele>490.90</ele>
        <time>2022-10-26T13:57:53Z</time>
      </trkpt>
      <trkpt lat="10.232008" lon="-68.011157">
        <ele>491.00</ele>
        <time>2022-10-26T13:57:55Z</time>
      </trkpt>
      <trkpt lat="10.232052" lon="-68.011160">
        <ele>491.00</ele>
        <time>2022-10-26T13:57:56Z</time>
      </trkpt>
      <trkpt lat="10.232097" lon="-68.011161">
        <ele>491.10</ele>
        <time>2022-10-26T13:57:57Z</time>
      </trkpt>
      <trkpt lat="10.232141" lon="-68.011157">
        <ele>491.10</ele>
        <time>2022-10-26T13:57:58Z</time>
      </trkpt>
      <trkpt lat="10.232222" lon="-68.011158">
        <ele>491.10</ele>
        <time>2022-10-26T13:58:00Z</time>
      </trkpt>
      <trkpt lat="10.232299" lon="-68.011165">
        <ele>491.20</ele>
        <time>2022-10-26T13:58:02Z</time>
      </trkpt>
      <trkpt lat="10.232338" lon="-68.011172">
        <ele>491.20</ele>
        <time>2022-10-26T13:58:03Z</time>
      </trkpt>
      <trkpt lat="10.232375" lon="-68.011182">
        <ele>491.20</ele>
        <time>2022-10-26T13:58:04Z</time>
      </trkpt>
      <trkpt lat="10.232455" lon="-68.011204">
        <ele>491.30</ele>
        <time>2022-10-26T13:58:06Z</time>
      </trkpt>
      <trkpt lat="10.232542" lon="-68.011212">
        <ele>491.30</ele>
        <time>2022-10-26T13:58:08Z</time>
      </trkpt>
      <trkpt lat="10.232587" lon="-68.011203">
        <ele>491.40</ele>
        <time>2022-10-26T13:58:09Z</time>
      </trkpt>
      <trkpt lat="10.232627" lon="-68.011201">
        <ele>491.40</ele>
        <time>2022-10-26T13:58:10Z</time>
      </trkpt>
      <trkpt lat="10.232673" lon="-68.011212">
        <ele>491.40</ele>
        <time>2022-10-26T13:58:11Z</time>
      </trkpt>
      <trkpt lat="10.232725" lon="-68.011229">
        <ele>491.50</ele>
        <time>2022-10-26T13:58:12Z</time>
      </trkpt>
      <trkpt lat="10.232816" lon="-68.011249">
        <ele>491.50</ele>
        <time>2022-10-26T13:58:14Z</time>
      </trkpt>
      <trkpt lat="10.232858" lon="-68.011249">
        <ele>491.50</ele>
        <time>2022-10-26T13:58:15Z</time>
      </trkpt>
      <trkpt lat="10.232897" lon="-68.011252">
        <ele>491.50</ele>
        <time>2022-10-26T13:58:16Z</time>
      </trkpt>
      <trkpt lat="10.232977" lon="-68.011265">
        <ele>491.50</ele>
        <time>2022-10-26T13:58:18Z</time>
      </trkpt>
      <trkpt lat="10.233051" lon="-68.011280">
        <ele>491.60</ele>
        <time>2022-10-26T13:58:20Z</time>
      </trkpt>
      <trkpt lat="10.233085" lon="-68.011286">
        <ele>491.60</ele>
        <time>2022-10-26T13:58:21Z</time>
      </trkpt>
      <trkpt lat="10.233169" lon="-68.011294">
        <ele>491.60</ele>
        <time>2022-10-26T13:58:23Z</time>
      </trkpt>
      <trkpt lat="10.233248" lon="-68.011312">
        <ele>491.70</ele>
        <time>2022-10-26T13:58:25Z</time>
      </trkpt>
      <trkpt lat="10.233293" lon="-68.011318">
        <ele>491.70</ele>
        <time>2022-10-26T13:58:26Z</time>
      </trkpt>
      <trkpt lat="10.233333" lon="-68.011320">
        <ele>491.80</ele>
        <time>2022-10-26T13:58:27Z</time>
      </trkpt>
      <trkpt lat="10.233371" lon="-68.011323">
        <ele>491.80</ele>
        <time>2022-10-26T13:58:28Z</time>
      </trkpt>
      <trkpt lat="10.233446" lon="-68.011335">
        <ele>491.90</ele>
        <time>2022-10-26T13:58:30Z</time>
      </trkpt>
      <trkpt lat="10.233544" lon="-68.011356">
        <ele>491.90</ele>
        <time>2022-10-26T13:58:32Z</time>
      </trkpt>
      <trkpt lat="10.233593" lon="-68.011363">
        <ele>491.90</ele>
        <time>2022-10-26T13:58:33Z</time>
      </trkpt>
      <trkpt lat="10.233636" lon="-68.011372">
        <ele>491.90</ele>
        <time>2022-10-26T13:58:34Z</time>
      </trkpt>
      <trkpt lat="10.233719" lon="-68.011389">
        <ele>491.90</ele>
        <time>2022-10-26T13:58:36Z</time>
      </trkpt>
      <trkpt lat="10.233765" lon="-68.011392">
        <ele>492.00</ele>
        <time>2022-10-26T13:58:37Z</time>
      </trkpt>
      <trkpt lat="10.233850" lon="-68.011406">
        <ele>492.00</ele>
        <time>2022-10-26T13:58:39Z</time>
      </trkpt>
      <trkpt lat="10.233891" lon="-68.011415">
        <ele>492.00</ele>
        <time>2022-10-26T13:58:40Z</time>
      </trkpt>
      <trkpt lat="10.233969" lon="-68.011435">
        <ele>492.00</ele>
        <time>2022-10-26T13:58:42Z</time>
      </trkpt>
      <trkpt lat="10.234051" lon="-68.011458">
        <ele>492.00</ele>
        <time>2022-10-26T13:58:44Z</time>
      </trkpt>
      <trkpt lat="10.234094" lon="-68.011464">
        <ele>492.00</ele>
        <time>2022-10-26T13:58:45Z</time>
      </trkpt>
      <trkpt lat="10.234135" lon="-68.011469">
        <ele>492.00</ele>
        <time>2022-10-26T13:58:46Z</time>
      </trkpt>
      <trkpt lat="10.234217" lon="-68.011480">
        <ele>492.00</ele>
        <time>2022-10-26T13:58:48Z</time>
      </trkpt>
      <trkpt lat="10.234298" lon="-68.011494">
        <ele>492.10</ele>
        <time>2022-10-26T13:58:50Z</time>
      </trkpt>
      <trkpt lat="10.234340" lon="-68.011501">
        <ele>492.10</ele>
        <time>2022-10-26T13:58:51Z</time>
      </trkpt>
      <trkpt lat="10.234383" lon="-68.011507">
        <ele>492.10</ele>
        <time>2022-10-26T13:58:52Z</time>
      </trkpt>
      <trkpt lat="10.234459" lon="-68.011514">
        <ele>492.10</ele>
        <time>2022-10-26T13:58:54Z</time>
      </trkpt>
      <trkpt lat="10.234542" lon="-68.011520">
        <ele>492.10</ele>
        <time>2022-10-26T13:58:56Z</time>
      </trkpt>
      <trkpt lat="10.234576" lon="-68.011526">
        <ele>492.10</ele>
        <time>2022-10-26T13:58:57Z</time>
      </trkpt>
      <trkpt lat="10.234606" lon="-68.011532">
        <ele>492.10</ele>
        <time>2022-10-26T13:58:58Z</time>
      </trkpt>
      <trkpt lat="10.234661" lon="-68.011535">
        <ele>492.10</ele>
        <time>2022-10-26T13:59:00Z</time>
      </trkpt>
      <trkpt lat="10.234716" lon="-68.011545">
        <ele>492.00</ele>
        <time>2022-10-26T13:59:02Z</time>
      </trkpt>
      <trkpt lat="10.234748" lon="-68.011541">
        <ele>492.00</ele>
        <time>2022-10-26T13:59:03Z</time>
      </trkpt>
      <trkpt lat="10.234782" lon="-68.011535">
        <ele>492.00</ele>
        <time>2022-10-26T13:59:04Z</time>
      </trkpt>
      <trkpt lat="10.234856" lon="-68.011536">
        <ele>492.00</ele>
        <time>2022-10-26T13:59:06Z</time>
      </trkpt>
      <trkpt lat="10.234923" lon="-68.011551">
        <ele>492.00</ele>
        <time>2022-10-26T13:59:08Z</time>
      </trkpt>
      <trkpt lat="10.234990" lon="-68.011567">
        <ele>492.10</ele>
        <time>2022-10-26T13:59:10Z</time>
      </trkpt>
      <trkpt lat="10.235069" lon="-68.011572">
        <ele>492.10</ele>
        <time>2022-10-26T13:59:12Z</time>
      </trkpt>
      <trkpt lat="10.235141" lon="-68.011584">
        <ele>492.10</ele>
        <time>2022-10-26T13:59:14Z</time>
      </trkpt>
      <trkpt lat="10.235178" lon="-68.011592">
        <ele>492.20</ele>
        <time>2022-10-26T13:59:15Z</time>
      </trkpt>
      <trkpt lat="10.235218" lon="-68.011603">
        <ele>492.20</ele>
        <time>2022-10-26T13:59:16Z</time>
      </trkpt>
      <trkpt lat="10.235296" lon="-68.011622">
        <ele>492.20</ele>
        <time>2022-10-26T13:59:18Z</time>
      </trkpt>
      <trkpt lat="10.235375" lon="-68.011643">
        <ele>492.20</ele>
        <time>2022-10-26T13:59:20Z</time>
      </trkpt>
      <trkpt lat="10.235448" lon="-68.011632">
        <ele>492.30</ele>
        <time>2022-10-26T13:59:22Z</time>
      </trkpt>
      <trkpt lat="10.235481" lon="-68.011625">
        <ele>492.30</ele>
        <time>2022-10-26T13:59:23Z</time>
      </trkpt>
      <trkpt lat="10.235550" lon="-68.011620">
        <ele>492.30</ele>
        <time>2022-10-26T13:59:25Z</time>
      </trkpt>
      <trkpt lat="10.235589" lon="-68.011618">
        <ele>492.30</ele>
        <time>2022-10-26T13:59:26Z</time>
      </trkpt>
      <trkpt lat="10.235630" lon="-68.011621">
        <ele>492.30</ele>
        <time>2022-10-26T13:59:27Z</time>
      </trkpt>
      <trkpt lat="10.235669" lon="-68.011626">
        <ele>492.30</ele>
        <time>2022-10-26T13:59:28Z</time>
      </trkpt>
      <trkpt lat="10.235749" lon="-68.011650">
        <ele>492.30</ele>
        <time>2022-10-26T13:59:30Z</time>
      </trkpt>
      <trkpt lat="10.235816" lon="-68.011675">
        <ele>492.30</ele>
        <time>2022-10-26T13:59:32Z</time>
      </trkpt>
      <trkpt lat="10.235894" lon="-68.011699">
        <ele>492.40</ele>
        <time>2022-10-26T13:59:34Z</time>
      </trkpt>
      <trkpt lat="10.235978" lon="-68.011726">
        <ele>492.40</ele>
        <time>2022-10-26T13:59:36Z</time>
      </trkpt>
      <trkpt lat="10.236064" lon="-68.011749">
        <ele>492.40</ele>
        <time>2022-10-26T13:59:38Z</time>
      </trkpt>
      <trkpt lat="10.236147" lon="-68.011758">
        <ele>492.30</ele>
        <time>2022-10-26T13:59:40Z</time>
      </trkpt>
      <trkpt lat="10.236232" lon="-68.011772">
        <ele>492.30</ele>
        <time>2022-10-26T13:59:42Z</time>
      </trkpt>
      <trkpt lat="10.236313" lon="-68.011792">
        <ele>492.30</ele>
        <time>2022-10-26T13:59:44Z</time>
      </trkpt>
      <trkpt lat="10.236356" lon="-68.011800">
        <ele>492.30</ele>
        <time>2022-10-26T13:59:45Z</time>
      </trkpt>
      <trkpt lat="10.236440" lon="-68.011811">
        <ele>492.30</ele>
        <time>2022-10-26T13:59:47Z</time>
      </trkpt>
      <trkpt lat="10.236481" lon="-68.011816">
        <ele>492.30</ele>
        <time>2022-10-26T13:59:48Z</time>
      </trkpt>
      <trkpt lat="10.236563" lon="-68.011829">
        <ele>492.30</ele>
        <time>2022-10-26T13:59:50Z</time>
      </trkpt>
      <trkpt lat="10.236608" lon="-68.011834">
        <ele>492.30</ele>
        <time>2022-10-26T13:59:51Z</time>
      </trkpt>
      <trkpt lat="10.236706" lon="-68.011843">
        <ele>492.30</ele>
        <time>2022-10-26T13:59:53Z</time>
      </trkpt>
      <trkpt lat="10.236799" lon="-68.011848">
        <ele>492.20</ele>
        <time>2022-10-26T13:59:55Z</time>
      </trkpt>
      <trkpt lat="10.236873" lon="-68.011853">
        <ele>492.20</ele>
        <time>2022-10-26T13:59:57Z</time>
      </trkpt>
      <trkpt lat="10.236913" lon="-68.011856">
        <ele>492.20</ele>
        <time>2022-10-26T13:59:58Z</time>
      </trkpt>
      <trkpt lat="10.236998" lon="-68.011865">
        <ele>492.20</ele>
        <time>2022-10-26T14:00:00Z</time>
      </trkpt>
      <trkpt lat="10.237037" lon="-68.011868">
        <ele>492.20</ele>
        <time>2022-10-26T14:00:01Z</time>
      </trkpt>
      <trkpt lat="10.237111" lon="-68.011876">
        <ele>492.10</ele>
        <time>2022-10-26T14:00:03Z</time>
      </trkpt>
      <trkpt lat="10.237152" lon="-68.011882">
        <ele>492.10</ele>
        <time>2022-10-26T14:00:04Z</time>
      </trkpt>
      <trkpt lat="10.237239" lon="-68.011898">
        <ele>492.10</ele>
        <time>2022-10-26T14:00:06Z</time>
      </trkpt>
      <trkpt lat="10.237283" lon="-68.011903">
        <ele>492.10</ele>
        <time>2022-10-26T14:00:07Z</time>
      </trkpt>
      <trkpt lat="10.237354" lon="-68.011914">
        <ele>492.10</ele>
        <time>2022-10-26T14:00:09Z</time>
      </trkpt>
      <trkpt lat="10.237393" lon="-68.011918">
        <ele>492.10</ele>
        <time>2022-10-26T14:00:10Z</time>
      </trkpt>
      <trkpt lat="10.237480" lon="-68.011933">
        <ele>492.20</ele>
        <time>2022-10-26T14:00:12Z</time>
      </trkpt>
      <trkpt lat="10.237520" lon="-68.011937">
        <ele>492.20</ele>
        <time>2022-10-26T14:00:13Z</time>
      </trkpt>
      <trkpt lat="10.237590" lon="-68.011940">
        <ele>492.20</ele>
        <time>2022-10-26T14:00:15Z</time>
      </trkpt>
      <trkpt lat="10.237619" lon="-68.011945">
        <ele>492.20</ele>
        <time>2022-10-26T14:00:16Z</time>
      </trkpt>
      <trkpt lat="10.237675" lon="-68.011948">
        <ele>492.20</ele>
        <time>2022-10-26T14:00:18Z</time>
      </trkpt>
      <trkpt lat="10.237707" lon="-68.011954">
        <ele>492.20</ele>
        <time>2022-10-26T14:00:19Z</time>
      </trkpt>
      <trkpt lat="10.237773" lon="-68.011968">
        <ele>492.20</ele>
        <time>2022-10-26T14:00:21Z</time>
      </trkpt>
      <trkpt lat="10.237812" lon="-68.011973">
        <ele>492.20</ele>
        <time>2022-10-26T14:00:22Z</time>
      </trkpt>
      <trkpt lat="10.237852" lon="-68.011987">
        <ele>492.30</ele>
        <time>2022-10-26T14:00:23Z</time>
      </trkpt>
      <trkpt lat="10.237938" lon="-68.012008">
        <ele>492.30</ele>
        <time>2022-10-26T14:00:25Z</time>
      </trkpt>
      <trkpt lat="10.238012" lon="-68.012030">
        <ele>492.40</ele>
        <time>2022-10-26T14:00:27Z</time>
      </trkpt>
      <trkpt lat="10.238052" lon="-68.012040">
        <ele>492.40</ele>
        <time>2022-10-26T14:00:28Z</time>
      </trkpt>
      <trkpt lat="10.238127" lon="-68.012049">
        <ele>492.40</ele>
        <time>2022-10-26T14:00:30Z</time>
      </trkpt>
      <trkpt lat="10.238158" lon="-68.012053">
        <ele>492.40</ele>
        <time>2022-10-26T14:00:31Z</time>
      </trkpt>
      <trkpt lat="10.238221" lon="-68.012078">
        <ele>492.50</ele>
        <time>2022-10-26T14:00:33Z</time>
      </trkpt>
      <trkpt lat="10.238256" lon="-68.012092">
        <ele>492.50</ele>
        <time>2022-10-26T14:00:34Z</time>
      </trkpt>
      <trkpt lat="10.238321" lon="-68.012111">
        <ele>492.50</ele>
        <time>2022-10-26T14:00:36Z</time>
      </trkpt>
      <trkpt lat="10.238361" lon="-68.012116">
        <ele>492.50</ele>
        <time>2022-10-26T14:00:37Z</time>
      </trkpt>
      <trkpt lat="10.238464" lon="-68.012130">
        <ele>492.50</ele>
        <time>2022-10-26T14:00:39Z</time>
      </trkpt>
      <trkpt lat="10.238557" lon="-68.012144">
        <ele>492.60</ele>
        <time>2022-10-26T14:00:41Z</time>
      </trkpt>
      <trkpt lat="10.238627" lon="-68.012160">
        <ele>492.60</ele>
        <time>2022-10-26T14:00:43Z</time>
      </trkpt>
      <trkpt lat="10.238667" lon="-68.012169">
        <ele>492.60</ele>
        <time>2022-10-26T14:00:44Z</time>
      </trkpt>
      <trkpt lat="10.238750" lon="-68.012189">
        <ele>492.60</ele>
        <time>2022-10-26T14:00:46Z</time>
      </trkpt>
      <trkpt lat="10.238792" lon="-68.012196">
        <ele>492.60</ele>
        <time>2022-10-26T14:00:47Z</time>
      </trkpt>
      <trkpt lat="10.238884" lon="-68.012199">
        <ele>492.70</ele>
        <time>2022-10-26T14:00:49Z</time>
      </trkpt>
      <trkpt lat="10.238936" lon="-68.012208">
        <ele>492.70</ele>
        <time>2022-10-26T14:00:50Z</time>
      </trkpt>
      <trkpt lat="10.238986" lon="-68.012219">
        <ele>492.70</ele>
        <time>2022-10-26T14:00:51Z</time>
      </trkpt>
      <trkpt lat="10.239038" lon="-68.012230">
        <ele>492.70</ele>
        <time>2022-10-26T14:00:52Z</time>
      </trkpt>
      <trkpt lat="10.239133" lon="-68.012239">
        <ele>492.70</ele>
        <time>2022-10-26T14:00:54Z</time>
      </trkpt>
      <trkpt lat="10.239226" lon="-68.012252">
        <ele>492.70</ele>
        <time>2022-10-26T14:00:56Z</time>
      </trkpt>
      <trkpt lat="10.239311" lon="-68.012261">
        <ele>492.70</ele>
        <time>2022-10-26T14:00:58Z</time>
      </trkpt>
      <trkpt lat="10.239350" lon="-68.012266">
        <ele>492.70</ele>
        <time>2022-10-26T14:00:59Z</time>
      </trkpt>
      <trkpt lat="10.239433" lon="-68.012271">
        <ele>492.70</ele>
        <time>2022-10-26T14:01:01Z</time>
      </trkpt>
      <trkpt lat="10.239479" lon="-68.012275">
        <ele>492.70</ele>
        <time>2022-10-26T14:01:02Z</time>
      </trkpt>
      <trkpt lat="10.239576" lon="-68.012290">
        <ele>492.80</ele>
        <time>2022-10-26T14:01:04Z</time>
      </trkpt>
      <trkpt lat="10.239684" lon="-68.012301">
        <ele>492.80</ele>
        <time>2022-10-26T14:01:06Z</time>
      </trkpt>
      <trkpt lat="10.239796" lon="-68.012307">
        <ele>492.80</ele>
        <time>2022-10-26T14:01:08Z</time>
      </trkpt>
      <trkpt lat="10.239915" lon="-68.012325">
        <ele>492.90</ele>
        <time>2022-10-26T14:01:10Z</time>
      </trkpt>
      <trkpt lat="10.240045" lon="-68.012353">
        <ele>492.90</ele>
        <time>2022-10-26T14:01:12Z</time>
      </trkpt>
      <trkpt lat="10.240178" lon="-68.012379">
        <ele>492.90</ele>
        <time>2022-10-26T14:01:14Z</time>
      </trkpt>
      <trkpt lat="10.240299" lon="-68.012402">
        <ele>493.00</ele>
        <time>2022-10-26T14:01:16Z</time>
      </trkpt>
      <trkpt lat="10.240417" lon="-68.012417">
        <ele>493.00</ele>
        <time>2022-10-26T14:01:18Z</time>
      </trkpt>
      <trkpt lat="10.240544" lon="-68.012446">
        <ele>493.10</ele>
        <time>2022-10-26T14:01:20Z</time>
      </trkpt>
      <trkpt lat="10.240673" lon="-68.012478">
        <ele>493.10</ele>
        <time>2022-10-26T14:01:22Z</time>
      </trkpt>
      <trkpt lat="10.240790" lon="-68.012490">
        <ele>493.20</ele>
        <time>2022-10-26T14:01:24Z</time>
      </trkpt>
      <trkpt lat="10.240918" lon="-68.012499">
        <ele>493.30</ele>
        <time>2022-10-26T14:01:26Z</time>
      </trkpt>
      <trkpt lat="10.241045" lon="-68.012511">
        <ele>493.40</ele>
        <time>2022-10-26T14:01:28Z</time>
      </trkpt>
      <trkpt lat="10.241166" lon="-68.012514">
        <ele>493.40</ele>
        <time>2022-10-26T14:01:30Z</time>
      </trkpt>
      <trkpt lat="10.241285" lon="-68.012510">
        <ele>493.50</ele>
        <time>2022-10-26T14:01:32Z</time>
      </trkpt>
      <trkpt lat="10.241400" lon="-68.012524">
        <ele>493.50</ele>
        <time>2022-10-26T14:01:34Z</time>
      </trkpt>
      <trkpt lat="10.241532" lon="-68.012543">
        <ele>493.60</ele>
        <time>2022-10-26T14:01:36Z</time>
      </trkpt>
      <trkpt lat="10.241659" lon="-68.012559">
        <ele>493.60</ele>
        <time>2022-10-26T14:01:38Z</time>
      </trkpt>
      <trkpt lat="10.241792" lon="-68.012573">
        <ele>493.60</ele>
        <time>2022-10-26T14:01:40Z</time>
      </trkpt>
      <trkpt lat="10.241853" lon="-68.012573">
        <ele>493.60</ele>
        <time>2022-10-26T14:01:41Z</time>
      </trkpt>
      <trkpt lat="10.241975" lon="-68.012580">
        <ele>493.70</ele>
        <time>2022-10-26T14:01:43Z</time>
      </trkpt>
      <trkpt lat="10.242040" lon="-68.012587">
        <ele>493.70</ele>
        <time>2022-10-26T14:01:44Z</time>
      </trkpt>
      <trkpt lat="10.242165" lon="-68.012583">
        <ele>493.70</ele>
        <time>2022-10-26T14:01:46Z</time>
      </trkpt>
      <trkpt lat="10.242296" lon="-68.012613">
        <ele>493.80</ele>
        <time>2022-10-26T14:01:48Z</time>
      </trkpt>
      <trkpt lat="10.242434" lon="-68.012648">
        <ele>493.80</ele>
        <time>2022-10-26T14:01:50Z</time>
      </trkpt>
      <trkpt lat="10.242547" lon="-68.012685">
        <ele>493.90</ele>
        <time>2022-10-26T14:01:52Z</time>
      </trkpt>
      <trkpt lat="10.242641" lon="-68.012714">
        <ele>493.90</ele>
        <time>2022-10-26T14:01:54Z</time>
      </trkpt>
      <trkpt lat="10.242732" lon="-68.012746">
        <ele>494.00</ele>
        <time>2022-10-26T14:01:56Z</time>
      </trkpt>
      <trkpt lat="10.242835" lon="-68.012789">
        <ele>494.00</ele>
        <time>2022-10-26T14:01:58Z</time>
      </trkpt>
      <trkpt lat="10.242959" lon="-68.012815">
        <ele>494.10</ele>
        <time>2022-10-26T14:02:00Z</time>
      </trkpt>
      <trkpt lat="10.243082" lon="-68.012829">
        <ele>494.20</ele>
        <time>2022-10-26T14:02:02Z</time>
      </trkpt>
      <trkpt lat="10.243206" lon="-68.012849">
        <ele>494.30</ele>
        <time>2022-10-26T14:02:04Z</time>
      </trkpt>
      <trkpt lat="10.243333" lon="-68.012875">
        <ele>494.40</ele>
        <time>2022-10-26T14:02:06Z</time>
      </trkpt>
      <trkpt lat="10.243465" lon="-68.012903">
        <ele>494.40</ele>
        <time>2022-10-26T14:02:08Z</time>
      </trkpt>
      <trkpt lat="10.243600" lon="-68.012922">
        <ele>494.40</ele>
        <time>2022-10-26T14:02:10Z</time>
      </trkpt>
      <trkpt lat="10.243728" lon="-68.012933">
        <ele>494.40</ele>
        <time>2022-10-26T14:02:12Z</time>
      </trkpt>
      <trkpt lat="10.243860" lon="-68.012942">
        <ele>494.50</ele>
        <time>2022-10-26T14:02:14Z</time>
      </trkpt>
      <trkpt lat="10.243991" lon="-68.012959">
        <ele>494.60</ele>
        <time>2022-10-26T14:02:16Z</time>
      </trkpt>
      <trkpt lat="10.244115" lon="-68.012988">
        <ele>494.70</ele>
        <time>2022-10-26T14:02:18Z</time>
      </trkpt>
      <trkpt lat="10.244230" lon="-68.012992">
        <ele>494.70</ele>
        <time>2022-10-26T14:02:20Z</time>
      </trkpt>
      <trkpt lat="10.244293" lon="-68.012991">
        <ele>494.80</ele>
        <time>2022-10-26T14:02:21Z</time>
      </trkpt>
      <trkpt lat="10.244357" lon="-68.012994">
        <ele>494.80</ele>
        <time>2022-10-26T14:02:22Z</time>
      </trkpt>
      <trkpt lat="10.244465" lon="-68.013008">
        <ele>494.80</ele>
        <time>2022-10-26T14:02:24Z</time>
      </trkpt>
      <trkpt lat="10.244566" lon="-68.013023">
        <ele>494.90</ele>
        <time>2022-10-26T14:02:26Z</time>
      </trkpt>
      <trkpt lat="10.244684" lon="-68.013038">
        <ele>494.80</ele>
        <time>2022-10-26T14:02:28Z</time>
      </trkpt>
      <trkpt lat="10.244815" lon="-68.013051">
        <ele>494.80</ele>
        <time>2022-10-26T14:02:30Z</time>
      </trkpt>
      <trkpt lat="10.244936" lon="-68.013068">
        <ele>494.80</ele>
        <time>2022-10-26T14:02:32Z</time>
      </trkpt>
      <trkpt lat="10.244997" lon="-68.013085">
        <ele>494.80</ele>
        <time>2022-10-26T14:02:33Z</time>
      </trkpt>
      <trkpt lat="10.245112" lon="-68.013117">
        <ele>494.80</ele>
        <time>2022-10-26T14:02:35Z</time>
      </trkpt>
      <trkpt lat="10.245170" lon="-68.013139">
        <ele>494.90</ele>
        <time>2022-10-26T14:02:36Z</time>
      </trkpt>
      <trkpt lat="10.245227" lon="-68.013151">
        <ele>494.90</ele>
        <time>2022-10-26T14:02:37Z</time>
      </trkpt>
      <trkpt lat="10.245339" lon="-68.013170">
        <ele>494.90</ele>
        <time>2022-10-26T14:02:39Z</time>
      </trkpt>
      <trkpt lat="10.245395" lon="-68.013177">
        <ele>495.00</ele>
        <time>2022-10-26T14:02:40Z</time>
      </trkpt>
      <trkpt lat="10.245449" lon="-68.013187">
        <ele>495.00</ele>
        <time>2022-10-26T14:02:41Z</time>
      </trkpt>
      <trkpt lat="10.245506" lon="-68.013198">
        <ele>495.10</ele>
        <time>2022-10-26T14:02:42Z</time>
      </trkpt>
      <trkpt lat="10.245624" lon="-68.013215">
        <ele>495.20</ele>
        <time>2022-10-26T14:02:44Z</time>
      </trkpt>
      <trkpt lat="10.245680" lon="-68.013222">
        <ele>495.20</ele>
        <time>2022-10-26T14:02:45Z</time>
      </trkpt>
      <trkpt lat="10.245737" lon="-68.013227">
        <ele>495.30</ele>
        <time>2022-10-26T14:02:46Z</time>
      </trkpt>
      <trkpt lat="10.245860" lon="-68.013237">
        <ele>495.30</ele>
        <time>2022-10-26T14:02:48Z</time>
      </trkpt>
      <trkpt lat="10.245983" lon="-68.013245">
        <ele>495.40</ele>
        <time>2022-10-26T14:02:50Z</time>
      </trkpt>
      <trkpt lat="10.246097" lon="-68.013260">
        <ele>495.50</ele>
        <time>2022-10-26T14:02:52Z</time>
      </trkpt>
      <trkpt lat="10.246163" lon="-68.013267">
        <ele>495.60</ele>
        <time>2022-10-26T14:02:53Z</time>
      </trkpt>
      <trkpt lat="10.246225" lon="-68.013275">
        <ele>495.60</ele>
        <time>2022-10-26T14:02:54Z</time>
      </trkpt>
      <trkpt lat="10.246344" lon="-68.013295">
        <ele>495.60</ele>
        <time>2022-10-26T14:02:56Z</time>
      </trkpt>
      <trkpt lat="10.246402" lon="-68.013309">
        <ele>495.70</ele>
        <time>2022-10-26T14:02:57Z</time>
      </trkpt>
      <trkpt lat="10.246523" lon="-68.013330">
        <ele>495.70</ele>
        <time>2022-10-26T14:02:59Z</time>
      </trkpt>
      <trkpt lat="10.246651" lon="-68.013340">
        <ele>495.80</ele>
        <time>2022-10-26T14:03:01Z</time>
      </trkpt>
      <trkpt lat="10.246784" lon="-68.013351">
        <ele>495.80</ele>
        <time>2022-10-26T14:03:03Z</time>
      </trkpt>
      <trkpt lat="10.246855" lon="-68.013354">
        <ele>495.90</ele>
        <time>2022-10-26T14:03:04Z</time>
      </trkpt>
      <trkpt lat="10.246920" lon="-68.013355">
        <ele>495.90</ele>
        <time>2022-10-26T14:03:05Z</time>
      </trkpt>
      <trkpt lat="10.246981" lon="-68.013369">
        <ele>495.90</ele>
        <time>2022-10-26T14:03:06Z</time>
      </trkpt>
      <trkpt lat="10.247039" lon="-68.013379">
        <ele>495.90</ele>
        <time>2022-10-26T14:03:07Z</time>
      </trkpt>
      <trkpt lat="10.247097" lon="-68.013396">
        <ele>495.90</ele>
        <time>2022-10-26T14:03:08Z</time>
      </trkpt>
      <trkpt lat="10.247217" lon="-68.013429">
        <ele>496.00</ele>
        <time>2022-10-26T14:03:10Z</time>
      </trkpt>
      <trkpt lat="10.247333" lon="-68.013453">
        <ele>496.00</ele>
        <time>2022-10-26T14:03:12Z</time>
      </trkpt>
      <trkpt lat="10.247447" lon="-68.013472">
        <ele>496.10</ele>
        <time>2022-10-26T14:03:14Z</time>
      </trkpt>
      <trkpt lat="10.247555" lon="-68.013503">
        <ele>496.10</ele>
        <time>2022-10-26T14:03:16Z</time>
      </trkpt>
      <trkpt lat="10.247607" lon="-68.013520">
        <ele>496.20</ele>
        <time>2022-10-26T14:03:17Z</time>
      </trkpt>
      <trkpt lat="10.247656" lon="-68.013532">
        <ele>496.20</ele>
        <time>2022-10-26T14:03:18Z</time>
      </trkpt>
      <trkpt lat="10.247758" lon="-68.013549">
        <ele>496.20</ele>
        <time>2022-10-26T14:03:20Z</time>
      </trkpt>
      <trkpt lat="10.247810" lon="-68.013554">
        <ele>496.20</ele>
        <time>2022-10-26T14:03:21Z</time>
      </trkpt>
      <trkpt lat="10.247864" lon="-68.013563">
        <ele>496.30</ele>
        <time>2022-10-26T14:03:22Z</time>
      </trkpt>
      <trkpt lat="10.247961" lon="-68.013573">
        <ele>496.30</ele>
        <time>2022-10-26T14:03:24Z</time>
      </trkpt>
      <trkpt lat="10.248054" lon="-68.013594">
        <ele>496.30</ele>
        <time>2022-10-26T14:03:26Z</time>
      </trkpt>
      <trkpt lat="10.248100" lon="-68.013604">
        <ele>496.30</ele>
        <time>2022-10-26T14:03:27Z</time>
      </trkpt>
      <trkpt lat="10.248146" lon="-68.013611">
        <ele>496.40</ele>
        <time>2022-10-26T14:03:28Z</time>
      </trkpt>
      <trkpt lat="10.248241" lon="-68.013625">
        <ele>496.40</ele>
        <time>2022-10-26T14:03:30Z</time>
      </trkpt>
      <trkpt lat="10.248339" lon="-68.013650">
        <ele>496.50</ele>
        <time>2022-10-26T14:03:32Z</time>
      </trkpt>
      <trkpt lat="10.248395" lon="-68.013663">
        <ele>496.50</ele>
        <time>2022-10-26T14:03:33Z</time>
      </trkpt>
      <trkpt lat="10.248453" lon="-68.013681">
        <ele>496.50</ele>
        <time>2022-10-26T14:03:34Z</time>
      </trkpt>
      <trkpt lat="10.248562" lon="-68.013712">
        <ele>496.60</ele>
        <time>2022-10-26T14:03:36Z</time>
      </trkpt>
      <trkpt lat="10.248677" lon="-68.013736">
        <ele>496.70</ele>
        <time>2022-10-26T14:03:38Z</time>
      </trkpt>
      <trkpt lat="10.248738" lon="-68.013745">
        <ele>496.70</ele>
        <time>2022-10-26T14:03:39Z</time>
      </trkpt>
      <trkpt lat="10.248795" lon="-68.013755">
        <ele>496.80</ele>
        <time>2022-10-26T14:03:40Z</time>
      </trkpt>
      <trkpt lat="10.248853" lon="-68.013765">
        <ele>496.80</ele>
        <time>2022-10-26T14:03:41Z</time>
      </trkpt>
      <trkpt lat="10.248968" lon="-68.013772">
        <ele>496.80</ele>
        <time>2022-10-26T14:03:43Z</time>
      </trkpt>
      <trkpt lat="10.249086" lon="-68.013767">
        <ele>496.90</ele>
        <time>2022-10-26T14:03:45Z</time>
      </trkpt>
      <trkpt lat="10.249144" lon="-68.013766">
        <ele>496.90</ele>
        <time>2022-10-26T14:03:46Z</time>
      </trkpt>
      <trkpt lat="10.249205" lon="-68.013764">
        <ele>496.90</ele>
        <time>2022-10-26T14:03:47Z</time>
      </trkpt>
      <trkpt lat="10.249328" lon="-68.013776">
        <ele>497.00</ele>
        <time>2022-10-26T14:03:49Z</time>
      </trkpt>
      <trkpt lat="10.249389" lon="-68.013787">
        <ele>497.00</ele>
        <time>2022-10-26T14:03:50Z</time>
      </trkpt>
      <trkpt lat="10.249518" lon="-68.013799">
        <ele>497.10</ele>
        <time>2022-10-26T14:03:52Z</time>
      </trkpt>
      <trkpt lat="10.249645" lon="-68.013804">
        <ele>497.10</ele>
        <time>2022-10-26T14:03:54Z</time>
      </trkpt>
      <trkpt lat="10.249707" lon="-68.013813">
        <ele>497.10</ele>
        <time>2022-10-26T14:03:55Z</time>
      </trkpt>
      <trkpt lat="10.249770" lon="-68.013825">
        <ele>497.20</ele>
        <time>2022-10-26T14:03:56Z</time>
      </trkpt>
      <trkpt lat="10.249834" lon="-68.013837">
        <ele>497.20</ele>
        <time>2022-10-26T14:03:57Z</time>
      </trkpt>
      <trkpt lat="10.249897" lon="-68.013849">
        <ele>497.30</ele>
        <time>2022-10-26T14:03:58Z</time>
      </trkpt>
      <trkpt lat="10.250026" lon="-68.013881">
        <ele>497.40</ele>
        <time>2022-10-26T14:04:00Z</time>
      </trkpt>
      <trkpt lat="10.250093" lon="-68.013885">
        <ele>497.40</ele>
        <time>2022-10-26T14:04:01Z</time>
      </trkpt>
      <trkpt lat="10.250215" lon="-68.013895">
        <ele>497.50</ele>
        <time>2022-10-26T14:04:03Z</time>
      </trkpt>
      <trkpt lat="10.250268" lon="-68.013901">
        <ele>497.50</ele>
        <time>2022-10-26T14:04:04Z</time>
      </trkpt>
      <trkpt lat="10.250322" lon="-68.013914">
        <ele>497.60</ele>
        <time>2022-10-26T14:04:05Z</time>
      </trkpt>
      <trkpt lat="10.250382" lon="-68.013929">
        <ele>497.70</ele>
        <time>2022-10-26T14:04:06Z</time>
      </trkpt>
      <trkpt lat="10.250490" lon="-68.013956">
        <ele>497.80</ele>
        <time>2022-10-26T14:04:08Z</time>
      </trkpt>
      <trkpt lat="10.250543" lon="-68.013971">
        <ele>497.80</ele>
        <time>2022-10-26T14:04:09Z</time>
      </trkpt>
      <trkpt lat="10.250647" lon="-68.014001">
        <ele>497.90</ele>
        <time>2022-10-26T14:04:11Z</time>
      </trkpt>
      <trkpt lat="10.250702" lon="-68.014014">
        <ele>497.90</ele>
        <time>2022-10-26T14:04:12Z</time>
      </trkpt>
      <trkpt lat="10.250813" lon="-68.014009">
        <ele>498.00</ele>
        <time>2022-10-26T14:04:14Z</time>
      </trkpt>
      <trkpt lat="10.250864" lon="-68.013999">
        <ele>498.00</ele>
        <time>2022-10-26T14:04:15Z</time>
      </trkpt>
      <trkpt lat="10.250913" lon="-68.013981">
        <ele>498.00</ele>
        <time>2022-10-26T14:04:16Z</time>
      </trkpt>
      <trkpt lat="10.250957" lon="-68.013960">
        <ele>498.00</ele>
        <time>2022-10-26T14:04:17Z</time>
      </trkpt>
      <trkpt lat="10.251004" lon="-68.013936">
        <ele>498.10</ele>
        <time>2022-10-26T14:04:18Z</time>
      </trkpt>
      <trkpt lat="10.251053" lon="-68.013913">
        <ele>498.10</ele>
        <time>2022-10-26T14:04:19Z</time>
      </trkpt>
      <trkpt lat="10.251159" lon="-68.013883">
        <ele>498.10</ele>
        <time>2022-10-26T14:04:21Z</time>
      </trkpt>
      <trkpt lat="10.251266" lon="-68.013838">
        <ele>498.10</ele>
        <time>2022-10-26T14:04:23Z</time>
      </trkpt>
      <trkpt lat="10.251375" lon="-68.013785">
        <ele>498.10</ele>
        <time>2022-10-26T14:04:25Z</time>
      </trkpt>
      <trkpt lat="10.251470" lon="-68.013753">
        <ele>498.10</ele>
        <time>2022-10-26T14:04:27Z</time>
      </trkpt>
      <trkpt lat="10.251516" lon="-68.013739">
        <ele>498.10</ele>
        <time>2022-10-26T14:04:28Z</time>
      </trkpt>
      <trkpt lat="10.251561" lon="-68.013719">
        <ele>498.10</ele>
        <time>2022-10-26T14:04:29Z</time>
      </trkpt>
      <trkpt lat="10.251611" lon="-68.013698">
        <ele>498.10</ele>
        <time>2022-10-26T14:04:30Z</time>
      </trkpt>
      <trkpt lat="10.251703" lon="-68.013648">
        <ele>498.10</ele>
        <time>2022-10-26T14:04:32Z</time>
      </trkpt>
      <trkpt lat="10.251793" lon="-68.013594">
        <ele>498.10</ele>
        <time>2022-10-26T14:04:34Z</time>
      </trkpt>
      <trkpt lat="10.251833" lon="-68.013570">
        <ele>498.10</ele>
        <time>2022-10-26T14:04:35Z</time>
      </trkpt>
      <trkpt lat="10.251869" lon="-68.013549">
        <ele>498.10</ele>
        <time>2022-10-26T14:04:36Z</time>
      </trkpt>
      <trkpt lat="10.251941" lon="-68.013497">
        <ele>498.20</ele>
        <time>2022-10-26T14:04:38Z</time>
      </trkpt>
      <trkpt lat="10.251993" lon="-68.013402">
        <ele>498.20</ele>
        <time>2022-10-26T14:04:40Z</time>
      </trkpt>
      <trkpt lat="10.252019" lon="-68.013297">
        <ele>498.20</ele>
        <time>2022-10-26T14:04:42Z</time>
      </trkpt>
      <trkpt lat="10.252033" lon="-68.013182">
        <ele>498.20</ele>
        <time>2022-10-26T14:04:44Z</time>
      </trkpt>
      <trkpt lat="10.252054" lon="-68.013064">
        <ele>498.10</ele>
        <time>2022-10-26T14:04:46Z</time>
      </trkpt>
      <trkpt lat="10.252068" lon="-68.012948">
        <ele>498.10</ele>
        <time>2022-10-26T14:04:48Z</time>
      </trkpt>
      <trkpt lat="10.252086" lon="-68.012834">
        <ele>498.10</ele>
        <time>2022-10-26T14:04:50Z</time>
      </trkpt>
      <trkpt lat="10.252098" lon="-68.012718">
        <ele>498.10</ele>
        <time>2022-10-26T14:04:52Z</time>
      </trkpt>
      <trkpt lat="10.252100" lon="-68.012657">
        <ele>498.10</ele>
        <time>2022-10-26T14:04:53Z</time>
      </trkpt>
      <trkpt lat="10.252104" lon="-68.012590">
        <ele>498.10</ele>
        <time>2022-10-26T14:04:54Z</time>
      </trkpt>
      <trkpt lat="10.252114" lon="-68.012462">
        <ele>498.10</ele>
        <time>2022-10-26T14:04:56Z</time>
      </trkpt>
      <trkpt lat="10.252139" lon="-68.012331">
        <ele>498.20</ele>
        <time>2022-10-26T14:04:58Z</time>
      </trkpt>
      <trkpt lat="10.252153" lon="-68.012263">
        <ele>498.20</ele>
        <time>2022-10-26T14:04:59Z</time>
      </trkpt>
      <trkpt lat="10.252183" lon="-68.012131">
        <ele>498.20</ele>
        <time>2022-10-26T14:05:01Z</time>
      </trkpt>
      <trkpt lat="10.252210" lon="-68.012011">
        <ele>498.30</ele>
        <time>2022-10-26T14:05:03Z</time>
      </trkpt>
      <trkpt lat="10.252233" lon="-68.011888">
        <ele>498.30</ele>
        <time>2022-10-26T14:05:05Z</time>
      </trkpt>
      <trkpt lat="10.252250" lon="-68.011762">
        <ele>498.40</ele>
        <time>2022-10-26T14:05:07Z</time>
      </trkpt>
      <trkpt lat="10.252277" lon="-68.011645">
        <ele>498.50</ele>
        <time>2022-10-26T14:05:09Z</time>
      </trkpt>
      <trkpt lat="10.252298" lon="-68.011525">
        <ele>498.60</ele>
        <time>2022-10-26T14:05:11Z</time>
      </trkpt>
      <trkpt lat="10.252310" lon="-68.011465">
        <ele>498.60</ele>
        <time>2022-10-26T14:05:12Z</time>
      </trkpt>
      <trkpt lat="10.252323" lon="-68.011412">
        <ele>498.60</ele>
        <time>2022-10-26T14:05:13Z</time>
      </trkpt>
      <trkpt lat="10.252329" lon="-68.011319">
        <ele>498.70</ele>
        <time>2022-10-26T14:05:15Z</time>
      </trkpt>
      <trkpt lat="10.252335" lon="-68.011258">
        <ele>498.70</ele>
        <time>2022-10-26T14:05:17Z</time>
      </trkpt>
      <trkpt lat="10.252338" lon="-68.011219">
        <ele>498.80</ele>
        <time>2022-10-26T14:05:18Z</time>
      </trkpt>
      <trkpt lat="10.252338" lon="-68.011203">
        <ele>498.80</ele>
        <time>2022-10-26T14:05:19Z</time>
      </trkpt>
      <trkpt lat="10.252346" lon="-68.011133">
        <ele>498.90</ele>
        <time>2022-10-26T14:05:21Z</time>
      </trkpt>
      <trkpt lat="10.252357" lon="-68.011094">
        <ele>498.90</ele>
        <time>2022-10-26T14:05:22Z</time>
      </trkpt>
      <trkpt lat="10.252373" lon="-68.011053">
        <ele>499.00</ele>
        <time>2022-10-26T14:05:23Z</time>
      </trkpt>
      <trkpt lat="10.252395" lon="-68.010964">
        <ele>499.10</ele>
        <time>2022-10-26T14:05:25Z</time>
      </trkpt>
      <trkpt lat="10.252425" lon="-68.010859">
        <ele>499.20</ele>
        <time>2022-10-26T14:05:27Z</time>
      </trkpt>
      <trkpt lat="10.252441" lon="-68.010802">
        <ele>499.20</ele>
        <time>2022-10-26T14:05:28Z</time>
      </trkpt>
      <trkpt lat="10.252456" lon="-68.010747">
        <ele>499.30</ele>
        <time>2022-10-26T14:05:29Z</time>
      </trkpt>
      <trkpt lat="10.252486" lon="-68.010630">
        <ele>499.40</ele>
        <time>2022-10-26T14:05:31Z</time>
      </trkpt>
      <trkpt lat="10.252503" lon="-68.010569">
        <ele>499.40</ele>
        <time>2022-10-26T14:05:32Z</time>
      </trkpt>
      <trkpt lat="10.252529" lon="-68.010467">
        <ele>499.50</ele>
        <time>2022-10-26T14:05:34Z</time>
      </trkpt>
      <trkpt lat="10.252542" lon="-68.010418">
        <ele>499.60</ele>
        <time>2022-10-26T14:05:35Z</time>
      </trkpt>
      <trkpt lat="10.252556" lon="-68.010367">
        <ele>499.60</ele>
        <time>2022-10-26T14:05:36Z</time>
      </trkpt>
      <trkpt lat="10.252591" lon="-68.010262">
        <ele>499.70</ele>
        <time>2022-10-26T14:05:38Z</time>
      </trkpt>
      <trkpt lat="10.252610" lon="-68.010209">
        <ele>499.70</ele>
        <time>2022-10-26T14:05:39Z</time>
      </trkpt>
      <trkpt lat="10.252631" lon="-68.010155">
        <ele>499.80</ele>
        <time>2022-10-26T14:05:40Z</time>
      </trkpt>
      <trkpt lat="10.252649" lon="-68.010094">
        <ele>499.80</ele>
        <time>2022-10-26T14:05:41Z</time>
      </trkpt>
      <trkpt lat="10.252684" lon="-68.009976">
        <ele>499.90</ele>
        <time>2022-10-26T14:05:43Z</time>
      </trkpt>
      <trkpt lat="10.252695" lon="-68.009824">
        <ele>499.90</ele>
        <time>2022-10-26T14:05:45Z</time>
      </trkpt>
      <trkpt lat="10.252734" lon="-68.009702">
        <ele>500.00</ele>
        <time>2022-10-26T14:05:47Z</time>
      </trkpt>
      <trkpt lat="10.252759" lon="-68.009656">
        <ele>500.00</ele>
        <time>2022-10-26T14:05:48Z</time>
      </trkpt>
      <trkpt lat="10.252790" lon="-68.009612">
        <ele>500.00</ele>
        <time>2022-10-26T14:05:49Z</time>
      </trkpt>
      <trkpt lat="10.252867" lon="-68.009522">
        <ele>500.00</ele>
        <time>2022-10-26T14:05:51Z</time>
      </trkpt>
      <trkpt lat="10.252918" lon="-68.009472">
        <ele>500.10</ele>
        <time>2022-10-26T14:05:52Z</time>
      </trkpt>
      <trkpt lat="10.252998" lon="-68.009377">
        <ele>500.10</ele>
        <time>2022-10-26T14:05:54Z</time>
      </trkpt>
      <trkpt lat="10.253059" lon="-68.009284">
        <ele>500.10</ele>
        <time>2022-10-26T14:05:56Z</time>
      </trkpt>
      <trkpt lat="10.253145" lon="-68.009182">
        <ele>500.20</ele>
        <time>2022-10-26T14:05:58Z</time>
      </trkpt>
      <trkpt lat="10.253239" lon="-68.009088">
        <ele>500.20</ele>
        <time>2022-10-26T14:06:00Z</time>
      </trkpt>
      <trkpt lat="10.253328" lon="-68.008994">
        <ele>500.30</ele>
        <time>2022-10-26T14:06:02Z</time>
      </trkpt>
      <trkpt lat="10.253405" lon="-68.008897">
        <ele>500.30</ele>
        <time>2022-10-26T14:06:04Z</time>
      </trkpt>
      <trkpt lat="10.253479" lon="-68.008800">
        <ele>500.40</ele>
        <time>2022-10-26T14:06:06Z</time>
      </trkpt>
      <trkpt lat="10.253544" lon="-68.008693">
        <ele>500.40</ele>
        <time>2022-10-26T14:06:08Z</time>
      </trkpt>
      <trkpt lat="10.253617" lon="-68.008591">
        <ele>500.40</ele>
        <time>2022-10-26T14:06:10Z</time>
      </trkpt>
      <trkpt lat="10.253692" lon="-68.008474">
        <ele>500.30</ele>
        <time>2022-10-26T14:06:12Z</time>
      </trkpt>
      <trkpt lat="10.253734" lon="-68.008417">
        <ele>500.30</ele>
        <time>2022-10-26T14:06:13Z</time>
      </trkpt>
      <trkpt lat="10.253803" lon="-68.008312">
        <ele>500.30</ele>
        <time>2022-10-26T14:06:15Z</time>
      </trkpt>
      <trkpt lat="10.253837" lon="-68.008259">
        <ele>500.30</ele>
        <time>2022-10-26T14:06:16Z</time>
      </trkpt>
      <trkpt lat="10.253915" lon="-68.008145">
        <ele>500.30</ele>
        <time>2022-10-26T14:06:18Z</time>
      </trkpt>
      <trkpt lat="10.253956" lon="-68.008089">
        <ele>500.30</ele>
        <time>2022-10-26T14:06:19Z</time>
      </trkpt>
      <trkpt lat="10.254026" lon="-68.007968">
        <ele>500.30</ele>
        <time>2022-10-26T14:06:21Z</time>
      </trkpt>
      <trkpt lat="10.254104" lon="-68.007857">
        <ele>500.30</ele>
        <time>2022-10-26T14:06:23Z</time>
      </trkpt>
      <trkpt lat="10.254159" lon="-68.007803">
        <ele>500.30</ele>
        <time>2022-10-26T14:06:24Z</time>
      </trkpt>
      <trkpt lat="10.254269" lon="-68.007683">
        <ele>500.10</ele>
        <time>2022-10-26T14:06:26Z</time>
      </trkpt>
      <trkpt lat="10.254312" lon="-68.007621">
        <ele>500.00</ele>
        <time>2022-10-26T14:06:27Z</time>
      </trkpt>
      <trkpt lat="10.254393" lon="-68.007498">
        <ele>499.90</ele>
        <time>2022-10-26T14:06:29Z</time>
      </trkpt>
      <trkpt lat="10.254431" lon="-68.007438">
        <ele>499.80</ele>
        <time>2022-10-26T14:06:30Z</time>
      </trkpt>
      <trkpt lat="10.254469" lon="-68.007378">
        <ele>499.70</ele>
        <time>2022-10-26T14:06:31Z</time>
      </trkpt>
      <trkpt lat="10.254540" lon="-68.007253">
        <ele>499.60</ele>
        <time>2022-10-26T14:06:33Z</time>
      </trkpt>
      <trkpt lat="10.254571" lon="-68.007193">
        <ele>499.50</ele>
        <time>2022-10-26T14:06:34Z</time>
      </trkpt>
      <trkpt lat="10.254604" lon="-68.007138">
        <ele>499.50</ele>
        <time>2022-10-26T14:06:35Z</time>
      </trkpt>
      <trkpt lat="10.254637" lon="-68.007079">
        <ele>499.50</ele>
        <time>2022-10-26T14:06:36Z</time>
      </trkpt>
      <trkpt lat="10.254691" lon="-68.006965">
        <ele>499.40</ele>
        <time>2022-10-26T14:06:38Z</time>
      </trkpt>
      <trkpt lat="10.254718" lon="-68.006913">
        <ele>499.40</ele>
        <time>2022-10-26T14:06:39Z</time>
      </trkpt>
      <trkpt lat="10.254745" lon="-68.006862">
        <ele>499.40</ele>
        <time>2022-10-26T14:06:40Z</time>
      </trkpt>
      <trkpt lat="10.254788" lon="-68.006755">
        <ele>499.30</ele>
        <time>2022-10-26T14:06:42Z</time>
      </trkpt>
      <trkpt lat="10.254828" lon="-68.006636">
        <ele>499.30</ele>
        <time>2022-10-26T14:06:44Z</time>
      </trkpt>
      <trkpt lat="10.254859" lon="-68.006517">
        <ele>499.30</ele>
        <time>2022-10-26T14:06:46Z</time>
      </trkpt>
      <trkpt lat="10.254892" lon="-68.006395">
        <ele>499.40</ele>
        <time>2022-10-26T14:06:48Z</time>
      </trkpt>
      <trkpt lat="10.254904" lon="-68.006339">
        <ele>499.40</ele>
        <time>2022-10-26T14:06:49Z</time>
      </trkpt>
      <trkpt lat="10.254914" lon="-68.006282">
        <ele>499.40</ele>
        <time>2022-10-26T14:06:50Z</time>
      </trkpt>
      <trkpt lat="10.254941" lon="-68.006172">
        <ele>499.40</ele>
        <time>2022-10-26T14:06:52Z</time>
      </trkpt>
      <trkpt lat="10.254955" lon="-68.006115">
        <ele>499.40</ele>
        <time>2022-10-26T14:06:53Z</time>
      </trkpt>
      <trkpt lat="10.254966" lon="-68.006059">
        <ele>499.40</ele>
        <time>2022-10-26T14:06:54Z</time>
      </trkpt>
      <trkpt lat="10.254987" lon="-68.005939">
        <ele>499.40</ele>
        <time>2022-10-26T14:06:56Z</time>
      </trkpt>
      <trkpt lat="10.255000" lon="-68.005879">
        <ele>499.50</ele>
        <time>2022-10-26T14:06:57Z</time>
      </trkpt>
      <trkpt lat="10.255011" lon="-68.005815">
        <ele>499.50</ele>
        <time>2022-10-26T14:06:58Z</time>
      </trkpt>
      <trkpt lat="10.255019" lon="-68.005696">
        <ele>499.60</ele>
        <time>2022-10-26T14:07:00Z</time>
      </trkpt>
      <trkpt lat="10.255026" lon="-68.005641">
        <ele>499.70</ele>
        <time>2022-10-26T14:07:01Z</time>
      </trkpt>
      <trkpt lat="10.255039" lon="-68.005533">
        <ele>499.60</ele>
        <time>2022-10-26T14:07:03Z</time>
      </trkpt>
      <trkpt lat="10.255047" lon="-68.005471">
        <ele>499.50</ele>
        <time>2022-10-26T14:07:04Z</time>
      </trkpt>
      <trkpt lat="10.255074" lon="-68.005340">
        <ele>499.50</ele>
        <time>2022-10-26T14:07:06Z</time>
      </trkpt>
      <trkpt lat="10.255089" lon="-68.005273">
        <ele>499.50</ele>
        <time>2022-10-26T14:07:07Z</time>
      </trkpt>
      <trkpt lat="10.255106" lon="-68.005201">
        <ele>499.60</ele>
        <time>2022-10-26T14:07:08Z</time>
      </trkpt>
      <trkpt lat="10.255144" lon="-68.005053">
        <ele>499.80</ele>
        <time>2022-10-26T14:07:10Z</time>
      </trkpt>
      <trkpt lat="10.255162" lon="-68.004981">
        <ele>499.80</ele>
        <time>2022-10-26T14:07:11Z</time>
      </trkpt>
      <trkpt lat="10.255208" lon="-68.004835">
        <ele>499.90</ele>
        <time>2022-10-26T14:07:13Z</time>
      </trkpt>
      <trkpt lat="10.255264" lon="-68.004684">
        <ele>500.00</ele>
        <time>2022-10-26T14:07:15Z</time>
      </trkpt>
      <trkpt lat="10.255293" lon="-68.004612">
        <ele>500.10</ele>
        <time>2022-10-26T14:07:16Z</time>
      </trkpt>
      <trkpt lat="10.255324" lon="-68.004538">
        <ele>500.20</ele>
        <time>2022-10-26T14:07:17Z</time>
      </trkpt>
      <trkpt lat="10.255361" lon="-68.004470">
        <ele>500.30</ele>
        <time>2022-10-26T14:07:18Z</time>
      </trkpt>
      <trkpt lat="10.255433" lon="-68.004380">
        <ele>500.40</ele>
        <time>2022-10-26T14:07:20Z</time>
      </trkpt>
      <trkpt lat="10.255482" lon="-68.004366">
        <ele>500.30</ele>
        <time>2022-10-26T14:07:22Z</time>
      </trkpt>
      <trkpt lat="10.255544" lon="-68.004380">
        <ele>500.30</ele>
        <time>2022-10-26T14:07:24Z</time>
      </trkpt>
      <trkpt lat="10.255578" lon="-68.004403">
        <ele>500.30</ele>
        <time>2022-10-26T14:07:25Z</time>
      </trkpt>
      <trkpt lat="10.255687" lon="-68.004473">
        <ele>500.30</ele>
        <time>2022-10-26T14:07:27Z</time>
      </trkpt>
      <trkpt lat="10.255798" lon="-68.004517">
        <ele>500.30</ele>
        <time>2022-10-26T14:07:29Z</time>
      </trkpt>
      <trkpt lat="10.255900" lon="-68.004552">
        <ele>500.30</ele>
        <time>2022-10-26T14:07:31Z</time>
      </trkpt>
      <trkpt lat="10.255994" lon="-68.004597">
        <ele>500.40</ele>
        <time>2022-10-26T14:07:33Z</time>
      </trkpt>
      <trkpt lat="10.256043" lon="-68.004618">
        <ele>500.40</ele>
        <time>2022-10-26T14:07:34Z</time>
      </trkpt>
      <trkpt lat="10.256095" lon="-68.004638">
        <ele>500.50</ele>
        <time>2022-10-26T14:07:35Z</time>
      </trkpt>
      <trkpt lat="10.256142" lon="-68.004661">
        <ele>500.50</ele>
        <time>2022-10-26T14:07:36Z</time>
      </trkpt>
      <trkpt lat="10.256235" lon="-68.004716">
        <ele>500.50</ele>
        <time>2022-10-26T14:07:38Z</time>
      </trkpt>
      <trkpt lat="10.256327" lon="-68.004755">
        <ele>500.50</ele>
        <time>2022-10-26T14:07:40Z</time>
      </trkpt>
      <trkpt lat="10.256375" lon="-68.004774">
        <ele>500.50</ele>
        <time>2022-10-26T14:07:41Z</time>
      </trkpt>
      <trkpt lat="10.256469" lon="-68.004818">
        <ele>500.40</ele>
        <time>2022-10-26T14:07:43Z</time>
      </trkpt>
      <trkpt lat="10.256571" lon="-68.004866">
        <ele>500.30</ele>
        <time>2022-10-26T14:07:45Z</time>
      </trkpt>
      <trkpt lat="10.256624" lon="-68.004873">
        <ele>500.20</ele>
        <time>2022-10-26T14:07:46Z</time>
      </trkpt>
      <trkpt lat="10.256681" lon="-68.004885">
        <ele>500.10</ele>
        <time>2022-10-26T14:07:47Z</time>
      </trkpt>
      <trkpt lat="10.256737" lon="-68.004905">
        <ele>500.00</ele>
        <time>2022-10-26T14:07:48Z</time>
      </trkpt>
      <trkpt lat="10.256850" lon="-68.004947">
        <ele>499.90</ele>
        <time>2022-10-26T14:07:50Z</time>
      </trkpt>
      <trkpt lat="10.256903" lon="-68.004970">
        <ele>499.80</ele>
        <time>2022-10-26T14:07:51Z</time>
      </trkpt>
      <trkpt lat="10.256957" lon="-68.004994">
        <ele>499.80</ele>
        <time>2022-10-26T14:07:52Z</time>
      </trkpt>
      <trkpt lat="10.257087" lon="-68.005048">
        <ele>499.80</ele>
        <time>2022-10-26T14:07:54Z</time>
      </trkpt>
      <trkpt lat="10.257227" lon="-68.005092">
        <ele>499.70</ele>
        <time>2022-10-26T14:07:56Z</time>
      </trkpt>
      <trkpt lat="10.257357" lon="-68.005127">
        <ele>499.60</ele>
        <time>2022-10-26T14:07:58Z</time>
      </trkpt>
      <trkpt lat="10.257490" lon="-68.005161">
        <ele>499.60</ele>
        <time>2022-10-26T14:08:00Z</time>
      </trkpt>
      <trkpt lat="10.257556" lon="-68.005171">
        <ele>499.70</ele>
        <time>2022-10-26T14:08:01Z</time>
      </trkpt>
      <trkpt lat="10.257620" lon="-68.005178">
        <ele>499.80</ele>
        <time>2022-10-26T14:08:02Z</time>
      </trkpt>
      <trkpt lat="10.257683" lon="-68.005190">
        <ele>500.00</ele>
        <time>2022-10-26T14:08:03Z</time>
      </trkpt>
      <trkpt lat="10.257791" lon="-68.005207">
        <ele>500.20</ele>
        <time>2022-10-26T14:08:05Z</time>
      </trkpt>
      <trkpt lat="10.257843" lon="-68.005209">
        <ele>500.30</ele>
        <time>2022-10-26T14:08:06Z</time>
      </trkpt>
      <trkpt lat="10.257938" lon="-68.005203">
        <ele>500.40</ele>
        <time>2022-10-26T14:08:08Z</time>
      </trkpt>
      <trkpt lat="10.258036" lon="-68.005204">
        <ele>500.40</ele>
        <time>2022-10-26T14:08:10Z</time>
      </trkpt>
      <trkpt lat="10.258095" lon="-68.005215">
        <ele>500.50</ele>
        <time>2022-10-26T14:08:11Z</time>
      </trkpt>
      <trkpt lat="10.258160" lon="-68.005226">
        <ele>500.60</ele>
        <time>2022-10-26T14:08:12Z</time>
      </trkpt>
      <trkpt lat="10.258224" lon="-68.005235">
        <ele>500.60</ele>
        <time>2022-10-26T14:08:13Z</time>
      </trkpt>
      <trkpt lat="10.258339" lon="-68.005243">
        <ele>500.70</ele>
        <time>2022-10-26T14:08:15Z</time>
      </trkpt>
      <trkpt lat="10.258397" lon="-68.005245">
        <ele>500.80</ele>
        <time>2022-10-26T14:08:16Z</time>
      </trkpt>
      <trkpt lat="10.258516" lon="-68.005242">
        <ele>500.80</ele>
        <time>2022-10-26T14:08:18Z</time>
      </trkpt>
      <trkpt lat="10.258575" lon="-68.005241">
        <ele>500.90</ele>
        <time>2022-10-26T14:08:19Z</time>
      </trkpt>
      <trkpt lat="10.258695" lon="-68.005242">
        <ele>501.00</ele>
        <time>2022-10-26T14:08:21Z</time>
      </trkpt>
      <trkpt lat="10.258752" lon="-68.005245">
        <ele>501.00</ele>
        <time>2022-10-26T14:08:22Z</time>
      </trkpt>
      <trkpt lat="10.258859" lon="-68.005257">
        <ele>501.10</ele>
        <time>2022-10-26T14:08:24Z</time>
      </trkpt>
      <trkpt lat="10.258916" lon="-68.005268">
        <ele>501.10</ele>
        <time>2022-10-26T14:08:25Z</time>
      </trkpt>
      <trkpt lat="10.259030" lon="-68.005280">
        <ele>501.20</ele>
        <time>2022-10-26T14:08:27Z</time>
      </trkpt>
      <trkpt lat="10.259085" lon="-68.005283">
        <ele>501.20</ele>
        <time>2022-10-26T14:08:28Z</time>
      </trkpt>
      <trkpt lat="10.259145" lon="-68.005290">
        <ele>501.20</ele>
        <time>2022-10-26T14:08:29Z</time>
      </trkpt>
      <trkpt lat="10.259260" lon="-68.005294">
        <ele>501.30</ele>
        <time>2022-10-26T14:08:31Z</time>
      </trkpt>
      <trkpt lat="10.259378" lon="-68.005294">
        <ele>501.40</ele>
        <time>2022-10-26T14:08:33Z</time>
      </trkpt>
      <trkpt lat="10.259497" lon="-68.005297">
        <ele>501.50</ele>
        <time>2022-10-26T14:08:35Z</time>
      </trkpt>
      <trkpt lat="10.259547" lon="-68.005292">
        <ele>501.50</ele>
        <time>2022-10-26T14:08:36Z</time>
      </trkpt>
      <trkpt lat="10.259597" lon="-68.005290">
        <ele>501.60</ele>
        <time>2022-10-26T14:08:37Z</time>
      </trkpt>
      <trkpt lat="10.259654" lon="-68.005296">
        <ele>501.60</ele>
        <time>2022-10-26T14:08:38Z</time>
      </trkpt>
      <trkpt lat="10.259758" lon="-68.005306">
        <ele>501.70</ele>
        <time>2022-10-26T14:08:40Z</time>
      </trkpt>
      <trkpt lat="10.259875" lon="-68.005327">
        <ele>501.80</ele>
        <time>2022-10-26T14:08:42Z</time>
      </trkpt>
      <trkpt lat="10.259930" lon="-68.005331">
        <ele>501.80</ele>
        <time>2022-10-26T14:08:43Z</time>
      </trkpt>
      <trkpt lat="10.260044" lon="-68.005340">
        <ele>501.90</ele>
        <time>2022-10-26T14:08:45Z</time>
      </trkpt>
      <trkpt lat="10.260104" lon="-68.005343">
        <ele>501.90</ele>
        <time>2022-10-26T14:08:46Z</time>
      </trkpt>
      <trkpt lat="10.260212" lon="-68.005347">
        <ele>502.00</ele>
        <time>2022-10-26T14:08:48Z</time>
      </trkpt>
      <trkpt lat="10.260318" lon="-68.005356">
        <ele>502.10</ele>
        <time>2022-10-26T14:08:50Z</time>
      </trkpt>
      <trkpt lat="10.260417" lon="-68.005366">
        <ele>502.20</ele>
        <time>2022-10-26T14:08:52Z</time>
      </trkpt>
      <trkpt lat="10.260512" lon="-68.005367">
        <ele>502.20</ele>
        <time>2022-10-26T14:08:54Z</time>
      </trkpt>
      <trkpt lat="10.260613" lon="-68.005371">
        <ele>502.30</ele>
        <time>2022-10-26T14:08:56Z</time>
      </trkpt>
      <trkpt lat="10.260663" lon="-68.005375">
        <ele>502.30</ele>
        <time>2022-10-26T14:08:57Z</time>
      </trkpt>
      <trkpt lat="10.260719" lon="-68.005380">
        <ele>502.30</ele>
        <time>2022-10-26T14:08:58Z</time>
      </trkpt>
      <trkpt lat="10.260776" lon="-68.005388">
        <ele>502.40</ele>
        <time>2022-10-26T14:08:59Z</time>
      </trkpt>
      <trkpt lat="10.260880" lon="-68.005394">
        <ele>502.40</ele>
        <time>2022-10-26T14:09:01Z</time>
      </trkpt>
      <trkpt lat="10.260983" lon="-68.005377">
        <ele>502.50</ele>
        <time>2022-10-26T14:09:03Z</time>
      </trkpt>
      <trkpt lat="10.261037" lon="-68.005366">
        <ele>502.50</ele>
        <time>2022-10-26T14:09:04Z</time>
      </trkpt>
      <trkpt lat="10.261140" lon="-68.005355">
        <ele>502.50</ele>
        <time>2022-10-26T14:09:06Z</time>
      </trkpt>
      <trkpt lat="10.261242" lon="-68.005357">
        <ele>502.60</ele>
        <time>2022-10-26T14:09:08Z</time>
      </trkpt>
      <trkpt lat="10.261343" lon="-68.005364">
        <ele>502.60</ele>
        <time>2022-10-26T14:09:10Z</time>
      </trkpt>
      <trkpt lat="10.261442" lon="-68.005357">
        <ele>502.70</ele>
        <time>2022-10-26T14:09:12Z</time>
      </trkpt>
      <trkpt lat="10.261493" lon="-68.005357">
        <ele>502.70</ele>
        <time>2022-10-26T14:09:13Z</time>
      </trkpt>
      <trkpt lat="10.261543" lon="-68.005358">
        <ele>502.80</ele>
        <time>2022-10-26T14:09:14Z</time>
      </trkpt>
      <trkpt lat="10.261594" lon="-68.005360">
        <ele>502.80</ele>
        <time>2022-10-26T14:09:15Z</time>
      </trkpt>
      <trkpt lat="10.261643" lon="-68.005362">
        <ele>502.80</ele>
        <time>2022-10-26T14:09:16Z</time>
      </trkpt>
      <trkpt lat="10.261744" lon="-68.005366">
        <ele>502.90</ele>
        <time>2022-10-26T14:09:18Z</time>
      </trkpt>
      <trkpt lat="10.261846" lon="-68.005387">
        <ele>502.90</ele>
        <time>2022-10-26T14:09:20Z</time>
      </trkpt>
      <trkpt lat="10.261947" lon="-68.005408">
        <ele>503.00</ele>
        <time>2022-10-26T14:09:22Z</time>
      </trkpt>
      <trkpt lat="10.262082" lon="-68.005475">
        <ele>503.00</ele>
        <time>2022-10-26T14:09:24Z</time>
      </trkpt>
      <trkpt lat="10.262189" lon="-68.005479">
        <ele>503.10</ele>
        <time>2022-10-26T14:09:26Z</time>
      </trkpt>
      <trkpt lat="10.262239" lon="-68.005480">
        <ele>503.10</ele>
        <time>2022-10-26T14:09:27Z</time>
      </trkpt>
      <trkpt lat="10.262291" lon="-68.005480">
        <ele>503.10</ele>
        <time>2022-10-26T14:09:28Z</time>
      </trkpt>
      <trkpt lat="10.262374" lon="-68.005463">
        <ele>503.10</ele>
        <time>2022-10-26T14:09:30Z</time>
      </trkpt>
      <trkpt lat="10.262469" lon="-68.005470">
        <ele>503.10</ele>
        <time>2022-10-26T14:09:32Z</time>
      </trkpt>
      <trkpt lat="10.262573" lon="-68.005477">
        <ele>503.00</ele>
        <time>2022-10-26T14:09:34Z</time>
      </trkpt>
      <trkpt lat="10.262678" lon="-68.005480">
        <ele>503.00</ele>
        <time>2022-10-26T14:09:36Z</time>
      </trkpt>
      <trkpt lat="10.262787" lon="-68.005486">
        <ele>503.00</ele>
        <time>2022-10-26T14:09:38Z</time>
      </trkpt>
      <trkpt lat="10.262909" lon="-68.005503">
        <ele>503.00</ele>
        <time>2022-10-26T14:09:40Z</time>
      </trkpt>
      <trkpt lat="10.262972" lon="-68.005512">
        <ele>503.00</ele>
        <time>2022-10-26T14:09:41Z</time>
      </trkpt>
      <trkpt lat="10.263088" lon="-68.005521">
        <ele>503.00</ele>
        <time>2022-10-26T14:09:43Z</time>
      </trkpt>
      <trkpt lat="10.263217" lon="-68.005530">
        <ele>502.90</ele>
        <time>2022-10-26T14:09:45Z</time>
      </trkpt>
      <trkpt lat="10.263277" lon="-68.005533">
        <ele>503.00</ele>
        <time>2022-10-26T14:09:46Z</time>
      </trkpt>
      <trkpt lat="10.263396" lon="-68.005539">
        <ele>503.00</ele>
        <time>2022-10-26T14:09:48Z</time>
      </trkpt>
      <trkpt lat="10.263515" lon="-68.005545">
        <ele>503.00</ele>
        <time>2022-10-26T14:09:50Z</time>
      </trkpt>
      <trkpt lat="10.263580" lon="-68.005557">
        <ele>503.10</ele>
        <time>2022-10-26T14:09:51Z</time>
      </trkpt>
      <trkpt lat="10.263643" lon="-68.005566">
        <ele>503.10</ele>
        <time>2022-10-26T14:09:52Z</time>
      </trkpt>
      <trkpt lat="10.263759" lon="-68.005578">
        <ele>503.20</ele>
        <time>2022-10-26T14:09:54Z</time>
      </trkpt>
      <trkpt lat="10.263871" lon="-68.005578">
        <ele>503.30</ele>
        <time>2022-10-26T14:09:56Z</time>
      </trkpt>
      <trkpt lat="10.263924" lon="-68.005578">
        <ele>503.30</ele>
        <time>2022-10-26T14:09:57Z</time>
      </trkpt>
      <trkpt lat="10.263982" lon="-68.005576">
        <ele>503.40</ele>
        <time>2022-10-26T14:09:58Z</time>
      </trkpt>
      <trkpt lat="10.264095" lon="-68.005586">
        <ele>503.50</ele>
        <time>2022-10-26T14:10:00Z</time>
      </trkpt>
      <trkpt lat="10.264207" lon="-68.005604">
        <ele>503.60</ele>
        <time>2022-10-26T14:10:02Z</time>
      </trkpt>
      <trkpt lat="10.264319" lon="-68.005616">
        <ele>503.70</ele>
        <time>2022-10-26T14:10:04Z</time>
      </trkpt>
      <trkpt lat="10.264425" lon="-68.005629">
        <ele>503.80</ele>
        <time>2022-10-26T14:10:06Z</time>
      </trkpt>
      <trkpt lat="10.264528" lon="-68.005644">
        <ele>503.90</ele>
        <time>2022-10-26T14:10:08Z</time>
      </trkpt>
      <trkpt lat="10.264627" lon="-68.005660">
        <ele>504.00</ele>
        <time>2022-10-26T14:10:10Z</time>
      </trkpt>
      <trkpt lat="10.264711" lon="-68.005644">
        <ele>504.10</ele>
        <time>2022-10-26T14:10:12Z</time>
      </trkpt>
      <trkpt lat="10.264761" lon="-68.005640">
        <ele>504.10</ele>
        <time>2022-10-26T14:10:13Z</time>
      </trkpt>
      <trkpt lat="10.264859" lon="-68.005644">
        <ele>504.20</ele>
        <time>2022-10-26T14:10:15Z</time>
      </trkpt>
      <trkpt lat="10.264912" lon="-68.005645">
        <ele>504.20</ele>
        <time>2022-10-26T14:10:16Z</time>
      </trkpt>
      <trkpt lat="10.264967" lon="-68.005648">
        <ele>504.20</ele>
        <time>2022-10-26T14:10:17Z</time>
      </trkpt>
      <trkpt lat="10.265021" lon="-68.005651">
        <ele>504.30</ele>
        <time>2022-10-26T14:10:18Z</time>
      </trkpt>
      <trkpt lat="10.265126" lon="-68.005658">
        <ele>504.30</ele>
        <time>2022-10-26T14:10:20Z</time>
      </trkpt>
      <trkpt lat="10.265177" lon="-68.005663">
        <ele>504.40</ele>
        <time>2022-10-26T14:10:21Z</time>
      </trkpt>
      <trkpt lat="10.265276" lon="-68.005670">
        <ele>504.50</ele>
        <time>2022-10-26T14:10:23Z</time>
      </trkpt>
      <trkpt lat="10.265329" lon="-68.005682">
        <ele>504.50</ele>
        <time>2022-10-26T14:10:24Z</time>
      </trkpt>
      <trkpt lat="10.265379" lon="-68.005693">
        <ele>504.50</ele>
        <time>2022-10-26T14:10:25Z</time>
      </trkpt>
      <trkpt lat="10.265425" lon="-68.005707">
        <ele>504.50</ele>
        <time>2022-10-26T14:10:26Z</time>
      </trkpt>
      <trkpt lat="10.265476" lon="-68.005715">
        <ele>504.50</ele>
        <time>2022-10-26T14:10:27Z</time>
      </trkpt>
      <trkpt lat="10.265527" lon="-68.005719">
        <ele>504.60</ele>
        <time>2022-10-26T14:10:28Z</time>
      </trkpt>
      <trkpt lat="10.265631" lon="-68.005732">
        <ele>504.60</ele>
        <time>2022-10-26T14:10:30Z</time>
      </trkpt>
      <trkpt lat="10.265735" lon="-68.005741">
        <ele>504.70</ele>
        <time>2022-10-26T14:10:32Z</time>
      </trkpt>
      <trkpt lat="10.265792" lon="-68.005744">
        <ele>504.80</ele>
        <time>2022-10-26T14:10:33Z</time>
      </trkpt>
      <trkpt lat="10.265850" lon="-68.005756">
        <ele>504.80</ele>
        <time>2022-10-26T14:10:34Z</time>
      </trkpt>
      <trkpt lat="10.265956" lon="-68.005758">
        <ele>504.90</ele>
        <time>2022-10-26T14:10:36Z</time>
      </trkpt>
      <trkpt lat="10.266066" lon="-68.005760">
        <ele>504.90</ele>
        <time>2022-10-26T14:10:38Z</time>
      </trkpt>
      <trkpt lat="10.266114" lon="-68.005762">
        <ele>505.00</ele>
        <time>2022-10-26T14:10:39Z</time>
      </trkpt>
      <trkpt lat="10.266171" lon="-68.005768">
        <ele>505.00</ele>
        <time>2022-10-26T14:10:40Z</time>
      </trkpt>
      <trkpt lat="10.266274" lon="-68.005780">
        <ele>505.00</ele>
        <time>2022-10-26T14:10:42Z</time>
      </trkpt>
      <trkpt lat="10.266380" lon="-68.005772">
        <ele>505.10</ele>
        <time>2022-10-26T14:10:44Z</time>
      </trkpt>
      <trkpt lat="10.266433" lon="-68.005767">
        <ele>505.10</ele>
        <time>2022-10-26T14:10:45Z</time>
      </trkpt>
      <trkpt lat="10.266485" lon="-68.005761">
        <ele>505.10</ele>
        <time>2022-10-26T14:10:46Z</time>
      </trkpt>
      <trkpt lat="10.266579" lon="-68.005743">
        <ele>505.30</ele>
        <time>2022-10-26T14:10:48Z</time>
      </trkpt>
      <trkpt lat="10.266664" lon="-68.005720">
        <ele>505.30</ele>
        <time>2022-10-26T14:10:50Z</time>
      </trkpt>
      <trkpt lat="10.266763" lon="-68.005706">
        <ele>505.40</ele>
        <time>2022-10-26T14:10:52Z</time>
      </trkpt>
      <trkpt lat="10.266862" lon="-68.005723">
        <ele>505.50</ele>
        <time>2022-10-26T14:10:54Z</time>
      </trkpt>
      <trkpt lat="10.266965" lon="-68.005740">
        <ele>505.60</ele>
        <time>2022-10-26T14:10:56Z</time>
      </trkpt>
      <trkpt lat="10.267013" lon="-68.005738">
        <ele>505.70</ele>
        <time>2022-10-26T14:10:57Z</time>
      </trkpt>
      <trkpt lat="10.267058" lon="-68.005733">
        <ele>505.80</ele>
        <time>2022-10-26T14:10:58Z</time>
      </trkpt>
      <trkpt lat="10.267143" lon="-68.005714">
        <ele>505.90</ele>
        <time>2022-10-26T14:11:00Z</time>
      </trkpt>
      <trkpt lat="10.267189" lon="-68.005696">
        <ele>506.00</ele>
        <time>2022-10-26T14:11:01Z</time>
      </trkpt>
      <trkpt lat="10.267279" lon="-68.005652">
        <ele>506.20</ele>
        <time>2022-10-26T14:11:03Z</time>
      </trkpt>
      <trkpt lat="10.267326" lon="-68.005626">
        <ele>506.30</ele>
        <time>2022-10-26T14:11:04Z</time>
      </trkpt>
      <trkpt lat="10.267417" lon="-68.005576">
        <ele>506.40</ele>
        <time>2022-10-26T14:11:06Z</time>
      </trkpt>
      <trkpt lat="10.267516" lon="-68.005522">
        <ele>506.50</ele>
        <time>2022-10-26T14:11:08Z</time>
      </trkpt>
      <trkpt lat="10.267565" lon="-68.005487">
        <ele>506.50</ele>
        <time>2022-10-26T14:11:09Z</time>
      </trkpt>
      <trkpt lat="10.267614" lon="-68.005451">
        <ele>506.50</ele>
        <time>2022-10-26T14:11:10Z</time>
      </trkpt>
      <trkpt lat="10.267709" lon="-68.005378">
        <ele>506.50</ele>
        <time>2022-10-26T14:11:12Z</time>
      </trkpt>
      <trkpt lat="10.267794" lon="-68.005300">
        <ele>506.40</ele>
        <time>2022-10-26T14:11:14Z</time>
      </trkpt>
      <trkpt lat="10.267876" lon="-68.005215">
        <ele>506.40</ele>
        <time>2022-10-26T14:11:16Z</time>
      </trkpt>
      <trkpt lat="10.267936" lon="-68.005112">
        <ele>506.50</ele>
        <time>2022-10-26T14:11:18Z</time>
      </trkpt>
      <trkpt lat="10.267976" lon="-68.004997">
        <ele>506.50</ele>
        <time>2022-10-26T14:11:20Z</time>
      </trkpt>
      <trkpt lat="10.268005" lon="-68.004874">
        <ele>506.50</ele>
        <time>2022-10-26T14:11:22Z</time>
      </trkpt>
      <trkpt lat="10.268025" lon="-68.004750">
        <ele>506.50</ele>
        <time>2022-10-26T14:11:24Z</time>
      </trkpt>
      <trkpt lat="10.268031" lon="-68.004631">
        <ele>506.50</ele>
        <time>2022-10-26T14:11:26Z</time>
      </trkpt>
      <trkpt lat="10.268038" lon="-68.004571">
        <ele>506.50</ele>
        <time>2022-10-26T14:11:27Z</time>
      </trkpt>
      <trkpt lat="10.268057" lon="-68.004448">
        <ele>506.50</ele>
        <time>2022-10-26T14:11:29Z</time>
      </trkpt>
      <trkpt lat="10.268065" lon="-68.004385">
        <ele>506.50</ele>
        <time>2022-10-26T14:11:30Z</time>
      </trkpt>
      <trkpt lat="10.268075" lon="-68.004266">
        <ele>506.60</ele>
        <time>2022-10-26T14:11:32Z</time>
      </trkpt>
      <trkpt lat="10.268095" lon="-68.004148">
        <ele>506.60</ele>
        <time>2022-10-26T14:11:34Z</time>
      </trkpt>
      <trkpt lat="10.268116" lon="-68.004024">
        <ele>506.70</ele>
        <time>2022-10-26T14:11:36Z</time>
      </trkpt>
      <trkpt lat="10.268128" lon="-68.003966">
        <ele>506.70</ele>
        <time>2022-10-26T14:11:37Z</time>
      </trkpt>
      <trkpt lat="10.268155" lon="-68.003857">
        <ele>506.80</ele>
        <time>2022-10-26T14:11:39Z</time>
      </trkpt>
      <trkpt lat="10.268169" lon="-68.003801">
        <ele>506.90</ele>
        <time>2022-10-26T14:11:40Z</time>
      </trkpt>
      <trkpt lat="10.268186" lon="-68.003740">
        <ele>506.90</ele>
        <time>2022-10-26T14:11:41Z</time>
      </trkpt>
      <trkpt lat="10.268223" lon="-68.003624">
        <ele>507.00</ele>
        <time>2022-10-26T14:11:43Z</time>
      </trkpt>
      <trkpt lat="10.268239" lon="-68.003562">
        <ele>507.00</ele>
        <time>2022-10-26T14:11:44Z</time>
      </trkpt>
      <trkpt lat="10.268275" lon="-68.003441">
        <ele>507.10</ele>
        <time>2022-10-26T14:11:46Z</time>
      </trkpt>
      <trkpt lat="10.268306" lon="-68.003318">
        <ele>507.10</ele>
        <time>2022-10-26T14:11:48Z</time>
      </trkpt>
      <trkpt lat="10.268335" lon="-68.003187">
        <ele>507.10</ele>
        <time>2022-10-26T14:11:50Z</time>
      </trkpt>
      <trkpt lat="10.268349" lon="-68.003121">
        <ele>507.10</ele>
        <time>2022-10-26T14:11:51Z</time>
      </trkpt>
      <trkpt lat="10.268365" lon="-68.003053">
        <ele>507.00</ele>
        <time>2022-10-26T14:11:52Z</time>
      </trkpt>
      <trkpt lat="10.268407" lon="-68.002912">
        <ele>506.90</ele>
        <time>2022-10-26T14:11:54Z</time>
      </trkpt>
      <trkpt lat="10.268444" lon="-68.002766">
        <ele>506.80</ele>
        <time>2022-10-26T14:11:56Z</time>
      </trkpt>
      <trkpt lat="10.268466" lon="-68.002692">
        <ele>506.70</ele>
        <time>2022-10-26T14:11:57Z</time>
      </trkpt>
      <trkpt lat="10.268488" lon="-68.002618">
        <ele>506.70</ele>
        <time>2022-10-26T14:11:58Z</time>
      </trkpt>
      <trkpt lat="10.268511" lon="-68.002543">
        <ele>506.60</ele>
        <time>2022-10-26T14:11:59Z</time>
      </trkpt>
      <trkpt lat="10.268535" lon="-68.002468">
        <ele>506.60</ele>
        <time>2022-10-26T14:12:00Z</time>
      </trkpt>
      <trkpt lat="10.268569" lon="-68.002310">
        <ele>506.50</ele>
        <time>2022-10-26T14:12:02Z</time>
      </trkpt>
      <trkpt lat="10.268582" lon="-68.002229">
        <ele>506.50</ele>
        <time>2022-10-26T14:12:03Z</time>
      </trkpt>
      <trkpt lat="10.268590" lon="-68.002063">
        <ele>506.50</ele>
        <time>2022-10-26T14:12:05Z</time>
      </trkpt>
      <trkpt lat="10.268596" lon="-68.001976">
        <ele>506.50</ele>
        <time>2022-10-26T14:12:06Z</time>
      </trkpt>
      <trkpt lat="10.268619" lon="-68.001804">
        <ele>506.40</ele>
        <time>2022-10-26T14:12:08Z</time>
      </trkpt>
      <trkpt lat="10.268650" lon="-68.001619">
        <ele>506.40</ele>
        <time>2022-10-26T14:12:10Z</time>
      </trkpt>
      <trkpt lat="10.268667" lon="-68.001523">
        <ele>506.40</ele>
        <time>2022-10-26T14:12:11Z</time>
      </trkpt>
      <trkpt lat="10.268720" lon="-68.001344">
        <ele>506.40</ele>
        <time>2022-10-26T14:12:13Z</time>
      </trkpt>
      <trkpt lat="10.268725" lon="-68.001238">
        <ele>506.40</ele>
        <time>2022-10-26T14:12:14Z</time>
      </trkpt>
      <trkpt lat="10.268725" lon="-68.001061">
        <ele>506.30</ele>
        <time>2022-10-26T14:12:16Z</time>
      </trkpt>
      <trkpt lat="10.268734" lon="-68.000891">
        <ele>506.30</ele>
        <time>2022-10-26T14:12:18Z</time>
      </trkpt>
      <trkpt lat="10.268753" lon="-68.000707">
        <ele>506.30</ele>
        <time>2022-10-26T14:12:20Z</time>
      </trkpt>
      <trkpt lat="10.268768" lon="-68.000616">
        <ele>506.30</ele>
        <time>2022-10-26T14:12:21Z</time>
      </trkpt>
      <trkpt lat="10.268782" lon="-68.000525">
        <ele>506.30</ele>
        <time>2022-10-26T14:12:22Z</time>
      </trkpt>
      <trkpt lat="10.268802" lon="-68.000344">
        <ele>506.30</ele>
        <time>2022-10-26T14:12:24Z</time>
      </trkpt>
      <trkpt lat="10.268834" lon="-68.000168">
        <ele>506.30</ele>
        <time>2022-10-26T14:12:26Z</time>
      </trkpt>
      <trkpt lat="10.268850" lon="-68.000080">
        <ele>506.20</ele>
        <time>2022-10-26T14:12:27Z</time>
      </trkpt>
      <trkpt lat="10.268866" lon="-67.999992">
        <ele>506.20</ele>
        <time>2022-10-26T14:12:28Z</time>
      </trkpt>
      <trkpt lat="10.268888" lon="-67.999805">
        <ele>506.20</ele>
        <time>2022-10-26T14:12:30Z</time>
      </trkpt>
      <trkpt lat="10.268901" lon="-67.999712">
        <ele>506.20</ele>
        <time>2022-10-26T14:12:31Z</time>
      </trkpt>
      <trkpt lat="10.268919" lon="-67.999620">
        <ele>506.20</ele>
        <time>2022-10-26T14:12:32Z</time>
      </trkpt>
      <trkpt lat="10.268939" lon="-67.999533">
        <ele>506.20</ele>
        <time>2022-10-26T14:12:33Z</time>
      </trkpt>
      <trkpt lat="10.268959" lon="-67.999448">
        <ele>506.30</ele>
        <time>2022-10-26T14:12:34Z</time>
      </trkpt>
      <trkpt lat="10.268999" lon="-67.999273">
        <ele>506.20</ele>
        <time>2022-10-26T14:12:36Z</time>
      </trkpt>
      <trkpt lat="10.269018" lon="-67.999184">
        <ele>506.20</ele>
        <time>2022-10-26T14:12:37Z</time>
      </trkpt>
      <trkpt lat="10.269041" lon="-67.999094">
        <ele>506.20</ele>
        <time>2022-10-26T14:12:38Z</time>
      </trkpt>
      <trkpt lat="10.269063" lon="-67.999005">
        <ele>506.20</ele>
        <time>2022-10-26T14:12:39Z</time>
      </trkpt>
      <trkpt lat="10.269111" lon="-67.998829">
        <ele>506.20</ele>
        <time>2022-10-26T14:12:41Z</time>
      </trkpt>
      <trkpt lat="10.269141" lon="-67.998741">
        <ele>506.30</ele>
        <time>2022-10-26T14:12:42Z</time>
      </trkpt>
      <trkpt lat="10.269202" lon="-67.998565">
        <ele>506.20</ele>
        <time>2022-10-26T14:12:44Z</time>
      </trkpt>
      <trkpt lat="10.269228" lon="-67.998480">
        <ele>506.20</ele>
        <time>2022-10-26T14:12:45Z</time>
      </trkpt>
      <trkpt lat="10.269255" lon="-67.998393">
        <ele>506.20</ele>
        <time>2022-10-26T14:12:46Z</time>
      </trkpt>
      <trkpt lat="10.269306" lon="-67.998214">
        <ele>506.30</ele>
        <time>2022-10-26T14:12:48Z</time>
      </trkpt>
      <trkpt lat="10.269358" lon="-67.998041">
        <ele>506.30</ele>
        <time>2022-10-26T14:12:50Z</time>
      </trkpt>
      <trkpt lat="10.269385" lon="-67.997955">
        <ele>506.30</ele>
        <time>2022-10-26T14:12:51Z</time>
      </trkpt>
      <trkpt lat="10.269447" lon="-67.997787">
        <ele>506.40</ele>
        <time>2022-10-26T14:12:53Z</time>
      </trkpt>
      <trkpt lat="10.269478" lon="-67.997702">
        <ele>506.50</ele>
        <time>2022-10-26T14:12:54Z</time>
      </trkpt>
      <trkpt lat="10.269507" lon="-67.997620">
        <ele>506.50</ele>
        <time>2022-10-26T14:12:55Z</time>
      </trkpt>
      <trkpt lat="10.269540" lon="-67.997537">
        <ele>506.60</ele>
        <time>2022-10-26T14:12:56Z</time>
      </trkpt>
      <trkpt lat="10.269574" lon="-67.997453">
        <ele>506.70</ele>
        <time>2022-10-26T14:12:57Z</time>
      </trkpt>
      <trkpt lat="10.269606" lon="-67.997370">
        <ele>506.80</ele>
        <time>2022-10-26T14:12:58Z</time>
      </trkpt>
      <trkpt lat="10.269675" lon="-67.997210">
        <ele>507.10</ele>
        <time>2022-10-26T14:13:00Z</time>
      </trkpt>
      <trkpt lat="10.269711" lon="-67.997135">
        <ele>507.20</ele>
        <time>2022-10-26T14:13:01Z</time>
      </trkpt>
      <trkpt lat="10.269783" lon="-67.996986">
        <ele>507.50</ele>
        <time>2022-10-26T14:13:03Z</time>
      </trkpt>
      <trkpt lat="10.269817" lon="-67.996914">
        <ele>507.60</ele>
        <time>2022-10-26T14:13:04Z</time>
      </trkpt>
      <trkpt lat="10.269872" lon="-67.996775">
        <ele>507.90</ele>
        <time>2022-10-26T14:13:06Z</time>
      </trkpt>
      <trkpt lat="10.269899" lon="-67.996707">
        <ele>508.10</ele>
        <time>2022-10-26T14:13:07Z</time>
      </trkpt>
      <trkpt lat="10.269931" lon="-67.996641">
        <ele>508.30</ele>
        <time>2022-10-26T14:13:08Z</time>
      </trkpt>
      <trkpt lat="10.270001" lon="-67.996499">
        <ele>508.70</ele>
        <time>2022-10-26T14:13:10Z</time>
      </trkpt>
      <trkpt lat="10.270069" lon="-67.996355">
        <ele>509.20</ele>
        <time>2022-10-26T14:13:12Z</time>
      </trkpt>
      <trkpt lat="10.270133" lon="-67.996218">
        <ele>509.60</ele>
        <time>2022-10-26T14:13:14Z</time>
      </trkpt>
      <trkpt lat="10.270165" lon="-67.996149">
        <ele>509.80</ele>
        <time>2022-10-26T14:13:15Z</time>
      </trkpt>
      <trkpt lat="10.270195" lon="-67.996082">
        <ele>510.00</ele>
        <time>2022-10-26T14:13:16Z</time>
      </trkpt>
      <trkpt lat="10.270263" lon="-67.995947">
        <ele>510.50</ele>
        <time>2022-10-26T14:13:18Z</time>
      </trkpt>
      <trkpt lat="10.270294" lon="-67.995885">
        <ele>510.70</ele>
        <time>2022-10-26T14:13:19Z</time>
      </trkpt>
      <trkpt lat="10.270322" lon="-67.995826">
        <ele>510.90</ele>
        <time>2022-10-26T14:13:20Z</time>
      </trkpt>
      <trkpt lat="10.270346" lon="-67.995767">
        <ele>511.10</ele>
        <time>2022-10-26T14:13:21Z</time>
      </trkpt>
      <trkpt lat="10.270372" lon="-67.995709">
        <ele>511.30</ele>
        <time>2022-10-26T14:13:22Z</time>
      </trkpt>
      <trkpt lat="10.270440" lon="-67.995586">
        <ele>511.80</ele>
        <time>2022-10-26T14:13:24Z</time>
      </trkpt>
      <trkpt lat="10.270470" lon="-67.995523">
        <ele>512.00</ele>
        <time>2022-10-26T14:13:25Z</time>
      </trkpt>
      <trkpt lat="10.270529" lon="-67.995410">
        <ele>512.30</ele>
        <time>2022-10-26T14:13:27Z</time>
      </trkpt>
      <trkpt lat="10.270559" lon="-67.995353">
        <ele>512.50</ele>
        <time>2022-10-26T14:13:28Z</time>
      </trkpt>
      <trkpt lat="10.270622" lon="-67.995231">
        <ele>512.90</ele>
        <time>2022-10-26T14:13:30Z</time>
      </trkpt>
      <trkpt lat="10.270652" lon="-67.995165">
        <ele>513.10</ele>
        <time>2022-10-26T14:13:31Z</time>
      </trkpt>
      <trkpt lat="10.270707" lon="-67.995025">
        <ele>513.50</ele>
        <time>2022-10-26T14:13:33Z</time>
      </trkpt>
      <trkpt lat="10.270738" lon="-67.994958">
        <ele>513.70</ele>
        <time>2022-10-26T14:13:34Z</time>
      </trkpt>
      <trkpt lat="10.270796" lon="-67.994824">
        <ele>514.10</ele>
        <time>2022-10-26T14:13:36Z</time>
      </trkpt>
      <trkpt lat="10.270846" lon="-67.994694">
        <ele>514.50</ele>
        <time>2022-10-26T14:13:38Z</time>
      </trkpt>
      <trkpt lat="10.270868" lon="-67.994630">
        <ele>514.70</ele>
        <time>2022-10-26T14:13:39Z</time>
      </trkpt>
      <trkpt lat="10.270906" lon="-67.994496">
        <ele>515.10</ele>
        <time>2022-10-26T14:13:41Z</time>
      </trkpt>
      <trkpt lat="10.270940" lon="-67.994355">
        <ele>515.50</ele>
        <time>2022-10-26T14:13:43Z</time>
      </trkpt>
      <trkpt lat="10.270959" lon="-67.994284">
        <ele>515.70</ele>
        <time>2022-10-26T14:13:44Z</time>
      </trkpt>
      <trkpt lat="10.270979" lon="-67.994212">
        <ele>515.90</ele>
        <time>2022-10-26T14:13:45Z</time>
      </trkpt>
      <trkpt lat="10.270996" lon="-67.994141">
        <ele>516.10</ele>
        <time>2022-10-26T14:13:46Z</time>
      </trkpt>
      <trkpt lat="10.271020" lon="-67.994005">
        <ele>516.40</ele>
        <time>2022-10-26T14:13:48Z</time>
      </trkpt>
      <trkpt lat="10.271036" lon="-67.993873">
        <ele>516.80</ele>
        <time>2022-10-26T14:13:50Z</time>
      </trkpt>
      <trkpt lat="10.271045" lon="-67.993807">
        <ele>517.00</ele>
        <time>2022-10-26T14:13:51Z</time>
      </trkpt>
      <trkpt lat="10.271053" lon="-67.993740">
        <ele>517.10</ele>
        <time>2022-10-26T14:13:52Z</time>
      </trkpt>
      <trkpt lat="10.271064" lon="-67.993608">
        <ele>517.40</ele>
        <time>2022-10-26T14:13:54Z</time>
      </trkpt>
      <trkpt lat="10.271080" lon="-67.993470">
        <ele>517.70</ele>
        <time>2022-10-26T14:13:56Z</time>
      </trkpt>
      <trkpt lat="10.271085" lon="-67.993402">
        <ele>517.90</ele>
        <time>2022-10-26T14:13:57Z</time>
      </trkpt>
      <trkpt lat="10.271088" lon="-67.993339">
        <ele>518.00</ele>
        <time>2022-10-26T14:13:58Z</time>
      </trkpt>
      <trkpt lat="10.271089" lon="-67.993220">
        <ele>518.10</ele>
        <time>2022-10-26T14:14:00Z</time>
      </trkpt>
      <trkpt lat="10.271093" lon="-67.993154">
        <ele>518.20</ele>
        <time>2022-10-26T14:14:01Z</time>
      </trkpt>
      <trkpt lat="10.271101" lon="-67.993016">
        <ele>518.20</ele>
        <time>2022-10-26T14:14:03Z</time>
      </trkpt>
      <trkpt lat="10.271107" lon="-67.992941">
        <ele>518.20</ele>
        <time>2022-10-26T14:14:04Z</time>
      </trkpt>
      <trkpt lat="10.271111" lon="-67.992866">
        <ele>518.30</ele>
        <time>2022-10-26T14:14:05Z</time>
      </trkpt>
      <trkpt lat="10.271112" lon="-67.992794">
        <ele>518.30</ele>
        <time>2022-10-26T14:14:06Z</time>
      </trkpt>
      <trkpt lat="10.271111" lon="-67.992725">
        <ele>518.30</ele>
        <time>2022-10-26T14:14:07Z</time>
      </trkpt>
      <trkpt lat="10.271102" lon="-67.992658">
        <ele>518.30</ele>
        <time>2022-10-26T14:14:08Z</time>
      </trkpt>
      <trkpt lat="10.271092" lon="-67.992588">
        <ele>518.30</ele>
        <time>2022-10-26T14:14:09Z</time>
      </trkpt>
      <trkpt lat="10.271090" lon="-67.992520">
        <ele>518.30</ele>
        <time>2022-10-26T14:14:10Z</time>
      </trkpt>
      <trkpt lat="10.271084" lon="-67.992455">
        <ele>518.20</ele>
        <time>2022-10-26T14:14:11Z</time>
      </trkpt>
      <trkpt lat="10.271111" lon="-67.992316">
        <ele>518.10</ele>
        <time>2022-10-26T14:14:13Z</time>
      </trkpt>
      <trkpt lat="10.271127" lon="-67.992241">
        <ele>518.00</ele>
        <time>2022-10-26T14:14:14Z</time>
      </trkpt>
      <trkpt lat="10.271134" lon="-67.992166">
        <ele>517.80</ele>
        <time>2022-10-26T14:14:15Z</time>
      </trkpt>
      <trkpt lat="10.271134" lon="-67.992090">
        <ele>517.70</ele>
        <time>2022-10-26T14:14:16Z</time>
      </trkpt>
      <trkpt lat="10.271128" lon="-67.992011">
        <ele>517.50</ele>
        <time>2022-10-26T14:14:17Z</time>
      </trkpt>
      <trkpt lat="10.271120" lon="-67.991848">
        <ele>517.00</ele>
        <time>2022-10-26T14:14:19Z</time>
      </trkpt>
      <trkpt lat="10.271121" lon="-67.991757">
        <ele>516.70</ele>
        <time>2022-10-26T14:14:20Z</time>
      </trkpt>
      <trkpt lat="10.271121" lon="-67.991665">
        <ele>516.40</ele>
        <time>2022-10-26T14:14:21Z</time>
      </trkpt>
      <trkpt lat="10.271122" lon="-67.991575">
        <ele>516.10</ele>
        <time>2022-10-26T14:14:22Z</time>
      </trkpt>
      <trkpt lat="10.271129" lon="-67.991383">
        <ele>515.40</ele>
        <time>2022-10-26T14:14:24Z</time>
      </trkpt>
      <trkpt lat="10.271132" lon="-67.991286">
        <ele>515.00</ele>
        <time>2022-10-26T14:14:25Z</time>
      </trkpt>
      <trkpt lat="10.271132" lon="-67.991084">
        <ele>514.20</ele>
        <time>2022-10-26T14:14:27Z</time>
      </trkpt>
      <trkpt lat="10.271132" lon="-67.990982">
        <ele>513.80</ele>
        <time>2022-10-26T14:14:28Z</time>
      </trkpt>
      <trkpt lat="10.271132" lon="-67.990778">
        <ele>513.00</ele>
        <time>2022-10-26T14:14:30Z</time>
      </trkpt>
      <trkpt lat="10.271127" lon="-67.990677">
        <ele>512.60</ele>
        <time>2022-10-26T14:14:31Z</time>
      </trkpt>
      <trkpt lat="10.271131" lon="-67.990484">
        <ele>511.70</ele>
        <time>2022-10-26T14:14:33Z</time>
      </trkpt>
      <trkpt lat="10.271134" lon="-67.990390">
        <ele>511.30</ele>
        <time>2022-10-26T14:14:34Z</time>
      </trkpt>
      <trkpt lat="10.271135" lon="-67.990300">
        <ele>510.90</ele>
        <time>2022-10-26T14:14:35Z</time>
      </trkpt>
      <trkpt lat="10.271132" lon="-67.990120">
        <ele>510.30</ele>
        <time>2022-10-26T14:14:37Z</time>
      </trkpt>
      <trkpt lat="10.271131" lon="-67.990034">
        <ele>510.00</ele>
        <time>2022-10-26T14:14:38Z</time>
      </trkpt>
      <trkpt lat="10.271130" lon="-67.989950">
        <ele>509.70</ele>
        <time>2022-10-26T14:14:39Z</time>
      </trkpt>
      <trkpt lat="10.271129" lon="-67.989855">
        <ele>509.30</ele>
        <time>2022-10-26T14:14:40Z</time>
      </trkpt>
      <trkpt lat="10.271122" lon="-67.989651">
        <ele>508.50</ele>
        <time>2022-10-26T14:14:42Z</time>
      </trkpt>
      <trkpt lat="10.271119" lon="-67.989544">
        <ele>508.20</ele>
        <time>2022-10-26T14:14:43Z</time>
      </trkpt>
      <trkpt lat="10.271148" lon="-67.989303">
        <ele>507.30</ele>
        <time>2022-10-26T14:14:45Z</time>
      </trkpt>
      <trkpt lat="10.271165" lon="-67.989179">
        <ele>506.90</ele>
        <time>2022-10-26T14:14:46Z</time>
      </trkpt>
      <trkpt lat="10.271172" lon="-67.989061">
        <ele>506.40</ele>
        <time>2022-10-26T14:14:47Z</time>
      </trkpt>
      <trkpt lat="10.271178" lon="-67.988948">
        <ele>506.00</ele>
        <time>2022-10-26T14:14:48Z</time>
      </trkpt>
      <trkpt lat="10.271177" lon="-67.988837">
        <ele>505.50</ele>
        <time>2022-10-26T14:14:49Z</time>
      </trkpt>
      <trkpt lat="10.271176" lon="-67.988726">
        <ele>505.10</ele>
        <time>2022-10-26T14:14:50Z</time>
      </trkpt>
      <trkpt lat="10.271174" lon="-67.988513">
        <ele>504.30</ele>
        <time>2022-10-26T14:14:52Z</time>
      </trkpt>
      <trkpt lat="10.271175" lon="-67.988298">
        <ele>503.60</ele>
        <time>2022-10-26T14:14:54Z</time>
      </trkpt>
      <trkpt lat="10.271174" lon="-67.988183">
        <ele>503.20</ele>
        <time>2022-10-26T14:14:55Z</time>
      </trkpt>
      <trkpt lat="10.271170" lon="-67.988071">
        <ele>502.80</ele>
        <time>2022-10-26T14:14:56Z</time>
      </trkpt>
      <trkpt lat="10.271165" lon="-67.987959">
        <ele>502.40</ele>
        <time>2022-10-26T14:14:57Z</time>
      </trkpt>
      <trkpt lat="10.271160" lon="-67.987849">
        <ele>502.00</ele>
        <time>2022-10-26T14:14:58Z</time>
      </trkpt>
      <trkpt lat="10.271156" lon="-67.987623">
        <ele>501.30</ele>
        <time>2022-10-26T14:15:00Z</time>
      </trkpt>
      <trkpt lat="10.271151" lon="-67.987511">
        <ele>500.90</ele>
        <time>2022-10-26T14:15:01Z</time>
      </trkpt>
      <trkpt lat="10.271150" lon="-67.987287">
        <ele>500.20</ele>
        <time>2022-10-26T14:15:03Z</time>
      </trkpt>
      <trkpt lat="10.271152" lon="-67.987181">
        <ele>499.80</ele>
        <time>2022-10-26T14:15:04Z</time>
      </trkpt>
      <trkpt lat="10.271156" lon="-67.986966">
        <ele>499.10</ele>
        <time>2022-10-26T14:15:06Z</time>
      </trkpt>
      <trkpt lat="10.271162" lon="-67.986860">
        <ele>498.80</ele>
        <time>2022-10-26T14:15:07Z</time>
      </trkpt>
      <trkpt lat="10.271168" lon="-67.986755">
        <ele>498.50</ele>
        <time>2022-10-26T14:15:08Z</time>
      </trkpt>
      <trkpt lat="10.271172" lon="-67.986646">
        <ele>498.20</ele>
        <time>2022-10-26T14:15:09Z</time>
      </trkpt>
      <trkpt lat="10.271174" lon="-67.986530">
        <ele>497.90</ele>
        <time>2022-10-26T14:15:10Z</time>
      </trkpt>
      <trkpt lat="10.271170" lon="-67.986296">
        <ele>497.30</ele>
        <time>2022-10-26T14:15:12Z</time>
      </trkpt>
      <trkpt lat="10.271169" lon="-67.986176">
        <ele>497.00</ele>
        <time>2022-10-26T14:15:13Z</time>
      </trkpt>
      <trkpt lat="10.271165" lon="-67.986056">
        <ele>496.70</ele>
        <time>2022-10-26T14:15:14Z</time>
      </trkpt>
      <trkpt lat="10.271164" lon="-67.985942">
        <ele>496.40</ele>
        <time>2022-10-26T14:15:15Z</time>
      </trkpt>
      <trkpt lat="10.271170" lon="-67.985710">
        <ele>495.90</ele>
        <time>2022-10-26T14:15:17Z</time>
      </trkpt>
      <trkpt lat="10.271180" lon="-67.985588">
        <ele>495.60</ele>
        <time>2022-10-26T14:15:18Z</time>
      </trkpt>
      <trkpt lat="10.271192" lon="-67.985469">
        <ele>495.40</ele>
        <time>2022-10-26T14:15:19Z</time>
      </trkpt>
      <trkpt lat="10.271210" lon="-67.985245">
        <ele>495.00</ele>
        <time>2022-10-26T14:15:21Z</time>
      </trkpt>
      <trkpt lat="10.271213" lon="-67.985136">
        <ele>494.90</ele>
        <time>2022-10-26T14:15:22Z</time>
      </trkpt>
      <trkpt lat="10.271214" lon="-67.985025">
        <ele>494.90</ele>
        <time>2022-10-26T14:15:23Z</time>
      </trkpt>
      <trkpt lat="10.271215" lon="-67.984815">
        <ele>494.60</ele>
        <time>2022-10-26T14:15:25Z</time>
      </trkpt>
      <trkpt lat="10.271216" lon="-67.984708">
        <ele>494.40</ele>
        <time>2022-10-26T14:15:26Z</time>
      </trkpt>
      <trkpt lat="10.271220" lon="-67.984604">
        <ele>494.30</ele>
        <time>2022-10-26T14:15:27Z</time>
      </trkpt>
      <trkpt lat="10.271239" lon="-67.984401">
        <ele>494.20</ele>
        <time>2022-10-26T14:15:29Z</time>
      </trkpt>
      <trkpt lat="10.271251" lon="-67.984297">
        <ele>494.10</ele>
        <time>2022-10-26T14:15:30Z</time>
      </trkpt>
      <trkpt lat="10.271264" lon="-67.984192">
        <ele>494.10</ele>
        <time>2022-10-26T14:15:31Z</time>
      </trkpt>
      <trkpt lat="10.271288" lon="-67.983981">
        <ele>494.10</ele>
        <time>2022-10-26T14:15:33Z</time>
      </trkpt>
      <trkpt lat="10.271304" lon="-67.983871">
        <ele>494.10</ele>
        <time>2022-10-26T14:15:34Z</time>
      </trkpt>
      <trkpt lat="10.271342" lon="-67.983657">
        <ele>494.00</ele>
        <time>2022-10-26T14:15:36Z</time>
      </trkpt>
      <trkpt lat="10.271365" lon="-67.983551">
        <ele>494.00</ele>
        <time>2022-10-26T14:15:37Z</time>
      </trkpt>
      <trkpt lat="10.271388" lon="-67.983446">
        <ele>494.00</ele>
        <time>2022-10-26T14:15:38Z</time>
      </trkpt>
      <trkpt lat="10.271439" lon="-67.983242">
        <ele>494.00</ele>
        <time>2022-10-26T14:15:40Z</time>
      </trkpt>
      <trkpt lat="10.271489" lon="-67.983032">
        <ele>494.10</ele>
        <time>2022-10-26T14:15:42Z</time>
      </trkpt>
      <trkpt lat="10.271516" lon="-67.982929">
        <ele>494.10</ele>
        <time>2022-10-26T14:15:43Z</time>
      </trkpt>
      <trkpt lat="10.271533" lon="-67.982831">
        <ele>494.10</ele>
        <time>2022-10-26T14:15:44Z</time>
      </trkpt>
      <trkpt lat="10.271555" lon="-67.982732">
        <ele>494.00</ele>
        <time>2022-10-26T14:15:45Z</time>
      </trkpt>
      <trkpt lat="10.271605" lon="-67.982536">
        <ele>494.00</ele>
        <time>2022-10-26T14:15:47Z</time>
      </trkpt>
      <trkpt lat="10.271634" lon="-67.982425">
        <ele>493.90</ele>
        <time>2022-10-26T14:15:48Z</time>
      </trkpt>
      <trkpt lat="10.271691" lon="-67.982206">
        <ele>493.80</ele>
        <time>2022-10-26T14:15:50Z</time>
      </trkpt>
      <trkpt lat="10.271746" lon="-67.982009">
        <ele>493.70</ele>
        <time>2022-10-26T14:15:52Z</time>
      </trkpt>
      <trkpt lat="10.271793" lon="-67.981817">
        <ele>493.50</ele>
        <time>2022-10-26T14:15:54Z</time>
      </trkpt>
      <trkpt lat="10.271839" lon="-67.981637">
        <ele>493.40</ele>
        <time>2022-10-26T14:15:56Z</time>
      </trkpt>
      <trkpt lat="10.271891" lon="-67.981452">
        <ele>493.30</ele>
        <time>2022-10-26T14:15:58Z</time>
      </trkpt>
      <trkpt lat="10.271945" lon="-67.981268">
        <ele>493.20</ele>
        <time>2022-10-26T14:16:00Z</time>
      </trkpt>
      <trkpt lat="10.271970" lon="-67.981178">
        <ele>493.10</ele>
        <time>2022-10-26T14:16:01Z</time>
      </trkpt>
      <trkpt lat="10.272020" lon="-67.980996">
        <ele>493.00</ele>
        <time>2022-10-26T14:16:03Z</time>
      </trkpt>
      <trkpt lat="10.272046" lon="-67.980905">
        <ele>492.90</ele>
        <time>2022-10-26T14:16:04Z</time>
      </trkpt>
      <trkpt lat="10.272095" lon="-67.980727">
        <ele>492.80</ele>
        <time>2022-10-26T14:16:06Z</time>
      </trkpt>
      <trkpt lat="10.272116" lon="-67.980636">
        <ele>492.70</ele>
        <time>2022-10-26T14:16:07Z</time>
      </trkpt>
      <trkpt lat="10.272141" lon="-67.980545">
        <ele>492.70</ele>
        <time>2022-10-26T14:16:08Z</time>
      </trkpt>
      <trkpt lat="10.272166" lon="-67.980458">
        <ele>492.60</ele>
        <time>2022-10-26T14:16:09Z</time>
      </trkpt>
      <trkpt lat="10.272193" lon="-67.980370">
        <ele>492.60</ele>
        <time>2022-10-26T14:16:10Z</time>
      </trkpt>
      <trkpt lat="10.272219" lon="-67.980280">
        <ele>492.60</ele>
        <time>2022-10-26T14:16:11Z</time>
      </trkpt>
      <trkpt lat="10.272272" lon="-67.980097">
        <ele>492.50</ele>
        <time>2022-10-26T14:16:13Z</time>
      </trkpt>
      <trkpt lat="10.272301" lon="-67.980004">
        <ele>492.40</ele>
        <time>2022-10-26T14:16:14Z</time>
      </trkpt>
      <trkpt lat="10.272328" lon="-67.979913">
        <ele>492.40</ele>
        <time>2022-10-26T14:16:15Z</time>
      </trkpt>
      <trkpt lat="10.272352" lon="-67.979821">
        <ele>492.30</ele>
        <time>2022-10-26T14:16:16Z</time>
      </trkpt>
      <trkpt lat="10.272395" lon="-67.979635">
        <ele>492.20</ele>
        <time>2022-10-26T14:16:18Z</time>
      </trkpt>
      <trkpt lat="10.272417" lon="-67.979541">
        <ele>492.20</ele>
        <time>2022-10-26T14:16:19Z</time>
      </trkpt>
      <trkpt lat="10.272470" lon="-67.979355">
        <ele>492.10</ele>
        <time>2022-10-26T14:16:21Z</time>
      </trkpt>
      <trkpt lat="10.272495" lon="-67.979264">
        <ele>492.10</ele>
        <time>2022-10-26T14:16:22Z</time>
      </trkpt>
      <trkpt lat="10.272547" lon="-67.979067">
        <ele>491.90</ele>
        <time>2022-10-26T14:16:24Z</time>
      </trkpt>
      <trkpt lat="10.272566" lon="-67.978970">
        <ele>491.80</ele>
        <time>2022-10-26T14:16:25Z</time>
      </trkpt>
      <trkpt lat="10.272589" lon="-67.978874">
        <ele>491.70</ele>
        <time>2022-10-26T14:16:26Z</time>
      </trkpt>
      <trkpt lat="10.272614" lon="-67.978779">
        <ele>491.60</ele>
        <time>2022-10-26T14:16:27Z</time>
      </trkpt>
      <trkpt lat="10.272635" lon="-67.978689">
        <ele>491.50</ele>
        <time>2022-10-26T14:16:28Z</time>
      </trkpt>
      <trkpt lat="10.272655" lon="-67.978596">
        <ele>491.50</ele>
        <time>2022-10-26T14:16:29Z</time>
      </trkpt>
      <trkpt lat="10.272694" lon="-67.978410">
        <ele>491.40</ele>
        <time>2022-10-26T14:16:31Z</time>
      </trkpt>
      <trkpt lat="10.272716" lon="-67.978316">
        <ele>491.30</ele>
        <time>2022-10-26T14:16:32Z</time>
      </trkpt>
      <trkpt lat="10.272741" lon="-67.978222">
        <ele>491.30</ele>
        <time>2022-10-26T14:16:33Z</time>
      </trkpt>
      <trkpt lat="10.272768" lon="-67.978131">
        <ele>491.20</ele>
        <time>2022-10-26T14:16:34Z</time>
      </trkpt>
      <trkpt lat="10.272822" lon="-67.977951">
        <ele>491.10</ele>
        <time>2022-10-26T14:16:36Z</time>
      </trkpt>
      <trkpt lat="10.272853" lon="-67.977857">
        <ele>491.10</ele>
        <time>2022-10-26T14:16:37Z</time>
      </trkpt>
      <trkpt lat="10.272912" lon="-67.977666">
        <ele>491.10</ele>
        <time>2022-10-26T14:16:39Z</time>
      </trkpt>
      <trkpt lat="10.272938" lon="-67.977569">
        <ele>491.10</ele>
        <time>2022-10-26T14:16:40Z</time>
      </trkpt>
      <trkpt lat="10.272964" lon="-67.977472">
        <ele>491.00</ele>
        <time>2022-10-26T14:16:41Z</time>
      </trkpt>
      <trkpt lat="10.273011" lon="-67.977277">
        <ele>490.90</ele>
        <time>2022-10-26T14:16:43Z</time>
      </trkpt>
      <trkpt lat="10.273034" lon="-67.977174">
        <ele>490.90</ele>
        <time>2022-10-26T14:16:44Z</time>
      </trkpt>
      <trkpt lat="10.273057" lon="-67.977072">
        <ele>490.80</ele>
        <time>2022-10-26T14:16:45Z</time>
      </trkpt>
      <trkpt lat="10.273082" lon="-67.976972">
        <ele>490.70</ele>
        <time>2022-10-26T14:16:46Z</time>
      </trkpt>
      <trkpt lat="10.273133" lon="-67.976775">
        <ele>490.60</ele>
        <time>2022-10-26T14:16:48Z</time>
      </trkpt>
      <trkpt lat="10.273186" lon="-67.976577">
        <ele>490.50</ele>
        <time>2022-10-26T14:16:50Z</time>
      </trkpt>
      <trkpt lat="10.273211" lon="-67.976478">
        <ele>490.40</ele>
        <time>2022-10-26T14:16:51Z</time>
      </trkpt>
      <trkpt lat="10.273263" lon="-67.976280">
        <ele>490.30</ele>
        <time>2022-10-26T14:16:53Z</time>
      </trkpt>
      <trkpt lat="10.273289" lon="-67.976178">
        <ele>490.30</ele>
        <time>2022-10-26T14:16:54Z</time>
      </trkpt>
      <trkpt lat="10.273345" lon="-67.975975">
        <ele>490.20</ele>
        <time>2022-10-26T14:16:56Z</time>
      </trkpt>
      <trkpt lat="10.273403" lon="-67.975775">
        <ele>490.10</ele>
        <time>2022-10-26T14:16:58Z</time>
      </trkpt>
      <trkpt lat="10.273464" lon="-67.975564">
        <ele>490.10</ele>
        <time>2022-10-26T14:17:00Z</time>
      </trkpt>
      <trkpt lat="10.273523" lon="-67.975357">
        <ele>490.10</ele>
        <time>2022-10-26T14:17:02Z</time>
      </trkpt>
      <trkpt lat="10.273549" lon="-67.975251">
        <ele>490.10</ele>
        <time>2022-10-26T14:17:03Z</time>
      </trkpt>
      <trkpt lat="10.273575" lon="-67.975149">
        <ele>490.20</ele>
        <time>2022-10-26T14:17:04Z</time>
      </trkpt>
      <trkpt lat="10.273601" lon="-67.975050">
        <ele>490.20</ele>
        <time>2022-10-26T14:17:05Z</time>
      </trkpt>
      <trkpt lat="10.273650" lon="-67.974867">
        <ele>490.30</ele>
        <time>2022-10-26T14:17:07Z</time>
      </trkpt>
      <trkpt lat="10.273675" lon="-67.974774">
        <ele>490.40</ele>
        <time>2022-10-26T14:17:08Z</time>
      </trkpt>
      <trkpt lat="10.273699" lon="-67.974682">
        <ele>490.50</ele>
        <time>2022-10-26T14:17:09Z</time>
      </trkpt>
      <trkpt lat="10.273717" lon="-67.974587">
        <ele>490.50</ele>
        <time>2022-10-26T14:17:10Z</time>
      </trkpt>
      <trkpt lat="10.273743" lon="-67.974407">
        <ele>490.50</ele>
        <time>2022-10-26T14:17:12Z</time>
      </trkpt>
      <trkpt lat="10.273758" lon="-67.974319">
        <ele>490.60</ele>
        <time>2022-10-26T14:17:13Z</time>
      </trkpt>
      <trkpt lat="10.273774" lon="-67.974232">
        <ele>490.60</ele>
        <time>2022-10-26T14:17:14Z</time>
      </trkpt>
      <trkpt lat="10.273813" lon="-67.974059">
        <ele>490.60</ele>
        <time>2022-10-26T14:17:16Z</time>
      </trkpt>
      <trkpt lat="10.273852" lon="-67.973882">
        <ele>490.70</ele>
        <time>2022-10-26T14:17:18Z</time>
      </trkpt>
      <trkpt lat="10.273897" lon="-67.973703">
        <ele>490.70</ele>
        <time>2022-10-26T14:17:20Z</time>
      </trkpt>
      <trkpt lat="10.273916" lon="-67.973616">
        <ele>490.70</ele>
        <time>2022-10-26T14:17:21Z</time>
      </trkpt>
      <trkpt lat="10.273935" lon="-67.973532">
        <ele>490.60</ele>
        <time>2022-10-26T14:17:22Z</time>
      </trkpt>
      <trkpt lat="10.273972" lon="-67.973364">
        <ele>490.60</ele>
        <time>2022-10-26T14:17:24Z</time>
      </trkpt>
      <trkpt lat="10.273991" lon="-67.973279">
        <ele>490.60</ele>
        <time>2022-10-26T14:17:25Z</time>
      </trkpt>
      <trkpt lat="10.274022" lon="-67.973108">
        <ele>490.60</ele>
        <time>2022-10-26T14:17:27Z</time>
      </trkpt>
      <trkpt lat="10.274057" lon="-67.972934">
        <ele>490.60</ele>
        <time>2022-10-26T14:17:29Z</time>
      </trkpt>
      <trkpt lat="10.274095" lon="-67.972757">
        <ele>490.60</ele>
        <time>2022-10-26T14:17:31Z</time>
      </trkpt>
      <trkpt lat="10.274125" lon="-67.972587">
        <ele>490.50</ele>
        <time>2022-10-26T14:17:33Z</time>
      </trkpt>
      <trkpt lat="10.274159" lon="-67.972417">
        <ele>490.40</ele>
        <time>2022-10-26T14:17:35Z</time>
      </trkpt>
      <trkpt lat="10.274175" lon="-67.972327">
        <ele>490.40</ele>
        <time>2022-10-26T14:17:36Z</time>
      </trkpt>
      <trkpt lat="10.274193" lon="-67.972238">
        <ele>490.30</ele>
        <time>2022-10-26T14:17:37Z</time>
      </trkpt>
      <trkpt lat="10.274213" lon="-67.972150">
        <ele>490.20</ele>
        <time>2022-10-26T14:17:38Z</time>
      </trkpt>
      <trkpt lat="10.274249" lon="-67.971982">
        <ele>490.00</ele>
        <time>2022-10-26T14:17:40Z</time>
      </trkpt>
      <trkpt lat="10.274290" lon="-67.971812">
        <ele>489.90</ele>
        <time>2022-10-26T14:17:42Z</time>
      </trkpt>
      <trkpt lat="10.274310" lon="-67.971726">
        <ele>489.80</ele>
        <time>2022-10-26T14:17:43Z</time>
      </trkpt>
      <trkpt lat="10.274356" lon="-67.971554">
        <ele>489.70</ele>
        <time>2022-10-26T14:17:45Z</time>
      </trkpt>
      <trkpt lat="10.274386" lon="-67.971384">
        <ele>489.60</ele>
        <time>2022-10-26T14:17:47Z</time>
      </trkpt>
      <trkpt lat="10.274400" lon="-67.971301">
        <ele>489.50</ele>
        <time>2022-10-26T14:17:48Z</time>
      </trkpt>
      <trkpt lat="10.274415" lon="-67.971220">
        <ele>489.40</ele>
        <time>2022-10-26T14:17:49Z</time>
      </trkpt>
      <trkpt lat="10.274431" lon="-67.971136">
        <ele>489.30</ele>
        <time>2022-10-26T14:17:50Z</time>
      </trkpt>
      <trkpt lat="10.274463" lon="-67.970963">
        <ele>489.20</ele>
        <time>2022-10-26T14:17:52Z</time>
      </trkpt>
      <trkpt lat="10.274480" lon="-67.970871">
        <ele>489.00</ele>
        <time>2022-10-26T14:17:53Z</time>
      </trkpt>
      <trkpt lat="10.274497" lon="-67.970777">
        <ele>488.90</ele>
        <time>2022-10-26T14:17:54Z</time>
      </trkpt>
      <trkpt lat="10.274540" lon="-67.970588">
        <ele>488.70</ele>
        <time>2022-10-26T14:17:56Z</time>
      </trkpt>
      <trkpt lat="10.274584" lon="-67.970409">
        <ele>488.50</ele>
        <time>2022-10-26T14:17:58Z</time>
      </trkpt>
      <trkpt lat="10.274605" lon="-67.970316">
        <ele>488.40</ele>
        <time>2022-10-26T14:17:59Z</time>
      </trkpt>
      <trkpt lat="10.274649" lon="-67.970132">
        <ele>488.30</ele>
        <time>2022-10-26T14:18:01Z</time>
      </trkpt>
      <trkpt lat="10.274670" lon="-67.970040">
        <ele>488.20</ele>
        <time>2022-10-26T14:18:02Z</time>
      </trkpt>
      <trkpt lat="10.274709" lon="-67.969865">
        <ele>488.00</ele>
        <time>2022-10-26T14:18:04Z</time>
      </trkpt>
      <trkpt lat="10.274740" lon="-67.969690">
        <ele>487.90</ele>
        <time>2022-10-26T14:18:06Z</time>
      </trkpt>
      <trkpt lat="10.274774" lon="-67.969519">
        <ele>487.80</ele>
        <time>2022-10-26T14:18:08Z</time>
      </trkpt>
      <trkpt lat="10.274804" lon="-67.969355">
        <ele>487.60</ele>
        <time>2022-10-26T14:18:10Z</time>
      </trkpt>
      <trkpt lat="10.274821" lon="-67.969273">
        <ele>487.60</ele>
        <time>2022-10-26T14:18:11Z</time>
      </trkpt>
      <trkpt lat="10.274855" lon="-67.969117">
        <ele>487.40</ele>
        <time>2022-10-26T14:18:13Z</time>
      </trkpt>
      <trkpt lat="10.274909" lon="-67.968956">
        <ele>487.30</ele>
        <time>2022-10-26T14:18:15Z</time>
      </trkpt>
      <trkpt lat="10.274957" lon="-67.968786">
        <ele>487.30</ele>
        <time>2022-10-26T14:18:17Z</time>
      </trkpt>
      <trkpt lat="10.274999" lon="-67.968612">
        <ele>487.20</ele>
        <time>2022-10-26T14:18:19Z</time>
      </trkpt>
      <trkpt lat="10.275041" lon="-67.968433">
        <ele>487.10</ele>
        <time>2022-10-26T14:18:21Z</time>
      </trkpt>
      <trkpt lat="10.275062" lon="-67.968345">
        <ele>487.10</ele>
        <time>2022-10-26T14:18:22Z</time>
      </trkpt>
      <trkpt lat="10.275098" lon="-67.968165">
        <ele>487.00</ele>
        <time>2022-10-26T14:18:24Z</time>
      </trkpt>
      <trkpt lat="10.275115" lon="-67.968072">
        <ele>486.90</ele>
        <time>2022-10-26T14:18:25Z</time>
      </trkpt>
      <trkpt lat="10.275133" lon="-67.967979">
        <ele>486.90</ele>
        <time>2022-10-26T14:18:26Z</time>
      </trkpt>
      <trkpt lat="10.275168" lon="-67.967794">
        <ele>486.80</ele>
        <time>2022-10-26T14:18:28Z</time>
      </trkpt>
      <trkpt lat="10.275188" lon="-67.967701">
        <ele>486.70</ele>
        <time>2022-10-26T14:18:29Z</time>
      </trkpt>
      <trkpt lat="10.275212" lon="-67.967606">
        <ele>486.60</ele>
        <time>2022-10-26T14:18:30Z</time>
      </trkpt>
      <trkpt lat="10.275232" lon="-67.967510">
        <ele>486.60</ele>
        <time>2022-10-26T14:18:31Z</time>
      </trkpt>
      <trkpt lat="10.275270" lon="-67.967330">
        <ele>486.50</ele>
        <time>2022-10-26T14:18:33Z</time>
      </trkpt>
      <trkpt lat="10.275292" lon="-67.967237">
        <ele>486.40</ele>
        <time>2022-10-26T14:18:34Z</time>
      </trkpt>
      <trkpt lat="10.275312" lon="-67.967140">
        <ele>486.40</ele>
        <time>2022-10-26T14:18:35Z</time>
      </trkpt>
      <trkpt lat="10.275331" lon="-67.967047">
        <ele>486.30</ele>
        <time>2022-10-26T14:18:36Z</time>
      </trkpt>
      <trkpt lat="10.275370" lon="-67.966860">
        <ele>486.10</ele>
        <time>2022-10-26T14:18:38Z</time>
      </trkpt>
      <trkpt lat="10.275386" lon="-67.966767">
        <ele>486.10</ele>
        <time>2022-10-26T14:18:39Z</time>
      </trkpt>
      <trkpt lat="10.275418" lon="-67.966587">
        <ele>485.90</ele>
        <time>2022-10-26T14:18:41Z</time>
      </trkpt>
      <trkpt lat="10.275450" lon="-67.966407">
        <ele>485.70</ele>
        <time>2022-10-26T14:18:43Z</time>
      </trkpt>
      <trkpt lat="10.275466" lon="-67.966315">
        <ele>485.60</ele>
        <time>2022-10-26T14:18:44Z</time>
      </trkpt>
      <trkpt lat="10.275500" lon="-67.966127">
        <ele>485.50</ele>
        <time>2022-10-26T14:18:46Z</time>
      </trkpt>
      <trkpt lat="10.275537" lon="-67.965930">
        <ele>485.30</ele>
        <time>2022-10-26T14:18:48Z</time>
      </trkpt>
      <trkpt lat="10.275575" lon="-67.965737">
        <ele>485.20</ele>
        <time>2022-10-26T14:18:50Z</time>
      </trkpt>
      <trkpt lat="10.275613" lon="-67.965534">
        <ele>485.00</ele>
        <time>2022-10-26T14:18:52Z</time>
      </trkpt>
      <trkpt lat="10.275643" lon="-67.965338">
        <ele>484.90</ele>
        <time>2022-10-26T14:18:54Z</time>
      </trkpt>
      <trkpt lat="10.275660" lon="-67.965241">
        <ele>484.80</ele>
        <time>2022-10-26T14:18:55Z</time>
      </trkpt>
      <trkpt lat="10.275691" lon="-67.965054">
        <ele>484.70</ele>
        <time>2022-10-26T14:18:57Z</time>
      </trkpt>
      <trkpt lat="10.275702" lon="-67.964962">
        <ele>484.60</ele>
        <time>2022-10-26T14:18:58Z</time>
      </trkpt>
      <trkpt lat="10.275721" lon="-67.964773">
        <ele>484.40</ele>
        <time>2022-10-26T14:19:00Z</time>
      </trkpt>
      <trkpt lat="10.275731" lon="-67.964681">
        <ele>484.30</ele>
        <time>2022-10-26T14:19:01Z</time>
      </trkpt>
      <trkpt lat="10.275742" lon="-67.964590">
        <ele>484.20</ele>
        <time>2022-10-26T14:19:02Z</time>
      </trkpt>
      <trkpt lat="10.275753" lon="-67.964501">
        <ele>484.10</ele>
        <time>2022-10-26T14:19:03Z</time>
      </trkpt>
      <trkpt lat="10.275766" lon="-67.964326">
        <ele>483.90</ele>
        <time>2022-10-26T14:19:05Z</time>
      </trkpt>
      <trkpt lat="10.275772" lon="-67.964144">
        <ele>483.60</ele>
        <time>2022-10-26T14:19:07Z</time>
      </trkpt>
      <trkpt lat="10.275769" lon="-67.964057">
        <ele>483.40</ele>
        <time>2022-10-26T14:19:08Z</time>
      </trkpt>
      <trkpt lat="10.275746" lon="-67.963880">
        <ele>483.10</ele>
        <time>2022-10-26T14:19:10Z</time>
      </trkpt>
      <trkpt lat="10.275732" lon="-67.963792">
        <ele>482.90</ele>
        <time>2022-10-26T14:19:11Z</time>
      </trkpt>
      <trkpt lat="10.275712" lon="-67.963701">
        <ele>482.90</ele>
        <time>2022-10-26T14:19:12Z</time>
      </trkpt>
      <trkpt lat="10.275675" lon="-67.963524">
        <ele>482.40</ele>
        <time>2022-10-26T14:19:14Z</time>
      </trkpt>
      <trkpt lat="10.275649" lon="-67.963433">
        <ele>482.10</ele>
        <time>2022-10-26T14:19:15Z</time>
      </trkpt>
      <trkpt lat="10.275620" lon="-67.963343">
        <ele>481.80</ele>
        <time>2022-10-26T14:19:16Z</time>
      </trkpt>
      <trkpt lat="10.275549" lon="-67.963163">
        <ele>481.20</ele>
        <time>2022-10-26T14:19:18Z</time>
      </trkpt>
      <trkpt lat="10.275459" lon="-67.962988">
        <ele>480.60</ele>
        <time>2022-10-26T14:19:20Z</time>
      </trkpt>
      <trkpt lat="10.275408" lon="-67.962902">
        <ele>480.30</ele>
        <time>2022-10-26T14:19:21Z</time>
      </trkpt>
      <trkpt lat="10.275355" lon="-67.962816">
        <ele>479.90</ele>
        <time>2022-10-26T14:19:22Z</time>
      </trkpt>
      <trkpt lat="10.275251" lon="-67.962664">
        <ele>479.40</ele>
        <time>2022-10-26T14:19:24Z</time>
      </trkpt>
      <trkpt lat="10.275126" lon="-67.962516">
        <ele>478.80</ele>
        <time>2022-10-26T14:19:26Z</time>
      </trkpt>
      <trkpt lat="10.275060" lon="-67.962448">
        <ele>478.60</ele>
        <time>2022-10-26T14:19:27Z</time>
      </trkpt>
      <trkpt lat="10.274994" lon="-67.962384">
        <ele>478.30</ele>
        <time>2022-10-26T14:19:28Z</time>
      </trkpt>
      <trkpt lat="10.274853" lon="-67.962273">
        <ele>477.70</ele>
        <time>2022-10-26T14:19:30Z</time>
      </trkpt>
      <trkpt lat="10.274779" lon="-67.962217">
        <ele>477.40</ele>
        <time>2022-10-26T14:19:31Z</time>
      </trkpt>
      <trkpt lat="10.274628" lon="-67.962115">
        <ele>476.90</ele>
        <time>2022-10-26T14:19:33Z</time>
      </trkpt>
      <trkpt lat="10.274549" lon="-67.962065">
        <ele>476.60</ele>
        <time>2022-10-26T14:19:34Z</time>
      </trkpt>
      <trkpt lat="10.274379" lon="-67.961980">
        <ele>476.20</ele>
        <time>2022-10-26T14:19:36Z</time>
      </trkpt>
      <trkpt lat="10.274203" lon="-67.961906">
        <ele>475.90</ele>
        <time>2022-10-26T14:19:38Z</time>
      </trkpt>
      <trkpt lat="10.274113" lon="-67.961879">
        <ele>475.70</ele>
        <time>2022-10-26T14:19:39Z</time>
      </trkpt>
      <trkpt lat="10.274019" lon="-67.961859">
        <ele>475.60</ele>
        <time>2022-10-26T14:19:40Z</time>
      </trkpt>
      <trkpt lat="10.273928" lon="-67.961837">
        <ele>475.50</ele>
        <time>2022-10-26T14:19:41Z</time>
      </trkpt>
      <trkpt lat="10.273750" lon="-67.961808">
        <ele>475.40</ele>
        <time>2022-10-26T14:19:43Z</time>
      </trkpt>
      <trkpt lat="10.273664" lon="-67.961795">
        <ele>475.40</ele>
        <time>2022-10-26T14:19:44Z</time>
      </trkpt>
      <trkpt lat="10.273581" lon="-67.961783">
        <ele>475.40</ele>
        <time>2022-10-26T14:19:45Z</time>
      </trkpt>
      <trkpt lat="10.273500" lon="-67.961770">
        <ele>475.40</ele>
        <time>2022-10-26T14:19:46Z</time>
      </trkpt>
      <trkpt lat="10.273352" lon="-67.961748">
        <ele>475.30</ele>
        <time>2022-10-26T14:19:48Z</time>
      </trkpt>
      <trkpt lat="10.273197" lon="-67.961739">
        <ele>475.20</ele>
        <time>2022-10-26T14:19:50Z</time>
      </trkpt>
      <trkpt lat="10.273120" lon="-67.961742">
        <ele>475.20</ele>
        <time>2022-10-26T14:19:51Z</time>
      </trkpt>
      <trkpt lat="10.273049" lon="-67.961743">
        <ele>475.20</ele>
        <time>2022-10-26T14:19:52Z</time>
      </trkpt>
      <trkpt lat="10.272904" lon="-67.961746">
        <ele>475.00</ele>
        <time>2022-10-26T14:19:54Z</time>
      </trkpt>
      <trkpt lat="10.272765" lon="-67.961753">
        <ele>474.90</ele>
        <time>2022-10-26T14:19:56Z</time>
      </trkpt>
      <trkpt lat="10.272624" lon="-67.961762">
        <ele>474.70</ele>
        <time>2022-10-26T14:19:58Z</time>
      </trkpt>
      <trkpt lat="10.272556" lon="-67.961766">
        <ele>474.70</ele>
        <time>2022-10-26T14:19:59Z</time>
      </trkpt>
      <trkpt lat="10.272425" lon="-67.961762">
        <ele>474.60</ele>
        <time>2022-10-26T14:20:01Z</time>
      </trkpt>
      <trkpt lat="10.272294" lon="-67.961762">
        <ele>474.50</ele>
        <time>2022-10-26T14:20:03Z</time>
      </trkpt>
      <trkpt lat="10.272230" lon="-67.961769">
        <ele>474.50</ele>
        <time>2022-10-26T14:20:04Z</time>
      </trkpt>
      <trkpt lat="10.272107" lon="-67.961777">
        <ele>474.50</ele>
        <time>2022-10-26T14:20:06Z</time>
      </trkpt>
      <trkpt lat="10.271984" lon="-67.961796">
        <ele>474.40</ele>
        <time>2022-10-26T14:20:08Z</time>
      </trkpt>
      <trkpt lat="10.271858" lon="-67.961816">
        <ele>474.40</ele>
        <time>2022-10-26T14:20:10Z</time>
      </trkpt>
      <trkpt lat="10.271793" lon="-67.961828">
        <ele>474.30</ele>
        <time>2022-10-26T14:20:11Z</time>
      </trkpt>
      <trkpt lat="10.271671" lon="-67.961860">
        <ele>474.30</ele>
        <time>2022-10-26T14:20:13Z</time>
      </trkpt>
      <trkpt lat="10.271609" lon="-67.961872">
        <ele>474.30</ele>
        <time>2022-10-26T14:20:14Z</time>
      </trkpt>
      <trkpt lat="10.271543" lon="-67.961876">
        <ele>474.30</ele>
        <time>2022-10-26T14:20:15Z</time>
      </trkpt>
      <trkpt lat="10.271475" lon="-67.961879">
        <ele>474.30</ele>
        <time>2022-10-26T14:20:16Z</time>
      </trkpt>
      <trkpt lat="10.271344" lon="-67.961879">
        <ele>474.40</ele>
        <time>2022-10-26T14:20:18Z</time>
      </trkpt>
      <trkpt lat="10.271214" lon="-67.961902">
        <ele>474.60</ele>
        <time>2022-10-26T14:20:20Z</time>
      </trkpt>
      <trkpt lat="10.271151" lon="-67.961915">
        <ele>474.70</ele>
        <time>2022-10-26T14:20:21Z</time>
      </trkpt>
      <trkpt lat="10.271017" lon="-67.961928">
        <ele>474.70</ele>
        <time>2022-10-26T14:20:23Z</time>
      </trkpt>
      <trkpt lat="10.270945" lon="-67.961936">
        <ele>474.50</ele>
        <time>2022-10-26T14:20:24Z</time>
      </trkpt>
      <trkpt lat="10.270798" lon="-67.961958">
        <ele>474.40</ele>
        <time>2022-10-26T14:20:26Z</time>
      </trkpt>
      <trkpt lat="10.270721" lon="-67.961970">
        <ele>474.30</ele>
        <time>2022-10-26T14:20:27Z</time>
      </trkpt>
      <trkpt lat="10.270644" lon="-67.961980">
        <ele>474.20</ele>
        <time>2022-10-26T14:20:28Z</time>
      </trkpt>
      <trkpt lat="10.270490" lon="-67.962000">
        <ele>474.00</ele>
        <time>2022-10-26T14:20:30Z</time>
      </trkpt>
      <trkpt lat="10.270413" lon="-67.962007">
        <ele>474.00</ele>
        <time>2022-10-26T14:20:31Z</time>
      </trkpt>
      <trkpt lat="10.270259" lon="-67.962022">
        <ele>473.80</ele>
        <time>2022-10-26T14:20:33Z</time>
      </trkpt>
      <trkpt lat="10.270184" lon="-67.962039">
        <ele>473.80</ele>
        <time>2022-10-26T14:20:34Z</time>
      </trkpt>
      <trkpt lat="10.270031" lon="-67.962059">
        <ele>473.70</ele>
        <time>2022-10-26T14:20:36Z</time>
      </trkpt>
      <trkpt lat="10.269876" lon="-67.962074">
        <ele>473.60</ele>
        <time>2022-10-26T14:20:38Z</time>
      </trkpt>
      <trkpt lat="10.269727" lon="-67.962101">
        <ele>473.60</ele>
        <time>2022-10-26T14:20:40Z</time>
      </trkpt>
      <trkpt lat="10.269651" lon="-67.962113">
        <ele>473.50</ele>
        <time>2022-10-26T14:20:41Z</time>
      </trkpt>
      <trkpt lat="10.269496" lon="-67.962133">
        <ele>473.40</ele>
        <time>2022-10-26T14:20:43Z</time>
      </trkpt>
      <trkpt lat="10.269352" lon="-67.962148">
        <ele>473.50</ele>
        <time>2022-10-26T14:20:45Z</time>
      </trkpt>
      <trkpt lat="10.269288" lon="-67.962150">
        <ele>473.40</ele>
        <time>2022-10-26T14:20:46Z</time>
      </trkpt>
      <trkpt lat="10.269158" lon="-67.962160">
        <ele>473.40</ele>
        <time>2022-10-26T14:20:48Z</time>
      </trkpt>
      <trkpt lat="10.269021" lon="-67.962186">
        <ele>473.30</ele>
        <time>2022-10-26T14:20:50Z</time>
      </trkpt>
      <trkpt lat="10.268949" lon="-67.962199">
        <ele>473.20</ele>
        <time>2022-10-26T14:20:51Z</time>
      </trkpt>
      <trkpt lat="10.268880" lon="-67.962204">
        <ele>473.20</ele>
        <time>2022-10-26T14:20:52Z</time>
      </trkpt>
      <trkpt lat="10.268751" lon="-67.962209">
        <ele>473.10</ele>
        <time>2022-10-26T14:20:54Z</time>
      </trkpt>
      <trkpt lat="10.268616" lon="-67.962211">
        <ele>473.00</ele>
        <time>2022-10-26T14:20:56Z</time>
      </trkpt>
      <trkpt lat="10.268547" lon="-67.962217">
        <ele>473.00</ele>
        <time>2022-10-26T14:20:57Z</time>
      </trkpt>
      <trkpt lat="10.268477" lon="-67.962224">
        <ele>473.00</ele>
        <time>2022-10-26T14:20:58Z</time>
      </trkpt>
      <trkpt lat="10.268336" lon="-67.962236">
        <ele>473.00</ele>
        <time>2022-10-26T14:21:00Z</time>
      </trkpt>
      <trkpt lat="10.268268" lon="-67.962243">
        <ele>473.00</ele>
        <time>2022-10-26T14:21:01Z</time>
      </trkpt>
      <trkpt lat="10.268133" lon="-67.962260">
        <ele>472.90</ele>
        <time>2022-10-26T14:21:03Z</time>
      </trkpt>
      <trkpt lat="10.268067" lon="-67.962268">
        <ele>472.90</ele>
        <time>2022-10-26T14:21:04Z</time>
      </trkpt>
      <trkpt lat="10.267936" lon="-67.962285">
        <ele>472.90</ele>
        <time>2022-10-26T14:21:06Z</time>
      </trkpt>
      <trkpt lat="10.267873" lon="-67.962293">
        <ele>472.90</ele>
        <time>2022-10-26T14:21:07Z</time>
      </trkpt>
      <trkpt lat="10.267811" lon="-67.962302">
        <ele>473.00</ele>
        <time>2022-10-26T14:21:08Z</time>
      </trkpt>
      <trkpt lat="10.267688" lon="-67.962318">
        <ele>473.10</ele>
        <time>2022-10-26T14:21:10Z</time>
      </trkpt>
      <trkpt lat="10.267628" lon="-67.962325">
        <ele>473.10</ele>
        <time>2022-10-26T14:21:11Z</time>
      </trkpt>
      <trkpt lat="10.267506" lon="-67.962341">
        <ele>473.00</ele>
        <time>2022-10-26T14:21:13Z</time>
      </trkpt>
      <trkpt lat="10.267380" lon="-67.962361">
        <ele>473.00</ele>
        <time>2022-10-26T14:21:15Z</time>
      </trkpt>
      <trkpt lat="10.267318" lon="-67.962370">
        <ele>473.00</ele>
        <time>2022-10-26T14:21:16Z</time>
      </trkpt>
      <trkpt lat="10.267197" lon="-67.962369">
        <ele>473.00</ele>
        <time>2022-10-26T14:21:18Z</time>
      </trkpt>
      <trkpt lat="10.267071" lon="-67.962379">
        <ele>473.10</ele>
        <time>2022-10-26T14:21:20Z</time>
      </trkpt>
      <trkpt lat="10.267007" lon="-67.962388">
        <ele>473.10</ele>
        <time>2022-10-26T14:21:21Z</time>
      </trkpt>
      <trkpt lat="10.266880" lon="-67.962402">
        <ele>473.10</ele>
        <time>2022-10-26T14:21:23Z</time>
      </trkpt>
      <trkpt lat="10.266816" lon="-67.962403">
        <ele>473.10</ele>
        <time>2022-10-26T14:21:24Z</time>
      </trkpt>
      <trkpt lat="10.266751" lon="-67.962403">
        <ele>473.10</ele>
        <time>2022-10-26T14:21:25Z</time>
      </trkpt>
      <trkpt lat="10.266690" lon="-67.962411">
        <ele>473.10</ele>
        <time>2022-10-26T14:21:26Z</time>
      </trkpt>
      <trkpt lat="10.266627" lon="-67.962423">
        <ele>473.10</ele>
        <time>2022-10-26T14:21:27Z</time>
      </trkpt>
      <trkpt lat="10.266563" lon="-67.962437">
        <ele>473.10</ele>
        <time>2022-10-26T14:21:28Z</time>
      </trkpt>
      <trkpt lat="10.266434" lon="-67.962456">
        <ele>473.20</ele>
        <time>2022-10-26T14:21:30Z</time>
      </trkpt>
      <trkpt lat="10.266367" lon="-67.962460">
        <ele>473.20</ele>
        <time>2022-10-26T14:21:31Z</time>
      </trkpt>
      <trkpt lat="10.266242" lon="-67.962468">
        <ele>473.20</ele>
        <time>2022-10-26T14:21:33Z</time>
      </trkpt>
      <trkpt lat="10.266180" lon="-67.962476">
        <ele>473.20</ele>
        <time>2022-10-26T14:21:34Z</time>
      </trkpt>
      <trkpt lat="10.266060" lon="-67.962493">
        <ele>473.20</ele>
        <time>2022-10-26T14:21:36Z</time>
      </trkpt>
      <trkpt lat="10.266001" lon="-67.962499">
        <ele>473.20</ele>
        <time>2022-10-26T14:21:37Z</time>
      </trkpt>
      <trkpt lat="10.265943" lon="-67.962510">
        <ele>473.20</ele>
        <time>2022-10-26T14:21:38Z</time>
      </trkpt>
      <trkpt lat="10.265882" lon="-67.962520">
        <ele>473.10</ele>
        <time>2022-10-26T14:21:39Z</time>
      </trkpt>
      <trkpt lat="10.265817" lon="-67.962529">
        <ele>473.10</ele>
        <time>2022-10-26T14:21:40Z</time>
      </trkpt>
      <trkpt lat="10.265747" lon="-67.962538">
        <ele>473.10</ele>
        <time>2022-10-26T14:21:41Z</time>
      </trkpt>
      <trkpt lat="10.265608" lon="-67.962550">
        <ele>473.00</ele>
        <time>2022-10-26T14:21:43Z</time>
      </trkpt>
      <trkpt lat="10.265460" lon="-67.962564">
        <ele>472.90</ele>
        <time>2022-10-26T14:21:45Z</time>
      </trkpt>
      <trkpt lat="10.265389" lon="-67.962572">
        <ele>472.90</ele>
        <time>2022-10-26T14:21:46Z</time>
      </trkpt>
      <trkpt lat="10.265241" lon="-67.962593">
        <ele>472.70</ele>
        <time>2022-10-26T14:21:48Z</time>
      </trkpt>
      <trkpt lat="10.265097" lon="-67.962612">
        <ele>472.60</ele>
        <time>2022-10-26T14:21:50Z</time>
      </trkpt>
      <trkpt lat="10.265023" lon="-67.962617">
        <ele>472.40</ele>
        <time>2022-10-26T14:21:51Z</time>
      </trkpt>
      <trkpt lat="10.264949" lon="-67.962619">
        <ele>472.30</ele>
        <time>2022-10-26T14:21:52Z</time>
      </trkpt>
      <trkpt lat="10.264798" lon="-67.962633">
        <ele>472.20</ele>
        <time>2022-10-26T14:21:54Z</time>
      </trkpt>
      <trkpt lat="10.264646" lon="-67.962648">
        <ele>472.00</ele>
        <time>2022-10-26T14:21:56Z</time>
      </trkpt>
      <trkpt lat="10.264572" lon="-67.962656">
        <ele>471.90</ele>
        <time>2022-10-26T14:21:57Z</time>
      </trkpt>
      <trkpt lat="10.264498" lon="-67.962666">
        <ele>471.70</ele>
        <time>2022-10-26T14:21:58Z</time>
      </trkpt>
      <trkpt lat="10.264350" lon="-67.962671">
        <ele>471.50</ele>
        <time>2022-10-26T14:22:00Z</time>
      </trkpt>
      <trkpt lat="10.264275" lon="-67.962676">
        <ele>471.40</ele>
        <time>2022-10-26T14:22:01Z</time>
      </trkpt>
      <trkpt lat="10.264140" lon="-67.962690">
        <ele>471.30</ele>
        <time>2022-10-26T14:22:03Z</time>
      </trkpt>
      <trkpt lat="10.264069" lon="-67.962696">
        <ele>471.10</ele>
        <time>2022-10-26T14:22:04Z</time>
      </trkpt>
      <trkpt lat="10.263923" lon="-67.962716">
        <ele>470.90</ele>
        <time>2022-10-26T14:22:06Z</time>
      </trkpt>
      <trkpt lat="10.263847" lon="-67.962732">
        <ele>470.80</ele>
        <time>2022-10-26T14:22:07Z</time>
      </trkpt>
      <trkpt lat="10.263699" lon="-67.962754">
        <ele>470.60</ele>
        <time>2022-10-26T14:22:09Z</time>
      </trkpt>
      <trkpt lat="10.263620" lon="-67.962760">
        <ele>470.50</ele>
        <time>2022-10-26T14:22:10Z</time>
      </trkpt>
      <trkpt lat="10.263546" lon="-67.962764">
        <ele>470.50</ele>
        <time>2022-10-26T14:22:11Z</time>
      </trkpt>
      <trkpt lat="10.263409" lon="-67.962773">
        <ele>470.40</ele>
        <time>2022-10-26T14:22:13Z</time>
      </trkpt>
      <trkpt lat="10.263342" lon="-67.962776">
        <ele>470.30</ele>
        <time>2022-10-26T14:22:14Z</time>
      </trkpt>
      <trkpt lat="10.263209" lon="-67.962790">
        <ele>470.30</ele>
        <time>2022-10-26T14:22:16Z</time>
      </trkpt>
      <trkpt lat="10.263063" lon="-67.962802">
        <ele>470.20</ele>
        <time>2022-10-26T14:22:18Z</time>
      </trkpt>
      <trkpt lat="10.262990" lon="-67.962811">
        <ele>470.20</ele>
        <time>2022-10-26T14:22:19Z</time>
      </trkpt>
      <trkpt lat="10.262849" lon="-67.962835">
        <ele>470.10</ele>
        <time>2022-10-26T14:22:21Z</time>
      </trkpt>
      <trkpt lat="10.262780" lon="-67.962846">
        <ele>470.10</ele>
        <time>2022-10-26T14:22:22Z</time>
      </trkpt>
      <trkpt lat="10.262713" lon="-67.962857">
        <ele>470.10</ele>
        <time>2022-10-26T14:22:23Z</time>
      </trkpt>
      <trkpt lat="10.262650" lon="-67.962872">
        <ele>470.10</ele>
        <time>2022-10-26T14:22:24Z</time>
      </trkpt>
      <trkpt lat="10.262528" lon="-67.962904">
        <ele>470.00</ele>
        <time>2022-10-26T14:22:26Z</time>
      </trkpt>
      <trkpt lat="10.262460" lon="-67.962910">
        <ele>470.00</ele>
        <time>2022-10-26T14:22:27Z</time>
      </trkpt>
      <trkpt lat="10.262388" lon="-67.962912">
        <ele>469.90</ele>
        <time>2022-10-26T14:22:28Z</time>
      </trkpt>
      <trkpt lat="10.262311" lon="-67.962914">
        <ele>469.80</ele>
        <time>2022-10-26T14:22:29Z</time>
      </trkpt>
      <trkpt lat="10.262232" lon="-67.962909">
        <ele>469.80</ele>
        <time>2022-10-26T14:22:30Z</time>
      </trkpt>
      <trkpt lat="10.262079" lon="-67.962910">
        <ele>469.70</ele>
        <time>2022-10-26T14:22:32Z</time>
      </trkpt>
      <trkpt lat="10.261921" lon="-67.962918">
        <ele>469.60</ele>
        <time>2022-10-26T14:22:34Z</time>
      </trkpt>
      <trkpt lat="10.261748" lon="-67.962914">
        <ele>469.40</ele>
        <time>2022-10-26T14:22:36Z</time>
      </trkpt>
      <trkpt lat="10.261660" lon="-67.962915">
        <ele>469.40</ele>
        <time>2022-10-26T14:22:37Z</time>
      </trkpt>
      <trkpt lat="10.261577" lon="-67.962921">
        <ele>469.40</ele>
        <time>2022-10-26T14:22:38Z</time>
      </trkpt>
      <trkpt lat="10.261417" lon="-67.962925">
        <ele>469.30</ele>
        <time>2022-10-26T14:22:40Z</time>
      </trkpt>
      <trkpt lat="10.261263" lon="-67.962927">
        <ele>469.20</ele>
        <time>2022-10-26T14:22:42Z</time>
      </trkpt>
      <trkpt lat="10.261105" lon="-67.962935">
        <ele>469.10</ele>
        <time>2022-10-26T14:22:44Z</time>
      </trkpt>
      <trkpt lat="10.261026" lon="-67.962933">
        <ele>469.10</ele>
        <time>2022-10-26T14:22:45Z</time>
      </trkpt>
      <trkpt lat="10.260949" lon="-67.962934">
        <ele>469.10</ele>
        <time>2022-10-26T14:22:46Z</time>
      </trkpt>
      <trkpt lat="10.260792" lon="-67.962938">
        <ele>469.00</ele>
        <time>2022-10-26T14:22:48Z</time>
      </trkpt>
      <trkpt lat="10.260633" lon="-67.962958">
        <ele>469.00</ele>
        <time>2022-10-26T14:22:50Z</time>
      </trkpt>
      <trkpt lat="10.260555" lon="-67.962969">
        <ele>468.90</ele>
        <time>2022-10-26T14:22:51Z</time>
      </trkpt>
      <trkpt lat="10.260389" lon="-67.962974">
        <ele>468.90</ele>
        <time>2022-10-26T14:22:53Z</time>
      </trkpt>
      <trkpt lat="10.260310" lon="-67.962974">
        <ele>468.90</ele>
        <time>2022-10-26T14:22:54Z</time>
      </trkpt>
      <trkpt lat="10.260231" lon="-67.962972">
        <ele>468.80</ele>
        <time>2022-10-26T14:22:55Z</time>
      </trkpt>
      <trkpt lat="10.260068" lon="-67.962968">
        <ele>468.70</ele>
        <time>2022-10-26T14:22:57Z</time>
      </trkpt>
      <trkpt lat="10.259989" lon="-67.962967">
        <ele>468.60</ele>
        <time>2022-10-26T14:22:58Z</time>
      </trkpt>
      <trkpt lat="10.259912" lon="-67.962971">
        <ele>468.60</ele>
        <time>2022-10-26T14:22:59Z</time>
      </trkpt>
      <trkpt lat="10.259839" lon="-67.962975">
        <ele>468.60</ele>
        <time>2022-10-26T14:23:00Z</time>
      </trkpt>
      <trkpt lat="10.259766" lon="-67.962984">
        <ele>468.60</ele>
        <time>2022-10-26T14:23:01Z</time>
      </trkpt>
      <trkpt lat="10.259626" lon="-67.962999">
        <ele>468.50</ele>
        <time>2022-10-26T14:23:03Z</time>
      </trkpt>
      <trkpt lat="10.259560" lon="-67.963006">
        <ele>468.50</ele>
        <time>2022-10-26T14:23:04Z</time>
      </trkpt>
      <trkpt lat="10.259441" lon="-67.963018">
        <ele>468.50</ele>
        <time>2022-10-26T14:23:06Z</time>
      </trkpt>
      <trkpt lat="10.259389" lon="-67.963011">
        <ele>468.50</ele>
        <time>2022-10-26T14:23:07Z</time>
      </trkpt>
      <trkpt lat="10.259282" lon="-67.962991">
        <ele>468.50</ele>
        <time>2022-10-26T14:23:09Z</time>
      </trkpt>
      <trkpt lat="10.259229" lon="-67.962978">
        <ele>468.30</ele>
        <time>2022-10-26T14:23:10Z</time>
      </trkpt>
      <trkpt lat="10.259169" lon="-67.962945">
        <ele>468.20</ele>
        <time>2022-10-26T14:23:11Z</time>
      </trkpt>
      <trkpt lat="10.259044" lon="-67.962874">
        <ele>467.90</ele>
        <time>2022-10-26T14:23:13Z</time>
      </trkpt>
      <trkpt lat="10.258988" lon="-67.962825">
        <ele>467.80</ele>
        <time>2022-10-26T14:23:14Z</time>
      </trkpt>
      <trkpt lat="10.258906" lon="-67.962703">
        <ele>467.60</ele>
        <time>2022-10-26T14:23:16Z</time>
      </trkpt>
      <trkpt lat="10.258881" lon="-67.962559">
        <ele>467.50</ele>
        <time>2022-10-26T14:23:18Z</time>
      </trkpt>
      <trkpt lat="10.258876" lon="-67.962394">
        <ele>467.40</ele>
        <time>2022-10-26T14:23:20Z</time>
      </trkpt>
      <trkpt lat="10.258872" lon="-67.962313">
        <ele>467.30</ele>
        <time>2022-10-26T14:23:21Z</time>
      </trkpt>
      <trkpt lat="10.258857" lon="-67.962153">
        <ele>467.20</ele>
        <time>2022-10-26T14:23:23Z</time>
      </trkpt>
      <trkpt lat="10.258836" lon="-67.962004">
        <ele>467.10</ele>
        <time>2022-10-26T14:23:25Z</time>
      </trkpt>
      <trkpt lat="10.258828" lon="-67.961928">
        <ele>467.10</ele>
        <time>2022-10-26T14:23:26Z</time>
      </trkpt>
      <trkpt lat="10.258824" lon="-67.961851">
        <ele>467.10</ele>
        <time>2022-10-26T14:23:27Z</time>
      </trkpt>
      <trkpt lat="10.258819" lon="-67.961774">
        <ele>467.10</ele>
        <time>2022-10-26T14:23:28Z</time>
      </trkpt>
      <trkpt lat="10.258816" lon="-67.961624">
        <ele>467.20</ele>
        <time>2022-10-26T14:23:30Z</time>
      </trkpt>
      <trkpt lat="10.258818" lon="-67.961551">
        <ele>467.30</ele>
        <time>2022-10-26T14:23:31Z</time>
      </trkpt>
      <trkpt lat="10.258796" lon="-67.961391">
        <ele>467.40</ele>
        <time>2022-10-26T14:23:33Z</time>
      </trkpt>
      <trkpt lat="10.258787" lon="-67.961306">
        <ele>467.50</ele>
        <time>2022-10-26T14:23:34Z</time>
      </trkpt>
      <trkpt lat="10.258749" lon="-67.961138">
        <ele>467.60</ele>
        <time>2022-10-26T14:23:36Z</time>
      </trkpt>
      <trkpt lat="10.258726" lon="-67.961058">
        <ele>467.70</ele>
        <time>2022-10-26T14:23:37Z</time>
      </trkpt>
      <trkpt lat="10.258684" lon="-67.960919">
        <ele>467.80</ele>
        <time>2022-10-26T14:23:39Z</time>
      </trkpt>
      <trkpt lat="10.258660" lon="-67.960853">
        <ele>467.90</ele>
        <time>2022-10-26T14:23:40Z</time>
      </trkpt>
      <trkpt lat="10.258649" lon="-67.960787">
        <ele>468.00</ele>
        <time>2022-10-26T14:23:41Z</time>
      </trkpt>
      <trkpt lat="10.258617" lon="-67.960646">
        <ele>468.10</ele>
        <time>2022-10-26T14:23:43Z</time>
      </trkpt>
      <trkpt lat="10.258604" lon="-67.960575">
        <ele>468.10</ele>
        <time>2022-10-26T14:23:44Z</time>
      </trkpt>
      <trkpt lat="10.258593" lon="-67.960504">
        <ele>468.10</ele>
        <time>2022-10-26T14:23:45Z</time>
      </trkpt>
      <trkpt lat="10.258581" lon="-67.960434">
        <ele>468.20</ele>
        <time>2022-10-26T14:23:46Z</time>
      </trkpt>
      <trkpt lat="10.258546" lon="-67.960301">
        <ele>468.10</ele>
        <time>2022-10-26T14:23:48Z</time>
      </trkpt>
      <trkpt lat="10.258501" lon="-67.960182">
        <ele>468.20</ele>
        <time>2022-10-26T14:23:50Z</time>
      </trkpt>
      <trkpt lat="10.258472" lon="-67.960121">
        <ele>468.20</ele>
        <time>2022-10-26T14:23:51Z</time>
      </trkpt>
      <trkpt lat="10.258404" lon="-67.959998">
        <ele>468.10</ele>
        <time>2022-10-26T14:23:53Z</time>
      </trkpt>
      <trkpt lat="10.258366" lon="-67.959939">
        <ele>468.10</ele>
        <time>2022-10-26T14:23:54Z</time>
      </trkpt>
      <trkpt lat="10.258302" lon="-67.959814">
        <ele>468.10</ele>
        <time>2022-10-26T14:23:56Z</time>
      </trkpt>
      <trkpt lat="10.258238" lon="-67.959687">
        <ele>468.10</ele>
        <time>2022-10-26T14:23:58Z</time>
      </trkpt>
      <trkpt lat="10.258194" lon="-67.959543">
        <ele>468.10</ele>
        <time>2022-10-26T14:24:00Z</time>
      </trkpt>
      <trkpt lat="10.258172" lon="-67.959466">
        <ele>468.00</ele>
        <time>2022-10-26T14:24:01Z</time>
      </trkpt>
      <trkpt lat="10.258126" lon="-67.959314">
        <ele>467.90</ele>
        <time>2022-10-26T14:24:03Z</time>
      </trkpt>
      <trkpt lat="10.258083" lon="-67.959160">
        <ele>467.80</ele>
        <time>2022-10-26T14:24:05Z</time>
      </trkpt>
      <trkpt lat="10.258071" lon="-67.959078">
        <ele>467.80</ele>
        <time>2022-10-26T14:24:06Z</time>
      </trkpt>
      <trkpt lat="10.258034" lon="-67.958920">
        <ele>467.70</ele>
        <time>2022-10-26T14:24:08Z</time>
      </trkpt>
      <trkpt lat="10.258015" lon="-67.958842">
        <ele>467.70</ele>
        <time>2022-10-26T14:24:09Z</time>
      </trkpt>
      <trkpt lat="10.257983" lon="-67.958696">
        <ele>467.80</ele>
        <time>2022-10-26T14:24:11Z</time>
      </trkpt>
      <trkpt lat="10.257960" lon="-67.958555">
        <ele>467.90</ele>
        <time>2022-10-26T14:24:13Z</time>
      </trkpt>
      <trkpt lat="10.257932" lon="-67.958424">
        <ele>467.90</ele>
        <time>2022-10-26T14:24:15Z</time>
      </trkpt>
      <trkpt lat="10.257909" lon="-67.958362">
        <ele>467.80</ele>
        <time>2022-10-26T14:24:16Z</time>
      </trkpt>
      <trkpt lat="10.257872" lon="-67.958233">
        <ele>467.70</ele>
        <time>2022-10-26T14:24:18Z</time>
      </trkpt>
      <trkpt lat="10.257855" lon="-67.958103">
        <ele>467.70</ele>
        <time>2022-10-26T14:24:20Z</time>
      </trkpt>
      <trkpt lat="10.257853" lon="-67.958039">
        <ele>467.70</ele>
        <time>2022-10-26T14:24:21Z</time>
      </trkpt>
      <trkpt lat="10.257860" lon="-67.957906">
        <ele>467.70</ele>
        <time>2022-10-26T14:24:23Z</time>
      </trkpt>
      <trkpt lat="10.257858" lon="-67.957844">
        <ele>467.70</ele>
        <time>2022-10-26T14:24:24Z</time>
      </trkpt>
      <trkpt lat="10.257816" lon="-67.957737">
        <ele>467.60</ele>
        <time>2022-10-26T14:24:26Z</time>
      </trkpt>
      <trkpt lat="10.257795" lon="-67.957687">
        <ele>467.60</ele>
        <time>2022-10-26T14:24:27Z</time>
      </trkpt>
      <trkpt lat="10.257776" lon="-67.957640">
        <ele>467.50</ele>
        <time>2022-10-26T14:24:28Z</time>
      </trkpt>
      <trkpt lat="10.257761" lon="-67.957593">
        <ele>467.50</ele>
        <time>2022-10-26T14:24:29Z</time>
      </trkpt>
      <trkpt lat="10.257738" lon="-67.957486">
        <ele>467.40</ele>
        <time>2022-10-26T14:24:31Z</time>
      </trkpt>
      <trkpt lat="10.257736" lon="-67.957431">
        <ele>467.40</ele>
        <time>2022-10-26T14:24:32Z</time>
      </trkpt>
      <trkpt lat="10.257728" lon="-67.957371">
        <ele>467.40</ele>
        <time>2022-10-26T14:24:33Z</time>
      </trkpt>
      <trkpt lat="10.257713" lon="-67.957309">
        <ele>467.50</ele>
        <time>2022-10-26T14:24:34Z</time>
      </trkpt>
      <trkpt lat="10.257672" lon="-67.957171">
        <ele>467.50</ele>
        <time>2022-10-26T14:24:36Z</time>
      </trkpt>
      <trkpt lat="10.257638" lon="-67.957040">
        <ele>467.60</ele>
        <time>2022-10-26T14:24:38Z</time>
      </trkpt>
      <trkpt lat="10.257623" lon="-67.956968">
        <ele>467.60</ele>
        <time>2022-10-26T14:24:39Z</time>
      </trkpt>
      <trkpt lat="10.257609" lon="-67.956896">
        <ele>467.70</ele>
        <time>2022-10-26T14:24:40Z</time>
      </trkpt>
      <trkpt lat="10.257593" lon="-67.956828">
        <ele>467.70</ele>
        <time>2022-10-26T14:24:41Z</time>
      </trkpt>
      <trkpt lat="10.257564" lon="-67.956685">
        <ele>467.70</ele>
        <time>2022-10-26T14:24:43Z</time>
      </trkpt>
      <trkpt lat="10.257547" lon="-67.956613">
        <ele>467.70</ele>
        <time>2022-10-26T14:24:44Z</time>
      </trkpt>
      <trkpt lat="10.257527" lon="-67.956541">
        <ele>467.80</ele>
        <time>2022-10-26T14:24:45Z</time>
      </trkpt>
      <trkpt lat="10.257507" lon="-67.956469">
        <ele>467.80</ele>
        <time>2022-10-26T14:24:46Z</time>
      </trkpt>
      <trkpt lat="10.257488" lon="-67.956323">
        <ele>467.90</ele>
        <time>2022-10-26T14:24:48Z</time>
      </trkpt>
      <trkpt lat="10.257475" lon="-67.956177">
        <ele>468.00</ele>
        <time>2022-10-26T14:24:50Z</time>
      </trkpt>
      <trkpt lat="10.257469" lon="-67.956106">
        <ele>468.00</ele>
        <time>2022-10-26T14:24:51Z</time>
      </trkpt>
      <trkpt lat="10.257474" lon="-67.955982">
        <ele>468.20</ele>
        <time>2022-10-26T14:24:53Z</time>
      </trkpt>
      <trkpt lat="10.257465" lon="-67.955918">
        <ele>468.30</ele>
        <time>2022-10-26T14:24:54Z</time>
      </trkpt>
      <trkpt lat="10.257454" lon="-67.955852">
        <ele>468.40</ele>
        <time>2022-10-26T14:24:55Z</time>
      </trkpt>
      <trkpt lat="10.257436" lon="-67.955724">
        <ele>468.50</ele>
        <time>2022-10-26T14:24:57Z</time>
      </trkpt>
      <trkpt lat="10.257431" lon="-67.955657">
        <ele>468.60</ele>
        <time>2022-10-26T14:24:58Z</time>
      </trkpt>
      <trkpt lat="10.257426" lon="-67.955589">
        <ele>468.60</ele>
        <time>2022-10-26T14:24:59Z</time>
      </trkpt>
      <trkpt lat="10.257418" lon="-67.955455">
        <ele>468.80</ele>
        <time>2022-10-26T14:25:01Z</time>
      </trkpt>
      <trkpt lat="10.257404" lon="-67.955332">
        <ele>468.90</ele>
        <time>2022-10-26T14:25:03Z</time>
      </trkpt>
      <trkpt lat="10.257383" lon="-67.955226">
        <ele>469.00</ele>
        <time>2022-10-26T14:25:05Z</time>
      </trkpt>
      <trkpt lat="10.257360" lon="-67.955118">
        <ele>469.10</ele>
        <time>2022-10-26T14:25:07Z</time>
      </trkpt>
      <trkpt lat="10.257338" lon="-67.955006">
        <ele>469.20</ele>
        <time>2022-10-26T14:25:09Z</time>
      </trkpt>
      <trkpt lat="10.257317" lon="-67.954873">
        <ele>469.40</ele>
        <time>2022-10-26T14:25:11Z</time>
      </trkpt>
      <trkpt lat="10.257306" lon="-67.954765">
        <ele>469.40</ele>
        <time>2022-10-26T14:25:13Z</time>
      </trkpt>
      <trkpt lat="10.257297" lon="-67.954653">
        <ele>469.50</ele>
        <time>2022-10-26T14:25:15Z</time>
      </trkpt>
      <trkpt lat="10.257292" lon="-67.954536">
        <ele>469.60</ele>
        <time>2022-10-26T14:25:17Z</time>
      </trkpt>
      <trkpt lat="10.257283" lon="-67.954431">
        <ele>469.70</ele>
        <time>2022-10-26T14:25:19Z</time>
      </trkpt>
      <trkpt lat="10.257272" lon="-67.954326">
        <ele>469.80</ele>
        <time>2022-10-26T14:25:21Z</time>
      </trkpt>
      <trkpt lat="10.257266" lon="-67.954233">
        <ele>469.80</ele>
        <time>2022-10-26T14:25:23Z</time>
      </trkpt>
      <trkpt lat="10.257269" lon="-67.954155">
        <ele>469.80</ele>
        <time>2022-10-26T14:25:25Z</time>
      </trkpt>
      <trkpt lat="10.257269" lon="-67.954128">
        <ele>469.90</ele>
        <time>2022-10-26T14:25:26Z</time>
      </trkpt>
      <trkpt lat="10.257264" lon="-67.954088">
        <ele>469.90</ele>
        <time>2022-10-26T14:25:28Z</time>
      </trkpt>
      <trkpt lat="10.257235" lon="-67.954028">
        <ele>469.90</ele>
        <time>2022-10-26T14:25:30Z</time>
      </trkpt>
      <trkpt lat="10.257200" lon="-67.953954">
        <ele>469.90</ele>
        <time>2022-10-26T14:25:32Z</time>
      </trkpt>
      <trkpt lat="10.257192" lon="-67.953916">
        <ele>469.90</ele>
        <time>2022-10-26T14:25:33Z</time>
      </trkpt>
      <trkpt lat="10.257176" lon="-67.953843">
        <ele>469.90</ele>
        <time>2022-10-26T14:25:35Z</time>
      </trkpt>
      <trkpt lat="10.257168" lon="-67.953804">
        <ele>470.00</ele>
        <time>2022-10-26T14:25:36Z</time>
      </trkpt>
      <trkpt lat="10.257148" lon="-67.953723">
        <ele>470.00</ele>
        <time>2022-10-26T14:25:38Z</time>
      </trkpt>
      <trkpt lat="10.257143" lon="-67.953694">
        <ele>470.00</ele>
        <time>2022-10-26T14:25:39Z</time>
      </trkpt>
      <trkpt lat="10.257135" lon="-67.953648">
        <ele>470.10</ele>
        <time>2022-10-26T14:25:41Z</time>
      </trkpt>
      <trkpt lat="10.257151" lon="-67.953579">
        <ele>470.20</ele>
        <time>2022-10-26T14:25:43Z</time>
      </trkpt>
      <trkpt lat="10.257139" lon="-67.953507">
        <ele>470.20</ele>
        <time>2022-10-26T14:25:45Z</time>
      </trkpt>
      <trkpt lat="10.257135" lon="-67.953474">
        <ele>470.20</ele>
        <time>2022-10-26T14:25:46Z</time>
      </trkpt>
      <trkpt lat="10.257123" lon="-67.953390">
        <ele>470.20</ele>
        <time>2022-10-26T14:25:48Z</time>
      </trkpt>
      <trkpt lat="10.257116" lon="-67.953341">
        <ele>470.20</ele>
        <time>2022-10-26T14:25:49Z</time>
      </trkpt>
      <trkpt lat="10.257108" lon="-67.953229">
        <ele>470.10</ele>
        <time>2022-10-26T14:25:51Z</time>
      </trkpt>
      <trkpt lat="10.257081" lon="-67.953104">
        <ele>470.10</ele>
        <time>2022-10-26T14:25:53Z</time>
      </trkpt>
      <trkpt lat="10.257057" lon="-67.952990">
        <ele>470.00</ele>
        <time>2022-10-26T14:25:55Z</time>
      </trkpt>
      <trkpt lat="10.257043" lon="-67.952884">
        <ele>470.00</ele>
        <time>2022-10-26T14:25:57Z</time>
      </trkpt>
      <trkpt lat="10.257037" lon="-67.952800">
        <ele>470.00</ele>
        <time>2022-10-26T14:25:59Z</time>
      </trkpt>
      <trkpt lat="10.257052" lon="-67.952764">
        <ele>470.00</ele>
        <time>2022-10-26T14:26:01Z</time>
      </trkpt>
      <trkpt lat="10.257098" lon="-67.952743">
        <ele>470.00</ele>
        <time>2022-10-26T14:26:03Z</time>
      </trkpt>
      <trkpt lat="10.257130" lon="-67.952726">
        <ele>470.00</ele>
        <time>2022-10-26T14:26:04Z</time>
      </trkpt>
      <trkpt lat="10.257210" lon="-67.952697">
        <ele>470.00</ele>
        <time>2022-10-26T14:26:06Z</time>
      </trkpt>
      <trkpt lat="10.257256" lon="-67.952685">
        <ele>470.00</ele>
        <time>2022-10-26T14:26:07Z</time>
      </trkpt>
      <trkpt lat="10.257354" lon="-67.952663">
        <ele>470.00</ele>
        <time>2022-10-26T14:26:09Z</time>
      </trkpt>
      <trkpt lat="10.257454" lon="-67.952628">
        <ele>470.00</ele>
        <time>2022-10-26T14:26:11Z</time>
      </trkpt>
      <trkpt lat="10.257501" lon="-67.952613">
        <ele>470.00</ele>
        <time>2022-10-26T14:26:12Z</time>
      </trkpt>
      <trkpt lat="10.257554" lon="-67.952597">
        <ele>470.00</ele>
        <time>2022-10-26T14:26:13Z</time>
      </trkpt>
      <trkpt lat="10.257660" lon="-67.952575">
        <ele>470.00</ele>
        <time>2022-10-26T14:26:15Z</time>
      </trkpt>
      <trkpt lat="10.257753" lon="-67.952563">
        <ele>470.00</ele>
        <time>2022-10-26T14:26:17Z</time>
      </trkpt>
      <trkpt lat="10.257847" lon="-67.952557">
        <ele>470.20</ele>
        <time>2022-10-26T14:26:19Z</time>
      </trkpt>
      <trkpt lat="10.257892" lon="-67.952550">
        <ele>470.30</ele>
        <time>2022-10-26T14:26:20Z</time>
      </trkpt>
      <trkpt lat="10.257942" lon="-67.952544">
        <ele>470.40</ele>
        <time>2022-10-26T14:26:21Z</time>
      </trkpt>
      <trkpt lat="10.258034" lon="-67.952540">
        <ele>470.60</ele>
        <time>2022-10-26T14:26:23Z</time>
      </trkpt>
      <trkpt lat="10.258116" lon="-67.952528">
        <ele>470.70</ele>
        <time>2022-10-26T14:26:25Z</time>
      </trkpt>
      <trkpt lat="10.258156" lon="-67.952522">
        <ele>470.80</ele>
        <time>2022-10-26T14:26:26Z</time>
      </trkpt>
      <trkpt lat="10.258250" lon="-67.952504">
        <ele>471.00</ele>
        <time>2022-10-26T14:26:28Z</time>
      </trkpt>
      <trkpt lat="10.258300" lon="-67.952491">
        <ele>471.10</ele>
        <time>2022-10-26T14:26:29Z</time>
      </trkpt>
      <trkpt lat="10.258399" lon="-67.952470">
        <ele>471.30</ele>
        <time>2022-10-26T14:26:31Z</time>
      </trkpt>
      <trkpt lat="10.258492" lon="-67.952443">
        <ele>471.60</ele>
        <time>2022-10-26T14:26:33Z</time>
      </trkpt>
      <trkpt lat="10.258565" lon="-67.952422">
        <ele>471.70</ele>
        <time>2022-10-26T14:26:35Z</time>
      </trkpt>
      <trkpt lat="10.258600" lon="-67.952402">
        <ele>471.90</ele>
        <time>2022-10-26T14:26:36Z</time>
      </trkpt>
      <trkpt lat="10.258589" lon="-67.952311">
        <ele>471.90</ele>
        <time>2022-10-26T14:26:38Z</time>
      </trkpt>
      <trkpt lat="10.258570" lon="-67.952259">
        <ele>471.90</ele>
        <time>2022-10-26T14:26:39Z</time>
      </trkpt>
      <trkpt lat="10.258556" lon="-67.952170">
        <ele>471.90</ele>
        <time>2022-10-26T14:26:41Z</time>
      </trkpt>
      <trkpt lat="10.258547" lon="-67.952129">
        <ele>471.90</ele>
        <time>2022-10-26T14:26:42Z</time>
      </trkpt>
      <trkpt lat="10.258534" lon="-67.952054">
        <ele>471.90</ele>
        <time>2022-10-26T14:26:44Z</time>
      </trkpt>
      <trkpt lat="10.258528" lon="-67.952016">
        <ele>471.90</ele>
        <time>2022-10-26T14:26:45Z</time>
      </trkpt>
      <trkpt lat="10.258522" lon="-67.951983">
        <ele>471.90</ele>
        <time>2022-10-26T14:26:46Z</time>
      </trkpt>
      <trkpt lat="10.258517" lon="-67.951913">
        <ele>471.90</ele>
        <time>2022-10-26T14:26:48Z</time>
      </trkpt>
      <trkpt lat="10.258511" lon="-67.951830">
        <ele>471.90</ele>
        <time>2022-10-26T14:26:50Z</time>
      </trkpt>
      <trkpt lat="10.258500" lon="-67.951792">
        <ele>471.90</ele>
        <time>2022-10-26T14:26:51Z</time>
      </trkpt>
      <trkpt lat="10.258472" lon="-67.951719">
        <ele>471.90</ele>
        <time>2022-10-26T14:26:53Z</time>
      </trkpt>
      <trkpt lat="10.258463" lon="-67.951682">
        <ele>472.00</ele>
        <time>2022-10-26T14:26:54Z</time>
      </trkpt>
      <trkpt lat="10.258463" lon="-67.951643">
        <ele>472.00</ele>
        <time>2022-10-26T14:26:55Z</time>
      </trkpt>
      <trkpt lat="10.258468" lon="-67.951609">
        <ele>472.00</ele>
        <time>2022-10-26T14:26:56Z</time>
      </trkpt>
      <trkpt lat="10.258472" lon="-67.951578">
        <ele>472.00</ele>
        <time>2022-10-26T14:26:57Z</time>
      </trkpt>
      <trkpt lat="10.258473" lon="-67.951549">
        <ele>471.90</ele>
        <time>2022-10-26T14:26:58Z</time>
      </trkpt>
      <trkpt lat="10.258455" lon="-67.951490">
        <ele>471.70</ele>
        <time>2022-10-26T14:27:00Z</time>
      </trkpt>
      <trkpt lat="10.258444" lon="-67.951433">
        <ele>471.40</ele>
        <time>2022-10-26T14:27:02Z</time>
      </trkpt>
      <trkpt lat="10.258427" lon="-67.951385">
        <ele>471.30</ele>
        <time>2022-10-26T14:27:04Z</time>
      </trkpt>
      <trkpt lat="10.258415" lon="-67.951342">
        <ele>471.10</ele>
        <time>2022-10-26T14:27:06Z</time>
      </trkpt>
      <trkpt lat="10.258407" lon="-67.951303">
        <ele>470.90</ele>
        <time>2022-10-26T14:27:08Z</time>
      </trkpt>
      <trkpt lat="10.258404" lon="-67.951289">
        <ele>470.90</ele>
        <time>2022-10-26T14:27:10Z</time>
      </trkpt>
      <trkpt lat="10.258407" lon="-67.951285">
        <ele>470.90</ele>
        <time>2022-10-26T14:27:11Z</time>
      </trkpt>
      <trkpt lat="10.258409" lon="-67.951281">
        <ele>470.90</ele>
        <time>2022-10-26T14:27:13Z</time>
      </trkpt>
    </trkseg>
  </trk>
</gpx>
